<?xml version='1.0' encoding='UTF-8'?><gpx version="1.1" creator="JPX - https://github.com/jenetics/jpx" xmlns="http://www.topografix.com/GPX/1/1"><trk><trkseg><trkpt lat="43.6129635" lon="13.5210288"><ele>79.0</ele><time>2026-04-25T07:15:59.921Z</time></trkpt><trkpt lat="43.613086" lon="13.5214269"><ele>79.0</ele><time>2026-04-25T07:16:06.413Z</time></trkpt><trkpt lat="43.6128248" lon="13.5209568"><ele>84.0</ele><time>2026-04-25T07:16:08.313Z</time></trkpt><trkpt lat="43.6127924" lon="13.5207142"><ele>89.0</ele><time>2026-04-25T07:16:18.152Z</time></trkpt><trkpt lat="43.61244" lon="13.5203911"><ele>90.0</ele><time>2026-04-25T07:16:49.506Z</time></trkpt><trkpt lat="43.6125416" lon="13.5195366"><ele>86.0</ele><time>2026-04-25T07:16:55.536Z</time></trkpt><trkpt lat="43.6125158" lon="13.5187339"><ele>86.0</ele><time>2026-04-25T07:17:01.72Z</time></trkpt><trkpt lat="43.6121344" lon="13.5185518"><ele>86.0</ele><time>2026-04-25T07:17:08.155Z</time></trkpt><trkpt lat="43.6121702" lon="13.5168559"><ele>80.0</ele><time>2026-04-25T07:17:14.098Z</time></trkpt><trkpt lat="43.6120629" lon="13.5161436"><ele>77.0</ele><time>2026-04-25T07:17:20.251Z</time></trkpt><trkpt lat="43.6118845" lon="13.5154113"><ele>77.0</ele><time>2026-04-25T07:17:26.493Z</time></trkpt><trkpt lat="43.6118451" lon="13.515327"><ele>77.0</ele><time>2026-04-25T07:17:28.336Z</time></trkpt><trkpt lat="43.6116771" lon="13.5145594"><ele>77.2</ele><time>2026-04-25T07:17:38.179Z</time></trkpt><trkpt lat="43.6116508" lon="13.5144728"><ele>77.4</ele><time>2026-04-25T07:17:39.111Z</time></trkpt><trkpt lat="43.6115988" lon="13.514372"><ele>77.6</ele><time>2026-04-25T07:17:40.109Z</time></trkpt><trkpt lat="43.6115404" lon="13.5142594"><ele>77.8</ele><time>2026-04-25T07:17:41.105Z</time></trkpt><trkpt lat="43.6114654" lon="13.5141527"><ele>78.0</ele><time>2026-04-25T07:17:42.103Z</time></trkpt><trkpt lat="43.6113985" lon="13.51406"><ele>78.0</ele><time>2026-04-25T07:17:43.101Z</time></trkpt><trkpt lat="43.6113096" lon="13.5139735"><ele>78.0</ele><time>2026-04-25T07:17:44.103Z</time></trkpt><trkpt lat="43.6112288" lon="13.5138936"><ele>78.0</ele><time>2026-04-25T07:17:45.1Z</time></trkpt><trkpt lat="43.6111558" lon="13.5138129"><ele>78.0</ele><time>2026-04-25T07:17:46.103Z</time></trkpt><trkpt lat="43.611083" lon="13.513753"><ele>78.0</ele><time>2026-04-25T07:17:47.11Z</time></trkpt><trkpt lat="43.6109852" lon="13.5137392"><ele>78.8</ele><time>2026-04-25T07:17:48.102Z</time></trkpt><trkpt lat="43.6108876" lon="13.5137323"><ele>79.6</ele><time>2026-04-25T07:17:49.103Z</time></trkpt><trkpt lat="43.6107896" lon="13.5137054"><ele>80.39999999999999</ele><time>2026-04-25T07:17:50.107Z</time></trkpt><trkpt lat="43.6106931" lon="13.51363"><ele>81.19999999999999</ele><time>2026-04-25T07:17:51.106Z</time></trkpt><trkpt lat="43.6106173" lon="13.5135353"><ele>82.0</ele><time>2026-04-25T07:17:52.101Z</time></trkpt><trkpt lat="43.610522" lon="13.5134327"><ele>82.0</ele><time>2026-04-25T07:17:53.109Z</time></trkpt><trkpt lat="43.6104375" lon="13.5133046"><ele>82.0</ele><time>2026-04-25T07:17:54.105Z</time></trkpt><trkpt lat="43.6103528" lon="13.5131578"><ele>82.0</ele><time>2026-04-25T07:17:55.103Z</time></trkpt><trkpt lat="43.6102618" lon="13.5130114"><ele>82.0</ele><time>2026-04-25T07:17:56.111Z</time></trkpt><trkpt lat="43.6101521" lon="13.5128527"><ele>81.0</ele><time>2026-04-25T07:17:57.108Z</time></trkpt><trkpt lat="43.6100467" lon="13.5127031"><ele>80.0</ele><time>2026-04-25T07:17:58.113Z</time></trkpt><trkpt lat="43.6099739" lon="13.5125772"><ele>79.0</ele><time>2026-04-25T07:17:59.105Z</time></trkpt><trkpt lat="43.6098783" lon="13.5124538"><ele>78.0</ele><time>2026-04-25T07:18:00.01Z</time></trkpt><trkpt lat="43.6097622" lon="13.5122224"><ele>77.4</ele><time>2026-04-25T07:18:01.815Z</time></trkpt><trkpt lat="43.6096989" lon="13.5120388"><ele>76.8</ele><time>2026-04-25T07:18:03.608Z</time></trkpt><trkpt lat="43.6097215" lon="13.5118664"><ele>76.2</ele><time>2026-04-25T07:18:05.494Z</time></trkpt><trkpt lat="43.609739" lon="13.5117804"><ele>75.6</ele><time>2026-04-25T07:18:08.481Z</time></trkpt><trkpt lat="43.6096452" lon="13.5117564"><ele>75.0</ele><time>2026-04-25T07:18:10.481Z</time></trkpt><trkpt lat="43.6095508" lon="13.5117232"><ele>72.6</ele><time>2026-04-25T07:18:11.48Z</time></trkpt><trkpt lat="43.6094493" lon="13.511679"><ele>70.2</ele><time>2026-04-25T07:18:12.474Z</time></trkpt><trkpt lat="43.6093343" lon="13.5116364"><ele>67.8</ele><time>2026-04-25T07:18:13.48Z</time></trkpt><trkpt lat="43.6092328" lon="13.5115823"><ele>65.4</ele><time>2026-04-25T07:18:14.476Z</time></trkpt><trkpt lat="43.6091572" lon="13.5115256"><ele>63.0</ele><time>2026-04-25T07:18:15.486Z</time></trkpt><trkpt lat="43.6090786" lon="13.5114903"><ele>63.0</ele><time>2026-04-25T07:18:16.488Z</time></trkpt><trkpt lat="43.6090075" lon="13.5114622"><ele>63.0</ele><time>2026-04-25T07:18:17.493Z</time></trkpt><trkpt lat="43.608892" lon="13.5114858"><ele>63.0</ele><time>2026-04-25T07:18:19.493Z</time></trkpt><trkpt lat="43.6088146" lon="13.511634"><ele>63.0</ele><time>2026-04-25T07:18:21.495Z</time></trkpt><trkpt lat="43.6087978" lon="13.5117486"><ele>63.0</ele><time>2026-04-25T07:18:22.487Z</time></trkpt><trkpt lat="43.6087863" lon="13.51188"><ele>63.0</ele><time>2026-04-25T07:18:23.488Z</time></trkpt><trkpt lat="43.6087605" lon="13.511982"><ele>63.0</ele><time>2026-04-25T07:18:24.493Z</time></trkpt><trkpt lat="43.6087243" lon="13.5120685"><ele>63.0</ele><time>2026-04-25T07:18:25.492Z</time></trkpt><trkpt lat="43.6086719" lon="13.5121773"><ele>63.0</ele><time>2026-04-25T07:18:27.485Z</time></trkpt><trkpt lat="43.6086418" lon="13.5122638"><ele>63.0</ele><time>2026-04-25T07:18:30.493Z</time></trkpt><trkpt lat="43.6087074" lon="13.5123615"><ele>63.0</ele><time>2026-04-25T07:18:32.493Z</time></trkpt><trkpt lat="43.608768" lon="13.5124197"><ele>61.8</ele><time>2026-04-25T07:18:33.49Z</time></trkpt><trkpt lat="43.6088417" lon="13.5124952"><ele>60.599999999999994</ele><time>2026-04-25T07:18:34.502Z</time></trkpt><trkpt lat="43.6089153" lon="13.5126027"><ele>59.400000000000006</ele><time>2026-04-25T07:18:35.494Z</time></trkpt><trkpt lat="43.6089859" lon="13.5127226"><ele>58.2</ele><time>2026-04-25T07:18:36.496Z</time></trkpt><trkpt lat="43.6090524" lon="13.5128523"><ele>57.0</ele><time>2026-04-25T07:18:37.495Z</time></trkpt><trkpt lat="43.6091177" lon="13.5129891"><ele>54.75</ele><time>2026-04-25T07:18:38.501Z</time></trkpt><trkpt lat="43.6091806" lon="13.5131307"><ele>52.5</ele><time>2026-04-25T07:18:39.497Z</time></trkpt><trkpt lat="43.6092456" lon="13.5132734"><ele>50.25</ele><time>2026-04-25T07:18:40.5Z</time></trkpt><trkpt lat="43.6093114" lon="13.5134182"><ele>48.0</ele><time>2026-04-25T07:18:41.498Z</time></trkpt><trkpt lat="43.6093845" lon="13.5135624"><ele>48.0</ele><time>2026-04-25T07:18:42.502Z</time></trkpt><trkpt lat="43.6094456" lon="13.5136965"><ele>48.0</ele><time>2026-04-25T07:18:43.497Z</time></trkpt><trkpt lat="43.6095017" lon="13.513839"><ele>48.0</ele><time>2026-04-25T07:18:44.501Z</time></trkpt><trkpt lat="43.6095698" lon="13.5139832"><ele>48.0</ele><time>2026-04-25T07:18:45.499Z</time></trkpt><trkpt lat="43.6096275" lon="13.5141185"><ele>49.5</ele><time>2026-04-25T07:18:46.505Z</time></trkpt><trkpt lat="43.609701" lon="13.5142447"><ele>51.0</ele><time>2026-04-25T07:18:47.503Z</time></trkpt><trkpt lat="43.6097846" lon="13.5143562"><ele>52.5</ele><time>2026-04-25T07:18:48.507Z</time></trkpt><trkpt lat="43.6098636" lon="13.5144663"><ele>54.0</ele><time>2026-04-25T07:18:49.5Z</time></trkpt><trkpt lat="43.6099491" lon="13.5145786"><ele>54.0</ele><time>2026-04-25T07:18:50.496Z</time></trkpt><trkpt lat="43.6100389" lon="13.5146811"><ele>54.00000000000001</ele><time>2026-04-25T07:18:51.497Z</time></trkpt><trkpt lat="43.6101186" lon="13.5147887"><ele>54.00000000000001</ele><time>2026-04-25T07:18:52.5Z</time></trkpt><trkpt lat="43.6101894" lon="13.5149057"><ele>54.0</ele><time>2026-04-25T07:18:53.496Z</time></trkpt><trkpt lat="43.6102429" lon="13.515015"><ele>54.0</ele><time>2026-04-25T07:18:54.496Z</time></trkpt><trkpt lat="43.6102897" lon="13.5151224"><ele>55.6</ele><time>2026-04-25T07:18:55.494Z</time></trkpt><trkpt lat="43.6103285" lon="13.5152478"><ele>57.2</ele><time>2026-04-25T07:18:56.498Z</time></trkpt><trkpt lat="43.6103536" lon="13.515371"><ele>58.800000000000004</ele><time>2026-04-25T07:18:57.496Z</time></trkpt><trkpt lat="43.6103763" lon="13.5155079"><ele>60.400000000000006</ele><time>2026-04-25T07:18:58.5Z</time></trkpt><trkpt lat="43.610413" lon="13.5156322"><ele>62.0</ele><time>2026-04-25T07:18:59.49Z</time></trkpt><trkpt lat="43.6104393" lon="13.5157603"><ele>62.0</ele><time>2026-04-25T07:19:00.492Z</time></trkpt><trkpt lat="43.6104714" lon="13.5158982"><ele>62.0</ele><time>2026-04-25T07:19:01.497Z</time></trkpt><trkpt lat="43.6104979" lon="13.5160454"><ele>62.0</ele><time>2026-04-25T07:19:02.494Z</time></trkpt><trkpt lat="43.6105229" lon="13.5161786"><ele>62.0</ele><time>2026-04-25T07:19:03.497Z</time></trkpt><trkpt lat="43.6105386" lon="13.5163117"><ele>62.0</ele><time>2026-04-25T07:19:04.502Z</time></trkpt><trkpt lat="43.6105529" lon="13.5164388"><ele>61.0</ele><time>2026-04-25T07:19:05.496Z</time></trkpt><trkpt lat="43.6105455" lon="13.5165444"><ele>60.0</ele><time>2026-04-25T07:19:06.498Z</time></trkpt><trkpt lat="43.6105469" lon="13.516652"><ele>59.0</ele><time>2026-04-25T07:19:07.498Z</time></trkpt><trkpt lat="43.6105272" lon="13.5167395"><ele>58.0</ele><time>2026-04-25T07:19:08.501Z</time></trkpt><trkpt lat="43.6104552" lon="13.5168786"><ele>57.0</ele><time>2026-04-25T07:19:10.491Z</time></trkpt><trkpt lat="43.6103396" lon="13.5169473"><ele>55.400000000000006</ele><time>2026-04-25T07:19:12.494Z</time></trkpt><trkpt lat="43.6102452" lon="13.516944"><ele>53.800000000000004</ele><time>2026-04-25T07:19:13.499Z</time></trkpt><trkpt lat="43.6101531" lon="13.5169453"><ele>52.2</ele><time>2026-04-25T07:19:14.489Z</time></trkpt><trkpt lat="43.6100684" lon="13.5169499"><ele>50.6</ele><time>2026-04-25T07:19:15.483Z</time></trkpt><trkpt lat="43.6099783" lon="13.5169507"><ele>49.0</ele><time>2026-04-25T07:19:16.487Z</time></trkpt><trkpt lat="43.6098672" lon="13.5169333"><ele>48.99999999999999</ele><time>2026-04-25T07:19:17.495Z</time></trkpt><trkpt lat="43.6097778" lon="13.5169083"><ele>49.0</ele><time>2026-04-25T07:19:18.495Z</time></trkpt><trkpt lat="43.6096821" lon="13.5168402"><ele>49.0</ele><time>2026-04-25T07:19:19.496Z</time></trkpt><trkpt lat="43.6096052" lon="13.5167637"><ele>49.0</ele><time>2026-04-25T07:19:20.493Z</time></trkpt><trkpt lat="43.6095469" lon="13.5166898"><ele>48.99999999999999</ele><time>2026-04-25T07:19:21.493Z</time></trkpt><trkpt lat="43.6095065" lon="13.5166109"><ele>49.0</ele><time>2026-04-25T07:19:22.495Z</time></trkpt><trkpt lat="43.6094883" lon="13.5165223"><ele>48.99999999999999</ele><time>2026-04-25T07:19:23.491Z</time></trkpt><trkpt lat="43.609479" lon="13.5164298"><ele>49.0</ele><time>2026-04-25T07:19:24.499Z</time></trkpt><trkpt lat="43.609481" lon="13.5163346"><ele>49.0</ele><time>2026-04-25T07:19:25.498Z</time></trkpt><trkpt lat="43.6094734" lon="13.5162451"><ele>49.0</ele><time>2026-04-25T07:19:26.498Z</time></trkpt><trkpt lat="43.6094888" lon="13.5161183"><ele>48.99999999999999</ele><time>2026-04-25T07:19:29.495Z</time></trkpt><trkpt lat="43.6094903" lon="13.5160043"><ele>49.0</ele><time>2026-04-25T07:19:32.496Z</time></trkpt><trkpt lat="43.6095337" lon="13.5158605"><ele>48.99999999999999</ele><time>2026-04-25T07:19:34.496Z</time></trkpt><trkpt lat="43.6095678" lon="13.5157843"><ele>49.0</ele><time>2026-04-25T07:19:35.498Z</time></trkpt><trkpt lat="43.6096053" lon="13.5156875"><ele>49.0</ele><time>2026-04-25T07:19:36.499Z</time></trkpt><trkpt lat="43.6096072" lon="13.515597"><ele>49.0</ele><time>2026-04-25T07:19:37.501Z</time></trkpt><trkpt lat="43.6095705" lon="13.5155154"><ele>48.99999999999999</ele><time>2026-04-25T07:19:38.5Z</time></trkpt><trkpt lat="43.6095237" lon="13.5154572"><ele>49.0</ele><time>2026-04-25T07:19:39.5Z</time></trkpt><trkpt lat="43.6093892" lon="13.5154493"><ele>47.857142857142854</ele><time>2026-04-25T07:19:41.498Z</time></trkpt><trkpt lat="43.6093196" lon="13.5154835"><ele>46.714285714285715</ele><time>2026-04-25T07:19:42.505Z</time></trkpt><trkpt lat="43.6092634" lon="13.5155403"><ele>45.57142857142857</ele><time>2026-04-25T07:19:43.498Z</time></trkpt><trkpt lat="43.6092069" lon="13.5156413"><ele>44.42857142857143</ele><time>2026-04-25T07:19:45.499Z</time></trkpt><trkpt lat="43.6091649" lon="13.5157331"><ele>43.285714285714285</ele><time>2026-04-25T07:19:48.498Z</time></trkpt><trkpt lat="43.6091173" lon="13.5157911"><ele>42.14285714285714</ele><time>2026-04-25T07:19:50.494Z</time></trkpt><trkpt lat="43.6090665" lon="13.5158553"><ele>41.0</ele><time>2026-04-25T07:19:51.493Z</time></trkpt><trkpt lat="43.6089482" lon="13.5159484"><ele>41.0</ele><time>2026-04-25T07:19:53.496Z</time></trkpt><trkpt lat="43.6088567" lon="13.5159709"><ele>41.0</ele><time>2026-04-25T07:19:54.502Z</time></trkpt><trkpt lat="43.6087625" lon="13.5159841"><ele>41.0</ele><time>2026-04-25T07:19:55.512Z</time></trkpt><trkpt lat="43.6086707" lon="13.5159829"><ele>41.0</ele><time>2026-04-25T07:19:56.511Z</time></trkpt><trkpt lat="43.608566" lon="13.5159515"><ele>41.0</ele><time>2026-04-25T07:19:57.51Z</time></trkpt><trkpt lat="43.6084604" lon="13.5158902"><ele>41.75</ele><time>2026-04-25T07:19:58.507Z</time></trkpt><trkpt lat="43.6083628" lon="13.5158052"><ele>42.5</ele><time>2026-04-25T07:19:59.503Z</time></trkpt><trkpt lat="43.6082689" lon="13.5156892"><ele>43.25</ele><time>2026-04-25T07:20:00.506Z</time></trkpt><trkpt lat="43.6081783" lon="13.5155657"><ele>44.0</ele><time>2026-04-25T07:20:01.512Z</time></trkpt><trkpt lat="43.6080585" lon="13.515437"><ele>42.0</ele><time>2026-04-25T07:20:02.5Z</time></trkpt><trkpt lat="43.607934" lon="13.5153173"><ele>40.0</ele><time>2026-04-25T07:20:03.506Z</time></trkpt><trkpt lat="43.6077814" lon="13.5151823"><ele>38.0</ele><time>2026-04-25T07:20:04.497Z</time></trkpt><trkpt lat="43.6076567" lon="13.5150548"><ele>38.0</ele><time>2026-04-25T07:20:05.507Z</time></trkpt><trkpt lat="43.6075176" lon="13.5149277"><ele>38.0</ele><time>2026-04-25T07:20:06.499Z</time></trkpt><trkpt lat="43.6073871" lon="13.5147784"><ele>38.0</ele><time>2026-04-25T07:20:07.499Z</time></trkpt><trkpt lat="43.607228" lon="13.5146682"><ele>35.75</ele><time>2026-04-25T07:20:08.503Z</time></trkpt><trkpt lat="43.6071239" lon="13.5145673"><ele>33.5</ele><time>2026-04-25T07:20:09.507Z</time></trkpt><trkpt lat="43.6070017" lon="13.5144846"><ele>31.25</ele><time>2026-04-25T07:20:10.507Z</time></trkpt><trkpt lat="43.606857" lon="13.5144141"><ele>29.0</ele><time>2026-04-25T07:20:11.5Z</time></trkpt><trkpt lat="43.6067153" lon="13.5143799"><ele>29.0</ele><time>2026-04-25T07:20:12.499Z</time></trkpt><trkpt lat="43.606551" lon="13.5143713"><ele>29.0</ele><time>2026-04-25T07:20:13.503Z</time></trkpt><trkpt lat="43.6063684" lon="13.5143357"><ele>29.0</ele><time>2026-04-25T07:20:14.494Z</time></trkpt><trkpt lat="43.6062031" lon="13.514331"><ele>26.333333333333332</ele><time>2026-04-25T07:20:15.505Z</time></trkpt><trkpt lat="43.6060351" lon="13.5143295"><ele>23.666666666666664</ele><time>2026-04-25T07:20:16.502Z</time></trkpt><trkpt lat="43.6058546" lon="13.5143313"><ele>21.0</ele><time>2026-04-25T07:20:17.508Z</time></trkpt><trkpt lat="43.6056288" lon="13.514345"><ele>21.0</ele><time>2026-04-25T07:20:18.512Z</time></trkpt><trkpt lat="43.6054091" lon="13.5143732"><ele>21.0</ele><time>2026-04-25T07:20:19.519Z</time></trkpt><trkpt lat="43.6051995" lon="13.514399"><ele>21.0</ele><time>2026-04-25T07:20:20.518Z</time></trkpt><trkpt lat="43.6049892" lon="13.5144199"><ele>19.666666666666668</ele><time>2026-04-25T07:20:21.519Z</time></trkpt><trkpt lat="43.6047791" lon="13.5144406"><ele>18.333333333333336</ele><time>2026-04-25T07:20:22.516Z</time></trkpt><trkpt lat="43.6045768" lon="13.5144732"><ele>17.0</ele><time>2026-04-25T07:20:23.538Z</time></trkpt><trkpt lat="43.6043818" lon="13.5145216"><ele>18.333333333333336</ele><time>2026-04-25T07:20:24.518Z</time></trkpt><trkpt lat="43.6041729" lon="13.5145885"><ele>19.666666666666668</ele><time>2026-04-25T07:20:25.522Z</time></trkpt><trkpt lat="43.6039735" lon="13.5146675"><ele>21.0</ele><time>2026-04-25T07:20:26.518Z</time></trkpt><trkpt lat="43.6037677" lon="13.5147866"><ele>25.333333333333336</ele><time>2026-04-25T07:20:27.517Z</time></trkpt><trkpt lat="43.6035859" lon="13.5148942"><ele>29.666666666666668</ele><time>2026-04-25T07:20:28.514Z</time></trkpt><trkpt lat="43.6034261" lon="13.5150516"><ele>34.0</ele><time>2026-04-25T07:20:29.516Z</time></trkpt><trkpt lat="43.6032589" lon="13.5152383"><ele>32.0</ele><time>2026-04-25T07:20:30.512Z</time></trkpt><trkpt lat="43.6031258" lon="13.515437"><ele>30.0</ele><time>2026-04-25T07:20:31.519Z</time></trkpt><trkpt lat="43.6029804" lon="13.5156333"><ele>28.0</ele><time>2026-04-25T07:20:32.515Z</time></trkpt><trkpt lat="43.6028275" lon="13.5158345"><ele>31.333333333333336</ele><time>2026-04-25T07:20:33.52Z</time></trkpt><trkpt lat="43.6026731" lon="13.5160441"><ele>34.666666666666664</ele><time>2026-04-25T07:20:34.514Z</time></trkpt><trkpt lat="43.602522" lon="13.516272"><ele>38.0</ele><time>2026-04-25T07:20:35.52Z</time></trkpt><trkpt lat="43.602392" lon="13.5164996"><ele>38.0</ele><time>2026-04-25T07:20:36.514Z</time></trkpt><trkpt lat="43.6022359" lon="13.5167148"><ele>38.0</ele><time>2026-04-25T07:20:37.522Z</time></trkpt><trkpt lat="43.6020867" lon="13.5169191"><ele>38.0</ele><time>2026-04-25T07:20:38.515Z</time></trkpt><trkpt lat="43.6019469" lon="13.5171063"><ele>42.33333333333333</ele><time>2026-04-25T07:20:39.524Z</time></trkpt><trkpt lat="43.6018236" lon="13.5173238"><ele>46.666666666666664</ele><time>2026-04-25T07:20:40.526Z</time></trkpt><trkpt lat="43.6016852" lon="13.5175082"><ele>51.0</ele><time>2026-04-25T07:20:41.523Z</time></trkpt><trkpt lat="43.6015437" lon="13.5176894"><ele>51.0</ele><time>2026-04-25T07:20:42.524Z</time></trkpt><trkpt lat="43.6014046" lon="13.5178876"><ele>51.0</ele><time>2026-04-25T07:20:43.521Z</time></trkpt><trkpt lat="43.6012496" lon="13.5180622"><ele>51.0</ele><time>2026-04-25T07:20:44.527Z</time></trkpt><trkpt lat="43.6010887" lon="13.5182118"><ele>53.0</ele><time>2026-04-25T07:20:45.512Z</time></trkpt><trkpt lat="43.6009291" lon="13.5183416"><ele>55.0</ele><time>2026-04-25T07:20:46.515Z</time></trkpt><trkpt lat="43.6007392" lon="13.5184498"><ele>57.0</ele><time>2026-04-25T07:20:47.516Z</time></trkpt><trkpt lat="43.6005532" lon="13.5185281"><ele>57.0</ele><time>2026-04-25T07:20:48.523Z</time></trkpt><trkpt lat="43.6003732" lon="13.5186176"><ele>57.0</ele><time>2026-04-25T07:20:49.523Z</time></trkpt><trkpt lat="43.6001822" lon="13.5187112"><ele>57.0</ele><time>2026-04-25T07:20:50.521Z</time></trkpt><trkpt lat="43.5999987" lon="13.5188109"><ele>55.66666666666667</ele><time>2026-04-25T07:20:51.526Z</time></trkpt><trkpt lat="43.5998071" lon="13.5189201"><ele>54.333333333333336</ele><time>2026-04-25T07:20:52.516Z</time></trkpt><trkpt lat="43.599614" lon="13.5190633"><ele>53.0</ele><time>2026-04-25T07:20:53.519Z</time></trkpt><trkpt lat="43.5994007" lon="13.5191914"><ele>57.0</ele><time>2026-04-25T07:20:54.518Z</time></trkpt><trkpt lat="43.5992282" lon="13.5193417"><ele>61.0</ele><time>2026-04-25T07:20:55.514Z</time></trkpt><trkpt lat="43.5990529" lon="13.5195075"><ele>65.0</ele><time>2026-04-25T07:20:56.518Z</time></trkpt><trkpt lat="43.5988684" lon="13.519687"><ele>66.0</ele><time>2026-04-25T07:20:57.522Z</time></trkpt><trkpt lat="43.5987168" lon="13.5198783"><ele>67.0</ele><time>2026-04-25T07:20:58.531Z</time></trkpt><trkpt lat="43.5985598" lon="13.5200544"><ele>68.0</ele><time>2026-04-25T07:20:59.533Z</time></trkpt><trkpt lat="43.5984257" lon="13.5202494"><ele>70.33333333333334</ele><time>2026-04-25T07:21:00.53Z</time></trkpt><trkpt lat="43.5982864" lon="13.5204179"><ele>72.66666666666667</ele><time>2026-04-25T07:21:01.528Z</time></trkpt><trkpt lat="43.5981537" lon="13.5205911"><ele>75.0</ele><time>2026-04-25T07:21:02.531Z</time></trkpt><trkpt lat="43.5980184" lon="13.5207801"><ele>75.0</ele><time>2026-04-25T07:21:03.53Z</time></trkpt><trkpt lat="43.5978787" lon="13.5209526"><ele>75.0</ele><time>2026-04-25T07:21:04.533Z</time></trkpt><trkpt lat="43.5977285" lon="13.5211251"><ele>75.0</ele><time>2026-04-25T07:21:05.522Z</time></trkpt><trkpt lat="43.5975765" lon="13.5213015"><ele>74.33333333333333</ele><time>2026-04-25T07:21:06.533Z</time></trkpt><trkpt lat="43.5974013" lon="13.5214548"><ele>73.66666666666666</ele><time>2026-04-25T07:21:07.537Z</time></trkpt><trkpt lat="43.5972341" lon="13.5215701"><ele>73.0</ele><time>2026-04-25T07:21:08.552Z</time></trkpt><trkpt lat="43.5970741" lon="13.5216604"><ele>79.66666666666666</ele><time>2026-04-25T07:21:09.546Z</time></trkpt><trkpt lat="43.5968666" lon="13.5217339"><ele>86.33333333333333</ele><time>2026-04-25T07:21:10.55Z</time></trkpt><trkpt lat="43.5966677" lon="13.5217857"><ele>93.0</ele><time>2026-04-25T07:21:11.54Z</time></trkpt><trkpt lat="43.5964912" lon="13.5217992"><ele>93.0</ele><time>2026-04-25T07:21:12.541Z</time></trkpt><trkpt lat="43.5963163" lon="13.5217981"><ele>93.0</ele><time>2026-04-25T07:21:13.534Z</time></trkpt><trkpt lat="43.5961148" lon="13.5217851"><ele>93.0</ele><time>2026-04-25T07:21:14.522Z</time></trkpt><trkpt lat="43.595897" lon="13.5218004"><ele>98.33333333333334</ele><time>2026-04-25T07:21:15.514Z</time></trkpt><trkpt lat="43.5956985" lon="13.5218093"><ele>103.66666666666667</ele><time>2026-04-25T07:21:16.501Z</time></trkpt><trkpt lat="43.5955006" lon="13.5218194"><ele>109.0</ele><time>2026-04-25T07:21:17.488Z</time></trkpt><trkpt lat="43.5953048" lon="13.521833"><ele>95.0</ele><time>2026-04-25T07:21:18.471Z</time></trkpt><trkpt lat="43.593032" lon="13.5197918"><ele>95.0</ele><time>2026-04-25T07:21:30.53Z</time></trkpt><trkpt lat="43.5928467" lon="13.5196416"><ele>95.0</ele><time>2026-04-25T07:21:31.543Z</time></trkpt><trkpt lat="43.5926838" lon="13.5194987"><ele>95.0</ele><time>2026-04-25T07:21:32.524Z</time></trkpt><trkpt lat="43.592459" lon="13.5193547"><ele>95.5</ele><time>2026-04-25T07:21:33.53Z</time></trkpt><trkpt lat="43.5922477" lon="13.5192178"><ele>96.0</ele><time>2026-04-25T07:21:34.522Z</time></trkpt><trkpt lat="43.5920486" lon="13.5190851"><ele>94.66666666666667</ele><time>2026-04-25T07:21:35.538Z</time></trkpt><trkpt lat="43.5918319" lon="13.5189861"><ele>93.33333333333334</ele><time>2026-04-25T07:21:36.534Z</time></trkpt><trkpt lat="43.5916315" lon="13.5188757"><ele>92.0</ele><time>2026-04-25T07:21:37.544Z</time></trkpt><trkpt lat="43.5914335" lon="13.5187587"><ele>93.33333333333334</ele><time>2026-04-25T07:21:38.539Z</time></trkpt><trkpt lat="43.5912376" lon="13.5186405"><ele>94.66666666666667</ele><time>2026-04-25T07:21:39.537Z</time></trkpt><trkpt lat="43.591061" lon="13.5185136"><ele>96.0</ele><time>2026-04-25T07:21:40.533Z</time></trkpt><trkpt lat="43.5908616" lon="13.5183543"><ele>98.0</ele><time>2026-04-25T07:21:41.536Z</time></trkpt><trkpt lat="43.5906624" lon="13.5181931"><ele>100.0</ele><time>2026-04-25T07:21:42.535Z</time></trkpt><trkpt lat="43.59047" lon="13.518018"><ele>103.0</ele><time>2026-04-25T07:21:43.541Z</time></trkpt><trkpt lat="43.5903072" lon="13.5178336"><ele>106.0</ele><time>2026-04-25T07:21:44.54Z</time></trkpt><trkpt lat="43.5901579" lon="13.5176485"><ele>109.0</ele><time>2026-04-25T07:21:45.535Z</time></trkpt><trkpt lat="43.590025" lon="13.5174781"><ele>109.0</ele><time>2026-04-25T07:21:46.541Z</time></trkpt><trkpt lat="43.5898704" lon="13.5172909"><ele>109.0</ele><time>2026-04-25T07:21:47.544Z</time></trkpt><trkpt lat="43.5897128" lon="13.5171287"><ele>109.0</ele><time>2026-04-25T07:21:48.539Z</time></trkpt><trkpt lat="43.5895633" lon="13.5170182"><ele>110.0</ele><time>2026-04-25T07:21:49.548Z</time></trkpt><trkpt lat="43.5893984" lon="13.5169541"><ele>111.0</ele><time>2026-04-25T07:21:50.542Z</time></trkpt><trkpt lat="43.5892392" lon="13.5169073"><ele>112.0</ele><time>2026-04-25T07:21:51.542Z</time></trkpt><trkpt lat="43.5890804" lon="13.5168999"><ele>112.0</ele><time>2026-04-25T07:21:52.544Z</time></trkpt><trkpt lat="43.5889213" lon="13.5169231"><ele>112.0</ele><time>2026-04-25T07:21:53.549Z</time></trkpt><trkpt lat="43.5887698" lon="13.5169878"><ele>112.0</ele><time>2026-04-25T07:21:54.532Z</time></trkpt><trkpt lat="43.588608" lon="13.5170752"><ele>116.66666666666667</ele><time>2026-04-25T07:21:55.539Z</time></trkpt><trkpt lat="43.5884439" lon="13.5172082"><ele>121.33333333333334</ele><time>2026-04-25T07:21:56.538Z</time></trkpt><trkpt lat="43.5882966" lon="13.5173474"><ele>126.0</ele><time>2026-04-25T07:21:57.544Z</time></trkpt><trkpt lat="43.5881716" lon="13.5175211"><ele>126.0</ele><time>2026-04-25T07:21:58.539Z</time></trkpt><trkpt lat="43.5880539" lon="13.5177237"><ele>126.0</ele><time>2026-04-25T07:21:59.54Z</time></trkpt><trkpt lat="43.5878988" lon="13.5179044"><ele>126.0</ele><time>2026-04-25T07:22:00.539Z</time></trkpt><trkpt lat="43.5877626" lon="13.5180996"><ele>127.66666666666666</ele><time>2026-04-25T07:22:01.536Z</time></trkpt><trkpt lat="43.5876021" lon="13.5182677"><ele>129.33333333333331</ele><time>2026-04-25T07:22:02.543Z</time></trkpt><trkpt lat="43.5874101" lon="13.5183964"><ele>131.0</ele><time>2026-04-25T07:22:03.539Z</time></trkpt><trkpt lat="43.5871947" lon="13.5185097"><ele>134.5</ele><time>2026-04-25T07:22:04.535Z</time></trkpt><trkpt lat="43.5869686" lon="13.5186074"><ele>138.0</ele><time>2026-04-25T07:22:05.531Z</time></trkpt><trkpt lat="43.5867458" lon="13.518678"><ele>134.33333333333334</ele><time>2026-04-25T07:22:06.542Z</time></trkpt><trkpt lat="43.5865279" lon="13.5187491"><ele>130.66666666666669</ele><time>2026-04-25T07:22:07.544Z</time></trkpt><trkpt lat="43.5863185" lon="13.518821"><ele>127.0</ele><time>2026-04-25T07:22:08.543Z</time></trkpt><trkpt lat="43.5861169" lon="13.5188968"><ele>127.0</ele><time>2026-04-25T07:22:09.539Z</time></trkpt><trkpt lat="43.5859121" lon="13.5189872"><ele>127.0</ele><time>2026-04-25T07:22:10.54Z</time></trkpt><trkpt lat="43.5857062" lon="13.5190875"><ele>127.0</ele><time>2026-04-25T07:22:11.54Z</time></trkpt><trkpt lat="43.5854933" lon="13.5192042"><ele>126.33333333333334</ele><time>2026-04-25T07:22:12.538Z</time></trkpt><trkpt lat="43.5853023" lon="13.5193177"><ele>125.66666666666666</ele><time>2026-04-25T07:22:13.541Z</time></trkpt><trkpt lat="43.5851191" lon="13.5194536"><ele>125.0</ele><time>2026-04-25T07:22:14.535Z</time></trkpt><trkpt lat="43.5849375" lon="13.5195924"><ele>125.0</ele><time>2026-04-25T07:22:15.538Z</time></trkpt><trkpt lat="43.5847763" lon="13.5197458"><ele>125.0</ele><time>2026-04-25T07:22:16.532Z</time></trkpt><trkpt lat="43.5846123" lon="13.5199023"><ele>125.0</ele><time>2026-04-25T07:22:17.548Z</time></trkpt><trkpt lat="43.58445" lon="13.5200261"><ele>127.33333333333333</ele><time>2026-04-25T07:22:18.536Z</time></trkpt><trkpt lat="43.5842874" lon="13.5201241"><ele>129.66666666666666</ele><time>2026-04-25T07:22:19.539Z</time></trkpt><trkpt lat="43.5841173" lon="13.5202057"><ele>132.0</ele><time>2026-04-25T07:22:20.533Z</time></trkpt><trkpt lat="43.5839391" lon="13.5202704"><ele>132.0</ele><time>2026-04-25T07:22:21.542Z</time></trkpt><trkpt lat="43.583757" lon="13.520299"><ele>132.0</ele><time>2026-04-25T07:22:22.539Z</time></trkpt><trkpt lat="43.583582" lon="13.5203052"><ele>132.0</ele><time>2026-04-25T07:22:23.539Z</time></trkpt><trkpt lat="43.5833834" lon="13.5202987"><ele>131.66666666666666</ele><time>2026-04-25T07:22:24.534Z</time></trkpt><trkpt lat="43.5832015" lon="13.5202483"><ele>131.33333333333331</ele><time>2026-04-25T07:22:25.533Z</time></trkpt><trkpt lat="43.5830212" lon="13.5201794"><ele>131.0</ele><time>2026-04-25T07:22:26.536Z</time></trkpt><trkpt lat="43.5828482" lon="13.5200747"><ele>126.66666666666666</ele><time>2026-04-25T07:22:27.539Z</time></trkpt><trkpt lat="43.5826828" lon="13.5199439"><ele>122.33333333333334</ele><time>2026-04-25T07:22:28.535Z</time></trkpt><trkpt lat="43.5825231" lon="13.5197939"><ele>118.0</ele><time>2026-04-25T07:22:29.54Z</time></trkpt><trkpt lat="43.5823603" lon="13.51961"><ele>115.33333333333334</ele><time>2026-04-25T07:22:30.533Z</time></trkpt><trkpt lat="43.5822298" lon="13.5194045"><ele>112.66666666666666</ele><time>2026-04-25T07:22:31.532Z</time></trkpt><trkpt lat="43.5821046" lon="13.5191841"><ele>110.0</ele><time>2026-04-25T07:22:32.532Z</time></trkpt><trkpt lat="43.5819702" lon="13.5189587"><ele>111.33333333333333</ele><time>2026-04-25T07:22:33.544Z</time></trkpt><trkpt lat="43.5818332" lon="13.5187317"><ele>112.66666666666666</ele><time>2026-04-25T07:22:34.538Z</time></trkpt><trkpt lat="43.5816852" lon="13.5185096"><ele>114.0</ele><time>2026-04-25T07:22:35.542Z</time></trkpt><trkpt lat="43.5815407" lon="13.5182854"><ele>114.0</ele><time>2026-04-25T07:22:36.538Z</time></trkpt><trkpt lat="43.581371" lon="13.5180913"><ele>114.0</ele><time>2026-04-25T07:22:37.54Z</time></trkpt><trkpt lat="43.581194" lon="13.5179336"><ele>114.0</ele><time>2026-04-25T07:22:38.534Z</time></trkpt><trkpt lat="43.5810136" lon="13.5177793"><ele>112.33333333333334</ele><time>2026-04-25T07:22:39.536Z</time></trkpt><trkpt lat="43.5808385" lon="13.5176744"><ele>110.66666666666667</ele><time>2026-04-25T07:22:40.532Z</time></trkpt><trkpt lat="43.580647" lon="13.5175769"><ele>109.0</ele><time>2026-04-25T07:22:41.528Z</time></trkpt><trkpt lat="43.5804159" lon="13.5174979"><ele>111.0</ele><time>2026-04-25T07:22:42.534Z</time></trkpt><trkpt lat="43.5801973" lon="13.5174714"><ele>113.0</ele><time>2026-04-25T07:22:43.526Z</time></trkpt><trkpt lat="43.5799707" lon="13.5174214"><ele>115.0</ele><time>2026-04-25T07:22:44.533Z</time></trkpt><trkpt lat="43.5797972" lon="13.5173588"><ele>115.0</ele><time>2026-04-25T07:22:45.522Z</time></trkpt><trkpt lat="43.5795706" lon="13.5173722"><ele>115.0</ele><time>2026-04-25T07:22:46.521Z</time></trkpt><trkpt lat="43.5793237" lon="13.5173346"><ele>116.33333333333334</ele><time>2026-04-25T07:22:47.506Z</time></trkpt><trkpt lat="43.5791047" lon="13.5173192"><ele>117.66666666666666</ele><time>2026-04-25T07:22:48.498Z</time></trkpt><trkpt lat="43.5788872" lon="13.5173053"><ele>119.0</ele><time>2026-04-25T07:22:49.486Z</time></trkpt><trkpt lat="43.577527" lon="13.5171279"><ele>114.0</ele><time>2026-04-25T07:22:58.52Z</time></trkpt><trkpt lat="43.5774527" lon="13.51716"><ele>109.0</ele><time>2026-04-25T07:22:59.514Z</time></trkpt><trkpt lat="43.5772948" lon="13.5171343"><ele>104.0</ele><time>2026-04-25T07:23:00.535Z</time></trkpt><trkpt lat="43.577119" lon="13.5171285"><ele>99.0</ele><time>2026-04-25T07:23:01.54Z</time></trkpt><trkpt lat="43.5769305" lon="13.5170988"><ele>98.0</ele><time>2026-04-25T07:23:02.536Z</time></trkpt><trkpt lat="43.5767307" lon="13.5170753"><ele>97.0</ele><time>2026-04-25T07:23:03.539Z</time></trkpt><trkpt lat="43.5765462" lon="13.5170305"><ele>96.0</ele><time>2026-04-25T07:23:04.539Z</time></trkpt><trkpt lat="43.5763497" lon="13.5170118"><ele>94.33333333333333</ele><time>2026-04-25T07:23:05.534Z</time></trkpt><trkpt lat="43.5761594" lon="13.5169562"><ele>92.66666666666666</ele><time>2026-04-25T07:23:06.539Z</time></trkpt><trkpt lat="43.5759906" lon="13.516917"><ele>91.0</ele><time>2026-04-25T07:23:07.539Z</time></trkpt><trkpt lat="43.575804" lon="13.5169116"><ele>91.0</ele><time>2026-04-25T07:23:08.541Z</time></trkpt><trkpt lat="43.5756275" lon="13.5168957"><ele>91.0</ele><time>2026-04-25T07:23:09.544Z</time></trkpt><trkpt lat="43.5754577" lon="13.5168695"><ele>91.0</ele><time>2026-04-25T07:23:10.543Z</time></trkpt><trkpt lat="43.5753117" lon="13.5168258"><ele>90.33333333333333</ele><time>2026-04-25T07:23:11.543Z</time></trkpt><trkpt lat="43.5751609" lon="13.5167878"><ele>89.66666666666667</ele><time>2026-04-25T07:23:12.545Z</time></trkpt><trkpt lat="43.5750126" lon="13.5167574"><ele>89.0</ele><time>2026-04-25T07:23:13.551Z</time></trkpt><trkpt lat="43.574846" lon="13.516724"><ele>89.0</ele><time>2026-04-25T07:23:14.552Z</time></trkpt><trkpt lat="43.5746934" lon="13.5167143"><ele>89.0</ele><time>2026-04-25T07:23:15.541Z</time></trkpt><trkpt lat="43.5745091" lon="13.5167104"><ele>89.0</ele><time>2026-04-25T07:23:16.549Z</time></trkpt><trkpt lat="43.5743431" lon="13.5167014"><ele>90.33333333333334</ele><time>2026-04-25T07:23:17.54Z</time></trkpt><trkpt lat="43.5741582" lon="13.5166783"><ele>91.66666666666667</ele><time>2026-04-25T07:23:18.529Z</time></trkpt><trkpt lat="43.5739479" lon="13.5166483"><ele>93.0</ele><time>2026-04-25T07:23:19.514Z</time></trkpt><trkpt lat="43.5737991" lon="13.5166206"><ele>91.5</ele><time>2026-04-25T07:23:20.511Z</time></trkpt><trkpt lat="43.5736476" lon="13.5165985"><ele>90.0</ele><time>2026-04-25T07:23:21.487Z</time></trkpt><trkpt lat="43.5733294" lon="13.5166345"><ele>90.0</ele><time>2026-04-25T07:23:22.492Z</time></trkpt><trkpt lat="43.5732011" lon="13.5165445"><ele>90.0</ele><time>2026-04-25T07:23:23.502Z</time></trkpt><trkpt lat="43.5730352" lon="13.5164526"><ele>90.0</ele><time>2026-04-25T07:23:24.504Z</time></trkpt><trkpt lat="43.5729267" lon="13.5163077"><ele>87.33333333333333</ele><time>2026-04-25T07:23:25.526Z</time></trkpt><trkpt lat="43.5727287" lon="13.5162448"><ele>84.66666666666666</ele><time>2026-04-25T07:23:26.538Z</time></trkpt><trkpt lat="43.5725091" lon="13.5161844"><ele>82.0</ele><time>2026-04-25T07:23:27.537Z</time></trkpt><trkpt lat="43.5723042" lon="13.516123"><ele>79.0</ele><time>2026-04-25T07:23:28.54Z</time></trkpt><trkpt lat="43.5721133" lon="13.5160439"><ele>76.0</ele><time>2026-04-25T07:23:29.539Z</time></trkpt><trkpt lat="43.5719346" lon="13.5159685"><ele>73.0</ele><time>2026-04-25T07:23:30.544Z</time></trkpt><trkpt lat="43.5717223" lon="13.5158668"><ele>73.0</ele><time>2026-04-25T07:23:31.536Z</time></trkpt><trkpt lat="43.5715364" lon="13.5157695"><ele>73.0</ele><time>2026-04-25T07:23:32.546Z</time></trkpt><trkpt lat="43.5713439" lon="13.5156528"><ele>73.0</ele><time>2026-04-25T07:23:33.55Z</time></trkpt><trkpt lat="43.571142" lon="13.5155386"><ele>73.0</ele><time>2026-04-25T07:23:34.551Z</time></trkpt><trkpt lat="43.5709608" lon="13.5154097"><ele>73.0</ele><time>2026-04-25T07:23:35.542Z</time></trkpt><trkpt lat="43.5707732" lon="13.5152862"><ele>73.0</ele><time>2026-04-25T07:23:36.542Z</time></trkpt><trkpt lat="43.5706097" lon="13.5151546"><ele>71.66666666666666</ele><time>2026-04-25T07:23:37.542Z</time></trkpt><trkpt lat="43.5704306" lon="13.5150087"><ele>70.33333333333333</ele><time>2026-04-25T07:23:38.545Z</time></trkpt><trkpt lat="43.5702633" lon="13.514859"><ele>69.0</ele><time>2026-04-25T07:23:39.542Z</time></trkpt><trkpt lat="43.5700987" lon="13.5146982"><ele>66.33333333333333</ele><time>2026-04-25T07:23:40.546Z</time></trkpt><trkpt lat="43.5699401" lon="13.5145296"><ele>63.666666666666664</ele><time>2026-04-25T07:23:41.549Z</time></trkpt><trkpt lat="43.5697785" lon="13.5143535"><ele>61.0</ele><time>2026-04-25T07:23:42.552Z</time></trkpt><trkpt lat="43.5696" lon="13.5141822"><ele>58.0</ele><time>2026-04-25T07:23:43.555Z</time></trkpt><trkpt lat="43.5694392" lon="13.514004"><ele>55.0</ele><time>2026-04-25T07:23:44.555Z</time></trkpt><trkpt lat="43.5692787" lon="13.5138415"><ele>52.0</ele><time>2026-04-25T07:23:45.556Z</time></trkpt><trkpt lat="43.5691098" lon="13.5136561"><ele>51.0</ele><time>2026-04-25T07:23:46.547Z</time></trkpt><trkpt lat="43.568948" lon="13.5134787"><ele>50.0</ele><time>2026-04-25T07:23:47.555Z</time></trkpt><trkpt lat="43.5687871" lon="13.5133016"><ele>49.0</ele><time>2026-04-25T07:23:48.555Z</time></trkpt><trkpt lat="43.5686368" lon="13.5131355"><ele>48.33333333333333</ele><time>2026-04-25T07:23:49.561Z</time></trkpt><trkpt lat="43.5684719" lon="13.5129643"><ele>47.666666666666664</ele><time>2026-04-25T07:23:50.551Z</time></trkpt><trkpt lat="43.5683142" lon="13.5127915"><ele>47.0</ele><time>2026-04-25T07:23:51.555Z</time></trkpt><trkpt lat="43.5681621" lon="13.5126225"><ele>46.666666666666664</ele><time>2026-04-25T07:23:52.551Z</time></trkpt><trkpt lat="43.5680061" lon="13.5124584"><ele>46.333333333333336</ele><time>2026-04-25T07:23:53.557Z</time></trkpt><trkpt lat="43.567855" lon="13.5123061"><ele>46.0</ele><time>2026-04-25T07:23:54.551Z</time></trkpt><trkpt lat="43.5677048" lon="13.5121547"><ele>46.0</ele><time>2026-04-25T07:23:55.555Z</time></trkpt><trkpt lat="43.5675564" lon="13.5120262"><ele>46.0</ele><time>2026-04-25T07:23:56.549Z</time></trkpt><trkpt lat="43.56741" lon="13.5118876"><ele>46.0</ele><time>2026-04-25T07:23:57.56Z</time></trkpt><trkpt lat="43.5672647" lon="13.511758"><ele>46.0</ele><time>2026-04-25T07:23:58.56Z</time></trkpt><trkpt lat="43.5671064" lon="13.5116442"><ele>46.0</ele><time>2026-04-25T07:23:59.559Z</time></trkpt><trkpt lat="43.5669446" lon="13.5115266"><ele>46.0</ele><time>2026-04-25T07:24:00.554Z</time></trkpt><trkpt lat="43.5667825" lon="13.5114187"><ele>46.333333333333336</ele><time>2026-04-25T07:24:01.555Z</time></trkpt><trkpt lat="43.5666183" lon="13.5113134"><ele>46.666666666666664</ele><time>2026-04-25T07:24:02.553Z</time></trkpt><trkpt lat="43.5664642" lon="13.5112154"><ele>47.0</ele><time>2026-04-25T07:24:03.55Z</time></trkpt><trkpt lat="43.5663162" lon="13.5111311"><ele>47.0</ele><time>2026-04-25T07:24:04.546Z</time></trkpt><trkpt lat="43.5661793" lon="13.5110559"><ele>47.0</ele><time>2026-04-25T07:24:05.551Z</time></trkpt><trkpt lat="43.5660443" lon="13.5110057"><ele>47.0</ele><time>2026-04-25T07:24:06.542Z</time></trkpt><trkpt lat="43.5659214" lon="13.5109714"><ele>47.0</ele><time>2026-04-25T07:24:07.547Z</time></trkpt><trkpt lat="43.5657754" lon="13.5109364"><ele>47.0</ele><time>2026-04-25T07:24:08.552Z</time></trkpt><trkpt lat="43.5656451" lon="13.510934"><ele>47.0</ele><time>2026-04-25T07:24:09.545Z</time></trkpt><trkpt lat="43.5654902" lon="13.5109282"><ele>47.0</ele><time>2026-04-25T07:24:10.548Z</time></trkpt><trkpt lat="43.5653432" lon="13.5109017"><ele>47.0</ele><time>2026-04-25T07:24:11.545Z</time></trkpt><trkpt lat="43.5651846" lon="13.5108841"><ele>46.666666666666664</ele><time>2026-04-25T07:24:12.55Z</time></trkpt><trkpt lat="43.565026" lon="13.5108838"><ele>46.333333333333336</ele><time>2026-04-25T07:24:13.54Z</time></trkpt><trkpt lat="43.5648692" lon="13.5109138"><ele>46.0</ele><time>2026-04-25T07:24:14.544Z</time></trkpt><trkpt lat="43.564687" lon="13.5109369"><ele>44.66666666666667</ele><time>2026-04-25T07:24:15.549Z</time></trkpt><trkpt lat="43.5645161" lon="13.5109317"><ele>43.333333333333336</ele><time>2026-04-25T07:24:16.552Z</time></trkpt><trkpt lat="43.5643501" lon="13.5108883"><ele>42.0</ele><time>2026-04-25T07:24:17.556Z</time></trkpt><trkpt lat="43.5641896" lon="13.5108609"><ele>42.0</ele><time>2026-04-25T07:24:18.556Z</time></trkpt><trkpt lat="43.5640336" lon="13.5108439"><ele>42.0</ele><time>2026-04-25T07:24:19.554Z</time></trkpt><trkpt lat="43.5638948" lon="13.5108068"><ele>42.0</ele><time>2026-04-25T07:24:20.555Z</time></trkpt><trkpt lat="43.5637512" lon="13.5107825"><ele>42.0</ele><time>2026-04-25T07:24:21.558Z</time></trkpt><trkpt lat="43.5635965" lon="13.5107686"><ele>41.75</ele><time>2026-04-25T07:24:22.558Z</time></trkpt><trkpt lat="43.563464" lon="13.5107358"><ele>41.5</ele><time>2026-04-25T07:24:23.558Z</time></trkpt><trkpt lat="43.5633191" lon="13.5107046"><ele>41.25</ele><time>2026-04-25T07:24:24.56Z</time></trkpt><trkpt lat="43.5631776" lon="13.5106861"><ele>41.0</ele><time>2026-04-25T07:24:25.555Z</time></trkpt><trkpt lat="43.5630392" lon="13.5106866"><ele>41.0</ele><time>2026-04-25T07:24:26.559Z</time></trkpt><trkpt lat="43.5629038" lon="13.5106887"><ele>41.0</ele><time>2026-04-25T07:24:27.563Z</time></trkpt><trkpt lat="43.5627834" lon="13.5106797"><ele>41.0</ele><time>2026-04-25T07:24:28.579Z</time></trkpt><trkpt lat="43.5626804" lon="13.5106771"><ele>41.0</ele><time>2026-04-25T07:24:29.564Z</time></trkpt><trkpt lat="43.5625904" lon="13.5106555"><ele>41.0</ele><time>2026-04-25T07:24:30.557Z</time></trkpt><trkpt lat="43.5625164" lon="13.5106562"><ele>41.0</ele><time>2026-04-25T07:24:31.555Z</time></trkpt><trkpt lat="43.5624469" lon="13.5106377"><ele>41.0</ele><time>2026-04-25T07:24:32.553Z</time></trkpt><trkpt lat="43.5623785" lon="13.5106108"><ele>41.0</ele><time>2026-04-25T07:24:33.556Z</time></trkpt><trkpt lat="43.5623115" lon="13.5105153"><ele>41.0</ele><time>2026-04-25T07:24:35.555Z</time></trkpt><trkpt lat="43.5622896" lon="13.5104262"><ele>41.0</ele><time>2026-04-25T07:24:36.556Z</time></trkpt><trkpt lat="43.5622801" lon="13.5103032"><ele>41.25</ele><time>2026-04-25T07:24:37.547Z</time></trkpt><trkpt lat="43.5622882" lon="13.5101567"><ele>41.5</ele><time>2026-04-25T07:24:38.541Z</time></trkpt><trkpt lat="43.562299" lon="13.5099925"><ele>41.75</ele><time>2026-04-25T07:24:39.545Z</time></trkpt><trkpt lat="43.5623046" lon="13.509823"><ele>42.0</ele><time>2026-04-25T07:24:40.536Z</time></trkpt><trkpt lat="43.5623166" lon="13.5096493"><ele>42.75</ele><time>2026-04-25T07:24:41.552Z</time></trkpt><trkpt lat="43.5623407" lon="13.5094695"><ele>43.5</ele><time>2026-04-25T07:24:42.544Z</time></trkpt><trkpt lat="43.5623777" lon="13.5092838"><ele>44.25</ele><time>2026-04-25T07:24:43.547Z</time></trkpt><trkpt lat="43.562404" lon="13.509083"><ele>45.0</ele><time>2026-04-25T07:24:44.55Z</time></trkpt><trkpt lat="43.5624375" lon="13.5089036"><ele>46.5</ele><time>2026-04-25T07:24:45.554Z</time></trkpt><trkpt lat="43.5624524" lon="13.50869"><ele>48.0</ele><time>2026-04-25T07:24:46.55Z</time></trkpt><trkpt lat="43.5624865" lon="13.5085001"><ele>49.5</ele><time>2026-04-25T07:24:47.555Z</time></trkpt><trkpt lat="43.562498" lon="13.5082995"><ele>51.0</ele><time>2026-04-25T07:24:48.553Z</time></trkpt><trkpt lat="43.5625129" lon="13.5081024"><ele>51.0</ele><time>2026-04-25T07:24:49.544Z</time></trkpt><trkpt lat="43.5625393" lon="13.5079306"><ele>51.0</ele><time>2026-04-25T07:24:50.539Z</time></trkpt><trkpt lat="43.5625568" lon="13.5078011"><ele>51.0</ele><time>2026-04-25T07:24:51.556Z</time></trkpt><trkpt lat="43.5625443" lon="13.5076765"><ele>51.0</ele><time>2026-04-25T07:24:52.543Z</time></trkpt><trkpt lat="43.5624871" lon="13.5075222"><ele>51.0</ele><time>2026-04-25T07:24:53.543Z</time></trkpt><trkpt lat="43.5624195" lon="13.5073854"><ele>53.25</ele><time>2026-04-25T07:24:54.547Z</time></trkpt><trkpt lat="43.5623478" lon="13.5072596"><ele>55.5</ele><time>2026-04-25T07:24:55.549Z</time></trkpt><trkpt lat="43.5622801" lon="13.507134"><ele>57.75</ele><time>2026-04-25T07:24:56.545Z</time></trkpt><trkpt lat="43.5622234" lon="13.5070023"><ele>60.0</ele><time>2026-04-25T07:24:57.545Z</time></trkpt><trkpt lat="43.5621717" lon="13.5068565"><ele>61.5</ele><time>2026-04-25T07:24:58.55Z</time></trkpt><trkpt lat="43.5621282" lon="13.5066912"><ele>63.0</ele><time>2026-04-25T07:24:59.546Z</time></trkpt><trkpt lat="43.5621081" lon="13.5065129"><ele>64.5</ele><time>2026-04-25T07:25:00.542Z</time></trkpt><trkpt lat="43.562124" lon="13.5063361"><ele>66.0</ele><time>2026-04-25T07:25:01.542Z</time></trkpt><trkpt lat="43.5621594" lon="13.5061433"><ele>68.0</ele><time>2026-04-25T07:25:02.552Z</time></trkpt><trkpt lat="43.5622079" lon="13.5059595"><ele>70.0</ele><time>2026-04-25T07:25:03.557Z</time></trkpt><trkpt lat="43.5622657" lon="13.5057713"><ele>72.0</ele><time>2026-04-25T07:25:04.552Z</time></trkpt><trkpt lat="43.5623404" lon="13.50557"><ele>73.66666666666667</ele><time>2026-04-25T07:25:05.557Z</time></trkpt><trkpt lat="43.5623787" lon="13.5053547"><ele>75.33333333333334</ele><time>2026-04-25T07:25:06.558Z</time></trkpt><trkpt lat="43.5624226" lon="13.5051377"><ele>77.0</ele><time>2026-04-25T07:25:07.559Z</time></trkpt><trkpt lat="43.5624771" lon="13.5049111"><ele>77.0</ele><time>2026-04-25T07:25:08.56Z</time></trkpt><trkpt lat="43.56253" lon="13.504688"><ele>77.0</ele><time>2026-04-25T07:25:09.558Z</time></trkpt><trkpt lat="43.5625872" lon="13.5044732"><ele>77.0</ele><time>2026-04-25T07:25:10.558Z</time></trkpt><trkpt lat="43.5626416" lon="13.504258"><ele>79.0</ele><time>2026-04-25T07:25:11.559Z</time></trkpt><trkpt lat="43.5626685" lon="13.5040336"><ele>81.0</ele><time>2026-04-25T07:25:12.562Z</time></trkpt><trkpt lat="43.5627005" lon="13.5038222"><ele>83.0</ele><time>2026-04-25T07:25:13.561Z</time></trkpt><trkpt lat="43.5627196" lon="13.5036224"><ele>84.5</ele><time>2026-04-25T07:25:14.559Z</time></trkpt><trkpt lat="43.5627526" lon="13.5034412"><ele>86.0</ele><time>2026-04-25T07:25:15.561Z</time></trkpt><trkpt lat="43.5627874" lon="13.5032497"><ele>87.5</ele><time>2026-04-25T07:25:16.563Z</time></trkpt><trkpt lat="43.5628192" lon="13.5030497"><ele>89.0</ele><time>2026-04-25T07:25:17.579Z</time></trkpt><trkpt lat="43.5628515" lon="13.5028655"><ele>90.25</ele><time>2026-04-25T07:25:18.569Z</time></trkpt><trkpt lat="43.5628631" lon="13.5026757"><ele>91.5</ele><time>2026-04-25T07:25:19.598Z</time></trkpt><trkpt lat="43.5628994" lon="13.5024816"><ele>92.75</ele><time>2026-04-25T07:25:20.567Z</time></trkpt><trkpt lat="43.5629404" lon="13.5022779"><ele>94.0</ele><time>2026-04-25T07:25:21.56Z</time></trkpt><trkpt lat="43.5629899" lon="13.5020958"><ele>95.33333333333333</ele><time>2026-04-25T07:25:22.556Z</time></trkpt><trkpt lat="43.5630541" lon="13.5019351"><ele>96.66666666666666</ele><time>2026-04-25T07:25:23.564Z</time></trkpt><trkpt lat="43.5631342" lon="13.501755"><ele>98.0</ele><time>2026-04-25T07:25:24.555Z</time></trkpt><trkpt lat="43.5632363" lon="13.5015723"><ele>98.0</ele><time>2026-04-25T07:25:25.56Z</time></trkpt><trkpt lat="43.5633408" lon="13.5014039"><ele>98.0</ele><time>2026-04-25T07:25:26.559Z</time></trkpt><trkpt lat="43.5634445" lon="13.5012306"><ele>98.0</ele><time>2026-04-25T07:25:27.556Z</time></trkpt><trkpt lat="43.563563" lon="13.501064"><ele>97.66666666666666</ele><time>2026-04-25T07:25:28.561Z</time></trkpt><trkpt lat="43.5636737" lon="13.5008837"><ele>97.33333333333334</ele><time>2026-04-25T07:25:29.564Z</time></trkpt><trkpt lat="43.5637981" lon="13.5006954"><ele>97.0</ele><time>2026-04-25T07:25:30.562Z</time></trkpt><trkpt lat="43.5639209" lon="13.5005213"><ele>100.66666666666667</ele><time>2026-04-25T07:25:31.559Z</time></trkpt><trkpt lat="43.5640237" lon="13.5003454"><ele>104.33333333333334</ele><time>2026-04-25T07:25:32.556Z</time></trkpt><trkpt lat="43.5641443" lon="13.5001679"><ele>108.0</ele><time>2026-04-25T07:25:33.559Z</time></trkpt><trkpt lat="43.5642515" lon="13.4999842"><ele>108.0</ele><time>2026-04-25T07:25:34.561Z</time></trkpt><trkpt lat="43.5643556" lon="13.4998232"><ele>108.0</ele><time>2026-04-25T07:25:35.564Z</time></trkpt><trkpt lat="43.5644613" lon="13.4996775"><ele>108.0</ele><time>2026-04-25T07:25:36.549Z</time></trkpt><trkpt lat="43.5645528" lon="13.499519"><ele>111.33333333333334</ele><time>2026-04-25T07:25:37.56Z</time></trkpt><trkpt lat="43.56466" lon="13.4993579"><ele>114.66666666666667</ele><time>2026-04-25T07:25:38.553Z</time></trkpt><trkpt lat="43.5647706" lon="13.499197"><ele>118.0</ele><time>2026-04-25T07:25:39.56Z</time></trkpt><trkpt lat="43.5648765" lon="13.4990444"><ele>118.0</ele><time>2026-04-25T07:25:40.559Z</time></trkpt><trkpt lat="43.5649908" lon="13.4988882"><ele>118.0</ele><time>2026-04-25T07:25:41.565Z</time></trkpt><trkpt lat="43.5650989" lon="13.4987348"><ele>118.0</ele><time>2026-04-25T07:25:42.558Z</time></trkpt><trkpt lat="43.5652206" lon="13.4985841"><ele>121.0</ele><time>2026-04-25T07:25:43.564Z</time></trkpt><trkpt lat="43.5653245" lon="13.4984142"><ele>124.0</ele><time>2026-04-25T07:25:44.56Z</time></trkpt><trkpt lat="43.5654486" lon="13.4982686"><ele>127.0</ele><time>2026-04-25T07:25:45.57Z</time></trkpt><trkpt lat="43.5655585" lon="13.4981244"><ele>128.33333333333334</ele><time>2026-04-25T07:25:46.566Z</time></trkpt><trkpt lat="43.5656732" lon="13.4979737"><ele>129.66666666666666</ele><time>2026-04-25T07:25:47.561Z</time></trkpt><trkpt lat="43.5657872" lon="13.4978297"><ele>131.0</ele><time>2026-04-25T07:25:48.565Z</time></trkpt><trkpt lat="43.5659015" lon="13.4977027"><ele>132.2</ele><time>2026-04-25T07:25:49.568Z</time></trkpt><trkpt lat="43.5659916" lon="13.4975949"><ele>133.39999999999998</ele><time>2026-04-25T07:25:50.563Z</time></trkpt><trkpt lat="43.5660663" lon="13.4975121"><ele>134.6</ele><time>2026-04-25T07:25:51.564Z</time></trkpt><trkpt lat="43.5661363" lon="13.4974236"><ele>135.79999999999998</ele><time>2026-04-25T07:25:52.568Z</time></trkpt><trkpt lat="43.5661993" lon="13.4973314"><ele>137.0</ele><time>2026-04-25T07:25:53.569Z</time></trkpt><trkpt lat="43.5662279" lon="13.4972066"><ele>139.25</ele><time>2026-04-25T07:25:54.568Z</time></trkpt><trkpt lat="43.5662379" lon="13.4970612"><ele>141.5</ele><time>2026-04-25T07:25:55.567Z</time></trkpt><trkpt lat="43.5662339" lon="13.4968827"><ele>143.75</ele><time>2026-04-25T07:25:56.564Z</time></trkpt><trkpt lat="43.5662178" lon="13.4966929"><ele>146.0</ele><time>2026-04-25T07:25:57.561Z</time></trkpt><trkpt lat="43.5661946" lon="13.4964942"><ele>147.0</ele><time>2026-04-25T07:25:58.569Z</time></trkpt><trkpt lat="43.5661684" lon="13.496286"><ele>148.0</ele><time>2026-04-25T07:25:59.573Z</time></trkpt><trkpt lat="43.5661548" lon="13.4960844"><ele>149.0</ele><time>2026-04-25T07:26:00.576Z</time></trkpt><trkpt lat="43.5661386" lon="13.4958912"><ele>150.0</ele><time>2026-04-25T07:26:01.57Z</time></trkpt><trkpt lat="43.5661288" lon="13.4957166"><ele>151.75</ele><time>2026-04-25T07:26:02.569Z</time></trkpt><trkpt lat="43.5661086" lon="13.4955412"><ele>153.5</ele><time>2026-04-25T07:26:03.567Z</time></trkpt><trkpt lat="43.566097" lon="13.4953715"><ele>155.25</ele><time>2026-04-25T07:26:04.569Z</time></trkpt><trkpt lat="43.5660844" lon="13.4952017"><ele>157.0</ele><time>2026-04-25T07:26:05.562Z</time></trkpt><trkpt lat="43.5660604" lon="13.4950281"><ele>159.39999999999998</ele><time>2026-04-25T07:26:06.568Z</time></trkpt><trkpt lat="43.5660541" lon="13.4948674"><ele>161.79999999999998</ele><time>2026-04-25T07:26:07.566Z</time></trkpt><trkpt lat="43.566052" lon="13.4947146"><ele>164.2</ele><time>2026-04-25T07:26:08.565Z</time></trkpt><trkpt lat="43.5660616" lon="13.4945771"><ele>166.6</ele><time>2026-04-25T07:26:09.559Z</time></trkpt><trkpt lat="43.5660895" lon="13.4944519"><ele>169.0</ele><time>2026-04-25T07:26:10.567Z</time></trkpt><trkpt lat="43.5661213" lon="13.4943147"><ele>168.39999999999998</ele><time>2026-04-25T07:26:11.554Z</time></trkpt><trkpt lat="43.5661716" lon="13.494171"><ele>167.8</ele><time>2026-04-25T07:26:12.561Z</time></trkpt><trkpt lat="43.566208" lon="13.4940314"><ele>167.2</ele><time>2026-04-25T07:26:13.561Z</time></trkpt><trkpt lat="43.566234" lon="13.4939081"><ele>166.60000000000002</ele><time>2026-04-25T07:26:14.56Z</time></trkpt><trkpt lat="43.5662572" lon="13.4937723"><ele>166.0</ele><time>2026-04-25T07:26:15.56Z</time></trkpt><trkpt lat="43.5662707" lon="13.4936173"><ele>167.60000000000002</ele><time>2026-04-25T07:26:16.559Z</time></trkpt><trkpt lat="43.5662722" lon="13.4934708"><ele>169.2</ele><time>2026-04-25T07:26:17.561Z</time></trkpt><trkpt lat="43.5662751" lon="13.4933158"><ele>170.8</ele><time>2026-04-25T07:26:18.563Z</time></trkpt><trkpt lat="43.5662669" lon="13.4931677"><ele>172.39999999999998</ele><time>2026-04-25T07:26:19.559Z</time></trkpt><trkpt lat="43.5662675" lon="13.4930225"><ele>174.0</ele><time>2026-04-25T07:26:20.562Z</time></trkpt><trkpt lat="43.5662744" lon="13.4928986"><ele>174.66666666666666</ele><time>2026-04-25T07:26:21.551Z</time></trkpt><trkpt lat="43.5662626" lon="13.4927849"><ele>175.33333333333334</ele><time>2026-04-25T07:26:22.561Z</time></trkpt><trkpt lat="43.5662578" lon="13.492687"><ele>176.0</ele><time>2026-04-25T07:26:23.551Z</time></trkpt><trkpt lat="43.5662514" lon="13.4925378"><ele>176.66666666666669</ele><time>2026-04-25T07:26:25.549Z</time></trkpt><trkpt lat="43.5662769" lon="13.4924454"><ele>177.33333333333334</ele><time>2026-04-25T07:26:27.552Z</time></trkpt><trkpt lat="43.5662207" lon="13.4923592"><ele>178.0</ele><time>2026-04-25T07:26:31.551Z</time></trkpt><trkpt lat="43.5661382" lon="13.4924258"><ele>180.16666666666669</ele><time>2026-04-25T07:26:33.549Z</time></trkpt><trkpt lat="43.5660924" lon="13.4924973"><ele>182.33333333333334</ele><time>2026-04-25T07:26:34.558Z</time></trkpt><trkpt lat="43.5660308" lon="13.4925881"><ele>184.5</ele><time>2026-04-25T07:26:35.56Z</time></trkpt><trkpt lat="43.5659654" lon="13.4926695"><ele>186.66666666666666</ele><time>2026-04-25T07:26:36.554Z</time></trkpt><trkpt lat="43.5659" lon="13.4927351"><ele>188.83333333333331</ele><time>2026-04-25T07:26:37.562Z</time></trkpt><trkpt lat="43.5658191" lon="13.4927858"><ele>191.0</ele><time>2026-04-25T07:26:38.55Z</time></trkpt><trkpt lat="43.5657497" lon="13.4928604"><ele>191.20000000000002</ele><time>2026-04-25T07:26:39.56Z</time></trkpt><trkpt lat="43.5656673" lon="13.4929452"><ele>191.4</ele><time>2026-04-25T07:26:40.55Z</time></trkpt><trkpt lat="43.5655779" lon="13.4930274"><ele>191.6</ele><time>2026-04-25T07:26:41.549Z</time></trkpt><trkpt lat="43.5654874" lon="13.4931004"><ele>191.8</ele><time>2026-04-25T07:26:42.548Z</time></trkpt><trkpt lat="43.5654005" lon="13.4931578"><ele>192.0</ele><time>2026-04-25T07:26:43.554Z</time></trkpt><trkpt lat="43.5653167" lon="13.4932182"><ele>190.8</ele><time>2026-04-25T07:26:44.555Z</time></trkpt><trkpt lat="43.5652175" lon="13.4932586"><ele>189.6</ele><time>2026-04-25T07:26:45.548Z</time></trkpt><trkpt lat="43.5651169" lon="13.4933043"><ele>188.4</ele><time>2026-04-25T07:26:46.552Z</time></trkpt><trkpt lat="43.5650124" lon="13.4933409"><ele>187.20000000000002</ele><time>2026-04-25T07:26:47.562Z</time></trkpt><trkpt lat="43.5649016" lon="13.4933586"><ele>186.0</ele><time>2026-04-25T07:26:48.56Z</time></trkpt><trkpt lat="43.5647872" lon="13.4933651"><ele>186.0</ele><time>2026-04-25T07:26:49.557Z</time></trkpt><trkpt lat="43.5647028" lon="13.493356"><ele>186.0</ele><time>2026-04-25T07:26:50.561Z</time></trkpt><trkpt lat="43.5646243" lon="13.4933301"><ele>186.0</ele><time>2026-04-25T07:26:51.557Z</time></trkpt><trkpt lat="43.5645476" lon="13.4932848"><ele>186.0</ele><time>2026-04-25T07:26:52.554Z</time></trkpt><trkpt lat="43.564476" lon="13.4932452"><ele>186.0</ele><time>2026-04-25T07:26:53.552Z</time></trkpt><trkpt lat="43.5644106" lon="13.4931987"><ele>186.0</ele><time>2026-04-25T07:26:54.557Z</time></trkpt><trkpt lat="43.5642479" lon="13.4931273"><ele>183.5</ele><time>2026-04-25T07:26:56.554Z</time></trkpt><trkpt lat="43.5641045" lon="13.493057"><ele>181.0</ele><time>2026-04-25T07:26:57.566Z</time></trkpt><trkpt lat="43.5639816" lon="13.4929812"><ele>178.5</ele><time>2026-04-25T07:26:58.571Z</time></trkpt><trkpt lat="43.5638352" lon="13.4929349"><ele>176.0</ele><time>2026-04-25T07:26:59.569Z</time></trkpt><trkpt lat="43.5636949" lon="13.4928798"><ele>173.5</ele><time>2026-04-25T07:27:00.565Z</time></trkpt><trkpt lat="43.5635695" lon="13.4928119"><ele>171.0</ele><time>2026-04-25T07:27:01.575Z</time></trkpt><trkpt lat="43.5634434" lon="13.4927561"><ele>168.5</ele><time>2026-04-25T07:27:02.573Z</time></trkpt><trkpt lat="43.5633219" lon="13.4927076"><ele>166.0</ele><time>2026-04-25T07:27:03.557Z</time></trkpt><trkpt lat="43.5632079" lon="13.4926722"><ele>166.0</ele><time>2026-04-25T07:27:04.556Z</time></trkpt><trkpt lat="43.5630851" lon="13.4926522"><ele>166.0</ele><time>2026-04-25T07:27:05.552Z</time></trkpt><trkpt lat="43.562973" lon="13.4926486"><ele>166.0</ele><time>2026-04-25T07:27:06.565Z</time></trkpt><trkpt lat="43.5628467" lon="13.4926574"><ele>166.0</ele><time>2026-04-25T07:27:07.561Z</time></trkpt><trkpt lat="43.5627158" lon="13.4926689"><ele>164.0</ele><time>2026-04-25T07:27:08.557Z</time></trkpt><trkpt lat="43.5625843" lon="13.492676"><ele>162.0</ele><time>2026-04-25T07:27:09.565Z</time></trkpt><trkpt lat="43.5624465" lon="13.4926786"><ele>160.0</ele><time>2026-04-25T07:27:10.565Z</time></trkpt><trkpt lat="43.5623044" lon="13.4926814"><ele>158.0</ele><time>2026-04-25T07:27:11.566Z</time></trkpt><trkpt lat="43.5621589" lon="13.4926851"><ele>155.0</ele><time>2026-04-25T07:27:12.572Z</time></trkpt><trkpt lat="43.5620137" lon="13.492704"><ele>152.0</ele><time>2026-04-25T07:27:13.567Z</time></trkpt><trkpt lat="43.5618711" lon="13.4927037"><ele>149.0</ele><time>2026-04-25T07:27:14.566Z</time></trkpt><trkpt lat="43.5617218" lon="13.4926944"><ele>146.0</ele><time>2026-04-25T07:27:15.564Z</time></trkpt><trkpt lat="43.5615754" lon="13.4927096"><ele>146.0</ele><time>2026-04-25T07:27:16.572Z</time></trkpt><trkpt lat="43.5614328" lon="13.4927201"><ele>146.0</ele><time>2026-04-25T07:27:17.57Z</time></trkpt><trkpt lat="43.5612871" lon="13.4927305"><ele>146.0</ele><time>2026-04-25T07:27:18.575Z</time></trkpt><trkpt lat="43.5611339" lon="13.4927624"><ele>146.0</ele><time>2026-04-25T07:27:19.562Z</time></trkpt><trkpt lat="43.5609804" lon="13.4927767"><ele>144.66666666666666</ele><time>2026-04-25T07:27:20.572Z</time></trkpt><trkpt lat="43.5608071" lon="13.492783"><ele>143.33333333333334</ele><time>2026-04-25T07:27:21.558Z</time></trkpt><trkpt lat="43.5606373" lon="13.4928096"><ele>142.0</ele><time>2026-04-25T07:27:22.566Z</time></trkpt><trkpt lat="43.5604996" lon="13.492845"><ele>142.75</ele><time>2026-04-25T07:27:23.563Z</time></trkpt><trkpt lat="43.5603399" lon="13.4928637"><ele>143.5</ele><time>2026-04-25T07:27:24.566Z</time></trkpt><trkpt lat="43.5602092" lon="13.4928923"><ele>144.25</ele><time>2026-04-25T07:27:25.563Z</time></trkpt><trkpt lat="43.5601046" lon="13.4929316"><ele>145.0</ele><time>2026-04-25T07:27:26.557Z</time></trkpt><trkpt lat="43.5600173" lon="13.4929958"><ele>143.6</ele><time>2026-04-25T07:27:27.569Z</time></trkpt><trkpt lat="43.5599316" lon="13.4930517"><ele>142.2</ele><time>2026-04-25T07:27:28.557Z</time></trkpt><trkpt lat="43.5598407" lon="13.4931366"><ele>140.8</ele><time>2026-04-25T07:27:29.561Z</time></trkpt><trkpt lat="43.5597494" lon="13.4932419"><ele>139.4</ele><time>2026-04-25T07:27:30.557Z</time></trkpt><trkpt lat="43.5596614" lon="13.4933518"><ele>138.0</ele><time>2026-04-25T07:27:31.553Z</time></trkpt><trkpt lat="43.5595705" lon="13.4934503"><ele>141.0</ele><time>2026-04-25T07:27:32.553Z</time></trkpt><trkpt lat="43.5594633" lon="13.4935221"><ele>144.0</ele><time>2026-04-25T07:27:33.562Z</time></trkpt><trkpt lat="43.5593447" lon="13.4936012"><ele>147.0</ele><time>2026-04-25T07:27:34.554Z</time></trkpt><trkpt lat="43.5592188" lon="13.493657"><ele>150.0</ele><time>2026-04-25T07:27:35.558Z</time></trkpt><trkpt lat="43.5591" lon="13.4936961"><ele>150.0</ele><time>2026-04-25T07:27:36.564Z</time></trkpt><trkpt lat="43.5589897" lon="13.4937482"><ele>150.0</ele><time>2026-04-25T07:27:37.559Z</time></trkpt><trkpt lat="43.5588877" lon="13.493825"><ele>150.0</ele><time>2026-04-25T07:27:38.57Z</time></trkpt><trkpt lat="43.5587977" lon="13.4939522"><ele>150.0</ele><time>2026-04-25T07:27:39.57Z</time></trkpt><trkpt lat="43.5587164" lon="13.4941043"><ele>152.66666666666666</ele><time>2026-04-25T07:27:40.561Z</time></trkpt><trkpt lat="43.5586268" lon="13.4942713"><ele>155.33333333333331</ele><time>2026-04-25T07:27:41.567Z</time></trkpt><trkpt lat="43.5585609" lon="13.4944598"><ele>158.0</ele><time>2026-04-25T07:27:42.56Z</time></trkpt><trkpt lat="43.5584587" lon="13.4946229"><ele>158.0</ele><time>2026-04-25T07:27:43.565Z</time></trkpt><trkpt lat="43.5583706" lon="13.494771"><ele>158.0</ele><time>2026-04-25T07:27:44.566Z</time></trkpt><trkpt lat="43.558273" lon="13.4949223"><ele>158.0</ele><time>2026-04-25T07:27:45.57Z</time></trkpt><trkpt lat="43.5581689" lon="13.4950921"><ele>158.0</ele><time>2026-04-25T07:27:46.567Z</time></trkpt><trkpt lat="43.5580807" lon="13.4952494"><ele>158.0</ele><time>2026-04-25T07:27:47.575Z</time></trkpt><trkpt lat="43.5579968" lon="13.4954079"><ele>158.0</ele><time>2026-04-25T07:27:48.571Z</time></trkpt><trkpt lat="43.5579039" lon="13.4955687"><ele>158.0</ele><time>2026-04-25T07:27:49.571Z</time></trkpt><trkpt lat="43.5578189" lon="13.4957319"><ele>158.0</ele><time>2026-04-25T07:27:50.572Z</time></trkpt><trkpt lat="43.5577248" lon="13.4958866"><ele>158.0</ele><time>2026-04-25T07:27:51.571Z</time></trkpt><trkpt lat="43.5576506" lon="13.4960444"><ele>158.0</ele><time>2026-04-25T07:27:52.57Z</time></trkpt><trkpt lat="43.5575753" lon="13.4962008"><ele>158.0</ele><time>2026-04-25T07:27:53.563Z</time></trkpt><trkpt lat="43.5574953" lon="13.4963454"><ele>158.0</ele><time>2026-04-25T07:27:54.568Z</time></trkpt><trkpt lat="43.5574122" lon="13.4965016"><ele>158.0</ele><time>2026-04-25T07:27:55.572Z</time></trkpt><trkpt lat="43.5573121" lon="13.4966207"><ele>158.0</ele><time>2026-04-25T07:27:56.566Z</time></trkpt><trkpt lat="43.5572243" lon="13.4967569"><ele>158.0</ele><time>2026-04-25T07:27:57.572Z</time></trkpt><trkpt lat="43.5571295" lon="13.4969067"><ele>158.0</ele><time>2026-04-25T07:27:58.57Z</time></trkpt><trkpt lat="43.557055" lon="13.4970473"><ele>156.0</ele><time>2026-04-25T07:27:59.565Z</time></trkpt><trkpt lat="43.5569757" lon="13.4971886"><ele>154.0</ele><time>2026-04-25T07:28:00.561Z</time></trkpt><trkpt lat="43.5568927" lon="13.4973369"><ele>152.0</ele><time>2026-04-25T07:28:01.567Z</time></trkpt><trkpt lat="43.5568169" lon="13.4974783"><ele>150.0</ele><time>2026-04-25T07:28:02.562Z</time></trkpt><trkpt lat="43.5567283" lon="13.4976067"><ele>150.0</ele><time>2026-04-25T07:28:03.563Z</time></trkpt><trkpt lat="43.5566416" lon="13.497725"><ele>150.0</ele><time>2026-04-25T07:28:04.561Z</time></trkpt><trkpt lat="43.5565536" lon="13.4978027"><ele>150.0</ele><time>2026-04-25T07:28:05.564Z</time></trkpt><trkpt lat="43.5564339" lon="13.4979012"><ele>150.0</ele><time>2026-04-25T07:28:06.568Z</time></trkpt><trkpt lat="43.5563112" lon="13.4979966"><ele>148.0</ele><time>2026-04-25T07:28:07.562Z</time></trkpt><trkpt lat="43.5561915" lon="13.4981052"><ele>146.0</ele><time>2026-04-25T07:28:08.563Z</time></trkpt><trkpt lat="43.5560702" lon="13.4981645"><ele>144.0</ele><time>2026-04-25T07:28:09.562Z</time></trkpt><trkpt lat="43.5559669" lon="13.498253"><ele>142.0</ele><time>2026-04-25T07:28:10.561Z</time></trkpt><trkpt lat="43.5558819" lon="13.4983336"><ele>142.0</ele><time>2026-04-25T07:28:11.562Z</time></trkpt><trkpt lat="43.5558231" lon="13.498448"><ele>142.0</ele><time>2026-04-25T07:28:12.561Z</time></trkpt><trkpt lat="43.5557618" lon="13.498575"><ele>142.0</ele><time>2026-04-25T07:28:13.562Z</time></trkpt><trkpt lat="43.5556945" lon="13.498713"><ele>142.0</ele><time>2026-04-25T07:28:14.561Z</time></trkpt><trkpt lat="43.555638" lon="13.4988739"><ele>139.25</ele><time>2026-04-25T07:28:15.562Z</time></trkpt><trkpt lat="43.5555803" lon="13.4990297"><ele>136.5</ele><time>2026-04-25T07:28:16.568Z</time></trkpt><trkpt lat="43.5555294" lon="13.499184"><ele>133.75</ele><time>2026-04-25T07:28:17.566Z</time></trkpt><trkpt lat="43.5554824" lon="13.4993383"><ele>131.0</ele><time>2026-04-25T07:28:18.567Z</time></trkpt><trkpt lat="43.555434" lon="13.4994892"><ele>131.2</ele><time>2026-04-25T07:28:19.565Z</time></trkpt><trkpt lat="43.5554007" lon="13.4996502"><ele>131.39999999999998</ele><time>2026-04-25T07:28:20.56Z</time></trkpt><trkpt lat="43.5553641" lon="13.4997896"><ele>131.6</ele><time>2026-04-25T07:28:21.568Z</time></trkpt><trkpt lat="43.5553158" lon="13.4999164"><ele>131.79999999999998</ele><time>2026-04-25T07:28:22.555Z</time></trkpt><trkpt lat="43.5552736" lon="13.5000262"><ele>132.0</ele><time>2026-04-25T07:28:23.553Z</time></trkpt><trkpt lat="43.5552055" lon="13.5001206"><ele>132.0</ele><time>2026-04-25T07:28:24.552Z</time></trkpt><trkpt lat="43.5551232" lon="13.5002151"><ele>132.0</ele><time>2026-04-25T07:28:25.563Z</time></trkpt><trkpt lat="43.5550039" lon="13.5002708"><ele>132.0</ele><time>2026-04-25T07:28:26.566Z</time></trkpt><trkpt lat="43.5548774" lon="13.5002997"><ele>132.0</ele><time>2026-04-25T07:28:27.553Z</time></trkpt><trkpt lat="43.554742" lon="13.5003446"><ele>132.0</ele><time>2026-04-25T07:28:28.567Z</time></trkpt><trkpt lat="43.554599" lon="13.5004139"><ele>132.0</ele><time>2026-04-25T07:28:29.554Z</time></trkpt><trkpt lat="43.5544568" lon="13.5004954"><ele>132.0</ele><time>2026-04-25T07:28:30.556Z</time></trkpt><trkpt lat="43.5543026" lon="13.5005603"><ele>128.66666666666666</ele><time>2026-04-25T07:28:31.555Z</time></trkpt><trkpt lat="43.5541507" lon="13.5006384"><ele>125.33333333333333</ele><time>2026-04-25T07:28:32.556Z</time></trkpt><trkpt lat="43.5540135" lon="13.5006884"><ele>122.0</ele><time>2026-04-25T07:28:33.557Z</time></trkpt><trkpt lat="43.5538687" lon="13.5007614"><ele>122.0</ele><time>2026-04-25T07:28:34.563Z</time></trkpt><trkpt lat="43.5537422" lon="13.5008296"><ele>122.0</ele><time>2026-04-25T07:28:35.57Z</time></trkpt><trkpt lat="43.5536157" lon="13.5008927"><ele>122.0</ele><time>2026-04-25T07:28:36.566Z</time></trkpt><trkpt lat="43.553509" lon="13.5009139"><ele>122.0</ele><time>2026-04-25T07:28:37.571Z</time></trkpt><trkpt lat="43.5534106" lon="13.5009107"><ele>121.75</ele><time>2026-04-25T07:28:38.576Z</time></trkpt><trkpt lat="43.5532996" lon="13.5008738"><ele>121.5</ele><time>2026-04-25T07:28:39.566Z</time></trkpt><trkpt lat="43.5531704" lon="13.5008119"><ele>121.25</ele><time>2026-04-25T07:28:40.562Z</time></trkpt><trkpt lat="43.553038" lon="13.5007534"><ele>121.0</ele><time>2026-04-25T07:28:41.574Z</time></trkpt><trkpt lat="43.5529003" lon="13.5006884"><ele>121.0</ele><time>2026-04-25T07:28:42.567Z</time></trkpt><trkpt lat="43.5527804" lon="13.500627"><ele>121.0</ele><time>2026-04-25T07:28:43.573Z</time></trkpt><trkpt lat="43.5526676" lon="13.5005735"><ele>121.0</ele><time>2026-04-25T07:28:44.571Z</time></trkpt><trkpt lat="43.5525472" lon="13.5005321"><ele>121.0</ele><time>2026-04-25T07:28:45.57Z</time></trkpt><trkpt lat="43.5524261" lon="13.5004783"><ele>121.0</ele><time>2026-04-25T07:28:46.571Z</time></trkpt><trkpt lat="43.5522969" lon="13.5004324"><ele>121.0</ele><time>2026-04-25T07:28:47.576Z</time></trkpt><trkpt lat="43.5521761" lon="13.5003861"><ele>121.0</ele><time>2026-04-25T07:28:48.579Z</time></trkpt><trkpt lat="43.5520782" lon="13.5003479"><ele>121.0</ele><time>2026-04-25T07:28:49.579Z</time></trkpt><trkpt lat="43.5519827" lon="13.5003248"><ele>121.75</ele><time>2026-04-25T07:28:50.575Z</time></trkpt><trkpt lat="43.5518864" lon="13.5002924"><ele>122.5</ele><time>2026-04-25T07:28:51.563Z</time></trkpt><trkpt lat="43.551778" lon="13.5002637"><ele>123.25</ele><time>2026-04-25T07:28:52.567Z</time></trkpt><trkpt lat="43.551656" lon="13.5002269"><ele>124.0</ele><time>2026-04-25T07:28:53.561Z</time></trkpt><trkpt lat="43.5515367" lon="13.5001817"><ele>124.0</ele><time>2026-04-25T07:28:54.559Z</time></trkpt><trkpt lat="43.5514186" lon="13.5001621"><ele>124.0</ele><time>2026-04-25T07:28:55.554Z</time></trkpt><trkpt lat="43.5512988" lon="13.5001212"><ele>124.0</ele><time>2026-04-25T07:28:56.563Z</time></trkpt><trkpt lat="43.5511839" lon="13.5000515"><ele>124.0</ele><time>2026-04-25T07:28:57.563Z</time></trkpt><trkpt lat="43.5510528" lon="13.4999769"><ele>122.25</ele><time>2026-04-25T07:28:58.558Z</time></trkpt><trkpt lat="43.5509473" lon="13.499895"><ele>120.5</ele><time>2026-04-25T07:28:59.56Z</time></trkpt><trkpt lat="43.5508285" lon="13.4997994"><ele>118.75</ele><time>2026-04-25T07:29:00.559Z</time></trkpt><trkpt lat="43.5507025" lon="13.4997174"><ele>117.0</ele><time>2026-04-25T07:29:01.557Z</time></trkpt><trkpt lat="43.5505767" lon="13.4996514"><ele>117.0</ele><time>2026-04-25T07:29:02.564Z</time></trkpt><trkpt lat="43.5504499" lon="13.4996267"><ele>117.0</ele><time>2026-04-25T07:29:03.569Z</time></trkpt><trkpt lat="43.5503183" lon="13.4996379"><ele>117.0</ele><time>2026-04-25T07:29:04.564Z</time></trkpt><trkpt lat="43.5502343" lon="13.4996169"><ele>117.0</ele><time>2026-04-25T07:29:05.558Z</time></trkpt><trkpt lat="43.5501065" lon="13.4995798"><ele>116.0</ele><time>2026-04-25T07:29:07.563Z</time></trkpt><trkpt lat="43.5500361" lon="13.4995592"><ele>115.0</ele><time>2026-04-25T07:29:08.568Z</time></trkpt><trkpt lat="43.5499601" lon="13.4995514"><ele>114.0</ele><time>2026-04-25T07:29:09.573Z</time></trkpt><trkpt lat="43.5498817" lon="13.4995319"><ele>113.0</ele><time>2026-04-25T07:29:10.564Z</time></trkpt><trkpt lat="43.5497866" lon="13.4995115"><ele>112.0</ele><time>2026-04-25T07:29:11.564Z</time></trkpt><trkpt lat="43.5496858" lon="13.499488"><ele>111.0</ele><time>2026-04-25T07:29:12.569Z</time></trkpt><trkpt lat="43.5495989" lon="13.4994622"><ele>112.0</ele><time>2026-04-25T07:29:13.567Z</time></trkpt><trkpt lat="43.549498" lon="13.499438"><ele>113.0</ele><time>2026-04-25T07:29:14.569Z</time></trkpt><trkpt lat="43.5493855" lon="13.4994244"><ele>114.0</ele><time>2026-04-25T07:29:15.552Z</time></trkpt><trkpt lat="43.5492531" lon="13.4994369"><ele>115.0</ele><time>2026-04-25T07:29:16.558Z</time></trkpt><trkpt lat="43.5491177" lon="13.4994606"><ele>115.0</ele><time>2026-04-25T07:29:17.559Z</time></trkpt><trkpt lat="43.5489951" lon="13.4994808"><ele>115.0</ele><time>2026-04-25T07:29:18.567Z</time></trkpt><trkpt lat="43.5488869" lon="13.4995245"><ele>115.0</ele><time>2026-04-25T07:29:19.563Z</time></trkpt><trkpt lat="43.5487912" lon="13.4995846"><ele>115.0</ele><time>2026-04-25T07:29:20.555Z</time></trkpt><trkpt lat="43.5486923" lon="13.4996688"><ele>113.5</ele><time>2026-04-25T07:29:21.558Z</time></trkpt><trkpt lat="43.5485928" lon="13.4997677"><ele>112.0</ele><time>2026-04-25T07:29:22.552Z</time></trkpt><trkpt lat="43.5484955" lon="13.4998611"><ele>110.5</ele><time>2026-04-25T07:29:23.56Z</time></trkpt><trkpt lat="43.5483826" lon="13.4999226"><ele>109.0</ele><time>2026-04-25T07:29:24.559Z</time></trkpt><trkpt lat="43.5482543" lon="13.4999642"><ele>109.0</ele><time>2026-04-25T07:29:25.555Z</time></trkpt><trkpt lat="43.5481484" lon="13.5000096"><ele>109.0</ele><time>2026-04-25T07:29:26.553Z</time></trkpt><trkpt lat="43.5480414" lon="13.5000667"><ele>109.0</ele><time>2026-04-25T07:29:27.549Z</time></trkpt><trkpt lat="43.5479333" lon="13.5001158"><ele>109.0</ele><time>2026-04-25T07:29:28.561Z</time></trkpt><trkpt lat="43.5478369" lon="13.5001534"><ele>109.0</ele><time>2026-04-25T07:29:29.563Z</time></trkpt><trkpt lat="43.5477386" lon="13.5002093"><ele>109.0</ele><time>2026-04-25T07:29:30.555Z</time></trkpt><trkpt lat="43.5476604" lon="13.5002427"><ele>109.0</ele><time>2026-04-25T07:29:31.558Z</time></trkpt><trkpt lat="43.547594" lon="13.5002611"><ele>109.0</ele><time>2026-04-25T07:29:32.565Z</time></trkpt><trkpt lat="43.5474963" lon="13.5002386"><ele>109.0</ele><time>2026-04-25T07:29:34.564Z</time></trkpt><trkpt lat="43.5473819" lon="13.5002434"><ele>109.0</ele><time>2026-04-25T07:29:36.565Z</time></trkpt><trkpt lat="43.5472496" lon="13.5002171"><ele>109.0</ele><time>2026-04-25T07:29:38.56Z</time></trkpt><trkpt lat="43.5471843" lon="13.5001562"><ele>109.0</ele><time>2026-04-25T07:29:39.562Z</time></trkpt><trkpt lat="43.5470987" lon="13.5000801"><ele>109.0</ele><time>2026-04-25T07:29:40.546Z</time></trkpt><trkpt lat="43.5470044" lon="13.4999882"><ele>109.0</ele><time>2026-04-25T07:29:41.548Z</time></trkpt><trkpt lat="43.5468931" lon="13.4998865"><ele>109.0</ele><time>2026-04-25T07:29:42.551Z</time></trkpt><trkpt lat="43.5467895" lon="13.4997742"><ele>107.5</ele><time>2026-04-25T07:29:43.552Z</time></trkpt><trkpt lat="43.5466808" lon="13.4996662"><ele>106.0</ele><time>2026-04-25T07:29:44.553Z</time></trkpt><trkpt lat="43.5465837" lon="13.499575"><ele>104.5</ele><time>2026-04-25T07:29:45.554Z</time></trkpt><trkpt lat="43.5464857" lon="13.4994952"><ele>103.0</ele><time>2026-04-25T07:29:46.558Z</time></trkpt><trkpt lat="43.5463786" lon="13.4994199"><ele>103.0</ele><time>2026-04-25T07:29:47.558Z</time></trkpt><trkpt lat="43.5462592" lon="13.4993656"><ele>103.0</ele><time>2026-04-25T07:29:48.561Z</time></trkpt><trkpt lat="43.546142" lon="13.4993284"><ele>103.0</ele><time>2026-04-25T07:29:49.558Z</time></trkpt><trkpt lat="43.5460289" lon="13.499282"><ele>103.0</ele><time>2026-04-25T07:29:50.56Z</time></trkpt><trkpt lat="43.5459014" lon="13.499253"><ele>102.4</ele><time>2026-04-25T07:29:51.564Z</time></trkpt><trkpt lat="43.5457731" lon="13.4992288"><ele>101.80000000000001</ele><time>2026-04-25T07:29:52.566Z</time></trkpt><trkpt lat="43.5456621" lon="13.4992114"><ele>101.2</ele><time>2026-04-25T07:29:53.563Z</time></trkpt><trkpt lat="43.5455625" lon="13.4992198"><ele>100.6</ele><time>2026-04-25T07:29:54.562Z</time></trkpt><trkpt lat="43.5454597" lon="13.4992588"><ele>100.0</ele><time>2026-04-25T07:29:55.557Z</time></trkpt><trkpt lat="43.5453675" lon="13.4993239"><ele>100.0</ele><time>2026-04-25T07:29:56.566Z</time></trkpt><trkpt lat="43.5452897" lon="13.499398"><ele>100.0</ele><time>2026-04-25T07:29:57.557Z</time></trkpt><trkpt lat="43.5452176" lon="13.4994755"><ele>100.0</ele><time>2026-04-25T07:29:58.573Z</time></trkpt><trkpt lat="43.5451611" lon="13.4995844"><ele>100.0</ele><time>2026-04-25T07:29:59.554Z</time></trkpt><trkpt lat="43.5450799" lon="13.4996786"><ele>100.0</ele><time>2026-04-25T07:30:00.572Z</time></trkpt><trkpt lat="43.5449644" lon="13.4997539"><ele>99.0</ele><time>2026-04-25T07:30:01.564Z</time></trkpt><trkpt lat="43.5448311" lon="13.4998195"><ele>98.0</ele><time>2026-04-25T07:30:02.56Z</time></trkpt><trkpt lat="43.5446895" lon="13.4998916"><ele>97.0</ele><time>2026-04-25T07:30:03.555Z</time></trkpt><trkpt lat="43.5445353" lon="13.4999756"><ele>97.0</ele><time>2026-04-25T07:30:04.562Z</time></trkpt><trkpt lat="43.5443695" lon="13.5000579"><ele>97.0</ele><time>2026-04-25T07:30:05.557Z</time></trkpt><trkpt lat="43.544206" lon="13.5001595"><ele>97.0</ele><time>2026-04-25T07:30:06.566Z</time></trkpt><trkpt lat="43.5440453" lon="13.5002798"><ele>97.0</ele><time>2026-04-25T07:30:07.565Z</time></trkpt><trkpt lat="43.5438878" lon="13.5003819"><ele>97.0</ele><time>2026-04-25T07:30:08.568Z</time></trkpt><trkpt lat="43.5437348" lon="13.5004609"><ele>97.0</ele><time>2026-04-25T07:30:09.561Z</time></trkpt><trkpt lat="43.5435978" lon="13.500555"><ele>96.75</ele><time>2026-04-25T07:30:10.565Z</time></trkpt><trkpt lat="43.543455" lon="13.5006613"><ele>96.5</ele><time>2026-04-25T07:30:11.566Z</time></trkpt><trkpt lat="43.5433077" lon="13.5007271"><ele>96.25</ele><time>2026-04-25T07:30:12.558Z</time></trkpt><trkpt lat="43.5431993" lon="13.5008147"><ele>96.0</ele><time>2026-04-25T07:30:13.558Z</time></trkpt><trkpt lat="43.5431085" lon="13.500874"><ele>96.0</ele><time>2026-04-25T07:30:14.558Z</time></trkpt><trkpt lat="43.5430088" lon="13.5009237"><ele>96.0</ele><time>2026-04-25T07:30:15.56Z</time></trkpt><trkpt lat="43.5429149" lon="13.5009531"><ele>96.0</ele><time>2026-04-25T07:30:16.555Z</time></trkpt><trkpt lat="43.5428016" lon="13.5009986"><ele>96.0</ele><time>2026-04-25T07:30:17.565Z</time></trkpt><trkpt lat="43.5426604" lon="13.5010785"><ele>96.0</ele><time>2026-04-25T07:30:18.556Z</time></trkpt><trkpt lat="43.5425249" lon="13.5011216"><ele>96.0</ele><time>2026-04-25T07:30:19.565Z</time></trkpt><trkpt lat="43.5424018" lon="13.5011445"><ele>96.0</ele><time>2026-04-25T07:30:20.56Z</time></trkpt><trkpt lat="43.5422829" lon="13.5011832"><ele>96.0</ele><time>2026-04-25T07:30:21.556Z</time></trkpt><trkpt lat="43.5421762" lon="13.5012043"><ele>95.75</ele><time>2026-04-25T07:30:22.567Z</time></trkpt><trkpt lat="43.5420738" lon="13.5012549"><ele>95.5</ele><time>2026-04-25T07:30:23.568Z</time></trkpt><trkpt lat="43.5419689" lon="13.5013192"><ele>95.25</ele><time>2026-04-25T07:30:24.566Z</time></trkpt><trkpt lat="43.541866" lon="13.5014241"><ele>95.0</ele><time>2026-04-25T07:30:25.565Z</time></trkpt><trkpt lat="43.5417468" lon="13.5015513"><ele>93.33333333333334</ele><time>2026-04-25T07:30:26.564Z</time></trkpt><trkpt lat="43.5416156" lon="13.5016924"><ele>91.66666666666667</ele><time>2026-04-25T07:30:27.556Z</time></trkpt><trkpt lat="43.5414857" lon="13.501799"><ele>90.0</ele><time>2026-04-25T07:30:28.556Z</time></trkpt><trkpt lat="43.5413696" lon="13.5018967"><ele>90.0</ele><time>2026-04-25T07:30:29.56Z</time></trkpt><trkpt lat="43.5412534" lon="13.501984"><ele>90.0</ele><time>2026-04-25T07:30:30.553Z</time></trkpt><trkpt lat="43.5411396" lon="13.5020708"><ele>90.0</ele><time>2026-04-25T07:30:31.558Z</time></trkpt><trkpt lat="43.5410418" lon="13.5021566"><ele>90.0</ele><time>2026-04-25T07:30:32.564Z</time></trkpt><trkpt lat="43.5409137" lon="13.5022459"><ele>89.5</ele><time>2026-04-25T07:30:33.564Z</time></trkpt><trkpt lat="43.5407968" lon="13.5022862"><ele>89.0</ele><time>2026-04-25T07:30:34.565Z</time></trkpt><trkpt lat="43.5406872" lon="13.502321"><ele>88.5</ele><time>2026-04-25T07:30:35.57Z</time></trkpt><trkpt lat="43.5405797" lon="13.5023474"><ele>88.0</ele><time>2026-04-25T07:30:36.574Z</time></trkpt><trkpt lat="43.5404562" lon="13.5023554"><ele>89.0</ele><time>2026-04-25T07:30:37.562Z</time></trkpt><trkpt lat="43.5403398" lon="13.5023045"><ele>90.0</ele><time>2026-04-25T07:30:38.564Z</time></trkpt><trkpt lat="43.5402218" lon="13.5022384"><ele>91.0</ele><time>2026-04-25T07:30:39.559Z</time></trkpt><trkpt lat="43.5401002" lon="13.5021672"><ele>92.0</ele><time>2026-04-25T07:30:40.562Z</time></trkpt><trkpt lat="43.5399675" lon="13.5021062"><ele>92.25</ele><time>2026-04-25T07:30:41.554Z</time></trkpt><trkpt lat="43.5398375" lon="13.5020486"><ele>92.5</ele><time>2026-04-25T07:30:42.558Z</time></trkpt><trkpt lat="43.5397193" lon="13.5019912"><ele>92.75</ele><time>2026-04-25T07:30:43.555Z</time></trkpt><trkpt lat="43.5396194" lon="13.5019353"><ele>93.0</ele><time>2026-04-25T07:30:44.559Z</time></trkpt><trkpt lat="43.5394973" lon="13.501893"><ele>93.0</ele><time>2026-04-25T07:30:45.561Z</time></trkpt><trkpt lat="43.539366" lon="13.5018574"><ele>93.0</ele><time>2026-04-25T07:30:46.562Z</time></trkpt><trkpt lat="43.5392312" lon="13.5018133"><ele>93.0</ele><time>2026-04-25T07:30:47.563Z</time></trkpt><trkpt lat="43.5390787" lon="13.5017527"><ele>93.0</ele><time>2026-04-25T07:30:48.561Z</time></trkpt><trkpt lat="43.5389328" lon="13.5016791"><ele>93.0</ele><time>2026-04-25T07:30:49.567Z</time></trkpt><trkpt lat="43.5387995" lon="13.5016031"><ele>93.0</ele><time>2026-04-25T07:30:50.557Z</time></trkpt><trkpt lat="43.5386814" lon="13.5015144"><ele>93.0</ele><time>2026-04-25T07:30:51.558Z</time></trkpt><trkpt lat="43.5385735" lon="13.5014221"><ele>93.0</ele><time>2026-04-25T07:30:52.555Z</time></trkpt><trkpt lat="43.5384593" lon="13.5013339"><ele>93.80000000000001</ele><time>2026-04-25T07:30:53.561Z</time></trkpt><trkpt lat="43.5383715" lon="13.5012516"><ele>94.6</ele><time>2026-04-25T07:30:54.556Z</time></trkpt><trkpt lat="43.5383155" lon="13.5011757"><ele>95.4</ele><time>2026-04-25T07:30:55.541Z</time></trkpt><trkpt lat="43.5381961" lon="13.5011297"><ele>96.19999999999999</ele><time>2026-04-25T07:30:56.562Z</time></trkpt><trkpt lat="43.5380954" lon="13.5011442"><ele>97.0</ele><time>2026-04-25T07:30:57.563Z</time></trkpt><trkpt lat="43.5380051" lon="13.5012085"><ele>96.25</ele><time>2026-04-25T07:30:58.554Z</time></trkpt><trkpt lat="43.5378746" lon="13.501273"><ele>95.5</ele><time>2026-04-25T07:30:59.549Z</time></trkpt><trkpt lat="43.5377613" lon="13.5013452"><ele>94.75</ele><time>2026-04-25T07:31:00.548Z</time></trkpt><trkpt lat="43.5376415" lon="13.5014045"><ele>94.0</ele><time>2026-04-25T07:31:01.534Z</time></trkpt><trkpt lat="43.5375285" lon="13.5014617"><ele>94.0</ele><time>2026-04-25T07:31:02.54Z</time></trkpt><trkpt lat="43.5374154" lon="13.5015012"><ele>94.0</ele><time>2026-04-25T07:31:03.547Z</time></trkpt><trkpt lat="43.5373133" lon="13.5015489"><ele>94.0</ele><time>2026-04-25T07:31:04.551Z</time></trkpt><trkpt lat="43.5372132" lon="13.5015875"><ele>94.0</ele><time>2026-04-25T07:31:05.549Z</time></trkpt><trkpt lat="43.537091" lon="13.5016027"><ele>89.5</ele><time>2026-04-25T07:31:06.545Z</time></trkpt><trkpt lat="43.5369585" lon="13.5015873"><ele>85.0</ele><time>2026-04-25T07:31:07.547Z</time></trkpt><trkpt lat="43.5368409" lon="13.5015622"><ele>80.5</ele><time>2026-04-25T07:31:08.554Z</time></trkpt><trkpt lat="43.5367237" lon="13.5015311"><ele>76.0</ele><time>2026-04-25T07:31:09.556Z</time></trkpt><trkpt lat="43.5365911" lon="13.5015149"><ele>76.0</ele><time>2026-04-25T07:31:10.564Z</time></trkpt><trkpt lat="43.5364568" lon="13.5014893"><ele>76.0</ele><time>2026-04-25T07:31:11.559Z</time></trkpt><trkpt lat="43.5363259" lon="13.5014682"><ele>76.0</ele><time>2026-04-25T07:31:12.557Z</time></trkpt><trkpt lat="43.5362092" lon="13.5014492"><ele>76.0</ele><time>2026-04-25T07:31:13.553Z</time></trkpt><trkpt lat="43.5360939" lon="13.5014175"><ele>72.5</ele><time>2026-04-25T07:31:14.55Z</time></trkpt><trkpt lat="43.5359731" lon="13.5014285"><ele>69.0</ele><time>2026-04-25T07:31:15.564Z</time></trkpt><trkpt lat="43.535846" lon="13.5014311"><ele>65.5</ele><time>2026-04-25T07:31:16.551Z</time></trkpt><trkpt lat="43.5357344" lon="13.5013893"><ele>62.0</ele><time>2026-04-25T07:31:17.553Z</time></trkpt><trkpt lat="43.5356391" lon="13.5013505"><ele>62.0</ele><time>2026-04-25T07:31:18.559Z</time></trkpt><trkpt lat="43.535543" lon="13.5013002"><ele>62.0</ele><time>2026-04-25T07:31:19.562Z</time></trkpt><trkpt lat="43.535461" lon="13.5012394"><ele>62.0</ele><time>2026-04-25T07:31:20.559Z</time></trkpt><trkpt lat="43.5353835" lon="13.5011509"><ele>62.0</ele><time>2026-04-25T07:31:21.559Z</time></trkpt><trkpt lat="43.5353063" lon="13.5010883"><ele>62.0</ele><time>2026-04-25T07:31:22.558Z</time></trkpt><trkpt lat="43.5352253" lon="13.5010395"><ele>59.833333333333336</ele><time>2026-04-25T07:31:23.553Z</time></trkpt><trkpt lat="43.5351409" lon="13.5010577"><ele>57.66666666666667</ele><time>2026-04-25T07:31:24.554Z</time></trkpt><trkpt lat="43.5350585" lon="13.501103"><ele>55.5</ele><time>2026-04-25T07:31:25.545Z</time></trkpt><trkpt lat="43.5349776" lon="13.5011566"><ele>53.33333333333333</ele><time>2026-04-25T07:31:26.55Z</time></trkpt><trkpt lat="43.5349115" lon="13.5012294"><ele>51.166666666666664</ele><time>2026-04-25T07:31:27.548Z</time></trkpt><trkpt lat="43.5348492" lon="13.5012784"><ele>49.0</ele><time>2026-04-25T07:31:28.55Z</time></trkpt><trkpt lat="43.5347374" lon="13.5012709"><ele>48.83333333333333</ele><time>2026-04-25T07:31:30.555Z</time></trkpt><trkpt lat="43.5346595" lon="13.5011736"><ele>48.666666666666664</ele><time>2026-04-25T07:31:32.544Z</time></trkpt><trkpt lat="43.5345925" lon="13.5011349"><ele>48.5</ele><time>2026-04-25T07:31:33.551Z</time></trkpt><trkpt lat="43.5345168" lon="13.5011448"><ele>48.33333333333333</ele><time>2026-04-25T07:31:34.552Z</time></trkpt><trkpt lat="43.5344424" lon="13.5011584"><ele>48.166666666666664</ele><time>2026-04-25T07:31:35.545Z</time></trkpt><trkpt lat="43.5343791" lon="13.5011619"><ele>48.0</ele><time>2026-04-25T07:31:36.546Z</time></trkpt><trkpt lat="43.5343324" lon="13.5010861"><ele>46.599999999999994</ele><time>2026-04-25T07:31:42.551Z</time></trkpt><trkpt lat="43.5343528" lon="13.5009223"><ele>45.199999999999996</ele><time>2026-04-25T07:31:44.561Z</time></trkpt><trkpt lat="43.5343627" lon="13.5008209"><ele>43.8</ele><time>2026-04-25T07:31:45.566Z</time></trkpt><trkpt lat="43.5343724" lon="13.5006925"><ele>42.4</ele><time>2026-04-25T07:31:46.567Z</time></trkpt><trkpt lat="43.5343674" lon="13.5005468"><ele>41.0</ele><time>2026-04-25T07:31:47.566Z</time></trkpt><trkpt lat="43.534344" lon="13.5004209"><ele>40.599999999999994</ele><time>2026-04-25T07:31:48.568Z</time></trkpt><trkpt lat="43.534298" lon="13.5003136"><ele>40.199999999999996</ele><time>2026-04-25T07:31:49.565Z</time></trkpt><trkpt lat="43.534237" lon="13.500213"><ele>39.8</ele><time>2026-04-25T07:31:50.574Z</time></trkpt><trkpt lat="43.5341782" lon="13.5001146"><ele>39.4</ele><time>2026-04-25T07:31:51.567Z</time></trkpt><trkpt lat="43.5341539" lon="13.5000041"><ele>39.0</ele><time>2026-04-25T07:31:52.557Z</time></trkpt><trkpt lat="43.5341452" lon="13.4998718"><ele>39.0</ele><time>2026-04-25T07:31:53.573Z</time></trkpt><trkpt lat="43.5341402" lon="13.4997194"><ele>39.0</ele><time>2026-04-25T07:31:54.566Z</time></trkpt><trkpt lat="43.5341492" lon="13.4995555"><ele>39.0</ele><time>2026-04-25T07:31:55.57Z</time></trkpt><trkpt lat="43.5341586" lon="13.4993776"><ele>39.0</ele><time>2026-04-25T07:31:56.576Z</time></trkpt><trkpt lat="43.5341662" lon="13.4992021"><ele>39.0</ele><time>2026-04-25T07:31:57.58Z</time></trkpt><trkpt lat="43.5341737" lon="13.499018"><ele>39.0</ele><time>2026-04-25T07:31:58.579Z</time></trkpt><trkpt lat="43.5341778" lon="13.4988189"><ele>39.0</ele><time>2026-04-25T07:31:59.572Z</time></trkpt><trkpt lat="43.5341728" lon="13.4985962"><ele>39.0</ele><time>2026-04-25T07:32:00.568Z</time></trkpt><trkpt lat="43.534165" lon="13.4983932"><ele>38.666666666666664</ele><time>2026-04-25T07:32:01.576Z</time></trkpt><trkpt lat="43.5341824" lon="13.4981784"><ele>38.33333333333333</ele><time>2026-04-25T07:32:02.567Z</time></trkpt><trkpt lat="43.5342027" lon="13.4979753"><ele>38.0</ele><time>2026-04-25T07:32:03.558Z</time></trkpt><trkpt lat="43.5341995" lon="13.4977731"><ele>38.0</ele><time>2026-04-25T07:32:04.555Z</time></trkpt><trkpt lat="43.5342075" lon="13.4975696"><ele>38.0</ele><time>2026-04-25T07:32:05.55Z</time></trkpt><trkpt lat="43.5342052" lon="13.4973704"><ele>38.0</ele><time>2026-04-25T07:32:06.554Z</time></trkpt><trkpt lat="43.5342307" lon="13.4971575"><ele>38.0</ele><time>2026-04-25T07:32:07.556Z</time></trkpt><trkpt lat="43.5342376" lon="13.4969627"><ele>38.33333333333333</ele><time>2026-04-25T07:32:08.57Z</time></trkpt><trkpt lat="43.5342443" lon="13.4967327"><ele>38.666666666666664</ele><time>2026-04-25T07:32:09.571Z</time></trkpt><trkpt lat="43.5342508" lon="13.4965262"><ele>39.0</ele><time>2026-04-25T07:32:10.563Z</time></trkpt><trkpt lat="43.5342559" lon="13.4963184"><ele>39.0</ele><time>2026-04-25T07:32:11.56Z</time></trkpt><trkpt lat="43.5342378" lon="13.4961143"><ele>39.0</ele><time>2026-04-25T07:32:12.566Z</time></trkpt><trkpt lat="43.5341892" lon="13.4959019"><ele>39.0</ele><time>2026-04-25T07:32:13.558Z</time></trkpt><trkpt lat="43.5341494" lon="13.4957"><ele>39.0</ele><time>2026-04-25T07:32:14.549Z</time></trkpt><trkpt lat="43.534097" lon="13.4954855"><ele>39.0</ele><time>2026-04-25T07:32:15.54Z</time></trkpt><trkpt lat="43.5340157" lon="13.4952192"><ele>39.0</ele><time>2026-04-25T07:32:16.548Z</time></trkpt><trkpt lat="43.5338883" lon="13.4950112"><ele>39.333333333333336</ele><time>2026-04-25T07:32:17.55Z</time></trkpt><trkpt lat="43.5338882" lon="13.494746"><ele>39.66666666666667</ele><time>2026-04-25T07:32:18.556Z</time></trkpt><trkpt lat="43.5339186" lon="13.4945504"><ele>40.0</ele><time>2026-04-25T07:32:19.554Z</time></trkpt><trkpt lat="43.5338485" lon="13.4942882"><ele>40.0</ele><time>2026-04-25T07:32:20.547Z</time></trkpt><trkpt lat="43.533815" lon="13.4940351"><ele>40.0</ele><time>2026-04-25T07:32:21.564Z</time></trkpt><trkpt lat="43.5337827" lon="13.4938216"><ele>40.0</ele><time>2026-04-25T07:32:22.562Z</time></trkpt><trkpt lat="43.5337225" lon="13.493597"><ele>40.0</ele><time>2026-04-25T07:32:23.565Z</time></trkpt><trkpt lat="43.5336603" lon="13.4933486"><ele>40.0</ele><time>2026-04-25T07:32:24.572Z</time></trkpt><trkpt lat="43.5336424" lon="13.4931061"><ele>40.0</ele><time>2026-04-25T07:32:25.559Z</time></trkpt><trkpt lat="43.5335848" lon="13.4928545"><ele>40.0</ele><time>2026-04-25T07:32:26.557Z</time></trkpt><trkpt lat="43.5335762" lon="13.4926224"><ele>40.0</ele><time>2026-04-25T07:32:27.568Z</time></trkpt><trkpt lat="43.5335532" lon="13.4923881"><ele>40.0</ele><time>2026-04-25T07:32:28.575Z</time></trkpt><trkpt lat="43.5335549" lon="13.4921619"><ele>40.0</ele><time>2026-04-25T07:32:29.571Z</time></trkpt><trkpt lat="43.5335395" lon="13.4919166"><ele>40.0</ele><time>2026-04-25T07:32:30.568Z</time></trkpt><trkpt lat="43.5335141" lon="13.4916843"><ele>40.0</ele><time>2026-04-25T07:32:31.574Z</time></trkpt><trkpt lat="43.5335088" lon="13.4914253"><ele>40.0</ele><time>2026-04-25T07:32:32.567Z</time></trkpt><trkpt lat="43.5335054" lon="13.4911471"><ele>40.0</ele><time>2026-04-25T07:32:33.57Z</time></trkpt><trkpt lat="43.5335009" lon="13.4908591"><ele>40.0</ele><time>2026-04-25T07:32:34.562Z</time></trkpt><trkpt lat="43.5335118" lon="13.4906087"><ele>40.333333333333336</ele><time>2026-04-25T07:32:35.569Z</time></trkpt><trkpt lat="43.5335412" lon="13.4903505"><ele>40.666666666666664</ele><time>2026-04-25T07:32:36.567Z</time></trkpt><trkpt lat="43.5335615" lon="13.4900854"><ele>41.0</ele><time>2026-04-25T07:32:37.571Z</time></trkpt><trkpt lat="43.5335977" lon="13.4898291"><ele>41.33333333333333</ele><time>2026-04-25T07:32:38.577Z</time></trkpt><trkpt lat="43.5336194" lon="13.4895658"><ele>41.666666666666664</ele><time>2026-04-25T07:32:39.559Z</time></trkpt><trkpt lat="43.5336334" lon="13.4893052"><ele>42.0</ele><time>2026-04-25T07:32:40.56Z</time></trkpt><trkpt lat="43.5336504" lon="13.4890398"><ele>42.0</ele><time>2026-04-25T07:32:41.573Z</time></trkpt><trkpt lat="43.5336819" lon="13.4887713"><ele>42.0</ele><time>2026-04-25T07:32:42.573Z</time></trkpt><trkpt lat="43.5336934" lon="13.4885089"><ele>42.0</ele><time>2026-04-25T07:32:43.576Z</time></trkpt><trkpt lat="43.5337176" lon="13.4882501"><ele>42.333333333333336</ele><time>2026-04-25T07:32:44.566Z</time></trkpt><trkpt lat="43.5337695" lon="13.4880073"><ele>42.66666666666667</ele><time>2026-04-25T07:32:45.557Z</time></trkpt><trkpt lat="43.5338262" lon="13.4877638"><ele>43.0</ele><time>2026-04-25T07:32:46.568Z</time></trkpt><trkpt lat="43.5338658" lon="13.4875097"><ele>43.0</ele><time>2026-04-25T07:32:47.555Z</time></trkpt><trkpt lat="43.5338558" lon="13.4872415"><ele>43.0</ele><time>2026-04-25T07:32:48.567Z</time></trkpt><trkpt lat="43.5337902" lon="13.4869878"><ele>43.0</ele><time>2026-04-25T07:32:49.559Z</time></trkpt><trkpt lat="43.5337862" lon="13.4867405"><ele>43.333333333333336</ele><time>2026-04-25T07:32:50.539Z</time></trkpt><trkpt lat="43.5338228" lon="13.4864584"><ele>43.666666666666664</ele><time>2026-04-25T07:32:51.556Z</time></trkpt><trkpt lat="43.533881" lon="13.4862126"><ele>44.0</ele><time>2026-04-25T07:32:52.56Z</time></trkpt><trkpt lat="43.5339738" lon="13.4859654"><ele>44.0</ele><time>2026-04-25T07:32:53.553Z</time></trkpt><trkpt lat="43.5341007" lon="13.4857342"><ele>44.0</ele><time>2026-04-25T07:32:54.541Z</time></trkpt><trkpt lat="43.5341791" lon="13.4854525"><ele>44.0</ele><time>2026-04-25T07:32:55.541Z</time></trkpt><trkpt lat="43.5341681" lon="13.4851552"><ele>44.0</ele><time>2026-04-25T07:32:56.535Z</time></trkpt><trkpt lat="43.5341787" lon="13.4849247"><ele>44.0</ele><time>2026-04-25T07:32:57.534Z</time></trkpt><trkpt lat="43.5341949" lon="13.4846423"><ele>44.0</ele><time>2026-04-25T07:32:58.54Z</time></trkpt><trkpt lat="43.5341724" lon="13.4843488"><ele>44.0</ele><time>2026-04-25T07:32:59.558Z</time></trkpt><trkpt lat="43.5341507" lon="13.4840851"><ele>44.0</ele><time>2026-04-25T07:33:00.552Z</time></trkpt><trkpt lat="43.5341526" lon="13.4838218"><ele>44.0</ele><time>2026-04-25T07:33:01.557Z</time></trkpt><trkpt lat="43.5341886" lon="13.4835549"><ele>44.0</ele><time>2026-04-25T07:33:02.562Z</time></trkpt><trkpt lat="43.5342446" lon="13.4832921"><ele>44.0</ele><time>2026-04-25T07:33:03.561Z</time></trkpt><trkpt lat="43.5342866" lon="13.4830299"><ele>44.0</ele><time>2026-04-25T07:33:04.561Z</time></trkpt><trkpt lat="43.5343178" lon="13.482751"><ele>44.0</ele><time>2026-04-25T07:33:05.562Z</time></trkpt><trkpt lat="43.534342" lon="13.4824899"><ele>44.0</ele><time>2026-04-25T07:33:06.569Z</time></trkpt><trkpt lat="43.5343498" lon="13.4822377"><ele>44.0</ele><time>2026-04-25T07:33:07.562Z</time></trkpt><trkpt lat="43.5343605" lon="13.4819907"><ele>44.0</ele><time>2026-04-25T07:33:08.568Z</time></trkpt><trkpt lat="43.5343759" lon="13.4817513"><ele>44.0</ele><time>2026-04-25T07:33:09.556Z</time></trkpt><trkpt lat="43.5343543" lon="13.4814988"><ele>44.0</ele><time>2026-04-25T07:33:10.545Z</time></trkpt><trkpt lat="43.5343299" lon="13.4812558"><ele>43.666666666666664</ele><time>2026-04-25T07:33:11.552Z</time></trkpt><trkpt lat="43.5343907" lon="13.481004"><ele>43.333333333333336</ele><time>2026-04-25T07:33:12.565Z</time></trkpt><trkpt lat="43.5344502" lon="13.4807767"><ele>43.0</ele><time>2026-04-25T07:33:13.548Z</time></trkpt><trkpt lat="43.5344735" lon="13.4804871"><ele>43.333333333333336</ele><time>2026-04-25T07:33:14.562Z</time></trkpt><trkpt lat="43.534489" lon="13.480208"><ele>43.666666666666664</ele><time>2026-04-25T07:33:15.558Z</time></trkpt><trkpt lat="43.5344973" lon="13.4799503"><ele>44.0</ele><time>2026-04-25T07:33:16.551Z</time></trkpt><trkpt lat="43.5345307" lon="13.479681"><ele>47.0</ele><time>2026-04-25T07:33:17.562Z</time></trkpt><trkpt lat="43.5345902" lon="13.479433"><ele>50.0</ele><time>2026-04-25T07:33:18.571Z</time></trkpt><trkpt lat="43.5346227" lon="13.479178"><ele>53.0</ele><time>2026-04-25T07:33:19.569Z</time></trkpt><trkpt lat="43.5346616" lon="13.4789355"><ele>52.66666666666667</ele><time>2026-04-25T07:33:20.568Z</time></trkpt><trkpt lat="43.5347021" lon="13.478675"><ele>52.33333333333333</ele><time>2026-04-25T07:33:21.568Z</time></trkpt><trkpt lat="43.5347155" lon="13.4784068"><ele>52.0</ele><time>2026-04-25T07:33:22.573Z</time></trkpt><trkpt lat="43.5347623" lon="13.4781371"><ele>52.0</ele><time>2026-04-25T07:33:23.565Z</time></trkpt><trkpt lat="43.5347942" lon="13.4778608"><ele>52.0</ele><time>2026-04-25T07:33:24.563Z</time></trkpt><trkpt lat="43.5348022" lon="13.4776046"><ele>52.0</ele><time>2026-04-25T07:33:25.567Z</time></trkpt><trkpt lat="43.5348292" lon="13.4773719"><ele>52.0</ele><time>2026-04-25T07:33:26.565Z</time></trkpt><trkpt lat="43.5348418" lon="13.4771338"><ele>52.0</ele><time>2026-04-25T07:33:27.567Z</time></trkpt><trkpt lat="43.5348796" lon="13.4769142"><ele>52.0</ele><time>2026-04-25T07:33:28.571Z</time></trkpt><trkpt lat="43.534909" lon="13.476679"><ele>51.666666666666664</ele><time>2026-04-25T07:33:29.562Z</time></trkpt><trkpt lat="43.5349231" lon="13.4764649"><ele>51.33333333333333</ele><time>2026-04-25T07:33:30.562Z</time></trkpt><trkpt lat="43.5349614" lon="13.4762373"><ele>51.0</ele><time>2026-04-25T07:33:31.555Z</time></trkpt><trkpt lat="43.5350336" lon="13.475995"><ele>51.0</ele><time>2026-04-25T07:33:32.554Z</time></trkpt><trkpt lat="43.5351368" lon="13.4757551"><ele>51.0</ele><time>2026-04-25T07:33:33.557Z</time></trkpt><trkpt lat="43.5352212" lon="13.4755264"><ele>51.0</ele><time>2026-04-25T07:33:34.556Z</time></trkpt><trkpt lat="43.5353117" lon="13.4753106"><ele>50.33333333333333</ele><time>2026-04-25T07:33:35.562Z</time></trkpt><trkpt lat="43.5353844" lon="13.4750957"><ele>49.666666666666664</ele><time>2026-04-25T07:33:36.566Z</time></trkpt><trkpt lat="43.535463" lon="13.4748508"><ele>49.0</ele><time>2026-04-25T07:33:37.568Z</time></trkpt><trkpt lat="43.5355152" lon="13.4745942"><ele>50.666666666666664</ele><time>2026-04-25T07:33:38.567Z</time></trkpt><trkpt lat="43.5355383" lon="13.4743215"><ele>52.33333333333333</ele><time>2026-04-25T07:33:39.559Z</time></trkpt><trkpt lat="43.5355512" lon="13.4740492"><ele>54.0</ele><time>2026-04-25T07:33:40.562Z</time></trkpt><trkpt lat="43.5355811" lon="13.4737667"><ele>54.33333333333333</ele><time>2026-04-25T07:33:41.558Z</time></trkpt><trkpt lat="43.535608" lon="13.4734915"><ele>54.666666666666664</ele><time>2026-04-25T07:33:42.556Z</time></trkpt><trkpt lat="43.5356396" lon="13.4732222"><ele>55.0</ele><time>2026-04-25T07:33:43.563Z</time></trkpt><trkpt lat="43.5356704" lon="13.4729575"><ele>54.666666666666664</ele><time>2026-04-25T07:33:44.558Z</time></trkpt><trkpt lat="43.5356942" lon="13.4726711"><ele>54.33333333333333</ele><time>2026-04-25T07:33:45.571Z</time></trkpt><trkpt lat="43.5357262" lon="13.4723877"><ele>54.0</ele><time>2026-04-25T07:33:46.569Z</time></trkpt><trkpt lat="43.5357715" lon="13.4721093"><ele>54.0</ele><time>2026-04-25T07:33:47.565Z</time></trkpt><trkpt lat="43.5358293" lon="13.471833"><ele>54.0</ele><time>2026-04-25T07:33:48.57Z</time></trkpt><trkpt lat="43.5358493" lon="13.4715427"><ele>54.0</ele><time>2026-04-25T07:33:49.569Z</time></trkpt><trkpt lat="43.5358317" lon="13.4712409"><ele>54.0</ele><time>2026-04-25T07:33:50.567Z</time></trkpt><trkpt lat="43.5358561" lon="13.4709891"><ele>54.0</ele><time>2026-04-25T07:33:51.565Z</time></trkpt><trkpt lat="43.5358496" lon="13.470728"><ele>54.0</ele><time>2026-04-25T07:33:52.561Z</time></trkpt><trkpt lat="43.5358475" lon="13.4704395"><ele>54.0</ele><time>2026-04-25T07:33:53.556Z</time></trkpt><trkpt lat="43.5358638" lon="13.4701626"><ele>54.0</ele><time>2026-04-25T07:33:54.564Z</time></trkpt><trkpt lat="43.5359481" lon="13.4698888"><ele>54.0</ele><time>2026-04-25T07:33:55.562Z</time></trkpt><trkpt lat="43.5359746" lon="13.4696062"><ele>54.0</ele><time>2026-04-25T07:33:56.557Z</time></trkpt><trkpt lat="43.5360072" lon="13.469336"><ele>54.0</ele><time>2026-04-25T07:33:57.544Z</time></trkpt><trkpt lat="43.5360342" lon="13.4690575"><ele>54.0</ele><time>2026-04-25T07:33:58.552Z</time></trkpt><trkpt lat="43.5360883" lon="13.468778"><ele>54.0</ele><time>2026-04-25T07:33:59.554Z</time></trkpt><trkpt lat="43.536115" lon="13.4684906"><ele>54.0</ele><time>2026-04-25T07:34:00.559Z</time></trkpt><trkpt lat="43.536164" lon="13.4682149"><ele>54.0</ele><time>2026-04-25T07:34:01.559Z</time></trkpt><trkpt lat="43.5361972" lon="13.4679256"><ele>54.33333333333333</ele><time>2026-04-25T07:34:02.559Z</time></trkpt><trkpt lat="43.5362272" lon="13.4676255"><ele>54.666666666666664</ele><time>2026-04-25T07:34:03.563Z</time></trkpt><trkpt lat="43.5362227" lon="13.4673379"><ele>55.0</ele><time>2026-04-25T07:34:04.564Z</time></trkpt><trkpt lat="43.536214" lon="13.467054"><ele>57.0</ele><time>2026-04-25T07:34:05.563Z</time></trkpt><trkpt lat="43.5362212" lon="13.4667842"><ele>59.0</ele><time>2026-04-25T07:34:06.558Z</time></trkpt><trkpt lat="43.5362317" lon="13.4665149"><ele>61.0</ele><time>2026-04-25T07:34:07.56Z</time></trkpt><trkpt lat="43.5362315" lon="13.4662255"><ele>61.0</ele><time>2026-04-25T07:34:08.561Z</time></trkpt><trkpt lat="43.5362266" lon="13.4659507"><ele>61.0</ele><time>2026-04-25T07:34:09.569Z</time></trkpt><trkpt lat="43.5362263" lon="13.4656681"><ele>61.0</ele><time>2026-04-25T07:34:10.569Z</time></trkpt><trkpt lat="43.5362258" lon="13.4653967"><ele>61.33333333333333</ele><time>2026-04-25T07:34:11.572Z</time></trkpt><trkpt lat="43.5362337" lon="13.4651267"><ele>61.66666666666667</ele><time>2026-04-25T07:34:12.575Z</time></trkpt><trkpt lat="43.5362565" lon="13.4648717"><ele>62.0</ele><time>2026-04-25T07:34:13.573Z</time></trkpt><trkpt lat="43.5362471" lon="13.4646063"><ele>62.0</ele><time>2026-04-25T07:34:14.555Z</time></trkpt><trkpt lat="43.5362537" lon="13.4643546"><ele>62.0</ele><time>2026-04-25T07:34:15.564Z</time></trkpt><trkpt lat="43.5362557" lon="13.464106"><ele>62.0</ele><time>2026-04-25T07:34:16.56Z</time></trkpt><trkpt lat="43.5362366" lon="13.4638259"><ele>61.66666666666667</ele><time>2026-04-25T07:34:17.554Z</time></trkpt><trkpt lat="43.5362182" lon="13.4635946"><ele>61.33333333333333</ele><time>2026-04-25T07:34:18.55Z</time></trkpt><trkpt lat="43.5362532" lon="13.4634016"><ele>61.0</ele><time>2026-04-25T07:34:19.555Z</time></trkpt><trkpt lat="43.5362619" lon="13.4631753"><ele>60.33333333333333</ele><time>2026-04-25T07:34:20.542Z</time></trkpt><trkpt lat="43.5362801" lon="13.4629341"><ele>59.66666666666667</ele><time>2026-04-25T07:34:21.549Z</time></trkpt><trkpt lat="43.5363456" lon="13.4626966"><ele>59.0</ele><time>2026-04-25T07:34:22.543Z</time></trkpt><trkpt lat="43.536382" lon="13.4624556"><ele>59.0</ele><time>2026-04-25T07:34:23.557Z</time></trkpt><trkpt lat="43.5364136" lon="13.4621922"><ele>59.0</ele><time>2026-04-25T07:34:24.555Z</time></trkpt><trkpt lat="43.5364686" lon="13.4619556"><ele>59.0</ele><time>2026-04-25T07:34:25.557Z</time></trkpt><trkpt lat="43.5365756" lon="13.4617338"><ele>59.0</ele><time>2026-04-25T07:34:26.554Z</time></trkpt><trkpt lat="43.5367041" lon="13.4615108"><ele>59.0</ele><time>2026-04-25T07:34:27.559Z</time></trkpt><trkpt lat="43.536774" lon="13.4612606"><ele>59.0</ele><time>2026-04-25T07:34:28.561Z</time></trkpt><trkpt lat="43.5368496" lon="13.460995"><ele>59.0</ele><time>2026-04-25T07:34:29.56Z</time></trkpt><trkpt lat="43.5369149" lon="13.4607744"><ele>59.0</ele><time>2026-04-25T07:34:30.565Z</time></trkpt><trkpt lat="43.5369617" lon="13.4605391"><ele>59.0</ele><time>2026-04-25T07:34:31.556Z</time></trkpt><trkpt lat="43.5370376" lon="13.4602883"><ele>60.0</ele><time>2026-04-25T07:34:32.568Z</time></trkpt><trkpt lat="43.5371033" lon="13.4600425"><ele>61.0</ele><time>2026-04-25T07:34:33.576Z</time></trkpt><trkpt lat="43.537172" lon="13.4597726"><ele>62.0</ele><time>2026-04-25T07:34:34.57Z</time></trkpt><trkpt lat="43.5372357" lon="13.4595041"><ele>62.0</ele><time>2026-04-25T07:34:35.574Z</time></trkpt><trkpt lat="43.537285" lon="13.459253"><ele>62.0</ele><time>2026-04-25T07:34:36.568Z</time></trkpt><trkpt lat="43.537347" lon="13.4590056"><ele>62.0</ele><time>2026-04-25T07:34:37.562Z</time></trkpt><trkpt lat="43.5374239" lon="13.4587521"><ele>61.0</ele><time>2026-04-25T07:34:38.57Z</time></trkpt><trkpt lat="43.5374913" lon="13.4585009"><ele>60.0</ele><time>2026-04-25T07:34:39.573Z</time></trkpt><trkpt lat="43.5375457" lon="13.4582373"><ele>59.0</ele><time>2026-04-25T07:34:40.57Z</time></trkpt><trkpt lat="43.5376097" lon="13.4579838"><ele>59.0</ele><time>2026-04-25T07:34:41.568Z</time></trkpt><trkpt lat="43.5376508" lon="13.4577312"><ele>59.0</ele><time>2026-04-25T07:34:42.567Z</time></trkpt><trkpt lat="43.5377163" lon="13.4574802"><ele>59.0</ele><time>2026-04-25T07:34:43.571Z</time></trkpt><trkpt lat="43.5377803" lon="13.4572358"><ele>59.0</ele><time>2026-04-25T07:34:44.563Z</time></trkpt><trkpt lat="43.5378032" lon="13.4570214"><ele>59.0</ele><time>2026-04-25T07:34:45.556Z</time></trkpt><trkpt lat="43.5377786" lon="13.4568053"><ele>59.0</ele><time>2026-04-25T07:34:46.538Z</time></trkpt><trkpt lat="43.5377727" lon="13.4566001"><ele>59.0</ele><time>2026-04-25T07:34:47.525Z</time></trkpt><trkpt lat="43.5377882" lon="13.4564227"><ele>59.0</ele><time>2026-04-25T07:34:48.516Z</time></trkpt><trkpt lat="43.5378108" lon="13.4562374"><ele>59.0</ele><time>2026-04-25T07:34:49.519Z</time></trkpt><trkpt lat="43.5379929" lon="13.4560733"><ele>61.5</ele><time>2026-04-25T07:34:50.528Z</time></trkpt><trkpt lat="43.5382049" lon="13.455829"><ele>64.0</ele><time>2026-04-25T07:34:51.536Z</time></trkpt><trkpt lat="43.538359" lon="13.4556236"><ele>63.33333333333333</ele><time>2026-04-25T07:34:52.541Z</time></trkpt><trkpt lat="43.5384819" lon="13.455391"><ele>62.66666666666667</ele><time>2026-04-25T07:34:53.547Z</time></trkpt><trkpt lat="43.5385814" lon="13.4551485"><ele>62.0</ele><time>2026-04-25T07:34:54.549Z</time></trkpt><trkpt lat="43.5387012" lon="13.4549803"><ele>62.333333333333336</ele><time>2026-04-25T07:34:55.553Z</time></trkpt><trkpt lat="43.5387996" lon="13.4547603"><ele>62.66666666666667</ele><time>2026-04-25T07:34:56.553Z</time></trkpt><trkpt lat="43.5389091" lon="13.4545991"><ele>63.0</ele><time>2026-04-25T07:34:57.549Z</time></trkpt><trkpt lat="43.5390426" lon="13.4544228"><ele>63.0</ele><time>2026-04-25T07:34:58.562Z</time></trkpt><trkpt lat="43.539205" lon="13.4542677"><ele>63.0</ele><time>2026-04-25T07:34:59.553Z</time></trkpt><trkpt lat="43.5393408" lon="13.4540872"><ele>63.0</ele><time>2026-04-25T07:35:00.553Z</time></trkpt><trkpt lat="43.5394261" lon="13.4539211"><ele>62.33333333333333</ele><time>2026-04-25T07:35:01.561Z</time></trkpt><trkpt lat="43.5395048" lon="13.4537289"><ele>61.666666666666664</ele><time>2026-04-25T07:35:02.563Z</time></trkpt><trkpt lat="43.5395738" lon="13.453512"><ele>61.0</ele><time>2026-04-25T07:35:03.553Z</time></trkpt><trkpt lat="43.5396336" lon="13.4532852"><ele>62.0</ele><time>2026-04-25T07:35:04.552Z</time></trkpt><trkpt lat="43.539739" lon="13.4531284"><ele>63.0</ele><time>2026-04-25T07:35:05.557Z</time></trkpt><trkpt lat="43.5398709" lon="13.4529688"><ele>64.0</ele><time>2026-04-25T07:35:06.541Z</time></trkpt><trkpt lat="43.5399333" lon="13.4528499"><ele>65.0</ele><time>2026-04-25T07:35:07.537Z</time></trkpt><trkpt lat="43.539933" lon="13.4527152"><ele>65.0</ele><time>2026-04-25T07:35:08.541Z</time></trkpt><trkpt lat="43.5399449" lon="13.4525609"><ele>65.0</ele><time>2026-04-25T07:35:09.541Z</time></trkpt><trkpt lat="43.5400631" lon="13.4523722"><ele>65.0</ele><time>2026-04-25T07:35:10.539Z</time></trkpt><trkpt lat="43.5401756" lon="13.4521668"><ele>64.0</ele><time>2026-04-25T07:35:11.534Z</time></trkpt><trkpt lat="43.5402366" lon="13.4519294"><ele>63.0</ele><time>2026-04-25T07:35:12.531Z</time></trkpt><trkpt lat="43.5402266" lon="13.451755"><ele>62.0</ele><time>2026-04-25T07:35:13.532Z</time></trkpt><trkpt lat="43.5402259" lon="13.4515487"><ele>62.0</ele><time>2026-04-25T07:35:14.533Z</time></trkpt><trkpt lat="43.540278" lon="13.451358"><ele>62.0</ele><time>2026-04-25T07:35:15.536Z</time></trkpt><trkpt lat="43.540387" lon="13.4511408"><ele>62.0</ele><time>2026-04-25T07:35:16.533Z</time></trkpt><trkpt lat="43.5404909" lon="13.4508886"><ele>65.75</ele><time>2026-04-25T07:35:17.537Z</time></trkpt><trkpt lat="43.540514" lon="13.4507216"><ele>69.5</ele><time>2026-04-25T07:35:18.534Z</time></trkpt><trkpt lat="43.5405291" lon="13.450584"><ele>73.25</ele><time>2026-04-25T07:35:19.533Z</time></trkpt><trkpt lat="43.5404394" lon="13.4503732"><ele>77.0</ele><time>2026-04-25T07:35:20.543Z</time></trkpt><trkpt lat="43.5404055" lon="13.4501498"><ele>77.0</ele><time>2026-04-25T07:35:21.544Z</time></trkpt><trkpt lat="43.5403842" lon="13.4499523"><ele>77.0</ele><time>2026-04-25T07:35:22.552Z</time></trkpt><trkpt lat="43.5403999" lon="13.4497548"><ele>77.0</ele><time>2026-04-25T07:35:23.554Z</time></trkpt><trkpt lat="43.5404199" lon="13.4495477"><ele>77.0</ele><time>2026-04-25T07:35:24.557Z</time></trkpt><trkpt lat="43.5404436" lon="13.4493343"><ele>75.66666666666667</ele><time>2026-04-25T07:35:25.554Z</time></trkpt><trkpt lat="43.540476" lon="13.4491326"><ele>74.33333333333333</ele><time>2026-04-25T07:35:26.566Z</time></trkpt><trkpt lat="43.5405035" lon="13.4489232"><ele>73.0</ele><time>2026-04-25T07:35:27.567Z</time></trkpt><trkpt lat="43.5405232" lon="13.4487037"><ele>72.0</ele><time>2026-04-25T07:35:28.565Z</time></trkpt><trkpt lat="43.5405299" lon="13.4484895"><ele>71.0</ele><time>2026-04-25T07:35:29.563Z</time></trkpt><trkpt lat="43.5405461" lon="13.4482813"><ele>70.0</ele><time>2026-04-25T07:35:30.56Z</time></trkpt><trkpt lat="43.5405534" lon="13.4480853"><ele>69.0</ele><time>2026-04-25T07:35:31.543Z</time></trkpt><trkpt lat="43.5405749" lon="13.4478818"><ele>68.25</ele><time>2026-04-25T07:35:32.545Z</time></trkpt><trkpt lat="43.5406177" lon="13.4476893"><ele>67.5</ele><time>2026-04-25T07:35:33.548Z</time></trkpt><trkpt lat="43.5406578" lon="13.4475143"><ele>66.75</ele><time>2026-04-25T07:35:34.544Z</time></trkpt><trkpt lat="43.5406948" lon="13.4473332"><ele>66.0</ele><time>2026-04-25T07:35:35.556Z</time></trkpt><trkpt lat="43.5407257" lon="13.4471703"><ele>65.25</ele><time>2026-04-25T07:35:36.55Z</time></trkpt><trkpt lat="43.5407897" lon="13.4470146"><ele>64.5</ele><time>2026-04-25T07:35:37.553Z</time></trkpt><trkpt lat="43.5408385" lon="13.4468608"><ele>63.75</ele><time>2026-04-25T07:35:38.556Z</time></trkpt><trkpt lat="43.5408881" lon="13.4467308"><ele>63.0</ele><time>2026-04-25T07:35:39.551Z</time></trkpt><trkpt lat="43.5409262" lon="13.4465874"><ele>63.0</ele><time>2026-04-25T07:35:40.553Z</time></trkpt><trkpt lat="43.5409789" lon="13.4464496"><ele>63.0</ele><time>2026-04-25T07:35:41.554Z</time></trkpt><trkpt lat="43.5410075" lon="13.4463097"><ele>63.0</ele><time>2026-04-25T07:35:42.553Z</time></trkpt><trkpt lat="43.5410428" lon="13.4461795"><ele>63.0</ele><time>2026-04-25T07:35:43.548Z</time></trkpt><trkpt lat="43.5410877" lon="13.446082"><ele>63.0</ele><time>2026-04-25T07:35:44.558Z</time></trkpt><trkpt lat="43.5411333" lon="13.4459968"><ele>63.333333333333336</ele><time>2026-04-25T07:35:45.557Z</time></trkpt><trkpt lat="43.5411777" lon="13.4459143"><ele>63.66666666666667</ele><time>2026-04-25T07:35:46.561Z</time></trkpt><trkpt lat="43.5412238" lon="13.445822"><ele>64.0</ele><time>2026-04-25T07:35:47.556Z</time></trkpt><trkpt lat="43.5412334" lon="13.4457231"><ele>64.33333333333334</ele><time>2026-04-25T07:35:48.559Z</time></trkpt><trkpt lat="43.5412169" lon="13.4456168"><ele>64.66666666666667</ele><time>2026-04-25T07:35:49.552Z</time></trkpt><trkpt lat="43.5411852" lon="13.445488"><ele>65.0</ele><time>2026-04-25T07:35:50.554Z</time></trkpt><trkpt lat="43.5411497" lon="13.4453317"><ele>65.0</ele><time>2026-04-25T07:35:51.557Z</time></trkpt><trkpt lat="43.5411348" lon="13.445192"><ele>65.0</ele><time>2026-04-25T07:35:52.568Z</time></trkpt><trkpt lat="43.5411179" lon="13.4450264"><ele>65.0</ele><time>2026-04-25T07:35:53.563Z</time></trkpt><trkpt lat="43.5410958" lon="13.4448663"><ele>65.0</ele><time>2026-04-25T07:35:54.561Z</time></trkpt><trkpt lat="43.5410771" lon="13.4446917"><ele>65.0</ele><time>2026-04-25T07:35:55.558Z</time></trkpt><trkpt lat="43.541056" lon="13.444534"><ele>65.0</ele><time>2026-04-25T07:35:56.564Z</time></trkpt><trkpt lat="43.5410389" lon="13.4443634"><ele>65.0</ele><time>2026-04-25T07:35:57.569Z</time></trkpt><trkpt lat="43.5410244" lon="13.4441867"><ele>65.0</ele><time>2026-04-25T07:35:58.574Z</time></trkpt><trkpt lat="43.5410038" lon="13.4439867"><ele>65.0</ele><time>2026-04-25T07:35:59.567Z</time></trkpt><trkpt lat="43.5409732" lon="13.4437704"><ele>65.0</ele><time>2026-04-25T07:36:00.568Z</time></trkpt><trkpt lat="43.5409226" lon="13.4435734"><ele>65.0</ele><time>2026-04-25T07:36:01.549Z</time></trkpt><trkpt lat="43.5408868" lon="13.4433716"><ele>65.0</ele><time>2026-04-25T07:36:02.543Z</time></trkpt><trkpt lat="43.5408642" lon="13.4431602"><ele>65.0</ele><time>2026-04-25T07:36:03.546Z</time></trkpt><trkpt lat="43.5408497" lon="13.4429061"><ele>65.0</ele><time>2026-04-25T07:36:04.547Z</time></trkpt><trkpt lat="43.5408171" lon="13.4426814"><ele>65.33333333333334</ele><time>2026-04-25T07:36:05.549Z</time></trkpt><trkpt lat="43.5408037" lon="13.4424674"><ele>65.66666666666667</ele><time>2026-04-25T07:36:06.555Z</time></trkpt><trkpt lat="43.5407949" lon="13.4422401"><ele>66.0</ele><time>2026-04-25T07:36:07.552Z</time></trkpt><trkpt lat="43.5407739" lon="13.4420272"><ele>66.0</ele><time>2026-04-25T07:36:08.54Z</time></trkpt><trkpt lat="43.5407505" lon="13.4418107"><ele>66.0</ele><time>2026-04-25T07:36:09.553Z</time></trkpt><trkpt lat="43.5407205" lon="13.4415791"><ele>66.0</ele><time>2026-04-25T07:36:10.561Z</time></trkpt><trkpt lat="43.5407013" lon="13.4413429"><ele>66.66666666666667</ele><time>2026-04-25T07:36:11.561Z</time></trkpt><trkpt lat="43.5406737" lon="13.4411002"><ele>67.33333333333334</ele><time>2026-04-25T07:36:12.569Z</time></trkpt><trkpt lat="43.5406455" lon="13.440869"><ele>68.0</ele><time>2026-04-25T07:36:13.563Z</time></trkpt><trkpt lat="43.5406155" lon="13.440633"><ele>69.0</ele><time>2026-04-25T07:36:14.563Z</time></trkpt><trkpt lat="43.5405916" lon="13.4403932"><ele>70.0</ele><time>2026-04-25T07:36:15.574Z</time></trkpt><trkpt lat="43.5405708" lon="13.4401614"><ele>71.0</ele><time>2026-04-25T07:36:16.566Z</time></trkpt><trkpt lat="43.5405376" lon="13.4399229"><ele>71.0</ele><time>2026-04-25T07:36:17.573Z</time></trkpt><trkpt lat="43.5404919" lon="13.439669"><ele>71.0</ele><time>2026-04-25T07:36:18.571Z</time></trkpt><trkpt lat="43.5404575" lon="13.4394309"><ele>71.0</ele><time>2026-04-25T07:36:19.581Z</time></trkpt><trkpt lat="43.540422" lon="13.4391833"><ele>71.33333333333334</ele><time>2026-04-25T07:36:20.578Z</time></trkpt><trkpt lat="43.5403894" lon="13.4389451"><ele>71.66666666666667</ele><time>2026-04-25T07:36:21.579Z</time></trkpt><trkpt lat="43.540367" lon="13.4387081"><ele>72.0</ele><time>2026-04-25T07:36:22.574Z</time></trkpt><trkpt lat="43.5403307" lon="13.4384632"><ele>71.66666666666667</ele><time>2026-04-25T07:36:23.575Z</time></trkpt><trkpt lat="43.5402949" lon="13.4382208"><ele>71.33333333333334</ele><time>2026-04-25T07:36:24.572Z</time></trkpt><trkpt lat="43.540266" lon="13.437997"><ele>71.0</ele><time>2026-04-25T07:36:25.579Z</time></trkpt><trkpt lat="43.5402263" lon="13.4377645"><ele>71.0</ele><time>2026-04-25T07:36:26.562Z</time></trkpt><trkpt lat="43.5401911" lon="13.4375333"><ele>71.0</ele><time>2026-04-25T07:36:27.573Z</time></trkpt><trkpt lat="43.5401684" lon="13.437321"><ele>71.0</ele><time>2026-04-25T07:36:28.57Z</time></trkpt><trkpt lat="43.5401592" lon="13.4371197"><ele>71.5</ele><time>2026-04-25T07:36:29.573Z</time></trkpt><trkpt lat="43.5401284" lon="13.4369231"><ele>72.0</ele><time>2026-04-25T07:36:30.569Z</time></trkpt><trkpt lat="43.5400896" lon="13.4367285"><ele>72.5</ele><time>2026-04-25T07:36:31.575Z</time></trkpt><trkpt lat="43.5400516" lon="13.4365539"><ele>73.0</ele><time>2026-04-25T07:36:32.563Z</time></trkpt><trkpt lat="43.5400038" lon="13.4363804"><ele>73.25</ele><time>2026-04-25T07:36:33.574Z</time></trkpt><trkpt lat="43.5399479" lon="13.4362232"><ele>73.5</ele><time>2026-04-25T07:36:34.57Z</time></trkpt><trkpt lat="43.5398886" lon="13.4360641"><ele>73.75</ele><time>2026-04-25T07:36:35.569Z</time></trkpt><trkpt lat="43.5398291" lon="13.4359203"><ele>74.0</ele><time>2026-04-25T07:36:36.566Z</time></trkpt><trkpt lat="43.5397554" lon="13.4357813"><ele>74.0</ele><time>2026-04-25T07:36:37.553Z</time></trkpt><trkpt lat="43.5397007" lon="13.4356567"><ele>74.0</ele><time>2026-04-25T07:36:38.567Z</time></trkpt><trkpt lat="43.5396384" lon="13.4355407"><ele>74.0</ele><time>2026-04-25T07:36:39.571Z</time></trkpt><trkpt lat="43.5395716" lon="13.4354139"><ele>74.0</ele><time>2026-04-25T07:36:40.563Z</time></trkpt><trkpt lat="43.5395174" lon="13.4353052"><ele>74.0</ele><time>2026-04-25T07:36:41.574Z</time></trkpt><trkpt lat="43.539468" lon="13.4352113"><ele>73.66666666666667</ele><time>2026-04-25T07:36:42.572Z</time></trkpt><trkpt lat="43.539429" lon="13.4351413"><ele>73.33333333333334</ele><time>2026-04-25T07:36:43.567Z</time></trkpt><trkpt lat="43.5393728" lon="13.4350494"><ele>73.0</ele><time>2026-04-25T07:36:45.559Z</time></trkpt><trkpt lat="43.5392832" lon="13.4350334"><ele>72.66666666666667</ele><time>2026-04-25T07:36:47.574Z</time></trkpt><trkpt lat="43.5392278" lon="13.4350825"><ele>72.33333333333333</ele><time>2026-04-25T07:36:48.565Z</time></trkpt><trkpt lat="43.5391506" lon="13.4351422"><ele>72.0</ele><time>2026-04-25T07:36:49.564Z</time></trkpt><trkpt lat="43.53907" lon="13.435207"><ele>72.0</ele><time>2026-04-25T07:36:50.571Z</time></trkpt><trkpt lat="43.5389809" lon="13.4352689"><ele>72.0</ele><time>2026-04-25T07:36:51.578Z</time></trkpt><trkpt lat="43.5388882" lon="13.4353451"><ele>72.0</ele><time>2026-04-25T07:36:52.577Z</time></trkpt><trkpt lat="43.5387754" lon="13.4354164"><ele>72.0</ele><time>2026-04-25T07:36:53.574Z</time></trkpt><trkpt lat="43.5386599" lon="13.4354926"><ele>71.5</ele><time>2026-04-25T07:36:54.566Z</time></trkpt><trkpt lat="43.5385445" lon="13.4355696"><ele>71.0</ele><time>2026-04-25T07:36:55.565Z</time></trkpt><trkpt lat="43.5384225" lon="13.4356565"><ele>70.5</ele><time>2026-04-25T07:36:56.574Z</time></trkpt><trkpt lat="43.5383094" lon="13.4357289"><ele>70.0</ele><time>2026-04-25T07:36:57.571Z</time></trkpt><trkpt lat="43.5382024" lon="13.4357954"><ele>70.0</ele><time>2026-04-25T07:36:58.577Z</time></trkpt><trkpt lat="43.5381104" lon="13.4358397"><ele>70.0</ele><time>2026-04-25T07:36:59.567Z</time></trkpt><trkpt lat="43.5380181" lon="13.4358598"><ele>70.0</ele><time>2026-04-25T07:37:00.573Z</time></trkpt><trkpt lat="43.5379242" lon="13.4358337"><ele>70.0</ele><time>2026-04-25T07:37:01.561Z</time></trkpt><trkpt lat="43.5378331" lon="13.4357588"><ele>70.0</ele><time>2026-04-25T07:37:02.555Z</time></trkpt><trkpt lat="43.5377475" lon="13.4356514"><ele>71.25</ele><time>2026-04-25T07:37:03.566Z</time></trkpt><trkpt lat="43.5376413" lon="13.4355322"><ele>72.5</ele><time>2026-04-25T07:37:04.557Z</time></trkpt><trkpt lat="43.5375301" lon="13.4354097"><ele>73.75</ele><time>2026-04-25T07:37:05.561Z</time></trkpt><trkpt lat="43.537417" lon="13.4353022"><ele>75.0</ele><time>2026-04-25T07:37:06.556Z</time></trkpt><trkpt lat="43.5373061" lon="13.4351949"><ele>75.5</ele><time>2026-04-25T07:37:07.563Z</time></trkpt><trkpt lat="43.5371831" lon="13.4350806"><ele>76.0</ele><time>2026-04-25T07:37:08.559Z</time></trkpt><trkpt lat="43.5370633" lon="13.4349617"><ele>76.5</ele><time>2026-04-25T07:37:09.563Z</time></trkpt><trkpt lat="43.5369375" lon="13.4348431"><ele>77.0</ele><time>2026-04-25T07:37:10.563Z</time></trkpt><trkpt lat="43.5368126" lon="13.434714"><ele>78.0</ele><time>2026-04-25T07:37:11.561Z</time></trkpt><trkpt lat="43.5366988" lon="13.434594"><ele>79.0</ele><time>2026-04-25T07:37:12.559Z</time></trkpt><trkpt lat="43.5365938" lon="13.4344789"><ele>80.0</ele><time>2026-04-25T07:37:13.565Z</time></trkpt><trkpt lat="43.536487" lon="13.4343822"><ele>81.0</ele><time>2026-04-25T07:37:14.563Z</time></trkpt><trkpt lat="43.5364074" lon="13.4343192"><ele>81.0</ele><time>2026-04-25T07:37:15.561Z</time></trkpt><trkpt lat="43.5363049" lon="13.4342452"><ele>81.0</ele><time>2026-04-25T07:37:16.561Z</time></trkpt><trkpt lat="43.5361891" lon="13.4342378"><ele>81.0</ele><time>2026-04-25T07:37:17.561Z</time></trkpt><trkpt lat="43.5360835" lon="13.4342468"><ele>81.0</ele><time>2026-04-25T07:37:18.557Z</time></trkpt><trkpt lat="43.5359674" lon="13.4342832"><ele>83.0</ele><time>2026-04-25T07:37:19.56Z</time></trkpt><trkpt lat="43.5358594" lon="13.434347"><ele>85.0</ele><time>2026-04-25T07:37:20.564Z</time></trkpt><trkpt lat="43.5357477" lon="13.4344355"><ele>87.0</ele><time>2026-04-25T07:37:21.562Z</time></trkpt><trkpt lat="43.535632" lon="13.4345285"><ele>89.0</ele><time>2026-04-25T07:37:22.55Z</time></trkpt><trkpt lat="43.5355255" lon="13.4346064"><ele>90.25</ele><time>2026-04-25T07:37:23.547Z</time></trkpt><trkpt lat="43.5354353" lon="13.43469"><ele>91.5</ele><time>2026-04-25T07:37:24.549Z</time></trkpt><trkpt lat="43.5353521" lon="13.4348003"><ele>92.75</ele><time>2026-04-25T07:37:25.55Z</time></trkpt><trkpt lat="43.5352955" lon="13.4349375"><ele>94.0</ele><time>2026-04-25T07:37:26.558Z</time></trkpt><trkpt lat="43.5352548" lon="13.4350905"><ele>95.0</ele><time>2026-04-25T07:37:27.562Z</time></trkpt><trkpt lat="43.5352142" lon="13.435276"><ele>96.0</ele><time>2026-04-25T07:37:28.575Z</time></trkpt><trkpt lat="43.5351899" lon="13.4354773"><ele>97.0</ele><time>2026-04-25T07:37:29.563Z</time></trkpt><trkpt lat="43.5351778" lon="13.4356848"><ele>98.0</ele><time>2026-04-25T07:37:30.558Z</time></trkpt><trkpt lat="43.5352084" lon="13.4359089"><ele>101.33333333333333</ele><time>2026-04-25T07:37:31.558Z</time></trkpt><trkpt lat="43.5352003" lon="13.4361266"><ele>104.66666666666666</ele><time>2026-04-25T07:37:32.56Z</time></trkpt><trkpt lat="43.5351845" lon="13.4363656"><ele>108.0</ele><time>2026-04-25T07:37:33.558Z</time></trkpt><trkpt lat="43.5351749" lon="13.4365812"><ele>110.25</ele><time>2026-04-25T07:37:34.558Z</time></trkpt><trkpt lat="43.5351782" lon="13.4367796"><ele>112.5</ele><time>2026-04-25T07:37:35.558Z</time></trkpt><trkpt lat="43.5351842" lon="13.4369806"><ele>114.75</ele><time>2026-04-25T07:37:36.558Z</time></trkpt><trkpt lat="43.5351774" lon="13.4371657"><ele>117.0</ele><time>2026-04-25T07:37:37.554Z</time></trkpt><trkpt lat="43.535183" lon="13.4372895"><ele>116.8</ele><time>2026-04-25T07:37:38.562Z</time></trkpt><trkpt lat="43.5352207" lon="13.4374318"><ele>116.6</ele><time>2026-04-25T07:37:39.562Z</time></trkpt><trkpt lat="43.5352778" lon="13.4375386"><ele>116.39999999999999</ele><time>2026-04-25T07:37:40.56Z</time></trkpt><trkpt lat="43.5353813" lon="13.4376191"><ele>116.19999999999999</ele><time>2026-04-25T07:37:41.561Z</time></trkpt><trkpt lat="43.5354957" lon="13.4376576"><ele>116.0</ele><time>2026-04-25T07:37:42.563Z</time></trkpt><trkpt lat="43.5356026" lon="13.4376749"><ele>116.0</ele><time>2026-04-25T07:37:43.566Z</time></trkpt><trkpt lat="43.5357224" lon="13.4376543"><ele>116.0</ele><time>2026-04-25T07:37:44.563Z</time></trkpt><trkpt lat="43.5358217" lon="13.4376543"><ele>116.0</ele><time>2026-04-25T07:37:45.56Z</time></trkpt><trkpt lat="43.5359148" lon="13.4376964"><ele>116.0</ele><time>2026-04-25T07:37:46.565Z</time></trkpt><trkpt lat="43.5359863" lon="13.4377566"><ele>116.0</ele><time>2026-04-25T07:37:47.553Z</time></trkpt><trkpt lat="43.5360398" lon="13.4378277"><ele>116.0</ele><time>2026-04-25T07:37:48.567Z</time></trkpt><trkpt lat="43.5360942" lon="13.4379549"><ele>116.0</ele><time>2026-04-25T07:37:49.56Z</time></trkpt><trkpt lat="43.5361564" lon="13.4381033"><ele>116.0</ele><time>2026-04-25T07:37:50.552Z</time></trkpt><trkpt lat="43.5362178" lon="13.4382722"><ele>116.0</ele><time>2026-04-25T07:37:51.55Z</time></trkpt><trkpt lat="43.536296" lon="13.4384493"><ele>115.8</ele><time>2026-04-25T07:37:52.562Z</time></trkpt><trkpt lat="43.5363649" lon="13.4386089"><ele>115.6</ele><time>2026-04-25T07:37:53.558Z</time></trkpt><trkpt lat="43.5364023" lon="13.4387619"><ele>115.4</ele><time>2026-04-25T07:37:54.562Z</time></trkpt><trkpt lat="43.5364197" lon="13.4389"><ele>115.2</ele><time>2026-04-25T07:37:55.561Z</time></trkpt><trkpt lat="43.536421" lon="13.4390196"><ele>115.0</ele><time>2026-04-25T07:37:56.558Z</time></trkpt><trkpt lat="43.5363978" lon="13.4391296"><ele>115.0</ele><time>2026-04-25T07:37:57.556Z</time></trkpt><trkpt lat="43.5363534" lon="13.4392439"><ele>115.0</ele><time>2026-04-25T07:37:58.558Z</time></trkpt><trkpt lat="43.5362783" lon="13.4393278"><ele>115.0</ele><time>2026-04-25T07:37:59.559Z</time></trkpt><trkpt lat="43.5361928" lon="13.4393789"><ele>115.0</ele><time>2026-04-25T07:38:00.553Z</time></trkpt><trkpt lat="43.536096" lon="13.4393752"><ele>115.0</ele><time>2026-04-25T07:38:01.555Z</time></trkpt><trkpt lat="43.5359878" lon="13.4393159"><ele>120.5</ele><time>2026-04-25T07:38:02.555Z</time></trkpt><trkpt lat="43.5358973" lon="13.4392348"><ele>126.0</ele><time>2026-04-25T07:38:03.557Z</time></trkpt><trkpt lat="43.5358005" lon="13.4391142"><ele>131.5</ele><time>2026-04-25T07:38:04.554Z</time></trkpt><trkpt lat="43.5357083" lon="13.4389742"><ele>137.0</ele><time>2026-04-25T07:38:05.557Z</time></trkpt><trkpt lat="43.5356237" lon="13.4388454"><ele>138.0</ele><time>2026-04-25T07:38:06.546Z</time></trkpt><trkpt lat="43.5355233" lon="13.4387355"><ele>139.0</ele><time>2026-04-25T07:38:07.559Z</time></trkpt><trkpt lat="43.5354" lon="13.438659"><ele>140.0</ele><time>2026-04-25T07:38:08.556Z</time></trkpt><trkpt lat="43.5352652" lon="13.4386161"><ele>141.0</ele><time>2026-04-25T07:38:09.56Z</time></trkpt><trkpt lat="43.5351364" lon="13.438586"><ele>141.0</ele><time>2026-04-25T07:38:10.554Z</time></trkpt><trkpt lat="43.535014" lon="13.4385325"><ele>141.0</ele><time>2026-04-25T07:38:11.561Z</time></trkpt><trkpt lat="43.5348998" lon="13.4384189"><ele>141.0</ele><time>2026-04-25T07:38:12.552Z</time></trkpt><trkpt lat="43.5347991" lon="13.4382771"><ele>141.0</ele><time>2026-04-25T07:38:13.558Z</time></trkpt><trkpt lat="43.5346871" lon="13.4381354"><ele>141.0</ele><time>2026-04-25T07:38:14.554Z</time></trkpt><trkpt lat="43.534583" lon="13.4379856"><ele>141.0</ele><time>2026-04-25T07:38:15.561Z</time></trkpt><trkpt lat="43.534494" lon="13.4378549"><ele>141.0</ele><time>2026-04-25T07:38:16.558Z</time></trkpt><trkpt lat="43.5344128" lon="13.4377369"><ele>141.0</ele><time>2026-04-25T07:38:17.562Z</time></trkpt><trkpt lat="43.5343417" lon="13.4376556"><ele>141.8</ele><time>2026-04-25T07:38:18.555Z</time></trkpt><trkpt lat="43.5342564" lon="13.4375629"><ele>142.6</ele><time>2026-04-25T07:38:19.558Z</time></trkpt><trkpt lat="43.5341609" lon="13.4375135"><ele>143.4</ele><time>2026-04-25T07:38:20.551Z</time></trkpt><trkpt lat="43.5340811" lon="13.4375337"><ele>144.2</ele><time>2026-04-25T07:38:21.565Z</time></trkpt><trkpt lat="43.5339847" lon="13.4375352"><ele>145.0</ele><time>2026-04-25T07:38:22.556Z</time></trkpt><trkpt lat="43.5339217" lon="13.437601"><ele>145.0</ele><time>2026-04-25T07:38:23.557Z</time></trkpt><trkpt lat="43.5338641" lon="13.4376661"><ele>145.0</ele><time>2026-04-25T07:38:24.552Z</time></trkpt><trkpt lat="43.53384" lon="13.437754"><ele>145.0</ele><time>2026-04-25T07:38:25.561Z</time></trkpt><trkpt lat="43.5338518" lon="13.4378463"><ele>145.0</ele><time>2026-04-25T07:38:26.554Z</time></trkpt><trkpt lat="43.5339026" lon="13.4379499"><ele>145.0</ele><time>2026-04-25T07:38:27.55Z</time></trkpt><trkpt lat="43.5339739" lon="13.43804"><ele>145.0</ele><time>2026-04-25T07:38:28.547Z</time></trkpt><trkpt lat="43.5340494" lon="13.4381159"><ele>148.25</ele><time>2026-04-25T07:38:29.551Z</time></trkpt><trkpt lat="43.5341469" lon="13.4382443"><ele>151.5</ele><time>2026-04-25T07:38:30.544Z</time></trkpt><trkpt lat="43.5342427" lon="13.4384047"><ele>154.75</ele><time>2026-04-25T07:38:31.545Z</time></trkpt><trkpt lat="43.5343471" lon="13.4385464"><ele>158.0</ele><time>2026-04-25T07:38:32.547Z</time></trkpt><trkpt lat="43.5344431" lon="13.4387237"><ele>157.66666666666666</ele><time>2026-04-25T07:38:33.551Z</time></trkpt><trkpt lat="43.5345497" lon="13.4389458"><ele>157.33333333333334</ele><time>2026-04-25T07:38:34.548Z</time></trkpt><trkpt lat="43.5346544" lon="13.4391312"><ele>157.0</ele><time>2026-04-25T07:38:35.552Z</time></trkpt><trkpt lat="43.5347361" lon="13.4393128"><ele>157.0</ele><time>2026-04-25T07:38:36.553Z</time></trkpt><trkpt lat="43.5347998" lon="13.439482"><ele>157.0</ele><time>2026-04-25T07:38:37.557Z</time></trkpt><trkpt lat="43.5348825" lon="13.4396211"><ele>157.0</ele><time>2026-04-25T07:38:38.554Z</time></trkpt><trkpt lat="43.5349289" lon="13.4397421"><ele>157.0</ele><time>2026-04-25T07:38:39.558Z</time></trkpt><trkpt lat="43.5349955" lon="13.4398739"><ele>160.0</ele><time>2026-04-25T07:38:40.561Z</time></trkpt><trkpt lat="43.5350534" lon="13.4400279"><ele>163.0</ele><time>2026-04-25T07:38:41.565Z</time></trkpt><trkpt lat="43.5350853" lon="13.4401906"><ele>166.0</ele><time>2026-04-25T07:38:42.56Z</time></trkpt><trkpt lat="43.5351205" lon="13.4403502"><ele>169.0</ele><time>2026-04-25T07:38:43.563Z</time></trkpt><trkpt lat="43.5351293" lon="13.440517"><ele>170.25</ele><time>2026-04-25T07:38:44.555Z</time></trkpt><trkpt lat="43.5351386" lon="13.4406605"><ele>171.5</ele><time>2026-04-25T07:38:45.548Z</time></trkpt><trkpt lat="43.5351537" lon="13.4408106"><ele>172.75</ele><time>2026-04-25T07:38:46.551Z</time></trkpt><trkpt lat="43.5351653" lon="13.4409789"><ele>174.0</ele><time>2026-04-25T07:38:47.557Z</time></trkpt><trkpt lat="43.5351743" lon="13.4411606"><ele>175.66666666666666</ele><time>2026-04-25T07:38:48.551Z</time></trkpt><trkpt lat="43.5351867" lon="13.4413953"><ele>177.33333333333331</ele><time>2026-04-25T07:38:49.547Z</time></trkpt><trkpt lat="43.5352171" lon="13.4416111"><ele>179.0</ele><time>2026-04-25T07:38:50.545Z</time></trkpt><trkpt lat="43.5352632" lon="13.4417924"><ele>179.0</ele><time>2026-04-25T07:38:51.538Z</time></trkpt><trkpt lat="43.5352897" lon="13.4420053"><ele>179.0</ele><time>2026-04-25T07:38:52.536Z</time></trkpt><trkpt lat="43.5353027" lon="13.4422166"><ele>179.0</ele><time>2026-04-25T07:38:53.535Z</time></trkpt><trkpt lat="43.535349" lon="13.4424114"><ele>181.0</ele><time>2026-04-25T07:38:54.543Z</time></trkpt><trkpt lat="43.5353636" lon="13.4425921"><ele>183.0</ele><time>2026-04-25T07:38:55.541Z</time></trkpt><trkpt lat="43.5353962" lon="13.4427708"><ele>185.0</ele><time>2026-04-25T07:38:56.543Z</time></trkpt><trkpt lat="43.5353888" lon="13.4429204"><ele>187.0</ele><time>2026-04-25T07:38:57.547Z</time></trkpt><trkpt lat="43.5353713" lon="13.4430954"><ele>187.6</ele><time>2026-04-25T07:38:58.551Z</time></trkpt><trkpt lat="43.5353882" lon="13.4432457"><ele>188.2</ele><time>2026-04-25T07:38:59.545Z</time></trkpt><trkpt lat="43.5353873" lon="13.4433727"><ele>188.8</ele><time>2026-04-25T07:39:00.551Z</time></trkpt><trkpt lat="43.5353453" lon="13.4435262"><ele>189.4</ele><time>2026-04-25T07:39:01.547Z</time></trkpt><trkpt lat="43.535335" lon="13.4436592"><ele>190.0</ele><time>2026-04-25T07:39:02.553Z</time></trkpt><trkpt lat="43.5352903" lon="13.4437408"><ele>190.0</ele><time>2026-04-25T07:39:03.555Z</time></trkpt><trkpt lat="43.5352149" lon="13.4438043"><ele>190.0</ele><time>2026-04-25T07:39:04.564Z</time></trkpt><trkpt lat="43.5351221" lon="13.4438281"><ele>190.0</ele><time>2026-04-25T07:39:05.555Z</time></trkpt><trkpt lat="43.5350296" lon="13.4438197"><ele>190.0</ele><time>2026-04-25T07:39:06.563Z</time></trkpt><trkpt lat="43.5349603" lon="13.4437724"><ele>190.0</ele><time>2026-04-25T07:39:07.563Z</time></trkpt><trkpt lat="43.5349019" lon="13.44369"><ele>190.0</ele><time>2026-04-25T07:39:08.553Z</time></trkpt><trkpt lat="43.5348499" lon="13.4435928"><ele>190.0</ele><time>2026-04-25T07:39:09.554Z</time></trkpt><trkpt lat="43.5347948" lon="13.4434684"><ele>190.0</ele><time>2026-04-25T07:39:10.542Z</time></trkpt><trkpt lat="43.534758" lon="13.4433364"><ele>190.0</ele><time>2026-04-25T07:39:11.549Z</time></trkpt><trkpt lat="43.5347166" lon="13.4431966"><ele>190.0</ele><time>2026-04-25T07:39:12.547Z</time></trkpt><trkpt lat="43.5346516" lon="13.443066"><ele>190.0</ele><time>2026-04-25T07:39:13.555Z</time></trkpt><trkpt lat="43.5345772" lon="13.4429195"><ele>192.75</ele><time>2026-04-25T07:39:14.547Z</time></trkpt><trkpt lat="43.5345065" lon="13.4427661"><ele>195.5</ele><time>2026-04-25T07:39:15.538Z</time></trkpt><trkpt lat="43.5344362" lon="13.4425923"><ele>198.25</ele><time>2026-04-25T07:39:16.537Z</time></trkpt><trkpt lat="43.5343642" lon="13.4423909"><ele>201.0</ele><time>2026-04-25T07:39:17.548Z</time></trkpt><trkpt lat="43.5343052" lon="13.4421841"><ele>200.75</ele><time>2026-04-25T07:39:18.542Z</time></trkpt><trkpt lat="43.5342552" lon="13.4420024"><ele>200.5</ele><time>2026-04-25T07:39:19.541Z</time></trkpt><trkpt lat="43.5341872" lon="13.4418158"><ele>200.25</ele><time>2026-04-25T07:39:20.544Z</time></trkpt><trkpt lat="43.5341036" lon="13.4416365"><ele>200.0</ele><time>2026-04-25T07:39:21.555Z</time></trkpt><trkpt lat="43.534034" lon="13.441471"><ele>200.0</ele><time>2026-04-25T07:39:22.562Z</time></trkpt><trkpt lat="43.5339482" lon="13.4413205"><ele>200.0</ele><time>2026-04-25T07:39:23.555Z</time></trkpt><trkpt lat="43.5338445" lon="13.4411755"><ele>200.0</ele><time>2026-04-25T07:39:24.56Z</time></trkpt><trkpt lat="43.5337171" lon="13.4410464"><ele>200.0</ele><time>2026-04-25T07:39:25.569Z</time></trkpt><trkpt lat="43.5335915" lon="13.4409766"><ele>202.33333333333334</ele><time>2026-04-25T07:39:26.553Z</time></trkpt><trkpt lat="43.5334642" lon="13.4408692"><ele>204.66666666666669</ele><time>2026-04-25T07:39:27.551Z</time></trkpt><trkpt lat="43.533307" lon="13.4407691"><ele>207.0</ele><time>2026-04-25T07:39:28.572Z</time></trkpt><trkpt lat="43.5331675" lon="13.4406943"><ele>207.0</ele><time>2026-04-25T07:39:29.566Z</time></trkpt><trkpt lat="43.5330207" lon="13.4406435"><ele>207.0</ele><time>2026-04-25T07:39:30.568Z</time></trkpt><trkpt lat="43.532865" lon="13.4405927"><ele>207.0</ele><time>2026-04-25T07:39:31.561Z</time></trkpt><trkpt lat="43.5327066" lon="13.4405324"><ele>207.5</ele><time>2026-04-25T07:39:32.561Z</time></trkpt><trkpt lat="43.5325549" lon="13.4404835"><ele>208.0</ele><time>2026-04-25T07:39:33.558Z</time></trkpt><trkpt lat="43.5324179" lon="13.4404162"><ele>208.5</ele><time>2026-04-25T07:39:34.568Z</time></trkpt><trkpt lat="43.5322829" lon="13.4403618"><ele>209.0</ele><time>2026-04-25T07:39:35.564Z</time></trkpt><trkpt lat="43.5321443" lon="13.4402996"><ele>214.33333333333334</ele><time>2026-04-25T07:39:36.565Z</time></trkpt><trkpt lat="43.5319882" lon="13.4402359"><ele>219.66666666666669</ele><time>2026-04-25T07:39:37.557Z</time></trkpt><trkpt lat="43.5318467" lon="13.4401597"><ele>225.0</ele><time>2026-04-25T07:39:38.555Z</time></trkpt><trkpt lat="43.5317217" lon="13.4400832"><ele>225.0</ele><time>2026-04-25T07:39:39.555Z</time></trkpt><trkpt lat="43.5315967" lon="13.4400071"><ele>225.0</ele><time>2026-04-25T07:39:40.568Z</time></trkpt><trkpt lat="43.5314859" lon="13.4398397"><ele>225.0</ele><time>2026-04-25T07:39:41.563Z</time></trkpt><trkpt lat="43.5313777" lon="13.4396643"><ele>222.75</ele><time>2026-04-25T07:39:42.561Z</time></trkpt><trkpt lat="43.5312618" lon="13.4395114"><ele>220.5</ele><time>2026-04-25T07:39:43.563Z</time></trkpt><trkpt lat="43.531147" lon="13.4393728"><ele>218.25</ele><time>2026-04-25T07:39:44.549Z</time></trkpt><trkpt lat="43.5310626" lon="13.4392397"><ele>216.0</ele><time>2026-04-25T07:39:45.564Z</time></trkpt><trkpt lat="43.5309763" lon="13.439084"><ele>218.20000000000002</ele><time>2026-04-25T07:39:46.555Z</time></trkpt><trkpt lat="43.5309164" lon="13.4389677"><ele>220.40000000000003</ele><time>2026-04-25T07:39:47.556Z</time></trkpt><trkpt lat="43.5308417" lon="13.438854"><ele>222.6</ele><time>2026-04-25T07:39:48.55Z</time></trkpt><trkpt lat="43.5307734" lon="13.438751"><ele>224.8</ele><time>2026-04-25T07:39:49.563Z</time></trkpt><trkpt lat="43.5307036" lon="13.4387023"><ele>227.0</ele><time>2026-04-25T07:39:50.549Z</time></trkpt><trkpt lat="43.5306378" lon="13.4387885"><ele>228.6</ele><time>2026-04-25T07:39:52.545Z</time></trkpt><trkpt lat="43.5305965" lon="13.4388551"><ele>230.2</ele><time>2026-04-25T07:39:53.561Z</time></trkpt><trkpt lat="43.5305809" lon="13.4390329"><ele>231.8</ele><time>2026-04-25T07:39:55.541Z</time></trkpt><trkpt lat="43.5305853" lon="13.4391386"><ele>233.4</ele><time>2026-04-25T07:39:56.552Z</time></trkpt><trkpt lat="43.5306261" lon="13.4392604"><ele>235.0</ele><time>2026-04-25T07:39:57.537Z</time></trkpt><trkpt lat="43.5306813" lon="13.4393866"><ele>235.0</ele><time>2026-04-25T07:39:58.562Z</time></trkpt><trkpt lat="43.5307188" lon="13.4394955"><ele>235.0</ele><time>2026-04-25T07:39:59.547Z</time></trkpt><trkpt lat="43.5307663" lon="13.4396296"><ele>235.0</ele><time>2026-04-25T07:40:00.561Z</time></trkpt><trkpt lat="43.5307794" lon="13.4397689"><ele>235.0</ele><time>2026-04-25T07:40:01.556Z</time></trkpt><trkpt lat="43.5307649" lon="13.4398741"><ele>235.0</ele><time>2026-04-25T07:40:02.559Z</time></trkpt><trkpt lat="43.5307162" lon="13.4399887"><ele>236.5</ele><time>2026-04-25T07:40:03.555Z</time></trkpt><trkpt lat="43.5306258" lon="13.4400851"><ele>238.0</ele><time>2026-04-25T07:40:04.555Z</time></trkpt><trkpt lat="43.5305133" lon="13.4401715"><ele>239.5</ele><time>2026-04-25T07:40:05.552Z</time></trkpt><trkpt lat="43.530407" lon="13.4402679"><ele>241.0</ele><time>2026-04-25T07:40:06.551Z</time></trkpt><trkpt lat="43.5302858" lon="13.4403561"><ele>244.25</ele><time>2026-04-25T07:40:07.55Z</time></trkpt><trkpt lat="43.530157" lon="13.4404549"><ele>247.5</ele><time>2026-04-25T07:40:08.546Z</time></trkpt><trkpt lat="43.5300332" lon="13.440555"><ele>250.75</ele><time>2026-04-25T07:40:09.549Z</time></trkpt><trkpt lat="43.5299031" lon="13.44065"><ele>254.0</ele><time>2026-04-25T07:40:10.543Z</time></trkpt><trkpt lat="43.5297816" lon="13.4407459"><ele>254.0</ele><time>2026-04-25T07:40:11.543Z</time></trkpt><trkpt lat="43.5296654" lon="13.4408291"><ele>254.0</ele><time>2026-04-25T07:40:12.543Z</time></trkpt><trkpt lat="43.5295552" lon="13.4409149"><ele>254.0</ele><time>2026-04-25T07:40:13.549Z</time></trkpt><trkpt lat="43.5294478" lon="13.4409782"><ele>254.0</ele><time>2026-04-25T07:40:14.545Z</time></trkpt><trkpt lat="43.5293573" lon="13.4410486"><ele>255.6</ele><time>2026-04-25T07:40:15.544Z</time></trkpt><trkpt lat="43.5292607" lon="13.4411091"><ele>257.2</ele><time>2026-04-25T07:40:16.548Z</time></trkpt><trkpt lat="43.5291525" lon="13.4411806"><ele>258.79999999999995</ele><time>2026-04-25T07:40:17.538Z</time></trkpt><trkpt lat="43.5290578" lon="13.4412672"><ele>260.4</ele><time>2026-04-25T07:40:18.541Z</time></trkpt><trkpt lat="43.5289606" lon="13.4413265"><ele>262.0</ele><time>2026-04-25T07:40:19.54Z</time></trkpt><trkpt lat="43.5288461" lon="13.4413538"><ele>262.0</ele><time>2026-04-25T07:40:20.548Z</time></trkpt><trkpt lat="43.5287483" lon="13.4413437"><ele>262.0</ele><time>2026-04-25T07:40:21.541Z</time></trkpt><trkpt lat="43.5286848" lon="13.4414206"><ele>262.0</ele><time>2026-04-25T07:40:22.551Z</time></trkpt><trkpt lat="43.5286581" lon="13.441515"><ele>262.0</ele><time>2026-04-25T07:40:23.55Z</time></trkpt><trkpt lat="43.5286434" lon="13.4416139"><ele>262.0</ele><time>2026-04-25T07:40:24.554Z</time></trkpt><trkpt lat="43.5286556" lon="13.4417378"><ele>262.0</ele><time>2026-04-25T07:40:25.55Z</time></trkpt><trkpt lat="43.5286875" lon="13.4418796"><ele>262.0</ele><time>2026-04-25T07:40:26.552Z</time></trkpt><trkpt lat="43.5287344" lon="13.4420438"><ele>262.0</ele><time>2026-04-25T07:40:27.547Z</time></trkpt><trkpt lat="43.5287751" lon="13.4422044"><ele>262.0</ele><time>2026-04-25T07:40:28.553Z</time></trkpt><trkpt lat="43.5288117" lon="13.4423442"><ele>262.0</ele><time>2026-04-25T07:40:29.548Z</time></trkpt><trkpt lat="43.5288244" lon="13.4424851"><ele>261.25</ele><time>2026-04-25T07:40:30.541Z</time></trkpt><trkpt lat="43.5288371" lon="13.4426466"><ele>260.5</ele><time>2026-04-25T07:40:31.542Z</time></trkpt><trkpt lat="43.5288469" lon="13.4427973"><ele>259.75</ele><time>2026-04-25T07:40:32.546Z</time></trkpt><trkpt lat="43.5288333" lon="13.4429565"><ele>259.0</ele><time>2026-04-25T07:40:33.549Z</time></trkpt><trkpt lat="43.5287904" lon="13.4431436"><ele>259.0</ele><time>2026-04-25T07:40:34.548Z</time></trkpt><trkpt lat="43.5287469" lon="13.4432954"><ele>259.0</ele><time>2026-04-25T07:40:35.544Z</time></trkpt><trkpt lat="43.5287193" lon="13.4434631"><ele>259.0</ele><time>2026-04-25T07:40:36.555Z</time></trkpt><trkpt lat="43.528647" lon="13.4436115"><ele>259.0</ele><time>2026-04-25T07:40:37.555Z</time></trkpt><trkpt lat="43.5285796" lon="13.4436882"><ele>261.66666666666663</ele><time>2026-04-25T07:40:38.555Z</time></trkpt><trkpt lat="43.5285091" lon="13.4437192"><ele>264.3333333333333</ele><time>2026-04-25T07:40:39.55Z</time></trkpt><trkpt lat="43.5284398" lon="13.4437038"><ele>267.0</ele><time>2026-04-25T07:40:40.548Z</time></trkpt><trkpt lat="43.5283744" lon="13.4437295"><ele>269.6666666666667</ele><time>2026-04-25T07:40:44.558Z</time></trkpt><trkpt lat="43.528276" lon="13.4437402"><ele>272.33333333333337</ele><time>2026-04-25T07:40:46.565Z</time></trkpt><trkpt lat="43.5281922" lon="13.4437317"><ele>275.0</ele><time>2026-04-25T07:40:47.562Z</time></trkpt><trkpt lat="43.5280954" lon="13.4437128"><ele>275.0</ele><time>2026-04-25T07:40:48.564Z</time></trkpt><trkpt lat="43.5280043" lon="13.4436888"><ele>275.0</ele><time>2026-04-25T07:40:49.552Z</time></trkpt><trkpt lat="43.5279037" lon="13.4436536"><ele>275.0</ele><time>2026-04-25T07:40:50.566Z</time></trkpt><trkpt lat="43.5277914" lon="13.4436086"><ele>275.0</ele><time>2026-04-25T07:40:51.557Z</time></trkpt><trkpt lat="43.5276999" lon="13.443536"><ele>275.0</ele><time>2026-04-25T07:40:52.57Z</time></trkpt><trkpt lat="43.5275927" lon="13.443444"><ele>274.5</ele><time>2026-04-25T07:40:53.561Z</time></trkpt><trkpt lat="43.5274843" lon="13.4433631"><ele>274.0</ele><time>2026-04-25T07:40:54.564Z</time></trkpt><trkpt lat="43.527355" lon="13.4432653"><ele>273.5</ele><time>2026-04-25T07:40:55.559Z</time></trkpt><trkpt lat="43.5272365" lon="13.4431408"><ele>273.0</ele><time>2026-04-25T07:40:56.557Z</time></trkpt><trkpt lat="43.527118" lon="13.4430236"><ele>271.0</ele><time>2026-04-25T07:40:57.558Z</time></trkpt><trkpt lat="43.5270228" lon="13.4428815"><ele>269.0</ele><time>2026-04-25T07:40:58.558Z</time></trkpt><trkpt lat="43.5269368" lon="13.4427213"><ele>267.0</ele><time>2026-04-25T07:40:59.562Z</time></trkpt><trkpt lat="43.5268798" lon="13.4425577"><ele>265.0</ele><time>2026-04-25T07:41:00.562Z</time></trkpt><trkpt lat="43.5268174" lon="13.4423768"><ele>265.0</ele><time>2026-04-25T07:41:01.557Z</time></trkpt><trkpt lat="43.5267685" lon="13.4422025"><ele>265.0</ele><time>2026-04-25T07:41:02.561Z</time></trkpt><trkpt lat="43.5267333" lon="13.4420221"><ele>265.0</ele><time>2026-04-25T07:41:03.557Z</time></trkpt><trkpt lat="43.5266977" lon="13.4418292"><ele>265.0</ele><time>2026-04-25T07:41:04.561Z</time></trkpt><trkpt lat="43.5266742" lon="13.4416345"><ele>268.3333333333333</ele><time>2026-04-25T07:41:05.553Z</time></trkpt><trkpt lat="43.5266268" lon="13.4414026"><ele>271.6666666666667</ele><time>2026-04-25T07:41:06.552Z</time></trkpt><trkpt lat="43.5266032" lon="13.4412157"><ele>275.0</ele><time>2026-04-25T07:41:07.546Z</time></trkpt><trkpt lat="43.5266192" lon="13.4409851"><ele>276.75</ele><time>2026-04-25T07:41:08.548Z</time></trkpt><trkpt lat="43.5266298" lon="13.4407765"><ele>278.5</ele><time>2026-04-25T07:41:09.535Z</time></trkpt><trkpt lat="43.5266299" lon="13.4405754"><ele>280.25</ele><time>2026-04-25T07:41:10.545Z</time></trkpt><trkpt lat="43.5266391" lon="13.4403845"><ele>282.0</ele><time>2026-04-25T07:41:11.552Z</time></trkpt><trkpt lat="43.5266276" lon="13.4401878"><ele>282.75</ele><time>2026-04-25T07:41:12.557Z</time></trkpt><trkpt lat="43.5266092" lon="13.4400124"><ele>283.5</ele><time>2026-04-25T07:41:13.553Z</time></trkpt><trkpt lat="43.5266024" lon="13.4398453"><ele>284.25</ele><time>2026-04-25T07:41:14.556Z</time></trkpt><trkpt lat="43.5265986" lon="13.4396988"><ele>285.0</ele><time>2026-04-25T07:41:15.555Z</time></trkpt><trkpt lat="43.5265927" lon="13.439555"><ele>286.0</ele><time>2026-04-25T07:41:16.556Z</time></trkpt><trkpt lat="43.5265827" lon="13.439421"><ele>287.0</ele><time>2026-04-25T07:41:17.552Z</time></trkpt><trkpt lat="43.5265791" lon="13.4392668"><ele>288.0</ele><time>2026-04-25T07:41:18.558Z</time></trkpt><trkpt lat="43.5265699" lon="13.4391276"><ele>289.0</ele><time>2026-04-25T07:41:19.556Z</time></trkpt><trkpt lat="43.5265546" lon="13.4390005"><ele>290.0</ele><time>2026-04-25T07:41:20.546Z</time></trkpt><trkpt lat="43.5265373" lon="13.4389017"><ele>290.0</ele><time>2026-04-25T07:41:21.552Z</time></trkpt><trkpt lat="43.5265208" lon="13.4388152"><ele>290.0</ele><time>2026-04-25T07:41:22.564Z</time></trkpt><trkpt lat="43.5265005" lon="13.4387262"><ele>290.0</ele><time>2026-04-25T07:41:23.56Z</time></trkpt><trkpt lat="43.52648" lon="13.4385763"><ele>290.0</ele><time>2026-04-25T07:41:25.552Z</time></trkpt><trkpt lat="43.526422" lon="13.4385245"><ele>290.0</ele><time>2026-04-25T07:41:26.552Z</time></trkpt><trkpt lat="43.5263465" lon="13.4384716"><ele>290.0</ele><time>2026-04-25T07:41:27.551Z</time></trkpt><trkpt lat="43.5262441" lon="13.4384162"><ele>291.25</ele><time>2026-04-25T07:41:28.559Z</time></trkpt><trkpt lat="43.5261442" lon="13.4383647"><ele>292.5</ele><time>2026-04-25T07:41:29.563Z</time></trkpt><trkpt lat="43.5260313" lon="13.438329"><ele>293.75</ele><time>2026-04-25T07:41:30.552Z</time></trkpt><trkpt lat="43.525906" lon="13.4383009"><ele>295.0</ele><time>2026-04-25T07:41:31.567Z</time></trkpt><trkpt lat="43.5257754" lon="13.4382913"><ele>295.0</ele><time>2026-04-25T07:41:32.557Z</time></trkpt><trkpt lat="43.5256215" lon="13.438294"><ele>295.0</ele><time>2026-04-25T07:41:33.553Z</time></trkpt><trkpt lat="43.5254554" lon="13.4383082"><ele>295.0</ele><time>2026-04-25T07:41:34.556Z</time></trkpt><trkpt lat="43.5253041" lon="13.4383274"><ele>294.25</ele><time>2026-04-25T07:41:35.565Z</time></trkpt><trkpt lat="43.5251854" lon="13.4383419"><ele>293.5</ele><time>2026-04-25T07:41:36.564Z</time></trkpt><trkpt lat="43.5250588" lon="13.4383462"><ele>292.75</ele><time>2026-04-25T07:41:37.565Z</time></trkpt><trkpt lat="43.5249395" lon="13.4383462"><ele>292.0</ele><time>2026-04-25T07:41:38.559Z</time></trkpt><trkpt lat="43.5248308" lon="13.4383275"><ele>292.0</ele><time>2026-04-25T07:41:39.562Z</time></trkpt><trkpt lat="43.5247123" lon="13.4382539"><ele>292.0</ele><time>2026-04-25T07:41:40.56Z</time></trkpt><trkpt lat="43.5245879" lon="13.4381858"><ele>292.0</ele><time>2026-04-25T07:41:41.559Z</time></trkpt><trkpt lat="43.524465" lon="13.4380972"><ele>292.0</ele><time>2026-04-25T07:41:42.558Z</time></trkpt><trkpt lat="43.5243473" lon="13.4379972"><ele>294.25</ele><time>2026-04-25T07:41:43.56Z</time></trkpt><trkpt lat="43.5242319" lon="13.4379026"><ele>296.5</ele><time>2026-04-25T07:41:44.561Z</time></trkpt><trkpt lat="43.5241343" lon="13.4378098"><ele>298.75</ele><time>2026-04-25T07:41:45.568Z</time></trkpt><trkpt lat="43.5240391" lon="13.4377448"><ele>301.0</ele><time>2026-04-25T07:41:46.569Z</time></trkpt><trkpt lat="43.5239384" lon="13.4377061"><ele>301.0</ele><time>2026-04-25T07:41:47.556Z</time></trkpt><trkpt lat="43.5238382" lon="13.4376696"><ele>301.0</ele><time>2026-04-25T07:41:48.553Z</time></trkpt><trkpt lat="43.5237221" lon="13.4376549"><ele>301.0</ele><time>2026-04-25T07:41:49.558Z</time></trkpt><trkpt lat="43.5236115" lon="13.437648"><ele>301.0</ele><time>2026-04-25T07:41:50.559Z</time></trkpt><trkpt lat="43.523509" lon="13.4376212"><ele>301.0</ele><time>2026-04-25T07:41:51.564Z</time></trkpt><trkpt lat="43.5234228" lon="13.437568"><ele>299.0</ele><time>2026-04-25T07:41:52.565Z</time></trkpt><trkpt lat="43.523336" lon="13.4374886"><ele>297.0</ele><time>2026-04-25T07:41:53.564Z</time></trkpt><trkpt lat="43.5232468" lon="13.437395"><ele>295.0</ele><time>2026-04-25T07:41:54.562Z</time></trkpt><trkpt lat="43.5231585" lon="13.4372785"><ele>293.0</ele><time>2026-04-25T07:41:55.567Z</time></trkpt><trkpt lat="43.5230631" lon="13.4371404"><ele>292.33333333333337</ele><time>2026-04-25T07:41:56.566Z</time></trkpt><trkpt lat="43.5229607" lon="13.4369902"><ele>291.6666666666667</ele><time>2026-04-25T07:41:57.571Z</time></trkpt><trkpt lat="43.5228442" lon="13.4368168"><ele>291.0</ele><time>2026-04-25T07:41:58.574Z</time></trkpt><trkpt lat="43.5227311" lon="13.4366455"><ele>291.0</ele><time>2026-04-25T07:41:59.571Z</time></trkpt><trkpt lat="43.5226091" lon="13.4364766"><ele>291.0</ele><time>2026-04-25T07:42:00.571Z</time></trkpt><trkpt lat="43.5224959" lon="13.4363201"><ele>291.0</ele><time>2026-04-25T07:42:01.57Z</time></trkpt><trkpt lat="43.5223837" lon="13.4361591"><ele>292.0</ele><time>2026-04-25T07:42:02.569Z</time></trkpt><trkpt lat="43.5222866" lon="13.4359783"><ele>293.0</ele><time>2026-04-25T07:42:03.561Z</time></trkpt><trkpt lat="43.5221737" lon="13.4358164"><ele>294.0</ele><time>2026-04-25T07:42:04.566Z</time></trkpt><trkpt lat="43.5220635" lon="13.4356673"><ele>294.5</ele><time>2026-04-25T07:42:05.57Z</time></trkpt><trkpt lat="43.5219608" lon="13.4355144"><ele>295.0</ele><time>2026-04-25T07:42:06.574Z</time></trkpt><trkpt lat="43.5218597" lon="13.4353588"><ele>295.5</ele><time>2026-04-25T07:42:07.574Z</time></trkpt><trkpt lat="43.5217679" lon="13.4352361"><ele>296.0</ele><time>2026-04-25T07:42:08.572Z</time></trkpt><trkpt lat="43.5216657" lon="13.4350994"><ele>296.0</ele><time>2026-04-25T07:42:09.562Z</time></trkpt><trkpt lat="43.5215865" lon="13.4349993"><ele>296.0</ele><time>2026-04-25T07:42:10.569Z</time></trkpt><trkpt lat="43.5214961" lon="13.434915"><ele>296.0</ele><time>2026-04-25T07:42:11.572Z</time></trkpt><trkpt lat="43.5213809" lon="13.4348663"><ele>296.0</ele><time>2026-04-25T07:42:12.561Z</time></trkpt><trkpt lat="43.5212836" lon="13.4348325"><ele>296.0</ele><time>2026-04-25T07:42:13.561Z</time></trkpt><trkpt lat="43.5211617" lon="13.434842"><ele>296.0</ele><time>2026-04-25T07:42:14.56Z</time></trkpt><trkpt lat="43.5210271" lon="13.4348787"><ele>296.0</ele><time>2026-04-25T07:42:15.568Z</time></trkpt><trkpt lat="43.5209015" lon="13.4349159"><ele>296.0</ele><time>2026-04-25T07:42:16.569Z</time></trkpt><trkpt lat="43.5207788" lon="13.4349457"><ele>296.0</ele><time>2026-04-25T07:42:17.571Z</time></trkpt><trkpt lat="43.5206537" lon="13.4349791"><ele>296.0</ele><time>2026-04-25T07:42:18.563Z</time></trkpt><trkpt lat="43.5205469" lon="13.4350632"><ele>296.0</ele><time>2026-04-25T07:42:19.58Z</time></trkpt><trkpt lat="43.5204477" lon="13.4351864"><ele>296.0</ele><time>2026-04-25T07:42:20.562Z</time></trkpt><trkpt lat="43.5203581" lon="13.4353217"><ele>296.0</ele><time>2026-04-25T07:42:21.571Z</time></trkpt><trkpt lat="43.5202706" lon="13.4354786"><ele>294.5</ele><time>2026-04-25T07:42:22.569Z</time></trkpt><trkpt lat="43.5201937" lon="13.4356234"><ele>293.0</ele><time>2026-04-25T07:42:23.566Z</time></trkpt><trkpt lat="43.5200889" lon="13.4357633"><ele>291.5</ele><time>2026-04-25T07:42:24.577Z</time></trkpt><trkpt lat="43.5199724" lon="13.4358825"><ele>290.0</ele><time>2026-04-25T07:42:25.563Z</time></trkpt><trkpt lat="43.5199328" lon="13.4360146"><ele>290.0</ele><time>2026-04-25T07:42:26.553Z</time></trkpt><trkpt lat="43.5198552" lon="13.4361601"><ele>290.0</ele><time>2026-04-25T07:42:27.551Z</time></trkpt><trkpt lat="43.5197367" lon="13.4362425"><ele>290.0</ele><time>2026-04-25T07:42:28.56Z</time></trkpt><trkpt lat="43.5196378" lon="13.436246"><ele>290.0</ele><time>2026-04-25T07:42:29.551Z</time></trkpt><trkpt lat="43.519492" lon="13.4362714"><ele>290.5</ele><time>2026-04-25T07:42:30.554Z</time></trkpt><trkpt lat="43.5193502" lon="13.4362807"><ele>291.0</ele><time>2026-04-25T07:42:31.561Z</time></trkpt><trkpt lat="43.5191988" lon="13.4362902"><ele>291.5</ele><time>2026-04-25T07:42:32.555Z</time></trkpt><trkpt lat="43.5190937" lon="13.4362274"><ele>292.0</ele><time>2026-04-25T07:42:33.566Z</time></trkpt><trkpt lat="43.5189871" lon="13.4361598"><ele>292.0</ele><time>2026-04-25T07:42:34.557Z</time></trkpt><trkpt lat="43.5188699" lon="13.436093"><ele>292.0</ele><time>2026-04-25T07:42:35.551Z</time></trkpt><trkpt lat="43.5187618" lon="13.4360059"><ele>292.0</ele><time>2026-04-25T07:42:36.548Z</time></trkpt><trkpt lat="43.5186493" lon="13.4359064"><ele>292.0</ele><time>2026-04-25T07:42:37.561Z</time></trkpt><trkpt lat="43.5185117" lon="13.4358083"><ele>290.5</ele><time>2026-04-25T07:42:38.553Z</time></trkpt><trkpt lat="43.5183755" lon="13.4357141"><ele>289.0</ele><time>2026-04-25T07:42:39.555Z</time></trkpt><trkpt lat="43.5182509" lon="13.4356254"><ele>287.5</ele><time>2026-04-25T07:42:40.561Z</time></trkpt><trkpt lat="43.5181294" lon="13.4355653"><ele>286.0</ele><time>2026-04-25T07:42:41.559Z</time></trkpt><trkpt lat="43.5179981" lon="13.435544"><ele>286.5</ele><time>2026-04-25T07:42:42.561Z</time></trkpt><trkpt lat="43.5178614" lon="13.4355438"><ele>287.0</ele><time>2026-04-25T07:42:43.558Z</time></trkpt><trkpt lat="43.5177412" lon="13.4355528"><ele>287.5</ele><time>2026-04-25T07:42:44.562Z</time></trkpt><trkpt lat="43.5176357" lon="13.435565"><ele>288.0</ele><time>2026-04-25T07:42:45.553Z</time></trkpt><trkpt lat="43.5175311" lon="13.4355693"><ele>288.0</ele><time>2026-04-25T07:42:46.558Z</time></trkpt><trkpt lat="43.5174191" lon="13.4355356"><ele>288.0</ele><time>2026-04-25T07:42:47.556Z</time></trkpt><trkpt lat="43.5173171" lon="13.4354998"><ele>288.0</ele><time>2026-04-25T07:42:48.556Z</time></trkpt><trkpt lat="43.5171953" lon="13.4353992"><ele>288.0</ele><time>2026-04-25T07:42:49.558Z</time></trkpt><trkpt lat="43.5170766" lon="13.4352739"><ele>289.0</ele><time>2026-04-25T07:42:50.556Z</time></trkpt><trkpt lat="43.5169816" lon="13.4351471"><ele>290.0</ele><time>2026-04-25T07:42:51.563Z</time></trkpt><trkpt lat="43.5169029" lon="13.4350319"><ele>291.0</ele><time>2026-04-25T07:42:52.558Z</time></trkpt><trkpt lat="43.5168276" lon="13.4349782"><ele>292.0</ele><time>2026-04-25T07:42:53.558Z</time></trkpt><trkpt lat="43.5167527" lon="13.4349739"><ele>293.0</ele><time>2026-04-25T07:42:54.548Z</time></trkpt><trkpt lat="43.5166179" lon="13.4350649"><ele>293.0</ele><time>2026-04-25T07:42:56.562Z</time></trkpt><trkpt lat="43.5165603" lon="13.4351734"><ele>293.0</ele><time>2026-04-25T07:42:57.564Z</time></trkpt><trkpt lat="43.5164896" lon="13.4353213"><ele>293.0</ele><time>2026-04-25T07:42:58.563Z</time></trkpt><trkpt lat="43.5164102" lon="13.4354744"><ele>293.0</ele><time>2026-04-25T07:42:59.561Z</time></trkpt><trkpt lat="43.5163386" lon="13.4355937"><ele>293.5</ele><time>2026-04-25T07:43:00.557Z</time></trkpt><trkpt lat="43.5162524" lon="13.4356934"><ele>294.0</ele><time>2026-04-25T07:43:01.556Z</time></trkpt><trkpt lat="43.5161584" lon="13.4357621"><ele>294.5</ele><time>2026-04-25T07:43:02.56Z</time></trkpt><trkpt lat="43.516049" lon="13.435814"><ele>295.0</ele><time>2026-04-25T07:43:03.549Z</time></trkpt><trkpt lat="43.5159251" lon="13.4358674"><ele>296.25</ele><time>2026-04-25T07:43:04.557Z</time></trkpt><trkpt lat="43.5157844" lon="13.4359051"><ele>297.5</ele><time>2026-04-25T07:43:05.553Z</time></trkpt><trkpt lat="43.5156473" lon="13.4359566"><ele>298.75</ele><time>2026-04-25T07:43:06.553Z</time></trkpt><trkpt lat="43.5155074" lon="13.436007"><ele>300.0</ele><time>2026-04-25T07:43:07.549Z</time></trkpt><trkpt lat="43.5153705" lon="13.4360622"><ele>301.0</ele><time>2026-04-25T07:43:08.554Z</time></trkpt><trkpt lat="43.5152408" lon="13.436121"><ele>302.0</ele><time>2026-04-25T07:43:09.551Z</time></trkpt><trkpt lat="43.5151177" lon="13.4361644"><ele>303.0</ele><time>2026-04-25T07:43:10.559Z</time></trkpt><trkpt lat="43.5149858" lon="13.4361816"><ele>304.0</ele><time>2026-04-25T07:43:11.556Z</time></trkpt><trkpt lat="43.5148476" lon="13.4361942"><ele>304.0</ele><time>2026-04-25T07:43:12.563Z</time></trkpt><trkpt lat="43.514696" lon="13.4361875"><ele>304.0</ele><time>2026-04-25T07:43:13.552Z</time></trkpt><trkpt lat="43.5145558" lon="13.4361733"><ele>304.0</ele><time>2026-04-25T07:43:14.555Z</time></trkpt><trkpt lat="43.514419" lon="13.4361515"><ele>304.0</ele><time>2026-04-25T07:43:15.549Z</time></trkpt><trkpt lat="43.5142985" lon="13.4361315"><ele>305.66666666666663</ele><time>2026-04-25T07:43:16.555Z</time></trkpt><trkpt lat="43.5141574" lon="13.4361324"><ele>307.3333333333333</ele><time>2026-04-25T07:43:17.551Z</time></trkpt><trkpt lat="43.5140103" lon="13.4361607"><ele>309.0</ele><time>2026-04-25T07:43:18.555Z</time></trkpt><trkpt lat="43.5138494" lon="13.4361954"><ele>309.0</ele><time>2026-04-25T07:43:19.556Z</time></trkpt><trkpt lat="43.5137138" lon="13.4362366"><ele>309.0</ele><time>2026-04-25T07:43:20.554Z</time></trkpt><trkpt lat="43.5135995" lon="13.4362346"><ele>309.0</ele><time>2026-04-25T07:43:21.548Z</time></trkpt><trkpt lat="43.5134833" lon="13.4362737"><ele>309.0</ele><time>2026-04-25T07:43:22.547Z</time></trkpt><trkpt lat="43.5133671" lon="13.4363215"><ele>309.0</ele><time>2026-04-25T07:43:23.548Z</time></trkpt><trkpt lat="43.5132807" lon="13.4363772"><ele>309.0</ele><time>2026-04-25T07:43:24.545Z</time></trkpt><trkpt lat="43.513162" lon="13.4364572"><ele>309.0</ele><time>2026-04-25T07:43:25.548Z</time></trkpt><trkpt lat="43.5130451" lon="13.4365439"><ele>309.0</ele><time>2026-04-25T07:43:26.548Z</time></trkpt><trkpt lat="43.5129483" lon="13.4365916"><ele>308.2</ele><time>2026-04-25T07:43:27.551Z</time></trkpt><trkpt lat="43.5128375" lon="13.4366471"><ele>307.4</ele><time>2026-04-25T07:43:28.55Z</time></trkpt><trkpt lat="43.5127441" lon="13.4366881"><ele>306.6</ele><time>2026-04-25T07:43:29.54Z</time></trkpt><trkpt lat="43.5126639" lon="13.4367045"><ele>305.8</ele><time>2026-04-25T07:43:30.543Z</time></trkpt><trkpt lat="43.5125941" lon="13.4366991"><ele>305.0</ele><time>2026-04-25T07:43:31.537Z</time></trkpt><trkpt lat="43.5125158" lon="13.4366561"><ele>305.0</ele><time>2026-04-25T07:43:32.541Z</time></trkpt><trkpt lat="43.5124327" lon="13.436567"><ele>305.0</ele><time>2026-04-25T07:43:33.532Z</time></trkpt><trkpt lat="43.5123447" lon="13.4364634"><ele>305.0</ele><time>2026-04-25T07:43:34.55Z</time></trkpt><trkpt lat="43.512272" lon="13.4363095"><ele>305.0</ele><time>2026-04-25T07:43:35.544Z</time></trkpt><trkpt lat="43.5121896" lon="13.4361333"><ele>304.75</ele><time>2026-04-25T07:43:36.549Z</time></trkpt><trkpt lat="43.5120954" lon="13.4359854"><ele>304.5</ele><time>2026-04-25T07:43:37.542Z</time></trkpt><trkpt lat="43.5120124" lon="13.4358218"><ele>304.25</ele><time>2026-04-25T07:43:38.542Z</time></trkpt><trkpt lat="43.511967" lon="13.4356586"><ele>304.0</ele><time>2026-04-25T07:43:39.539Z</time></trkpt><trkpt lat="43.5119351" lon="13.4354593"><ele>300.25</ele><time>2026-04-25T07:43:40.539Z</time></trkpt><trkpt lat="43.5119063" lon="13.4352606"><ele>296.5</ele><time>2026-04-25T07:43:41.549Z</time></trkpt><trkpt lat="43.5118726" lon="13.4350628"><ele>292.75</ele><time>2026-04-25T07:43:42.547Z</time></trkpt><trkpt lat="43.5118653" lon="13.4348766"><ele>289.0</ele><time>2026-04-25T07:43:43.544Z</time></trkpt><trkpt lat="43.5118649" lon="13.4347182"><ele>289.25</ele><time>2026-04-25T07:43:44.545Z</time></trkpt><trkpt lat="43.5118488" lon="13.4345745"><ele>289.5</ele><time>2026-04-25T07:43:45.542Z</time></trkpt><trkpt lat="43.5118025" lon="13.4344322"><ele>289.75</ele><time>2026-04-25T07:43:46.553Z</time></trkpt><trkpt lat="43.5117431" lon="13.4342797"><ele>290.0</ele><time>2026-04-25T07:43:47.553Z</time></trkpt><trkpt lat="43.5116817" lon="13.4341385"><ele>290.0</ele><time>2026-04-25T07:43:48.551Z</time></trkpt><trkpt lat="43.5116185" lon="13.4339752"><ele>290.0</ele><time>2026-04-25T07:43:49.552Z</time></trkpt><trkpt lat="43.5115557" lon="13.4337936"><ele>290.0</ele><time>2026-04-25T07:43:50.548Z</time></trkpt><trkpt lat="43.5115052" lon="13.4335927"><ele>290.0</ele><time>2026-04-25T07:43:51.546Z</time></trkpt><trkpt lat="43.5114601" lon="13.4333921"><ele>290.0</ele><time>2026-04-25T07:43:52.55Z</time></trkpt><trkpt lat="43.5114351" lon="13.4332094"><ele>290.0</ele><time>2026-04-25T07:43:53.554Z</time></trkpt><trkpt lat="43.5114095" lon="13.4330299"><ele>290.0</ele><time>2026-04-25T07:43:54.545Z</time></trkpt><trkpt lat="43.5114199" lon="13.4328966"><ele>290.0</ele><time>2026-04-25T07:43:55.544Z</time></trkpt><trkpt lat="43.5113782" lon="13.4327803"><ele>290.0</ele><time>2026-04-25T07:43:56.547Z</time></trkpt><trkpt lat="43.5113352" lon="13.4326592"><ele>290.0</ele><time>2026-04-25T07:43:57.553Z</time></trkpt><trkpt lat="43.5113817" lon="13.4324572"><ele>290.0</ele><time>2026-04-25T07:43:58.548Z</time></trkpt><trkpt lat="43.5114722" lon="13.4322404"><ele>290.0</ele><time>2026-04-25T07:43:59.538Z</time></trkpt><trkpt lat="43.5114842" lon="13.4320584"><ele>288.8</ele><time>2026-04-25T07:44:00.543Z</time></trkpt><trkpt lat="43.5114783" lon="13.4318828"><ele>287.6</ele><time>2026-04-25T07:44:01.538Z</time></trkpt><trkpt lat="43.5114792" lon="13.4317509"><ele>286.4</ele><time>2026-04-25T07:44:02.543Z</time></trkpt><trkpt lat="43.5115277" lon="13.4316118"><ele>285.2</ele><time>2026-04-25T07:44:03.546Z</time></trkpt><trkpt lat="43.5115801" lon="13.4314877"><ele>284.0</ele><time>2026-04-25T07:44:04.549Z</time></trkpt><trkpt lat="43.5116757" lon="13.4313618"><ele>281.5</ele><time>2026-04-25T07:44:05.544Z</time></trkpt><trkpt lat="43.5117667" lon="13.4312205"><ele>279.0</ele><time>2026-04-25T07:44:06.539Z</time></trkpt><trkpt lat="43.511858" lon="13.4310975"><ele>276.5</ele><time>2026-04-25T07:44:07.55Z</time></trkpt><trkpt lat="43.5119374" lon="13.4309649"><ele>274.0</ele><time>2026-04-25T07:44:08.546Z</time></trkpt><trkpt lat="43.5120123" lon="13.4308251"><ele>273.5</ele><time>2026-04-25T07:44:09.548Z</time></trkpt><trkpt lat="43.5120878" lon="13.4306868"><ele>273.0</ele><time>2026-04-25T07:44:10.537Z</time></trkpt><trkpt lat="43.5121579" lon="13.4305569"><ele>272.5</ele><time>2026-04-25T07:44:11.547Z</time></trkpt><trkpt lat="43.5122155" lon="13.430413"><ele>272.0</ele><time>2026-04-25T07:44:12.546Z</time></trkpt><trkpt lat="43.5122837" lon="13.4302234"><ele>272.0</ele><time>2026-04-25T07:44:13.547Z</time></trkpt><trkpt lat="43.5123544" lon="13.4300593"><ele>272.0</ele><time>2026-04-25T07:44:14.541Z</time></trkpt><trkpt lat="43.5123522" lon="13.4298949"><ele>272.0</ele><time>2026-04-25T07:44:15.544Z</time></trkpt><trkpt lat="43.5123435" lon="13.4297528"><ele>272.0</ele><time>2026-04-25T07:44:16.549Z</time></trkpt><trkpt lat="43.5123764" lon="13.4296226"><ele>270.1666666666667</ele><time>2026-04-25T07:44:17.56Z</time></trkpt><trkpt lat="43.5123814" lon="13.4295007"><ele>268.33333333333337</ele><time>2026-04-25T07:44:18.555Z</time></trkpt><trkpt lat="43.5123726" lon="13.4294083"><ele>266.5</ele><time>2026-04-25T07:44:19.554Z</time></trkpt><trkpt lat="43.5123133" lon="13.4293165"><ele>264.6666666666667</ele><time>2026-04-25T07:44:21.56Z</time></trkpt><trkpt lat="43.5121999" lon="13.4293837"><ele>262.8333333333333</ele><time>2026-04-25T07:44:23.547Z</time></trkpt><trkpt lat="43.5121453" lon="13.4294525"><ele>261.0</ele><time>2026-04-25T07:44:24.543Z</time></trkpt><trkpt lat="43.5120792" lon="13.4295584"><ele>260.8</ele><time>2026-04-25T07:44:25.548Z</time></trkpt><trkpt lat="43.5120119" lon="13.4296625"><ele>260.6</ele><time>2026-04-25T07:44:26.558Z</time></trkpt><trkpt lat="43.5119483" lon="13.4297259"><ele>260.4</ele><time>2026-04-25T07:44:27.556Z</time></trkpt><trkpt lat="43.5118655" lon="13.429751"><ele>260.2</ele><time>2026-04-25T07:44:28.566Z</time></trkpt><trkpt lat="43.5117741" lon="13.4297304"><ele>260.0</ele><time>2026-04-25T07:44:29.558Z</time></trkpt><trkpt lat="43.5116413" lon="13.429625"><ele>257.25</ele><time>2026-04-25T07:44:31.539Z</time></trkpt><trkpt lat="43.5115509" lon="13.4295082"><ele>254.5</ele><time>2026-04-25T07:44:32.541Z</time></trkpt><trkpt lat="43.5114692" lon="13.4294067"><ele>251.75</ele><time>2026-04-25T07:44:33.545Z</time></trkpt><trkpt lat="43.5114045" lon="13.4292741"><ele>249.0</ele><time>2026-04-25T07:44:34.562Z</time></trkpt><trkpt lat="43.5113326" lon="13.4291409"><ele>249.0</ele><time>2026-04-25T07:44:35.564Z</time></trkpt><trkpt lat="43.5112632" lon="13.4290359"><ele>248.99999999999997</ele><time>2026-04-25T07:44:36.549Z</time></trkpt><trkpt lat="43.5111878" lon="13.4289469"><ele>248.99999999999997</ele><time>2026-04-25T07:44:37.558Z</time></trkpt><trkpt lat="43.5110991" lon="13.4288858"><ele>249.0</ele><time>2026-04-25T07:44:38.553Z</time></trkpt><trkpt lat="43.5110069" lon="13.4288596"><ele>249.0</ele><time>2026-04-25T07:44:39.554Z</time></trkpt><trkpt lat="43.5109109" lon="13.4288827"><ele>248.25</ele><time>2026-04-25T07:44:40.552Z</time></trkpt><trkpt lat="43.5108" lon="13.4289194"><ele>247.5</ele><time>2026-04-25T07:44:41.561Z</time></trkpt><trkpt lat="43.5106767" lon="13.4289709"><ele>246.75</ele><time>2026-04-25T07:44:42.563Z</time></trkpt><trkpt lat="43.5105564" lon="13.4289928"><ele>246.0</ele><time>2026-04-25T07:44:43.561Z</time></trkpt><trkpt lat="43.5104528" lon="13.4290119"><ele>244.16666666666666</ele><time>2026-04-25T07:44:44.558Z</time></trkpt><trkpt lat="43.5103627" lon="13.4290013"><ele>242.33333333333331</ele><time>2026-04-25T07:44:45.554Z</time></trkpt><trkpt lat="43.5102776" lon="13.428971"><ele>240.5</ele><time>2026-04-25T07:44:46.562Z</time></trkpt><trkpt lat="43.5101975" lon="13.4289285"><ele>238.66666666666666</ele><time>2026-04-25T07:44:47.562Z</time></trkpt><trkpt lat="43.5101237" lon="13.4288737"><ele>236.83333333333331</ele><time>2026-04-25T07:44:48.571Z</time></trkpt><trkpt lat="43.5100571" lon="13.4288093"><ele>235.0</ele><time>2026-04-25T07:44:49.557Z</time></trkpt><trkpt lat="43.5099828" lon="13.428717"><ele>233.4</ele><time>2026-04-25T07:44:50.561Z</time></trkpt><trkpt lat="43.5099008" lon="13.4286271"><ele>231.8</ele><time>2026-04-25T07:44:51.569Z</time></trkpt><trkpt lat="43.5098076" lon="13.4285368"><ele>230.2</ele><time>2026-04-25T07:44:52.558Z</time></trkpt><trkpt lat="43.5097204" lon="13.4284548"><ele>228.6</ele><time>2026-04-25T07:44:53.558Z</time></trkpt><trkpt lat="43.5096405" lon="13.4283862"><ele>227.0</ele><time>2026-04-25T07:44:54.566Z</time></trkpt><trkpt lat="43.5095736" lon="13.4283194"><ele>225.83333333333334</ele><time>2026-04-25T07:44:55.568Z</time></trkpt><trkpt lat="43.5095229" lon="13.428257"><ele>224.66666666666669</ele><time>2026-04-25T07:44:56.574Z</time></trkpt><trkpt lat="43.5094734" lon="13.428153"><ele>223.5</ele><time>2026-04-25T07:44:58.582Z</time></trkpt><trkpt lat="43.5094691" lon="13.428059"><ele>222.33333333333331</ele><time>2026-04-25T07:45:00.571Z</time></trkpt><trkpt lat="43.509496" lon="13.427856"><ele>221.16666666666666</ele><time>2026-04-25T07:45:02.557Z</time></trkpt><trkpt lat="43.5095291" lon="13.4277771"><ele>220.0</ele><time>2026-04-25T07:45:03.572Z</time></trkpt><trkpt lat="43.5095827" lon="13.4276342"><ele>219.6</ele><time>2026-04-25T07:45:05.561Z</time></trkpt><trkpt lat="43.5095049" lon="13.427506"><ele>219.2</ele><time>2026-04-25T07:45:07.559Z</time></trkpt><trkpt lat="43.5094254" lon="13.4274198"><ele>218.8</ele><time>2026-04-25T07:45:08.553Z</time></trkpt><trkpt lat="43.5093488" lon="13.4273129"><ele>218.4</ele><time>2026-04-25T07:45:09.553Z</time></trkpt><trkpt lat="43.5092785" lon="13.4271875"><ele>218.0</ele><time>2026-04-25T07:45:10.559Z</time></trkpt><trkpt lat="43.5092078" lon="13.4270386"><ele>217.5</ele><time>2026-04-25T07:45:11.562Z</time></trkpt><trkpt lat="43.5091377" lon="13.4268841"><ele>217.0</ele><time>2026-04-25T07:45:12.561Z</time></trkpt><trkpt lat="43.5090725" lon="13.4267382"><ele>216.5</ele><time>2026-04-25T07:45:13.566Z</time></trkpt><trkpt lat="43.5089987" lon="13.4265815"><ele>216.0</ele><time>2026-04-25T07:45:14.565Z</time></trkpt><trkpt lat="43.5089338" lon="13.4264366"><ele>215.25</ele><time>2026-04-25T07:45:15.567Z</time></trkpt><trkpt lat="43.5088667" lon="13.4262961"><ele>214.5</ele><time>2026-04-25T07:45:16.562Z</time></trkpt><trkpt lat="43.5088081" lon="13.4261485"><ele>213.75</ele><time>2026-04-25T07:45:17.565Z</time></trkpt><trkpt lat="43.5087332" lon="13.4260324"><ele>213.0</ele><time>2026-04-25T07:45:18.555Z</time></trkpt><trkpt lat="43.5086885" lon="13.4259193"><ele>212.75</ele><time>2026-04-25T07:45:19.553Z</time></trkpt><trkpt lat="43.5086522" lon="13.4258214"><ele>212.5</ele><time>2026-04-25T07:45:20.544Z</time></trkpt><trkpt lat="43.5085575" lon="13.4257631"><ele>212.25</ele><time>2026-04-25T07:45:21.541Z</time></trkpt><trkpt lat="43.5084236" lon="13.4257094"><ele>212.0</ele><time>2026-04-25T07:45:22.538Z</time></trkpt><trkpt lat="43.5082505" lon="13.4256531"><ele>212.0</ele><time>2026-04-25T07:45:23.538Z</time></trkpt><trkpt lat="43.5080884" lon="13.425605"><ele>212.0</ele><time>2026-04-25T07:45:24.54Z</time></trkpt><trkpt lat="43.5079283" lon="13.4255807"><ele>212.0</ele><time>2026-04-25T07:45:25.537Z</time></trkpt><trkpt lat="43.5077778" lon="13.4255383"><ele>211.33333333333334</ele><time>2026-04-25T07:45:26.544Z</time></trkpt><trkpt lat="43.5076276" lon="13.4254691"><ele>210.66666666666669</ele><time>2026-04-25T07:45:27.549Z</time></trkpt><trkpt lat="43.507493" lon="13.4253458"><ele>210.0</ele><time>2026-04-25T07:45:28.555Z</time></trkpt><trkpt lat="43.50736" lon="13.4252406"><ele>210.0</ele><time>2026-04-25T07:45:29.549Z</time></trkpt><trkpt lat="43.5072283" lon="13.4251482"><ele>210.0</ele><time>2026-04-25T07:45:30.548Z</time></trkpt><trkpt lat="43.5071043" lon="13.4250159"><ele>210.0</ele><time>2026-04-25T07:45:31.548Z</time></trkpt><trkpt lat="43.5070053" lon="13.4249061"><ele>210.0</ele><time>2026-04-25T07:45:32.546Z</time></trkpt><trkpt lat="43.5069061" lon="13.4247949"><ele>208.75</ele><time>2026-04-25T07:45:33.551Z</time></trkpt><trkpt lat="43.5068103" lon="13.4246626"><ele>207.5</ele><time>2026-04-25T07:45:34.547Z</time></trkpt><trkpt lat="43.5067115" lon="13.424562"><ele>206.25</ele><time>2026-04-25T07:45:35.554Z</time></trkpt><trkpt lat="43.5066294" lon="13.4244486"><ele>205.0</ele><time>2026-04-25T07:45:36.546Z</time></trkpt><trkpt lat="43.5065398" lon="13.4243299"><ele>205.0</ele><time>2026-04-25T07:45:37.557Z</time></trkpt><trkpt lat="43.5064332" lon="13.4242633"><ele>205.0</ele><time>2026-04-25T07:45:38.546Z</time></trkpt><trkpt lat="43.506325" lon="13.4241696"><ele>205.0</ele><time>2026-04-25T07:45:39.552Z</time></trkpt><trkpt lat="43.5062305" lon="13.4240787"><ele>205.0</ele><time>2026-04-25T07:45:40.554Z</time></trkpt><trkpt lat="43.5061382" lon="13.4239904"><ele>202.0</ele><time>2026-04-25T07:45:41.546Z</time></trkpt><trkpt lat="43.5060173" lon="13.4239103"><ele>199.0</ele><time>2026-04-25T07:45:42.56Z</time></trkpt><trkpt lat="43.5058723" lon="13.423824"><ele>196.0</ele><time>2026-04-25T07:45:43.557Z</time></trkpt><trkpt lat="43.5057312" lon="13.4238075"><ele>193.0</ele><time>2026-04-25T07:45:44.553Z</time></trkpt><trkpt lat="43.5055874" lon="13.4237551"><ele>193.0</ele><time>2026-04-25T07:45:45.547Z</time></trkpt><trkpt lat="43.5054502" lon="13.4236809"><ele>193.0</ele><time>2026-04-25T07:45:46.558Z</time></trkpt><trkpt lat="43.505302" lon="13.4235882"><ele>193.0</ele><time>2026-04-25T07:45:47.557Z</time></trkpt><trkpt lat="43.5051602" lon="13.4235071"><ele>191.0</ele><time>2026-04-25T07:45:48.55Z</time></trkpt><trkpt lat="43.5050129" lon="13.4234495"><ele>189.0</ele><time>2026-04-25T07:45:49.561Z</time></trkpt><trkpt lat="43.5048691" lon="13.4233474"><ele>187.0</ele><time>2026-04-25T07:45:50.553Z</time></trkpt><trkpt lat="43.5047281" lon="13.4232526"><ele>187.0</ele><time>2026-04-25T07:45:51.555Z</time></trkpt><trkpt lat="43.5046011" lon="13.4231378"><ele>187.0</ele><time>2026-04-25T07:45:52.545Z</time></trkpt><trkpt lat="43.5044623" lon="13.4230181"><ele>187.0</ele><time>2026-04-25T07:45:53.557Z</time></trkpt><trkpt lat="43.5043207" lon="13.4228936"><ele>186.0</ele><time>2026-04-25T07:45:54.543Z</time></trkpt><trkpt lat="43.5041851" lon="13.4227429"><ele>185.0</ele><time>2026-04-25T07:45:55.551Z</time></trkpt><trkpt lat="43.5040754" lon="13.4226225"><ele>184.0</ele><time>2026-04-25T07:45:56.552Z</time></trkpt><trkpt lat="43.5039417" lon="13.4224917"><ele>184.0</ele><time>2026-04-25T07:45:57.554Z</time></trkpt><trkpt lat="43.5038062" lon="13.4223784"><ele>184.0</ele><time>2026-04-25T07:45:58.551Z</time></trkpt><trkpt lat="43.50367" lon="13.4222509"><ele>184.0</ele><time>2026-04-25T07:45:59.559Z</time></trkpt><trkpt lat="43.5035425" lon="13.4221432"><ele>184.25</ele><time>2026-04-25T07:46:00.555Z</time></trkpt><trkpt lat="43.503423" lon="13.422024"><ele>184.5</ele><time>2026-04-25T07:46:01.555Z</time></trkpt><trkpt lat="43.5033123" lon="13.4219016"><ele>184.75</ele><time>2026-04-25T07:46:02.552Z</time></trkpt><trkpt lat="43.5031935" lon="13.4217662"><ele>185.0</ele><time>2026-04-25T07:46:03.554Z</time></trkpt><trkpt lat="43.503072" lon="13.4216389"><ele>185.0</ele><time>2026-04-25T07:46:04.555Z</time></trkpt><trkpt lat="43.5029401" lon="13.4215327"><ele>185.0</ele><time>2026-04-25T07:46:05.564Z</time></trkpt><trkpt lat="43.5028152" lon="13.4214031"><ele>185.0</ele><time>2026-04-25T07:46:06.556Z</time></trkpt><trkpt lat="43.5026815" lon="13.4213027"><ele>184.0</ele><time>2026-04-25T07:46:07.559Z</time></trkpt><trkpt lat="43.5025535" lon="13.4211974"><ele>183.0</ele><time>2026-04-25T07:46:08.558Z</time></trkpt><trkpt lat="43.5024224" lon="13.4211223"><ele>182.0</ele><time>2026-04-25T07:46:09.551Z</time></trkpt><trkpt lat="43.5022922" lon="13.4210336"><ele>181.0</ele><time>2026-04-25T07:46:10.562Z</time></trkpt><trkpt lat="43.5021536" lon="13.4209437"><ele>178.66666666666669</ele><time>2026-04-25T07:46:11.558Z</time></trkpt><trkpt lat="43.502015" lon="13.4208537"><ele>176.33333333333334</ele><time>2026-04-25T07:46:12.559Z</time></trkpt><trkpt lat="43.5018688" lon="13.4207581"><ele>174.0</ele><time>2026-04-25T07:46:13.552Z</time></trkpt><trkpt lat="43.5017263" lon="13.4206649"><ele>174.0</ele><time>2026-04-25T07:46:14.551Z</time></trkpt><trkpt lat="43.5015979" lon="13.4205655"><ele>174.0</ele><time>2026-04-25T07:46:15.549Z</time></trkpt><trkpt lat="43.501459" lon="13.4204632"><ele>174.0</ele><time>2026-04-25T07:46:16.561Z</time></trkpt><trkpt lat="43.5013163" lon="13.4203438"><ele>172.33333333333334</ele><time>2026-04-25T07:46:17.554Z</time></trkpt><trkpt lat="43.5011863" lon="13.4202131"><ele>170.66666666666669</ele><time>2026-04-25T07:46:18.562Z</time></trkpt><trkpt lat="43.5010529" lon="13.4200787"><ele>169.0</ele><time>2026-04-25T07:46:19.56Z</time></trkpt><trkpt lat="43.5009191" lon="13.41994"><ele>169.0</ele><time>2026-04-25T07:46:20.565Z</time></trkpt><trkpt lat="43.5007849" lon="13.4197928"><ele>169.0</ele><time>2026-04-25T07:46:21.56Z</time></trkpt><trkpt lat="43.5006407" lon="13.4196466"><ele>169.0</ele><time>2026-04-25T07:46:22.567Z</time></trkpt><trkpt lat="43.5005042" lon="13.4194968"><ele>168.66666666666669</ele><time>2026-04-25T07:46:23.558Z</time></trkpt><trkpt lat="43.5003593" lon="13.4193574"><ele>168.33333333333334</ele><time>2026-04-25T07:46:24.569Z</time></trkpt><trkpt lat="43.5002249" lon="13.4192136"><ele>168.0</ele><time>2026-04-25T07:46:25.558Z</time></trkpt><trkpt lat="43.5000851" lon="13.4190677"><ele>168.0</ele><time>2026-04-25T07:46:26.568Z</time></trkpt><trkpt lat="43.4999499" lon="13.4189286"><ele>168.0</ele><time>2026-04-25T07:46:27.557Z</time></trkpt><trkpt lat="43.4998229" lon="13.418786"><ele>168.0</ele><time>2026-04-25T07:46:28.561Z</time></trkpt><trkpt lat="43.4996687" lon="13.4186589"><ele>169.33333333333334</ele><time>2026-04-25T07:46:29.563Z</time></trkpt><trkpt lat="43.4995166" lon="13.4185623"><ele>170.66666666666669</ele><time>2026-04-25T07:46:30.541Z</time></trkpt><trkpt lat="43.4993684" lon="13.4184412"><ele>172.0</ele><time>2026-04-25T07:46:31.552Z</time></trkpt><trkpt lat="43.4991917" lon="13.4183857"><ele>172.0</ele><time>2026-04-25T07:46:32.546Z</time></trkpt><trkpt lat="43.4990138" lon="13.4183395"><ele>172.0</ele><time>2026-04-25T07:46:33.554Z</time></trkpt><trkpt lat="43.498869" lon="13.4183177"><ele>172.0</ele><time>2026-04-25T07:46:34.545Z</time></trkpt><trkpt lat="43.4987169" lon="13.4182853"><ele>171.66666666666669</ele><time>2026-04-25T07:46:35.552Z</time></trkpt><trkpt lat="43.4985338" lon="13.4182373"><ele>171.33333333333334</ele><time>2026-04-25T07:46:36.553Z</time></trkpt><trkpt lat="43.4983582" lon="13.4181679"><ele>171.0</ele><time>2026-04-25T07:46:37.55Z</time></trkpt><trkpt lat="43.4981912" lon="13.4181124"><ele>171.0</ele><time>2026-04-25T07:46:38.554Z</time></trkpt><trkpt lat="43.498017" lon="13.4180445"><ele>171.0</ele><time>2026-04-25T07:46:39.542Z</time></trkpt><trkpt lat="43.4978532" lon="13.4179705"><ele>171.0</ele><time>2026-04-25T07:46:40.538Z</time></trkpt><trkpt lat="43.4976977" lon="13.4178998"><ele>171.0</ele><time>2026-04-25T07:46:41.542Z</time></trkpt><trkpt lat="43.4975285" lon="13.4177999"><ele>171.0</ele><time>2026-04-25T07:46:42.547Z</time></trkpt><trkpt lat="43.4973836" lon="13.4177178"><ele>171.0</ele><time>2026-04-25T07:46:43.55Z</time></trkpt><trkpt lat="43.4972038" lon="13.4176707"><ele>172.0</ele><time>2026-04-25T07:46:44.555Z</time></trkpt><trkpt lat="43.497029" lon="13.4176238"><ele>173.0</ele><time>2026-04-25T07:46:45.555Z</time></trkpt><trkpt lat="43.4968546" lon="13.4175505"><ele>174.0</ele><time>2026-04-25T07:46:46.562Z</time></trkpt><trkpt lat="43.4966865" lon="13.4174884"><ele>174.0</ele><time>2026-04-25T07:46:47.567Z</time></trkpt><trkpt lat="43.4965427" lon="13.4174153"><ele>174.0</ele><time>2026-04-25T07:46:48.57Z</time></trkpt><trkpt lat="43.4964075" lon="13.4173369"><ele>174.0</ele><time>2026-04-25T07:46:49.547Z</time></trkpt><trkpt lat="43.4962708" lon="13.4172488"><ele>176.0</ele><time>2026-04-25T07:46:50.55Z</time></trkpt><trkpt lat="43.4961449" lon="13.4171358"><ele>178.0</ele><time>2026-04-25T07:46:51.555Z</time></trkpt><trkpt lat="43.4960211" lon="13.4170304"><ele>180.0</ele><time>2026-04-25T07:46:52.56Z</time></trkpt><trkpt lat="43.4958923" lon="13.4169661"><ele>182.0</ele><time>2026-04-25T07:46:53.56Z</time></trkpt><trkpt lat="43.4957516" lon="13.4168737"><ele>182.0</ele><time>2026-04-25T07:46:54.549Z</time></trkpt><trkpt lat="43.4956184" lon="13.4167803"><ele>182.0</ele><time>2026-04-25T07:46:55.554Z</time></trkpt><trkpt lat="43.4955121" lon="13.4166839"><ele>182.0</ele><time>2026-04-25T07:46:56.551Z</time></trkpt><trkpt lat="43.4953903" lon="13.416571"><ele>182.0</ele><time>2026-04-25T07:46:57.55Z</time></trkpt><trkpt lat="43.4952772" lon="13.4164773"><ele>180.75</ele><time>2026-04-25T07:46:58.557Z</time></trkpt><trkpt lat="43.4951924" lon="13.4163432"><ele>179.5</ele><time>2026-04-25T07:46:59.55Z</time></trkpt><trkpt lat="43.4951118" lon="13.4162604"><ele>178.25</ele><time>2026-04-25T07:47:00.552Z</time></trkpt><trkpt lat="43.4950102" lon="13.4161746"><ele>177.0</ele><time>2026-04-25T07:47:01.548Z</time></trkpt><trkpt lat="43.4948857" lon="13.4160471"><ele>177.0</ele><time>2026-04-25T07:47:02.553Z</time></trkpt><trkpt lat="43.4947745" lon="13.4159689"><ele>177.0</ele><time>2026-04-25T07:47:03.554Z</time></trkpt><trkpt lat="43.494665" lon="13.4159618"><ele>177.0</ele><time>2026-04-25T07:47:04.56Z</time></trkpt><trkpt lat="43.4945318" lon="13.4159834"><ele>177.0</ele><time>2026-04-25T07:47:05.545Z</time></trkpt><trkpt lat="43.4943869" lon="13.4159708"><ele>176.66666666666666</ele><time>2026-04-25T07:47:06.548Z</time></trkpt><trkpt lat="43.4942435" lon="13.4159764"><ele>176.33333333333331</ele><time>2026-04-25T07:47:07.546Z</time></trkpt><trkpt lat="43.4940926" lon="13.4159899"><ele>176.0</ele><time>2026-04-25T07:47:08.547Z</time></trkpt><trkpt lat="43.4939191" lon="13.4160149"><ele>176.0</ele><time>2026-04-25T07:47:09.546Z</time></trkpt><trkpt lat="43.4937835" lon="13.4160412"><ele>176.0</ele><time>2026-04-25T07:47:10.554Z</time></trkpt><trkpt lat="43.4935935" lon="13.4160075"><ele>176.0</ele><time>2026-04-25T07:47:11.551Z</time></trkpt><trkpt lat="43.4934149" lon="13.4160012"><ele>176.33333333333331</ele><time>2026-04-25T07:47:12.547Z</time></trkpt><trkpt lat="43.4932424" lon="13.4160175"><ele>176.66666666666666</ele><time>2026-04-25T07:47:13.542Z</time></trkpt><trkpt lat="43.493068" lon="13.4160147"><ele>177.0</ele><time>2026-04-25T07:47:14.544Z</time></trkpt><trkpt lat="43.4929041" lon="13.4159758"><ele>176.25</ele><time>2026-04-25T07:47:15.55Z</time></trkpt><trkpt lat="43.4927701" lon="13.4159213"><ele>175.5</ele><time>2026-04-25T07:47:16.54Z</time></trkpt><trkpt lat="43.492642" lon="13.4159048"><ele>174.75</ele><time>2026-04-25T07:47:17.547Z</time></trkpt><trkpt lat="43.4925021" lon="13.415968"><ele>174.0</ele><time>2026-04-25T07:47:18.543Z</time></trkpt><trkpt lat="43.4923921" lon="13.4160022"><ele>174.0</ele><time>2026-04-25T07:47:19.544Z</time></trkpt><trkpt lat="43.4922655" lon="13.4160282"><ele>174.0</ele><time>2026-04-25T07:47:20.537Z</time></trkpt><trkpt lat="43.4921075" lon="13.416019"><ele>174.0</ele><time>2026-04-25T07:47:21.542Z</time></trkpt><trkpt lat="43.4919633" lon="13.4159618"><ele>174.0</ele><time>2026-04-25T07:47:22.535Z</time></trkpt><trkpt lat="43.4918216" lon="13.4159578"><ele>173.0</ele><time>2026-04-25T07:47:23.539Z</time></trkpt><trkpt lat="43.4917037" lon="13.4159655"><ele>172.0</ele><time>2026-04-25T07:47:24.535Z</time></trkpt><trkpt lat="43.4915907" lon="13.4159805"><ele>171.0</ele><time>2026-04-25T07:47:25.537Z</time></trkpt><trkpt lat="43.491458" lon="13.4159935"><ele>170.0</ele><time>2026-04-25T07:47:26.544Z</time></trkpt><trkpt lat="43.491328" lon="13.4160182"><ele>167.25</ele><time>2026-04-25T07:47:27.544Z</time></trkpt><trkpt lat="43.4911816" lon="13.4160391"><ele>164.5</ele><time>2026-04-25T07:47:28.552Z</time></trkpt><trkpt lat="43.4910483" lon="13.4160327"><ele>161.75</ele><time>2026-04-25T07:47:29.539Z</time></trkpt><trkpt lat="43.4909667" lon="13.4160209"><ele>159.0</ele><time>2026-04-25T07:47:30.55Z</time></trkpt><trkpt lat="43.4908455" lon="13.4160584"><ele>159.0</ele><time>2026-04-25T07:47:31.542Z</time></trkpt><trkpt lat="43.4907116" lon="13.4160921"><ele>159.0</ele><time>2026-04-25T07:47:32.55Z</time></trkpt><trkpt lat="43.4905902" lon="13.4161294"><ele>159.0</ele><time>2026-04-25T07:47:33.55Z</time></trkpt><trkpt lat="43.4904903" lon="13.4161561"><ele>159.0</ele><time>2026-04-25T07:47:34.553Z</time></trkpt><trkpt lat="43.4903955" lon="13.416173"><ele>156.5</ele><time>2026-04-25T07:47:35.554Z</time></trkpt><trkpt lat="43.4903194" lon="13.4161425"><ele>154.0</ele><time>2026-04-25T07:47:36.546Z</time></trkpt><trkpt lat="43.4902515" lon="13.4160969"><ele>151.5</ele><time>2026-04-25T07:47:37.543Z</time></trkpt><trkpt lat="43.4901757" lon="13.4160402"><ele>149.0</ele><time>2026-04-25T07:47:38.538Z</time></trkpt><trkpt lat="43.4901063" lon="13.4159876"><ele>146.5</ele><time>2026-04-25T07:47:39.545Z</time></trkpt><trkpt lat="43.4900207" lon="13.4159732"><ele>144.0</ele><time>2026-04-25T07:47:40.541Z</time></trkpt><trkpt lat="43.489921" lon="13.4160074"><ele>144.0</ele><time>2026-04-25T07:47:41.552Z</time></trkpt><trkpt lat="43.4898259" lon="13.41605"><ele>144.0</ele><time>2026-04-25T07:47:42.542Z</time></trkpt><trkpt lat="43.4897262" lon="13.4160943"><ele>144.0</ele><time>2026-04-25T07:47:43.553Z</time></trkpt><trkpt lat="43.4896145" lon="13.4161506"><ele>144.0</ele><time>2026-04-25T07:47:44.543Z</time></trkpt><trkpt lat="43.4894961" lon="13.4162083"><ele>144.0</ele><time>2026-04-25T07:47:45.546Z</time></trkpt><trkpt lat="43.489369" lon="13.4162482"><ele>140.0</ele><time>2026-04-25T07:47:46.539Z</time></trkpt><trkpt lat="43.4892351" lon="13.4162637"><ele>136.0</ele><time>2026-04-25T07:47:47.542Z</time></trkpt><trkpt lat="43.4891106" lon="13.4162756"><ele>132.0</ele><time>2026-04-25T07:47:48.539Z</time></trkpt><trkpt lat="43.4889904" lon="13.4162857"><ele>128.0</ele><time>2026-04-25T07:47:49.54Z</time></trkpt><trkpt lat="43.4888736" lon="13.4162838"><ele>128.0</ele><time>2026-04-25T07:47:50.55Z</time></trkpt><trkpt lat="43.4887643" lon="13.4162891"><ele>128.0</ele><time>2026-04-25T07:47:51.549Z</time></trkpt><trkpt lat="43.488656" lon="13.4162879"><ele>128.0</ele><time>2026-04-25T07:47:52.545Z</time></trkpt><trkpt lat="43.4885522" lon="13.4162573"><ele>128.0</ele><time>2026-04-25T07:47:53.552Z</time></trkpt><trkpt lat="43.488433" lon="13.4162296"><ele>128.0</ele><time>2026-04-25T07:47:54.546Z</time></trkpt><trkpt lat="43.4882997" lon="13.4161899"><ele>125.0</ele><time>2026-04-25T07:47:55.55Z</time></trkpt><trkpt lat="43.4881584" lon="13.4161532"><ele>122.0</ele><time>2026-04-25T07:47:56.55Z</time></trkpt><trkpt lat="43.4880279" lon="13.4161083"><ele>119.0</ele><time>2026-04-25T07:47:57.546Z</time></trkpt><trkpt lat="43.4879085" lon="13.4160731"><ele>116.0</ele><time>2026-04-25T07:47:58.565Z</time></trkpt><trkpt lat="43.4877899" lon="13.4160329"><ele>113.5</ele><time>2026-04-25T07:47:59.551Z</time></trkpt><trkpt lat="43.4876549" lon="13.4160039"><ele>111.0</ele><time>2026-04-25T07:48:00.547Z</time></trkpt><trkpt lat="43.4875169" lon="13.415961"><ele>108.5</ele><time>2026-04-25T07:48:01.548Z</time></trkpt><trkpt lat="43.4873718" lon="13.4159346"><ele>106.0</ele><time>2026-04-25T07:48:02.544Z</time></trkpt><trkpt lat="43.487227" lon="13.415895"><ele>106.0</ele><time>2026-04-25T07:48:03.549Z</time></trkpt><trkpt lat="43.4871038" lon="13.4158747"><ele>106.0</ele><time>2026-04-25T07:48:04.554Z</time></trkpt><trkpt lat="43.4869818" lon="13.4158114"><ele>106.0</ele><time>2026-04-25T07:48:05.556Z</time></trkpt><trkpt lat="43.4868423" lon="13.4157616"><ele>106.0</ele><time>2026-04-25T07:48:06.556Z</time></trkpt><trkpt lat="43.486688" lon="13.415729"><ele>103.75</ele><time>2026-04-25T07:48:07.546Z</time></trkpt><trkpt lat="43.4865479" lon="13.4156995"><ele>101.5</ele><time>2026-04-25T07:48:08.554Z</time></trkpt><trkpt lat="43.4864071" lon="13.4156549"><ele>99.25</ele><time>2026-04-25T07:48:09.554Z</time></trkpt><trkpt lat="43.4862696" lon="13.4155982"><ele>97.0</ele><time>2026-04-25T07:48:10.56Z</time></trkpt><trkpt lat="43.4861085" lon="13.4155547"><ele>94.33333333333334</ele><time>2026-04-25T07:48:11.565Z</time></trkpt><trkpt lat="43.4859489" lon="13.4155176"><ele>91.66666666666667</ele><time>2026-04-25T07:48:12.558Z</time></trkpt><trkpt lat="43.485789" lon="13.4154825"><ele>89.0</ele><time>2026-04-25T07:48:13.561Z</time></trkpt><trkpt lat="43.4856417" lon="13.4154318"><ele>89.0</ele><time>2026-04-25T07:48:14.552Z</time></trkpt><trkpt lat="43.4855007" lon="13.4153793"><ele>89.0</ele><time>2026-04-25T07:48:15.561Z</time></trkpt><trkpt lat="43.4853356" lon="13.4153414"><ele>89.0</ele><time>2026-04-25T07:48:16.557Z</time></trkpt><trkpt lat="43.4851807" lon="13.4153149"><ele>87.75</ele><time>2026-04-25T07:48:17.558Z</time></trkpt><trkpt lat="43.4850334" lon="13.4152702"><ele>86.5</ele><time>2026-04-25T07:48:18.559Z</time></trkpt><trkpt lat="43.4848981" lon="13.4152334"><ele>85.25</ele><time>2026-04-25T07:48:19.562Z</time></trkpt><trkpt lat="43.4847739" lon="13.415187"><ele>84.0</ele><time>2026-04-25T07:48:20.556Z</time></trkpt><trkpt lat="43.4846606" lon="13.4151464"><ele>83.5</ele><time>2026-04-25T07:48:21.565Z</time></trkpt><trkpt lat="43.4845622" lon="13.4151253"><ele>83.0</ele><time>2026-04-25T07:48:22.555Z</time></trkpt><trkpt lat="43.4844806" lon="13.4150958"><ele>82.5</ele><time>2026-04-25T07:48:23.555Z</time></trkpt><trkpt lat="43.4843932" lon="13.4150726"><ele>82.0</ele><time>2026-04-25T07:48:24.552Z</time></trkpt><trkpt lat="43.4843199" lon="13.4150556"><ele>81.5</ele><time>2026-04-25T07:48:25.549Z</time></trkpt><trkpt lat="43.4842569" lon="13.4150381"><ele>81.0</ele><time>2026-04-25T07:48:26.55Z</time></trkpt><trkpt lat="43.4841578" lon="13.4150157"><ele>81.0</ele><time>2026-04-25T07:48:28.554Z</time></trkpt><trkpt lat="43.4840935" lon="13.414992"><ele>81.0</ele><time>2026-04-25T07:48:44.566Z</time></trkpt><trkpt lat="43.4840231" lon="13.4149097"><ele>81.0</ele><time>2026-04-25T07:48:47.564Z</time></trkpt><trkpt lat="43.4840223" lon="13.4148215"><ele>81.0</ele><time>2026-04-25T07:48:48.555Z</time></trkpt><trkpt lat="43.484033" lon="13.4147087"><ele>81.0</ele><time>2026-04-25T07:48:49.563Z</time></trkpt><trkpt lat="43.4840733" lon="13.4145519"><ele>81.0</ele><time>2026-04-25T07:48:50.553Z</time></trkpt><trkpt lat="43.4841059" lon="13.4143869"><ele>81.25</ele><time>2026-04-25T07:48:51.56Z</time></trkpt><trkpt lat="43.4841596" lon="13.4142176"><ele>81.5</ele><time>2026-04-25T07:48:52.554Z</time></trkpt><trkpt lat="43.484205" lon="13.4140374"><ele>81.75</ele><time>2026-04-25T07:48:53.551Z</time></trkpt><trkpt lat="43.4842591" lon="13.413852"><ele>82.0</ele><time>2026-04-25T07:48:54.555Z</time></trkpt><trkpt lat="43.4843034" lon="13.4136621"><ele>82.0</ele><time>2026-04-25T07:48:55.556Z</time></trkpt><trkpt lat="43.4843521" lon="13.4134694"><ele>82.0</ele><time>2026-04-25T07:48:56.551Z</time></trkpt><trkpt lat="43.4844034" lon="13.4132769"><ele>82.0</ele><time>2026-04-25T07:48:57.558Z</time></trkpt><trkpt lat="43.4844595" lon="13.4130823"><ele>82.0</ele><time>2026-04-25T07:48:58.564Z</time></trkpt><trkpt lat="43.4845256" lon="13.4128845"><ele>81.66666666666666</ele><time>2026-04-25T07:48:59.56Z</time></trkpt><trkpt lat="43.4845851" lon="13.4126742"><ele>81.33333333333333</ele><time>2026-04-25T07:49:00.557Z</time></trkpt><trkpt lat="43.4846313" lon="13.4124699"><ele>81.0</ele><time>2026-04-25T07:49:01.564Z</time></trkpt><trkpt lat="43.4846718" lon="13.4122576"><ele>82.33333333333333</ele><time>2026-04-25T07:49:02.557Z</time></trkpt><trkpt lat="43.4847253" lon="13.4120482"><ele>83.66666666666666</ele><time>2026-04-25T07:49:03.56Z</time></trkpt><trkpt lat="43.4847726" lon="13.4118215"><ele>85.0</ele><time>2026-04-25T07:49:04.552Z</time></trkpt><trkpt lat="43.4848179" lon="13.411614"><ele>85.0</ele><time>2026-04-25T07:49:05.555Z</time></trkpt><trkpt lat="43.4848663" lon="13.4113728"><ele>85.0</ele><time>2026-04-25T07:49:06.558Z</time></trkpt><trkpt lat="43.4849032" lon="13.4111408"><ele>85.0</ele><time>2026-04-25T07:49:07.563Z</time></trkpt><trkpt lat="43.4849314" lon="13.4109213"><ele>85.0</ele><time>2026-04-25T07:49:08.563Z</time></trkpt><trkpt lat="43.4849631" lon="13.4107034"><ele>85.0</ele><time>2026-04-25T07:49:09.56Z</time></trkpt><trkpt lat="43.4849987" lon="13.4104802"><ele>85.0</ele><time>2026-04-25T07:49:10.557Z</time></trkpt><trkpt lat="43.4850509" lon="13.4102683"><ele>85.0</ele><time>2026-04-25T07:49:11.556Z</time></trkpt><trkpt lat="43.4850853" lon="13.4100328"><ele>85.0</ele><time>2026-04-25T07:49:12.565Z</time></trkpt><trkpt lat="43.4851314" lon="13.4098149"><ele>85.0</ele><time>2026-04-25T07:49:13.561Z</time></trkpt><trkpt lat="43.4851489" lon="13.4095762"><ele>85.66666666666666</ele><time>2026-04-25T07:49:14.559Z</time></trkpt><trkpt lat="43.4851634" lon="13.4093381"><ele>86.33333333333333</ele><time>2026-04-25T07:49:15.561Z</time></trkpt><trkpt lat="43.4851903" lon="13.4091088"><ele>87.0</ele><time>2026-04-25T07:49:16.568Z</time></trkpt><trkpt lat="43.485215" lon="13.4088684"><ele>87.33333333333333</ele><time>2026-04-25T07:49:17.563Z</time></trkpt><trkpt lat="43.4852345" lon="13.4086717"><ele>87.66666666666666</ele><time>2026-04-25T07:49:18.567Z</time></trkpt><trkpt lat="43.4852527" lon="13.4084476"><ele>88.0</ele><time>2026-04-25T07:49:19.562Z</time></trkpt><trkpt lat="43.4852917" lon="13.4082318"><ele>88.0</ele><time>2026-04-25T07:49:20.565Z</time></trkpt><trkpt lat="43.4853184" lon="13.4080177"><ele>88.0</ele><time>2026-04-25T07:49:21.562Z</time></trkpt><trkpt lat="43.4853248" lon="13.4077986"><ele>88.0</ele><time>2026-04-25T07:49:22.56Z</time></trkpt><trkpt lat="43.48536" lon="13.4075912"><ele>88.33333333333333</ele><time>2026-04-25T07:49:23.557Z</time></trkpt><trkpt lat="43.4853829" lon="13.4073628"><ele>88.66666666666667</ele><time>2026-04-25T07:49:24.554Z</time></trkpt><trkpt lat="43.4854048" lon="13.4071294"><ele>89.0</ele><time>2026-04-25T07:49:25.556Z</time></trkpt><trkpt lat="43.4854384" lon="13.4069045"><ele>89.66666666666667</ele><time>2026-04-25T07:49:26.556Z</time></trkpt><trkpt lat="43.485478" lon="13.4066805"><ele>90.33333333333333</ele><time>2026-04-25T07:49:27.561Z</time></trkpt><trkpt lat="43.4855066" lon="13.4064681"><ele>91.0</ele><time>2026-04-25T07:49:28.564Z</time></trkpt><trkpt lat="43.4855436" lon="13.406259"><ele>91.25</ele><time>2026-04-25T07:49:29.564Z</time></trkpt><trkpt lat="43.4855881" lon="13.4060671"><ele>91.5</ele><time>2026-04-25T07:49:30.558Z</time></trkpt><trkpt lat="43.4856224" lon="13.4058604"><ele>91.75</ele><time>2026-04-25T07:49:31.55Z</time></trkpt><trkpt lat="43.4856555" lon="13.4056653"><ele>92.0</ele><time>2026-04-25T07:49:32.558Z</time></trkpt><trkpt lat="43.4857056" lon="13.4054606"><ele>91.33333333333334</ele><time>2026-04-25T07:49:33.552Z</time></trkpt><trkpt lat="43.4857446" lon="13.4052252"><ele>90.66666666666667</ele><time>2026-04-25T07:49:34.551Z</time></trkpt><trkpt lat="43.4857618" lon="13.4050289"><ele>90.0</ele><time>2026-04-25T07:49:35.55Z</time></trkpt><trkpt lat="43.4857693" lon="13.4048011"><ele>90.0</ele><time>2026-04-25T07:49:36.557Z</time></trkpt><trkpt lat="43.4857731" lon="13.4045838"><ele>90.0</ele><time>2026-04-25T07:49:37.565Z</time></trkpt><trkpt lat="43.4857718" lon="13.4043699"><ele>90.0</ele><time>2026-04-25T07:49:38.564Z</time></trkpt><trkpt lat="43.485773" lon="13.4041616"><ele>90.0</ele><time>2026-04-25T07:49:39.555Z</time></trkpt><trkpt lat="43.4857731" lon="13.4039505"><ele>90.0</ele><time>2026-04-25T07:49:40.561Z</time></trkpt><trkpt lat="43.485768" lon="13.4037587"><ele>90.0</ele><time>2026-04-25T07:49:41.556Z</time></trkpt><trkpt lat="43.4857801" lon="13.4035596"><ele>90.0</ele><time>2026-04-25T07:49:42.563Z</time></trkpt><trkpt lat="43.4857765" lon="13.4033744"><ele>90.0</ele><time>2026-04-25T07:49:43.554Z</time></trkpt><trkpt lat="43.4857958" lon="13.4031885"><ele>90.0</ele><time>2026-04-25T07:49:44.552Z</time></trkpt><trkpt lat="43.485789" lon="13.4029994"><ele>90.0</ele><time>2026-04-25T07:49:45.555Z</time></trkpt><trkpt lat="43.4857926" lon="13.4027902"><ele>90.0</ele><time>2026-04-25T07:49:46.549Z</time></trkpt><trkpt lat="43.4857791" lon="13.4025955"><ele>90.25</ele><time>2026-04-25T07:49:47.556Z</time></trkpt><trkpt lat="43.4857674" lon="13.4024028"><ele>90.5</ele><time>2026-04-25T07:49:48.553Z</time></trkpt><trkpt lat="43.4857743" lon="13.4022042"><ele>90.75</ele><time>2026-04-25T07:49:49.554Z</time></trkpt><trkpt lat="43.4857536" lon="13.4019947"><ele>91.0</ele><time>2026-04-25T07:49:50.549Z</time></trkpt><trkpt lat="43.4857336" lon="13.4018083"><ele>91.0</ele><time>2026-04-25T07:49:51.557Z</time></trkpt><trkpt lat="43.4857453" lon="13.4016166"><ele>91.0</ele><time>2026-04-25T07:49:52.556Z</time></trkpt><trkpt lat="43.4857348" lon="13.4014027"><ele>91.0</ele><time>2026-04-25T07:49:53.56Z</time></trkpt><trkpt lat="43.485741" lon="13.4011939"><ele>91.0</ele><time>2026-04-25T07:49:54.556Z</time></trkpt><trkpt lat="43.4857232" lon="13.4009663"><ele>90.66666666666666</ele><time>2026-04-25T07:49:55.544Z</time></trkpt><trkpt lat="43.4857061" lon="13.4007763"><ele>90.33333333333333</ele><time>2026-04-25T07:49:56.55Z</time></trkpt><trkpt lat="43.4856981" lon="13.4005697"><ele>90.0</ele><time>2026-04-25T07:49:57.548Z</time></trkpt><trkpt lat="43.4857266" lon="13.4003283"><ele>90.66666666666667</ele><time>2026-04-25T07:49:58.551Z</time></trkpt><trkpt lat="43.4857407" lon="13.4000872"><ele>91.33333333333334</ele><time>2026-04-25T07:49:59.554Z</time></trkpt><trkpt lat="43.4857678" lon="13.3998807"><ele>92.0</ele><time>2026-04-25T07:50:00.549Z</time></trkpt><trkpt lat="43.4857813" lon="13.3996773"><ele>92.33333333333334</ele><time>2026-04-25T07:50:01.556Z</time></trkpt><trkpt lat="43.4857434" lon="13.3994677"><ele>92.66666666666667</ele><time>2026-04-25T07:50:02.556Z</time></trkpt><trkpt lat="43.4857345" lon="13.399253"><ele>93.0</ele><time>2026-04-25T07:50:03.555Z</time></trkpt><trkpt lat="43.4857572" lon="13.3990617"><ele>93.0</ele><time>2026-04-25T07:50:04.558Z</time></trkpt><trkpt lat="43.4857537" lon="13.3988592"><ele>93.0</ele><time>2026-04-25T07:50:05.566Z</time></trkpt><trkpt lat="43.4857387" lon="13.3986402"><ele>93.0</ele><time>2026-04-25T07:50:06.563Z</time></trkpt><trkpt lat="43.4857351" lon="13.3984194"><ele>93.0</ele><time>2026-04-25T07:50:07.567Z</time></trkpt><trkpt lat="43.4857287" lon="13.3982057"><ele>93.0</ele><time>2026-04-25T07:50:08.565Z</time></trkpt><trkpt lat="43.4857215" lon="13.3979835"><ele>93.0</ele><time>2026-04-25T07:50:09.562Z</time></trkpt><trkpt lat="43.4857157" lon="13.3977635"><ele>93.33333333333333</ele><time>2026-04-25T07:50:10.566Z</time></trkpt><trkpt lat="43.4857068" lon="13.3975463"><ele>93.66666666666666</ele><time>2026-04-25T07:50:11.559Z</time></trkpt><trkpt lat="43.4857092" lon="13.3973219"><ele>94.0</ele><time>2026-04-25T07:50:12.565Z</time></trkpt><trkpt lat="43.4857206" lon="13.3971096"><ele>95.0</ele><time>2026-04-25T07:50:13.563Z</time></trkpt><trkpt lat="43.4857208" lon="13.3969012"><ele>96.0</ele><time>2026-04-25T07:50:14.559Z</time></trkpt><trkpt lat="43.4857107" lon="13.3966763"><ele>97.0</ele><time>2026-04-25T07:50:15.566Z</time></trkpt><trkpt lat="43.485705" lon="13.3964584"><ele>97.33333333333334</ele><time>2026-04-25T07:50:16.555Z</time></trkpt><trkpt lat="43.485705" lon="13.396255"><ele>97.66666666666666</ele><time>2026-04-25T07:50:17.562Z</time></trkpt><trkpt lat="43.4856954" lon="13.3960402"><ele>98.0</ele><time>2026-04-25T07:50:18.556Z</time></trkpt><trkpt lat="43.4856924" lon="13.3958303"><ele>98.0</ele><time>2026-04-25T07:50:19.562Z</time></trkpt><trkpt lat="43.4856905" lon="13.395598"><ele>98.0</ele><time>2026-04-25T07:50:20.558Z</time></trkpt><trkpt lat="43.485681" lon="13.3953766"><ele>98.0</ele><time>2026-04-25T07:50:21.56Z</time></trkpt><trkpt lat="43.4856708" lon="13.3951412"><ele>98.33333333333333</ele><time>2026-04-25T07:50:22.564Z</time></trkpt><trkpt lat="43.4856705" lon="13.3949076"><ele>98.66666666666666</ele><time>2026-04-25T07:50:23.559Z</time></trkpt><trkpt lat="43.4856617" lon="13.3947004"><ele>99.0</ele><time>2026-04-25T07:50:24.564Z</time></trkpt><trkpt lat="43.4856758" lon="13.3944965"><ele>99.0</ele><time>2026-04-25T07:50:25.55Z</time></trkpt><trkpt lat="43.4856702" lon="13.3942602"><ele>99.0</ele><time>2026-04-25T07:50:26.559Z</time></trkpt><trkpt lat="43.4856565" lon="13.3940447"><ele>99.0</ele><time>2026-04-25T07:50:27.558Z</time></trkpt><trkpt lat="43.4856567" lon="13.3938245"><ele>99.33333333333334</ele><time>2026-04-25T07:50:28.565Z</time></trkpt><trkpt lat="43.4856634" lon="13.3936094"><ele>99.66666666666667</ele><time>2026-04-25T07:50:29.559Z</time></trkpt><trkpt lat="43.4856647" lon="13.3933976"><ele>100.0</ele><time>2026-04-25T07:50:30.558Z</time></trkpt><trkpt lat="43.4856637" lon="13.3932019"><ele>100.0</ele><time>2026-04-25T07:50:31.553Z</time></trkpt><trkpt lat="43.4856698" lon="13.3930343"><ele>100.0</ele><time>2026-04-25T07:50:32.555Z</time></trkpt><trkpt lat="43.4856677" lon="13.3928871"><ele>100.0</ele><time>2026-04-25T07:50:33.549Z</time></trkpt><trkpt lat="43.485668" lon="13.3927293"><ele>100.0</ele><time>2026-04-25T07:50:34.552Z</time></trkpt><trkpt lat="43.4856601" lon="13.392585"><ele>100.0</ele><time>2026-04-25T07:50:35.555Z</time></trkpt><trkpt lat="43.4856627" lon="13.3924176"><ele>100.25</ele><time>2026-04-25T07:50:36.547Z</time></trkpt><trkpt lat="43.4856415" lon="13.3922448"><ele>100.5</ele><time>2026-04-25T07:50:37.555Z</time></trkpt><trkpt lat="43.4856261" lon="13.3920645"><ele>100.75</ele><time>2026-04-25T07:50:38.55Z</time></trkpt><trkpt lat="43.4856101" lon="13.3918865"><ele>101.0</ele><time>2026-04-25T07:50:39.559Z</time></trkpt><trkpt lat="43.4855997" lon="13.3916885"><ele>101.0</ele><time>2026-04-25T07:50:40.552Z</time></trkpt><trkpt lat="43.4855952" lon="13.391468"><ele>101.0</ele><time>2026-04-25T07:50:41.55Z</time></trkpt><trkpt lat="43.4855998" lon="13.391274"><ele>101.0</ele><time>2026-04-25T07:50:42.548Z</time></trkpt><trkpt lat="43.4855942" lon="13.3910708"><ele>101.0</ele><time>2026-04-25T07:50:43.56Z</time></trkpt><trkpt lat="43.4855867" lon="13.3908773"><ele>101.25</ele><time>2026-04-25T07:50:44.558Z</time></trkpt><trkpt lat="43.4855787" lon="13.3906782"><ele>101.5</ele><time>2026-04-25T07:50:45.56Z</time></trkpt><trkpt lat="43.4855861" lon="13.3904913"><ele>101.75</ele><time>2026-04-25T07:50:46.558Z</time></trkpt><trkpt lat="43.4855856" lon="13.3903042"><ele>102.0</ele><time>2026-04-25T07:50:47.554Z</time></trkpt><trkpt lat="43.4855742" lon="13.390129"><ele>102.0</ele><time>2026-04-25T07:50:48.548Z</time></trkpt><trkpt lat="43.4855685" lon="13.3899477"><ele>102.0</ele><time>2026-04-25T07:50:49.556Z</time></trkpt><trkpt lat="43.4855764" lon="13.3897477"><ele>102.0</ele><time>2026-04-25T07:50:50.548Z</time></trkpt><trkpt lat="43.4855621" lon="13.3895712"><ele>102.0</ele><time>2026-04-25T07:50:51.553Z</time></trkpt><trkpt lat="43.4855598" lon="13.3893858"><ele>102.0</ele><time>2026-04-25T07:50:52.551Z</time></trkpt><trkpt lat="43.4855379" lon="13.389202"><ele>102.0</ele><time>2026-04-25T07:50:53.55Z</time></trkpt><trkpt lat="43.485539" lon="13.3890139"><ele>102.0</ele><time>2026-04-25T07:50:54.553Z</time></trkpt><trkpt lat="43.4855562" lon="13.3888463"><ele>102.0</ele><time>2026-04-25T07:50:55.548Z</time></trkpt><trkpt lat="43.4855206" lon="13.3886788"><ele>101.75</ele><time>2026-04-25T07:50:56.539Z</time></trkpt><trkpt lat="43.4855326" lon="13.3885216"><ele>101.5</ele><time>2026-04-25T07:50:57.539Z</time></trkpt><trkpt lat="43.4855438" lon="13.388358"><ele>101.25</ele><time>2026-04-25T07:50:58.558Z</time></trkpt><trkpt lat="43.4855807" lon="13.3882049"><ele>101.0</ele><time>2026-04-25T07:50:59.55Z</time></trkpt><trkpt lat="43.4855924" lon="13.3880407"><ele>100.5</ele><time>2026-04-25T07:51:00.543Z</time></trkpt><trkpt lat="43.4855997" lon="13.3878649"><ele>100.0</ele><time>2026-04-25T07:51:01.541Z</time></trkpt><trkpt lat="43.485594" lon="13.3876986"><ele>99.5</ele><time>2026-04-25T07:51:02.545Z</time></trkpt><trkpt lat="43.4856085" lon="13.3875232"><ele>99.0</ele><time>2026-04-25T07:51:03.541Z</time></trkpt><trkpt lat="43.4855997" lon="13.3873544"><ele>99.0</ele><time>2026-04-25T07:51:04.542Z</time></trkpt><trkpt lat="43.4855904" lon="13.3872054"><ele>99.0</ele><time>2026-04-25T07:51:05.545Z</time></trkpt><trkpt lat="43.485565" lon="13.3870481"><ele>99.0</ele><time>2026-04-25T07:51:06.534Z</time></trkpt><trkpt lat="43.4855214" lon="13.3868844"><ele>99.0</ele><time>2026-04-25T07:51:07.537Z</time></trkpt><trkpt lat="43.4854639" lon="13.3867243"><ele>98.80000000000001</ele><time>2026-04-25T07:51:08.546Z</time></trkpt><trkpt lat="43.4854435" lon="13.386547"><ele>98.60000000000001</ele><time>2026-04-25T07:51:09.542Z</time></trkpt><trkpt lat="43.4854254" lon="13.3863951"><ele>98.4</ele><time>2026-04-25T07:51:10.544Z</time></trkpt><trkpt lat="43.4854127" lon="13.3862678"><ele>98.2</ele><time>2026-04-25T07:51:11.543Z</time></trkpt><trkpt lat="43.4853469" lon="13.3861886"><ele>98.0</ele><time>2026-04-25T07:51:13.527Z</time></trkpt><trkpt lat="43.4852675" lon="13.3862088"><ele>97.99999999999999</ele><time>2026-04-25T07:51:15.545Z</time></trkpt><trkpt lat="43.4852041" lon="13.3862243"><ele>98.0</ele><time>2026-04-25T07:51:16.548Z</time></trkpt><trkpt lat="43.4851178" lon="13.3862362"><ele>98.0</ele><time>2026-04-25T07:51:17.542Z</time></trkpt><trkpt lat="43.4850351" lon="13.3862607"><ele>98.0</ele><time>2026-04-25T07:51:18.542Z</time></trkpt><trkpt lat="43.4849268" lon="13.386274"><ele>97.99999999999999</ele><time>2026-04-25T07:51:19.541Z</time></trkpt><trkpt lat="43.4848453" lon="13.3863165"><ele>98.0</ele><time>2026-04-25T07:51:20.548Z</time></trkpt><trkpt lat="43.4847523" lon="13.3863544"><ele>97.75</ele><time>2026-04-25T07:51:21.544Z</time></trkpt><trkpt lat="43.484639" lon="13.3863732"><ele>97.5</ele><time>2026-04-25T07:51:22.544Z</time></trkpt><trkpt lat="43.484498" lon="13.3863939"><ele>97.25</ele><time>2026-04-25T07:51:23.542Z</time></trkpt><trkpt lat="43.4843558" lon="13.3864191"><ele>97.0</ele><time>2026-04-25T07:51:24.545Z</time></trkpt><trkpt lat="43.4842183" lon="13.3864369"><ele>96.66666666666667</ele><time>2026-04-25T07:51:25.544Z</time></trkpt><trkpt lat="43.4840304" lon="13.3864371"><ele>96.33333333333334</ele><time>2026-04-25T07:51:26.544Z</time></trkpt><trkpt lat="43.4838995" lon="13.3865045"><ele>96.0</ele><time>2026-04-25T07:51:27.545Z</time></trkpt><trkpt lat="43.4837305" lon="13.3865347"><ele>95.66666666666667</ele><time>2026-04-25T07:51:28.551Z</time></trkpt><trkpt lat="43.4835517" lon="13.3865521"><ele>95.33333333333334</ele><time>2026-04-25T07:51:29.548Z</time></trkpt><trkpt lat="43.4833753" lon="13.386561"><ele>95.0</ele><time>2026-04-25T07:51:30.539Z</time></trkpt><trkpt lat="43.4832246" lon="13.3865971"><ele>95.0</ele><time>2026-04-25T07:51:31.542Z</time></trkpt><trkpt lat="43.4830779" lon="13.3866123"><ele>95.0</ele><time>2026-04-25T07:51:32.547Z</time></trkpt><trkpt lat="43.482915" lon="13.3866315"><ele>95.0</ele><time>2026-04-25T07:51:33.551Z</time></trkpt><trkpt lat="43.4827495" lon="13.3866548"><ele>95.33333333333334</ele><time>2026-04-25T07:51:34.55Z</time></trkpt><trkpt lat="43.4825818" lon="13.3866781"><ele>95.66666666666667</ele><time>2026-04-25T07:51:35.555Z</time></trkpt><trkpt lat="43.4824367" lon="13.3867355"><ele>96.0</ele><time>2026-04-25T07:51:36.545Z</time></trkpt><trkpt lat="43.4822663" lon="13.3867591"><ele>96.0</ele><time>2026-04-25T07:51:37.546Z</time></trkpt><trkpt lat="43.4821121" lon="13.3867869"><ele>96.0</ele><time>2026-04-25T07:51:38.546Z</time></trkpt><trkpt lat="43.4819755" lon="13.3867963"><ele>96.0</ele><time>2026-04-25T07:51:39.549Z</time></trkpt><trkpt lat="43.4818058" lon="13.3868191"><ele>95.5</ele><time>2026-04-25T07:51:40.552Z</time></trkpt><trkpt lat="43.4816846" lon="13.3868466"><ele>95.0</ele><time>2026-04-25T07:51:41.552Z</time></trkpt><trkpt lat="43.4815472" lon="13.386872"><ele>94.5</ele><time>2026-04-25T07:51:42.546Z</time></trkpt><trkpt lat="43.4813816" lon="13.386929"><ele>94.0</ele><time>2026-04-25T07:51:43.551Z</time></trkpt><trkpt lat="43.4812019" lon="13.3869955"><ele>93.33333333333333</ele><time>2026-04-25T07:51:44.554Z</time></trkpt><trkpt lat="43.4810523" lon="13.3870488"><ele>92.66666666666667</ele><time>2026-04-25T07:51:45.548Z</time></trkpt><trkpt lat="43.4808883" lon="13.3870879"><ele>92.0</ele><time>2026-04-25T07:51:46.55Z</time></trkpt><trkpt lat="43.4807316" lon="13.3871308"><ele>92.33333333333334</ele><time>2026-04-25T07:51:47.555Z</time></trkpt><trkpt lat="43.4805682" lon="13.3871798"><ele>92.66666666666667</ele><time>2026-04-25T07:51:48.558Z</time></trkpt><trkpt lat="43.4804064" lon="13.3872283"><ele>93.0</ele><time>2026-04-25T07:51:49.556Z</time></trkpt><trkpt lat="43.4802567" lon="13.3872654"><ele>92.5</ele><time>2026-04-25T07:51:50.557Z</time></trkpt><trkpt lat="43.4801054" lon="13.3873211"><ele>92.0</ele><time>2026-04-25T07:51:51.55Z</time></trkpt><trkpt lat="43.4799725" lon="13.3873498"><ele>91.5</ele><time>2026-04-25T07:51:52.548Z</time></trkpt><trkpt lat="43.4798219" lon="13.3873803"><ele>91.0</ele><time>2026-04-25T07:51:53.55Z</time></trkpt><trkpt lat="43.479705" lon="13.3874262"><ele>91.0</ele><time>2026-04-25T07:51:54.552Z</time></trkpt><trkpt lat="43.4796047" lon="13.3874439"><ele>91.0</ele><time>2026-04-25T07:51:55.551Z</time></trkpt><trkpt lat="43.4794942" lon="13.3874954"><ele>91.0</ele><time>2026-04-25T07:51:56.549Z</time></trkpt><trkpt lat="43.4793946" lon="13.3875841"><ele>91.0</ele><time>2026-04-25T07:51:57.56Z</time></trkpt><trkpt lat="43.4792987" lon="13.3877297"><ele>90.5</ele><time>2026-04-25T07:51:58.552Z</time></trkpt><trkpt lat="43.4792152" lon="13.3878737"><ele>90.0</ele><time>2026-04-25T07:51:59.552Z</time></trkpt><trkpt lat="43.4791317" lon="13.3879792"><ele>89.5</ele><time>2026-04-25T07:52:00.549Z</time></trkpt><trkpt lat="43.4790611" lon="13.3880809"><ele>89.0</ele><time>2026-04-25T07:52:01.54Z</time></trkpt><trkpt lat="43.4789731" lon="13.3881841"><ele>89.0</ele><time>2026-04-25T07:52:02.545Z</time></trkpt><trkpt lat="43.4788703" lon="13.3882897"><ele>89.0</ele><time>2026-04-25T07:52:03.555Z</time></trkpt><trkpt lat="43.4787489" lon="13.388378"><ele>89.0</ele><time>2026-04-25T07:52:04.554Z</time></trkpt><trkpt lat="43.4786159" lon="13.3884407"><ele>89.0</ele><time>2026-04-25T07:52:05.548Z</time></trkpt><trkpt lat="43.4784691" lon="13.3885021"><ele>87.66666666666667</ele><time>2026-04-25T07:52:06.546Z</time></trkpt><trkpt lat="43.4782951" lon="13.3885339"><ele>86.33333333333333</ele><time>2026-04-25T07:52:07.546Z</time></trkpt><trkpt lat="43.4781133" lon="13.3885811"><ele>85.0</ele><time>2026-04-25T07:52:08.549Z</time></trkpt><trkpt lat="43.4779485" lon="13.3886154"><ele>84.66666666666666</ele><time>2026-04-25T07:52:09.542Z</time></trkpt><trkpt lat="43.4777909" lon="13.3886575"><ele>84.33333333333333</ele><time>2026-04-25T07:52:10.547Z</time></trkpt><trkpt lat="43.4776273" lon="13.3886898"><ele>84.0</ele><time>2026-04-25T07:52:11.554Z</time></trkpt><trkpt lat="43.4774658" lon="13.3887242"><ele>84.0</ele><time>2026-04-25T07:52:12.561Z</time></trkpt><trkpt lat="43.477333" lon="13.3887635"><ele>84.0</ele><time>2026-04-25T07:52:13.556Z</time></trkpt><trkpt lat="43.4772264" lon="13.3887937"><ele>84.0</ele><time>2026-04-25T07:52:14.539Z</time></trkpt><trkpt lat="43.4771048" lon="13.388832"><ele>84.0</ele><time>2026-04-25T07:52:15.545Z</time></trkpt><trkpt lat="43.4769905" lon="13.3888715"><ele>83.66666666666667</ele><time>2026-04-25T07:52:16.549Z</time></trkpt><trkpt lat="43.47684" lon="13.3888821"><ele>83.33333333333334</ele><time>2026-04-25T07:52:17.547Z</time></trkpt><trkpt lat="43.476683" lon="13.3888653"><ele>83.0</ele><time>2026-04-25T07:52:18.555Z</time></trkpt><trkpt lat="43.4765007" lon="13.3888702"><ele>83.0</ele><time>2026-04-25T07:52:19.54Z</time></trkpt><trkpt lat="43.4763901" lon="13.3888083"><ele>83.0</ele><time>2026-04-25T07:52:20.539Z</time></trkpt><trkpt lat="43.476258" lon="13.3887458"><ele>83.0</ele><time>2026-04-25T07:52:21.555Z</time></trkpt><trkpt lat="43.4761234" lon="13.3886636"><ele>83.0</ele><time>2026-04-25T07:52:22.554Z</time></trkpt><trkpt lat="43.4760169" lon="13.3885851"><ele>82.75</ele><time>2026-04-25T07:52:23.549Z</time></trkpt><trkpt lat="43.4758874" lon="13.3885287"><ele>82.5</ele><time>2026-04-25T07:52:24.546Z</time></trkpt><trkpt lat="43.4757904" lon="13.3884529"><ele>82.25</ele><time>2026-04-25T07:52:25.544Z</time></trkpt><trkpt lat="43.4756848" lon="13.3883688"><ele>82.0</ele><time>2026-04-25T07:52:26.55Z</time></trkpt><trkpt lat="43.4755618" lon="13.3883276"><ele>82.0</ele><time>2026-04-25T07:52:27.55Z</time></trkpt><trkpt lat="43.4754433" lon="13.3882376"><ele>82.0</ele><time>2026-04-25T07:52:28.551Z</time></trkpt><trkpt lat="43.4753151" lon="13.3881985"><ele>82.0</ele><time>2026-04-25T07:52:29.549Z</time></trkpt><trkpt lat="43.4751967" lon="13.3881386"><ele>82.0</ele><time>2026-04-25T07:52:30.544Z</time></trkpt><trkpt lat="43.4750809" lon="13.3880581"><ele>82.5</ele><time>2026-04-25T07:52:31.546Z</time></trkpt><trkpt lat="43.4749887" lon="13.387972"><ele>83.0</ele><time>2026-04-25T07:52:32.547Z</time></trkpt><trkpt lat="43.4749034" lon="13.387845"><ele>83.5</ele><time>2026-04-25T07:52:33.546Z</time></trkpt><trkpt lat="43.4748108" lon="13.3877014"><ele>84.0</ele><time>2026-04-25T07:52:34.549Z</time></trkpt><trkpt lat="43.4747423" lon="13.3875776"><ele>84.0</ele><time>2026-04-25T07:52:35.551Z</time></trkpt><trkpt lat="43.4746609" lon="13.3874781"><ele>84.0</ele><time>2026-04-25T07:52:36.552Z</time></trkpt><trkpt lat="43.4745932" lon="13.387383"><ele>84.0</ele><time>2026-04-25T07:52:37.555Z</time></trkpt><trkpt lat="43.4744727" lon="13.3872754"><ele>84.0</ele><time>2026-04-25T07:52:38.549Z</time></trkpt><trkpt lat="43.4743848" lon="13.387176"><ele>85.75</ele><time>2026-04-25T07:52:39.543Z</time></trkpt><trkpt lat="43.474291" lon="13.3870502"><ele>87.5</ele><time>2026-04-25T07:52:40.541Z</time></trkpt><trkpt lat="43.4742083" lon="13.3869236"><ele>89.25</ele><time>2026-04-25T07:52:41.545Z</time></trkpt><trkpt lat="43.4741325" lon="13.3868228"><ele>91.0</ele><time>2026-04-25T07:52:42.543Z</time></trkpt><trkpt lat="43.4740616" lon="13.386715"><ele>91.0</ele><time>2026-04-25T07:52:43.535Z</time></trkpt><trkpt lat="43.474006" lon="13.3865968"><ele>91.0</ele><time>2026-04-25T07:52:44.548Z</time></trkpt><trkpt lat="43.4739454" lon="13.3864593"><ele>91.0</ele><time>2026-04-25T07:52:45.548Z</time></trkpt><trkpt lat="43.4739154" lon="13.3862951"><ele>91.0</ele><time>2026-04-25T07:52:46.549Z</time></trkpt><trkpt lat="43.4739119" lon="13.3861131"><ele>90.5</ele><time>2026-04-25T07:52:47.544Z</time></trkpt><trkpt lat="43.473908" lon="13.3859166"><ele>90.0</ele><time>2026-04-25T07:52:48.546Z</time></trkpt><trkpt lat="43.4739117" lon="13.3857155"><ele>89.5</ele><time>2026-04-25T07:52:49.54Z</time></trkpt><trkpt lat="43.4738978" lon="13.3855132"><ele>89.0</ele><time>2026-04-25T07:52:50.546Z</time></trkpt><trkpt lat="43.4739155" lon="13.3853027"><ele>89.0</ele><time>2026-04-25T07:52:51.539Z</time></trkpt><trkpt lat="43.4739095" lon="13.3851011"><ele>89.0</ele><time>2026-04-25T07:52:52.544Z</time></trkpt><trkpt lat="43.4739275" lon="13.3848721"><ele>89.0</ele><time>2026-04-25T07:52:53.534Z</time></trkpt><trkpt lat="43.47393" lon="13.3846811"><ele>89.33333333333334</ele><time>2026-04-25T07:52:54.541Z</time></trkpt><trkpt lat="43.4739341" lon="13.3844475"><ele>89.66666666666667</ele><time>2026-04-25T07:52:55.547Z</time></trkpt><trkpt lat="43.4739558" lon="13.3842069"><ele>90.0</ele><time>2026-04-25T07:52:56.546Z</time></trkpt><trkpt lat="43.4739822" lon="13.3839571"><ele>90.0</ele><time>2026-04-25T07:52:57.546Z</time></trkpt><trkpt lat="43.474033" lon="13.3837428"><ele>90.0</ele><time>2026-04-25T07:52:58.55Z</time></trkpt><trkpt lat="43.4740516" lon="13.3835175"><ele>90.0</ele><time>2026-04-25T07:52:59.552Z</time></trkpt><trkpt lat="43.4740827" lon="13.3832744"><ele>90.0</ele><time>2026-04-25T07:53:00.55Z</time></trkpt><trkpt lat="43.4740938" lon="13.3830418"><ele>90.0</ele><time>2026-04-25T07:53:01.551Z</time></trkpt><trkpt lat="43.4741141" lon="13.382789"><ele>90.0</ele><time>2026-04-25T07:53:02.549Z</time></trkpt><trkpt lat="43.4741206" lon="13.3825759"><ele>92.66666666666666</ele><time>2026-04-25T07:53:03.544Z</time></trkpt><trkpt lat="43.4741614" lon="13.3823552"><ele>95.33333333333333</ele><time>2026-04-25T07:53:04.536Z</time></trkpt><trkpt lat="43.4741942" lon="13.3821507"><ele>98.0</ele><time>2026-04-25T07:53:05.54Z</time></trkpt><trkpt lat="43.4742047" lon="13.3819256"><ele>100.0</ele><time>2026-04-25T07:53:06.538Z</time></trkpt><trkpt lat="43.4742038" lon="13.3817181"><ele>102.0</ele><time>2026-04-25T07:53:07.542Z</time></trkpt><trkpt lat="43.4742191" lon="13.3815004"><ele>104.0</ele><time>2026-04-25T07:53:08.536Z</time></trkpt><trkpt lat="43.4742137" lon="13.381322"><ele>106.0</ele><time>2026-04-25T07:53:09.543Z</time></trkpt><trkpt lat="43.4742079" lon="13.3811214"><ele>108.33333333333334</ele><time>2026-04-25T07:53:10.538Z</time></trkpt><trkpt lat="43.4741703" lon="13.3809031"><ele>110.66666666666666</ele><time>2026-04-25T07:53:11.543Z</time></trkpt><trkpt lat="43.4741427" lon="13.3807015"><ele>113.0</ele><time>2026-04-25T07:53:12.534Z</time></trkpt><trkpt lat="43.474121" lon="13.3804719"><ele>114.33333333333333</ele><time>2026-04-25T07:53:13.539Z</time></trkpt><trkpt lat="43.4740913" lon="13.3802585"><ele>115.66666666666666</ele><time>2026-04-25T07:53:14.534Z</time></trkpt><trkpt lat="43.4741141" lon="13.3800556"><ele>117.0</ele><time>2026-04-25T07:53:15.535Z</time></trkpt><trkpt lat="43.4740999" lon="13.3798595"><ele>118.0</ele><time>2026-04-25T07:53:16.53Z</time></trkpt><trkpt lat="43.4741232" lon="13.3796762"><ele>119.0</ele><time>2026-04-25T07:53:17.537Z</time></trkpt><trkpt lat="43.4741199" lon="13.3794924"><ele>120.0</ele><time>2026-04-25T07:53:18.534Z</time></trkpt><trkpt lat="43.4741233" lon="13.3792914"><ele>121.0</ele><time>2026-04-25T07:53:19.534Z</time></trkpt><trkpt lat="43.4741331" lon="13.3790926"><ele>121.0</ele><time>2026-04-25T07:53:20.534Z</time></trkpt><trkpt lat="43.4741324" lon="13.3788895"><ele>121.0</ele><time>2026-04-25T07:53:21.54Z</time></trkpt><trkpt lat="43.4741037" lon="13.3787199"><ele>121.0</ele><time>2026-04-25T07:53:22.535Z</time></trkpt><trkpt lat="43.4741495" lon="13.3785264"><ele>121.0</ele><time>2026-04-25T07:53:23.535Z</time></trkpt><trkpt lat="43.4741037" lon="13.3783545"><ele>120.5</ele><time>2026-04-25T07:53:24.533Z</time></trkpt><trkpt lat="43.474129" lon="13.3781779"><ele>120.0</ele><time>2026-04-25T07:53:25.538Z</time></trkpt><trkpt lat="43.4740956" lon="13.3780034"><ele>119.5</ele><time>2026-04-25T07:53:26.535Z</time></trkpt><trkpt lat="43.4740982" lon="13.3778479"><ele>119.0</ele><time>2026-04-25T07:53:27.534Z</time></trkpt><trkpt lat="43.4740893" lon="13.3776733"><ele>119.0</ele><time>2026-04-25T07:53:28.535Z</time></trkpt><trkpt lat="43.4740597" lon="13.3774987"><ele>119.0</ele><time>2026-04-25T07:53:29.529Z</time></trkpt><trkpt lat="43.4740268" lon="13.3773103"><ele>119.0</ele><time>2026-04-25T07:53:30.533Z</time></trkpt><trkpt lat="43.4739589" lon="13.3771055"><ele>119.0</ele><time>2026-04-25T07:53:31.53Z</time></trkpt><trkpt lat="43.473831" lon="13.3768814"><ele>125.33333333333333</ele><time>2026-04-25T07:53:32.533Z</time></trkpt><trkpt lat="43.4737234" lon="13.3766733"><ele>131.66666666666666</ele><time>2026-04-25T07:53:33.534Z</time></trkpt><trkpt lat="43.4736475" lon="13.3764829"><ele>138.0</ele><time>2026-04-25T07:53:34.541Z</time></trkpt><trkpt lat="43.4735792" lon="13.376293"><ele>138.0</ele><time>2026-04-25T07:53:35.535Z</time></trkpt><trkpt lat="43.4735507" lon="13.3761167"><ele>138.0</ele><time>2026-04-25T07:53:36.538Z</time></trkpt><trkpt lat="43.4735898" lon="13.3759195"><ele>138.0</ele><time>2026-04-25T07:53:37.536Z</time></trkpt><trkpt lat="43.4735963" lon="13.375715"><ele>138.0</ele><time>2026-04-25T07:53:38.54Z</time></trkpt><trkpt lat="43.4736022" lon="13.3755042"><ele>138.5</ele><time>2026-04-25T07:53:39.547Z</time></trkpt><trkpt lat="43.4735785" lon="13.3753462"><ele>139.0</ele><time>2026-04-25T07:53:40.543Z</time></trkpt><trkpt lat="43.4735907" lon="13.3751486"><ele>139.5</ele><time>2026-04-25T07:53:41.546Z</time></trkpt><trkpt lat="43.4735926" lon="13.3749666"><ele>140.0</ele><time>2026-04-25T07:53:42.541Z</time></trkpt><trkpt lat="43.4736041" lon="13.3748406"><ele>140.0</ele><time>2026-04-25T07:53:43.548Z</time></trkpt><trkpt lat="43.4735913" lon="13.3747046"><ele>140.0</ele><time>2026-04-25T07:53:45.55Z</time></trkpt><trkpt lat="43.4735701" lon="13.3746218"><ele>140.0</ele><time>2026-04-25T07:53:46.553Z</time></trkpt><trkpt lat="43.4735018" lon="13.3746219"><ele>140.0</ele><time>2026-04-25T07:53:48.55Z</time></trkpt><trkpt lat="43.4734139" lon="13.3747737"><ele>140.0</ele><time>2026-04-25T07:53:50.541Z</time></trkpt><trkpt lat="43.4733948" lon="13.3749023"><ele>140.0</ele><time>2026-04-25T07:53:51.545Z</time></trkpt><trkpt lat="43.4733688" lon="13.3750577"><ele>140.0</ele><time>2026-04-25T07:53:52.534Z</time></trkpt><trkpt lat="43.4733301" lon="13.3752064"><ele>140.0</ele><time>2026-04-25T07:53:53.541Z</time></trkpt><trkpt lat="43.473277" lon="13.3753686"><ele>140.0</ele><time>2026-04-25T07:53:54.542Z</time></trkpt><trkpt lat="43.4732281" lon="13.3755514"><ele>139.5</ele><time>2026-04-25T07:53:55.547Z</time></trkpt><trkpt lat="43.4731931" lon="13.3756872"><ele>139.0</ele><time>2026-04-25T07:53:56.548Z</time></trkpt><trkpt lat="43.4731542" lon="13.3758664"><ele>138.5</ele><time>2026-04-25T07:53:57.539Z</time></trkpt><trkpt lat="43.4731109" lon="13.3760478"><ele>138.0</ele><time>2026-04-25T07:53:58.555Z</time></trkpt><trkpt lat="43.4730497" lon="13.3762396"><ele>139.4</ele><time>2026-04-25T07:53:59.545Z</time></trkpt><trkpt lat="43.4730042" lon="13.3763638"><ele>140.8</ele><time>2026-04-25T07:54:00.542Z</time></trkpt><trkpt lat="43.4729592" lon="13.376431"><ele>142.2</ele><time>2026-04-25T07:54:01.544Z</time></trkpt><trkpt lat="43.4728769" lon="13.3765158"><ele>143.6</ele><time>2026-04-25T07:54:03.535Z</time></trkpt><trkpt lat="43.4727572" lon="13.3764656"><ele>145.0</ele><time>2026-04-25T07:54:05.536Z</time></trkpt><trkpt lat="43.472688" lon="13.3764154"><ele>145.66666666666669</ele><time>2026-04-25T07:54:06.533Z</time></trkpt><trkpt lat="43.4726256" lon="13.3763575"><ele>146.33333333333334</ele><time>2026-04-25T07:54:07.532Z</time></trkpt><trkpt lat="43.4725707" lon="13.3762865"><ele>147.0</ele><time>2026-04-25T07:54:08.531Z</time></trkpt><trkpt lat="43.4725162" lon="13.3762069"><ele>147.66666666666666</ele><time>2026-04-25T07:54:10.533Z</time></trkpt><trkpt lat="43.4725335" lon="13.3760944"><ele>148.33333333333331</ele><time>2026-04-25T07:54:13.537Z</time></trkpt><trkpt lat="43.4725921" lon="13.375967"><ele>149.0</ele><time>2026-04-25T07:54:15.54Z</time></trkpt><trkpt lat="43.4726004" lon="13.3758716"><ele>149.0</ele><time>2026-04-25T07:54:16.539Z</time></trkpt><trkpt lat="43.4726034" lon="13.3757512"><ele>149.0</ele><time>2026-04-25T07:54:17.538Z</time></trkpt><trkpt lat="43.4725917" lon="13.3755945"><ele>149.0</ele><time>2026-04-25T07:54:18.538Z</time></trkpt><trkpt lat="43.4726002" lon="13.3754546"><ele>149.0</ele><time>2026-04-25T07:54:19.543Z</time></trkpt><trkpt lat="43.4726269" lon="13.3753338"><ele>149.0</ele><time>2026-04-25T07:54:20.546Z</time></trkpt><trkpt lat="43.4726497" lon="13.3752051"><ele>149.6</ele><time>2026-04-25T07:54:21.545Z</time></trkpt><trkpt lat="43.4726591" lon="13.3750781"><ele>150.2</ele><time>2026-04-25T07:54:22.553Z</time></trkpt><trkpt lat="43.4726671" lon="13.3749488"><ele>150.79999999999998</ele><time>2026-04-25T07:54:23.554Z</time></trkpt><trkpt lat="43.4726749" lon="13.374813"><ele>151.4</ele><time>2026-04-25T07:54:24.55Z</time></trkpt><trkpt lat="43.4726833" lon="13.3746811"><ele>152.0</ele><time>2026-04-25T07:54:25.546Z</time></trkpt><trkpt lat="43.4726886" lon="13.3745506"><ele>153.16666666666666</ele><time>2026-04-25T07:54:26.548Z</time></trkpt><trkpt lat="43.4726973" lon="13.374423"><ele>154.33333333333331</ele><time>2026-04-25T07:54:27.552Z</time></trkpt><trkpt lat="43.4727023" lon="13.3743038"><ele>155.5</ele><time>2026-04-25T07:54:28.556Z</time></trkpt><trkpt lat="43.4727075" lon="13.3741843"><ele>156.66666666666666</ele><time>2026-04-25T07:54:29.554Z</time></trkpt><trkpt lat="43.4727114" lon="13.374073"><ele>157.83333333333334</ele><time>2026-04-25T07:54:30.548Z</time></trkpt><trkpt lat="43.4727178" lon="13.3739622"><ele>159.0</ele><time>2026-04-25T07:54:31.543Z</time></trkpt><trkpt lat="43.4727241" lon="13.3738461"><ele>159.6</ele><time>2026-04-25T07:54:32.552Z</time></trkpt><trkpt lat="43.4727363" lon="13.3737201"><ele>160.2</ele><time>2026-04-25T07:54:33.545Z</time></trkpt><trkpt lat="43.4727392" lon="13.3735787"><ele>160.79999999999998</ele><time>2026-04-25T07:54:34.546Z</time></trkpt><trkpt lat="43.4727456" lon="13.3734387"><ele>161.4</ele><time>2026-04-25T07:54:35.54Z</time></trkpt><trkpt lat="43.4727492" lon="13.3732975"><ele>162.0</ele><time>2026-04-25T07:54:36.543Z</time></trkpt><trkpt lat="43.4727602" lon="13.3731493"><ele>162.39999999999998</ele><time>2026-04-25T07:54:37.542Z</time></trkpt><trkpt lat="43.4727714" lon="13.3730199"><ele>162.79999999999998</ele><time>2026-04-25T07:54:38.551Z</time></trkpt><trkpt lat="43.4727874" lon="13.3728789"><ele>163.2</ele><time>2026-04-25T07:54:39.542Z</time></trkpt><trkpt lat="43.4727897" lon="13.3727345"><ele>163.6</ele><time>2026-04-25T07:54:40.544Z</time></trkpt><trkpt lat="43.4727906" lon="13.3725833"><ele>164.0</ele><time>2026-04-25T07:54:41.54Z</time></trkpt><trkpt lat="43.4727714" lon="13.3724384"><ele>164.0</ele><time>2026-04-25T07:54:42.545Z</time></trkpt><trkpt lat="43.4727535" lon="13.3722836"><ele>164.0</ele><time>2026-04-25T07:54:43.549Z</time></trkpt><trkpt lat="43.4727352" lon="13.3721331"><ele>164.0</ele><time>2026-04-25T07:54:44.556Z</time></trkpt><trkpt lat="43.4727108" lon="13.3719875"><ele>164.0</ele><time>2026-04-25T07:54:45.556Z</time></trkpt><trkpt lat="43.4726851" lon="13.371855"><ele>164.0</ele><time>2026-04-25T07:54:46.556Z</time></trkpt><trkpt lat="43.4726523" lon="13.3717273"><ele>164.0</ele><time>2026-04-25T07:54:47.574Z</time></trkpt><trkpt lat="43.4726224" lon="13.3715971"><ele>164.0</ele><time>2026-04-25T07:54:48.56Z</time></trkpt><trkpt lat="43.4725803" lon="13.371468"><ele>164.0</ele><time>2026-04-25T07:54:49.553Z</time></trkpt><trkpt lat="43.4725155" lon="13.3713445"><ele>164.0</ele><time>2026-04-25T07:54:50.56Z</time></trkpt><trkpt lat="43.4724455" lon="13.3712123"><ele>164.0</ele><time>2026-04-25T07:54:51.569Z</time></trkpt><trkpt lat="43.4723882" lon="13.3710623"><ele>164.25</ele><time>2026-04-25T07:54:52.557Z</time></trkpt><trkpt lat="43.4723414" lon="13.3709173"><ele>164.5</ele><time>2026-04-25T07:54:53.565Z</time></trkpt><trkpt lat="43.4722983" lon="13.3707762"><ele>164.75</ele><time>2026-04-25T07:54:54.548Z</time></trkpt><trkpt lat="43.4722547" lon="13.3706261"><ele>165.0</ele><time>2026-04-25T07:54:55.556Z</time></trkpt><trkpt lat="43.4722109" lon="13.370472"><ele>165.4</ele><time>2026-04-25T07:54:56.556Z</time></trkpt><trkpt lat="43.4721667" lon="13.3703238"><ele>165.8</ele><time>2026-04-25T07:54:57.56Z</time></trkpt><trkpt lat="43.4721347" lon="13.3701796"><ele>166.2</ele><time>2026-04-25T07:54:58.561Z</time></trkpt><trkpt lat="43.4721143" lon="13.3700497"><ele>166.6</ele><time>2026-04-25T07:54:59.559Z</time></trkpt><trkpt lat="43.4720899" lon="13.3699167"><ele>167.0</ele><time>2026-04-25T07:55:00.562Z</time></trkpt><trkpt lat="43.4720571" lon="13.3697852"><ele>169.2</ele><time>2026-04-25T07:55:01.567Z</time></trkpt><trkpt lat="43.4720266" lon="13.3696556"><ele>171.39999999999998</ele><time>2026-04-25T07:55:02.572Z</time></trkpt><trkpt lat="43.472001" lon="13.3695346"><ele>173.60000000000002</ele><time>2026-04-25T07:55:03.569Z</time></trkpt><trkpt lat="43.4719805" lon="13.3694086"><ele>175.8</ele><time>2026-04-25T07:55:04.567Z</time></trkpt><trkpt lat="43.4719476" lon="13.3692767"><ele>178.0</ele><time>2026-04-25T07:55:05.563Z</time></trkpt><trkpt lat="43.4718936" lon="13.3691434"><ele>178.0</ele><time>2026-04-25T07:55:06.559Z</time></trkpt><trkpt lat="43.4718443" lon="13.3690033"><ele>178.0</ele><time>2026-04-25T07:55:07.562Z</time></trkpt><trkpt lat="43.4718289" lon="13.3688781"><ele>178.0</ele><time>2026-04-25T07:55:08.558Z</time></trkpt><trkpt lat="43.4718093" lon="13.3687683"><ele>178.0</ele><time>2026-04-25T07:55:09.562Z</time></trkpt><trkpt lat="43.4718041" lon="13.3686468"><ele>178.0</ele><time>2026-04-25T07:55:10.556Z</time></trkpt><trkpt lat="43.4718186" lon="13.3685166"><ele>177.8</ele><time>2026-04-25T07:55:11.568Z</time></trkpt><trkpt lat="43.4718449" lon="13.3683885"><ele>177.60000000000002</ele><time>2026-04-25T07:55:12.573Z</time></trkpt><trkpt lat="43.4718907" lon="13.368271"><ele>177.39999999999998</ele><time>2026-04-25T07:55:13.566Z</time></trkpt><trkpt lat="43.4719401" lon="13.3681361"><ele>177.2</ele><time>2026-04-25T07:55:14.564Z</time></trkpt><trkpt lat="43.4719818" lon="13.3679941"><ele>177.0</ele><time>2026-04-25T07:55:15.562Z</time></trkpt><trkpt lat="43.472013" lon="13.3678482"><ele>177.39999999999998</ele><time>2026-04-25T07:55:16.562Z</time></trkpt><trkpt lat="43.4720329" lon="13.3676965"><ele>177.79999999999998</ele><time>2026-04-25T07:55:17.569Z</time></trkpt><trkpt lat="43.4720567" lon="13.3675444"><ele>178.2</ele><time>2026-04-25T07:55:18.567Z</time></trkpt><trkpt lat="43.4720668" lon="13.3674004"><ele>178.6</ele><time>2026-04-25T07:55:19.56Z</time></trkpt><trkpt lat="43.4720537" lon="13.3672601"><ele>179.0</ele><time>2026-04-25T07:55:20.569Z</time></trkpt><trkpt lat="43.4720425" lon="13.3671196"><ele>179.6</ele><time>2026-04-25T07:55:21.568Z</time></trkpt><trkpt lat="43.4720361" lon="13.366982"><ele>180.2</ele><time>2026-04-25T07:55:22.562Z</time></trkpt><trkpt lat="43.4720279" lon="13.3668363"><ele>180.79999999999998</ele><time>2026-04-25T07:55:23.564Z</time></trkpt><trkpt lat="43.4720166" lon="13.3666789"><ele>181.39999999999998</ele><time>2026-04-25T07:55:24.573Z</time></trkpt><trkpt lat="43.4720082" lon="13.3665156"><ele>182.0</ele><time>2026-04-25T07:55:25.577Z</time></trkpt><trkpt lat="43.4720028" lon="13.3663563"><ele>183.8</ele><time>2026-04-25T07:55:26.578Z</time></trkpt><trkpt lat="43.4719875" lon="13.3661948"><ele>185.6</ele><time>2026-04-25T07:55:27.55Z</time></trkpt><trkpt lat="43.4719702" lon="13.3660534"><ele>187.4</ele><time>2026-04-25T07:55:28.567Z</time></trkpt><trkpt lat="43.4719577" lon="13.3659188"><ele>189.20000000000002</ele><time>2026-04-25T07:55:29.574Z</time></trkpt><trkpt lat="43.4719502" lon="13.3657808"><ele>191.0</ele><time>2026-04-25T07:55:30.565Z</time></trkpt><trkpt lat="43.4719472" lon="13.3656307"><ele>192.60000000000002</ele><time>2026-04-25T07:55:31.562Z</time></trkpt><trkpt lat="43.4719484" lon="13.3654786"><ele>194.2</ele><time>2026-04-25T07:55:32.561Z</time></trkpt><trkpt lat="43.4719423" lon="13.3653234"><ele>195.8</ele><time>2026-04-25T07:55:33.557Z</time></trkpt><trkpt lat="43.4719321" lon="13.3651735"><ele>197.39999999999998</ele><time>2026-04-25T07:55:34.56Z</time></trkpt><trkpt lat="43.4719221" lon="13.365036"><ele>199.0</ele><time>2026-04-25T07:55:35.553Z</time></trkpt><trkpt lat="43.4718976" lon="13.3648916"><ele>199.0</ele><time>2026-04-25T07:55:36.563Z</time></trkpt><trkpt lat="43.4718671" lon="13.3647394"><ele>199.0</ele><time>2026-04-25T07:55:37.562Z</time></trkpt><trkpt lat="43.4718318" lon="13.3646013"><ele>199.0</ele><time>2026-04-25T07:55:38.562Z</time></trkpt><trkpt lat="43.4718024" lon="13.3644695"><ele>199.0</ele><time>2026-04-25T07:55:39.56Z</time></trkpt><trkpt lat="43.4717741" lon="13.3643411"><ele>199.0</ele><time>2026-04-25T07:55:40.558Z</time></trkpt><trkpt lat="43.4717439" lon="13.3642109"><ele>199.79999999999998</ele><time>2026-04-25T07:55:41.554Z</time></trkpt><trkpt lat="43.4717148" lon="13.3640934"><ele>200.6</ele><time>2026-04-25T07:55:42.554Z</time></trkpt><trkpt lat="43.4716734" lon="13.3639895"><ele>201.4</ele><time>2026-04-25T07:55:43.554Z</time></trkpt><trkpt lat="43.4716203" lon="13.3638855"><ele>202.2</ele><time>2026-04-25T07:55:44.552Z</time></trkpt><trkpt lat="43.4715666" lon="13.363742"><ele>203.0</ele><time>2026-04-25T07:55:45.544Z</time></trkpt><trkpt lat="43.4715343" lon="13.3636019"><ele>203.0</ele><time>2026-04-25T07:55:46.551Z</time></trkpt><trkpt lat="43.4714888" lon="13.3634472"><ele>203.0</ele><time>2026-04-25T07:55:47.549Z</time></trkpt><trkpt lat="43.4714593" lon="13.3633047"><ele>203.0</ele><time>2026-04-25T07:55:48.543Z</time></trkpt><trkpt lat="43.4714319" lon="13.3631458"><ele>203.0</ele><time>2026-04-25T07:55:49.556Z</time></trkpt><trkpt lat="43.4714144" lon="13.3629732"><ele>202.2</ele><time>2026-04-25T07:55:50.555Z</time></trkpt><trkpt lat="43.4714069" lon="13.3628158"><ele>201.4</ele><time>2026-04-25T07:55:51.559Z</time></trkpt><trkpt lat="43.4714114" lon="13.3626584"><ele>200.6</ele><time>2026-04-25T07:55:52.555Z</time></trkpt><trkpt lat="43.4714147" lon="13.3625184"><ele>199.79999999999998</ele><time>2026-04-25T07:55:53.552Z</time></trkpt><trkpt lat="43.4713912" lon="13.362405"><ele>199.0</ele><time>2026-04-25T07:55:54.556Z</time></trkpt><trkpt lat="43.4713623" lon="13.3623024"><ele>199.0</ele><time>2026-04-25T07:55:55.554Z</time></trkpt><trkpt lat="43.4713258" lon="13.362202"><ele>199.0</ele><time>2026-04-25T07:55:56.569Z</time></trkpt><trkpt lat="43.4712917" lon="13.3620949"><ele>199.0</ele><time>2026-04-25T07:55:57.568Z</time></trkpt><trkpt lat="43.4712454" lon="13.3619952"><ele>199.0</ele><time>2026-04-25T07:55:58.569Z</time></trkpt><trkpt lat="43.4711782" lon="13.3619064"><ele>199.0</ele><time>2026-04-25T07:55:59.566Z</time></trkpt><trkpt lat="43.471094" lon="13.3618193"><ele>200.0</ele><time>2026-04-25T07:56:00.568Z</time></trkpt><trkpt lat="43.4709919" lon="13.361755"><ele>201.0</ele><time>2026-04-25T07:56:01.563Z</time></trkpt><trkpt lat="43.4708836" lon="13.3617084"><ele>202.0</ele><time>2026-04-25T07:56:02.561Z</time></trkpt><trkpt lat="43.4707726" lon="13.3616434"><ele>203.0</ele><time>2026-04-25T07:56:03.56Z</time></trkpt><trkpt lat="43.4706648" lon="13.3615787"><ele>203.00000000000003</ele><time>2026-04-25T07:56:04.572Z</time></trkpt><trkpt lat="43.4705748" lon="13.3615217"><ele>203.0</ele><time>2026-04-25T07:56:05.569Z</time></trkpt><trkpt lat="43.4704988" lon="13.3614636"><ele>203.0</ele><time>2026-04-25T07:56:06.568Z</time></trkpt><trkpt lat="43.4704288" lon="13.3614055"><ele>203.0</ele><time>2026-04-25T07:56:07.562Z</time></trkpt><trkpt lat="43.4703712" lon="13.3613351"><ele>203.00000000000003</ele><time>2026-04-25T07:56:08.567Z</time></trkpt><trkpt lat="43.4703102" lon="13.3612618"><ele>203.0</ele><time>2026-04-25T07:56:09.562Z</time></trkpt><trkpt lat="43.4702558" lon="13.3611834"><ele>202.83333333333334</ele><time>2026-04-25T07:56:10.568Z</time></trkpt><trkpt lat="43.4702087" lon="13.3610993"><ele>202.66666666666669</ele><time>2026-04-25T07:56:11.571Z</time></trkpt><trkpt lat="43.470155" lon="13.3610147"><ele>202.5</ele><time>2026-04-25T07:56:12.569Z</time></trkpt><trkpt lat="43.4701019" lon="13.360923"><ele>202.33333333333331</ele><time>2026-04-25T07:56:13.571Z</time></trkpt><trkpt lat="43.4700407" lon="13.3608237"><ele>202.16666666666666</ele><time>2026-04-25T07:56:14.576Z</time></trkpt><trkpt lat="43.4699822" lon="13.3607322"><ele>202.0</ele><time>2026-04-25T07:56:15.566Z</time></trkpt><trkpt lat="43.4699237" lon="13.3606441"><ele>202.0</ele><time>2026-04-25T07:56:16.571Z</time></trkpt><trkpt lat="43.4698649" lon="13.3605485"><ele>202.0</ele><time>2026-04-25T07:56:17.569Z</time></trkpt><trkpt lat="43.469799" lon="13.3604548"><ele>202.0</ele><time>2026-04-25T07:56:18.577Z</time></trkpt><trkpt lat="43.4697299" lon="13.3603674"><ele>202.0</ele><time>2026-04-25T07:56:19.562Z</time></trkpt><trkpt lat="43.4696598" lon="13.3602639"><ele>202.0</ele><time>2026-04-25T07:56:20.559Z</time></trkpt><trkpt lat="43.4695788" lon="13.3601707"><ele>202.5</ele><time>2026-04-25T07:56:21.559Z</time></trkpt><trkpt lat="43.4694983" lon="13.3600533"><ele>203.0</ele><time>2026-04-25T07:56:22.559Z</time></trkpt><trkpt lat="43.4694293" lon="13.3599303"><ele>203.5</ele><time>2026-04-25T07:56:23.547Z</time></trkpt><trkpt lat="43.4693709" lon="13.3597892"><ele>204.0</ele><time>2026-04-25T07:56:24.539Z</time></trkpt><trkpt lat="43.4693128" lon="13.3596575"><ele>204.0</ele><time>2026-04-25T07:56:25.548Z</time></trkpt><trkpt lat="43.4692535" lon="13.359522"><ele>204.0</ele><time>2026-04-25T07:56:26.55Z</time></trkpt><trkpt lat="43.4691905" lon="13.3593721"><ele>204.0</ele><time>2026-04-25T07:56:27.555Z</time></trkpt><trkpt lat="43.4691371" lon="13.3592428"><ele>204.0</ele><time>2026-04-25T07:56:28.552Z</time></trkpt><trkpt lat="43.4690773" lon="13.3590944"><ele>204.0</ele><time>2026-04-25T07:56:29.555Z</time></trkpt><trkpt lat="43.46903" lon="13.358947"><ele>204.0</ele><time>2026-04-25T07:56:30.56Z</time></trkpt><trkpt lat="43.4689957" lon="13.3588034"><ele>204.0</ele><time>2026-04-25T07:56:31.558Z</time></trkpt><trkpt lat="43.4689623" lon="13.3586543"><ele>204.0</ele><time>2026-04-25T07:56:32.547Z</time></trkpt><trkpt lat="43.4689605" lon="13.3585174"><ele>204.0</ele><time>2026-04-25T07:56:33.559Z</time></trkpt><trkpt lat="43.4689814" lon="13.3583705"><ele>204.6</ele><time>2026-04-25T07:56:34.553Z</time></trkpt><trkpt lat="43.4689863" lon="13.3582286"><ele>205.2</ele><time>2026-04-25T07:56:35.564Z</time></trkpt><trkpt lat="43.4690209" lon="13.3580863"><ele>205.79999999999998</ele><time>2026-04-25T07:56:36.553Z</time></trkpt><trkpt lat="43.4690324" lon="13.3579677"><ele>206.39999999999998</ele><time>2026-04-25T07:56:37.551Z</time></trkpt><trkpt lat="43.4690265" lon="13.3578664"><ele>207.0</ele><time>2026-04-25T07:56:38.549Z</time></trkpt><trkpt lat="43.4689882" lon="13.3577557"><ele>207.0</ele><time>2026-04-25T07:56:39.549Z</time></trkpt><trkpt lat="43.4689472" lon="13.3576329"><ele>207.0</ele><time>2026-04-25T07:56:40.554Z</time></trkpt><trkpt lat="43.4688994" lon="13.3574936"><ele>207.0</ele><time>2026-04-25T07:56:41.55Z</time></trkpt><trkpt lat="43.4688398" lon="13.3573701"><ele>207.0</ele><time>2026-04-25T07:56:42.56Z</time></trkpt><trkpt lat="43.4687819" lon="13.3572525"><ele>207.0</ele><time>2026-04-25T07:56:43.554Z</time></trkpt><trkpt lat="43.4686905" lon="13.3571534"><ele>209.8</ele><time>2026-04-25T07:56:44.556Z</time></trkpt><trkpt lat="43.4686054" lon="13.3570427"><ele>212.6</ele><time>2026-04-25T07:56:45.553Z</time></trkpt><trkpt lat="43.4685502" lon="13.3569362"><ele>215.40000000000003</ele><time>2026-04-25T07:56:46.551Z</time></trkpt><trkpt lat="43.4684993" lon="13.3568077"><ele>218.20000000000002</ele><time>2026-04-25T07:56:47.554Z</time></trkpt><trkpt lat="43.4684551" lon="13.3566586"><ele>221.0</ele><time>2026-04-25T07:56:48.547Z</time></trkpt><trkpt lat="43.4684317" lon="13.3565177"><ele>221.0</ele><time>2026-04-25T07:56:49.562Z</time></trkpt><trkpt lat="43.4684151" lon="13.3563879"><ele>221.00000000000003</ele><time>2026-04-25T07:56:50.558Z</time></trkpt><trkpt lat="43.4683875" lon="13.356252"><ele>221.00000000000003</ele><time>2026-04-25T07:56:51.553Z</time></trkpt><trkpt lat="43.4683615" lon="13.3561258"><ele>221.0</ele><time>2026-04-25T07:56:52.542Z</time></trkpt><trkpt lat="43.4683298" lon="13.3559983"><ele>221.0</ele><time>2026-04-25T07:56:53.547Z</time></trkpt><trkpt lat="43.4682896" lon="13.3558738"><ele>220.25</ele><time>2026-04-25T07:56:54.553Z</time></trkpt><trkpt lat="43.4682358" lon="13.35572"><ele>219.5</ele><time>2026-04-25T07:56:55.556Z</time></trkpt><trkpt lat="43.4681705" lon="13.3555512"><ele>218.75</ele><time>2026-04-25T07:56:56.564Z</time></trkpt><trkpt lat="43.4681174" lon="13.355409"><ele>218.0</ele><time>2026-04-25T07:56:57.551Z</time></trkpt><trkpt lat="43.4680695" lon="13.3552723"><ele>216.75</ele><time>2026-04-25T07:56:58.562Z</time></trkpt><trkpt lat="43.4680206" lon="13.3551317"><ele>215.5</ele><time>2026-04-25T07:56:59.562Z</time></trkpt><trkpt lat="43.4679538" lon="13.3549834"><ele>214.25</ele><time>2026-04-25T07:57:00.56Z</time></trkpt><trkpt lat="43.4679184" lon="13.3548304"><ele>213.0</ele><time>2026-04-25T07:57:01.551Z</time></trkpt><trkpt lat="43.4678886" lon="13.3546746"><ele>213.0</ele><time>2026-04-25T07:57:02.556Z</time></trkpt><trkpt lat="43.4678686" lon="13.3545203"><ele>213.0</ele><time>2026-04-25T07:57:03.554Z</time></trkpt><trkpt lat="43.467833" lon="13.3543636"><ele>213.0</ele><time>2026-04-25T07:57:04.561Z</time></trkpt><trkpt lat="43.4678176" lon="13.354204"><ele>213.0</ele><time>2026-04-25T07:57:05.552Z</time></trkpt><trkpt lat="43.4677925" lon="13.3540339"><ele>213.75</ele><time>2026-04-25T07:57:06.563Z</time></trkpt><trkpt lat="43.4677821" lon="13.3538598"><ele>214.5</ele><time>2026-04-25T07:57:07.559Z</time></trkpt><trkpt lat="43.4677639" lon="13.3536859"><ele>215.25</ele><time>2026-04-25T07:57:08.562Z</time></trkpt><trkpt lat="43.4677513" lon="13.3535422"><ele>216.0</ele><time>2026-04-25T07:57:09.562Z</time></trkpt><trkpt lat="43.467745" lon="13.3534046"><ele>216.0</ele><time>2026-04-25T07:57:10.551Z</time></trkpt><trkpt lat="43.4677282" lon="13.3532675"><ele>216.0</ele><time>2026-04-25T07:57:11.544Z</time></trkpt><trkpt lat="43.4676996" lon="13.3531274"><ele>216.0</ele><time>2026-04-25T07:57:12.563Z</time></trkpt><trkpt lat="43.4676578" lon="13.3529608"><ele>216.0</ele><time>2026-04-25T07:57:13.549Z</time></trkpt><trkpt lat="43.4676231" lon="13.3527933"><ele>216.5</ele><time>2026-04-25T07:57:14.555Z</time></trkpt><trkpt lat="43.4675864" lon="13.3526312"><ele>217.0</ele><time>2026-04-25T07:57:15.559Z</time></trkpt><trkpt lat="43.4675262" lon="13.3524781"><ele>217.5</ele><time>2026-04-25T07:57:16.562Z</time></trkpt><trkpt lat="43.4674781" lon="13.352311"><ele>218.0</ele><time>2026-04-25T07:57:17.554Z</time></trkpt><trkpt lat="43.4674529" lon="13.3521229"><ele>218.0</ele><time>2026-04-25T07:57:18.556Z</time></trkpt><trkpt lat="43.4674283" lon="13.3519585"><ele>218.0</ele><time>2026-04-25T07:57:19.551Z</time></trkpt><trkpt lat="43.4673912" lon="13.3518047"><ele>218.0</ele><time>2026-04-25T07:57:20.55Z</time></trkpt><trkpt lat="43.4673628" lon="13.3516441"><ele>218.0</ele><time>2026-04-25T07:57:21.556Z</time></trkpt><trkpt lat="43.4673313" lon="13.3514925"><ele>217.4</ele><time>2026-04-25T07:57:22.545Z</time></trkpt><trkpt lat="43.4673113" lon="13.3513513"><ele>216.8</ele><time>2026-04-25T07:57:23.556Z</time></trkpt><trkpt lat="43.4672965" lon="13.3511968"><ele>216.2</ele><time>2026-04-25T07:57:24.552Z</time></trkpt><trkpt lat="43.4672761" lon="13.3510461"><ele>215.6</ele><time>2026-04-25T07:57:25.554Z</time></trkpt><trkpt lat="43.4672493" lon="13.3508878"><ele>215.0</ele><time>2026-04-25T07:57:26.557Z</time></trkpt><trkpt lat="43.4672281" lon="13.3507222"><ele>215.0</ele><time>2026-04-25T07:57:27.557Z</time></trkpt><trkpt lat="43.4672163" lon="13.3505516"><ele>215.0</ele><time>2026-04-25T07:57:28.566Z</time></trkpt><trkpt lat="43.467201" lon="13.3503703"><ele>215.0</ele><time>2026-04-25T07:57:29.559Z</time></trkpt><trkpt lat="43.4671682" lon="13.3501974"><ele>215.0</ele><time>2026-04-25T07:57:30.555Z</time></trkpt><trkpt lat="43.4671671" lon="13.3500401"><ele>214.25</ele><time>2026-04-25T07:57:31.559Z</time></trkpt><trkpt lat="43.4671296" lon="13.3498636"><ele>213.5</ele><time>2026-04-25T07:57:32.555Z</time></trkpt><trkpt lat="43.4671099" lon="13.3496844"><ele>212.75</ele><time>2026-04-25T07:57:33.552Z</time></trkpt><trkpt lat="43.467088" lon="13.3495162"><ele>212.0</ele><time>2026-04-25T07:57:34.547Z</time></trkpt><trkpt lat="43.4670518" lon="13.3493408"><ele>211.5</ele><time>2026-04-25T07:57:35.551Z</time></trkpt><trkpt lat="43.4669964" lon="13.3491563"><ele>211.0</ele><time>2026-04-25T07:57:36.56Z</time></trkpt><trkpt lat="43.4669505" lon="13.3489783"><ele>210.5</ele><time>2026-04-25T07:57:37.561Z</time></trkpt><trkpt lat="43.4668948" lon="13.3488024"><ele>210.0</ele><time>2026-04-25T07:57:38.569Z</time></trkpt><trkpt lat="43.4668426" lon="13.3486334"><ele>211.0</ele><time>2026-04-25T07:57:39.568Z</time></trkpt><trkpt lat="43.4667901" lon="13.3484536"><ele>212.0</ele><time>2026-04-25T07:57:40.554Z</time></trkpt><trkpt lat="43.4667225" lon="13.3482775"><ele>213.0</ele><time>2026-04-25T07:57:41.561Z</time></trkpt><trkpt lat="43.4666674" lon="13.348094"><ele>214.0</ele><time>2026-04-25T07:57:42.564Z</time></trkpt><trkpt lat="43.4666259" lon="13.3479123"><ele>214.5</ele><time>2026-04-25T07:57:43.566Z</time></trkpt><trkpt lat="43.4665769" lon="13.3477639"><ele>215.0</ele><time>2026-04-25T07:57:44.554Z</time></trkpt><trkpt lat="43.4665226" lon="13.3475966"><ele>215.5</ele><time>2026-04-25T07:57:45.554Z</time></trkpt><trkpt lat="43.4664676" lon="13.3474251"><ele>216.0</ele><time>2026-04-25T07:57:46.553Z</time></trkpt><trkpt lat="43.4664121" lon="13.3472547"><ele>215.25</ele><time>2026-04-25T07:57:47.564Z</time></trkpt><trkpt lat="43.4663666" lon="13.3471261"><ele>214.5</ele><time>2026-04-25T07:57:48.558Z</time></trkpt><trkpt lat="43.466325" lon="13.3469859"><ele>213.75</ele><time>2026-04-25T07:57:49.55Z</time></trkpt><trkpt lat="43.4662503" lon="13.3468367"><ele>213.0</ele><time>2026-04-25T07:57:50.55Z</time></trkpt><trkpt lat="43.4661643" lon="13.3467039"><ele>214.5</ele><time>2026-04-25T07:57:51.557Z</time></trkpt><trkpt lat="43.4660831" lon="13.346563"><ele>216.0</ele><time>2026-04-25T07:57:52.555Z</time></trkpt><trkpt lat="43.4659933" lon="13.3464221"><ele>217.5</ele><time>2026-04-25T07:57:53.561Z</time></trkpt><trkpt lat="43.46591" lon="13.3462856"><ele>219.0</ele><time>2026-04-25T07:57:54.553Z</time></trkpt><trkpt lat="43.4658373" lon="13.3461629"><ele>219.83333333333334</ele><time>2026-04-25T07:57:55.567Z</time></trkpt><trkpt lat="43.4657852" lon="13.3460461"><ele>220.66666666666669</ele><time>2026-04-25T07:57:56.565Z</time></trkpt><trkpt lat="43.465743" lon="13.3459406"><ele>221.5</ele><time>2026-04-25T07:57:57.565Z</time></trkpt><trkpt lat="43.4656948" lon="13.3458444"><ele>222.33333333333334</ele><time>2026-04-25T07:57:58.559Z</time></trkpt><trkpt lat="43.4656471" lon="13.3457533"><ele>223.16666666666669</ele><time>2026-04-25T07:57:59.555Z</time></trkpt><trkpt lat="43.4656009" lon="13.3456731"><ele>224.0</ele><time>2026-04-25T07:58:00.549Z</time></trkpt><trkpt lat="43.4655537" lon="13.3455799"><ele>222.83333333333334</ele><time>2026-04-25T07:58:01.558Z</time></trkpt><trkpt lat="43.4655198" lon="13.3454915"><ele>221.66666666666669</ele><time>2026-04-25T07:58:02.549Z</time></trkpt><trkpt lat="43.4654948" lon="13.3453924"><ele>220.5</ele><time>2026-04-25T07:58:03.551Z</time></trkpt><trkpt lat="43.4654645" lon="13.3452789"><ele>219.33333333333331</ele><time>2026-04-25T07:58:04.553Z</time></trkpt><trkpt lat="43.4654325" lon="13.3451509"><ele>218.16666666666666</ele><time>2026-04-25T07:58:05.56Z</time></trkpt><trkpt lat="43.465392" lon="13.3450168"><ele>217.0</ele><time>2026-04-25T07:58:06.553Z</time></trkpt><trkpt lat="43.4653495" lon="13.3448839"><ele>217.0</ele><time>2026-04-25T07:58:07.553Z</time></trkpt><trkpt lat="43.4653083" lon="13.3447423"><ele>217.0</ele><time>2026-04-25T07:58:08.556Z</time></trkpt><trkpt lat="43.4652768" lon="13.3446045"><ele>217.0</ele><time>2026-04-25T07:58:09.558Z</time></trkpt><trkpt lat="43.465248" lon="13.3444599"><ele>217.0</ele><time>2026-04-25T07:58:10.56Z</time></trkpt><trkpt lat="43.465219" lon="13.3443025"><ele>217.0</ele><time>2026-04-25T07:58:11.557Z</time></trkpt><trkpt lat="43.4651905" lon="13.3441569"><ele>216.5</ele><time>2026-04-25T07:58:12.564Z</time></trkpt><trkpt lat="43.4651516" lon="13.3439964"><ele>216.0</ele><time>2026-04-25T07:58:13.554Z</time></trkpt><trkpt lat="43.4651162" lon="13.3438233"><ele>215.5</ele><time>2026-04-25T07:58:14.557Z</time></trkpt><trkpt lat="43.4650834" lon="13.3436486"><ele>215.0</ele><time>2026-04-25T07:58:15.549Z</time></trkpt><trkpt lat="43.4650351" lon="13.3434836"><ele>215.0</ele><time>2026-04-25T07:58:16.561Z</time></trkpt><trkpt lat="43.4649907" lon="13.3433044"><ele>215.0</ele><time>2026-04-25T07:58:17.556Z</time></trkpt><trkpt lat="43.464949" lon="13.3431359"><ele>215.0</ele><time>2026-04-25T07:58:18.568Z</time></trkpt><trkpt lat="43.4649101" lon="13.3429836"><ele>215.0</ele><time>2026-04-25T07:58:19.561Z</time></trkpt><trkpt lat="43.4648762" lon="13.3428339"><ele>214.8</ele><time>2026-04-25T07:58:20.568Z</time></trkpt><trkpt lat="43.464844" lon="13.3426938"><ele>214.6</ele><time>2026-04-25T07:58:21.57Z</time></trkpt><trkpt lat="43.4648118" lon="13.3425674"><ele>214.39999999999998</ele><time>2026-04-25T07:58:22.567Z</time></trkpt><trkpt lat="43.4647767" lon="13.3424444"><ele>214.2</ele><time>2026-04-25T07:58:23.564Z</time></trkpt><trkpt lat="43.4647482" lon="13.3423229"><ele>214.0</ele><time>2026-04-25T07:58:24.565Z</time></trkpt><trkpt lat="43.4647259" lon="13.3421818"><ele>213.5</ele><time>2026-04-25T07:58:25.562Z</time></trkpt><trkpt lat="43.4647233" lon="13.342028"><ele>213.0</ele><time>2026-04-25T07:58:26.567Z</time></trkpt><trkpt lat="43.4647229" lon="13.3418662"><ele>212.5</ele><time>2026-04-25T07:58:27.567Z</time></trkpt><trkpt lat="43.4647147" lon="13.3417066"><ele>212.0</ele><time>2026-04-25T07:58:28.569Z</time></trkpt><trkpt lat="43.4647001" lon="13.3415505"><ele>212.0</ele><time>2026-04-25T07:58:29.56Z</time></trkpt><trkpt lat="43.4646781" lon="13.3413952"><ele>212.0</ele><time>2026-04-25T07:58:30.567Z</time></trkpt><trkpt lat="43.4646351" lon="13.3412393"><ele>212.0</ele><time>2026-04-25T07:58:31.558Z</time></trkpt><trkpt lat="43.4645734" lon="13.3410814"><ele>212.0</ele><time>2026-04-25T07:58:32.558Z</time></trkpt><trkpt lat="43.4645134" lon="13.340919"><ele>211.25</ele><time>2026-04-25T07:58:33.553Z</time></trkpt><trkpt lat="43.4644453" lon="13.3407681"><ele>210.5</ele><time>2026-04-25T07:58:34.561Z</time></trkpt><trkpt lat="43.4643773" lon="13.3406147"><ele>209.75</ele><time>2026-04-25T07:58:35.553Z</time></trkpt><trkpt lat="43.4643232" lon="13.3404544"><ele>209.0</ele><time>2026-04-25T07:58:36.568Z</time></trkpt><trkpt lat="43.4642732" lon="13.340303"><ele>211.0</ele><time>2026-04-25T07:58:37.561Z</time></trkpt><trkpt lat="43.46421" lon="13.3401478"><ele>213.0</ele><time>2026-04-25T07:58:38.559Z</time></trkpt><trkpt lat="43.4641434" lon="13.339983"><ele>215.0</ele><time>2026-04-25T07:58:39.551Z</time></trkpt><trkpt lat="43.4640816" lon="13.339824"><ele>217.0</ele><time>2026-04-25T07:58:40.549Z</time></trkpt><trkpt lat="43.464027" lon="13.3396532"><ele>217.5</ele><time>2026-04-25T07:58:41.544Z</time></trkpt><trkpt lat="43.4639782" lon="13.3394864"><ele>218.0</ele><time>2026-04-25T07:58:42.55Z</time></trkpt><trkpt lat="43.46395" lon="13.3393439"><ele>218.5</ele><time>2026-04-25T07:58:43.542Z</time></trkpt><trkpt lat="43.4638875" lon="13.3392102"><ele>219.0</ele><time>2026-04-25T07:58:44.565Z</time></trkpt><trkpt lat="43.4638409" lon="13.3390881"><ele>219.0</ele><time>2026-04-25T07:58:45.552Z</time></trkpt><trkpt lat="43.4638023" lon="13.3389648"><ele>218.99999999999997</ele><time>2026-04-25T07:58:46.561Z</time></trkpt><trkpt lat="43.4637524" lon="13.3388424"><ele>218.99999999999997</ele><time>2026-04-25T07:58:47.553Z</time></trkpt><trkpt lat="43.4636827" lon="13.3387185"><ele>219.0</ele><time>2026-04-25T07:58:48.56Z</time></trkpt><trkpt lat="43.4636222" lon="13.3385919"><ele>219.0</ele><time>2026-04-25T07:58:49.551Z</time></trkpt><trkpt lat="43.4635708" lon="13.3384422"><ele>218.2</ele><time>2026-04-25T07:58:50.562Z</time></trkpt><trkpt lat="43.4635253" lon="13.3383073"><ele>217.39999999999998</ele><time>2026-04-25T07:58:51.558Z</time></trkpt><trkpt lat="43.463486" lon="13.3381705"><ele>216.6</ele><time>2026-04-25T07:58:52.563Z</time></trkpt><trkpt lat="43.4634451" lon="13.3380346"><ele>215.8</ele><time>2026-04-25T07:58:53.557Z</time></trkpt><trkpt lat="43.4633973" lon="13.3378912"><ele>215.0</ele><time>2026-04-25T07:58:54.568Z</time></trkpt><trkpt lat="43.4633413" lon="13.3377361"><ele>213.75</ele><time>2026-04-25T07:58:55.559Z</time></trkpt><trkpt lat="43.4632792" lon="13.3375728"><ele>212.5</ele><time>2026-04-25T07:58:56.554Z</time></trkpt><trkpt lat="43.4632228" lon="13.3374119"><ele>211.25</ele><time>2026-04-25T07:58:57.556Z</time></trkpt><trkpt lat="43.4631774" lon="13.337278"><ele>210.0</ele><time>2026-04-25T07:58:58.565Z</time></trkpt><trkpt lat="43.4631134" lon="13.3371235"><ele>208.75</ele><time>2026-04-25T07:58:59.556Z</time></trkpt><trkpt lat="43.4630509" lon="13.3369543"><ele>207.5</ele><time>2026-04-25T07:59:00.562Z</time></trkpt><trkpt lat="43.4629863" lon="13.336785"><ele>206.25</ele><time>2026-04-25T07:59:01.562Z</time></trkpt><trkpt lat="43.4629398" lon="13.3366406"><ele>205.0</ele><time>2026-04-25T07:59:02.566Z</time></trkpt><trkpt lat="43.4628914" lon="13.3365158"><ele>205.25</ele><time>2026-04-25T07:59:03.557Z</time></trkpt><trkpt lat="43.4628502" lon="13.3363429"><ele>205.5</ele><time>2026-04-25T07:59:04.564Z</time></trkpt><trkpt lat="43.4627997" lon="13.3361715"><ele>205.75</ele><time>2026-04-25T07:59:05.561Z</time></trkpt><trkpt lat="43.4627493" lon="13.3360031"><ele>206.0</ele><time>2026-04-25T07:59:06.558Z</time></trkpt><trkpt lat="43.4627143" lon="13.3358391"><ele>206.0</ele><time>2026-04-25T07:59:07.562Z</time></trkpt><trkpt lat="43.4626978" lon="13.3356757"><ele>206.0</ele><time>2026-04-25T07:59:08.551Z</time></trkpt><trkpt lat="43.462646" lon="13.3355132"><ele>206.0</ele><time>2026-04-25T07:59:09.568Z</time></trkpt><trkpt lat="43.4626121" lon="13.3353556"><ele>206.0</ele><time>2026-04-25T07:59:10.554Z</time></trkpt><trkpt lat="43.4625732" lon="13.3351954"><ele>206.60000000000002</ele><time>2026-04-25T07:59:11.569Z</time></trkpt><trkpt lat="43.4625321" lon="13.3350412"><ele>207.2</ele><time>2026-04-25T07:59:12.56Z</time></trkpt><trkpt lat="43.4624941" lon="13.3349101"><ele>207.8</ele><time>2026-04-25T07:59:13.564Z</time></trkpt><trkpt lat="43.4624767" lon="13.3347916"><ele>208.39999999999998</ele><time>2026-04-25T07:59:14.555Z</time></trkpt><trkpt lat="43.4624706" lon="13.3346838"><ele>209.0</ele><time>2026-04-25T07:59:15.562Z</time></trkpt><trkpt lat="43.4624768" lon="13.3345677"><ele>209.0</ele><time>2026-04-25T07:59:16.555Z</time></trkpt><trkpt lat="43.4624788" lon="13.3344423"><ele>209.0</ele><time>2026-04-25T07:59:17.557Z</time></trkpt><trkpt lat="43.4624891" lon="13.3343166"><ele>209.0</ele><time>2026-04-25T07:59:18.559Z</time></trkpt><trkpt lat="43.4624977" lon="13.3342056"><ele>209.0</ele><time>2026-04-25T07:59:19.557Z</time></trkpt><trkpt lat="43.4625086" lon="13.3340667"><ele>209.0</ele><time>2026-04-25T07:59:20.55Z</time></trkpt><trkpt lat="43.4625085" lon="13.3339342"><ele>208.2</ele><time>2026-04-25T07:59:21.549Z</time></trkpt><trkpt lat="43.4625001" lon="13.3337994"><ele>207.39999999999998</ele><time>2026-04-25T07:59:22.548Z</time></trkpt><trkpt lat="43.4624905" lon="13.3336403"><ele>206.6</ele><time>2026-04-25T07:59:23.56Z</time></trkpt><trkpt lat="43.4624829" lon="13.3334987"><ele>205.8</ele><time>2026-04-25T07:59:24.554Z</time></trkpt><trkpt lat="43.4624675" lon="13.3333515"><ele>205.0</ele><time>2026-04-25T07:59:25.562Z</time></trkpt><trkpt lat="43.4624517" lon="13.3332025"><ele>204.0</ele><time>2026-04-25T07:59:26.562Z</time></trkpt><trkpt lat="43.4624338" lon="13.3330495"><ele>203.0</ele><time>2026-04-25T07:59:27.572Z</time></trkpt><trkpt lat="43.4624252" lon="13.3328866"><ele>202.0</ele><time>2026-04-25T07:59:28.567Z</time></trkpt><trkpt lat="43.4624101" lon="13.3327261"><ele>201.0</ele><time>2026-04-25T07:59:29.559Z</time></trkpt><trkpt lat="43.4624" lon="13.3325778"><ele>201.0</ele><time>2026-04-25T07:59:30.555Z</time></trkpt><trkpt lat="43.4623845" lon="13.3324327"><ele>201.0</ele><time>2026-04-25T07:59:31.543Z</time></trkpt><trkpt lat="43.4623729" lon="13.3322992"><ele>201.0</ele><time>2026-04-25T07:59:32.547Z</time></trkpt><trkpt lat="43.4623691" lon="13.3321581"><ele>201.0</ele><time>2026-04-25T07:59:33.557Z</time></trkpt><trkpt lat="43.4623585" lon="13.3320261"><ele>201.0</ele><time>2026-04-25T07:59:34.547Z</time></trkpt><trkpt lat="43.4623278" lon="13.3319173"><ele>200.33333333333334</ele><time>2026-04-25T07:59:35.551Z</time></trkpt><trkpt lat="43.4622911" lon="13.331807"><ele>199.66666666666669</ele><time>2026-04-25T07:59:36.55Z</time></trkpt><trkpt lat="43.4622379" lon="13.3317014"><ele>199.0</ele><time>2026-04-25T07:59:37.552Z</time></trkpt><trkpt lat="43.4621992" lon="13.331605"><ele>198.33333333333334</ele><time>2026-04-25T07:59:38.551Z</time></trkpt><trkpt lat="43.4621731" lon="13.3315142"><ele>197.66666666666669</ele><time>2026-04-25T07:59:39.553Z</time></trkpt><trkpt lat="43.4621448" lon="13.3314181"><ele>197.0</ele><time>2026-04-25T07:59:40.545Z</time></trkpt><trkpt lat="43.4621255" lon="13.3313063"><ele>197.39999999999998</ele><time>2026-04-25T07:59:41.556Z</time></trkpt><trkpt lat="43.4621031" lon="13.3311861"><ele>197.79999999999998</ele><time>2026-04-25T07:59:42.557Z</time></trkpt><trkpt lat="43.4620895" lon="13.3310501"><ele>198.2</ele><time>2026-04-25T07:59:43.556Z</time></trkpt><trkpt lat="43.4620737" lon="13.3309081"><ele>198.6</ele><time>2026-04-25T07:59:44.556Z</time></trkpt><trkpt lat="43.4620565" lon="13.3307705"><ele>199.0</ele><time>2026-04-25T07:59:45.552Z</time></trkpt><trkpt lat="43.4620344" lon="13.3306084"><ele>199.79999999999998</ele><time>2026-04-25T07:59:46.555Z</time></trkpt><trkpt lat="43.462025" lon="13.3304507"><ele>200.6</ele><time>2026-04-25T07:59:47.559Z</time></trkpt><trkpt lat="43.4620126" lon="13.3303102"><ele>201.4</ele><time>2026-04-25T07:59:48.561Z</time></trkpt><trkpt lat="43.4620022" lon="13.330166"><ele>202.2</ele><time>2026-04-25T07:59:49.559Z</time></trkpt><trkpt lat="43.46199" lon="13.3300285"><ele>203.0</ele><time>2026-04-25T07:59:50.562Z</time></trkpt><trkpt lat="43.4619793" lon="13.3298858"><ele>203.0</ele><time>2026-04-25T07:59:51.562Z</time></trkpt><trkpt lat="43.4619651" lon="13.3297389"><ele>203.0</ele><time>2026-04-25T07:59:52.563Z</time></trkpt><trkpt lat="43.4619536" lon="13.329595"><ele>203.0</ele><time>2026-04-25T07:59:53.56Z</time></trkpt><trkpt lat="43.4619412" lon="13.3294539"><ele>203.0</ele><time>2026-04-25T07:59:54.566Z</time></trkpt><trkpt lat="43.4619297" lon="13.3293093"><ele>203.0</ele><time>2026-04-25T07:59:55.561Z</time></trkpt><trkpt lat="43.4619173" lon="13.3291519"><ele>203.0</ele><time>2026-04-25T07:59:56.564Z</time></trkpt><trkpt lat="43.4619108" lon="13.3289955"><ele>203.0</ele><time>2026-04-25T07:59:57.556Z</time></trkpt><trkpt lat="43.4618971" lon="13.3288543"><ele>203.0</ele><time>2026-04-25T07:59:58.573Z</time></trkpt><trkpt lat="43.4618837" lon="13.3287156"><ele>203.0</ele><time>2026-04-25T07:59:59.561Z</time></trkpt><trkpt lat="43.46187" lon="13.3285762"><ele>203.0</ele><time>2026-04-25T08:00:00.571Z</time></trkpt><trkpt lat="43.4618574" lon="13.328422"><ele>203.0</ele><time>2026-04-25T08:00:01.55Z</time></trkpt><trkpt lat="43.4618477" lon="13.3282756"><ele>203.0</ele><time>2026-04-25T08:00:02.554Z</time></trkpt><trkpt lat="43.4618244" lon="13.3281333"><ele>203.0</ele><time>2026-04-25T08:00:03.558Z</time></trkpt><trkpt lat="43.4617969" lon="13.3279774"><ele>203.0</ele><time>2026-04-25T08:00:04.557Z</time></trkpt><trkpt lat="43.4617705" lon="13.3278257"><ele>203.0</ele><time>2026-04-25T08:00:05.558Z</time></trkpt><trkpt lat="43.4617577" lon="13.327678"><ele>202.4</ele><time>2026-04-25T08:00:06.56Z</time></trkpt><trkpt lat="43.4617335" lon="13.3275385"><ele>201.8</ele><time>2026-04-25T08:00:07.559Z</time></trkpt><trkpt lat="43.4617142" lon="13.3273887"><ele>201.2</ele><time>2026-04-25T08:00:08.556Z</time></trkpt><trkpt lat="43.4616881" lon="13.327255"><ele>200.6</ele><time>2026-04-25T08:00:09.562Z</time></trkpt><trkpt lat="43.461665" lon="13.3270953"><ele>200.0</ele><time>2026-04-25T08:00:10.553Z</time></trkpt><trkpt lat="43.4616372" lon="13.3269488"><ele>199.4</ele><time>2026-04-25T08:00:11.551Z</time></trkpt><trkpt lat="43.4616147" lon="13.3268018"><ele>198.8</ele><time>2026-04-25T08:00:12.552Z</time></trkpt><trkpt lat="43.4615847" lon="13.3266511"><ele>198.2</ele><time>2026-04-25T08:00:13.547Z</time></trkpt><trkpt lat="43.4615566" lon="13.3264989"><ele>197.6</ele><time>2026-04-25T08:00:14.552Z</time></trkpt><trkpt lat="43.461538" lon="13.3263568"><ele>197.0</ele><time>2026-04-25T08:00:15.558Z</time></trkpt><trkpt lat="43.4615153" lon="13.3262027"><ele>195.5</ele><time>2026-04-25T08:00:16.559Z</time></trkpt><trkpt lat="43.4614934" lon="13.3260467"><ele>194.0</ele><time>2026-04-25T08:00:17.564Z</time></trkpt><trkpt lat="43.4614661" lon="13.3258822"><ele>192.5</ele><time>2026-04-25T08:00:18.562Z</time></trkpt><trkpt lat="43.4614382" lon="13.3257146"><ele>191.0</ele><time>2026-04-25T08:00:19.562Z</time></trkpt><trkpt lat="43.4614053" lon="13.3255455"><ele>190.0</ele><time>2026-04-25T08:00:20.556Z</time></trkpt><trkpt lat="43.4613776" lon="13.3253828"><ele>189.0</ele><time>2026-04-25T08:00:21.565Z</time></trkpt><trkpt lat="43.4613528" lon="13.3252273"><ele>188.0</ele><time>2026-04-25T08:00:22.557Z</time></trkpt><trkpt lat="43.4613237" lon="13.3250735"><ele>187.0</ele><time>2026-04-25T08:00:23.555Z</time></trkpt><trkpt lat="43.4613" lon="13.3249261"><ele>187.2</ele><time>2026-04-25T08:00:24.56Z</time></trkpt><trkpt lat="43.4612728" lon="13.3247868"><ele>187.39999999999998</ele><time>2026-04-25T08:00:25.558Z</time></trkpt><trkpt lat="43.4612454" lon="13.3246445"><ele>187.60000000000002</ele><time>2026-04-25T08:00:26.557Z</time></trkpt><trkpt lat="43.4612215" lon="13.3244996"><ele>187.8</ele><time>2026-04-25T08:00:27.566Z</time></trkpt><trkpt lat="43.4611943" lon="13.3243474"><ele>188.0</ele><time>2026-04-25T08:00:28.564Z</time></trkpt><trkpt lat="43.4611697" lon="13.3241876"><ele>188.0</ele><time>2026-04-25T08:00:29.565Z</time></trkpt><trkpt lat="43.4611547" lon="13.3240339"><ele>188.0</ele><time>2026-04-25T08:00:30.566Z</time></trkpt><trkpt lat="43.4611411" lon="13.323873"><ele>188.0</ele><time>2026-04-25T08:00:31.57Z</time></trkpt><trkpt lat="43.4611251" lon="13.3237131"><ele>188.0</ele><time>2026-04-25T08:00:32.562Z</time></trkpt><trkpt lat="43.4611035" lon="13.3235602"><ele>186.5</ele><time>2026-04-25T08:00:33.559Z</time></trkpt><trkpt lat="43.4610932" lon="13.3233891"><ele>185.0</ele><time>2026-04-25T08:00:34.557Z</time></trkpt><trkpt lat="43.4610784" lon="13.3232282"><ele>183.5</ele><time>2026-04-25T08:00:35.561Z</time></trkpt><trkpt lat="43.4610558" lon="13.3230609"><ele>182.0</ele><time>2026-04-25T08:00:36.553Z</time></trkpt><trkpt lat="43.4610361" lon="13.3228915"><ele>180.5</ele><time>2026-04-25T08:00:37.561Z</time></trkpt><trkpt lat="43.4610254" lon="13.3227265"><ele>179.0</ele><time>2026-04-25T08:00:38.517Z</time></trkpt><trkpt lat="43.4610078" lon="13.3225595"><ele>177.5</ele><time>2026-04-25T08:00:39.524Z</time></trkpt><trkpt lat="43.4609885" lon="13.3223941"><ele>176.0</ele><time>2026-04-25T08:00:40.529Z</time></trkpt><trkpt lat="43.4609691" lon="13.3222364"><ele>174.75</ele><time>2026-04-25T08:00:41.524Z</time></trkpt><trkpt lat="43.4609485" lon="13.3220813"><ele>173.5</ele><time>2026-04-25T08:00:42.521Z</time></trkpt><trkpt lat="43.4609247" lon="13.3219267"><ele>172.25</ele><time>2026-04-25T08:00:43.529Z</time></trkpt><trkpt lat="43.4608976" lon="13.3217781"><ele>171.0</ele><time>2026-04-25T08:00:44.527Z</time></trkpt><trkpt lat="43.460876" lon="13.3216208"><ele>171.0</ele><time>2026-04-25T08:00:45.521Z</time></trkpt><trkpt lat="43.4608456" lon="13.321473"><ele>171.0</ele><time>2026-04-25T08:00:46.521Z</time></trkpt><trkpt lat="43.4608215" lon="13.3213294"><ele>171.0</ele><time>2026-04-25T08:00:47.533Z</time></trkpt><trkpt lat="43.4607984" lon="13.3211851"><ele>171.0</ele><time>2026-04-25T08:00:48.525Z</time></trkpt><trkpt lat="43.4607719" lon="13.3210425"><ele>171.0</ele><time>2026-04-25T08:00:49.531Z</time></trkpt><trkpt lat="43.4607466" lon="13.3209065"><ele>170.33333333333334</ele><time>2026-04-25T08:00:50.522Z</time></trkpt><trkpt lat="43.4607207" lon="13.3207756"><ele>169.66666666666666</ele><time>2026-04-25T08:00:51.522Z</time></trkpt><trkpt lat="43.4606974" lon="13.3206561"><ele>169.0</ele><time>2026-04-25T08:00:52.512Z</time></trkpt><trkpt lat="43.460675" lon="13.3205397"><ele>168.33333333333331</ele><time>2026-04-25T08:00:53.526Z</time></trkpt><trkpt lat="43.4606619" lon="13.3204199"><ele>167.66666666666666</ele><time>2026-04-25T08:00:54.515Z</time></trkpt><trkpt lat="43.4606428" lon="13.3203102"><ele>167.0</ele><time>2026-04-25T08:00:55.517Z</time></trkpt><trkpt lat="43.4606276" lon="13.3202132"><ele>167.0</ele><time>2026-04-25T08:00:56.524Z</time></trkpt><trkpt lat="43.4606102" lon="13.3201044"><ele>167.0</ele><time>2026-04-25T08:00:57.518Z</time></trkpt><trkpt lat="43.4605991" lon="13.3199966"><ele>167.0</ele><time>2026-04-25T08:00:58.514Z</time></trkpt><trkpt lat="43.4605982" lon="13.3198828"><ele>167.0</ele><time>2026-04-25T08:00:59.508Z</time></trkpt><trkpt lat="43.460589" lon="13.3197742"><ele>167.0</ele><time>2026-04-25T08:01:00.521Z</time></trkpt><trkpt lat="43.4605914" lon="13.3196417"><ele>167.0</ele><time>2026-04-25T08:01:01.512Z</time></trkpt><trkpt lat="43.4605947" lon="13.3194941"><ele>166.5</ele><time>2026-04-25T08:01:02.511Z</time></trkpt><trkpt lat="43.4606167" lon="13.319332"><ele>166.0</ele><time>2026-04-25T08:01:03.513Z</time></trkpt><trkpt lat="43.460643" lon="13.3191631"><ele>165.5</ele><time>2026-04-25T08:01:04.512Z</time></trkpt><trkpt lat="43.4606858" lon="13.318993"><ele>165.0</ele><time>2026-04-25T08:01:05.518Z</time></trkpt><trkpt lat="43.4607027" lon="13.318818"><ele>163.75</ele><time>2026-04-25T08:01:06.519Z</time></trkpt><trkpt lat="43.460701" lon="13.3186597"><ele>162.5</ele><time>2026-04-25T08:01:07.518Z</time></trkpt><trkpt lat="43.4606847" lon="13.3185026"><ele>161.25</ele><time>2026-04-25T08:01:08.51Z</time></trkpt><trkpt lat="43.4606584" lon="13.3183489"><ele>160.0</ele><time>2026-04-25T08:01:09.517Z</time></trkpt><trkpt lat="43.4606129" lon="13.3182154"><ele>160.0</ele><time>2026-04-25T08:01:10.511Z</time></trkpt><trkpt lat="43.4605581" lon="13.3180882"><ele>160.0</ele><time>2026-04-25T08:01:11.519Z</time></trkpt><trkpt lat="43.4604958" lon="13.3179743"><ele>160.0</ele><time>2026-04-25T08:01:12.513Z</time></trkpt><trkpt lat="43.4604341" lon="13.3178608"><ele>160.0</ele><time>2026-04-25T08:01:13.516Z</time></trkpt><trkpt lat="43.4603682" lon="13.3177605"><ele>160.0</ele><time>2026-04-25T08:01:14.522Z</time></trkpt><trkpt lat="43.46029" lon="13.3176639"><ele>160.4</ele><time>2026-04-25T08:01:15.524Z</time></trkpt><trkpt lat="43.460207" lon="13.3175818"><ele>160.8</ele><time>2026-04-25T08:01:16.533Z</time></trkpt><trkpt lat="43.4601145" lon="13.3175098"><ele>161.2</ele><time>2026-04-25T08:01:17.534Z</time></trkpt><trkpt lat="43.4600179" lon="13.3174314"><ele>161.6</ele><time>2026-04-25T08:01:18.527Z</time></trkpt><trkpt lat="43.4599302" lon="13.3173502"><ele>162.0</ele><time>2026-04-25T08:01:19.529Z</time></trkpt><trkpt lat="43.4598515" lon="13.3172663"><ele>161.0</ele><time>2026-04-25T08:01:20.53Z</time></trkpt><trkpt lat="43.459787" lon="13.3171728"><ele>160.0</ele><time>2026-04-25T08:01:21.529Z</time></trkpt><trkpt lat="43.4597395" lon="13.3170695"><ele>159.0</ele><time>2026-04-25T08:01:22.525Z</time></trkpt><trkpt lat="43.4597064" lon="13.3169394"><ele>158.0</ele><time>2026-04-25T08:01:23.516Z</time></trkpt><trkpt lat="43.459689" lon="13.3168065"><ele>157.0</ele><time>2026-04-25T08:01:24.524Z</time></trkpt><trkpt lat="43.4596872" lon="13.3166607"><ele>157.0</ele><time>2026-04-25T08:01:25.528Z</time></trkpt><trkpt lat="43.4596804" lon="13.3165128"><ele>157.0</ele><time>2026-04-25T08:01:26.523Z</time></trkpt><trkpt lat="43.4596756" lon="13.3163796"><ele>157.0</ele><time>2026-04-25T08:01:27.519Z</time></trkpt><trkpt lat="43.4596776" lon="13.3162582"><ele>157.0</ele><time>2026-04-25T08:01:28.527Z</time></trkpt><trkpt lat="43.4596695" lon="13.3161344"><ele>157.0</ele><time>2026-04-25T08:01:29.523Z</time></trkpt><trkpt lat="43.4596541" lon="13.3160053"><ele>158.0</ele><time>2026-04-25T08:01:30.519Z</time></trkpt><trkpt lat="43.4596164" lon="13.3158684"><ele>159.0</ele><time>2026-04-25T08:01:31.523Z</time></trkpt><trkpt lat="43.4595714" lon="13.315733"><ele>160.0</ele><time>2026-04-25T08:01:32.511Z</time></trkpt><trkpt lat="43.4595317" lon="13.315604"><ele>161.0</ele><time>2026-04-25T08:01:33.509Z</time></trkpt><trkpt lat="43.4594758" lon="13.3155036"><ele>162.0</ele><time>2026-04-25T08:01:34.511Z</time></trkpt><trkpt lat="43.4594107" lon="13.3154268"><ele>162.5</ele><time>2026-04-25T08:01:35.517Z</time></trkpt><trkpt lat="43.4593576" lon="13.3153677"><ele>163.0</ele><time>2026-04-25T08:01:36.52Z</time></trkpt><trkpt lat="43.4592923" lon="13.3153025"><ele>163.5</ele><time>2026-04-25T08:01:38.517Z</time></trkpt><trkpt lat="43.4592369" lon="13.3153558"><ele>164.0</ele><time>2026-04-25T08:01:55.514Z</time></trkpt><trkpt lat="43.4591785" lon="13.3153135"><ele>164.5</ele><time>2026-04-25T08:03:33.524Z</time></trkpt><trkpt lat="43.4591555" lon="13.3151793"><ele>165.0</ele><time>2026-04-25T08:03:38.515Z</time></trkpt><trkpt lat="43.4591461" lon="13.3150874"><ele>165.0</ele><time>2026-04-25T08:03:39.512Z</time></trkpt><trkpt lat="43.4591475" lon="13.3149845"><ele>165.0</ele><time>2026-04-25T08:03:40.522Z</time></trkpt><trkpt lat="43.4591544" lon="13.3148459"><ele>165.0</ele><time>2026-04-25T08:03:41.52Z</time></trkpt><trkpt lat="43.4591821" lon="13.3146867"><ele>165.0</ele><time>2026-04-25T08:03:42.527Z</time></trkpt><trkpt lat="43.4592213" lon="13.3145028"><ele>165.0</ele><time>2026-04-25T08:03:43.516Z</time></trkpt><trkpt lat="43.4592617" lon="13.3143268"><ele>165.75</ele><time>2026-04-25T08:03:44.52Z</time></trkpt><trkpt lat="43.4593171" lon="13.3141522"><ele>166.5</ele><time>2026-04-25T08:03:45.518Z</time></trkpt><trkpt lat="43.4593701" lon="13.313991"><ele>167.25</ele><time>2026-04-25T08:03:46.524Z</time></trkpt><trkpt lat="43.4594462" lon="13.3138371"><ele>168.0</ele><time>2026-04-25T08:03:47.526Z</time></trkpt><trkpt lat="43.4595184" lon="13.313685"><ele>168.75</ele><time>2026-04-25T08:03:48.524Z</time></trkpt><trkpt lat="43.4596033" lon="13.3135474"><ele>169.5</ele><time>2026-04-25T08:03:49.519Z</time></trkpt><trkpt lat="43.4596688" lon="13.3134024"><ele>170.25</ele><time>2026-04-25T08:03:50.518Z</time></trkpt><trkpt lat="43.4597153" lon="13.3132466"><ele>171.0</ele><time>2026-04-25T08:03:51.521Z</time></trkpt><trkpt lat="43.4597769" lon="13.3130696"><ele>165.33333333333334</ele><time>2026-04-25T08:03:52.525Z</time></trkpt><trkpt lat="43.4598136" lon="13.3128635"><ele>159.66666666666669</ele><time>2026-04-25T08:03:53.515Z</time></trkpt><trkpt lat="43.459819" lon="13.3126508"><ele>154.0</ele><time>2026-04-25T08:03:54.523Z</time></trkpt><trkpt lat="43.4598405" lon="13.3124577"><ele>154.0</ele><time>2026-04-25T08:03:55.518Z</time></trkpt><trkpt lat="43.4598662" lon="13.3122591"><ele>154.0</ele><time>2026-04-25T08:03:56.523Z</time></trkpt><trkpt lat="43.4598973" lon="13.3120545"><ele>154.0</ele><time>2026-04-25T08:03:57.519Z</time></trkpt><trkpt lat="43.459928" lon="13.3118467"><ele>153.75</ele><time>2026-04-25T08:03:58.528Z</time></trkpt><trkpt lat="43.4599646" lon="13.311638"><ele>153.5</ele><time>2026-04-25T08:03:59.514Z</time></trkpt><trkpt lat="43.460011" lon="13.3114479"><ele>153.25</ele><time>2026-04-25T08:04:00.524Z</time></trkpt><trkpt lat="43.4600361" lon="13.3112648"><ele>153.0</ele><time>2026-04-25T08:04:01.521Z</time></trkpt><trkpt lat="43.4600783" lon="13.3110822"><ele>153.5</ele><time>2026-04-25T08:04:02.515Z</time></trkpt><trkpt lat="43.4601286" lon="13.3108965"><ele>154.0</ele><time>2026-04-25T08:04:03.528Z</time></trkpt><trkpt lat="43.460187" lon="13.310718"><ele>154.5</ele><time>2026-04-25T08:04:04.52Z</time></trkpt><trkpt lat="43.4602639" lon="13.3105699"><ele>155.0</ele><time>2026-04-25T08:04:05.521Z</time></trkpt><trkpt lat="43.460334" lon="13.3104302"><ele>156.25</ele><time>2026-04-25T08:04:06.519Z</time></trkpt><trkpt lat="43.4604265" lon="13.310294"><ele>157.5</ele><time>2026-04-25T08:04:07.523Z</time></trkpt><trkpt lat="43.4605096" lon="13.3101591"><ele>158.75</ele><time>2026-04-25T08:04:08.522Z</time></trkpt><trkpt lat="43.460585" lon="13.3100285"><ele>160.0</ele><time>2026-04-25T08:04:09.524Z</time></trkpt><trkpt lat="43.4606361" lon="13.3098822"><ele>156.0</ele><time>2026-04-25T08:04:10.521Z</time></trkpt><trkpt lat="43.4606797" lon="13.3097288"><ele>152.0</ele><time>2026-04-25T08:04:11.53Z</time></trkpt><trkpt lat="43.4607213" lon="13.3095513"><ele>148.0</ele><time>2026-04-25T08:04:12.52Z</time></trkpt><trkpt lat="43.4607481" lon="13.3093695"><ele>144.0</ele><time>2026-04-25T08:04:13.528Z</time></trkpt><trkpt lat="43.4607726" lon="13.3091609"><ele>144.0</ele><time>2026-04-25T08:04:14.522Z</time></trkpt><trkpt lat="43.4607855" lon="13.3089443"><ele>144.0</ele><time>2026-04-25T08:04:15.525Z</time></trkpt><trkpt lat="43.4608054" lon="13.3087424"><ele>144.0</ele><time>2026-04-25T08:04:16.519Z</time></trkpt><trkpt lat="43.4608127" lon="13.3085225"><ele>144.0</ele><time>2026-04-25T08:04:17.518Z</time></trkpt><trkpt lat="43.4608014" lon="13.3083076"><ele>144.0</ele><time>2026-04-25T08:04:18.523Z</time></trkpt><trkpt lat="43.4607945" lon="13.3081089"><ele>144.0</ele><time>2026-04-25T08:04:19.52Z</time></trkpt><trkpt lat="43.4608036" lon="13.3078841"><ele>143.25</ele><time>2026-04-25T08:04:20.526Z</time></trkpt><trkpt lat="43.4608008" lon="13.3076845"><ele>142.5</ele><time>2026-04-25T08:04:21.529Z</time></trkpt><trkpt lat="43.4607862" lon="13.3074845"><ele>141.75</ele><time>2026-04-25T08:04:22.521Z</time></trkpt><trkpt lat="43.4607838" lon="13.3073039"><ele>141.0</ele><time>2026-04-25T08:04:23.527Z</time></trkpt><trkpt lat="43.4608153" lon="13.3071045"><ele>140.33333333333334</ele><time>2026-04-25T08:04:24.525Z</time></trkpt><trkpt lat="43.460858" lon="13.3069036"><ele>139.66666666666669</ele><time>2026-04-25T08:04:25.527Z</time></trkpt><trkpt lat="43.4608708" lon="13.306694"><ele>139.0</ele><time>2026-04-25T08:04:26.525Z</time></trkpt><trkpt lat="43.4609391" lon="13.3064824"><ele>138.66666666666669</ele><time>2026-04-25T08:04:27.522Z</time></trkpt><trkpt lat="43.4610179" lon="13.3062665"><ele>138.33333333333334</ele><time>2026-04-25T08:04:28.522Z</time></trkpt><trkpt lat="43.46105" lon="13.3060739"><ele>138.0</ele><time>2026-04-25T08:04:29.509Z</time></trkpt><trkpt lat="43.4611141" lon="13.3058741"><ele>138.0</ele><time>2026-04-25T08:04:30.526Z</time></trkpt><trkpt lat="43.4611435" lon="13.3056643"><ele>138.0</ele><time>2026-04-25T08:04:31.518Z</time></trkpt><trkpt lat="43.4612018" lon="13.3054352"><ele>138.0</ele><time>2026-04-25T08:04:32.513Z</time></trkpt><trkpt lat="43.461267" lon="13.30519"><ele>134.66666666666666</ele><time>2026-04-25T08:04:33.517Z</time></trkpt><trkpt lat="43.4613405" lon="13.3049509"><ele>131.33333333333331</ele><time>2026-04-25T08:04:34.516Z</time></trkpt><trkpt lat="43.4613953" lon="13.3047228"><ele>128.0</ele><time>2026-04-25T08:04:35.525Z</time></trkpt><trkpt lat="43.461443" lon="13.3044906"><ele>128.0</ele><time>2026-04-25T08:04:36.518Z</time></trkpt><trkpt lat="43.4615106" lon="13.304266"><ele>128.0</ele><time>2026-04-25T08:04:37.515Z</time></trkpt><trkpt lat="43.4615818" lon="13.3040485"><ele>128.0</ele><time>2026-04-25T08:04:38.521Z</time></trkpt><trkpt lat="43.461649" lon="13.3038411"><ele>128.5</ele><time>2026-04-25T08:04:39.53Z</time></trkpt><trkpt lat="43.4616965" lon="13.303643"><ele>129.0</ele><time>2026-04-25T08:04:40.527Z</time></trkpt><trkpt lat="43.4617445" lon="13.3034714"><ele>129.5</ele><time>2026-04-25T08:04:41.526Z</time></trkpt><trkpt lat="43.4617937" lon="13.303299"><ele>130.0</ele><time>2026-04-25T08:04:42.519Z</time></trkpt><trkpt lat="43.4618564" lon="13.3031336"><ele>130.75</ele><time>2026-04-25T08:04:43.517Z</time></trkpt><trkpt lat="43.4619423" lon="13.3029974"><ele>131.5</ele><time>2026-04-25T08:04:44.507Z</time></trkpt><trkpt lat="43.4620396" lon="13.302867"><ele>132.25</ele><time>2026-04-25T08:04:45.513Z</time></trkpt><trkpt lat="43.4621587" lon="13.3027564"><ele>133.0</ele><time>2026-04-25T08:04:46.508Z</time></trkpt><trkpt lat="43.4622817" lon="13.3026851"><ele>133.0</ele><time>2026-04-25T08:04:47.515Z</time></trkpt><trkpt lat="43.4624153" lon="13.3026201"><ele>133.0</ele><time>2026-04-25T08:04:48.513Z</time></trkpt><trkpt lat="43.4625584" lon="13.302584"><ele>133.0</ele><time>2026-04-25T08:04:49.515Z</time></trkpt><trkpt lat="43.4626871" lon="13.3025907"><ele>133.0</ele><time>2026-04-25T08:04:50.509Z</time></trkpt><trkpt lat="43.4628128" lon="13.3026066"><ele>133.0</ele><time>2026-04-25T08:04:51.524Z</time></trkpt><trkpt lat="43.4629345" lon="13.3026474"><ele>133.0</ele><time>2026-04-25T08:04:52.514Z</time></trkpt><trkpt lat="43.4630613" lon="13.3027142"><ele>133.0</ele><time>2026-04-25T08:04:53.516Z</time></trkpt><trkpt lat="43.4631807" lon="13.3028201"><ele>133.0</ele><time>2026-04-25T08:04:54.512Z</time></trkpt><trkpt lat="43.4632997" lon="13.3029398"><ele>133.0</ele><time>2026-04-25T08:04:55.521Z</time></trkpt><trkpt lat="43.4634372" lon="13.3030795"><ele>133.0</ele><time>2026-04-25T08:04:56.511Z</time></trkpt><trkpt lat="43.4635495" lon="13.3032257"><ele>133.0</ele><time>2026-04-25T08:04:57.516Z</time></trkpt><trkpt lat="43.463658" lon="13.303375"><ele>134.66666666666669</ele><time>2026-04-25T08:04:58.517Z</time></trkpt><trkpt lat="43.4638042" lon="13.3035031"><ele>136.33333333333334</ele><time>2026-04-25T08:04:59.516Z</time></trkpt><trkpt lat="43.4639467" lon="13.3036332"><ele>138.0</ele><time>2026-04-25T08:05:00.507Z</time></trkpt><trkpt lat="43.4640558" lon="13.3037574"><ele>138.0</ele><time>2026-04-25T08:05:01.508Z</time></trkpt><trkpt lat="43.4641566" lon="13.3038673"><ele>138.0</ele><time>2026-04-25T08:05:02.51Z</time></trkpt><trkpt lat="43.4643109" lon="13.3039388"><ele>138.0</ele><time>2026-04-25T08:05:03.506Z</time></trkpt><trkpt lat="43.464433" lon="13.3040066"><ele>138.0</ele><time>2026-04-25T08:05:04.508Z</time></trkpt><trkpt lat="43.4645607" lon="13.304032"><ele>138.75</ele><time>2026-04-25T08:05:05.516Z</time></trkpt><trkpt lat="43.4647118" lon="13.3039991"><ele>139.5</ele><time>2026-04-25T08:05:06.501Z</time></trkpt><trkpt lat="43.4648262" lon="13.3039474"><ele>140.25</ele><time>2026-04-25T08:05:07.493Z</time></trkpt><trkpt lat="43.4649618" lon="13.3038892"><ele>141.0</ele><time>2026-04-25T08:05:08.502Z</time></trkpt><trkpt lat="43.4651181" lon="13.3038344"><ele>141.5</ele><time>2026-04-25T08:05:09.51Z</time></trkpt><trkpt lat="43.4652638" lon="13.3037697"><ele>142.0</ele><time>2026-04-25T08:05:10.516Z</time></trkpt><trkpt lat="43.4653891" lon="13.303726"><ele>142.5</ele><time>2026-04-25T08:05:11.518Z</time></trkpt><trkpt lat="43.4655349" lon="13.303661"><ele>143.0</ele><time>2026-04-25T08:05:12.516Z</time></trkpt><trkpt lat="43.4656774" lon="13.30358"><ele>144.0</ele><time>2026-04-25T08:05:13.518Z</time></trkpt><trkpt lat="43.4658157" lon="13.3034886"><ele>145.0</ele><time>2026-04-25T08:05:14.517Z</time></trkpt><trkpt lat="43.4659496" lon="13.3033924"><ele>146.0</ele><time>2026-04-25T08:05:15.52Z</time></trkpt><trkpt lat="43.4660786" lon="13.3033301"><ele>147.0</ele><time>2026-04-25T08:05:16.504Z</time></trkpt><trkpt lat="43.466179" lon="13.303279"><ele>147.25</ele><time>2026-04-25T08:05:17.518Z</time></trkpt><trkpt lat="43.4663033" lon="13.3031985"><ele>147.5</ele><time>2026-04-25T08:05:18.515Z</time></trkpt><trkpt lat="43.4664396" lon="13.3031433"><ele>147.75</ele><time>2026-04-25T08:05:19.511Z</time></trkpt><trkpt lat="43.4665686" lon="13.3030695"><ele>148.0</ele><time>2026-04-25T08:05:20.519Z</time></trkpt><trkpt lat="43.4667002" lon="13.3029911"><ele>148.0</ele><time>2026-04-25T08:05:21.523Z</time></trkpt><trkpt lat="43.4667923" lon="13.3029308"><ele>148.0</ele><time>2026-04-25T08:05:22.515Z</time></trkpt><trkpt lat="43.4668888" lon="13.3028306"><ele>148.0</ele><time>2026-04-25T08:05:23.518Z</time></trkpt><trkpt lat="43.4669904" lon="13.3027127"><ele>148.0</ele><time>2026-04-25T08:05:24.512Z</time></trkpt><trkpt lat="43.4670514" lon="13.3025995"><ele>148.0</ele><time>2026-04-25T08:05:25.522Z</time></trkpt><trkpt lat="43.4671102" lon="13.3025103"><ele>148.0</ele><time>2026-04-25T08:05:26.513Z</time></trkpt><trkpt lat="43.4671716" lon="13.3024409"><ele>148.0</ele><time>2026-04-25T08:05:27.524Z</time></trkpt><trkpt lat="43.4672442" lon="13.302416"><ele>148.0</ele><time>2026-04-25T08:05:28.526Z</time></trkpt><trkpt lat="43.4673293" lon="13.3024078"><ele>148.0</ele><time>2026-04-25T08:05:29.526Z</time></trkpt><trkpt lat="43.4674263" lon="13.3024024"><ele>148.0</ele><time>2026-04-25T08:05:30.518Z</time></trkpt><trkpt lat="43.4675034" lon="13.3023813"><ele>148.0</ele><time>2026-04-25T08:05:31.527Z</time></trkpt><trkpt lat="43.4675592" lon="13.3023177"><ele>148.0</ele><time>2026-04-25T08:05:32.525Z</time></trkpt><trkpt lat="43.4675839" lon="13.302227"><ele>148.0</ele><time>2026-04-25T08:05:33.525Z</time></trkpt><trkpt lat="43.4675871" lon="13.3021322"><ele>148.0</ele><time>2026-04-25T08:05:34.522Z</time></trkpt><trkpt lat="43.4675549" lon="13.3020382"><ele>148.0</ele><time>2026-04-25T08:05:35.524Z</time></trkpt><trkpt lat="43.4674939" lon="13.3019503"><ele>148.0</ele><time>2026-04-25T08:05:36.517Z</time></trkpt><trkpt lat="43.46742" lon="13.3018795"><ele>148.25</ele><time>2026-04-25T08:05:37.52Z</time></trkpt><trkpt lat="43.4673386" lon="13.3017778"><ele>148.5</ele><time>2026-04-25T08:05:38.526Z</time></trkpt><trkpt lat="43.4672822" lon="13.3016448"><ele>148.75</ele><time>2026-04-25T08:05:39.526Z</time></trkpt><trkpt lat="43.4672279" lon="13.3014944"><ele>149.0</ele><time>2026-04-25T08:05:40.52Z</time></trkpt><trkpt lat="43.4671931" lon="13.3013231"><ele>149.0</ele><time>2026-04-25T08:05:41.524Z</time></trkpt><trkpt lat="43.4671549" lon="13.3011431"><ele>149.0</ele><time>2026-04-25T08:05:42.524Z</time></trkpt><trkpt lat="43.4671197" lon="13.3009543"><ele>149.0</ele><time>2026-04-25T08:05:43.51Z</time></trkpt><trkpt lat="43.4670831" lon="13.3007565"><ele>149.0</ele><time>2026-04-25T08:05:44.515Z</time></trkpt><trkpt lat="43.467057" lon="13.3005134"><ele>149.33333333333331</ele><time>2026-04-25T08:05:45.514Z</time></trkpt><trkpt lat="43.4670045" lon="13.3002762"><ele>149.66666666666666</ele><time>2026-04-25T08:05:46.51Z</time></trkpt><trkpt lat="43.4669594" lon="13.3000156"><ele>150.0</ele><time>2026-04-25T08:05:47.512Z</time></trkpt><trkpt lat="43.4669051" lon="13.2997494"><ele>149.0</ele><time>2026-04-25T08:05:48.519Z</time></trkpt><trkpt lat="43.4668557" lon="13.2995085"><ele>148.0</ele><time>2026-04-25T08:05:49.519Z</time></trkpt><trkpt lat="43.4667962" lon="13.2992692"><ele>147.0</ele><time>2026-04-25T08:05:50.518Z</time></trkpt><trkpt lat="43.4667442" lon="13.2990198"><ele>147.33333333333334</ele><time>2026-04-25T08:05:51.515Z</time></trkpt><trkpt lat="43.4666761" lon="13.2987512"><ele>147.66666666666669</ele><time>2026-04-25T08:05:52.52Z</time></trkpt><trkpt lat="43.4666061" lon="13.2984849"><ele>148.0</ele><time>2026-04-25T08:05:53.521Z</time></trkpt><trkpt lat="43.466531" lon="13.2982322"><ele>147.66666666666669</ele><time>2026-04-25T08:05:54.517Z</time></trkpt><trkpt lat="43.4664592" lon="13.2980071"><ele>147.33333333333334</ele><time>2026-04-25T08:05:55.524Z</time></trkpt><trkpt lat="43.4663691" lon="13.2977791"><ele>147.0</ele><time>2026-04-25T08:05:56.518Z</time></trkpt><trkpt lat="43.4662815" lon="13.2975618"><ele>146.33333333333334</ele><time>2026-04-25T08:05:57.522Z</time></trkpt><trkpt lat="43.4661943" lon="13.2973527"><ele>145.66666666666669</ele><time>2026-04-25T08:05:58.522Z</time></trkpt><trkpt lat="43.4661112" lon="13.2971398"><ele>145.0</ele><time>2026-04-25T08:05:59.524Z</time></trkpt><trkpt lat="43.4660335" lon="13.2969441"><ele>145.0</ele><time>2026-04-25T08:06:00.52Z</time></trkpt><trkpt lat="43.4659657" lon="13.2967502"><ele>145.0</ele><time>2026-04-25T08:06:01.522Z</time></trkpt><trkpt lat="43.4658892" lon="13.2965475"><ele>145.0</ele><time>2026-04-25T08:06:02.519Z</time></trkpt><trkpt lat="43.4658206" lon="13.2963539"><ele>145.0</ele><time>2026-04-25T08:06:03.521Z</time></trkpt><trkpt lat="43.4657495" lon="13.2961637"><ele>145.0</ele><time>2026-04-25T08:06:04.516Z</time></trkpt><trkpt lat="43.4656813" lon="13.2959894"><ele>145.0</ele><time>2026-04-25T08:06:05.51Z</time></trkpt><trkpt lat="43.4656215" lon="13.2958261"><ele>145.0</ele><time>2026-04-25T08:06:06.519Z</time></trkpt><trkpt lat="43.4655575" lon="13.2956664"><ele>144.66666666666669</ele><time>2026-04-25T08:06:07.514Z</time></trkpt><trkpt lat="43.4655255" lon="13.2954599"><ele>144.33333333333334</ele><time>2026-04-25T08:06:08.52Z</time></trkpt><trkpt lat="43.4654967" lon="13.2952494"><ele>144.0</ele><time>2026-04-25T08:06:09.517Z</time></trkpt><trkpt lat="43.4654474" lon="13.2950313"><ele>144.0</ele><time>2026-04-25T08:06:10.518Z</time></trkpt><trkpt lat="43.4654039" lon="13.2948173"><ele>144.0</ele><time>2026-04-25T08:06:11.513Z</time></trkpt><trkpt lat="43.4653845" lon="13.2945918"><ele>144.0</ele><time>2026-04-25T08:06:12.518Z</time></trkpt><trkpt lat="43.4653512" lon="13.2943671"><ele>144.0</ele><time>2026-04-25T08:06:13.519Z</time></trkpt><trkpt lat="43.4653199" lon="13.294155"><ele>144.0</ele><time>2026-04-25T08:06:14.514Z</time></trkpt><trkpt lat="43.4652914" lon="13.293956"><ele>144.0</ele><time>2026-04-25T08:06:15.513Z</time></trkpt><trkpt lat="43.4652762" lon="13.2937543"><ele>144.0</ele><time>2026-04-25T08:06:16.518Z</time></trkpt><trkpt lat="43.4652513" lon="13.2935598"><ele>144.0</ele><time>2026-04-25T08:06:17.516Z</time></trkpt><trkpt lat="43.4652209" lon="13.2933668"><ele>144.0</ele><time>2026-04-25T08:06:18.517Z</time></trkpt><trkpt lat="43.4652043" lon="13.2931699"><ele>144.0</ele><time>2026-04-25T08:06:19.507Z</time></trkpt><trkpt lat="43.4651896" lon="13.2929781"><ele>143.5</ele><time>2026-04-25T08:06:20.519Z</time></trkpt><trkpt lat="43.4651618" lon="13.2927783"><ele>143.0</ele><time>2026-04-25T08:06:21.516Z</time></trkpt><trkpt lat="43.4651371" lon="13.2926007"><ele>142.5</ele><time>2026-04-25T08:06:22.522Z</time></trkpt><trkpt lat="43.4650965" lon="13.2924286"><ele>142.0</ele><time>2026-04-25T08:06:23.514Z</time></trkpt><trkpt lat="43.4650429" lon="13.29225"><ele>142.0</ele><time>2026-04-25T08:06:24.517Z</time></trkpt><trkpt lat="43.4649593" lon="13.2920692"><ele>142.0</ele><time>2026-04-25T08:06:25.513Z</time></trkpt><trkpt lat="43.4648677" lon="13.2918981"><ele>142.0</ele><time>2026-04-25T08:06:26.517Z</time></trkpt><trkpt lat="43.4647597" lon="13.2917363"><ele>142.0</ele><time>2026-04-25T08:06:27.519Z</time></trkpt><trkpt lat="43.4646483" lon="13.2915639"><ele>142.0</ele><time>2026-04-25T08:06:28.522Z</time></trkpt><trkpt lat="43.4645552" lon="13.2913576"><ele>142.0</ele><time>2026-04-25T08:06:29.521Z</time></trkpt><trkpt lat="43.4644733" lon="13.2911398"><ele>143.33333333333334</ele><time>2026-04-25T08:06:30.519Z</time></trkpt><trkpt lat="43.464396" lon="13.290916"><ele>144.66666666666666</ele><time>2026-04-25T08:06:31.517Z</time></trkpt><trkpt lat="43.4643144" lon="13.2907172"><ele>146.0</ele><time>2026-04-25T08:06:32.514Z</time></trkpt><trkpt lat="43.4642226" lon="13.2905341"><ele>147.0</ele><time>2026-04-25T08:06:33.515Z</time></trkpt><trkpt lat="43.464169" lon="13.2903772"><ele>148.0</ele><time>2026-04-25T08:06:34.518Z</time></trkpt><trkpt lat="43.4641057" lon="13.2902089"><ele>149.0</ele><time>2026-04-25T08:06:35.516Z</time></trkpt><trkpt lat="43.4640433" lon="13.2900242"><ele>150.0</ele><time>2026-04-25T08:06:36.518Z</time></trkpt><trkpt lat="43.4639936" lon="13.2898243"><ele>150.33333333333334</ele><time>2026-04-25T08:06:37.519Z</time></trkpt><trkpt lat="43.4639497" lon="13.2896194"><ele>150.66666666666669</ele><time>2026-04-25T08:06:38.522Z</time></trkpt><trkpt lat="43.4638959" lon="13.2894096"><ele>151.0</ele><time>2026-04-25T08:06:39.525Z</time></trkpt><trkpt lat="43.4638494" lon="13.2891994"><ele>151.0</ele><time>2026-04-25T08:06:40.525Z</time></trkpt><trkpt lat="43.4637976" lon="13.2889823"><ele>151.0</ele><time>2026-04-25T08:06:41.522Z</time></trkpt><trkpt lat="43.4637476" lon="13.2887772"><ele>151.0</ele><time>2026-04-25T08:06:42.523Z</time></trkpt><trkpt lat="43.463686" lon="13.2885774"><ele>150.5</ele><time>2026-04-25T08:06:43.518Z</time></trkpt><trkpt lat="43.4636211" lon="13.2883758"><ele>150.0</ele><time>2026-04-25T08:06:44.526Z</time></trkpt><trkpt lat="43.4635644" lon="13.2881896"><ele>149.5</ele><time>2026-04-25T08:06:45.517Z</time></trkpt><trkpt lat="43.4635089" lon="13.2880149"><ele>149.0</ele><time>2026-04-25T08:06:46.529Z</time></trkpt><trkpt lat="43.4634451" lon="13.2878351"><ele>149.0</ele><time>2026-04-25T08:06:47.518Z</time></trkpt><trkpt lat="43.463383" lon="13.2876522"><ele>149.0</ele><time>2026-04-25T08:06:48.524Z</time></trkpt><trkpt lat="43.4633331" lon="13.2874492"><ele>149.0</ele><time>2026-04-25T08:06:49.522Z</time></trkpt><trkpt lat="43.463301" lon="13.2872631"><ele>149.0</ele><time>2026-04-25T08:06:50.524Z</time></trkpt><trkpt lat="43.4632751" lon="13.2870802"><ele>150.25</ele><time>2026-04-25T08:06:51.525Z</time></trkpt><trkpt lat="43.4632503" lon="13.2868809"><ele>151.5</ele><time>2026-04-25T08:06:52.526Z</time></trkpt><trkpt lat="43.4632431" lon="13.2866899"><ele>152.75</ele><time>2026-04-25T08:06:53.524Z</time></trkpt><trkpt lat="43.4632441" lon="13.2864943"><ele>154.0</ele><time>2026-04-25T08:06:54.525Z</time></trkpt><trkpt lat="43.4632411" lon="13.2863024"><ele>154.0</ele><time>2026-04-25T08:06:55.526Z</time></trkpt><trkpt lat="43.4632524" lon="13.2861053"><ele>154.0</ele><time>2026-04-25T08:06:56.52Z</time></trkpt><trkpt lat="43.4632538" lon="13.285902"><ele>154.0</ele><time>2026-04-25T08:06:57.525Z</time></trkpt><trkpt lat="43.4632721" lon="13.2857052"><ele>154.0</ele><time>2026-04-25T08:06:58.526Z</time></trkpt><trkpt lat="43.4632812" lon="13.2855135"><ele>154.0</ele><time>2026-04-25T08:06:59.53Z</time></trkpt><trkpt lat="43.4632883" lon="13.2853039"><ele>154.0</ele><time>2026-04-25T08:07:00.53Z</time></trkpt><trkpt lat="43.4632932" lon="13.2850955"><ele>154.0</ele><time>2026-04-25T08:07:01.53Z</time></trkpt><trkpt lat="43.4632977" lon="13.284886"><ele>153.33333333333334</ele><time>2026-04-25T08:07:02.521Z</time></trkpt><trkpt lat="43.4633058" lon="13.284686"><ele>152.66666666666666</ele><time>2026-04-25T08:07:03.518Z</time></trkpt><trkpt lat="43.4633151" lon="13.2844809"><ele>152.0</ele><time>2026-04-25T08:07:04.518Z</time></trkpt><trkpt lat="43.4633265" lon="13.2842514"><ele>152.0</ele><time>2026-04-25T08:07:05.518Z</time></trkpt><trkpt lat="43.4633496" lon="13.2840385"><ele>152.0</ele><time>2026-04-25T08:07:06.52Z</time></trkpt><trkpt lat="43.4633706" lon="13.2838394"><ele>152.0</ele><time>2026-04-25T08:07:07.522Z</time></trkpt><trkpt lat="43.4633855" lon="13.2836263"><ele>152.0</ele><time>2026-04-25T08:07:08.518Z</time></trkpt><trkpt lat="43.4634181" lon="13.2834076"><ele>152.0</ele><time>2026-04-25T08:07:09.512Z</time></trkpt><trkpt lat="43.4634473" lon="13.2832015"><ele>152.0</ele><time>2026-04-25T08:07:10.507Z</time></trkpt><trkpt lat="43.4634707" lon="13.2829842"><ele>151.66666666666666</ele><time>2026-04-25T08:07:11.519Z</time></trkpt><trkpt lat="43.463512" lon="13.2827623"><ele>151.33333333333334</ele><time>2026-04-25T08:07:12.511Z</time></trkpt><trkpt lat="43.4635428" lon="13.2825454"><ele>151.0</ele><time>2026-04-25T08:07:13.515Z</time></trkpt><trkpt lat="43.4635761" lon="13.2823534"><ele>151.66666666666669</ele><time>2026-04-25T08:07:14.507Z</time></trkpt><trkpt lat="43.4636015" lon="13.2821504"><ele>152.33333333333334</ele><time>2026-04-25T08:07:15.515Z</time></trkpt><trkpt lat="43.4636192" lon="13.2819334"><ele>153.0</ele><time>2026-04-25T08:07:16.517Z</time></trkpt><trkpt lat="43.4636374" lon="13.2817359"><ele>153.0</ele><time>2026-04-25T08:07:17.511Z</time></trkpt><trkpt lat="43.4636179" lon="13.2815135"><ele>153.0</ele><time>2026-04-25T08:07:18.51Z</time></trkpt><trkpt lat="43.463587" lon="13.2813031"><ele>153.0</ele><time>2026-04-25T08:07:19.5Z</time></trkpt><trkpt lat="43.4635627" lon="13.2810823"><ele>155.0</ele><time>2026-04-25T08:07:20.508Z</time></trkpt><trkpt lat="43.4634973" lon="13.2808871"><ele>157.0</ele><time>2026-04-25T08:07:21.515Z</time></trkpt><trkpt lat="43.4634428" lon="13.2806618"><ele>159.0</ele><time>2026-04-25T08:07:22.521Z</time></trkpt><trkpt lat="43.4633804" lon="13.2804339"><ele>160.25</ele><time>2026-04-25T08:07:23.509Z</time></trkpt><trkpt lat="43.4633348" lon="13.2802538"><ele>161.5</ele><time>2026-04-25T08:07:24.514Z</time></trkpt><trkpt lat="43.463287" lon="13.2800792"><ele>162.75</ele><time>2026-04-25T08:07:25.517Z</time></trkpt><trkpt lat="43.4632414" lon="13.2799315"><ele>164.0</ele><time>2026-04-25T08:07:26.517Z</time></trkpt><trkpt lat="43.4631437" lon="13.2797648"><ele>162.75</ele><time>2026-04-25T08:07:27.507Z</time></trkpt><trkpt lat="43.4630213" lon="13.2796595"><ele>161.5</ele><time>2026-04-25T08:07:28.522Z</time></trkpt><trkpt lat="43.4629241" lon="13.2795103"><ele>160.25</ele><time>2026-04-25T08:07:29.504Z</time></trkpt><trkpt lat="43.462828" lon="13.2793401"><ele>159.0</ele><time>2026-04-25T08:07:30.51Z</time></trkpt><trkpt lat="43.4627327" lon="13.2791523"><ele>161.66666666666666</ele><time>2026-04-25T08:07:31.496Z</time></trkpt><trkpt lat="43.462657" lon="13.2789334"><ele>164.33333333333331</ele><time>2026-04-25T08:07:32.514Z</time></trkpt><trkpt lat="43.4625894" lon="13.2787249"><ele>167.0</ele><time>2026-04-25T08:07:33.504Z</time></trkpt><trkpt lat="43.462538" lon="13.2785156"><ele>167.0</ele><time>2026-04-25T08:07:34.508Z</time></trkpt><trkpt lat="43.462485" lon="13.2783623"><ele>167.0</ele><time>2026-04-25T08:07:35.515Z</time></trkpt><trkpt lat="43.4624329" lon="13.2782009"><ele>167.0</ele><time>2026-04-25T08:07:36.512Z</time></trkpt><trkpt lat="43.4623861" lon="13.2780698"><ele>167.0</ele><time>2026-04-25T08:07:37.516Z</time></trkpt><trkpt lat="43.4623507" lon="13.2779845"><ele>167.0</ele><time>2026-04-25T08:07:38.505Z</time></trkpt><trkpt lat="43.462283" lon="13.2779562"><ele>167.2</ele><time>2026-04-25T08:07:39.519Z</time></trkpt><trkpt lat="43.4621802" lon="13.2779605"><ele>167.39999999999998</ele><time>2026-04-25T08:07:40.512Z</time></trkpt><trkpt lat="43.4620888" lon="13.2780183"><ele>167.60000000000002</ele><time>2026-04-25T08:07:41.525Z</time></trkpt><trkpt lat="43.4620147" lon="13.2781154"><ele>167.8</ele><time>2026-04-25T08:07:42.515Z</time></trkpt><trkpt lat="43.461952" lon="13.2782504"><ele>168.0</ele><time>2026-04-25T08:07:43.512Z</time></trkpt><trkpt lat="43.46188" lon="13.2783893"><ele>163.75</ele><time>2026-04-25T08:07:44.508Z</time></trkpt><trkpt lat="43.4618056" lon="13.2785081"><ele>159.5</ele><time>2026-04-25T08:07:45.51Z</time></trkpt><trkpt lat="43.4617127" lon="13.2786053"><ele>155.25</ele><time>2026-04-25T08:07:46.512Z</time></trkpt><trkpt lat="43.4616085" lon="13.2786815"><ele>151.0</ele><time>2026-04-25T08:07:47.509Z</time></trkpt><trkpt lat="43.4614925" lon="13.2787511"><ele>151.0</ele><time>2026-04-25T08:07:48.523Z</time></trkpt><trkpt lat="43.4613904" lon="13.2787858"><ele>151.0</ele><time>2026-04-25T08:07:49.513Z</time></trkpt><trkpt lat="43.4612836" lon="13.2788045"><ele>151.0</ele><time>2026-04-25T08:07:50.516Z</time></trkpt><trkpt lat="43.4611651" lon="13.2787823"><ele>151.0</ele><time>2026-04-25T08:07:51.511Z</time></trkpt><trkpt lat="43.4610354" lon="13.2787318"><ele>150.4</ele><time>2026-04-25T08:07:52.507Z</time></trkpt><trkpt lat="43.4609134" lon="13.2786559"><ele>149.8</ele><time>2026-04-25T08:07:53.508Z</time></trkpt><trkpt lat="43.4608058" lon="13.2786009"><ele>149.20000000000002</ele><time>2026-04-25T08:07:54.503Z</time></trkpt><trkpt lat="43.4607137" lon="13.2785581"><ele>148.6</ele><time>2026-04-25T08:07:55.516Z</time></trkpt><trkpt lat="43.4606308" lon="13.2784886"><ele>148.0</ele><time>2026-04-25T08:07:56.515Z</time></trkpt><trkpt lat="43.4605502" lon="13.2783689"><ele>148.0</ele><time>2026-04-25T08:07:57.515Z</time></trkpt><trkpt lat="43.4604718" lon="13.2782174"><ele>148.0</ele><time>2026-04-25T08:07:58.511Z</time></trkpt><trkpt lat="43.4603922" lon="13.278066"><ele>148.0</ele><time>2026-04-25T08:07:59.516Z</time></trkpt><trkpt lat="43.4603085" lon="13.2778886"><ele>148.0</ele><time>2026-04-25T08:08:00.511Z</time></trkpt><trkpt lat="43.4602443" lon="13.2776638"><ele>149.66666666666669</ele><time>2026-04-25T08:08:01.51Z</time></trkpt><trkpt lat="43.4601643" lon="13.2774534"><ele>151.33333333333334</ele><time>2026-04-25T08:08:02.514Z</time></trkpt><trkpt lat="43.4600728" lon="13.2772441"><ele>153.0</ele><time>2026-04-25T08:08:03.516Z</time></trkpt><trkpt lat="43.459979" lon="13.2770415"><ele>154.0</ele><time>2026-04-25T08:08:04.521Z</time></trkpt><trkpt lat="43.4598896" lon="13.2768452"><ele>155.0</ele><time>2026-04-25T08:08:05.52Z</time></trkpt><trkpt lat="43.4598054" lon="13.2766594"><ele>156.0</ele><time>2026-04-25T08:08:06.511Z</time></trkpt><trkpt lat="43.4597185" lon="13.2764998"><ele>155.75</ele><time>2026-04-25T08:08:07.515Z</time></trkpt><trkpt lat="43.4596504" lon="13.276359"><ele>155.5</ele><time>2026-04-25T08:08:08.519Z</time></trkpt><trkpt lat="43.4595866" lon="13.2761902"><ele>155.25</ele><time>2026-04-25T08:08:09.52Z</time></trkpt><trkpt lat="43.459516" lon="13.2760144"><ele>155.0</ele><time>2026-04-25T08:08:10.52Z</time></trkpt><trkpt lat="43.4594536" lon="13.2758226"><ele>155.0</ele><time>2026-04-25T08:08:11.517Z</time></trkpt><trkpt lat="43.4594062" lon="13.2756252"><ele>155.0</ele><time>2026-04-25T08:08:12.527Z</time></trkpt><trkpt lat="43.4593519" lon="13.2754274"><ele>155.0</ele><time>2026-04-25T08:08:13.52Z</time></trkpt><trkpt lat="43.4592999" lon="13.2752526"><ele>155.0</ele><time>2026-04-25T08:08:14.519Z</time></trkpt><trkpt lat="43.4592585" lon="13.2750478"><ele>155.66666666666666</ele><time>2026-04-25T08:08:15.514Z</time></trkpt><trkpt lat="43.4592233" lon="13.274838"><ele>156.33333333333334</ele><time>2026-04-25T08:08:16.521Z</time></trkpt><trkpt lat="43.4592077" lon="13.2745986"><ele>157.0</ele><time>2026-04-25T08:08:17.517Z</time></trkpt><trkpt lat="43.4592058" lon="13.274368"><ele>157.33333333333334</ele><time>2026-04-25T08:08:18.52Z</time></trkpt><trkpt lat="43.4592082" lon="13.2741396"><ele>157.66666666666666</ele><time>2026-04-25T08:08:19.525Z</time></trkpt><trkpt lat="43.4592184" lon="13.2739177"><ele>158.0</ele><time>2026-04-25T08:08:20.515Z</time></trkpt><trkpt lat="43.4592509" lon="13.2736945"><ele>159.33333333333331</ele><time>2026-04-25T08:08:21.523Z</time></trkpt><trkpt lat="43.459261" lon="13.2735003"><ele>160.66666666666666</ele><time>2026-04-25T08:08:22.515Z</time></trkpt><trkpt lat="43.4592991" lon="13.2733047"><ele>162.0</ele><time>2026-04-25T08:08:23.514Z</time></trkpt><trkpt lat="43.4593467" lon="13.2730765"><ele>162.33333333333334</ele><time>2026-04-25T08:08:24.512Z</time></trkpt><trkpt lat="43.4593967" lon="13.2728702"><ele>162.66666666666669</ele><time>2026-04-25T08:08:25.519Z</time></trkpt><trkpt lat="43.4594616" lon="13.272647"><ele>163.0</ele><time>2026-04-25T08:08:26.513Z</time></trkpt><trkpt lat="43.4595028" lon="13.2724374"><ele>162.33333333333334</ele><time>2026-04-25T08:08:27.515Z</time></trkpt><trkpt lat="43.4595446" lon="13.2722206"><ele>161.66666666666666</ele><time>2026-04-25T08:08:28.508Z</time></trkpt><trkpt lat="43.459541" lon="13.2719692"><ele>161.0</ele><time>2026-04-25T08:08:29.513Z</time></trkpt><trkpt lat="43.4595753" lon="13.2717176"><ele>161.0</ele><time>2026-04-25T08:08:30.508Z</time></trkpt><trkpt lat="43.4596038" lon="13.2714843"><ele>161.0</ele><time>2026-04-25T08:08:31.519Z</time></trkpt><trkpt lat="43.4596313" lon="13.2712319"><ele>161.0</ele><time>2026-04-25T08:08:32.516Z</time></trkpt><trkpt lat="43.4596353" lon="13.2709867"><ele>162.0</ele><time>2026-04-25T08:08:33.517Z</time></trkpt><trkpt lat="43.4596206" lon="13.2707522"><ele>163.0</ele><time>2026-04-25T08:08:34.509Z</time></trkpt><trkpt lat="43.4595976" lon="13.2705412"><ele>164.0</ele><time>2026-04-25T08:08:35.516Z</time></trkpt><trkpt lat="43.4595737" lon="13.2703349"><ele>164.0</ele><time>2026-04-25T08:08:36.513Z</time></trkpt><trkpt lat="43.4595458" lon="13.2701161"><ele>164.0</ele><time>2026-04-25T08:08:37.522Z</time></trkpt><trkpt lat="43.4595222" lon="13.2699189"><ele>164.0</ele><time>2026-04-25T08:08:38.513Z</time></trkpt><trkpt lat="43.4594849" lon="13.2697223"><ele>165.0</ele><time>2026-04-25T08:08:39.519Z</time></trkpt><trkpt lat="43.4594391" lon="13.2695308"><ele>166.0</ele><time>2026-04-25T08:08:40.514Z</time></trkpt><trkpt lat="43.4593668" lon="13.2693685"><ele>167.0</ele><time>2026-04-25T08:08:41.515Z</time></trkpt><trkpt lat="43.4592587" lon="13.2692013"><ele>168.0</ele><time>2026-04-25T08:08:42.508Z</time></trkpt><trkpt lat="43.4591412" lon="13.2690559"><ele>167.66666666666666</ele><time>2026-04-25T08:08:43.527Z</time></trkpt><trkpt lat="43.4590118" lon="13.2689232"><ele>167.33333333333331</ele><time>2026-04-25T08:08:44.516Z</time></trkpt><trkpt lat="43.458884" lon="13.268782"><ele>167.0</ele><time>2026-04-25T08:08:45.52Z</time></trkpt><trkpt lat="43.4587443" lon="13.268648"><ele>167.0</ele><time>2026-04-25T08:08:46.518Z</time></trkpt><trkpt lat="43.4585991" lon="13.2684827"><ele>167.0</ele><time>2026-04-25T08:08:47.515Z</time></trkpt><trkpt lat="43.4584508" lon="13.2683243"><ele>167.0</ele><time>2026-04-25T08:08:48.517Z</time></trkpt><trkpt lat="43.4582952" lon="13.268161"><ele>167.33333333333331</ele><time>2026-04-25T08:08:49.521Z</time></trkpt><trkpt lat="43.4581246" lon="13.2680084"><ele>167.66666666666666</ele><time>2026-04-25T08:08:50.52Z</time></trkpt><trkpt lat="43.45797" lon="13.2678513"><ele>168.0</ele><time>2026-04-25T08:08:51.529Z</time></trkpt><trkpt lat="43.4578163" lon="13.2676883"><ele>168.0</ele><time>2026-04-25T08:08:52.524Z</time></trkpt><trkpt lat="43.457675" lon="13.2675167"><ele>168.0</ele><time>2026-04-25T08:08:53.527Z</time></trkpt><trkpt lat="43.4575295" lon="13.267332"><ele>168.0</ele><time>2026-04-25T08:08:54.513Z</time></trkpt><trkpt lat="43.457382" lon="13.2671499"><ele>167.66666666666666</ele><time>2026-04-25T08:08:55.519Z</time></trkpt><trkpt lat="43.4572469" lon="13.2669706"><ele>167.33333333333331</ele><time>2026-04-25T08:08:56.515Z</time></trkpt><trkpt lat="43.4571071" lon="13.2667884"><ele>167.0</ele><time>2026-04-25T08:08:57.514Z</time></trkpt><trkpt lat="43.4569662" lon="13.2666153"><ele>168.0</ele><time>2026-04-25T08:08:58.516Z</time></trkpt><trkpt lat="43.4568105" lon="13.2664201"><ele>169.0</ele><time>2026-04-25T08:08:59.51Z</time></trkpt><trkpt lat="43.4566748" lon="13.2662344"><ele>170.0</ele><time>2026-04-25T08:09:00.513Z</time></trkpt><trkpt lat="43.4565418" lon="13.2660445"><ele>170.0</ele><time>2026-04-25T08:09:01.518Z</time></trkpt><trkpt lat="43.4564021" lon="13.2658648"><ele>170.0</ele><time>2026-04-25T08:09:02.522Z</time></trkpt><trkpt lat="43.4562704" lon="13.2656915"><ele>170.0</ele><time>2026-04-25T08:09:03.518Z</time></trkpt><trkpt lat="43.4561157" lon="13.2655076"><ele>169.66666666666666</ele><time>2026-04-25T08:09:04.522Z</time></trkpt><trkpt lat="43.4559726" lon="13.265315"><ele>169.33333333333334</ele><time>2026-04-25T08:09:05.519Z</time></trkpt><trkpt lat="43.4558409" lon="13.2651217"><ele>169.0</ele><time>2026-04-25T08:09:06.519Z</time></trkpt><trkpt lat="43.455705" lon="13.2649378"><ele>169.66666666666669</ele><time>2026-04-25T08:09:07.521Z</time></trkpt><trkpt lat="43.4555637" lon="13.2647636"><ele>170.33333333333334</ele><time>2026-04-25T08:09:08.519Z</time></trkpt><trkpt lat="43.4554171" lon="13.2646016"><ele>171.0</ele><time>2026-04-25T08:09:09.522Z</time></trkpt><trkpt lat="43.455271" lon="13.2644181"><ele>171.0</ele><time>2026-04-25T08:09:10.517Z</time></trkpt><trkpt lat="43.4551339" lon="13.2642215"><ele>171.0</ele><time>2026-04-25T08:09:11.523Z</time></trkpt><trkpt lat="43.455007" lon="13.2640198"><ele>171.0</ele><time>2026-04-25T08:09:12.519Z</time></trkpt><trkpt lat="43.4548803" lon="13.2638186"><ele>171.0</ele><time>2026-04-25T08:09:13.524Z</time></trkpt><trkpt lat="43.4547565" lon="13.2636243"><ele>171.0</ele><time>2026-04-25T08:09:14.513Z</time></trkpt><trkpt lat="43.4546392" lon="13.2634371"><ele>171.0</ele><time>2026-04-25T08:09:15.511Z</time></trkpt><trkpt lat="43.4545197" lon="13.26326"><ele>172.0</ele><time>2026-04-25T08:09:16.51Z</time></trkpt><trkpt lat="43.4544041" lon="13.2630705"><ele>173.0</ele><time>2026-04-25T08:09:17.508Z</time></trkpt><trkpt lat="43.4542737" lon="13.26289"><ele>174.0</ele><time>2026-04-25T08:09:18.512Z</time></trkpt><trkpt lat="43.4541371" lon="13.2627298"><ele>174.0</ele><time>2026-04-25T08:09:19.502Z</time></trkpt><trkpt lat="43.4540249" lon="13.2625434"><ele>174.0</ele><time>2026-04-25T08:09:20.508Z</time></trkpt><trkpt lat="43.4539057" lon="13.262345"><ele>174.0</ele><time>2026-04-25T08:09:21.52Z</time></trkpt><trkpt lat="43.4537931" lon="13.2621884"><ele>173.33333333333334</ele><time>2026-04-25T08:09:22.507Z</time></trkpt><trkpt lat="43.453692" lon="13.262005"><ele>172.66666666666669</ele><time>2026-04-25T08:09:23.513Z</time></trkpt><trkpt lat="43.4535969" lon="13.2618009"><ele>172.0</ele><time>2026-04-25T08:09:24.511Z</time></trkpt><trkpt lat="43.4534841" lon="13.2616009"><ele>174.33333333333334</ele><time>2026-04-25T08:09:25.514Z</time></trkpt><trkpt lat="43.4533665" lon="13.2613954"><ele>176.66666666666666</ele><time>2026-04-25T08:09:26.513Z</time></trkpt><trkpt lat="43.453251" lon="13.2612175"><ele>179.0</ele><time>2026-04-25T08:09:27.511Z</time></trkpt><trkpt lat="43.4531309" lon="13.2610803"><ele>179.0</ele><time>2026-04-25T08:09:28.503Z</time></trkpt><trkpt lat="43.4530226" lon="13.2609514"><ele>179.0</ele><time>2026-04-25T08:09:29.503Z</time></trkpt><trkpt lat="43.4529355" lon="13.2608247"><ele>179.0</ele><time>2026-04-25T08:09:30.508Z</time></trkpt><trkpt lat="43.4528555" lon="13.2606562"><ele>179.0</ele><time>2026-04-25T08:09:31.514Z</time></trkpt><trkpt lat="43.4527855" lon="13.2604816"><ele>179.66666666666666</ele><time>2026-04-25T08:09:32.511Z</time></trkpt><trkpt lat="43.4526998" lon="13.2602729"><ele>180.33333333333334</ele><time>2026-04-25T08:09:33.515Z</time></trkpt><trkpt lat="43.45262" lon="13.2600472"><ele>181.0</ele><time>2026-04-25T08:09:34.502Z</time></trkpt><trkpt lat="43.4525411" lon="13.2598152"><ele>181.66666666666669</ele><time>2026-04-25T08:09:35.507Z</time></trkpt><trkpt lat="43.4524844" lon="13.2596201"><ele>182.33333333333334</ele><time>2026-04-25T08:09:36.506Z</time></trkpt><trkpt lat="43.4524051" lon="13.2593948"><ele>183.0</ele><time>2026-04-25T08:09:37.507Z</time></trkpt><trkpt lat="43.4523302" lon="13.2591729"><ele>183.0</ele><time>2026-04-25T08:09:38.506Z</time></trkpt><trkpt lat="43.4522502" lon="13.2589494"><ele>183.0</ele><time>2026-04-25T08:09:39.509Z</time></trkpt><trkpt lat="43.4521731" lon="13.2587329"><ele>183.0</ele><time>2026-04-25T08:09:40.507Z</time></trkpt><trkpt lat="43.4521006" lon="13.2585055"><ele>183.0</ele><time>2026-04-25T08:09:41.513Z</time></trkpt><trkpt lat="43.4520289" lon="13.258276"><ele>183.0</ele><time>2026-04-25T08:09:42.509Z</time></trkpt><trkpt lat="43.4519468" lon="13.2580553"><ele>183.0</ele><time>2026-04-25T08:09:43.508Z</time></trkpt><trkpt lat="43.4518889" lon="13.2578407"><ele>184.66666666666666</ele><time>2026-04-25T08:09:44.51Z</time></trkpt><trkpt lat="43.4518207" lon="13.2576312"><ele>186.33333333333331</ele><time>2026-04-25T08:09:45.513Z</time></trkpt><trkpt lat="43.4517626" lon="13.257427"><ele>188.0</ele><time>2026-04-25T08:09:46.514Z</time></trkpt><trkpt lat="43.451684" lon="13.2572248"><ele>190.25</ele><time>2026-04-25T08:09:47.514Z</time></trkpt><trkpt lat="43.4516109" lon="13.2570556"><ele>192.5</ele><time>2026-04-25T08:09:48.518Z</time></trkpt><trkpt lat="43.4515405" lon="13.2569177"><ele>194.75</ele><time>2026-04-25T08:09:49.517Z</time></trkpt><trkpt lat="43.4514512" lon="13.2567797"><ele>197.0</ele><time>2026-04-25T08:09:50.514Z</time></trkpt><trkpt lat="43.4513204" lon="13.2566605"><ele>196.66666666666669</ele><time>2026-04-25T08:09:51.511Z</time></trkpt><trkpt lat="43.4511769" lon="13.2565725"><ele>196.33333333333331</ele><time>2026-04-25T08:09:52.507Z</time></trkpt><trkpt lat="43.451051" lon="13.2564659"><ele>196.0</ele><time>2026-04-25T08:09:53.502Z</time></trkpt><trkpt lat="43.4508868" lon="13.2563366"><ele>196.0</ele><time>2026-04-25T08:09:54.516Z</time></trkpt><trkpt lat="43.4507146" lon="13.2562407"><ele>196.0</ele><time>2026-04-25T08:09:55.502Z</time></trkpt><trkpt lat="43.4505699" lon="13.256132"><ele>196.0</ele><time>2026-04-25T08:09:56.507Z</time></trkpt><trkpt lat="43.4504036" lon="13.2560105"><ele>194.0</ele><time>2026-04-25T08:09:57.509Z</time></trkpt><trkpt lat="43.4502489" lon="13.2559211"><ele>192.0</ele><time>2026-04-25T08:09:58.517Z</time></trkpt><trkpt lat="43.4500906" lon="13.2558346"><ele>190.0</ele><time>2026-04-25T08:09:59.513Z</time></trkpt><trkpt lat="43.4499283" lon="13.2557235"><ele>190.0</ele><time>2026-04-25T08:10:00.512Z</time></trkpt><trkpt lat="43.4497786" lon="13.2556117"><ele>190.0</ele><time>2026-04-25T08:10:01.511Z</time></trkpt><trkpt lat="43.4496135" lon="13.2555227"><ele>190.0</ele><time>2026-04-25T08:10:02.51Z</time></trkpt><trkpt lat="43.4494405" lon="13.2554193"><ele>190.0</ele><time>2026-04-25T08:10:03.507Z</time></trkpt><trkpt lat="43.4492777" lon="13.2553312"><ele>190.0</ele><time>2026-04-25T08:10:04.507Z</time></trkpt><trkpt lat="43.4491137" lon="13.2552286"><ele>190.0</ele><time>2026-04-25T08:10:05.514Z</time></trkpt><trkpt lat="43.4489636" lon="13.2551433"><ele>190.0</ele><time>2026-04-25T08:10:06.518Z</time></trkpt><trkpt lat="43.4488037" lon="13.2550431"><ele>190.0</ele><time>2026-04-25T08:10:07.513Z</time></trkpt><trkpt lat="43.4486458" lon="13.2549792"><ele>190.0</ele><time>2026-04-25T08:10:08.515Z</time></trkpt><trkpt lat="43.4485023" lon="13.2548906"><ele>189.0</ele><time>2026-04-25T08:10:09.511Z</time></trkpt><trkpt lat="43.4483892" lon="13.254779"><ele>188.0</ele><time>2026-04-25T08:10:10.517Z</time></trkpt><trkpt lat="43.4482476" lon="13.2546617"><ele>187.0</ele><time>2026-04-25T08:10:11.514Z</time></trkpt><trkpt lat="43.4481069" lon="13.254569"><ele>187.0</ele><time>2026-04-25T08:10:12.515Z</time></trkpt><trkpt lat="43.4479651" lon="13.2544725"><ele>187.0</ele><time>2026-04-25T08:10:13.513Z</time></trkpt><trkpt lat="43.4478368" lon="13.2543864"><ele>187.0</ele><time>2026-04-25T08:10:14.518Z</time></trkpt><trkpt lat="43.4477294" lon="13.2543008"><ele>187.0</ele><time>2026-04-25T08:10:15.52Z</time></trkpt><trkpt lat="43.4476048" lon="13.2542445"><ele>185.75</ele><time>2026-04-25T08:10:16.516Z</time></trkpt><trkpt lat="43.4474847" lon="13.2541704"><ele>184.5</ele><time>2026-04-25T08:10:17.515Z</time></trkpt><trkpt lat="43.4473769" lon="13.2541121"><ele>183.25</ele><time>2026-04-25T08:10:18.517Z</time></trkpt><trkpt lat="43.4472725" lon="13.2539961"><ele>182.0</ele><time>2026-04-25T08:10:19.512Z</time></trkpt><trkpt lat="43.4472005" lon="13.2538336"><ele>179.0</ele><time>2026-04-25T08:10:20.519Z</time></trkpt><trkpt lat="43.4471243" lon="13.2536825"><ele>176.0</ele><time>2026-04-25T08:10:21.515Z</time></trkpt><trkpt lat="43.447053" lon="13.253519"><ele>173.0</ele><time>2026-04-25T08:10:22.521Z</time></trkpt><trkpt lat="43.4469832" lon="13.2533645"><ele>170.0</ele><time>2026-04-25T08:10:23.521Z</time></trkpt><trkpt lat="43.4469094" lon="13.2532382"><ele>170.8</ele><time>2026-04-25T08:10:24.521Z</time></trkpt><trkpt lat="43.4468404" lon="13.2531218"><ele>171.6</ele><time>2026-04-25T08:10:25.52Z</time></trkpt><trkpt lat="43.4467737" lon="13.2530129"><ele>172.39999999999998</ele><time>2026-04-25T08:10:26.52Z</time></trkpt><trkpt lat="43.4467087" lon="13.2529135"><ele>173.2</ele><time>2026-04-25T08:10:27.516Z</time></trkpt><trkpt lat="43.4466423" lon="13.2528365"><ele>174.0</ele><time>2026-04-25T08:10:28.519Z</time></trkpt><trkpt lat="43.4465598" lon="13.2527798"><ele>174.0</ele><time>2026-04-25T08:10:29.508Z</time></trkpt><trkpt lat="43.4464815" lon="13.2527751"><ele>174.0</ele><time>2026-04-25T08:10:30.516Z</time></trkpt><trkpt lat="43.4463834" lon="13.2528013"><ele>174.0</ele><time>2026-04-25T08:10:31.506Z</time></trkpt><trkpt lat="43.4462835" lon="13.2528312"><ele>174.0</ele><time>2026-04-25T08:10:32.514Z</time></trkpt><trkpt lat="43.4461933" lon="13.2528953"><ele>174.0</ele><time>2026-04-25T08:10:33.518Z</time></trkpt><trkpt lat="43.4461149" lon="13.2529844"><ele>173.2</ele><time>2026-04-25T08:10:34.508Z</time></trkpt><trkpt lat="43.4460386" lon="13.2530816"><ele>172.39999999999998</ele><time>2026-04-25T08:10:35.506Z</time></trkpt><trkpt lat="43.4459601" lon="13.2531688"><ele>171.6</ele><time>2026-04-25T08:10:36.499Z</time></trkpt><trkpt lat="43.4458561" lon="13.2532385"><ele>170.8</ele><time>2026-04-25T08:10:37.517Z</time></trkpt><trkpt lat="43.4457339" lon="13.2532779"><ele>170.0</ele><time>2026-04-25T08:10:38.503Z</time></trkpt><trkpt lat="43.4456154" lon="13.2532905"><ele>170.5</ele><time>2026-04-25T08:10:39.511Z</time></trkpt><trkpt lat="43.4455054" lon="13.2532779"><ele>171.0</ele><time>2026-04-25T08:10:40.52Z</time></trkpt><trkpt lat="43.4453836" lon="13.2532308"><ele>171.5</ele><time>2026-04-25T08:10:41.51Z</time></trkpt><trkpt lat="43.4452565" lon="13.2531527"><ele>172.0</ele><time>2026-04-25T08:10:42.508Z</time></trkpt><trkpt lat="43.4451226" lon="13.2530529"><ele>172.0</ele><time>2026-04-25T08:10:43.512Z</time></trkpt><trkpt lat="43.4449883" lon="13.2529402"><ele>172.0</ele><time>2026-04-25T08:10:44.515Z</time></trkpt><trkpt lat="43.4448749" lon="13.2528209"><ele>172.0</ele><time>2026-04-25T08:10:45.513Z</time></trkpt><trkpt lat="43.4447752" lon="13.252711"><ele>172.0</ele><time>2026-04-25T08:10:46.522Z</time></trkpt><trkpt lat="43.4446744" lon="13.25263"><ele>173.0</ele><time>2026-04-25T08:10:47.513Z</time></trkpt><trkpt lat="43.4445904" lon="13.2525287"><ele>174.0</ele><time>2026-04-25T08:10:48.521Z</time></trkpt><trkpt lat="43.4445047" lon="13.252431"><ele>175.0</ele><time>2026-04-25T08:10:49.516Z</time></trkpt><trkpt lat="43.4444311" lon="13.2523314"><ele>176.0</ele><time>2026-04-25T08:10:50.522Z</time></trkpt><trkpt lat="43.444359" lon="13.252236"><ele>177.0</ele><time>2026-04-25T08:10:51.513Z</time></trkpt><trkpt lat="43.4442816" lon="13.2521523"><ele>179.0</ele><time>2026-04-25T08:10:52.513Z</time></trkpt><trkpt lat="43.4442091" lon="13.2520725"><ele>181.0</ele><time>2026-04-25T08:10:53.509Z</time></trkpt><trkpt lat="43.4441348" lon="13.2519893"><ele>183.0</ele><time>2026-04-25T08:10:54.519Z</time></trkpt><trkpt lat="43.4440468" lon="13.2518988"><ele>185.0</ele><time>2026-04-25T08:10:55.508Z</time></trkpt><trkpt lat="43.4439643" lon="13.2518071"><ele>187.0</ele><time>2026-04-25T08:10:56.506Z</time></trkpt><trkpt lat="43.44386" lon="13.2517047"><ele>187.5</ele><time>2026-04-25T08:10:57.506Z</time></trkpt><trkpt lat="43.4437497" lon="13.2516044"><ele>188.0</ele><time>2026-04-25T08:10:58.515Z</time></trkpt><trkpt lat="43.4436398" lon="13.2514914"><ele>188.5</ele><time>2026-04-25T08:10:59.496Z</time></trkpt><trkpt lat="43.4435339" lon="13.2513468"><ele>189.0</ele><time>2026-04-25T08:11:00.505Z</time></trkpt><trkpt lat="43.4434485" lon="13.2511826"><ele>189.66666666666666</ele><time>2026-04-25T08:11:01.505Z</time></trkpt><trkpt lat="43.4433459" lon="13.2510465"><ele>190.33333333333331</ele><time>2026-04-25T08:11:02.515Z</time></trkpt><trkpt lat="43.4432336" lon="13.2508845"><ele>191.0</ele><time>2026-04-25T08:11:03.517Z</time></trkpt><trkpt lat="43.4431253" lon="13.2507378"><ele>190.66666666666666</ele><time>2026-04-25T08:11:04.515Z</time></trkpt><trkpt lat="43.4430025" lon="13.250585"><ele>190.33333333333334</ele><time>2026-04-25T08:11:05.524Z</time></trkpt><trkpt lat="43.4428814" lon="13.2504316"><ele>190.0</ele><time>2026-04-25T08:11:06.518Z</time></trkpt><trkpt lat="43.4427619" lon="13.2502776"><ele>192.0</ele><time>2026-04-25T08:11:07.518Z</time></trkpt><trkpt lat="43.4426268" lon="13.2501194"><ele>194.0</ele><time>2026-04-25T08:11:08.514Z</time></trkpt><trkpt lat="43.4425046" lon="13.2499853"><ele>196.0</ele><time>2026-04-25T08:11:09.515Z</time></trkpt><trkpt lat="43.4423799" lon="13.2498448"><ele>196.0</ele><time>2026-04-25T08:11:10.514Z</time></trkpt><trkpt lat="43.4422483" lon="13.2496874"><ele>196.0</ele><time>2026-04-25T08:11:11.524Z</time></trkpt><trkpt lat="43.4421149" lon="13.2495266"><ele>196.0</ele><time>2026-04-25T08:11:12.512Z</time></trkpt><trkpt lat="43.4419892" lon="13.249363"><ele>196.0</ele><time>2026-04-25T08:11:13.519Z</time></trkpt><trkpt lat="43.4418819" lon="13.2492065"><ele>196.0</ele><time>2026-04-25T08:11:14.514Z</time></trkpt><trkpt lat="43.4417793" lon="13.249052"><ele>196.0</ele><time>2026-04-25T08:11:15.514Z</time></trkpt><trkpt lat="43.4416809" lon="13.2489052"><ele>196.75</ele><time>2026-04-25T08:11:16.52Z</time></trkpt><trkpt lat="43.4415797" lon="13.2487631"><ele>197.5</ele><time>2026-04-25T08:11:17.521Z</time></trkpt><trkpt lat="43.4414805" lon="13.248624"><ele>198.25</ele><time>2026-04-25T08:11:18.517Z</time></trkpt><trkpt lat="43.4413729" lon="13.2484755"><ele>199.0</ele><time>2026-04-25T08:11:19.509Z</time></trkpt><trkpt lat="43.441263" lon="13.2483185"><ele>199.0</ele><time>2026-04-25T08:11:20.51Z</time></trkpt><trkpt lat="43.441151" lon="13.2481564"><ele>199.0</ele><time>2026-04-25T08:11:21.513Z</time></trkpt><trkpt lat="43.4410517" lon="13.2479894"><ele>199.0</ele><time>2026-04-25T08:11:22.513Z</time></trkpt><trkpt lat="43.4409569" lon="13.2478272"><ele>200.0</ele><time>2026-04-25T08:11:23.514Z</time></trkpt><trkpt lat="43.4408562" lon="13.2476689"><ele>201.0</ele><time>2026-04-25T08:11:24.511Z</time></trkpt><trkpt lat="43.44077" lon="13.2475102"><ele>202.0</ele><time>2026-04-25T08:11:25.515Z</time></trkpt><trkpt lat="43.4406747" lon="13.2473432"><ele>201.75</ele><time>2026-04-25T08:11:26.506Z</time></trkpt><trkpt lat="43.4405788" lon="13.2471958"><ele>201.5</ele><time>2026-04-25T08:11:27.52Z</time></trkpt><trkpt lat="43.440477" lon="13.2470317"><ele>201.25</ele><time>2026-04-25T08:11:28.515Z</time></trkpt><trkpt lat="43.4403925" lon="13.2468895"><ele>201.0</ele><time>2026-04-25T08:11:29.51Z</time></trkpt><trkpt lat="43.4402979" lon="13.2467126"><ele>199.66666666666669</ele><time>2026-04-25T08:11:30.515Z</time></trkpt><trkpt lat="43.4402076" lon="13.2465242"><ele>198.33333333333334</ele><time>2026-04-25T08:11:31.507Z</time></trkpt><trkpt lat="43.4401139" lon="13.2463358"><ele>197.0</ele><time>2026-04-25T08:11:32.513Z</time></trkpt><trkpt lat="43.440018" lon="13.2461462"><ele>197.0</ele><time>2026-04-25T08:11:33.509Z</time></trkpt><trkpt lat="43.4399321" lon="13.24595"><ele>197.0</ele><time>2026-04-25T08:11:34.516Z</time></trkpt><trkpt lat="43.4398336" lon="13.2457566"><ele>197.0</ele><time>2026-04-25T08:11:35.508Z</time></trkpt><trkpt lat="43.439731" lon="13.2455721"><ele>197.0</ele><time>2026-04-25T08:11:36.512Z</time></trkpt><trkpt lat="43.4396424" lon="13.2454015"><ele>197.0</ele><time>2026-04-25T08:11:37.509Z</time></trkpt><trkpt lat="43.4395578" lon="13.2452399"><ele>197.0</ele><time>2026-04-25T08:11:38.515Z</time></trkpt><trkpt lat="43.4394724" lon="13.2450798"><ele>197.0</ele><time>2026-04-25T08:11:39.515Z</time></trkpt><trkpt lat="43.4393864" lon="13.2449093"><ele>198.25</ele><time>2026-04-25T08:11:40.514Z</time></trkpt><trkpt lat="43.4393268" lon="13.2447451"><ele>199.5</ele><time>2026-04-25T08:11:41.513Z</time></trkpt><trkpt lat="43.4392427" lon="13.2445828"><ele>200.75</ele><time>2026-04-25T08:11:42.513Z</time></trkpt><trkpt lat="43.4391475" lon="13.2444234"><ele>202.0</ele><time>2026-04-25T08:11:43.514Z</time></trkpt><trkpt lat="43.4390642" lon="13.2442894"><ele>202.0</ele><time>2026-04-25T08:11:44.514Z</time></trkpt><trkpt lat="43.4389984" lon="13.2441589"><ele>202.0</ele><time>2026-04-25T08:11:45.512Z</time></trkpt><trkpt lat="43.4389327" lon="13.2440534"><ele>202.0</ele><time>2026-04-25T08:11:46.51Z</time></trkpt><trkpt lat="43.4388604" lon="13.2439239"><ele>202.0</ele><time>2026-04-25T08:11:47.511Z</time></trkpt><trkpt lat="43.4388252" lon="13.2438377"><ele>202.0</ele><time>2026-04-25T08:11:48.513Z</time></trkpt><trkpt lat="43.4387464" lon="13.2437536"><ele>203.0</ele><time>2026-04-25T08:11:49.508Z</time></trkpt><trkpt lat="43.4386542" lon="13.2436622"><ele>204.0</ele><time>2026-04-25T08:11:50.5Z</time></trkpt><trkpt lat="43.438572" lon="13.2435743"><ele>205.0</ele><time>2026-04-25T08:11:51.499Z</time></trkpt><trkpt lat="43.4385025" lon="13.2434936"><ele>206.0</ele><time>2026-04-25T08:11:52.493Z</time></trkpt><trkpt lat="43.4384321" lon="13.2434105"><ele>207.0</ele><time>2026-04-25T08:11:53.502Z</time></trkpt><trkpt lat="43.438385" lon="13.2433161"><ele>207.0</ele><time>2026-04-25T08:11:54.488Z</time></trkpt><trkpt lat="43.4383371" lon="13.2432248"><ele>207.0</ele><time>2026-04-25T08:11:55.496Z</time></trkpt><trkpt lat="43.438291" lon="13.2431085"><ele>207.0</ele><time>2026-04-25T08:11:56.491Z</time></trkpt><trkpt lat="43.4382579" lon="13.2429622"><ele>207.0</ele><time>2026-04-25T08:11:57.488Z</time></trkpt><trkpt lat="43.4382223" lon="13.2428659"><ele>207.0</ele><time>2026-04-25T08:11:58.481Z</time></trkpt><trkpt lat="43.4383148" lon="13.242761"><ele>206.75</ele><time>2026-04-25T08:12:00.495Z</time></trkpt><trkpt lat="43.4383407" lon="13.242894"><ele>206.5</ele><time>2026-04-25T08:12:09.495Z</time></trkpt><trkpt lat="43.4382407" lon="13.2430035"><ele>206.25</ele><time>2026-04-25T08:12:14.513Z</time></trkpt><trkpt lat="43.4381729" lon="13.2430647"><ele>206.0</ele><time>2026-04-25T08:12:16.518Z</time></trkpt><trkpt lat="43.438062" lon="13.2429448"><ele>206.0</ele><time>2026-04-25T08:12:18.525Z</time></trkpt><trkpt lat="43.4380009" lon="13.2428328"><ele>206.0</ele><time>2026-04-25T08:12:19.521Z</time></trkpt><trkpt lat="43.4379282" lon="13.2427181"><ele>206.0</ele><time>2026-04-25T08:12:20.513Z</time></trkpt><trkpt lat="43.4378544" lon="13.2425643"><ele>206.0</ele><time>2026-04-25T08:12:21.511Z</time></trkpt><trkpt lat="43.4377747" lon="13.2423998"><ele>206.0</ele><time>2026-04-25T08:12:22.503Z</time></trkpt><trkpt lat="43.4376895" lon="13.2422394"><ele>206.0</ele><time>2026-04-25T08:12:23.509Z</time></trkpt><trkpt lat="43.4376037" lon="13.2420831"><ele>206.0</ele><time>2026-04-25T08:12:24.512Z</time></trkpt><trkpt lat="43.4375168" lon="13.2419287"><ele>206.0</ele><time>2026-04-25T08:12:25.513Z</time></trkpt><trkpt lat="43.4374212" lon="13.2417453"><ele>206.0</ele><time>2026-04-25T08:12:26.52Z</time></trkpt><trkpt lat="43.4373482" lon="13.2415953"><ele>206.0</ele><time>2026-04-25T08:12:27.508Z</time></trkpt><trkpt lat="43.4372543" lon="13.2414727"><ele>206.0</ele><time>2026-04-25T08:12:28.512Z</time></trkpt><trkpt lat="43.4371397" lon="13.2413052"><ele>206.0</ele><time>2026-04-25T08:12:29.511Z</time></trkpt><trkpt lat="43.437056" lon="13.2411373"><ele>206.0</ele><time>2026-04-25T08:12:30.51Z</time></trkpt><trkpt lat="43.4369392" lon="13.2409392"><ele>206.0</ele><time>2026-04-25T08:12:31.509Z</time></trkpt><trkpt lat="43.4368497" lon="13.2407461"><ele>206.0</ele><time>2026-04-25T08:12:32.517Z</time></trkpt><trkpt lat="43.4367671" lon="13.2405029"><ele>206.5</ele><time>2026-04-25T08:12:33.514Z</time></trkpt><trkpt lat="43.4366508" lon="13.2403719"><ele>207.0</ele><time>2026-04-25T08:12:34.51Z</time></trkpt><trkpt lat="43.436537" lon="13.2402952"><ele>207.5</ele><time>2026-04-25T08:12:35.518Z</time></trkpt><trkpt lat="43.4364343" lon="13.2401613"><ele>208.0</ele><time>2026-04-25T08:12:36.513Z</time></trkpt><trkpt lat="43.4363452" lon="13.2400093"><ele>208.33333333333331</ele><time>2026-04-25T08:12:37.507Z</time></trkpt><trkpt lat="43.4362487" lon="13.2398193"><ele>208.66666666666669</ele><time>2026-04-25T08:12:38.516Z</time></trkpt><trkpt lat="43.4361625" lon="13.2396199"><ele>209.0</ele><time>2026-04-25T08:12:39.517Z</time></trkpt><trkpt lat="43.4360993" lon="13.2394094"><ele>209.0</ele><time>2026-04-25T08:12:40.523Z</time></trkpt><trkpt lat="43.4360123" lon="13.2391963"><ele>209.0</ele><time>2026-04-25T08:12:41.525Z</time></trkpt><trkpt lat="43.4359221" lon="13.239"><ele>209.0</ele><time>2026-04-25T08:12:42.519Z</time></trkpt><trkpt lat="43.4358208" lon="13.2388234"><ele>211.33333333333334</ele><time>2026-04-25T08:12:43.52Z</time></trkpt><trkpt lat="43.4357174" lon="13.2386298"><ele>213.66666666666669</ele><time>2026-04-25T08:12:44.519Z</time></trkpt><trkpt lat="43.4356222" lon="13.2384379"><ele>216.0</ele><time>2026-04-25T08:12:45.524Z</time></trkpt><trkpt lat="43.4355353" lon="13.2382524"><ele>214.0</ele><time>2026-04-25T08:12:46.519Z</time></trkpt><trkpt lat="43.435462" lon="13.2380606"><ele>212.0</ele><time>2026-04-25T08:12:47.518Z</time></trkpt><trkpt lat="43.4353634" lon="13.2378607"><ele>210.0</ele><time>2026-04-25T08:12:48.516Z</time></trkpt><trkpt lat="43.4352866" lon="13.2376629"><ele>210.0</ele><time>2026-04-25T08:12:49.508Z</time></trkpt><trkpt lat="43.4351994" lon="13.2374898"><ele>210.0</ele><time>2026-04-25T08:12:50.521Z</time></trkpt><trkpt lat="43.4350926" lon="13.237303"><ele>210.0</ele><time>2026-04-25T08:12:51.509Z</time></trkpt><trkpt lat="43.4350069" lon="13.2371358"><ele>209.5</ele><time>2026-04-25T08:12:52.519Z</time></trkpt><trkpt lat="43.4349099" lon="13.2369744"><ele>209.0</ele><time>2026-04-25T08:12:53.512Z</time></trkpt><trkpt lat="43.434825" lon="13.2368416"><ele>208.5</ele><time>2026-04-25T08:12:54.512Z</time></trkpt><trkpt lat="43.4347026" lon="13.2367142"><ele>208.0</ele><time>2026-04-25T08:12:55.518Z</time></trkpt><trkpt lat="43.4345707" lon="13.2366175"><ele>208.0</ele><time>2026-04-25T08:12:56.517Z</time></trkpt><trkpt lat="43.4344232" lon="13.2365281"><ele>208.0</ele><time>2026-04-25T08:12:57.521Z</time></trkpt><trkpt lat="43.4342728" lon="13.2364797"><ele>208.0</ele><time>2026-04-25T08:12:58.516Z</time></trkpt><trkpt lat="43.4341196" lon="13.2364331"><ele>206.5</ele><time>2026-04-25T08:12:59.521Z</time></trkpt><trkpt lat="43.4339795" lon="13.2363811"><ele>205.0</ele><time>2026-04-25T08:13:00.522Z</time></trkpt><trkpt lat="43.433837" lon="13.2363633"><ele>203.5</ele><time>2026-04-25T08:13:01.513Z</time></trkpt><trkpt lat="43.4336898" lon="13.2363524"><ele>202.0</ele><time>2026-04-25T08:13:02.517Z</time></trkpt><trkpt lat="43.4335498" lon="13.23625"><ele>202.0</ele><time>2026-04-25T08:13:03.516Z</time></trkpt><trkpt lat="43.4334315" lon="13.2361159"><ele>202.0</ele><time>2026-04-25T08:13:04.521Z</time></trkpt><trkpt lat="43.4333649" lon="13.2359943"><ele>202.0</ele><time>2026-04-25T08:13:05.516Z</time></trkpt><trkpt lat="43.4333308" lon="13.2358506"><ele>202.0</ele><time>2026-04-25T08:13:06.52Z</time></trkpt><trkpt lat="43.4333043" lon="13.2356495"><ele>201.0</ele><time>2026-04-25T08:13:07.509Z</time></trkpt><trkpt lat="43.4332902" lon="13.2354192"><ele>200.0</ele><time>2026-04-25T08:13:08.514Z</time></trkpt><trkpt lat="43.4332732" lon="13.2351811"><ele>199.0</ele><time>2026-04-25T08:13:09.505Z</time></trkpt><trkpt lat="43.4332529" lon="13.2349384"><ele>197.33333333333331</ele><time>2026-04-25T08:13:10.51Z</time></trkpt><trkpt lat="43.4332379" lon="13.2346922"><ele>195.66666666666669</ele><time>2026-04-25T08:13:11.512Z</time></trkpt><trkpt lat="43.4332239" lon="13.2344482"><ele>194.0</ele><time>2026-04-25T08:13:12.513Z</time></trkpt><trkpt lat="43.4332006" lon="13.2341947"><ele>194.0</ele><time>2026-04-25T08:13:13.515Z</time></trkpt><trkpt lat="43.4331818" lon="13.2339497"><ele>194.0</ele><time>2026-04-25T08:13:14.522Z</time></trkpt><trkpt lat="43.43316" lon="13.2337059"><ele>194.0</ele><time>2026-04-25T08:13:15.51Z</time></trkpt><trkpt lat="43.4331452" lon="13.2334748"><ele>194.0</ele><time>2026-04-25T08:13:16.522Z</time></trkpt><trkpt lat="43.4331383" lon="13.233259"><ele>194.0</ele><time>2026-04-25T08:13:17.512Z</time></trkpt><trkpt lat="43.4331371" lon="13.2330664"><ele>194.0</ele><time>2026-04-25T08:13:18.505Z</time></trkpt><trkpt lat="43.4331454" lon="13.2328828"><ele>194.0</ele><time>2026-04-25T08:13:19.51Z</time></trkpt><trkpt lat="43.4331465" lon="13.2327401"><ele>193.75</ele><time>2026-04-25T08:13:20.504Z</time></trkpt><trkpt lat="43.4331004" lon="13.2326188"><ele>193.5</ele><time>2026-04-25T08:13:21.517Z</time></trkpt><trkpt lat="43.4330286" lon="13.2324829"><ele>193.25</ele><time>2026-04-25T08:13:22.505Z</time></trkpt><trkpt lat="43.4329262" lon="13.2323457"><ele>193.0</ele><time>2026-04-25T08:13:23.506Z</time></trkpt><trkpt lat="43.4327887" lon="13.2322817"><ele>191.0</ele><time>2026-04-25T08:13:24.516Z</time></trkpt><trkpt lat="43.4326585" lon="13.2322105"><ele>189.0</ele><time>2026-04-25T08:13:25.514Z</time></trkpt><trkpt lat="43.4325115" lon="13.232146"><ele>187.0</ele><time>2026-04-25T08:13:26.518Z</time></trkpt><trkpt lat="43.4323531" lon="13.2320801"><ele>187.0</ele><time>2026-04-25T08:13:27.51Z</time></trkpt><trkpt lat="43.4321937" lon="13.2320238"><ele>187.0</ele><time>2026-04-25T08:13:28.52Z</time></trkpt><trkpt lat="43.4320231" lon="13.2319542"><ele>187.0</ele><time>2026-04-25T08:13:29.512Z</time></trkpt><trkpt lat="43.4318423" lon="13.2318951"><ele>186.33333333333334</ele><time>2026-04-25T08:13:30.514Z</time></trkpt><trkpt lat="43.4316638" lon="13.231833"><ele>185.66666666666666</ele><time>2026-04-25T08:13:31.511Z</time></trkpt><trkpt lat="43.4314953" lon="13.2317686"><ele>185.0</ele><time>2026-04-25T08:13:32.516Z</time></trkpt><trkpt lat="43.4313218" lon="13.231715"><ele>186.0</ele><time>2026-04-25T08:13:33.51Z</time></trkpt><trkpt lat="43.431155" lon="13.231667"><ele>187.0</ele><time>2026-04-25T08:13:34.527Z</time></trkpt><trkpt lat="43.4309854" lon="13.2316342"><ele>188.0</ele><time>2026-04-25T08:13:35.511Z</time></trkpt><trkpt lat="43.4308087" lon="13.2315882"><ele>188.0</ele><time>2026-04-25T08:13:36.51Z</time></trkpt><trkpt lat="43.4306302" lon="13.2315528"><ele>188.0</ele><time>2026-04-25T08:13:37.508Z</time></trkpt><trkpt lat="43.430453" lon="13.2315255"><ele>188.0</ele><time>2026-04-25T08:13:38.511Z</time></trkpt><trkpt lat="43.430278" lon="13.2314777"><ele>188.33333333333331</ele><time>2026-04-25T08:13:39.511Z</time></trkpt><trkpt lat="43.4301146" lon="13.2314659"><ele>188.66666666666666</ele><time>2026-04-25T08:13:40.51Z</time></trkpt><trkpt lat="43.4299566" lon="13.231437"><ele>189.0</ele><time>2026-04-25T08:13:41.509Z</time></trkpt><trkpt lat="43.4297773" lon="13.2314063"><ele>189.66666666666666</ele><time>2026-04-25T08:13:42.512Z</time></trkpt><trkpt lat="43.429538" lon="13.2313999"><ele>190.33333333333331</ele><time>2026-04-25T08:13:43.521Z</time></trkpt><trkpt lat="43.4293367" lon="13.2314203"><ele>191.0</ele><time>2026-04-25T08:13:44.512Z</time></trkpt><trkpt lat="43.4291399" lon="13.2314275"><ele>191.0</ele><time>2026-04-25T08:13:45.508Z</time></trkpt><trkpt lat="43.4289546" lon="13.231421"><ele>191.0</ele><time>2026-04-25T08:13:46.512Z</time></trkpt><trkpt lat="43.4287567" lon="13.2314417"><ele>191.0</ele><time>2026-04-25T08:13:47.514Z</time></trkpt><trkpt lat="43.4285619" lon="13.2314492"><ele>191.33333333333331</ele><time>2026-04-25T08:13:48.521Z</time></trkpt><trkpt lat="43.4283678" lon="13.2314533"><ele>191.66666666666666</ele><time>2026-04-25T08:13:49.515Z</time></trkpt><trkpt lat="43.4281781" lon="13.2314489"><ele>192.0</ele><time>2026-04-25T08:13:50.517Z</time></trkpt><trkpt lat="43.4279966" lon="13.2314424"><ele>190.66666666666666</ele><time>2026-04-25T08:13:51.509Z</time></trkpt><trkpt lat="43.4277777" lon="13.2314573"><ele>189.33333333333331</ele><time>2026-04-25T08:13:52.51Z</time></trkpt><trkpt lat="43.4275723" lon="13.2314485"><ele>188.0</ele><time>2026-04-25T08:13:53.496Z</time></trkpt><trkpt lat="43.427366" lon="13.2314508"><ele>188.0</ele><time>2026-04-25T08:13:54.51Z</time></trkpt><trkpt lat="43.4271715" lon="13.2314606"><ele>188.0</ele><time>2026-04-25T08:13:55.51Z</time></trkpt><trkpt lat="43.4269909" lon="13.2314418"><ele>188.0</ele><time>2026-04-25T08:13:56.516Z</time></trkpt><trkpt lat="43.4267916" lon="13.2314343"><ele>189.0</ele><time>2026-04-25T08:13:57.518Z</time></trkpt><trkpt lat="43.4266048" lon="13.2314434"><ele>190.0</ele><time>2026-04-25T08:13:58.522Z</time></trkpt><trkpt lat="43.4264166" lon="13.2314389"><ele>191.0</ele><time>2026-04-25T08:13:59.52Z</time></trkpt><trkpt lat="43.4262266" lon="13.2314335"><ele>192.66666666666666</ele><time>2026-04-25T08:14:00.514Z</time></trkpt><trkpt lat="43.4260394" lon="13.2314222"><ele>194.33333333333331</ele><time>2026-04-25T08:14:01.517Z</time></trkpt><trkpt lat="43.4258455" lon="13.2314219"><ele>196.0</ele><time>2026-04-25T08:14:02.514Z</time></trkpt><trkpt lat="43.4256596" lon="13.2314049"><ele>198.0</ele><time>2026-04-25T08:14:03.517Z</time></trkpt><trkpt lat="43.425478" lon="13.2313746"><ele>200.0</ele><time>2026-04-25T08:14:04.518Z</time></trkpt><trkpt lat="43.4252861" lon="13.2313532"><ele>202.0</ele><time>2026-04-25T08:14:05.518Z</time></trkpt><trkpt lat="43.4250905" lon="13.231345"><ele>202.0</ele><time>2026-04-25T08:14:06.519Z</time></trkpt><trkpt lat="43.4248899" lon="13.2313298"><ele>202.0</ele><time>2026-04-25T08:14:07.503Z</time></trkpt><trkpt lat="43.4247172" lon="13.2312975"><ele>202.0</ele><time>2026-04-25T08:14:08.514Z</time></trkpt><trkpt lat="43.4245252" lon="13.2312866"><ele>203.0</ele><time>2026-04-25T08:14:09.515Z</time></trkpt><trkpt lat="43.4243324" lon="13.2312722"><ele>204.0</ele><time>2026-04-25T08:14:10.511Z</time></trkpt><trkpt lat="43.4241547" lon="13.23125"><ele>205.0</ele><time>2026-04-25T08:14:11.518Z</time></trkpt><trkpt lat="43.4239861" lon="13.2312223"><ele>207.66666666666666</ele><time>2026-04-25T08:14:12.514Z</time></trkpt><trkpt lat="43.423792" lon="13.2311983"><ele>210.33333333333331</ele><time>2026-04-25T08:14:13.52Z</time></trkpt><trkpt lat="43.4236225" lon="13.2311473"><ele>213.0</ele><time>2026-04-25T08:14:14.518Z</time></trkpt><trkpt lat="43.4234489" lon="13.2310946"><ele>213.0</ele><time>2026-04-25T08:14:15.52Z</time></trkpt><trkpt lat="43.4233064" lon="13.2310153"><ele>213.0</ele><time>2026-04-25T08:14:16.517Z</time></trkpt><trkpt lat="43.4231426" lon="13.2309424"><ele>213.0</ele><time>2026-04-25T08:14:17.521Z</time></trkpt><trkpt lat="43.4229876" lon="13.2308607"><ele>215.66666666666669</ele><time>2026-04-25T08:14:18.525Z</time></trkpt><trkpt lat="43.4228292" lon="13.2307645"><ele>218.33333333333334</ele><time>2026-04-25T08:14:19.524Z</time></trkpt><trkpt lat="43.4226608" lon="13.2306456"><ele>221.0</ele><time>2026-04-25T08:14:20.522Z</time></trkpt><trkpt lat="43.4225077" lon="13.2305129"><ele>221.33333333333334</ele><time>2026-04-25T08:14:21.516Z</time></trkpt><trkpt lat="43.422363" lon="13.2303879"><ele>221.66666666666669</ele><time>2026-04-25T08:14:22.518Z</time></trkpt><trkpt lat="43.4222232" lon="13.2302467"><ele>222.0</ele><time>2026-04-25T08:14:23.521Z</time></trkpt><trkpt lat="43.4220883" lon="13.2301068"><ele>223.0</ele><time>2026-04-25T08:14:24.515Z</time></trkpt><trkpt lat="43.4219521" lon="13.2299319"><ele>224.0</ele><time>2026-04-25T08:14:25.519Z</time></trkpt><trkpt lat="43.4218302" lon="13.2297347"><ele>225.0</ele><time>2026-04-25T08:14:26.515Z</time></trkpt><trkpt lat="43.4217065" lon="13.2295542"><ele>225.0</ele><time>2026-04-25T08:14:27.526Z</time></trkpt><trkpt lat="43.4215913" lon="13.2293689"><ele>225.0</ele><time>2026-04-25T08:14:28.523Z</time></trkpt><trkpt lat="43.421473" lon="13.2291803"><ele>225.0</ele><time>2026-04-25T08:14:29.515Z</time></trkpt><trkpt lat="43.4213721" lon="13.2289708"><ele>228.0</ele><time>2026-04-25T08:14:30.521Z</time></trkpt><trkpt lat="43.4212904" lon="13.2287276"><ele>231.0</ele><time>2026-04-25T08:14:31.515Z</time></trkpt><trkpt lat="43.4212084" lon="13.2285187"><ele>234.0</ele><time>2026-04-25T08:14:32.52Z</time></trkpt><trkpt lat="43.4211271" lon="13.2282906"><ele>232.66666666666669</ele><time>2026-04-25T08:14:33.511Z</time></trkpt><trkpt lat="43.4210606" lon="13.2280487"><ele>231.33333333333334</ele><time>2026-04-25T08:14:34.517Z</time></trkpt><trkpt lat="43.4209774" lon="13.2278141"><ele>230.0</ele><time>2026-04-25T08:14:35.517Z</time></trkpt><trkpt lat="43.4208894" lon="13.2275919"><ele>230.0</ele><time>2026-04-25T08:14:36.517Z</time></trkpt><trkpt lat="43.4208132" lon="13.2273827"><ele>230.0</ele><time>2026-04-25T08:14:37.497Z</time></trkpt><trkpt lat="43.4207351" lon="13.2271935"><ele>230.0</ele><time>2026-04-25T08:14:38.512Z</time></trkpt><trkpt lat="43.4206364" lon="13.2270108"><ele>229.33333333333334</ele><time>2026-04-25T08:14:39.521Z</time></trkpt><trkpt lat="43.4205309" lon="13.2268399"><ele>228.66666666666669</ele><time>2026-04-25T08:14:40.518Z</time></trkpt><trkpt lat="43.4204323" lon="13.2266771"><ele>228.0</ele><time>2026-04-25T08:14:41.522Z</time></trkpt><trkpt lat="43.4203189" lon="13.2265313"><ele>228.75</ele><time>2026-04-25T08:14:42.517Z</time></trkpt><trkpt lat="43.4202039" lon="13.226402"><ele>229.5</ele><time>2026-04-25T08:14:43.517Z</time></trkpt><trkpt lat="43.4200937" lon="13.2262802"><ele>230.25</ele><time>2026-04-25T08:14:44.516Z</time></trkpt><trkpt lat="43.4199729" lon="13.2261616"><ele>231.0</ele><time>2026-04-25T08:14:45.524Z</time></trkpt><trkpt lat="43.4198639" lon="13.2260183"><ele>231.0</ele><time>2026-04-25T08:14:46.518Z</time></trkpt><trkpt lat="43.4197401" lon="13.2258863"><ele>231.0</ele><time>2026-04-25T08:14:47.519Z</time></trkpt><trkpt lat="43.4196018" lon="13.225759"><ele>231.0</ele><time>2026-04-25T08:14:48.519Z</time></trkpt><trkpt lat="43.4194672" lon="13.2256356"><ele>231.33333333333331</ele><time>2026-04-25T08:14:49.525Z</time></trkpt><trkpt lat="43.4193402" lon="13.2255031"><ele>231.66666666666666</ele><time>2026-04-25T08:14:50.518Z</time></trkpt><trkpt lat="43.4192245" lon="13.2253688"><ele>232.0</ele><time>2026-04-25T08:14:51.521Z</time></trkpt><trkpt lat="43.4191019" lon="13.2252218"><ele>232.0</ele><time>2026-04-25T08:14:52.516Z</time></trkpt><trkpt lat="43.4189799" lon="13.2250564"><ele>232.0</ele><time>2026-04-25T08:14:53.517Z</time></trkpt><trkpt lat="43.4188781" lon="13.2248684"><ele>232.0</ele><time>2026-04-25T08:14:54.516Z</time></trkpt><trkpt lat="43.4187873" lon="13.2246802"><ele>234.33333333333331</ele><time>2026-04-25T08:14:55.514Z</time></trkpt><trkpt lat="43.4186839" lon="13.2244643"><ele>236.66666666666669</ele><time>2026-04-25T08:14:56.514Z</time></trkpt><trkpt lat="43.418587" lon="13.224223"><ele>239.0</ele><time>2026-04-25T08:14:57.512Z</time></trkpt><trkpt lat="43.4185036" lon="13.2240012"><ele>238.33333333333334</ele><time>2026-04-25T08:14:58.517Z</time></trkpt><trkpt lat="43.4184056" lon="13.2237893"><ele>237.66666666666669</ele><time>2026-04-25T08:14:59.51Z</time></trkpt><trkpt lat="43.4182955" lon="13.2235461"><ele>237.0</ele><time>2026-04-25T08:15:00.513Z</time></trkpt><trkpt lat="43.4181768" lon="13.2233005"><ele>236.33333333333331</ele><time>2026-04-25T08:15:01.513Z</time></trkpt><trkpt lat="43.4180777" lon="13.2230553"><ele>235.66666666666666</ele><time>2026-04-25T08:15:02.518Z</time></trkpt><trkpt lat="43.4179817" lon="13.2228221"><ele>235.0</ele><time>2026-04-25T08:15:03.512Z</time></trkpt><trkpt lat="43.4178645" lon="13.2225601"><ele>235.66666666666666</ele><time>2026-04-25T08:15:04.517Z</time></trkpt><trkpt lat="43.4177581" lon="13.2222949"><ele>236.33333333333331</ele><time>2026-04-25T08:15:05.514Z</time></trkpt><trkpt lat="43.417662" lon="13.2220404"><ele>237.0</ele><time>2026-04-25T08:15:06.514Z</time></trkpt><trkpt lat="43.4175753" lon="13.2217852"><ele>237.0</ele><time>2026-04-25T08:15:07.512Z</time></trkpt><trkpt lat="43.4174892" lon="13.2215232"><ele>237.0</ele><time>2026-04-25T08:15:08.506Z</time></trkpt><trkpt lat="43.41738" lon="13.2212559"><ele>237.0</ele><time>2026-04-25T08:15:09.501Z</time></trkpt><trkpt lat="43.4172782" lon="13.22102"><ele>237.0</ele><time>2026-04-25T08:15:10.508Z</time></trkpt><trkpt lat="43.4171675" lon="13.2207593"><ele>237.0</ele><time>2026-04-25T08:15:11.508Z</time></trkpt><trkpt lat="43.4170555" lon="13.2204986"><ele>237.0</ele><time>2026-04-25T08:15:12.504Z</time></trkpt><trkpt lat="43.4169373" lon="13.2202271"><ele>237.0</ele><time>2026-04-25T08:15:13.509Z</time></trkpt><trkpt lat="43.4168282" lon="13.2199595"><ele>237.0</ele><time>2026-04-25T08:15:14.508Z</time></trkpt><trkpt lat="43.4167359" lon="13.2197237"><ele>237.0</ele><time>2026-04-25T08:15:15.507Z</time></trkpt><trkpt lat="43.416655" lon="13.2194846"><ele>236.66666666666669</ele><time>2026-04-25T08:15:16.509Z</time></trkpt><trkpt lat="43.4165605" lon="13.219268"><ele>236.33333333333334</ele><time>2026-04-25T08:15:17.506Z</time></trkpt><trkpt lat="43.4164905" lon="13.2190692"><ele>236.0</ele><time>2026-04-25T08:15:18.514Z</time></trkpt><trkpt lat="43.4164515" lon="13.2188475"><ele>236.0</ele><time>2026-04-25T08:15:19.512Z</time></trkpt><trkpt lat="43.4164111" lon="13.218586"><ele>236.0</ele><time>2026-04-25T08:15:20.514Z</time></trkpt><trkpt lat="43.4163731" lon="13.2183013"><ele>236.0</ele><time>2026-04-25T08:15:21.513Z</time></trkpt><trkpt lat="43.4163451" lon="13.2179971"><ele>236.33333333333334</ele><time>2026-04-25T08:15:22.511Z</time></trkpt><trkpt lat="43.416304" lon="13.2177058"><ele>236.66666666666669</ele><time>2026-04-25T08:15:23.508Z</time></trkpt><trkpt lat="43.4162886" lon="13.2174436"><ele>237.0</ele><time>2026-04-25T08:15:24.509Z</time></trkpt><trkpt lat="43.4162729" lon="13.2172069"><ele>237.33333333333331</ele><time>2026-04-25T08:15:25.512Z</time></trkpt><trkpt lat="43.416245" lon="13.2169752"><ele>237.66666666666666</ele><time>2026-04-25T08:15:26.509Z</time></trkpt><trkpt lat="43.416233" lon="13.2167671"><ele>238.0</ele><time>2026-04-25T08:15:27.508Z</time></trkpt><trkpt lat="43.4162069" lon="13.2165684"><ele>237.75</ele><time>2026-04-25T08:15:28.512Z</time></trkpt><trkpt lat="43.4161865" lon="13.2163889"><ele>237.5</ele><time>2026-04-25T08:15:29.508Z</time></trkpt><trkpt lat="43.4161772" lon="13.216212"><ele>237.25</ele><time>2026-04-25T08:15:30.511Z</time></trkpt><trkpt lat="43.4161653" lon="13.2160525"><ele>237.0</ele><time>2026-04-25T08:15:31.503Z</time></trkpt><trkpt lat="43.4161481" lon="13.2159132"><ele>237.0</ele><time>2026-04-25T08:15:32.516Z</time></trkpt><trkpt lat="43.4161432" lon="13.2157977"><ele>237.0</ele><time>2026-04-25T08:15:33.505Z</time></trkpt><trkpt lat="43.4161539" lon="13.215691"><ele>237.0</ele><time>2026-04-25T08:15:34.505Z</time></trkpt><trkpt lat="43.4161713" lon="13.2155837"><ele>237.0</ele><time>2026-04-25T08:15:35.503Z</time></trkpt><trkpt lat="43.4162028" lon="13.2154454"><ele>237.0</ele><time>2026-04-25T08:15:37.51Z</time></trkpt><trkpt lat="43.4161999" lon="13.2153484"><ele>237.0</ele><time>2026-04-25T08:15:39.507Z</time></trkpt><trkpt lat="43.4161114" lon="13.2152456"><ele>237.0</ele><time>2026-04-25T08:15:41.509Z</time></trkpt><trkpt lat="43.4160443" lon="13.2151969"><ele>237.0</ele><time>2026-04-25T08:15:42.501Z</time></trkpt><trkpt lat="43.4159621" lon="13.2151464"><ele>237.0</ele><time>2026-04-25T08:15:43.504Z</time></trkpt><trkpt lat="43.4158664" lon="13.2151005"><ele>237.0</ele><time>2026-04-25T08:15:44.506Z</time></trkpt><trkpt lat="43.4157532" lon="13.2150396"><ele>237.0</ele><time>2026-04-25T08:15:45.506Z</time></trkpt><trkpt lat="43.4156257" lon="13.2149897"><ele>237.0</ele><time>2026-04-25T08:15:46.506Z</time></trkpt><trkpt lat="43.4154973" lon="13.2149371"><ele>237.0</ele><time>2026-04-25T08:15:47.512Z</time></trkpt><trkpt lat="43.415376" lon="13.2148757"><ele>237.0</ele><time>2026-04-25T08:15:48.515Z</time></trkpt><trkpt lat="43.4152506" lon="13.2148216"><ele>237.0</ele><time>2026-04-25T08:15:49.505Z</time></trkpt><trkpt lat="43.4150978" lon="13.2147742"><ele>237.0</ele><time>2026-04-25T08:15:50.513Z</time></trkpt><trkpt lat="43.414945" lon="13.2147235"><ele>237.0</ele><time>2026-04-25T08:15:51.513Z</time></trkpt><trkpt lat="43.4147838" lon="13.2146733"><ele>237.0</ele><time>2026-04-25T08:15:52.513Z</time></trkpt><trkpt lat="43.4146411" lon="13.2146087"><ele>237.0</ele><time>2026-04-25T08:15:53.514Z</time></trkpt><trkpt lat="43.4144816" lon="13.2145426"><ele>237.0</ele><time>2026-04-25T08:15:54.51Z</time></trkpt><trkpt lat="43.4143393" lon="13.2144833"><ele>237.0</ele><time>2026-04-25T08:15:55.514Z</time></trkpt><trkpt lat="43.4141787" lon="13.214411"><ele>237.0</ele><time>2026-04-25T08:15:56.512Z</time></trkpt><trkpt lat="43.4140345" lon="13.2143323"><ele>237.0</ele><time>2026-04-25T08:15:57.506Z</time></trkpt><trkpt lat="43.4138611" lon="13.2142473"><ele>237.0</ele><time>2026-04-25T08:15:58.509Z</time></trkpt><trkpt lat="43.4136924" lon="13.2141794"><ele>237.0</ele><time>2026-04-25T08:15:59.506Z</time></trkpt><trkpt lat="43.4135269" lon="13.2141132"><ele>237.0</ele><time>2026-04-25T08:16:00.508Z</time></trkpt><trkpt lat="43.413427" lon="13.2140114"><ele>237.0</ele><time>2026-04-25T08:16:01.497Z</time></trkpt><trkpt lat="43.4132354" lon="13.213955"><ele>237.0</ele><time>2026-04-25T08:16:02.508Z</time></trkpt><trkpt lat="43.4130309" lon="13.2138887"><ele>237.0</ele><time>2026-04-25T08:16:03.513Z</time></trkpt><trkpt lat="43.4128397" lon="13.2138"><ele>237.0</ele><time>2026-04-25T08:16:04.514Z</time></trkpt><trkpt lat="43.4126782" lon="13.2137337"><ele>238.66666666666669</ele><time>2026-04-25T08:16:05.507Z</time></trkpt><trkpt lat="43.4125171" lon="13.2136566"><ele>240.33333333333334</ele><time>2026-04-25T08:16:06.503Z</time></trkpt><trkpt lat="43.4123705" lon="13.2135951"><ele>242.0</ele><time>2026-04-25T08:16:07.506Z</time></trkpt><trkpt lat="43.412236" lon="13.2135325"><ele>242.5</ele><time>2026-04-25T08:16:08.511Z</time></trkpt><trkpt lat="43.4121152" lon="13.2134493"><ele>243.0</ele><time>2026-04-25T08:16:09.505Z</time></trkpt><trkpt lat="43.4120133" lon="13.2133565"><ele>243.5</ele><time>2026-04-25T08:16:10.515Z</time></trkpt><trkpt lat="43.4119346" lon="13.2132179"><ele>244.0</ele><time>2026-04-25T08:16:11.5Z</time></trkpt><trkpt lat="43.411864" lon="13.2130598"><ele>242.66666666666666</ele><time>2026-04-25T08:16:12.511Z</time></trkpt><trkpt lat="43.4117944" lon="13.2128596"><ele>241.33333333333331</ele><time>2026-04-25T08:16:13.504Z</time></trkpt><trkpt lat="43.4117305" lon="13.2126635"><ele>240.0</ele><time>2026-04-25T08:16:14.512Z</time></trkpt><trkpt lat="43.4116657" lon="13.212478"><ele>237.75</ele><time>2026-04-25T08:16:15.509Z</time></trkpt><trkpt lat="43.4116096" lon="13.2123126"><ele>235.5</ele><time>2026-04-25T08:16:16.511Z</time></trkpt><trkpt lat="43.4115526" lon="13.2121612"><ele>233.25</ele><time>2026-04-25T08:16:17.508Z</time></trkpt><trkpt lat="43.411491" lon="13.2120088"><ele>231.0</ele><time>2026-04-25T08:16:18.505Z</time></trkpt><trkpt lat="43.4114365" lon="13.2118856"><ele>231.0</ele><time>2026-04-25T08:16:19.5Z</time></trkpt><trkpt lat="43.4113606" lon="13.2117908"><ele>231.0</ele><time>2026-04-25T08:16:20.503Z</time></trkpt><trkpt lat="43.4112548" lon="13.2117117"><ele>231.0</ele><time>2026-04-25T08:16:21.503Z</time></trkpt><trkpt lat="43.4111155" lon="13.2116578"><ele>231.0</ele><time>2026-04-25T08:16:22.504Z</time></trkpt><trkpt lat="43.4109838" lon="13.2116414"><ele>232.75</ele><time>2026-04-25T08:16:23.504Z</time></trkpt><trkpt lat="43.4108521" lon="13.2116158"><ele>234.5</ele><time>2026-04-25T08:16:24.506Z</time></trkpt><trkpt lat="43.4107173" lon="13.2116092"><ele>236.25</ele><time>2026-04-25T08:16:25.507Z</time></trkpt><trkpt lat="43.4105387" lon="13.2116027"><ele>238.0</ele><time>2026-04-25T08:16:26.505Z</time></trkpt><trkpt lat="43.4103639" lon="13.2116002"><ele>238.0</ele><time>2026-04-25T08:16:27.512Z</time></trkpt><trkpt lat="43.4102147" lon="13.2115735"><ele>238.0</ele><time>2026-04-25T08:16:28.499Z</time></trkpt><trkpt lat="43.4100776" lon="13.2115597"><ele>238.0</ele><time>2026-04-25T08:16:29.499Z</time></trkpt><trkpt lat="43.4099184" lon="13.211537"><ele>238.0</ele><time>2026-04-25T08:16:30.504Z</time></trkpt><trkpt lat="43.4097608" lon="13.2115181"><ele>235.0</ele><time>2026-04-25T08:16:31.501Z</time></trkpt><trkpt lat="43.4096276" lon="13.2114846"><ele>232.0</ele><time>2026-04-25T08:16:32.502Z</time></trkpt><trkpt lat="43.4095158" lon="13.2114342"><ele>229.0</ele><time>2026-04-25T08:16:33.496Z</time></trkpt><trkpt lat="43.4094014" lon="13.2113456"><ele>226.0</ele><time>2026-04-25T08:16:34.506Z</time></trkpt><trkpt lat="43.4093043" lon="13.2112435"><ele>226.0</ele><time>2026-04-25T08:16:35.499Z</time></trkpt><trkpt lat="43.4092163" lon="13.2111302"><ele>226.0</ele><time>2026-04-25T08:16:36.508Z</time></trkpt><trkpt lat="43.4091302" lon="13.2109655"><ele>226.0</ele><time>2026-04-25T08:16:37.498Z</time></trkpt><trkpt lat="43.4090425" lon="13.2107979"><ele>226.0</ele><time>2026-04-25T08:16:38.503Z</time></trkpt><trkpt lat="43.4089415" lon="13.2106314"><ele>224.75</ele><time>2026-04-25T08:16:39.508Z</time></trkpt><trkpt lat="43.4088394" lon="13.2104741"><ele>223.5</ele><time>2026-04-25T08:16:40.509Z</time></trkpt><trkpt lat="43.4087322" lon="13.2103399"><ele>222.25</ele><time>2026-04-25T08:16:41.51Z</time></trkpt><trkpt lat="43.4086294" lon="13.2102226"><ele>221.0</ele><time>2026-04-25T08:16:42.51Z</time></trkpt><trkpt lat="43.4085191" lon="13.2100927"><ele>220.25</ele><time>2026-04-25T08:16:43.509Z</time></trkpt><trkpt lat="43.4084097" lon="13.2099767"><ele>219.5</ele><time>2026-04-25T08:16:44.51Z</time></trkpt><trkpt lat="43.4082974" lon="13.2098882"><ele>218.75</ele><time>2026-04-25T08:16:45.503Z</time></trkpt><trkpt lat="43.4081813" lon="13.2098469"><ele>218.0</ele><time>2026-04-25T08:16:46.501Z</time></trkpt><trkpt lat="43.4080434" lon="13.2097982"><ele>222.66666666666669</ele><time>2026-04-25T08:16:47.512Z</time></trkpt><trkpt lat="43.4078739" lon="13.2097804"><ele>227.33333333333331</ele><time>2026-04-25T08:16:48.496Z</time></trkpt><trkpt lat="43.4077277" lon="13.2097178"><ele>232.0</ele><time>2026-04-25T08:16:49.499Z</time></trkpt><trkpt lat="43.4075761" lon="13.2096737"><ele>232.0</ele><time>2026-04-25T08:16:50.501Z</time></trkpt><trkpt lat="43.4074444" lon="13.2096064"><ele>232.0</ele><time>2026-04-25T08:16:51.505Z</time></trkpt><trkpt lat="43.4073508" lon="13.2095212"><ele>232.0</ele><time>2026-04-25T08:16:52.503Z</time></trkpt><trkpt lat="43.4072646" lon="13.2093957"><ele>232.0</ele><time>2026-04-25T08:16:53.501Z</time></trkpt><trkpt lat="43.4071741" lon="13.209245"><ele>236.66666666666666</ele><time>2026-04-25T08:16:54.5Z</time></trkpt><trkpt lat="43.4071322" lon="13.2090402"><ele>241.33333333333331</ele><time>2026-04-25T08:16:55.5Z</time></trkpt><trkpt lat="43.407081" lon="13.2088494"><ele>246.0</ele><time>2026-04-25T08:16:56.501Z</time></trkpt><trkpt lat="43.407025" lon="13.208662"><ele>246.0</ele><time>2026-04-25T08:16:57.499Z</time></trkpt><trkpt lat="43.4069159" lon="13.2085076"><ele>246.0</ele><time>2026-04-25T08:16:58.505Z</time></trkpt><trkpt lat="43.4068178" lon="13.2083516"><ele>246.0</ele><time>2026-04-25T08:16:59.503Z</time></trkpt><trkpt lat="43.4067502" lon="13.208228"><ele>246.0</ele><time>2026-04-25T08:17:00.504Z</time></trkpt><trkpt lat="43.4066807" lon="13.2081254"><ele>243.5</ele><time>2026-04-25T08:17:01.499Z</time></trkpt><trkpt lat="43.4066101" lon="13.2080138"><ele>241.0</ele><time>2026-04-25T08:17:02.504Z</time></trkpt><trkpt lat="43.4065499" lon="13.207913"><ele>238.5</ele><time>2026-04-25T08:17:03.506Z</time></trkpt><trkpt lat="43.4064619" lon="13.2077907"><ele>236.0</ele><time>2026-04-25T08:17:04.5Z</time></trkpt><trkpt lat="43.4063699" lon="13.2076643"><ele>242.5</ele><time>2026-04-25T08:17:05.504Z</time></trkpt><trkpt lat="43.4062657" lon="13.207543"><ele>249.0</ele><time>2026-04-25T08:17:06.508Z</time></trkpt><trkpt lat="43.4061616" lon="13.207424"><ele>255.5</ele><time>2026-04-25T08:17:07.507Z</time></trkpt><trkpt lat="43.4060899" lon="13.2073126"><ele>262.0</ele><time>2026-04-25T08:17:08.51Z</time></trkpt><trkpt lat="43.4060216" lon="13.2071962"><ele>262.0</ele><time>2026-04-25T08:17:09.502Z</time></trkpt><trkpt lat="43.4059438" lon="13.2070633"><ele>262.0</ele><time>2026-04-25T08:17:10.51Z</time></trkpt><trkpt lat="43.4058682" lon="13.206931"><ele>262.0</ele><time>2026-04-25T08:17:11.509Z</time></trkpt><trkpt lat="43.4058002" lon="13.2067934"><ele>262.0</ele><time>2026-04-25T08:17:12.499Z</time></trkpt><trkpt lat="43.405742" lon="13.2066477"><ele>261.0</ele><time>2026-04-25T08:17:13.502Z</time></trkpt><trkpt lat="43.4056792" lon="13.2064919"><ele>260.0</ele><time>2026-04-25T08:17:14.514Z</time></trkpt><trkpt lat="43.4056125" lon="13.2063362"><ele>259.0</ele><time>2026-04-25T08:17:15.514Z</time></trkpt><trkpt lat="43.4055388" lon="13.2061724"><ele>258.0</ele><time>2026-04-25T08:17:16.512Z</time></trkpt><trkpt lat="43.4054489" lon="13.2060342"><ele>261.0</ele><time>2026-04-25T08:17:17.507Z</time></trkpt><trkpt lat="43.4053783" lon="13.2058683"><ele>264.0</ele><time>2026-04-25T08:17:18.514Z</time></trkpt><trkpt lat="43.4053195" lon="13.205712"><ele>267.0</ele><time>2026-04-25T08:17:19.513Z</time></trkpt><trkpt lat="43.4052521" lon="13.2055427"><ele>270.0</ele><time>2026-04-25T08:17:20.52Z</time></trkpt><trkpt lat="43.4051739" lon="13.2054031"><ele>270.0</ele><time>2026-04-25T08:17:21.503Z</time></trkpt><trkpt lat="43.4051099" lon="13.2052837"><ele>270.0</ele><time>2026-04-25T08:17:22.507Z</time></trkpt><trkpt lat="43.40501" lon="13.2051493"><ele>270.0</ele><time>2026-04-25T08:17:23.504Z</time></trkpt><trkpt lat="43.4049244" lon="13.2050417"><ele>270.0</ele><time>2026-04-25T08:17:24.505Z</time></trkpt><trkpt lat="43.4048328" lon="13.204952"><ele>270.0</ele><time>2026-04-25T08:17:25.505Z</time></trkpt><trkpt lat="43.4047488" lon="13.2048764"><ele>270.0</ele><time>2026-04-25T08:17:26.507Z</time></trkpt><trkpt lat="43.4046423" lon="13.2048071"><ele>270.0</ele><time>2026-04-25T08:17:27.51Z</time></trkpt><trkpt lat="43.4045325" lon="13.2047506"><ele>270.0</ele><time>2026-04-25T08:17:28.514Z</time></trkpt><trkpt lat="43.4044455" lon="13.2046916"><ele>270.0</ele><time>2026-04-25T08:17:29.515Z</time></trkpt><trkpt lat="43.4043696" lon="13.2046321"><ele>269.8</ele><time>2026-04-25T08:17:30.524Z</time></trkpt><trkpt lat="43.4043063" lon="13.2045729"><ele>269.6</ele><time>2026-04-25T08:17:31.507Z</time></trkpt><trkpt lat="43.4042236" lon="13.2045391"><ele>269.4</ele><time>2026-04-25T08:17:32.513Z</time></trkpt><trkpt lat="43.4041265" lon="13.2045647"><ele>269.2</ele><time>2026-04-25T08:17:33.511Z</time></trkpt><trkpt lat="43.4040399" lon="13.2046449"><ele>269.0</ele><time>2026-04-25T08:17:34.516Z</time></trkpt><trkpt lat="43.4039591" lon="13.2047604"><ele>271.0</ele><time>2026-04-25T08:17:35.516Z</time></trkpt><trkpt lat="43.4038817" lon="13.2048974"><ele>273.0</ele><time>2026-04-25T08:17:36.515Z</time></trkpt><trkpt lat="43.4037994" lon="13.2050301"><ele>275.0</ele><time>2026-04-25T08:17:37.512Z</time></trkpt><trkpt lat="43.4037152" lon="13.2051343"><ele>277.0</ele><time>2026-04-25T08:17:38.517Z</time></trkpt><trkpt lat="43.403627" lon="13.2052135"><ele>277.2</ele><time>2026-04-25T08:17:39.509Z</time></trkpt><trkpt lat="43.4035289" lon="13.2052553"><ele>277.4</ele><time>2026-04-25T08:17:40.516Z</time></trkpt><trkpt lat="43.403411" lon="13.2052548"><ele>277.6</ele><time>2026-04-25T08:17:41.502Z</time></trkpt><trkpt lat="43.4032976" lon="13.2052379"><ele>277.8</ele><time>2026-04-25T08:17:42.506Z</time></trkpt><trkpt lat="43.4031902" lon="13.2052015"><ele>278.0</ele><time>2026-04-25T08:17:43.508Z</time></trkpt><trkpt lat="43.403082" lon="13.2051668"><ele>279.0</ele><time>2026-04-25T08:17:44.512Z</time></trkpt><trkpt lat="43.4029738" lon="13.2051182"><ele>280.0</ele><time>2026-04-25T08:17:45.513Z</time></trkpt><trkpt lat="43.4028641" lon="13.2050788"><ele>281.0</ele><time>2026-04-25T08:17:46.517Z</time></trkpt><trkpt lat="43.4027562" lon="13.2050355"><ele>282.0</ele><time>2026-04-25T08:17:47.512Z</time></trkpt><trkpt lat="43.4026601" lon="13.204999"><ele>283.0</ele><time>2026-04-25T08:17:48.512Z</time></trkpt><trkpt lat="43.4025662" lon="13.2049692"><ele>283.0</ele><time>2026-04-25T08:17:49.5Z</time></trkpt><trkpt lat="43.4024956" lon="13.2049475"><ele>283.0</ele><time>2026-04-25T08:17:50.499Z</time></trkpt><trkpt lat="43.4024321" lon="13.2049201"><ele>283.0</ele><time>2026-04-25T08:17:51.51Z</time></trkpt><trkpt lat="43.4023798" lon="13.204865"><ele>283.0</ele><time>2026-04-25T08:17:52.504Z</time></trkpt><trkpt lat="43.4023222" lon="13.2047902"><ele>283.0</ele><time>2026-04-25T08:17:53.499Z</time></trkpt><trkpt lat="43.4022779" lon="13.204708"><ele>283.0</ele><time>2026-04-25T08:17:54.502Z</time></trkpt><trkpt lat="43.4022784" lon="13.2045338"><ele>282.0</ele><time>2026-04-25T08:17:56.503Z</time></trkpt><trkpt lat="43.4023184" lon="13.2044374"><ele>281.0</ele><time>2026-04-25T08:17:57.501Z</time></trkpt><trkpt lat="43.4023636" lon="13.2043521"><ele>280.0</ele><time>2026-04-25T08:17:58.509Z</time></trkpt><trkpt lat="43.4024294" lon="13.2042433"><ele>279.0</ele><time>2026-04-25T08:17:59.507Z</time></trkpt><trkpt lat="43.4024887" lon="13.2041193"><ele>278.0</ele><time>2026-04-25T08:18:00.507Z</time></trkpt><trkpt lat="43.4025233" lon="13.20398"><ele>277.25</ele><time>2026-04-25T08:18:01.502Z</time></trkpt><trkpt lat="43.4025191" lon="13.2038355"><ele>276.5</ele><time>2026-04-25T08:18:02.509Z</time></trkpt><trkpt lat="43.4024754" lon="13.2036997"><ele>275.75</ele><time>2026-04-25T08:18:03.499Z</time></trkpt><trkpt lat="43.4024206" lon="13.2035584"><ele>275.0</ele><time>2026-04-25T08:18:04.508Z</time></trkpt><trkpt lat="43.402325" lon="13.203421"><ele>275.0</ele><time>2026-04-25T08:18:05.504Z</time></trkpt><trkpt lat="43.4022294" lon="13.2033058"><ele>275.0</ele><time>2026-04-25T08:18:06.494Z</time></trkpt><trkpt lat="43.4020944" lon="13.2031579"><ele>275.0</ele><time>2026-04-25T08:18:07.5Z</time></trkpt><trkpt lat="43.4019462" lon="13.2029841"><ele>275.6666666666667</ele><time>2026-04-25T08:18:08.501Z</time></trkpt><trkpt lat="43.4018101" lon="13.2027935"><ele>276.3333333333333</ele><time>2026-04-25T08:18:09.508Z</time></trkpt><trkpt lat="43.4016827" lon="13.2026054"><ele>277.0</ele><time>2026-04-25T08:18:10.505Z</time></trkpt><trkpt lat="43.4015466" lon="13.2024106"><ele>277.3333333333333</ele><time>2026-04-25T08:18:11.508Z</time></trkpt><trkpt lat="43.4014275" lon="13.2022206"><ele>277.6666666666667</ele><time>2026-04-25T08:18:12.509Z</time></trkpt><trkpt lat="43.4013189" lon="13.2020576"><ele>278.0</ele><time>2026-04-25T08:18:13.509Z</time></trkpt><trkpt lat="43.4011933" lon="13.2019197"><ele>278.0</ele><time>2026-04-25T08:18:14.502Z</time></trkpt><trkpt lat="43.4010875" lon="13.2017778"><ele>278.0</ele><time>2026-04-25T08:18:15.508Z</time></trkpt><trkpt lat="43.4009974" lon="13.2016409"><ele>278.0</ele><time>2026-04-25T08:18:16.507Z</time></trkpt><trkpt lat="43.4009092" lon="13.2015121"><ele>278.0</ele><time>2026-04-25T08:18:17.505Z</time></trkpt><trkpt lat="43.4008195" lon="13.2013871"><ele>277.6</ele><time>2026-04-25T08:18:18.507Z</time></trkpt><trkpt lat="43.400739" lon="13.2012643"><ele>277.20000000000005</ele><time>2026-04-25T08:18:19.501Z</time></trkpt><trkpt lat="43.4006783" lon="13.2011442"><ele>276.8</ele><time>2026-04-25T08:18:20.501Z</time></trkpt><trkpt lat="43.4006336" lon="13.2010376"><ele>276.40000000000003</ele><time>2026-04-25T08:18:21.503Z</time></trkpt><trkpt lat="43.4005986" lon="13.200955"><ele>276.0</ele><time>2026-04-25T08:18:22.511Z</time></trkpt><trkpt lat="43.4005712" lon="13.2008716"><ele>276.0</ele><time>2026-04-25T08:18:23.503Z</time></trkpt><trkpt lat="43.4005755" lon="13.2006957"><ele>276.0</ele><time>2026-04-25T08:18:25.501Z</time></trkpt><trkpt lat="43.4006115" lon="13.2005962"><ele>276.0</ele><time>2026-04-25T08:18:26.501Z</time></trkpt><trkpt lat="43.4006699" lon="13.2004904"><ele>276.0</ele><time>2026-04-25T08:18:27.508Z</time></trkpt><trkpt lat="43.4007442" lon="13.200386"><ele>276.0</ele><time>2026-04-25T08:18:28.5Z</time></trkpt><trkpt lat="43.4008248" lon="13.2002847"><ele>274.75</ele><time>2026-04-25T08:18:29.506Z</time></trkpt><trkpt lat="43.4009186" lon="13.200159"><ele>273.5</ele><time>2026-04-25T08:18:30.501Z</time></trkpt><trkpt lat="43.4010212" lon="13.2000186"><ele>272.25</ele><time>2026-04-25T08:18:31.498Z</time></trkpt><trkpt lat="43.4011287" lon="13.1998713"><ele>271.0</ele><time>2026-04-25T08:18:32.497Z</time></trkpt><trkpt lat="43.4012222" lon="13.1997459"><ele>269.6</ele><time>2026-04-25T08:18:33.501Z</time></trkpt><trkpt lat="43.4012945" lon="13.1996332"><ele>268.20000000000005</ele><time>2026-04-25T08:18:34.505Z</time></trkpt><trkpt lat="43.4013598" lon="13.1995337"><ele>266.79999999999995</ele><time>2026-04-25T08:18:35.504Z</time></trkpt><trkpt lat="43.4014083" lon="13.1994229"><ele>265.4</ele><time>2026-04-25T08:18:36.499Z</time></trkpt><trkpt lat="43.40144" lon="13.199291"><ele>264.0</ele><time>2026-04-25T08:18:37.503Z</time></trkpt><trkpt lat="43.4014546" lon="13.1991609"><ele>264.0</ele><time>2026-04-25T08:18:38.5Z</time></trkpt><trkpt lat="43.4014611" lon="13.1990387"><ele>264.0</ele><time>2026-04-25T08:18:39.507Z</time></trkpt><trkpt lat="43.4014418" lon="13.1989043"><ele>264.0</ele><time>2026-04-25T08:18:40.505Z</time></trkpt><trkpt lat="43.4014072" lon="13.198774"><ele>264.0</ele><time>2026-04-25T08:18:41.503Z</time></trkpt><trkpt lat="43.4013712" lon="13.1986365"><ele>264.0</ele><time>2026-04-25T08:18:42.5Z</time></trkpt><trkpt lat="43.4013274" lon="13.1984866"><ele>263.5</ele><time>2026-04-25T08:18:43.512Z</time></trkpt><trkpt lat="43.4012886" lon="13.1983279"><ele>263.0</ele><time>2026-04-25T08:18:44.499Z</time></trkpt><trkpt lat="43.4012474" lon="13.1981666"><ele>262.5</ele><time>2026-04-25T08:18:45.512Z</time></trkpt><trkpt lat="43.401211" lon="13.1979988"><ele>262.0</ele><time>2026-04-25T08:18:46.506Z</time></trkpt><trkpt lat="43.401171" lon="13.1978207"><ele>262.25</ele><time>2026-04-25T08:18:47.509Z</time></trkpt><trkpt lat="43.4011342" lon="13.1976437"><ele>262.5</ele><time>2026-04-25T08:18:48.502Z</time></trkpt><trkpt lat="43.4010947" lon="13.1974597"><ele>262.75</ele><time>2026-04-25T08:18:49.508Z</time></trkpt><trkpt lat="43.4010603" lon="13.1972722"><ele>263.0</ele><time>2026-04-25T08:18:50.505Z</time></trkpt><trkpt lat="43.4010312" lon="13.1971026"><ele>263.0</ele><time>2026-04-25T08:18:51.506Z</time></trkpt><trkpt lat="43.4009949" lon="13.1969403"><ele>263.0</ele><time>2026-04-25T08:18:52.508Z</time></trkpt><trkpt lat="43.4009636" lon="13.1968008"><ele>263.0</ele><time>2026-04-25T08:18:53.508Z</time></trkpt><trkpt lat="43.4009366" lon="13.1966539"><ele>263.0</ele><time>2026-04-25T08:18:54.505Z</time></trkpt><trkpt lat="43.4009075" lon="13.1965376"><ele>263.0</ele><time>2026-04-25T08:18:55.493Z</time></trkpt><trkpt lat="43.4008754" lon="13.1964352"><ele>261.4</ele><time>2026-04-25T08:18:56.502Z</time></trkpt><trkpt lat="43.4008188" lon="13.1963328"><ele>259.8</ele><time>2026-04-25T08:18:57.498Z</time></trkpt><trkpt lat="43.4007483" lon="13.1962281"><ele>258.2</ele><time>2026-04-25T08:18:58.502Z</time></trkpt><trkpt lat="43.4006754" lon="13.1961376"><ele>256.6</ele><time>2026-04-25T08:18:59.5Z</time></trkpt><trkpt lat="43.4005947" lon="13.1960511"><ele>255.0</ele><time>2026-04-25T08:19:00.501Z</time></trkpt><trkpt lat="43.4005286" lon="13.1959353"><ele>257.0</ele><time>2026-04-25T08:19:01.494Z</time></trkpt><trkpt lat="43.4004734" lon="13.1958016"><ele>259.0</ele><time>2026-04-25T08:19:02.501Z</time></trkpt><trkpt lat="43.4004351" lon="13.1956517"><ele>261.0</ele><time>2026-04-25T08:19:03.499Z</time></trkpt><trkpt lat="43.400409" lon="13.1955035"><ele>263.0</ele><time>2026-04-25T08:19:04.499Z</time></trkpt><trkpt lat="43.4003967" lon="13.1953659"><ele>265.0</ele><time>2026-04-25T08:19:05.496Z</time></trkpt><trkpt lat="43.4004012" lon="13.1951882"><ele>265.0</ele><time>2026-04-25T08:19:06.498Z</time></trkpt><trkpt lat="43.400413" lon="13.1950086"><ele>265.0</ele><time>2026-04-25T08:19:07.499Z</time></trkpt><trkpt lat="43.4004282" lon="13.1948532"><ele>265.0</ele><time>2026-04-25T08:19:08.505Z</time></trkpt><trkpt lat="43.4004518" lon="13.1946838"><ele>265.0</ele><time>2026-04-25T08:19:09.511Z</time></trkpt><trkpt lat="43.4004537" lon="13.1944967"><ele>262.5</ele><time>2026-04-25T08:19:10.507Z</time></trkpt><trkpt lat="43.4004273" lon="13.1943331"><ele>260.0</ele><time>2026-04-25T08:19:11.504Z</time></trkpt><trkpt lat="43.4003571" lon="13.1941904"><ele>257.5</ele><time>2026-04-25T08:19:12.508Z</time></trkpt><trkpt lat="43.4002663" lon="13.194071"><ele>255.0</ele><time>2026-04-25T08:19:13.504Z</time></trkpt><trkpt lat="43.4001728" lon="13.1939491"><ele>252.75</ele><time>2026-04-25T08:19:14.506Z</time></trkpt><trkpt lat="43.4000792" lon="13.1938191"><ele>250.5</ele><time>2026-04-25T08:19:15.501Z</time></trkpt><trkpt lat="43.3999908" lon="13.1936822"><ele>248.25</ele><time>2026-04-25T08:19:16.502Z</time></trkpt><trkpt lat="43.3999123" lon="13.1935484"><ele>246.0</ele><time>2026-04-25T08:19:17.496Z</time></trkpt><trkpt lat="43.3998361" lon="13.1934198"><ele>246.0</ele><time>2026-04-25T08:19:18.502Z</time></trkpt><trkpt lat="43.3997613" lon="13.1932937"><ele>246.0</ele><time>2026-04-25T08:19:19.494Z</time></trkpt><trkpt lat="43.3996987" lon="13.1931554"><ele>246.0</ele><time>2026-04-25T08:19:20.487Z</time></trkpt><trkpt lat="43.3996371" lon="13.1930137"><ele>246.0</ele><time>2026-04-25T08:19:21.499Z</time></trkpt><trkpt lat="43.3995629" lon="13.1928821"><ele>245.75</ele><time>2026-04-25T08:19:22.492Z</time></trkpt><trkpt lat="43.3995109" lon="13.1927243"><ele>245.5</ele><time>2026-04-25T08:19:23.508Z</time></trkpt><trkpt lat="43.3994697" lon="13.1925583"><ele>245.25</ele><time>2026-04-25T08:19:24.515Z</time></trkpt><trkpt lat="43.3994444" lon="13.1923826"><ele>245.0</ele><time>2026-04-25T08:19:25.515Z</time></trkpt><trkpt lat="43.3994213" lon="13.1922275"><ele>245.00000000000003</ele><time>2026-04-25T08:19:26.511Z</time></trkpt><trkpt lat="43.3994004" lon="13.1920978"><ele>245.0</ele><time>2026-04-25T08:19:27.501Z</time></trkpt><trkpt lat="43.3993816" lon="13.1919911"><ele>245.0</ele><time>2026-04-25T08:19:28.512Z</time></trkpt><trkpt lat="43.3993657" lon="13.1919067"><ele>245.0</ele><time>2026-04-25T08:19:29.516Z</time></trkpt><trkpt lat="43.399339" lon="13.1918276"><ele>245.00000000000003</ele><time>2026-04-25T08:19:30.513Z</time></trkpt><trkpt lat="43.3992924" lon="13.1917402"><ele>245.0</ele><time>2026-04-25T08:19:31.511Z</time></trkpt><trkpt lat="43.3992273" lon="13.1916668"><ele>245.0</ele><time>2026-04-25T08:19:32.513Z</time></trkpt><trkpt lat="43.3991604" lon="13.1916042"><ele>245.0</ele><time>2026-04-25T08:19:33.512Z</time></trkpt><trkpt lat="43.3990948" lon="13.1915432"><ele>245.0</ele><time>2026-04-25T08:19:34.513Z</time></trkpt><trkpt lat="43.3990125" lon="13.1914801"><ele>245.0</ele><time>2026-04-25T08:19:35.511Z</time></trkpt><trkpt lat="43.3989149" lon="13.1914067"><ele>245.0</ele><time>2026-04-25T08:19:36.509Z</time></trkpt><trkpt lat="43.3988218" lon="13.1913297"><ele>246.0</ele><time>2026-04-25T08:19:37.514Z</time></trkpt><trkpt lat="43.3987345" lon="13.1912564"><ele>247.0</ele><time>2026-04-25T08:19:38.506Z</time></trkpt><trkpt lat="43.3986452" lon="13.191189"><ele>248.0</ele><time>2026-04-25T08:19:39.515Z</time></trkpt><trkpt lat="43.3985619" lon="13.1911174"><ele>249.0</ele><time>2026-04-25T08:19:40.507Z</time></trkpt><trkpt lat="43.398488" lon="13.1910257"><ele>250.0</ele><time>2026-04-25T08:19:41.507Z</time></trkpt><trkpt lat="43.3984265" lon="13.1909234"><ele>250.0</ele><time>2026-04-25T08:19:42.504Z</time></trkpt><trkpt lat="43.398356" lon="13.19083"><ele>250.0</ele><time>2026-04-25T08:19:43.506Z</time></trkpt><trkpt lat="43.398289" lon="13.1907389"><ele>250.0</ele><time>2026-04-25T08:19:44.509Z</time></trkpt><trkpt lat="43.3982098" lon="13.1906543"><ele>250.0</ele><time>2026-04-25T08:19:45.504Z</time></trkpt><trkpt lat="43.398141" lon="13.1905586"><ele>250.0</ele><time>2026-04-25T08:19:46.5Z</time></trkpt><trkpt lat="43.3980598" lon="13.1904703"><ele>250.99999999999997</ele><time>2026-04-25T08:19:47.501Z</time></trkpt><trkpt lat="43.3979853" lon="13.1904002"><ele>252.0</ele><time>2026-04-25T08:19:48.508Z</time></trkpt><trkpt lat="43.3979185" lon="13.1903279"><ele>253.0</ele><time>2026-04-25T08:19:49.509Z</time></trkpt><trkpt lat="43.3978632" lon="13.1902446"><ele>254.0</ele><time>2026-04-25T08:19:50.496Z</time></trkpt><trkpt lat="43.3978168" lon="13.1901583"><ele>254.99999999999997</ele><time>2026-04-25T08:19:51.506Z</time></trkpt><trkpt lat="43.3977747" lon="13.1900635"><ele>256.0</ele><time>2026-04-25T08:19:52.494Z</time></trkpt><trkpt lat="43.3977451" lon="13.1899525"><ele>254.8</ele><time>2026-04-25T08:19:53.504Z</time></trkpt><trkpt lat="43.3977312" lon="13.1898283"><ele>253.60000000000002</ele><time>2026-04-25T08:19:54.51Z</time></trkpt><trkpt lat="43.397724" lon="13.1896998"><ele>252.4</ele><time>2026-04-25T08:19:55.512Z</time></trkpt><trkpt lat="43.3977208" lon="13.1895799"><ele>251.2</ele><time>2026-04-25T08:19:56.509Z</time></trkpt><trkpt lat="43.3977425" lon="13.189458"><ele>250.0</ele><time>2026-04-25T08:19:57.504Z</time></trkpt><trkpt lat="43.3977731" lon="13.1893244"><ele>249.99999999999997</ele><time>2026-04-25T08:19:58.512Z</time></trkpt><trkpt lat="43.3978309" lon="13.1891935"><ele>250.0</ele><time>2026-04-25T08:19:59.499Z</time></trkpt><trkpt lat="43.3978776" lon="13.1890749"><ele>250.0</ele><time>2026-04-25T08:20:00.499Z</time></trkpt><trkpt lat="43.3979283" lon="13.1889746"><ele>250.0</ele><time>2026-04-25T08:20:01.493Z</time></trkpt><trkpt lat="43.3979728" lon="13.1888827"><ele>249.99999999999997</ele><time>2026-04-25T08:20:02.513Z</time></trkpt><trkpt lat="43.3979929" lon="13.1887903"><ele>250.0</ele><time>2026-04-25T08:20:03.51Z</time></trkpt><trkpt lat="43.3979664" lon="13.188622"><ele>249.33333333333331</ele><time>2026-04-25T08:20:05.498Z</time></trkpt><trkpt lat="43.3979282" lon="13.1885501"><ele>248.66666666666666</ele><time>2026-04-25T08:20:06.504Z</time></trkpt><trkpt lat="43.397844" lon="13.1884564"><ele>248.0</ele><time>2026-04-25T08:20:08.5Z</time></trkpt><trkpt lat="43.3977254" lon="13.1884397"><ele>247.33333333333331</ele><time>2026-04-25T08:20:10.505Z</time></trkpt><trkpt lat="43.3976585" lon="13.1884371"><ele>246.66666666666666</ele><time>2026-04-25T08:20:11.502Z</time></trkpt><trkpt lat="43.3975766" lon="13.1884659"><ele>246.0</ele><time>2026-04-25T08:20:13.504Z</time></trkpt><trkpt lat="43.3974877" lon="13.1884862"><ele>246.0</ele><time>2026-04-25T08:20:16.51Z</time></trkpt><trkpt lat="43.3974328" lon="13.1885355"><ele>246.0</ele><time>2026-04-25T08:20:21.502Z</time></trkpt><trkpt lat="43.3973677" lon="13.1885305"><ele>246.0</ele><time>2026-04-25T08:20:24.499Z</time></trkpt><trkpt lat="43.3972637" lon="13.1885371"><ele>246.0</ele><time>2026-04-25T08:20:26.498Z</time></trkpt><trkpt lat="43.3971592" lon="13.188547"><ele>246.0</ele><time>2026-04-25T08:20:27.491Z</time></trkpt><trkpt lat="43.3970697" lon="13.1885692"><ele>246.0</ele><time>2026-04-25T08:20:28.498Z</time></trkpt><trkpt lat="43.3969751" lon="13.1885875"><ele>247.5</ele><time>2026-04-25T08:20:29.49Z</time></trkpt><trkpt lat="43.3968772" lon="13.1886083"><ele>249.0</ele><time>2026-04-25T08:20:30.49Z</time></trkpt><trkpt lat="43.3967517" lon="13.1886554"><ele>250.5</ele><time>2026-04-25T08:20:31.486Z</time></trkpt><trkpt lat="43.396627" lon="13.1886815"><ele>252.0</ele><time>2026-04-25T08:20:32.491Z</time></trkpt><trkpt lat="43.3965276" lon="13.1886849"><ele>252.0</ele><time>2026-04-25T08:20:33.492Z</time></trkpt><trkpt lat="43.3964367" lon="13.1886924"><ele>252.0</ele><time>2026-04-25T08:20:34.491Z</time></trkpt><trkpt lat="43.396349" lon="13.1886742"><ele>252.0</ele><time>2026-04-25T08:20:35.486Z</time></trkpt><trkpt lat="43.3962679" lon="13.1886428"><ele>252.0</ele><time>2026-04-25T08:20:36.488Z</time></trkpt><trkpt lat="43.3961886" lon="13.1885613"><ele>252.0</ele><time>2026-04-25T08:20:37.488Z</time></trkpt><trkpt lat="43.3961015" lon="13.1884762"><ele>253.75</ele><time>2026-04-25T08:20:38.485Z</time></trkpt><trkpt lat="43.3960193" lon="13.1884003"><ele>255.5</ele><time>2026-04-25T08:20:39.484Z</time></trkpt><trkpt lat="43.395957" lon="13.1882778"><ele>257.25</ele><time>2026-04-25T08:20:40.489Z</time></trkpt><trkpt lat="43.3958749" lon="13.1881374"><ele>259.0</ele><time>2026-04-25T08:20:41.49Z</time></trkpt><trkpt lat="43.3958026" lon="13.1880057"><ele>259.0</ele><time>2026-04-25T08:20:42.484Z</time></trkpt><trkpt lat="43.3957268" lon="13.1878655"><ele>259.0</ele><time>2026-04-25T08:20:43.491Z</time></trkpt><trkpt lat="43.3956468" lon="13.1877173"><ele>259.0</ele><time>2026-04-25T08:20:44.487Z</time></trkpt><trkpt lat="43.3955651" lon="13.1875745"><ele>259.0</ele><time>2026-04-25T08:20:45.489Z</time></trkpt><trkpt lat="43.395477" lon="13.1874231"><ele>261.0</ele><time>2026-04-25T08:20:46.487Z</time></trkpt><trkpt lat="43.3953857" lon="13.1872629"><ele>263.0</ele><time>2026-04-25T08:20:47.497Z</time></trkpt><trkpt lat="43.3953016" lon="13.1871071"><ele>265.0</ele><time>2026-04-25T08:20:48.493Z</time></trkpt><trkpt lat="43.3952176" lon="13.1869673"><ele>267.0</ele><time>2026-04-25T08:20:49.501Z</time></trkpt><trkpt lat="43.3951314" lon="13.1868293"><ele>267.0</ele><time>2026-04-25T08:20:50.506Z</time></trkpt><trkpt lat="43.3950507" lon="13.1867026"><ele>267.0</ele><time>2026-04-25T08:20:51.513Z</time></trkpt><trkpt lat="43.3949744" lon="13.1866156"><ele>267.0</ele><time>2026-04-25T08:20:52.507Z</time></trkpt><trkpt lat="43.3948981" lon="13.186553"><ele>267.0</ele><time>2026-04-25T08:20:53.509Z</time></trkpt><trkpt lat="43.3948169" lon="13.1865115"><ele>267.0</ele><time>2026-04-25T08:20:54.509Z</time></trkpt><trkpt lat="43.3947186" lon="13.1865187"><ele>268.5</ele><time>2026-04-25T08:20:55.503Z</time></trkpt><trkpt lat="43.3946074" lon="13.1865354"><ele>270.0</ele><time>2026-04-25T08:20:56.509Z</time></trkpt><trkpt lat="43.3944893" lon="13.1865961"><ele>271.5</ele><time>2026-04-25T08:20:57.504Z</time></trkpt><trkpt lat="43.3943624" lon="13.1866643"><ele>273.0</ele><time>2026-04-25T08:20:58.501Z</time></trkpt><trkpt lat="43.3942363" lon="13.1867132"><ele>273.0</ele><time>2026-04-25T08:20:59.507Z</time></trkpt><trkpt lat="43.3940964" lon="13.1867732"><ele>273.0</ele><time>2026-04-25T08:21:00.495Z</time></trkpt><trkpt lat="43.3939548" lon="13.1868489"><ele>273.0</ele><time>2026-04-25T08:21:01.491Z</time></trkpt><trkpt lat="43.3938428" lon="13.1869169"><ele>273.0</ele><time>2026-04-25T08:21:02.492Z</time></trkpt><trkpt lat="43.3937389" lon="13.1869436"><ele>273.4</ele><time>2026-04-25T08:21:03.491Z</time></trkpt><trkpt lat="43.3936821" lon="13.1869976"><ele>273.8</ele><time>2026-04-25T08:21:05.505Z</time></trkpt><trkpt lat="43.3936123" lon="13.1869788"><ele>274.2</ele><time>2026-04-25T08:21:06.5Z</time></trkpt><trkpt lat="43.3934743" lon="13.1869814"><ele>274.6</ele><time>2026-04-25T08:21:08.49Z</time></trkpt><trkpt lat="43.3933426" lon="13.1869478"><ele>275.0</ele><time>2026-04-25T08:21:09.501Z</time></trkpt><trkpt lat="43.3931984" lon="13.1869102"><ele>275.0</ele><time>2026-04-25T08:21:10.499Z</time></trkpt><trkpt lat="43.3930698" lon="13.1869015"><ele>275.0</ele><time>2026-04-25T08:21:11.498Z</time></trkpt><trkpt lat="43.3929406" lon="13.1869028"><ele>275.0</ele><time>2026-04-25T08:21:12.494Z</time></trkpt><trkpt lat="43.3928107" lon="13.1869275"><ele>275.0</ele><time>2026-04-25T08:21:13.491Z</time></trkpt><trkpt lat="43.3926994" lon="13.1869205"><ele>274.8</ele><time>2026-04-25T08:21:14.491Z</time></trkpt><trkpt lat="43.3926173" lon="13.1869023"><ele>274.6</ele><time>2026-04-25T08:21:15.491Z</time></trkpt><trkpt lat="43.3925172" lon="13.1867958"><ele>274.4</ele><time>2026-04-25T08:21:17.506Z</time></trkpt><trkpt lat="43.392452" lon="13.1866682"><ele>274.2</ele><time>2026-04-25T08:21:18.502Z</time></trkpt><trkpt lat="43.3923916" lon="13.1865545"><ele>274.0</ele><time>2026-04-25T08:21:19.507Z</time></trkpt><trkpt lat="43.392301" lon="13.1864351"><ele>274.0</ele><time>2026-04-25T08:21:20.498Z</time></trkpt><trkpt lat="43.3921994" lon="13.1863623"><ele>274.0</ele><time>2026-04-25T08:21:21.497Z</time></trkpt><trkpt lat="43.3921151" lon="13.1863267"><ele>274.0</ele><time>2026-04-25T08:21:22.496Z</time></trkpt><trkpt lat="43.3920115" lon="13.1862372"><ele>274.0</ele><time>2026-04-25T08:21:24.494Z</time></trkpt><trkpt lat="43.3919507" lon="13.1861809"><ele>274.0</ele><time>2026-04-25T08:21:25.502Z</time></trkpt><trkpt lat="43.391879" lon="13.1861167"><ele>275.3333333333333</ele><time>2026-04-25T08:21:26.491Z</time></trkpt><trkpt lat="43.391809" lon="13.1860543"><ele>276.66666666666663</ele><time>2026-04-25T08:21:27.495Z</time></trkpt><trkpt lat="43.3917097" lon="13.1859976"><ele>278.0</ele><time>2026-04-25T08:21:28.491Z</time></trkpt><trkpt lat="43.3915928" lon="13.1860137"><ele>279.3333333333333</ele><time>2026-04-25T08:21:30.492Z</time></trkpt><trkpt lat="43.3915399" lon="13.1859465"><ele>280.6666666666667</ele><time>2026-04-25T08:21:31.5Z</time></trkpt><trkpt lat="43.3915103" lon="13.1858683"><ele>282.0</ele><time>2026-04-25T08:21:32.497Z</time></trkpt><trkpt lat="43.3915063" lon="13.1857668"><ele>280.75</ele><time>2026-04-25T08:21:33.501Z</time></trkpt><trkpt lat="43.3915831" lon="13.1856125"><ele>279.5</ele><time>2026-04-25T08:21:53.506Z</time></trkpt><trkpt lat="43.3916966" lon="13.1854454"><ele>278.25</ele><time>2026-04-25T08:21:54.516Z</time></trkpt><trkpt lat="43.3917929" lon="13.1853137"><ele>277.0</ele><time>2026-04-25T08:21:55.52Z</time></trkpt><trkpt lat="43.391861" lon="13.1851841"><ele>277.0</ele><time>2026-04-25T08:22:09.519Z</time></trkpt><trkpt lat="43.3917927" lon="13.1851762"><ele>277.0</ele><time>2026-04-25T08:23:39.528Z</time></trkpt><trkpt lat="43.3917298" lon="13.1852107"><ele>277.0</ele><time>2026-04-25T08:27:10.575Z</time></trkpt><trkpt lat="43.3917894" lon="13.1851317"><ele>277.0</ele><time>2026-04-25T08:28:20.577Z</time></trkpt><trkpt lat="43.3918643" lon="13.1850285"><ele>277.0</ele><time>2026-04-25T08:28:22.574Z</time></trkpt><trkpt lat="43.3919439" lon="13.1849141"><ele>277.0</ele><time>2026-04-25T08:28:24.57Z</time></trkpt><trkpt lat="43.3920088" lon="13.1848475"><ele>276.6</ele><time>2026-04-25T08:28:25.57Z</time></trkpt><trkpt lat="43.3920497" lon="13.1847565"><ele>276.2</ele><time>2026-04-25T08:28:28.576Z</time></trkpt><trkpt lat="43.3921247" lon="13.1846208"><ele>275.8</ele><time>2026-04-25T08:28:30.58Z</time></trkpt><trkpt lat="43.3921846" lon="13.1845295"><ele>275.4</ele><time>2026-04-25T08:28:31.567Z</time></trkpt><trkpt lat="43.3922479" lon="13.1844505"><ele>275.0</ele><time>2026-04-25T08:28:32.57Z</time></trkpt><trkpt lat="43.3923185" lon="13.1843686"><ele>275.2</ele><time>2026-04-25T08:28:33.561Z</time></trkpt><trkpt lat="43.3923973" lon="13.1842784"><ele>275.4</ele><time>2026-04-25T08:28:34.557Z</time></trkpt><trkpt lat="43.3924791" lon="13.1841868"><ele>275.6</ele><time>2026-04-25T08:28:35.555Z</time></trkpt><trkpt lat="43.3925765" lon="13.1841155"><ele>275.8</ele><time>2026-04-25T08:28:36.556Z</time></trkpt><trkpt lat="43.392658" lon="13.1840455"><ele>276.0</ele><time>2026-04-25T08:28:37.562Z</time></trkpt><trkpt lat="43.3927314" lon="13.1839951"><ele>276.0</ele><time>2026-04-25T08:28:38.561Z</time></trkpt><trkpt lat="43.3928157" lon="13.183923"><ele>276.0</ele><time>2026-04-25T08:28:40.561Z</time></trkpt><trkpt lat="43.3928278" lon="13.1838282"><ele>276.0</ele><time>2026-04-25T08:28:42.568Z</time></trkpt><trkpt lat="43.3927604" lon="13.1837589"><ele>276.0</ele><time>2026-04-25T08:28:44.572Z</time></trkpt><trkpt lat="43.3926362" lon="13.1837301"><ele>276.0</ele><time>2026-04-25T08:28:46.572Z</time></trkpt><trkpt lat="43.3925528" lon="13.1837307"><ele>276.0</ele><time>2026-04-25T08:28:47.56Z</time></trkpt><trkpt lat="43.3924705" lon="13.1837352"><ele>276.0</ele><time>2026-04-25T08:28:48.564Z</time></trkpt><trkpt lat="43.3923939" lon="13.1837432"><ele>276.0</ele><time>2026-04-25T08:28:49.557Z</time></trkpt><trkpt lat="43.3922993" lon="13.1837121"><ele>276.0</ele><time>2026-04-25T08:28:51.555Z</time></trkpt><trkpt lat="43.3922227" lon="13.1836903"><ele>276.0</ele><time>2026-04-25T08:28:53.554Z</time></trkpt><trkpt lat="43.392148" lon="13.1836483"><ele>276.0</ele><time>2026-04-25T08:28:56.562Z</time></trkpt><trkpt lat="43.3921127" lon="13.1835527"><ele>276.6666666666667</ele><time>2026-04-25T08:28:58.56Z</time></trkpt><trkpt lat="43.3920809" lon="13.1834392"><ele>277.3333333333333</ele><time>2026-04-25T08:29:00.564Z</time></trkpt><trkpt lat="43.3920371" lon="13.1833036"><ele>278.0</ele><time>2026-04-25T08:29:02.564Z</time></trkpt><trkpt lat="43.3919917" lon="13.1832152"><ele>278.66666666666663</ele><time>2026-04-25T08:29:04.557Z</time></trkpt><trkpt lat="43.3919493" lon="13.1831371"><ele>279.3333333333333</ele><time>2026-04-25T08:29:07.57Z</time></trkpt><trkpt lat="43.391895" lon="13.1830505"><ele>280.0</ele><time>2026-04-25T08:29:10.564Z</time></trkpt><trkpt lat="43.3918477" lon="13.1829516"><ele>280.6</ele><time>2026-04-25T08:29:12.561Z</time></trkpt><trkpt lat="43.3917829" lon="13.1828242"><ele>281.2</ele><time>2026-04-25T08:29:14.567Z</time></trkpt><trkpt lat="43.3917407" lon="13.1827519"><ele>281.8</ele><time>2026-04-25T08:29:15.569Z</time></trkpt><trkpt lat="43.3916632" lon="13.1826337"><ele>282.4</ele><time>2026-04-25T08:29:17.562Z</time></trkpt><trkpt lat="43.3915598" lon="13.1826185"><ele>283.0</ele><time>2026-04-25T08:29:19.566Z</time></trkpt><trkpt lat="43.3914823" lon="13.1826365"><ele>283.0</ele><time>2026-04-25T08:29:20.57Z</time></trkpt><trkpt lat="43.3914015" lon="13.1826764"><ele>283.0</ele><time>2026-04-25T08:29:21.571Z</time></trkpt><trkpt lat="43.3913169" lon="13.1827129"><ele>283.0</ele><time>2026-04-25T08:29:22.566Z</time></trkpt><trkpt lat="43.3912237" lon="13.182756"><ele>283.0</ele><time>2026-04-25T08:29:23.57Z</time></trkpt><trkpt lat="43.3911352" lon="13.1827848"><ele>283.0</ele><time>2026-04-25T08:29:24.569Z</time></trkpt><trkpt lat="43.39105" lon="13.1828129"><ele>284.6</ele><time>2026-04-25T08:29:25.57Z</time></trkpt><trkpt lat="43.3909744" lon="13.1828498"><ele>286.20000000000005</ele><time>2026-04-25T08:29:26.568Z</time></trkpt><trkpt lat="43.3909081" lon="13.1828968"><ele>287.8</ele><time>2026-04-25T08:29:27.568Z</time></trkpt><trkpt lat="43.3908353" lon="13.1829604"><ele>289.40000000000003</ele><time>2026-04-25T08:29:28.571Z</time></trkpt><trkpt lat="43.3907594" lon="13.1830386"><ele>291.0</ele><time>2026-04-25T08:29:29.568Z</time></trkpt><trkpt lat="43.3906651" lon="13.1831367"><ele>292.25</ele><time>2026-04-25T08:29:30.566Z</time></trkpt><trkpt lat="43.3905818" lon="13.1832313"><ele>293.5</ele><time>2026-04-25T08:29:31.565Z</time></trkpt><trkpt lat="43.3905038" lon="13.1833296"><ele>294.75</ele><time>2026-04-25T08:29:32.57Z</time></trkpt><trkpt lat="43.3904053" lon="13.1834294"><ele>296.0</ele><time>2026-04-25T08:29:33.565Z</time></trkpt><trkpt lat="43.390305" lon="13.1835277"><ele>296.0</ele><time>2026-04-25T08:29:34.571Z</time></trkpt><trkpt lat="43.3902049" lon="13.183628"><ele>296.0</ele><time>2026-04-25T08:29:35.569Z</time></trkpt><trkpt lat="43.3901066" lon="13.1837365"><ele>296.0</ele><time>2026-04-25T08:29:36.572Z</time></trkpt><trkpt lat="43.3900062" lon="13.1838381"><ele>296.0</ele><time>2026-04-25T08:29:37.569Z</time></trkpt><trkpt lat="43.3899021" lon="13.1839378"><ele>294.25</ele><time>2026-04-25T08:29:38.572Z</time></trkpt><trkpt lat="43.3898033" lon="13.1840332"><ele>292.5</ele><time>2026-04-25T08:29:39.568Z</time></trkpt><trkpt lat="43.3897158" lon="13.1841249"><ele>290.75</ele><time>2026-04-25T08:29:40.572Z</time></trkpt><trkpt lat="43.3896164" lon="13.1842095"><ele>289.0</ele><time>2026-04-25T08:29:41.566Z</time></trkpt><trkpt lat="43.3895158" lon="13.1843001"><ele>292.66666666666663</ele><time>2026-04-25T08:29:42.571Z</time></trkpt><trkpt lat="43.3894237" lon="13.1843941"><ele>296.3333333333333</ele><time>2026-04-25T08:29:43.567Z</time></trkpt><trkpt lat="43.3893391" lon="13.1844808"><ele>300.0</ele><time>2026-04-25T08:29:44.569Z</time></trkpt><trkpt lat="43.389269" lon="13.1845435"><ele>303.6666666666667</ele><time>2026-04-25T08:29:45.567Z</time></trkpt><trkpt lat="43.3892125" lon="13.1846066"><ele>307.33333333333337</ele><time>2026-04-25T08:29:46.569Z</time></trkpt><trkpt lat="43.3891782" lon="13.1846832"><ele>311.0</ele><time>2026-04-25T08:29:47.564Z</time></trkpt><trkpt lat="43.3891642" lon="13.1847848"><ele>312.5</ele><time>2026-04-25T08:29:48.571Z</time></trkpt><trkpt lat="43.3891611" lon="13.184886"><ele>314.0</ele><time>2026-04-25T08:29:49.571Z</time></trkpt><trkpt lat="43.3891698" lon="13.184979"><ele>315.5</ele><time>2026-04-25T08:29:50.577Z</time></trkpt><trkpt lat="43.3891806" lon="13.1850647"><ele>317.0</ele><time>2026-04-25T08:29:51.569Z</time></trkpt><trkpt lat="43.3891716" lon="13.1851552"><ele>318.5</ele><time>2026-04-25T08:29:52.568Z</time></trkpt><trkpt lat="43.3890963" lon="13.185216"><ele>320.0</ele><time>2026-04-25T08:29:54.565Z</time></trkpt><trkpt lat="43.3889894" lon="13.1851273"><ele>320.0</ele><time>2026-04-25T08:29:56.564Z</time></trkpt><trkpt lat="43.3889374" lon="13.1850607"><ele>320.0</ele><time>2026-04-25T08:29:57.566Z</time></trkpt><trkpt lat="43.3888792" lon="13.184988"><ele>320.0</ele><time>2026-04-25T08:29:58.562Z</time></trkpt><trkpt lat="43.3888182" lon="13.184918"><ele>320.0</ele><time>2026-04-25T08:29:59.565Z</time></trkpt><trkpt lat="43.3887468" lon="13.1848463"><ele>320.0</ele><time>2026-04-25T08:30:00.557Z</time></trkpt><trkpt lat="43.38867" lon="13.1847875"><ele>320.0</ele><time>2026-04-25T08:30:01.552Z</time></trkpt><trkpt lat="43.3885768" lon="13.1847321"><ele>321.25</ele><time>2026-04-25T08:30:02.559Z</time></trkpt><trkpt lat="43.3884725" lon="13.1846768"><ele>322.5</ele><time>2026-04-25T08:30:03.554Z</time></trkpt><trkpt lat="43.3883624" lon="13.18464"><ele>323.75</ele><time>2026-04-25T08:30:04.552Z</time></trkpt><trkpt lat="43.3882404" lon="13.184614"><ele>325.0</ele><time>2026-04-25T08:30:05.553Z</time></trkpt><trkpt lat="43.3881288" lon="13.1845849"><ele>325.0</ele><time>2026-04-25T08:30:06.557Z</time></trkpt><trkpt lat="43.3880312" lon="13.1845502"><ele>325.0</ele><time>2026-04-25T08:30:07.559Z</time></trkpt><trkpt lat="43.3879368" lon="13.1844882"><ele>325.0</ele><time>2026-04-25T08:30:08.565Z</time></trkpt><trkpt lat="43.387835" lon="13.1844411"><ele>325.0</ele><time>2026-04-25T08:30:09.563Z</time></trkpt><trkpt lat="43.3877311" lon="13.1844116"><ele>325.0</ele><time>2026-04-25T08:30:10.559Z</time></trkpt><trkpt lat="43.3876297" lon="13.1843878"><ele>329.2</ele><time>2026-04-25T08:30:11.56Z</time></trkpt><trkpt lat="43.3875338" lon="13.1843542"><ele>333.4</ele><time>2026-04-25T08:30:12.556Z</time></trkpt><trkpt lat="43.3874416" lon="13.1843092"><ele>337.6</ele><time>2026-04-25T08:30:13.564Z</time></trkpt><trkpt lat="43.3873503" lon="13.1842492"><ele>341.8</ele><time>2026-04-25T08:30:14.556Z</time></trkpt><trkpt lat="43.3872704" lon="13.1841812"><ele>346.0</ele><time>2026-04-25T08:30:15.563Z</time></trkpt><trkpt lat="43.3871856" lon="13.1841142"><ele>347.6</ele><time>2026-04-25T08:30:16.549Z</time></trkpt><trkpt lat="43.387101" lon="13.1840498"><ele>349.20000000000005</ele><time>2026-04-25T08:30:17.544Z</time></trkpt><trkpt lat="43.3870249" lon="13.1839612"><ele>350.79999999999995</ele><time>2026-04-25T08:30:18.557Z</time></trkpt><trkpt lat="43.386925" lon="13.183892"><ele>352.4</ele><time>2026-04-25T08:30:19.547Z</time></trkpt><trkpt lat="43.3868064" lon="13.1838673"><ele>354.0</ele><time>2026-04-25T08:30:20.551Z</time></trkpt><trkpt lat="43.3866639" lon="13.1838565"><ele>354.0</ele><time>2026-04-25T08:30:21.545Z</time></trkpt><trkpt lat="43.3865107" lon="13.1838607"><ele>354.0</ele><time>2026-04-25T08:30:22.542Z</time></trkpt><trkpt lat="43.3863935" lon="13.1838803"><ele>354.0</ele><time>2026-04-25T08:30:23.54Z</time></trkpt><trkpt lat="43.386324" lon="13.1837642"><ele>354.0</ele><time>2026-04-25T08:30:25.545Z</time></trkpt><trkpt lat="43.386321" lon="13.1836232"><ele>354.0</ele><time>2026-04-25T08:30:26.545Z</time></trkpt><trkpt lat="43.3863591" lon="13.1834497"><ele>354.0</ele><time>2026-04-25T08:30:27.557Z</time></trkpt><trkpt lat="43.3864324" lon="13.1832554"><ele>354.0</ele><time>2026-04-25T08:30:28.564Z</time></trkpt><trkpt lat="43.3864221" lon="13.1831391"><ele>354.0</ele><time>2026-04-25T08:30:29.553Z</time></trkpt><trkpt lat="43.3863895" lon="13.1830391"><ele>355.79999999999995</ele><time>2026-04-25T08:30:30.559Z</time></trkpt><trkpt lat="43.3863457" lon="13.1829435"><ele>357.59999999999997</ele><time>2026-04-25T08:30:31.545Z</time></trkpt><trkpt lat="43.3863015" lon="13.1828372"><ele>359.4</ele><time>2026-04-25T08:30:32.553Z</time></trkpt><trkpt lat="43.3862666" lon="13.1827393"><ele>361.2</ele><time>2026-04-25T08:30:33.529Z</time></trkpt><trkpt lat="43.3862295" lon="13.1825767"><ele>363.0</ele><time>2026-04-25T08:30:34.543Z</time></trkpt><trkpt lat="43.3862102" lon="13.1824678"><ele>363.0</ele><time>2026-04-25T08:30:35.532Z</time></trkpt><trkpt lat="43.3861877" lon="13.1823843"><ele>363.0</ele><time>2026-04-25T08:30:36.542Z</time></trkpt><trkpt lat="43.3861199" lon="13.1823754"><ele>363.0</ele><time>2026-04-25T08:30:38.553Z</time></trkpt><trkpt lat="43.3860454" lon="13.1823515"><ele>363.0</ele><time>2026-04-25T08:30:39.558Z</time></trkpt><trkpt lat="43.385939" lon="13.1822939"><ele>363.0</ele><time>2026-04-25T08:30:40.562Z</time></trkpt><trkpt lat="43.3858407" lon="13.1822302"><ele>363.0</ele><time>2026-04-25T08:30:41.569Z</time></trkpt><trkpt lat="43.3857619" lon="13.182199"><ele>362.6666666666667</ele><time>2026-04-25T08:30:42.568Z</time></trkpt><trkpt lat="43.3856683" lon="13.1821731"><ele>362.3333333333333</ele><time>2026-04-25T08:30:44.57Z</time></trkpt><trkpt lat="43.3855816" lon="13.182119"><ele>362.0</ele><time>2026-04-25T08:30:46.573Z</time></trkpt><trkpt lat="43.3855397" lon="13.1820509"><ele>361.66666666666663</ele><time>2026-04-25T08:30:47.564Z</time></trkpt><trkpt lat="43.3855058" lon="13.1819509"><ele>361.3333333333333</ele><time>2026-04-25T08:30:48.566Z</time></trkpt><trkpt lat="43.3854859" lon="13.1818461"><ele>361.0</ele><time>2026-04-25T08:30:49.553Z</time></trkpt><trkpt lat="43.3854488" lon="13.1817607"><ele>361.0</ele><time>2026-04-25T08:30:50.559Z</time></trkpt><trkpt lat="43.3854039" lon="13.1816874"><ele>361.0</ele><time>2026-04-25T08:30:51.564Z</time></trkpt><trkpt lat="43.3853431" lon="13.1816154"><ele>361.0</ele><time>2026-04-25T08:30:52.57Z</time></trkpt><trkpt lat="43.3852745" lon="13.1815403"><ele>361.0</ele><time>2026-04-25T08:30:53.562Z</time></trkpt><trkpt lat="43.3851882" lon="13.1814394"><ele>361.0</ele><time>2026-04-25T08:30:54.554Z</time></trkpt><trkpt lat="43.3850876" lon="13.1813333"><ele>356.75</ele><time>2026-04-25T08:30:55.559Z</time></trkpt><trkpt lat="43.3849897" lon="13.1812154"><ele>352.5</ele><time>2026-04-25T08:30:56.56Z</time></trkpt><trkpt lat="43.3848939" lon="13.1811117"><ele>348.25</ele><time>2026-04-25T08:30:57.557Z</time></trkpt><trkpt lat="43.3847772" lon="13.1810246"><ele>344.0</ele><time>2026-04-25T08:30:58.56Z</time></trkpt><trkpt lat="43.3846643" lon="13.1809391"><ele>344.0</ele><time>2026-04-25T08:30:59.563Z</time></trkpt><trkpt lat="43.384541" lon="13.180865"><ele>344.0</ele><time>2026-04-25T08:31:00.555Z</time></trkpt><trkpt lat="43.3844392" lon="13.1807684"><ele>344.0</ele><time>2026-04-25T08:31:01.564Z</time></trkpt><trkpt lat="43.3843265" lon="13.1806972"><ele>344.0</ele><time>2026-04-25T08:31:02.554Z</time></trkpt><trkpt lat="43.3842162" lon="13.1806104"><ele>344.0</ele><time>2026-04-25T08:31:03.563Z</time></trkpt><trkpt lat="43.3840879" lon="13.1806602"><ele>344.0</ele><time>2026-04-25T08:31:04.565Z</time></trkpt><trkpt lat="43.3839626" lon="13.1807123"><ele>344.0</ele><time>2026-04-25T08:31:05.551Z</time></trkpt><trkpt lat="43.3838337" lon="13.180699"><ele>344.0</ele><time>2026-04-25T08:31:06.556Z</time></trkpt><trkpt lat="43.3836745" lon="13.1807233"><ele>342.33333333333337</ele><time>2026-04-25T08:31:07.558Z</time></trkpt><trkpt lat="43.3835298" lon="13.1807311"><ele>340.6666666666667</ele><time>2026-04-25T08:31:08.559Z</time></trkpt><trkpt lat="43.3833576" lon="13.1807834"><ele>339.0</ele><time>2026-04-25T08:31:09.562Z</time></trkpt><trkpt lat="43.3832158" lon="13.1808061"><ele>339.0</ele><time>2026-04-25T08:31:10.558Z</time></trkpt><trkpt lat="43.3831145" lon="13.1807686"><ele>339.0</ele><time>2026-04-25T08:31:11.554Z</time></trkpt><trkpt lat="43.3829715" lon="13.1808078"><ele>339.0</ele><time>2026-04-25T08:31:12.55Z</time></trkpt><trkpt lat="43.3828241" lon="13.1808566"><ele>339.0</ele><time>2026-04-25T08:31:13.555Z</time></trkpt><trkpt lat="43.3826618" lon="13.1808844"><ele>338.0</ele><time>2026-04-25T08:31:14.552Z</time></trkpt><trkpt lat="43.382515" lon="13.1809022"><ele>337.0</ele><time>2026-04-25T08:31:15.559Z</time></trkpt><trkpt lat="43.38237" lon="13.18089"><ele>336.0</ele><time>2026-04-25T08:31:16.554Z</time></trkpt><trkpt lat="43.3822227" lon="13.1808864"><ele>335.0</ele><time>2026-04-25T08:31:17.551Z</time></trkpt><trkpt lat="43.3820941" lon="13.1808918"><ele>335.0</ele><time>2026-04-25T08:31:18.557Z</time></trkpt><trkpt lat="43.3819857" lon="13.1808971"><ele>335.0</ele><time>2026-04-25T08:31:19.563Z</time></trkpt><trkpt lat="43.3818813" lon="13.1808886"><ele>335.0</ele><time>2026-04-25T08:31:20.571Z</time></trkpt><trkpt lat="43.381811" lon="13.1807976"><ele>335.0</ele><time>2026-04-25T08:31:21.564Z</time></trkpt><trkpt lat="43.3817547" lon="13.1806875"><ele>335.0</ele><time>2026-04-25T08:31:22.565Z</time></trkpt><trkpt lat="43.3817225" lon="13.1805758"><ele>337.2</ele><time>2026-04-25T08:31:23.562Z</time></trkpt><trkpt lat="43.3817068" lon="13.1804562"><ele>339.4</ele><time>2026-04-25T08:31:24.568Z</time></trkpt><trkpt lat="43.3817313" lon="13.1803277"><ele>341.6</ele><time>2026-04-25T08:31:25.562Z</time></trkpt><trkpt lat="43.3817754" lon="13.1802044"><ele>343.8</ele><time>2026-04-25T08:31:26.558Z</time></trkpt><trkpt lat="43.3818222" lon="13.180098"><ele>346.0</ele><time>2026-04-25T08:31:27.559Z</time></trkpt><trkpt lat="43.3819275" lon="13.1800381"><ele>346.0</ele><time>2026-04-25T08:31:28.558Z</time></trkpt><trkpt lat="43.3820428" lon="13.1799996"><ele>346.0</ele><time>2026-04-25T08:31:29.562Z</time></trkpt><trkpt lat="43.3821592" lon="13.1799557"><ele>346.0</ele><time>2026-04-25T08:31:30.566Z</time></trkpt><trkpt lat="43.3822889" lon="13.1798957"><ele>346.0</ele><time>2026-04-25T08:31:31.57Z</time></trkpt><trkpt lat="43.3824172" lon="13.1798248"><ele>345.0</ele><time>2026-04-25T08:31:32.57Z</time></trkpt><trkpt lat="43.3825457" lon="13.1797587"><ele>344.0</ele><time>2026-04-25T08:31:33.571Z</time></trkpt><trkpt lat="43.382678" lon="13.1796788"><ele>343.0</ele><time>2026-04-25T08:31:34.569Z</time></trkpt><trkpt lat="43.382819" lon="13.1796111"><ele>342.0</ele><time>2026-04-25T08:31:35.573Z</time></trkpt><trkpt lat="43.3829537" lon="13.1795221"><ele>339.0</ele><time>2026-04-25T08:31:36.567Z</time></trkpt><trkpt lat="43.3830812" lon="13.1794252"><ele>336.0</ele><time>2026-04-25T08:31:37.574Z</time></trkpt><trkpt lat="43.3832039" lon="13.1793268"><ele>333.0</ele><time>2026-04-25T08:31:38.572Z</time></trkpt><trkpt lat="43.3833376" lon="13.1792346"><ele>330.0</ele><time>2026-04-25T08:31:39.568Z</time></trkpt><trkpt lat="43.3834766" lon="13.1791364"><ele>330.0</ele><time>2026-04-25T08:31:40.567Z</time></trkpt><trkpt lat="43.3836222" lon="13.1790737"><ele>330.0</ele><time>2026-04-25T08:31:41.574Z</time></trkpt><trkpt lat="43.383746" lon="13.178987"><ele>330.0</ele><time>2026-04-25T08:31:42.57Z</time></trkpt><trkpt lat="43.3838449" lon="13.1789138"><ele>330.0</ele><time>2026-04-25T08:31:43.57Z</time></trkpt><trkpt lat="43.3839471" lon="13.1788397"><ele>331.4</ele><time>2026-04-25T08:31:44.561Z</time></trkpt><trkpt lat="43.3840262" lon="13.1787565"><ele>332.8</ele><time>2026-04-25T08:31:45.562Z</time></trkpt><trkpt lat="43.3841326" lon="13.1786764"><ele>334.20000000000005</ele><time>2026-04-25T08:31:46.569Z</time></trkpt><trkpt lat="43.3842051" lon="13.1785685"><ele>335.6</ele><time>2026-04-25T08:31:47.561Z</time></trkpt><trkpt lat="43.3843029" lon="13.1784771"><ele>337.0</ele><time>2026-04-25T08:31:48.557Z</time></trkpt><trkpt lat="43.3843926" lon="13.1784202"><ele>337.0</ele><time>2026-04-25T08:31:49.557Z</time></trkpt><trkpt lat="43.3844826" lon="13.1783365"><ele>337.0</ele><time>2026-04-25T08:31:50.566Z</time></trkpt><trkpt lat="43.3845463" lon="13.1782514"><ele>337.0</ele><time>2026-04-25T08:31:51.57Z</time></trkpt><trkpt lat="43.384597" lon="13.1781508"><ele>337.0</ele><time>2026-04-25T08:31:52.562Z</time></trkpt><trkpt lat="43.3846097" lon="13.1780302"><ele>337.0</ele><time>2026-04-25T08:31:53.557Z</time></trkpt><trkpt lat="43.384601" lon="13.1778849"><ele>339.0</ele><time>2026-04-25T08:31:54.56Z</time></trkpt><trkpt lat="43.3845857" lon="13.1777279"><ele>341.0</ele><time>2026-04-25T08:31:55.557Z</time></trkpt><trkpt lat="43.384585" lon="13.1775304"><ele>343.0</ele><time>2026-04-25T08:31:56.558Z</time></trkpt><trkpt lat="43.3845924" lon="13.1772866"><ele>345.0</ele><time>2026-04-25T08:31:57.56Z</time></trkpt><trkpt lat="43.3845242" lon="13.1771335"><ele>345.75</ele><time>2026-04-25T08:31:58.557Z</time></trkpt><trkpt lat="43.3844471" lon="13.176985"><ele>346.5</ele><time>2026-04-25T08:31:59.556Z</time></trkpt><trkpt lat="43.3843671" lon="13.1768491"><ele>347.25</ele><time>2026-04-25T08:32:00.559Z</time></trkpt><trkpt lat="43.3843075" lon="13.1767051"><ele>348.0</ele><time>2026-04-25T08:32:01.562Z</time></trkpt><trkpt lat="43.3842833" lon="13.1765665"><ele>348.4</ele><time>2026-04-25T08:32:02.56Z</time></trkpt><trkpt lat="43.3842645" lon="13.1764141"><ele>348.79999999999995</ele><time>2026-04-25T08:32:03.561Z</time></trkpt><trkpt lat="43.3842415" lon="13.1762735"><ele>349.2</ele><time>2026-04-25T08:32:04.565Z</time></trkpt><trkpt lat="43.3842481" lon="13.1761113"><ele>349.6</ele><time>2026-04-25T08:32:05.568Z</time></trkpt><trkpt lat="43.3842544" lon="13.1759686"><ele>350.0</ele><time>2026-04-25T08:32:06.572Z</time></trkpt><trkpt lat="43.3842809" lon="13.1758207"><ele>351.5</ele><time>2026-04-25T08:32:07.565Z</time></trkpt><trkpt lat="43.3843347" lon="13.1756618"><ele>353.0</ele><time>2026-04-25T08:32:08.562Z</time></trkpt><trkpt lat="43.3843966" lon="13.1755056"><ele>354.5</ele><time>2026-04-25T08:32:09.562Z</time></trkpt><trkpt lat="43.3844697" lon="13.1753396"><ele>356.0</ele><time>2026-04-25T08:32:10.551Z</time></trkpt><trkpt lat="43.3845606" lon="13.175173"><ele>356.0</ele><time>2026-04-25T08:32:11.55Z</time></trkpt><trkpt lat="43.3846329" lon="13.1749691"><ele>356.0</ele><time>2026-04-25T08:32:12.55Z</time></trkpt><trkpt lat="43.3847251" lon="13.1748006"><ele>356.0</ele><time>2026-04-25T08:32:13.55Z</time></trkpt><trkpt lat="43.3847872" lon="13.1746201"><ele>350.75</ele><time>2026-04-25T08:32:14.548Z</time></trkpt><trkpt lat="43.3848347" lon="13.1744592"><ele>345.5</ele><time>2026-04-25T08:32:15.555Z</time></trkpt><trkpt lat="43.3849305" lon="13.174337"><ele>340.25</ele><time>2026-04-25T08:32:16.552Z</time></trkpt><trkpt lat="43.3849653" lon="13.1741722"><ele>335.0</ele><time>2026-04-25T08:32:17.561Z</time></trkpt><trkpt lat="43.3850343" lon="13.1740504"><ele>335.75</ele><time>2026-04-25T08:32:18.564Z</time></trkpt><trkpt lat="43.3851124" lon="13.1738918"><ele>336.5</ele><time>2026-04-25T08:32:19.565Z</time></trkpt><trkpt lat="43.3851769" lon="13.1737525"><ele>337.25</ele><time>2026-04-25T08:32:20.563Z</time></trkpt><trkpt lat="43.3852689" lon="13.1736077"><ele>338.0</ele><time>2026-04-25T08:32:21.568Z</time></trkpt><trkpt lat="43.3853597" lon="13.1734835"><ele>338.0</ele><time>2026-04-25T08:32:22.567Z</time></trkpt><trkpt lat="43.3854215" lon="13.1732895"><ele>338.0</ele><time>2026-04-25T08:32:23.564Z</time></trkpt><trkpt lat="43.3855049" lon="13.1731261"><ele>338.0</ele><time>2026-04-25T08:32:24.565Z</time></trkpt><trkpt lat="43.3856026" lon="13.1729963"><ele>338.0</ele><time>2026-04-25T08:32:25.576Z</time></trkpt><trkpt lat="43.385682" lon="13.1728406"><ele>336.0</ele><time>2026-04-25T08:32:26.572Z</time></trkpt><trkpt lat="43.38573" lon="13.1727001"><ele>334.0</ele><time>2026-04-25T08:32:27.57Z</time></trkpt><trkpt lat="43.3857787" lon="13.1726052"><ele>332.0</ele><time>2026-04-25T08:32:28.573Z</time></trkpt><trkpt lat="43.3858096" lon="13.1724766"><ele>330.0</ele><time>2026-04-25T08:32:29.575Z</time></trkpt><trkpt lat="43.3858578" lon="13.1723437"><ele>328.0</ele><time>2026-04-25T08:32:30.562Z</time></trkpt><trkpt lat="43.3858851" lon="13.1722001"><ele>327.0</ele><time>2026-04-25T08:32:31.573Z</time></trkpt><trkpt lat="43.3858722" lon="13.1720471"><ele>326.0</ele><time>2026-04-25T08:32:32.566Z</time></trkpt><trkpt lat="43.3858442" lon="13.1718999"><ele>325.0</ele><time>2026-04-25T08:32:33.564Z</time></trkpt><trkpt lat="43.3858048" lon="13.1717629"><ele>324.0</ele><time>2026-04-25T08:32:34.565Z</time></trkpt><trkpt lat="43.3857665" lon="13.1716224"><ele>323.0</ele><time>2026-04-25T08:32:35.562Z</time></trkpt><trkpt lat="43.3857067" lon="13.1714985"><ele>318.0</ele><time>2026-04-25T08:32:36.563Z</time></trkpt><trkpt lat="43.3856396" lon="13.171374"><ele>313.0</ele><time>2026-04-25T08:32:37.568Z</time></trkpt><trkpt lat="43.3855684" lon="13.1712452"><ele>308.0</ele><time>2026-04-25T08:32:38.556Z</time></trkpt><trkpt lat="43.3855006" lon="13.171122"><ele>303.0</ele><time>2026-04-25T08:32:39.561Z</time></trkpt><trkpt lat="43.3854471" lon="13.1709912"><ele>310.8</ele><time>2026-04-25T08:32:40.555Z</time></trkpt><trkpt lat="43.3853922" lon="13.1708568"><ele>318.6</ele><time>2026-04-25T08:32:41.556Z</time></trkpt><trkpt lat="43.3853502" lon="13.1707259"><ele>326.40000000000003</ele><time>2026-04-25T08:32:42.553Z</time></trkpt><trkpt lat="43.385315" lon="13.1706178"><ele>334.20000000000005</ele><time>2026-04-25T08:32:43.564Z</time></trkpt><trkpt lat="43.3852863" lon="13.1705154"><ele>342.0</ele><time>2026-04-25T08:32:44.556Z</time></trkpt><trkpt lat="43.3852554" lon="13.1704165"><ele>342.0</ele><time>2026-04-25T08:32:45.563Z</time></trkpt><trkpt lat="43.3852424" lon="13.1703239"><ele>342.0</ele><time>2026-04-25T08:32:46.563Z</time></trkpt><trkpt lat="43.3852271" lon="13.1702387"><ele>342.0</ele><time>2026-04-25T08:32:47.569Z</time></trkpt><trkpt lat="43.3852218" lon="13.1701341"><ele>342.0</ele><time>2026-04-25T08:32:48.568Z</time></trkpt><trkpt lat="43.3852182" lon="13.1700076"><ele>342.0</ele><time>2026-04-25T08:32:49.575Z</time></trkpt><trkpt lat="43.3852229" lon="13.1698734"><ele>342.0</ele><time>2026-04-25T08:32:50.571Z</time></trkpt><trkpt lat="43.3852195" lon="13.16973"><ele>340.0</ele><time>2026-04-25T08:32:51.568Z</time></trkpt><trkpt lat="43.3852094" lon="13.1695975"><ele>338.0</ele><time>2026-04-25T08:32:52.575Z</time></trkpt><trkpt lat="43.3851987" lon="13.1694669"><ele>336.0</ele><time>2026-04-25T08:32:53.565Z</time></trkpt><trkpt lat="43.3851753" lon="13.169336"><ele>334.0</ele><time>2026-04-25T08:32:54.57Z</time></trkpt><trkpt lat="43.385148" lon="13.1691967"><ele>332.0</ele><time>2026-04-25T08:32:55.566Z</time></trkpt><trkpt lat="43.3851267" lon="13.169057"><ele>331.5</ele><time>2026-04-25T08:32:56.569Z</time></trkpt><trkpt lat="43.3850913" lon="13.1689346"><ele>331.0</ele><time>2026-04-25T08:32:57.57Z</time></trkpt><trkpt lat="43.3850633" lon="13.168833"><ele>330.5</ele><time>2026-04-25T08:32:58.568Z</time></trkpt><trkpt lat="43.3850308" lon="13.1687398"><ele>330.0</ele><time>2026-04-25T08:32:59.565Z</time></trkpt><trkpt lat="43.3849987" lon="13.1686507"><ele>329.5</ele><time>2026-04-25T08:33:00.562Z</time></trkpt><trkpt lat="43.3849886" lon="13.1685509"><ele>329.0</ele><time>2026-04-25T08:33:01.563Z</time></trkpt><trkpt lat="43.3850041" lon="13.1684327"><ele>329.0</ele><time>2026-04-25T08:33:02.564Z</time></trkpt><trkpt lat="43.385032" lon="13.1683147"><ele>329.0</ele><time>2026-04-25T08:33:03.569Z</time></trkpt><trkpt lat="43.385099" lon="13.1681888"><ele>329.0</ele><time>2026-04-25T08:33:04.564Z</time></trkpt><trkpt lat="43.3851608" lon="13.1680576"><ele>329.0</ele><time>2026-04-25T08:33:05.567Z</time></trkpt><trkpt lat="43.3852225" lon="13.1679181"><ele>329.0</ele><time>2026-04-25T08:33:06.565Z</time></trkpt><trkpt lat="43.3852896" lon="13.1677849"><ele>329.5</ele><time>2026-04-25T08:33:07.565Z</time></trkpt><trkpt lat="43.3853666" lon="13.1676535"><ele>330.0</ele><time>2026-04-25T08:33:08.57Z</time></trkpt><trkpt lat="43.3854612" lon="13.1675206"><ele>330.5</ele><time>2026-04-25T08:33:09.566Z</time></trkpt><trkpt lat="43.3855548" lon="13.1674082"><ele>331.0</ele><time>2026-04-25T08:33:10.571Z</time></trkpt><trkpt lat="43.3856457" lon="13.167309"><ele>324.40000000000003</ele><time>2026-04-25T08:33:11.569Z</time></trkpt><trkpt lat="43.3857303" lon="13.1672263"><ele>317.8</ele><time>2026-04-25T08:33:12.571Z</time></trkpt><trkpt lat="43.385812" lon="13.1671472"><ele>311.20000000000005</ele><time>2026-04-25T08:33:13.575Z</time></trkpt><trkpt lat="43.3858942" lon="13.1670751"><ele>304.6</ele><time>2026-04-25T08:33:14.577Z</time></trkpt><trkpt lat="43.3859908" lon="13.1669986"><ele>298.0</ele><time>2026-04-25T08:33:15.575Z</time></trkpt><trkpt lat="43.3860924" lon="13.1669184"><ele>298.0</ele><time>2026-04-25T08:33:16.583Z</time></trkpt><trkpt lat="43.3861861" lon="13.1668295"><ele>298.0</ele><time>2026-04-25T08:33:17.584Z</time></trkpt><trkpt lat="43.3862789" lon="13.1667409"><ele>298.0</ele><time>2026-04-25T08:33:18.581Z</time></trkpt><trkpt lat="43.3863711" lon="13.1666475"><ele>298.0</ele><time>2026-04-25T08:33:19.582Z</time></trkpt><trkpt lat="43.3864672" lon="13.1665611"><ele>297.5</ele><time>2026-04-25T08:33:20.571Z</time></trkpt><trkpt lat="43.3865643" lon="13.1664654"><ele>297.0</ele><time>2026-04-25T08:33:21.58Z</time></trkpt><trkpt lat="43.3866684" lon="13.1663733"><ele>296.5</ele><time>2026-04-25T08:33:22.573Z</time></trkpt><trkpt lat="43.3867686" lon="13.1662738"><ele>296.0</ele><time>2026-04-25T08:33:23.582Z</time></trkpt><trkpt lat="43.3868726" lon="13.1661691"><ele>296.0</ele><time>2026-04-25T08:33:24.567Z</time></trkpt><trkpt lat="43.3869697" lon="13.1660751"><ele>296.0</ele><time>2026-04-25T08:33:25.562Z</time></trkpt><trkpt lat="43.3870807" lon="13.1659841"><ele>296.0</ele><time>2026-04-25T08:33:26.562Z</time></trkpt><trkpt lat="43.387153" lon="13.1659026"><ele>296.0</ele><time>2026-04-25T08:33:27.566Z</time></trkpt><trkpt lat="43.3872381" lon="13.16574"><ele>302.0</ele><time>2026-04-25T08:33:29.561Z</time></trkpt><trkpt lat="43.3873125" lon="13.1656502"><ele>308.0</ele><time>2026-04-25T08:33:30.555Z</time></trkpt><trkpt lat="43.3874187" lon="13.1655448"><ele>314.0</ele><time>2026-04-25T08:33:31.553Z</time></trkpt><trkpt lat="43.3875172" lon="13.1654298"><ele>320.0</ele><time>2026-04-25T08:33:32.535Z</time></trkpt><trkpt lat="43.3876027" lon="13.1653316"><ele>320.0</ele><time>2026-04-25T08:33:33.532Z</time></trkpt><trkpt lat="43.3876986" lon="13.1651888"><ele>320.0</ele><time>2026-04-25T08:33:34.535Z</time></trkpt><trkpt lat="43.3877537" lon="13.165049"><ele>320.0</ele><time>2026-04-25T08:33:35.535Z</time></trkpt><trkpt lat="43.3878484" lon="13.1648891"><ele>320.0</ele><time>2026-04-25T08:33:36.514Z</time></trkpt><trkpt lat="43.3879348" lon="13.1647741"><ele>320.0</ele><time>2026-04-25T08:33:37.54Z</time></trkpt><trkpt lat="43.3880828" lon="13.1648448"><ele>320.0</ele><time>2026-04-25T08:33:38.548Z</time></trkpt><trkpt lat="43.3881853" lon="13.1649863"><ele>320.0</ele><time>2026-04-25T08:33:39.551Z</time></trkpt><trkpt lat="43.3882828" lon="13.1649991"><ele>320.0</ele><time>2026-04-25T08:33:40.551Z</time></trkpt><trkpt lat="43.388383" lon="13.165001"><ele>320.0</ele><time>2026-04-25T08:33:41.552Z</time></trkpt><trkpt lat="43.3885019" lon="13.165026"><ele>320.0</ele><time>2026-04-25T08:33:42.556Z</time></trkpt><trkpt lat="43.3885846" lon="13.1650749"><ele>320.0</ele><time>2026-04-25T08:33:43.555Z</time></trkpt><trkpt lat="43.3886172" lon="13.165157"><ele>320.0</ele><time>2026-04-25T08:33:44.548Z</time></trkpt><trkpt lat="43.388631" lon="13.1652632"><ele>320.0</ele><time>2026-04-25T08:33:45.546Z</time></trkpt><trkpt lat="43.388631" lon="13.1653547"><ele>320.0</ele><time>2026-04-25T08:33:47.542Z</time></trkpt><trkpt lat="43.3886562" lon="13.1655004"><ele>320.0</ele><time>2026-04-25T08:33:53.541Z</time></trkpt><trkpt lat="43.3886523" lon="13.1655878"><ele>320.0</ele><time>2026-04-25T08:34:00.542Z</time></trkpt><trkpt lat="43.3886479" lon="13.1656801"><ele>320.0</ele><time>2026-04-25T08:34:05.551Z</time></trkpt><trkpt lat="43.3886284" lon="13.1655974"><ele>320.0</ele><time>2026-04-25T08:34:10.548Z</time></trkpt><trkpt lat="43.3885827" lon="13.1657162"><ele>320.0</ele><time>2026-04-25T08:34:20.56Z</time></trkpt><trkpt lat="43.388577" lon="13.1658304"><ele>320.0</ele><time>2026-04-25T08:34:22.539Z</time></trkpt><trkpt lat="43.3885731" lon="13.1659319"><ele>320.0</ele><time>2026-04-25T08:34:35.547Z</time></trkpt><trkpt lat="43.3885444" lon="13.1658466"><ele>320.5</ele><time>2026-04-25T08:34:41.551Z</time></trkpt><trkpt lat="43.3885505" lon="13.1659359"><ele>321.0</ele><time>2026-04-25T08:34:46.543Z</time></trkpt><trkpt lat="43.388643" lon="13.1659418"><ele>321.5</ele><time>2026-04-25T08:34:49.556Z</time></trkpt><trkpt lat="43.3887097" lon="13.1658735"><ele>322.0</ele><time>2026-04-25T08:34:50.553Z</time></trkpt><trkpt lat="43.388828" lon="13.1658712"><ele>322.5</ele><time>2026-04-25T08:34:52.547Z</time></trkpt><trkpt lat="43.3888948" lon="13.1658812"><ele>323.0</ele><time>2026-04-25T08:34:53.545Z</time></trkpt><trkpt lat="43.3889654" lon="13.1658988"><ele>323.59999999999997</ele><time>2026-04-25T08:34:54.542Z</time></trkpt><trkpt lat="43.3890699" lon="13.1659255"><ele>324.2</ele><time>2026-04-25T08:34:56.549Z</time></trkpt><trkpt lat="43.3891632" lon="13.1658884"><ele>324.8</ele><time>2026-04-25T08:34:58.548Z</time></trkpt><trkpt lat="43.3892433" lon="13.1657782"><ele>325.4</ele><time>2026-04-25T08:35:00.547Z</time></trkpt><trkpt lat="43.3892783" lon="13.1657008"><ele>326.0</ele><time>2026-04-25T08:35:01.554Z</time></trkpt><trkpt lat="43.3893055" lon="13.1655413"><ele>326.2857142857143</ele><time>2026-04-25T08:35:03.553Z</time></trkpt><trkpt lat="43.3892586" lon="13.1654448"><ele>326.57142857142856</ele><time>2026-04-25T08:35:05.548Z</time></trkpt><trkpt lat="43.3891817" lon="13.1654281"><ele>326.85714285714283</ele><time>2026-04-25T08:35:07.558Z</time></trkpt><trkpt lat="43.3891033" lon="13.1654158"><ele>327.1428571428571</ele><time>2026-04-25T08:35:09.565Z</time></trkpt><trkpt lat="43.389058" lon="13.1653481"><ele>327.42857142857144</ele><time>2026-04-25T08:35:10.562Z</time></trkpt><trkpt lat="43.3891023" lon="13.1652796"><ele>327.71428571428567</ele><time>2026-04-25T08:35:14.564Z</time></trkpt><trkpt lat="43.3891703" lon="13.1652531"><ele>328.0</ele><time>2026-04-25T08:35:16.569Z</time></trkpt><trkpt lat="43.3892371" lon="13.1652361"><ele>328.0</ele><time>2026-04-25T08:35:18.564Z</time></trkpt><trkpt lat="43.3893191" lon="13.1651976"><ele>328.0</ele><time>2026-04-25T08:35:20.564Z</time></trkpt><trkpt lat="43.3893892" lon="13.1651203"><ele>328.0</ele><time>2026-04-25T08:35:22.571Z</time></trkpt><trkpt lat="43.3894446" lon="13.1650788"><ele>328.0</ele><time>2026-04-25T08:35:23.576Z</time></trkpt><trkpt lat="43.3895262" lon="13.1650737"><ele>328.0</ele><time>2026-04-25T08:35:24.55Z</time></trkpt><trkpt lat="43.3896073" lon="13.165046"><ele>328.0</ele><time>2026-04-25T08:35:25.551Z</time></trkpt><trkpt lat="43.3897239" lon="13.1650458"><ele>330.66666666666663</ele><time>2026-04-25T08:35:27.543Z</time></trkpt><trkpt lat="43.3897889" lon="13.1650162"><ele>333.3333333333333</ele><time>2026-04-25T08:35:28.558Z</time></trkpt><trkpt lat="43.3898738" lon="13.1649878"><ele>336.0</ele><time>2026-04-25T08:35:30.564Z</time></trkpt><trkpt lat="43.3899485" lon="13.1649565"><ele>338.6666666666667</ele><time>2026-04-25T08:35:33.561Z</time></trkpt><trkpt lat="43.3899325" lon="13.164825"><ele>341.33333333333337</ele><time>2026-04-25T08:35:36.567Z</time></trkpt><trkpt lat="43.3899318" lon="13.16469"><ele>344.0</ele><time>2026-04-25T08:35:38.566Z</time></trkpt><trkpt lat="43.389939" lon="13.1645432"><ele>346.6</ele><time>2026-04-25T08:35:40.565Z</time></trkpt><trkpt lat="43.3899085" lon="13.1644089"><ele>349.2</ele><time>2026-04-25T08:35:42.559Z</time></trkpt><trkpt lat="43.3898563" lon="13.1642819"><ele>351.8</ele><time>2026-04-25T08:35:44.561Z</time></trkpt><trkpt lat="43.3898364" lon="13.1641368"><ele>354.40000000000003</ele><time>2026-04-25T08:35:46.565Z</time></trkpt><trkpt lat="43.3898188" lon="13.1640128"><ele>357.0</ele><time>2026-04-25T08:35:48.558Z</time></trkpt><trkpt lat="43.3897419" lon="13.1639069"><ele>361.3333333333333</ele><time>2026-04-25T08:35:50.558Z</time></trkpt><trkpt lat="43.3896616" lon="13.1638021"><ele>365.6666666666667</ele><time>2026-04-25T08:35:52.555Z</time></trkpt><trkpt lat="43.3895782" lon="13.1637294"><ele>370.0</ele><time>2026-04-25T08:35:54.558Z</time></trkpt><trkpt lat="43.3895156" lon="13.163644"><ele>374.33333333333337</ele><time>2026-04-25T08:35:56.551Z</time></trkpt><trkpt lat="43.38945" lon="13.1635706"><ele>378.6666666666667</ele><time>2026-04-25T08:35:59.546Z</time></trkpt><trkpt lat="43.3893841" lon="13.1635616"><ele>383.0</ele><time>2026-04-25T08:36:00.541Z</time></trkpt><trkpt lat="43.389312" lon="13.1634925"><ele>383.0</ele><time>2026-04-25T08:36:01.542Z</time></trkpt><trkpt lat="43.3892654" lon="13.1634114"><ele>383.0</ele><time>2026-04-25T08:36:02.544Z</time></trkpt><trkpt lat="43.3891697" lon="13.1634461"><ele>383.0</ele><time>2026-04-25T08:36:04.54Z</time></trkpt><trkpt lat="43.389061" lon="13.1633424"><ele>383.0</ele><time>2026-04-25T08:36:06.541Z</time></trkpt><trkpt lat="43.3890281" lon="13.1632518"><ele>383.0</ele><time>2026-04-25T08:36:07.543Z</time></trkpt><trkpt lat="43.3889842" lon="13.1631749"><ele>384.33333333333337</ele><time>2026-04-25T08:36:08.546Z</time></trkpt><trkpt lat="43.3888857" lon="13.1631957"><ele>385.6666666666667</ele><time>2026-04-25T08:36:10.543Z</time></trkpt><trkpt lat="43.3888222" lon="13.1632175"><ele>387.0</ele><time>2026-04-25T08:36:11.542Z</time></trkpt><trkpt lat="43.388752" lon="13.1632166"><ele>388.33333333333337</ele><time>2026-04-25T08:36:12.546Z</time></trkpt><trkpt lat="43.388671" lon="13.1632297"><ele>389.6666666666667</ele><time>2026-04-25T08:36:13.548Z</time></trkpt><trkpt lat="43.3886001" lon="13.1632286"><ele>391.0</ele><time>2026-04-25T08:36:14.548Z</time></trkpt><trkpt lat="43.3885316" lon="13.1632205"><ele>391.00000000000006</ele><time>2026-04-25T08:36:15.55Z</time></trkpt><trkpt lat="43.3884509" lon="13.1632098"><ele>391.0</ele><time>2026-04-25T08:36:16.551Z</time></trkpt><trkpt lat="43.3883849" lon="13.1632078"><ele>391.0</ele><time>2026-04-25T08:36:17.549Z</time></trkpt><trkpt lat="43.3883043" lon="13.1631965"><ele>391.0</ele><time>2026-04-25T08:36:19.554Z</time></trkpt><trkpt lat="43.3882082" lon="13.1632057"><ele>391.00000000000006</ele><time>2026-04-25T08:36:21.557Z</time></trkpt><trkpt lat="43.3880946" lon="13.1631558"><ele>391.0</ele><time>2026-04-25T08:36:23.558Z</time></trkpt><trkpt lat="43.3880316" lon="13.1631373"><ele>396.20000000000005</ele><time>2026-04-25T08:36:24.549Z</time></trkpt><trkpt lat="43.3879284" lon="13.163096"><ele>401.40000000000003</ele><time>2026-04-25T08:36:26.561Z</time></trkpt><trkpt lat="43.3878056" lon="13.1630621"><ele>406.6</ele><time>2026-04-25T08:36:28.566Z</time></trkpt><trkpt lat="43.3877427" lon="13.1630419"><ele>411.8</ele><time>2026-04-25T08:36:29.562Z</time></trkpt><trkpt lat="43.3876678" lon="13.1630214"><ele>417.0</ele><time>2026-04-25T08:36:30.568Z</time></trkpt><trkpt lat="43.387548" lon="13.1629936"><ele>417.0</ele><time>2026-04-25T08:36:32.572Z</time></trkpt><trkpt lat="43.3874649" lon="13.1630003"><ele>417.0</ele><time>2026-04-25T08:36:34.559Z</time></trkpt><trkpt lat="43.3873853" lon="13.162982"><ele>417.0</ele><time>2026-04-25T08:36:36.561Z</time></trkpt><trkpt lat="43.3872871" lon="13.1629142"><ele>417.0</ele><time>2026-04-25T08:36:38.561Z</time></trkpt><trkpt lat="43.3871807" lon="13.1628514"><ele>417.0</ele><time>2026-04-25T08:36:40.559Z</time></trkpt><trkpt lat="43.387081" lon="13.1627942"><ele>411.8</ele><time>2026-04-25T08:36:42.559Z</time></trkpt><trkpt lat="43.3869787" lon="13.1627411"><ele>406.6</ele><time>2026-04-25T08:36:44.556Z</time></trkpt><trkpt lat="43.3868861" lon="13.1626899"><ele>401.40000000000003</ele><time>2026-04-25T08:36:46.565Z</time></trkpt><trkpt lat="43.3868121" lon="13.1625965"><ele>396.20000000000005</ele><time>2026-04-25T08:36:48.563Z</time></trkpt><trkpt lat="43.3867349" lon="13.1625372"><ele>391.0</ele><time>2026-04-25T08:36:50.563Z</time></trkpt><trkpt lat="43.3866696" lon="13.1624847"><ele>391.00000000000006</ele><time>2026-04-25T08:36:52.566Z</time></trkpt><trkpt lat="43.3866175" lon="13.1623786"><ele>391.0</ele><time>2026-04-25T08:36:54.555Z</time></trkpt><trkpt lat="43.3865681" lon="13.1623057"><ele>391.0</ele><time>2026-04-25T08:36:56.559Z</time></trkpt><trkpt lat="43.386545" lon="13.1622067"><ele>391.0</ele><time>2026-04-25T08:37:04.551Z</time></trkpt><trkpt lat="43.3864885" lon="13.1621639"><ele>391.00000000000006</ele><time>2026-04-25T08:37:07.553Z</time></trkpt><trkpt lat="43.3864193" lon="13.1621129"><ele>391.0</ele><time>2026-04-25T08:37:10.545Z</time></trkpt><trkpt lat="43.3863502" lon="13.1620782"><ele>389.6</ele><time>2026-04-25T08:37:12.553Z</time></trkpt><trkpt lat="43.3862769" lon="13.1620314"><ele>388.20000000000005</ele><time>2026-04-25T08:37:14.56Z</time></trkpt><trkpt lat="43.3861782" lon="13.1619555"><ele>386.79999999999995</ele><time>2026-04-25T08:37:16.559Z</time></trkpt><trkpt lat="43.3860925" lon="13.1618637"><ele>385.4</ele><time>2026-04-25T08:37:18.554Z</time></trkpt><trkpt lat="43.3859799" lon="13.1617933"><ele>384.0</ele><time>2026-04-25T08:37:20.552Z</time></trkpt><trkpt lat="43.3858877" lon="13.161726"><ele>384.0</ele><time>2026-04-25T08:37:22.553Z</time></trkpt><trkpt lat="43.3858373" lon="13.1616667"><ele>384.0</ele><time>2026-04-25T08:37:23.553Z</time></trkpt><trkpt lat="43.3857934" lon="13.161589"><ele>384.0</ele><time>2026-04-25T08:37:24.551Z</time></trkpt><trkpt lat="43.3857745" lon="13.1614822"><ele>384.0</ele><time>2026-04-25T08:37:25.554Z</time></trkpt><trkpt lat="43.385723" lon="13.1614143"><ele>384.0</ele><time>2026-04-25T08:37:26.564Z</time></trkpt><trkpt lat="43.3856365" lon="13.1613172"><ele>384.0</ele><time>2026-04-25T08:37:28.564Z</time></trkpt><trkpt lat="43.3855382" lon="13.1612629"><ele>383.8333333333333</ele><time>2026-04-25T08:37:30.563Z</time></trkpt><trkpt lat="43.3854591" lon="13.1612139"><ele>383.6666666666667</ele><time>2026-04-25T08:37:32.557Z</time></trkpt><trkpt lat="43.3853626" lon="13.1611616"><ele>383.5</ele><time>2026-04-25T08:37:34.559Z</time></trkpt><trkpt lat="43.3852755" lon="13.1611303"><ele>383.33333333333337</ele><time>2026-04-25T08:37:36.558Z</time></trkpt><trkpt lat="43.3852115" lon="13.1611323"><ele>383.1666666666667</ele><time>2026-04-25T08:37:39.558Z</time></trkpt><trkpt lat="43.3851795" lon="13.161044"><ele>383.0</ele><time>2026-04-25T08:37:45.543Z</time></trkpt><trkpt lat="43.3850921" lon="13.1609867"><ele>383.0</ele><time>2026-04-25T08:37:47.556Z</time></trkpt><trkpt lat="43.3850312" lon="13.1609461"><ele>383.0</ele><time>2026-04-25T08:37:52.269Z</time></trkpt><trkpt lat="43.3848765" lon="13.1608359"><ele>383.0</ele><time>2026-04-25T08:37:56.753Z</time></trkpt><trkpt lat="43.3848164" lon="13.1607918"><ele>383.0</ele><time>2026-04-25T08:38:00.552Z</time></trkpt><trkpt lat="43.3847481" lon="13.1607417"><ele>383.0</ele><time>2026-04-25T08:38:36.575Z</time></trkpt><trkpt lat="43.3846691" lon="13.1606966"><ele>383.0</ele><time>2026-04-25T08:38:44.555Z</time></trkpt><trkpt lat="43.3845954" lon="13.1606963"><ele>383.0</ele><time>2026-04-25T08:39:08.547Z</time></trkpt><trkpt lat="43.3846449" lon="13.160832"><ele>383.0</ele><time>2026-04-25T08:39:10.542Z</time></trkpt><trkpt lat="43.3847337" lon="13.1609061"><ele>383.0</ele><time>2026-04-25T08:39:11.545Z</time></trkpt><trkpt lat="43.3846754" lon="13.1607719"><ele>383.0</ele><time>2026-04-25T08:39:15.555Z</time></trkpt><trkpt lat="43.384607" lon="13.160671"><ele>383.0</ele><time>2026-04-25T08:39:17.557Z</time></trkpt><trkpt lat="43.3845532" lon="13.1606128"><ele>383.0</ele><time>2026-04-25T08:39:19.565Z</time></trkpt><trkpt lat="43.3844452" lon="13.1606581"><ele>383.0</ele><time>2026-04-25T08:39:22.563Z</time></trkpt><trkpt lat="43.3843764" lon="13.1606097"><ele>383.0</ele><time>2026-04-25T08:39:23.562Z</time></trkpt><trkpt lat="43.3843387" lon="13.1605252"><ele>383.0</ele><time>2026-04-25T08:39:25.569Z</time></trkpt><trkpt lat="43.3842599" lon="13.1604371"><ele>383.0</ele><time>2026-04-25T08:39:27.559Z</time></trkpt><trkpt lat="43.3841846" lon="13.1603365"><ele>383.0</ele><time>2026-04-25T08:39:29.557Z</time></trkpt><trkpt lat="43.384094" lon="13.1602773"><ele>383.0</ele><time>2026-04-25T08:39:31.55Z</time></trkpt><trkpt lat="43.3839797" lon="13.1602295"><ele>383.0</ele><time>2026-04-25T08:39:33.557Z</time></trkpt><trkpt lat="43.3838678" lon="13.160178"><ele>383.0</ele><time>2026-04-25T08:39:35.553Z</time></trkpt><trkpt lat="43.3838018" lon="13.1601339"><ele>383.0</ele><time>2026-04-25T08:39:36.56Z</time></trkpt><trkpt lat="43.3837373" lon="13.1600968"><ele>381.6666666666667</ele><time>2026-04-25T08:39:37.56Z</time></trkpt><trkpt lat="43.3836653" lon="13.1600598"><ele>380.33333333333337</ele><time>2026-04-25T08:39:38.562Z</time></trkpt><trkpt lat="43.3835869" lon="13.160011"><ele>379.0</ele><time>2026-04-25T08:39:39.562Z</time></trkpt><trkpt lat="43.3835167" lon="13.1599528"><ele>377.6666666666667</ele><time>2026-04-25T08:39:40.568Z</time></trkpt><trkpt lat="43.3834361" lon="13.1598985"><ele>376.3333333333333</ele><time>2026-04-25T08:39:41.57Z</time></trkpt><trkpt lat="43.3833596" lon="13.1598576"><ele>375.0</ele><time>2026-04-25T08:39:42.57Z</time></trkpt><trkpt lat="43.3832772" lon="13.15982"><ele>375.0</ele><time>2026-04-25T08:39:43.573Z</time></trkpt><trkpt lat="43.383211" lon="13.1597849"><ele>375.0</ele><time>2026-04-25T08:39:44.566Z</time></trkpt><trkpt lat="43.3831556" lon="13.1597268"><ele>375.0</ele><time>2026-04-25T08:39:45.574Z</time></trkpt><trkpt lat="43.3831026" lon="13.1596531"><ele>375.0</ele><time>2026-04-25T08:39:46.573Z</time></trkpt><trkpt lat="43.3830501" lon="13.1595892"><ele>375.0</ele><time>2026-04-25T08:39:47.575Z</time></trkpt><trkpt lat="43.3830024" lon="13.1595213"><ele>375.0</ele><time>2026-04-25T08:39:48.572Z</time></trkpt><trkpt lat="43.3829599" lon="13.1594545"><ele>375.0</ele><time>2026-04-25T08:39:49.577Z</time></trkpt><trkpt lat="43.3828993" lon="13.1593166"><ele>372.0</ele><time>2026-04-25T08:39:51.567Z</time></trkpt><trkpt lat="43.3828852" lon="13.1591839"><ele>369.0</ele><time>2026-04-25T08:39:53.573Z</time></trkpt><trkpt lat="43.3828725" lon="13.1590937"><ele>366.0</ele><time>2026-04-25T08:40:04.574Z</time></trkpt><trkpt lat="43.382866" lon="13.1589452"><ele>363.0</ele><time>2026-04-25T08:40:07.574Z</time></trkpt><trkpt lat="43.3828647" lon="13.1588578"><ele>360.0</ele><time>2026-04-25T08:40:08.58Z</time></trkpt><trkpt lat="43.3828466" lon="13.1587168"><ele>357.0</ele><time>2026-04-25T08:40:10.581Z</time></trkpt><trkpt lat="43.3827802" lon="13.1586661"><ele>357.0</ele><time>2026-04-25T08:40:12.576Z</time></trkpt><trkpt lat="43.3826743" lon="13.1586204"><ele>357.0</ele><time>2026-04-25T08:40:16.579Z</time></trkpt><trkpt lat="43.3826222" lon="13.1585462"><ele>357.0</ele><time>2026-04-25T08:40:17.576Z</time></trkpt><trkpt lat="43.3825687" lon="13.1584445"><ele>357.0</ele><time>2026-04-25T08:40:18.575Z</time></trkpt><trkpt lat="43.3825034" lon="13.1583139"><ele>357.0</ele><time>2026-04-25T08:40:19.587Z</time></trkpt><trkpt lat="43.3824446" lon="13.1581771"><ele>360.25</ele><time>2026-04-25T08:40:20.581Z</time></trkpt><trkpt lat="43.3823812" lon="13.15804"><ele>363.5</ele><time>2026-04-25T08:40:21.583Z</time></trkpt><trkpt lat="43.3823376" lon="13.1578712"><ele>366.75</ele><time>2026-04-25T08:40:22.58Z</time></trkpt><trkpt lat="43.3823042" lon="13.1577052"><ele>370.0</ele><time>2026-04-25T08:40:23.584Z</time></trkpt><trkpt lat="43.3822803" lon="13.1575422"><ele>370.0</ele><time>2026-04-25T08:40:24.586Z</time></trkpt><trkpt lat="43.3822581" lon="13.1573822"><ele>370.0</ele><time>2026-04-25T08:40:25.583Z</time></trkpt><trkpt lat="43.3822313" lon="13.1572348"><ele>370.0</ele><time>2026-04-25T08:40:26.583Z</time></trkpt><trkpt lat="43.382183" lon="13.1571071"><ele>370.0</ele><time>2026-04-25T08:40:27.581Z</time></trkpt><trkpt lat="43.3821245" lon="13.1569946"><ele>370.0</ele><time>2026-04-25T08:40:28.571Z</time></trkpt><trkpt lat="43.3820495" lon="13.15691"><ele>369.2</ele><time>2026-04-25T08:40:29.581Z</time></trkpt><trkpt lat="43.3819492" lon="13.1568384"><ele>368.4</ele><time>2026-04-25T08:40:30.575Z</time></trkpt><trkpt lat="43.381842" lon="13.1567732"><ele>367.6</ele><time>2026-04-25T08:40:31.592Z</time></trkpt><trkpt lat="43.3817467" lon="13.1566985"><ele>366.8</ele><time>2026-04-25T08:40:32.593Z</time></trkpt><trkpt lat="43.3816748" lon="13.1566097"><ele>366.0</ele><time>2026-04-25T08:40:33.582Z</time></trkpt><trkpt lat="43.3816125" lon="13.1565042"><ele>366.0</ele><time>2026-04-25T08:40:34.576Z</time></trkpt><trkpt lat="43.3815604" lon="13.1563834"><ele>366.0</ele><time>2026-04-25T08:40:35.579Z</time></trkpt><trkpt lat="43.3815223" lon="13.1562273"><ele>366.0</ele><time>2026-04-25T08:40:36.582Z</time></trkpt><trkpt lat="43.3814862" lon="13.1560602"><ele>366.0</ele><time>2026-04-25T08:40:37.588Z</time></trkpt><trkpt lat="43.3814376" lon="13.155904"><ele>366.0</ele><time>2026-04-25T08:40:38.578Z</time></trkpt><trkpt lat="43.3813618" lon="13.1557454"><ele>366.0</ele><time>2026-04-25T08:40:39.578Z</time></trkpt><trkpt lat="43.3812643" lon="13.1555973"><ele>366.0</ele><time>2026-04-25T08:40:40.579Z</time></trkpt><trkpt lat="43.3811568" lon="13.1554663"><ele>366.0</ele><time>2026-04-25T08:40:41.579Z</time></trkpt><trkpt lat="43.3810401" lon="13.1553287"><ele>363.0</ele><time>2026-04-25T08:40:42.57Z</time></trkpt><trkpt lat="43.3809387" lon="13.1551735"><ele>360.0</ele><time>2026-04-25T08:40:43.58Z</time></trkpt><trkpt lat="43.3808285" lon="13.1549889"><ele>357.0</ele><time>2026-04-25T08:40:44.58Z</time></trkpt><trkpt lat="43.380726" lon="13.154795"><ele>352.0</ele><time>2026-04-25T08:40:45.573Z</time></trkpt><trkpt lat="43.3806372" lon="13.154588"><ele>347.0</ele><time>2026-04-25T08:40:46.576Z</time></trkpt><trkpt lat="43.3805419" lon="13.1543662"><ele>342.0</ele><time>2026-04-25T08:40:47.579Z</time></trkpt><trkpt lat="43.3804417" lon="13.1541536"><ele>346.3333333333333</ele><time>2026-04-25T08:40:48.579Z</time></trkpt><trkpt lat="43.3803386" lon="13.1539329"><ele>350.66666666666663</ele><time>2026-04-25T08:40:49.578Z</time></trkpt><trkpt lat="43.3802299" lon="13.1537275"><ele>355.0</ele><time>2026-04-25T08:40:50.579Z</time></trkpt><trkpt lat="43.3801542" lon="13.1535023"><ele>355.0</ele><time>2026-04-25T08:40:51.571Z</time></trkpt><trkpt lat="43.3800823" lon="13.1532882"><ele>355.0</ele><time>2026-04-25T08:40:52.578Z</time></trkpt><trkpt lat="43.3800049" lon="13.153064"><ele>355.0</ele><time>2026-04-25T08:40:53.576Z</time></trkpt><trkpt lat="43.3799132" lon="13.1528532"><ele>361.66666666666663</ele><time>2026-04-25T08:40:54.571Z</time></trkpt><trkpt lat="43.3798391" lon="13.1526563"><ele>368.3333333333333</ele><time>2026-04-25T08:40:55.575Z</time></trkpt><trkpt lat="43.3797675" lon="13.1524681"><ele>375.0</ele><time>2026-04-25T08:40:56.577Z</time></trkpt><trkpt lat="43.3797035" lon="13.1522989"><ele>368.75</ele><time>2026-04-25T08:40:57.58Z</time></trkpt><trkpt lat="43.3796203" lon="13.1521593"><ele>362.5</ele><time>2026-04-25T08:40:58.575Z</time></trkpt><trkpt lat="43.379535" lon="13.1520221"><ele>356.25</ele><time>2026-04-25T08:40:59.577Z</time></trkpt><trkpt lat="43.3794512" lon="13.1519259"><ele>350.0</ele><time>2026-04-25T08:41:00.571Z</time></trkpt><trkpt lat="43.379332" lon="13.1518468"><ele>350.0</ele><time>2026-04-25T08:41:01.562Z</time></trkpt><trkpt lat="43.379264" lon="13.151697"><ele>350.0</ele><time>2026-04-25T08:41:02.581Z</time></trkpt><trkpt lat="43.3792016" lon="13.1514968"><ele>350.0</ele><time>2026-04-25T08:41:03.579Z</time></trkpt><trkpt lat="43.3791445" lon="13.1513318"><ele>350.0</ele><time>2026-04-25T08:41:04.573Z</time></trkpt><trkpt lat="43.3790736" lon="13.1511825"><ele>347.25</ele><time>2026-04-25T08:41:05.573Z</time></trkpt><trkpt lat="43.3789945" lon="13.1510434"><ele>344.5</ele><time>2026-04-25T08:41:06.57Z</time></trkpt><trkpt lat="43.378925" lon="13.15093"><ele>341.75</ele><time>2026-04-25T08:41:07.571Z</time></trkpt><trkpt lat="43.3788494" lon="13.1508188"><ele>339.0</ele><time>2026-04-25T08:41:08.575Z</time></trkpt><trkpt lat="43.3787269" lon="13.1507033"><ele>339.0</ele><time>2026-04-25T08:41:09.573Z</time></trkpt><trkpt lat="43.3785983" lon="13.1506412"><ele>339.0</ele><time>2026-04-25T08:41:10.6Z</time></trkpt><trkpt lat="43.3784678" lon="13.1506297"><ele>339.0</ele><time>2026-04-25T08:41:11.585Z</time></trkpt><trkpt lat="43.3783278" lon="13.1506331"><ele>339.0</ele><time>2026-04-25T08:41:12.606Z</time></trkpt><trkpt lat="43.3781899" lon="13.1506506"><ele>339.0</ele><time>2026-04-25T08:41:13.607Z</time></trkpt><trkpt lat="43.3780329" lon="13.1506958"><ele>339.0</ele><time>2026-04-25T08:41:14.603Z</time></trkpt><trkpt lat="43.3779011" lon="13.1507567"><ele>339.0</ele><time>2026-04-25T08:41:15.599Z</time></trkpt><trkpt lat="43.3777627" lon="13.1508321"><ele>339.0</ele><time>2026-04-25T08:41:16.6Z</time></trkpt><trkpt lat="43.3776328" lon="13.1509207"><ele>335.0</ele><time>2026-04-25T08:41:17.606Z</time></trkpt><trkpt lat="43.3775087" lon="13.151026"><ele>331.0</ele><time>2026-04-25T08:41:18.611Z</time></trkpt><trkpt lat="43.377368" lon="13.1511514"><ele>327.0</ele><time>2026-04-25T08:41:19.61Z</time></trkpt><trkpt lat="43.3772153" lon="13.1512799"><ele>329.3333333333333</ele><time>2026-04-25T08:41:20.606Z</time></trkpt><trkpt lat="43.3770631" lon="13.1514027"><ele>331.66666666666663</ele><time>2026-04-25T08:41:21.607Z</time></trkpt><trkpt lat="43.3769259" lon="13.1515189"><ele>334.0</ele><time>2026-04-25T08:41:22.61Z</time></trkpt><trkpt lat="43.3767978" lon="13.1516236"><ele>337.66666666666663</ele><time>2026-04-25T08:41:23.612Z</time></trkpt><trkpt lat="43.376663" lon="13.15175"><ele>341.3333333333333</ele><time>2026-04-25T08:41:24.584Z</time></trkpt><trkpt lat="43.3765252" lon="13.1518549"><ele>345.0</ele><time>2026-04-25T08:41:25.586Z</time></trkpt><trkpt lat="43.3763982" lon="13.1519646"><ele>350.6666666666667</ele><time>2026-04-25T08:41:26.578Z</time></trkpt><trkpt lat="43.3762578" lon="13.1520694"><ele>356.33333333333337</ele><time>2026-04-25T08:41:27.588Z</time></trkpt><trkpt lat="43.3761101" lon="13.1521764"><ele>362.0</ele><time>2026-04-25T08:41:28.579Z</time></trkpt><trkpt lat="43.375961" lon="13.1522612"><ele>362.0</ele><time>2026-04-25T08:41:29.578Z</time></trkpt><trkpt lat="43.3758159" lon="13.1523344"><ele>362.0</ele><time>2026-04-25T08:41:30.572Z</time></trkpt><trkpt lat="43.3756436" lon="13.1523895"><ele>362.0</ele><time>2026-04-25T08:41:31.557Z</time></trkpt><trkpt lat="43.3754975" lon="13.1524202"><ele>361.75</ele><time>2026-04-25T08:41:32.544Z</time></trkpt><trkpt lat="43.3754235" lon="13.1524582"><ele>361.5</ele><time>2026-04-25T08:41:33.538Z</time></trkpt><trkpt lat="43.37529" lon="13.1525889"><ele>361.25</ele><time>2026-04-25T08:41:34.52Z</time></trkpt><trkpt lat="43.375121" lon="13.1526762"><ele>361.0</ele><time>2026-04-25T08:41:35.541Z</time></trkpt><trkpt lat="43.3749397" lon="13.1528433"><ele>361.0</ele><time>2026-04-25T08:41:36.571Z</time></trkpt><trkpt lat="43.3748207" lon="13.1529691"><ele>361.0</ele><time>2026-04-25T08:41:37.57Z</time></trkpt><trkpt lat="43.3746847" lon="13.1530903"><ele>361.0</ele><time>2026-04-25T08:41:38.581Z</time></trkpt><trkpt lat="43.3745311" lon="13.1532061"><ele>357.75</ele><time>2026-04-25T08:41:39.584Z</time></trkpt><trkpt lat="43.374405" lon="13.1533051"><ele>354.5</ele><time>2026-04-25T08:41:40.586Z</time></trkpt><trkpt lat="43.3742793" lon="13.153412"><ele>351.25</ele><time>2026-04-25T08:41:41.586Z</time></trkpt><trkpt lat="43.3741505" lon="13.1535107"><ele>348.0</ele><time>2026-04-25T08:41:42.583Z</time></trkpt><trkpt lat="43.3740061" lon="13.1535953"><ele>348.0</ele><time>2026-04-25T08:41:43.596Z</time></trkpt><trkpt lat="43.3738636" lon="13.153685"><ele>348.0</ele><time>2026-04-25T08:41:44.597Z</time></trkpt><trkpt lat="43.3737114" lon="13.1537773"><ele>348.0</ele><time>2026-04-25T08:41:45.601Z</time></trkpt><trkpt lat="43.3735506" lon="13.1538736"><ele>343.3333333333333</ele><time>2026-04-25T08:41:46.597Z</time></trkpt><trkpt lat="43.3733844" lon="13.1539782"><ele>338.66666666666663</ele><time>2026-04-25T08:41:47.606Z</time></trkpt><trkpt lat="43.3732169" lon="13.1540708"><ele>334.0</ele><time>2026-04-25T08:41:48.598Z</time></trkpt><trkpt lat="43.3730543" lon="13.1541591"><ele>331.66666666666663</ele><time>2026-04-25T08:41:49.609Z</time></trkpt><trkpt lat="43.3728804" lon="13.1542573"><ele>329.3333333333333</ele><time>2026-04-25T08:41:50.601Z</time></trkpt><trkpt lat="43.3726993" lon="13.1543302"><ele>327.0</ele><time>2026-04-25T08:41:51.602Z</time></trkpt><trkpt lat="43.3725033" lon="13.1543904"><ele>327.0</ele><time>2026-04-25T08:41:52.597Z</time></trkpt><trkpt lat="43.3723006" lon="13.1544226"><ele>327.0</ele><time>2026-04-25T08:41:53.578Z</time></trkpt><trkpt lat="43.3720925" lon="13.1544352"><ele>327.0</ele><time>2026-04-25T08:41:54.571Z</time></trkpt><trkpt lat="43.3718868" lon="13.154446"><ele>327.3333333333333</ele><time>2026-04-25T08:41:55.577Z</time></trkpt><trkpt lat="43.3716679" lon="13.1544491"><ele>327.66666666666663</ele><time>2026-04-25T08:41:56.571Z</time></trkpt><trkpt lat="43.3714614" lon="13.1544241"><ele>328.0</ele><time>2026-04-25T08:41:57.579Z</time></trkpt><trkpt lat="43.3712745" lon="13.1544074"><ele>331.3333333333333</ele><time>2026-04-25T08:41:58.576Z</time></trkpt><trkpt lat="43.3710718" lon="13.1543841"><ele>334.6666666666667</ele><time>2026-04-25T08:41:59.584Z</time></trkpt><trkpt lat="43.3708909" lon="13.1543502"><ele>338.0</ele><time>2026-04-25T08:42:00.58Z</time></trkpt><trkpt lat="43.3707129" lon="13.1543107"><ele>338.0</ele><time>2026-04-25T08:42:01.578Z</time></trkpt><trkpt lat="43.3705443" lon="13.1542727"><ele>338.0</ele><time>2026-04-25T08:42:02.575Z</time></trkpt><trkpt lat="43.370373" lon="13.1542574"><ele>338.0</ele><time>2026-04-25T08:42:03.569Z</time></trkpt><trkpt lat="43.3702001" lon="13.1542436"><ele>342.33333333333337</ele><time>2026-04-25T08:42:04.58Z</time></trkpt><trkpt lat="43.3700322" lon="13.1542189"><ele>346.6666666666667</ele><time>2026-04-25T08:42:05.579Z</time></trkpt><trkpt lat="43.3698603" lon="13.154189"><ele>351.0</ele><time>2026-04-25T08:42:06.586Z</time></trkpt><trkpt lat="43.369688" lon="13.15418"><ele>355.0</ele><time>2026-04-25T08:42:07.581Z</time></trkpt><trkpt lat="43.3695239" lon="13.1541581"><ele>359.0</ele><time>2026-04-25T08:42:08.58Z</time></trkpt><trkpt lat="43.3693596" lon="13.1541242"><ele>363.0</ele><time>2026-04-25T08:42:09.578Z</time></trkpt><trkpt lat="43.3692093" lon="13.1540943"><ele>363.0</ele><time>2026-04-25T08:42:10.578Z</time></trkpt><trkpt lat="43.3690441" lon="13.1540846"><ele>363.0</ele><time>2026-04-25T08:42:11.579Z</time></trkpt><trkpt lat="43.3688803" lon="13.1540647"><ele>363.0</ele><time>2026-04-25T08:42:12.582Z</time></trkpt><trkpt lat="43.368722" lon="13.1540476"><ele>369.25</ele><time>2026-04-25T08:42:13.59Z</time></trkpt><trkpt lat="43.3685662" lon="13.1540327"><ele>375.5</ele><time>2026-04-25T08:42:14.582Z</time></trkpt><trkpt lat="43.3684104" lon="13.154026"><ele>381.75</ele><time>2026-04-25T08:42:15.586Z</time></trkpt><trkpt lat="43.3682806" lon="13.1539981"><ele>388.0</ele><time>2026-04-25T08:42:16.571Z</time></trkpt><trkpt lat="43.3681361" lon="13.1539453"><ele>390.25</ele><time>2026-04-25T08:42:17.579Z</time></trkpt><trkpt lat="43.3679957" lon="13.1538769"><ele>392.5</ele><time>2026-04-25T08:42:18.569Z</time></trkpt><trkpt lat="43.3678616" lon="13.1537956"><ele>394.75</ele><time>2026-04-25T08:42:19.576Z</time></trkpt><trkpt lat="43.3677518" lon="13.1537029"><ele>397.0</ele><time>2026-04-25T08:42:20.574Z</time></trkpt><trkpt lat="43.3676421" lon="13.153647"><ele>397.0</ele><time>2026-04-25T08:42:21.57Z</time></trkpt><trkpt lat="43.3675306" lon="13.1536229"><ele>397.0</ele><time>2026-04-25T08:42:22.56Z</time></trkpt><trkpt lat="43.3674178" lon="13.1536802"><ele>397.0</ele><time>2026-04-25T08:42:23.567Z</time></trkpt><trkpt lat="43.3673034" lon="13.1537486"><ele>397.0</ele><time>2026-04-25T08:42:24.575Z</time></trkpt><trkpt lat="43.367201" lon="13.1537564"><ele>395.8</ele><time>2026-04-25T08:42:25.573Z</time></trkpt><trkpt lat="43.3671021" lon="13.1537464"><ele>394.6</ele><time>2026-04-25T08:42:26.579Z</time></trkpt><trkpt lat="43.3670055" lon="13.1536813"><ele>393.40000000000003</ele><time>2026-04-25T08:42:27.572Z</time></trkpt><trkpt lat="43.3669249" lon="13.1535808"><ele>392.20000000000005</ele><time>2026-04-25T08:42:28.586Z</time></trkpt><trkpt lat="43.3668584" lon="13.1534412"><ele>391.0</ele><time>2026-04-25T08:42:29.572Z</time></trkpt><trkpt lat="43.3667917" lon="13.1532842"><ele>393.5</ele><time>2026-04-25T08:42:30.575Z</time></trkpt><trkpt lat="43.3667271" lon="13.1531096"><ele>396.0</ele><time>2026-04-25T08:42:31.57Z</time></trkpt><trkpt lat="43.3666541" lon="13.152918"><ele>398.5</ele><time>2026-04-25T08:42:32.576Z</time></trkpt><trkpt lat="43.3665746" lon="13.1527514"><ele>401.0</ele><time>2026-04-25T08:42:33.569Z</time></trkpt><trkpt lat="43.3664936" lon="13.1526142"><ele>401.0</ele><time>2026-04-25T08:42:34.578Z</time></trkpt><trkpt lat="43.3663827" lon="13.1525053"><ele>401.0</ele><time>2026-04-25T08:42:35.578Z</time></trkpt><trkpt lat="43.3662647" lon="13.1524306"><ele>401.0</ele><time>2026-04-25T08:42:36.583Z</time></trkpt><trkpt lat="43.366127" lon="13.1523846"><ele>401.0</ele><time>2026-04-25T08:42:37.573Z</time></trkpt><trkpt lat="43.365968" lon="13.1523424"><ele>402.0</ele><time>2026-04-25T08:42:38.579Z</time></trkpt><trkpt lat="43.3658049" lon="13.1523119"><ele>403.0</ele><time>2026-04-25T08:42:39.579Z</time></trkpt><trkpt lat="43.3656502" lon="13.1522624"><ele>404.0</ele><time>2026-04-25T08:42:40.582Z</time></trkpt><trkpt lat="43.3654911" lon="13.1522133"><ele>404.0</ele><time>2026-04-25T08:42:41.582Z</time></trkpt><trkpt lat="43.3653465" lon="13.1521486"><ele>404.0</ele><time>2026-04-25T08:42:42.582Z</time></trkpt><trkpt lat="43.365207" lon="13.1520624"><ele>404.0</ele><time>2026-04-25T08:42:43.575Z</time></trkpt><trkpt lat="43.365069" lon="13.1519635"><ele>404.0</ele><time>2026-04-25T08:42:44.585Z</time></trkpt><trkpt lat="43.3649353" lon="13.1518495"><ele>404.0</ele><time>2026-04-25T08:42:45.578Z</time></trkpt><trkpt lat="43.3648033" lon="13.1516929"><ele>404.0</ele><time>2026-04-25T08:42:46.587Z</time></trkpt><trkpt lat="43.3646897" lon="13.151501"><ele>406.25</ele><time>2026-04-25T08:42:47.572Z</time></trkpt><trkpt lat="43.3646001" lon="13.1513366"><ele>408.5</ele><time>2026-04-25T08:42:48.571Z</time></trkpt><trkpt lat="43.3645552" lon="13.1511799"><ele>410.75</ele><time>2026-04-25T08:42:49.564Z</time></trkpt><trkpt lat="43.3644878" lon="13.1510544"><ele>413.0</ele><time>2026-04-25T08:42:50.575Z</time></trkpt><trkpt lat="43.3644176" lon="13.1509777"><ele>413.0</ele><time>2026-04-25T08:42:51.57Z</time></trkpt><trkpt lat="43.3643178" lon="13.1509328"><ele>413.0</ele><time>2026-04-25T08:42:52.565Z</time></trkpt><trkpt lat="43.3642524" lon="13.1509157"><ele>413.0</ele><time>2026-04-25T08:42:53.559Z</time></trkpt><trkpt lat="43.3641376" lon="13.150897"><ele>413.0</ele><time>2026-04-25T08:42:54.552Z</time></trkpt><trkpt lat="43.3639976" lon="13.150902"><ele>413.0</ele><time>2026-04-25T08:42:55.565Z</time></trkpt><trkpt lat="43.3638418" lon="13.15092"><ele>412.66666666666663</ele><time>2026-04-25T08:42:56.559Z</time></trkpt><trkpt lat="43.3636655" lon="13.1509302"><ele>412.33333333333337</ele><time>2026-04-25T08:42:57.558Z</time></trkpt><trkpt lat="43.3634672" lon="13.1509483"><ele>412.0</ele><time>2026-04-25T08:42:58.566Z</time></trkpt><trkpt lat="43.3632955" lon="13.1509517"><ele>412.0</ele><time>2026-04-25T08:42:59.575Z</time></trkpt><trkpt lat="43.3631274" lon="13.1509588"><ele>412.0</ele><time>2026-04-25T08:43:00.566Z</time></trkpt><trkpt lat="43.3629579" lon="13.1509805"><ele>412.0</ele><time>2026-04-25T08:43:01.561Z</time></trkpt><trkpt lat="43.3628104" lon="13.1509908"><ele>411.75</ele><time>2026-04-25T08:43:02.569Z</time></trkpt><trkpt lat="43.3626887" lon="13.1509965"><ele>411.5</ele><time>2026-04-25T08:43:03.574Z</time></trkpt><trkpt lat="43.36255" lon="13.151019"><ele>411.25</ele><time>2026-04-25T08:43:04.563Z</time></trkpt><trkpt lat="43.3624033" lon="13.1510716"><ele>411.0</ele><time>2026-04-25T08:43:05.575Z</time></trkpt><trkpt lat="43.3622654" lon="13.151108"><ele>410.33333333333337</ele><time>2026-04-25T08:43:06.579Z</time></trkpt><trkpt lat="43.3621222" lon="13.1511427"><ele>409.6666666666667</ele><time>2026-04-25T08:43:07.578Z</time></trkpt><trkpt lat="43.3619642" lon="13.1511892"><ele>409.0</ele><time>2026-04-25T08:43:08.582Z</time></trkpt><trkpt lat="43.361811" lon="13.1512395"><ele>409.0</ele><time>2026-04-25T08:43:09.575Z</time></trkpt><trkpt lat="43.3616616" lon="13.1512886"><ele>409.0</ele><time>2026-04-25T08:43:10.575Z</time></trkpt><trkpt lat="43.3615125" lon="13.1513319"><ele>409.0</ele><time>2026-04-25T08:43:11.576Z</time></trkpt><trkpt lat="43.3613501" lon="13.1513925"><ele>409.0</ele><time>2026-04-25T08:43:12.577Z</time></trkpt><trkpt lat="43.3612105" lon="13.1514413"><ele>409.0</ele><time>2026-04-25T08:43:13.582Z</time></trkpt><trkpt lat="43.3610801" lon="13.151481"><ele>409.0</ele><time>2026-04-25T08:43:14.576Z</time></trkpt><trkpt lat="43.3609365" lon="13.1515342"><ele>409.0</ele><time>2026-04-25T08:43:15.585Z</time></trkpt><trkpt lat="43.3608105" lon="13.1515752"><ele>409.0</ele><time>2026-04-25T08:43:16.58Z</time></trkpt><trkpt lat="43.3606797" lon="13.1516034"><ele>409.0</ele><time>2026-04-25T08:43:17.579Z</time></trkpt><trkpt lat="43.360553" lon="13.1515929"><ele>409.0</ele><time>2026-04-25T08:43:18.578Z</time></trkpt><trkpt lat="43.3604097" lon="13.151567"><ele>409.0</ele><time>2026-04-25T08:43:19.576Z</time></trkpt><trkpt lat="43.3602871" lon="13.1515051"><ele>409.33333333333337</ele><time>2026-04-25T08:43:20.567Z</time></trkpt><trkpt lat="43.3601511" lon="13.1514342"><ele>409.66666666666663</ele><time>2026-04-25T08:43:21.572Z</time></trkpt><trkpt lat="43.3600089" lon="13.1513248"><ele>410.0</ele><time>2026-04-25T08:43:22.568Z</time></trkpt><trkpt lat="43.3598393" lon="13.1512011"><ele>410.5</ele><time>2026-04-25T08:43:23.578Z</time></trkpt><trkpt lat="43.3596974" lon="13.1511235"><ele>411.0</ele><time>2026-04-25T08:43:24.577Z</time></trkpt><trkpt lat="43.3595753" lon="13.1510394"><ele>411.5</ele><time>2026-04-25T08:43:25.584Z</time></trkpt><trkpt lat="43.3594614" lon="13.1509578"><ele>412.0</ele><time>2026-04-25T08:43:26.572Z</time></trkpt><trkpt lat="43.3593719" lon="13.1508717"><ele>412.0</ele><time>2026-04-25T08:43:27.57Z</time></trkpt><trkpt lat="43.3592826" lon="13.1507492"><ele>412.0</ele><time>2026-04-25T08:43:28.568Z</time></trkpt><trkpt lat="43.3592004" lon="13.1505891"><ele>412.0</ele><time>2026-04-25T08:43:29.575Z</time></trkpt><trkpt lat="43.3591289" lon="13.150441"><ele>412.0</ele><time>2026-04-25T08:43:30.579Z</time></trkpt><trkpt lat="43.3590436" lon="13.1502951"><ele>412.5</ele><time>2026-04-25T08:43:31.58Z</time></trkpt><trkpt lat="43.3589567" lon="13.1501479"><ele>413.0</ele><time>2026-04-25T08:43:32.583Z</time></trkpt><trkpt lat="43.3588749" lon="13.1499945"><ele>413.5</ele><time>2026-04-25T08:43:33.579Z</time></trkpt><trkpt lat="43.3587869" lon="13.1498306"><ele>414.0</ele><time>2026-04-25T08:43:34.579Z</time></trkpt><trkpt lat="43.3586881" lon="13.1496594"><ele>414.0</ele><time>2026-04-25T08:43:35.576Z</time></trkpt><trkpt lat="43.3585802" lon="13.1495021"><ele>414.0</ele><time>2026-04-25T08:43:36.577Z</time></trkpt><trkpt lat="43.3584726" lon="13.1493637"><ele>414.0</ele><time>2026-04-25T08:43:37.572Z</time></trkpt><trkpt lat="43.3583465" lon="13.1492561"><ele>414.0</ele><time>2026-04-25T08:43:38.571Z</time></trkpt><trkpt lat="43.3582185" lon="13.1491807"><ele>414.0</ele><time>2026-04-25T08:43:39.566Z</time></trkpt><trkpt lat="43.3580715" lon="13.1491108"><ele>414.0</ele><time>2026-04-25T08:43:40.577Z</time></trkpt><trkpt lat="43.357914" lon="13.1490477"><ele>415.25</ele><time>2026-04-25T08:43:41.578Z</time></trkpt><trkpt lat="43.3577782" lon="13.1489867"><ele>416.5</ele><time>2026-04-25T08:43:42.584Z</time></trkpt><trkpt lat="43.3576508" lon="13.1489236"><ele>417.75</ele><time>2026-04-25T08:43:43.574Z</time></trkpt><trkpt lat="43.3575338" lon="13.1488308"><ele>419.0</ele><time>2026-04-25T08:43:44.583Z</time></trkpt><trkpt lat="43.3574227" lon="13.1486963"><ele>419.0</ele><time>2026-04-25T08:43:45.571Z</time></trkpt><trkpt lat="43.3573285" lon="13.1485298"><ele>419.0</ele><time>2026-04-25T08:43:46.577Z</time></trkpt><trkpt lat="43.3572142" lon="13.1483477"><ele>419.0</ele><time>2026-04-25T08:43:47.574Z</time></trkpt><trkpt lat="43.35711" lon="13.1481892"><ele>420.66666666666663</ele><time>2026-04-25T08:43:48.578Z</time></trkpt><trkpt lat="43.3570136" lon="13.1480063"><ele>422.33333333333337</ele><time>2026-04-25T08:43:49.573Z</time></trkpt><trkpt lat="43.3569171" lon="13.1478174"><ele>424.0</ele><time>2026-04-25T08:43:50.574Z</time></trkpt><trkpt lat="43.3568341" lon="13.147621"><ele>424.0</ele><time>2026-04-25T08:43:51.565Z</time></trkpt><trkpt lat="43.3567575" lon="13.1474343"><ele>424.0</ele><time>2026-04-25T08:43:52.575Z</time></trkpt><trkpt lat="43.356666" lon="13.1472581"><ele>424.0</ele><time>2026-04-25T08:43:53.581Z</time></trkpt><trkpt lat="43.3565673" lon="13.1470955"><ele>423.33333333333337</ele><time>2026-04-25T08:43:54.577Z</time></trkpt><trkpt lat="43.3564443" lon="13.146949"><ele>422.66666666666663</ele><time>2026-04-25T08:43:55.581Z</time></trkpt><trkpt lat="43.3563089" lon="13.1468043"><ele>422.0</ele><time>2026-04-25T08:43:56.575Z</time></trkpt><trkpt lat="43.3561727" lon="13.1466607"><ele>423.3333333333333</ele><time>2026-04-25T08:43:57.578Z</time></trkpt><trkpt lat="43.3560054" lon="13.1465466"><ele>424.66666666666663</ele><time>2026-04-25T08:43:58.588Z</time></trkpt><trkpt lat="43.3558486" lon="13.146446"><ele>426.0</ele><time>2026-04-25T08:43:59.579Z</time></trkpt><trkpt lat="43.3557126" lon="13.1463704"><ele>426.0</ele><time>2026-04-25T08:44:00.584Z</time></trkpt><trkpt lat="43.3555795" lon="13.1462823"><ele>426.0</ele><time>2026-04-25T08:44:01.571Z</time></trkpt><trkpt lat="43.3554461" lon="13.1462069"><ele>426.0</ele><time>2026-04-25T08:44:02.59Z</time></trkpt><trkpt lat="43.355335" lon="13.1461206"><ele>426.0</ele><time>2026-04-25T08:44:03.571Z</time></trkpt><trkpt lat="43.3552325" lon="13.1460616"><ele>425.5</ele><time>2026-04-25T08:44:04.582Z</time></trkpt><trkpt lat="43.3551099" lon="13.1459727"><ele>425.0</ele><time>2026-04-25T08:44:05.575Z</time></trkpt><trkpt lat="43.3549891" lon="13.1458812"><ele>424.5</ele><time>2026-04-25T08:44:06.583Z</time></trkpt><trkpt lat="43.3548556" lon="13.1457679"><ele>424.0</ele><time>2026-04-25T08:44:07.579Z</time></trkpt><trkpt lat="43.3547246" lon="13.1456301"><ele>427.75</ele><time>2026-04-25T08:44:08.583Z</time></trkpt><trkpt lat="43.3545934" lon="13.145532"><ele>431.5</ele><time>2026-04-25T08:44:09.574Z</time></trkpt><trkpt lat="43.3544764" lon="13.1454284"><ele>435.25</ele><time>2026-04-25T08:44:10.573Z</time></trkpt><trkpt lat="43.3543935" lon="13.1453218"><ele>439.0</ele><time>2026-04-25T08:44:11.569Z</time></trkpt><trkpt lat="43.3542888" lon="13.1452032"><ele>439.0</ele><time>2026-04-25T08:44:12.573Z</time></trkpt><trkpt lat="43.3541798" lon="13.1450791"><ele>439.0</ele><time>2026-04-25T08:44:13.573Z</time></trkpt><trkpt lat="43.3541001" lon="13.1449438"><ele>439.0</ele><time>2026-04-25T08:44:14.579Z</time></trkpt><trkpt lat="43.3540259" lon="13.1448272"><ele>439.0</ele><time>2026-04-25T08:44:15.574Z</time></trkpt><trkpt lat="43.3539237" lon="13.1447179"><ele>439.79999999999995</ele><time>2026-04-25T08:44:16.577Z</time></trkpt><trkpt lat="43.3538516" lon="13.1446367"><ele>440.59999999999997</ele><time>2026-04-25T08:44:17.581Z</time></trkpt><trkpt lat="43.3537873" lon="13.1445359"><ele>441.4</ele><time>2026-04-25T08:44:18.578Z</time></trkpt><trkpt lat="43.3537134" lon="13.1444519"><ele>442.2</ele><time>2026-04-25T08:44:19.576Z</time></trkpt><trkpt lat="43.3536345" lon="13.1444085"><ele>443.0</ele><time>2026-04-25T08:44:20.57Z</time></trkpt><trkpt lat="43.3535376" lon="13.144389"><ele>443.0</ele><time>2026-04-25T08:44:21.574Z</time></trkpt><trkpt lat="43.3534396" lon="13.1443886"><ele>443.0</ele><time>2026-04-25T08:44:22.574Z</time></trkpt><trkpt lat="43.3533277" lon="13.1443911"><ele>443.0</ele><time>2026-04-25T08:44:23.579Z</time></trkpt><trkpt lat="43.3531998" lon="13.144399"><ele>443.0</ele><time>2026-04-25T08:44:24.571Z</time></trkpt><trkpt lat="43.3530561" lon="13.1443982"><ele>445.5</ele><time>2026-04-25T08:44:25.567Z</time></trkpt><trkpt lat="43.3529243" lon="13.1443924"><ele>448.0</ele><time>2026-04-25T08:44:26.572Z</time></trkpt><trkpt lat="43.3528085" lon="13.14438"><ele>450.5</ele><time>2026-04-25T08:44:27.574Z</time></trkpt><trkpt lat="43.352704" lon="13.1443674"><ele>453.0</ele><time>2026-04-25T08:44:28.58Z</time></trkpt><trkpt lat="43.3526001" lon="13.1443574"><ele>453.0</ele><time>2026-04-25T08:44:29.576Z</time></trkpt><trkpt lat="43.3524907" lon="13.1443402"><ele>452.99999999999994</ele><time>2026-04-25T08:44:30.574Z</time></trkpt><trkpt lat="43.3523867" lon="13.1443077"><ele>452.99999999999994</ele><time>2026-04-25T08:44:31.571Z</time></trkpt><trkpt lat="43.3522947" lon="13.144255"><ele>453.0</ele><time>2026-04-25T08:44:32.578Z</time></trkpt><trkpt lat="43.3521977" lon="13.1441712"><ele>453.0</ele><time>2026-04-25T08:44:33.575Z</time></trkpt><trkpt lat="43.3521093" lon="13.1440686"><ele>453.6666666666667</ele><time>2026-04-25T08:44:34.558Z</time></trkpt><trkpt lat="43.3520557" lon="13.1439651"><ele>454.33333333333337</ele><time>2026-04-25T08:44:35.56Z</time></trkpt><trkpt lat="43.3520211" lon="13.1438822"><ele>455.0</ele><time>2026-04-25T08:44:36.566Z</time></trkpt><trkpt lat="43.3519664" lon="13.1437438"><ele>455.6666666666667</ele><time>2026-04-25T08:44:38.57Z</time></trkpt><trkpt lat="43.3518737" lon="13.1437064"><ele>456.33333333333337</ele><time>2026-04-25T08:44:40.576Z</time></trkpt><trkpt lat="43.3518107" lon="13.1437369"><ele>457.0</ele><time>2026-04-25T08:44:41.572Z</time></trkpt><trkpt lat="43.3517399" lon="13.1437866"><ele>457.0</ele><time>2026-04-25T08:44:42.581Z</time></trkpt><trkpt lat="43.3516608" lon="13.1438221"><ele>457.00000000000006</ele><time>2026-04-25T08:44:43.573Z</time></trkpt><trkpt lat="43.3515631" lon="13.1438589"><ele>457.00000000000006</ele><time>2026-04-25T08:44:44.576Z</time></trkpt><trkpt lat="43.3514461" lon="13.1438703"><ele>457.0</ele><time>2026-04-25T08:44:45.57Z</time></trkpt><trkpt lat="43.3513325" lon="13.1438965"><ele>457.0</ele><time>2026-04-25T08:44:46.572Z</time></trkpt><trkpt lat="43.3512165" lon="13.1439037"><ele>456.8</ele><time>2026-04-25T08:44:47.573Z</time></trkpt><trkpt lat="43.3511062" lon="13.1439181"><ele>456.6</ele><time>2026-04-25T08:44:48.582Z</time></trkpt><trkpt lat="43.3510017" lon="13.1439563"><ele>456.40000000000003</ele><time>2026-04-25T08:44:49.575Z</time></trkpt><trkpt lat="43.350897" lon="13.1439957"><ele>456.20000000000005</ele><time>2026-04-25T08:44:50.582Z</time></trkpt><trkpt lat="43.3507826" lon="13.1440483"><ele>456.0</ele><time>2026-04-25T08:44:51.578Z</time></trkpt><trkpt lat="43.3506701" lon="13.1440931"><ele>456.20000000000005</ele><time>2026-04-25T08:44:52.586Z</time></trkpt><trkpt lat="43.3505634" lon="13.1441343"><ele>456.40000000000003</ele><time>2026-04-25T08:44:53.578Z</time></trkpt><trkpt lat="43.3504539" lon="13.1441734"><ele>456.6</ele><time>2026-04-25T08:44:54.577Z</time></trkpt><trkpt lat="43.3503662" lon="13.1442178"><ele>456.8</ele><time>2026-04-25T08:44:55.577Z</time></trkpt><trkpt lat="43.3502882" lon="13.1442479"><ele>457.0</ele><time>2026-04-25T08:44:56.579Z</time></trkpt><trkpt lat="43.3502188" lon="13.1442703"><ele>457.0</ele><time>2026-04-25T08:44:57.577Z</time></trkpt><trkpt lat="43.3501331" lon="13.1442481"><ele>457.00000000000006</ele><time>2026-04-25T08:44:59.571Z</time></trkpt><trkpt lat="43.3500864" lon="13.1441644"><ele>457.00000000000006</ele><time>2026-04-25T08:45:01.563Z</time></trkpt><trkpt lat="43.3500814" lon="13.144043"><ele>457.0</ele><time>2026-04-25T08:45:03.544Z</time></trkpt><trkpt lat="43.3500598" lon="13.1439198"><ele>457.0</ele><time>2026-04-25T08:45:05.557Z</time></trkpt><trkpt lat="43.3500169" lon="13.1437684"><ele>457.1428571428572</ele><time>2026-04-25T08:45:07.56Z</time></trkpt><trkpt lat="43.3499826" lon="13.1436515"><ele>457.28571428571433</ele><time>2026-04-25T08:45:09.556Z</time></trkpt><trkpt lat="43.3499467" lon="13.1435629"><ele>457.42857142857144</ele><time>2026-04-25T08:45:11.554Z</time></trkpt><trkpt lat="43.3499145" lon="13.1434847"><ele>457.5714285714286</ele><time>2026-04-25T08:45:31.557Z</time></trkpt><trkpt lat="43.349889" lon="13.1434029"><ele>457.7142857142858</ele><time>2026-04-25T08:46:11.559Z</time></trkpt><trkpt lat="43.3498426" lon="13.143321"><ele>457.85714285714283</ele><time>2026-04-25T08:46:19.55Z</time></trkpt><trkpt lat="43.3498207" lon="13.1432331"><ele>458.0</ele><time>2026-04-25T08:46:21.559Z</time></trkpt><trkpt lat="43.3497931" lon="13.1431542"><ele>458.59999999999997</ele><time>2026-04-25T08:46:22.553Z</time></trkpt><trkpt lat="43.3497537" lon="13.1430198"><ele>459.19999999999993</ele><time>2026-04-25T08:46:23.554Z</time></trkpt><trkpt lat="43.3497086" lon="13.1428872"><ele>459.8</ele><time>2026-04-25T08:46:24.553Z</time></trkpt><trkpt lat="43.3496577" lon="13.1427638"><ele>460.4</ele><time>2026-04-25T08:46:25.549Z</time></trkpt><trkpt lat="43.3496046" lon="13.1426453"><ele>461.0</ele><time>2026-04-25T08:46:26.546Z</time></trkpt><trkpt lat="43.3495516" lon="13.1425313"><ele>461.0</ele><time>2026-04-25T08:46:27.538Z</time></trkpt><trkpt lat="43.3495064" lon="13.1424188"><ele>461.0</ele><time>2026-04-25T08:46:28.55Z</time></trkpt><trkpt lat="43.3494659" lon="13.1423104"><ele>461.0</ele><time>2026-04-25T08:46:29.557Z</time></trkpt><trkpt lat="43.3494378" lon="13.1422133"><ele>461.0</ele><time>2026-04-25T08:46:30.546Z</time></trkpt><trkpt lat="43.3494217" lon="13.1421175"><ele>461.0</ele><time>2026-04-25T08:46:31.54Z</time></trkpt><trkpt lat="43.3493979" lon="13.1419551"><ele>461.8</ele><time>2026-04-25T08:46:33.557Z</time></trkpt><trkpt lat="43.3494064" lon="13.1417822"><ele>462.6</ele><time>2026-04-25T08:46:35.557Z</time></trkpt><trkpt lat="43.349389" lon="13.141696"><ele>463.4</ele><time>2026-04-25T08:46:36.559Z</time></trkpt><trkpt lat="43.3493174" lon="13.1415585"><ele>464.2</ele><time>2026-04-25T08:46:38.554Z</time></trkpt><trkpt lat="43.3492741" lon="13.1414742"><ele>465.0</ele><time>2026-04-25T08:46:39.555Z</time></trkpt><trkpt lat="43.3492345" lon="13.1413675"><ele>465.6</ele><time>2026-04-25T08:46:40.552Z</time></trkpt><trkpt lat="43.3492019" lon="13.1412519"><ele>466.2</ele><time>2026-04-25T08:46:41.557Z</time></trkpt><trkpt lat="43.3491653" lon="13.1411319"><ele>466.79999999999995</ele><time>2026-04-25T08:46:42.556Z</time></trkpt><trkpt lat="43.3491208" lon="13.1410145"><ele>467.4</ele><time>2026-04-25T08:46:43.564Z</time></trkpt><trkpt lat="43.3490766" lon="13.140901"><ele>468.0</ele><time>2026-04-25T08:46:44.562Z</time></trkpt><trkpt lat="43.3490268" lon="13.1407861"><ele>467.3333333333333</ele><time>2026-04-25T08:46:45.56Z</time></trkpt><trkpt lat="43.3489678" lon="13.1406745"><ele>466.66666666666663</ele><time>2026-04-25T08:46:46.564Z</time></trkpt><trkpt lat="43.3488999" lon="13.1405849"><ele>466.0</ele><time>2026-04-25T08:46:47.563Z</time></trkpt><trkpt lat="43.3488387" lon="13.1405123"><ele>465.3333333333333</ele><time>2026-04-25T08:46:48.568Z</time></trkpt><trkpt lat="43.3487833" lon="13.1404492"><ele>464.66666666666663</ele><time>2026-04-25T08:46:49.564Z</time></trkpt><trkpt lat="43.348718" lon="13.1403832"><ele>464.0</ele><time>2026-04-25T08:46:50.565Z</time></trkpt><trkpt lat="43.3486435" lon="13.1403107"><ele>464.99999999999994</ele><time>2026-04-25T08:46:51.559Z</time></trkpt><trkpt lat="43.3485683" lon="13.1402356"><ele>466.0</ele><time>2026-04-25T08:46:52.565Z</time></trkpt><trkpt lat="43.3485009" lon="13.1401547"><ele>467.0</ele><time>2026-04-25T08:46:53.56Z</time></trkpt><trkpt lat="43.3484409" lon="13.1400573"><ele>468.0</ele><time>2026-04-25T08:46:54.56Z</time></trkpt><trkpt lat="43.3483953" lon="13.139962"><ele>468.99999999999994</ele><time>2026-04-25T08:46:55.554Z</time></trkpt><trkpt lat="43.3483588" lon="13.1398778"><ele>470.0</ele><time>2026-04-25T08:46:56.568Z</time></trkpt><trkpt lat="43.3483215" lon="13.1397867"><ele>470.0</ele><time>2026-04-25T08:46:57.56Z</time></trkpt><trkpt lat="43.3482914" lon="13.1396983"><ele>470.0</ele><time>2026-04-25T08:46:58.563Z</time></trkpt><trkpt lat="43.3482392" lon="13.1395802"><ele>470.0</ele><time>2026-04-25T08:47:00.552Z</time></trkpt><trkpt lat="43.3481871" lon="13.1394587"><ele>470.0</ele><time>2026-04-25T08:47:02.56Z</time></trkpt><trkpt lat="43.3481528" lon="13.1393095"><ele>470.0</ele><time>2026-04-25T08:47:04.554Z</time></trkpt><trkpt lat="43.3480968" lon="13.1391685"><ele>468.2</ele><time>2026-04-25T08:47:06.561Z</time></trkpt><trkpt lat="43.3480499" lon="13.1390425"><ele>466.4</ele><time>2026-04-25T08:47:08.566Z</time></trkpt><trkpt lat="43.3479989" lon="13.1389353"><ele>464.6</ele><time>2026-04-25T08:47:10.557Z</time></trkpt><trkpt lat="43.347947" lon="13.1388405"><ele>462.8</ele><time>2026-04-25T08:47:12.57Z</time></trkpt><trkpt lat="43.3478953" lon="13.1387319"><ele>461.0</ele><time>2026-04-25T08:47:14.559Z</time></trkpt><trkpt lat="43.3478354" lon="13.1385917"><ele>460.4</ele><time>2026-04-25T08:47:16.557Z</time></trkpt><trkpt lat="43.3478065" lon="13.138509"><ele>459.8</ele><time>2026-04-25T08:47:17.554Z</time></trkpt><trkpt lat="43.3477752" lon="13.1384218"><ele>459.19999999999993</ele><time>2026-04-25T08:47:18.559Z</time></trkpt><trkpt lat="43.3477358" lon="13.1382619"><ele>458.59999999999997</ele><time>2026-04-25T08:47:20.554Z</time></trkpt><trkpt lat="43.3476678" lon="13.138112"><ele>458.0</ele><time>2026-04-25T08:47:22.551Z</time></trkpt><trkpt lat="43.3476037" lon="13.1379881"><ele>457.49999999999994</ele><time>2026-04-25T08:47:24.551Z</time></trkpt><trkpt lat="43.3475441" lon="13.1378774"><ele>457.0</ele><time>2026-04-25T08:47:26.558Z</time></trkpt><trkpt lat="43.347504" lon="13.1377783"><ele>456.5</ele><time>2026-04-25T08:47:28.558Z</time></trkpt><trkpt lat="43.3474739" lon="13.1376913"><ele>456.0</ele><time>2026-04-25T08:48:28.556Z</time></trkpt><trkpt lat="43.3474554" lon="13.1376022"><ele>455.49999999999994</ele><time>2026-04-25T08:48:30.562Z</time></trkpt><trkpt lat="43.3474538" lon="13.1374814"><ele>455.0</ele><time>2026-04-25T08:48:32.562Z</time></trkpt><trkpt lat="43.347454" lon="13.1373332"><ele>453.49999999999994</ele><time>2026-04-25T08:48:34.56Z</time></trkpt><trkpt lat="43.3474777" lon="13.1371565"><ele>452.0</ele><time>2026-04-25T08:48:36.568Z</time></trkpt><trkpt lat="43.3475009" lon="13.1370713"><ele>450.5</ele><time>2026-04-25T08:48:37.556Z</time></trkpt><trkpt lat="43.3475352" lon="13.1369949"><ele>449.0</ele><time>2026-04-25T08:48:38.557Z</time></trkpt><trkpt lat="43.347572" lon="13.1369026"><ele>447.49999999999994</ele><time>2026-04-25T08:48:39.558Z</time></trkpt><trkpt lat="43.3476014" lon="13.136809"><ele>446.0</ele><time>2026-04-25T08:48:40.563Z</time></trkpt><trkpt lat="43.3476246" lon="13.1367123"><ele>446.0</ele><time>2026-04-25T08:48:41.56Z</time></trkpt><trkpt lat="43.3476514" lon="13.1366247"><ele>446.0</ele><time>2026-04-25T08:48:42.562Z</time></trkpt><trkpt lat="43.3476728" lon="13.1364564"><ele>446.0</ele><time>2026-04-25T08:48:44.558Z</time></trkpt><trkpt lat="43.3476915" lon="13.1363696"><ele>446.0</ele><time>2026-04-25T08:48:45.555Z</time></trkpt><trkpt lat="43.3477353" lon="13.136225"><ele>446.0</ele><time>2026-04-25T08:48:47.554Z</time></trkpt><trkpt lat="43.3477769" lon="13.1360626"><ele>444.8333333333333</ele><time>2026-04-25T08:48:49.559Z</time></trkpt><trkpt lat="43.3478038" lon="13.1359614"><ele>443.66666666666663</ele><time>2026-04-25T08:48:50.56Z</time></trkpt><trkpt lat="43.3478197" lon="13.1358558"><ele>442.5</ele><time>2026-04-25T08:48:51.56Z</time></trkpt><trkpt lat="43.3478415" lon="13.1357426"><ele>441.33333333333337</ele><time>2026-04-25T08:48:52.566Z</time></trkpt><trkpt lat="43.3478621" lon="13.1356282"><ele>440.1666666666667</ele><time>2026-04-25T08:48:53.564Z</time></trkpt><trkpt lat="43.3478877" lon="13.1355132"><ele>439.0</ele><time>2026-04-25T08:48:54.572Z</time></trkpt><trkpt lat="43.3479047" lon="13.1354197"><ele>438.6666666666667</ele><time>2026-04-25T08:48:55.562Z</time></trkpt><trkpt lat="43.3479061" lon="13.1352829"><ele>438.33333333333337</ele><time>2026-04-25T08:48:57.564Z</time></trkpt><trkpt lat="43.3478756" lon="13.135195"><ele>438.0</ele><time>2026-04-25T08:49:00.552Z</time></trkpt><trkpt lat="43.3478386" lon="13.1351242"><ele>437.66666666666663</ele><time>2026-04-25T08:49:03.564Z</time></trkpt><trkpt lat="43.3478299" lon="13.135033"><ele>437.3333333333333</ele><time>2026-04-25T08:49:07.566Z</time></trkpt><trkpt lat="43.3478141" lon="13.1349236"><ele>437.0</ele><time>2026-04-25T08:49:13.555Z</time></trkpt><trkpt lat="43.3477898" lon="13.1347493"><ele>437.0</ele><time>2026-04-25T08:49:15.555Z</time></trkpt><trkpt lat="43.3477731" lon="13.1346187"><ele>437.00000000000006</ele><time>2026-04-25T08:49:16.56Z</time></trkpt><trkpt lat="43.3477458" lon="13.1344795"><ele>437.00000000000006</ele><time>2026-04-25T08:49:17.568Z</time></trkpt><trkpt lat="43.3477177" lon="13.1343556"><ele>437.0</ele><time>2026-04-25T08:49:18.567Z</time></trkpt><trkpt lat="43.3476902" lon="13.1342481"><ele>437.0</ele><time>2026-04-25T08:49:19.548Z</time></trkpt><trkpt lat="43.347657" lon="13.134147"><ele>437.16666666666663</ele><time>2026-04-25T08:49:20.564Z</time></trkpt><trkpt lat="43.347623" lon="13.1340525"><ele>437.3333333333333</ele><time>2026-04-25T08:49:21.559Z</time></trkpt><trkpt lat="43.3475895" lon="13.1339533"><ele>437.5</ele><time>2026-04-25T08:49:22.557Z</time></trkpt><trkpt lat="43.3475536" lon="13.1338396"><ele>437.66666666666663</ele><time>2026-04-25T08:49:23.562Z</time></trkpt><trkpt lat="43.3475318" lon="13.1337385"><ele>437.8333333333333</ele><time>2026-04-25T08:49:24.563Z</time></trkpt><trkpt lat="43.3475098" lon="13.1336372"><ele>438.0</ele><time>2026-04-25T08:49:25.565Z</time></trkpt><trkpt lat="43.3474769" lon="13.1335345"><ele>438.0</ele><time>2026-04-25T08:49:26.565Z</time></trkpt><trkpt lat="43.3474449" lon="13.1334416"><ele>438.0</ele><time>2026-04-25T08:49:27.562Z</time></trkpt><trkpt lat="43.3474145" lon="13.1333517"><ele>438.0</ele><time>2026-04-25T08:49:28.564Z</time></trkpt><trkpt lat="43.3473915" lon="13.1332517"><ele>438.0</ele><time>2026-04-25T08:49:29.559Z</time></trkpt><trkpt lat="43.3473698" lon="13.1331483"><ele>438.0</ele><time>2026-04-25T08:49:30.556Z</time></trkpt><trkpt lat="43.3473526" lon="13.1330504"><ele>438.0</ele><time>2026-04-25T08:49:31.562Z</time></trkpt><trkpt lat="43.3473422" lon="13.1329539"><ele>438.0</ele><time>2026-04-25T08:49:32.562Z</time></trkpt><trkpt lat="43.3473337" lon="13.1328502"><ele>438.3333333333333</ele><time>2026-04-25T08:49:33.56Z</time></trkpt><trkpt lat="43.3473295" lon="13.1327497"><ele>438.66666666666663</ele><time>2026-04-25T08:49:34.567Z</time></trkpt><trkpt lat="43.3473207" lon="13.1326578"><ele>439.0</ele><time>2026-04-25T08:49:35.56Z</time></trkpt><trkpt lat="43.3472754" lon="13.1325049"><ele>439.3333333333333</ele><time>2026-04-25T08:49:37.549Z</time></trkpt><trkpt lat="43.3472233" lon="13.1324348"><ele>439.66666666666663</ele><time>2026-04-25T08:49:38.564Z</time></trkpt><trkpt lat="43.3471922" lon="13.132351"><ele>440.0</ele><time>2026-04-25T08:49:39.552Z</time></trkpt><trkpt lat="43.3471729" lon="13.1322675"><ele>441.0</ele><time>2026-04-25T08:49:40.551Z</time></trkpt><trkpt lat="43.3471499" lon="13.1321008"><ele>442.0</ele><time>2026-04-25T08:49:42.552Z</time></trkpt><trkpt lat="43.3470863" lon="13.1319757"><ele>443.0</ele><time>2026-04-25T08:49:44.553Z</time></trkpt><trkpt lat="43.3470441" lon="13.1318433"><ele>444.0</ele><time>2026-04-25T08:49:46.551Z</time></trkpt><trkpt lat="43.3470257" lon="13.1317579"><ele>445.0</ele><time>2026-04-25T08:49:47.555Z</time></trkpt><trkpt lat="43.3470146" lon="13.1315931"><ele>446.33333333333337</ele><time>2026-04-25T08:49:49.556Z</time></trkpt><trkpt lat="43.3469727" lon="13.131414"><ele>447.6666666666667</ele><time>2026-04-25T08:49:51.552Z</time></trkpt><trkpt lat="43.3469481" lon="13.1313294"><ele>449.0</ele><time>2026-04-25T08:49:52.564Z</time></trkpt><trkpt lat="43.3469259" lon="13.1312411"><ele>450.33333333333337</ele><time>2026-04-25T08:49:53.562Z</time></trkpt><trkpt lat="43.3469059" lon="13.1311405"><ele>451.6666666666667</ele><time>2026-04-25T08:49:54.564Z</time></trkpt><trkpt lat="43.3468798" lon="13.1310395"><ele>453.0</ele><time>2026-04-25T08:49:55.554Z</time></trkpt><trkpt lat="43.3468538" lon="13.1309487"><ele>453.0</ele><time>2026-04-25T08:49:56.563Z</time></trkpt><trkpt lat="43.3468208" lon="13.1308661"><ele>453.0</ele><time>2026-04-25T08:49:57.552Z</time></trkpt><trkpt lat="43.3467815" lon="13.1307832"><ele>453.0</ele><time>2026-04-25T08:49:58.559Z</time></trkpt><trkpt lat="43.34673" lon="13.1306698"><ele>453.0</ele><time>2026-04-25T08:50:00.556Z</time></trkpt><trkpt lat="43.3466789" lon="13.1305854"><ele>453.0</ele><time>2026-04-25T08:50:08.551Z</time></trkpt><trkpt lat="43.3466403" lon="13.1305057"><ele>453.0</ele><time>2026-04-25T08:50:09.55Z</time></trkpt><trkpt lat="43.3465948" lon="13.1304134"><ele>453.1666666666667</ele><time>2026-04-25T08:50:10.553Z</time></trkpt><trkpt lat="43.3465504" lon="13.1303382"><ele>453.33333333333337</ele><time>2026-04-25T08:50:11.55Z</time></trkpt><trkpt lat="43.3464672" lon="13.1302085"><ele>453.5</ele><time>2026-04-25T08:50:13.549Z</time></trkpt><trkpt lat="43.3464188" lon="13.1301369"><ele>453.6666666666667</ele><time>2026-04-25T08:50:14.549Z</time></trkpt><trkpt lat="43.3463755" lon="13.1300724"><ele>453.83333333333337</ele><time>2026-04-25T08:50:15.543Z</time></trkpt><trkpt lat="43.3463275" lon="13.1300115"><ele>454.0</ele><time>2026-04-25T08:50:16.547Z</time></trkpt><trkpt lat="43.3462813" lon="13.1299481"><ele>454.4</ele><time>2026-04-25T08:50:17.54Z</time></trkpt><trkpt lat="43.3462426" lon="13.1298777"><ele>454.79999999999995</ele><time>2026-04-25T08:50:18.539Z</time></trkpt><trkpt lat="43.3461729" lon="13.1297175"><ele>455.20000000000005</ele><time>2026-04-25T08:50:20.545Z</time></trkpt><trkpt lat="43.346073" lon="13.1295915"><ele>455.6</ele><time>2026-04-25T08:50:22.538Z</time></trkpt><trkpt lat="43.3460023" lon="13.1295504"><ele>456.0</ele><time>2026-04-25T08:50:23.539Z</time></trkpt><trkpt lat="43.3459368" lon="13.1295048"><ele>456.0</ele><time>2026-04-25T08:50:24.54Z</time></trkpt><trkpt lat="43.34589" lon="13.1294459"><ele>456.0</ele><time>2026-04-25T08:50:25.543Z</time></trkpt><trkpt lat="43.3458628" lon="13.1293633"><ele>456.0</ele><time>2026-04-25T08:50:26.539Z</time></trkpt><trkpt lat="43.3458404" lon="13.1292328"><ele>456.0</ele><time>2026-04-25T08:50:28.55Z</time></trkpt><trkpt lat="43.3458303" lon="13.1291196"><ele>456.0</ele><time>2026-04-25T08:50:35.551Z</time></trkpt><trkpt lat="43.3458038" lon="13.1290399"><ele>456.0</ele><time>2026-04-25T08:50:37.57Z</time></trkpt><trkpt lat="43.3457721" lon="13.1289001"><ele>455.8333333333333</ele><time>2026-04-25T08:50:39.574Z</time></trkpt><trkpt lat="43.3457554" lon="13.1288058"><ele>455.66666666666663</ele><time>2026-04-25T08:50:40.572Z</time></trkpt><trkpt lat="43.345727" lon="13.1287118"><ele>455.5</ele><time>2026-04-25T08:50:41.571Z</time></trkpt><trkpt lat="43.3456882" lon="13.1286138"><ele>455.3333333333333</ele><time>2026-04-25T08:50:42.545Z</time></trkpt><trkpt lat="43.3456508" lon="13.1285247"><ele>455.16666666666663</ele><time>2026-04-25T08:50:43.552Z</time></trkpt><trkpt lat="43.3456247" lon="13.1284276"><ele>455.0</ele><time>2026-04-25T08:50:44.578Z</time></trkpt><trkpt lat="43.3455962" lon="13.1283271"><ele>454.3333333333333</ele><time>2026-04-25T08:50:45.58Z</time></trkpt><trkpt lat="43.345566" lon="13.128222"><ele>453.66666666666663</ele><time>2026-04-25T08:50:46.576Z</time></trkpt><trkpt lat="43.3455201" lon="13.1281337"><ele>453.0</ele><time>2026-04-25T08:50:47.579Z</time></trkpt><trkpt lat="43.3454733" lon="13.1280667"><ele>452.33333333333337</ele><time>2026-04-25T08:50:48.571Z</time></trkpt><trkpt lat="43.3454155" lon="13.1280224"><ele>451.6666666666667</ele><time>2026-04-25T08:50:49.575Z</time></trkpt><trkpt lat="43.3452932" lon="13.127956"><ele>451.0</ele><time>2026-04-25T08:50:51.577Z</time></trkpt><trkpt lat="43.34523" lon="13.1279191"><ele>452.50000000000006</ele><time>2026-04-25T08:50:52.585Z</time></trkpt><trkpt lat="43.3451693" lon="13.1278809"><ele>454.0</ele><time>2026-04-25T08:50:53.583Z</time></trkpt><trkpt lat="43.3450862" lon="13.1278464"><ele>455.5</ele><time>2026-04-25T08:50:55.581Z</time></trkpt><trkpt lat="43.3449978" lon="13.1278004"><ele>457.0</ele><time>2026-04-25T08:50:57.572Z</time></trkpt><trkpt lat="43.3449274" lon="13.1277721"><ele>458.50000000000006</ele><time>2026-04-25T08:50:58.579Z</time></trkpt><trkpt lat="43.3448555" lon="13.1277323"><ele>460.0</ele><time>2026-04-25T08:50:59.575Z</time></trkpt><trkpt lat="43.3447899" lon="13.1276943"><ele>459.99999999999994</ele><time>2026-04-25T08:51:00.578Z</time></trkpt><trkpt lat="43.3447216" lon="13.1276595"><ele>460.0</ele><time>2026-04-25T08:51:01.573Z</time></trkpt><trkpt lat="43.344647" lon="13.1276284"><ele>459.99999999999994</ele><time>2026-04-25T08:51:02.586Z</time></trkpt><trkpt lat="43.3445733" lon="13.1276119"><ele>459.99999999999994</ele><time>2026-04-25T08:51:03.579Z</time></trkpt><trkpt lat="43.3445032" lon="13.1276071"><ele>460.0</ele><time>2026-04-25T08:51:04.582Z</time></trkpt><trkpt lat="43.3444304" lon="13.1275947"><ele>459.99999999999994</ele><time>2026-04-25T08:51:05.579Z</time></trkpt><trkpt lat="43.3443577" lon="13.1275871"><ele>459.99999999999994</ele><time>2026-04-25T08:51:06.577Z</time></trkpt><trkpt lat="43.3442899" lon="13.1275685"><ele>459.0</ele><time>2026-04-25T08:51:07.577Z</time></trkpt><trkpt lat="43.3442313" lon="13.1275359"><ele>458.0</ele><time>2026-04-25T08:51:08.582Z</time></trkpt><trkpt lat="43.3441715" lon="13.1274975"><ele>457.0</ele><time>2026-04-25T08:51:09.574Z</time></trkpt><trkpt lat="43.3440698" lon="13.1274011"><ele>456.0</ele><time>2026-04-25T08:51:11.574Z</time></trkpt><trkpt lat="43.3439609" lon="13.1273095"><ele>455.0</ele><time>2026-04-25T08:51:13.575Z</time></trkpt><trkpt lat="43.3438321" lon="13.1272711"><ele>455.49999999999994</ele><time>2026-04-25T08:51:15.567Z</time></trkpt><trkpt lat="43.343765" lon="13.1272668"><ele>456.0</ele><time>2026-04-25T08:51:16.579Z</time></trkpt><trkpt lat="43.3437012" lon="13.1272731"><ele>456.5</ele><time>2026-04-25T08:51:17.572Z</time></trkpt><trkpt lat="43.3436336" lon="13.1272862"><ele>457.0</ele><time>2026-04-25T08:51:18.557Z</time></trkpt><trkpt lat="43.3435168" lon="13.1273187"><ele>457.49999999999994</ele><time>2026-04-25T08:51:20.554Z</time></trkpt><trkpt lat="43.3433979" lon="13.1273662"><ele>458.0</ele><time>2026-04-25T08:51:22.552Z</time></trkpt><trkpt lat="43.3433266" lon="13.1274058"><ele>458.0</ele><time>2026-04-25T08:51:23.547Z</time></trkpt><trkpt lat="43.3432456" lon="13.1274513"><ele>457.99999999999994</ele><time>2026-04-25T08:51:24.556Z</time></trkpt><trkpt lat="43.3431736" lon="13.127513"><ele>457.99999999999994</ele><time>2026-04-25T08:51:25.575Z</time></trkpt><trkpt lat="43.3430941" lon="13.1275673"><ele>458.0</ele><time>2026-04-25T08:51:26.575Z</time></trkpt><trkpt lat="43.3429989" lon="13.127628"><ele>458.0</ele><time>2026-04-25T08:51:27.582Z</time></trkpt><trkpt lat="43.3429069" lon="13.1276788"><ele>458.49999999999994</ele><time>2026-04-25T08:51:28.581Z</time></trkpt><trkpt lat="43.3428209" lon="13.1277075"><ele>459.0</ele><time>2026-04-25T08:51:29.583Z</time></trkpt><trkpt lat="43.3427388" lon="13.1277156"><ele>459.5</ele><time>2026-04-25T08:51:30.554Z</time></trkpt><trkpt lat="43.3426642" lon="13.1277188"><ele>460.0</ele><time>2026-04-25T08:51:31.57Z</time></trkpt><trkpt lat="43.3425884" lon="13.1277155"><ele>460.49999999999994</ele><time>2026-04-25T08:51:32.553Z</time></trkpt><trkpt lat="43.3425111" lon="13.1276939"><ele>461.0</ele><time>2026-04-25T08:51:33.55Z</time></trkpt><trkpt lat="43.3424498" lon="13.1276368"><ele>460.99999999999994</ele><time>2026-04-25T08:51:34.573Z</time></trkpt><trkpt lat="43.3423953" lon="13.1275838"><ele>461.0</ele><time>2026-04-25T08:51:35.572Z</time></trkpt><trkpt lat="43.3422893" lon="13.1274919"><ele>461.0</ele><time>2026-04-25T08:51:37.566Z</time></trkpt><trkpt lat="43.3422241" lon="13.127427"><ele>461.0</ele><time>2026-04-25T08:51:38.564Z</time></trkpt><trkpt lat="43.3421615" lon="13.1273665"><ele>460.99999999999994</ele><time>2026-04-25T08:51:39.562Z</time></trkpt><trkpt lat="43.3420836" lon="13.1272897"><ele>461.0</ele><time>2026-04-25T08:51:40.561Z</time></trkpt><trkpt lat="43.3420008" lon="13.1272086"><ele>463.25</ele><time>2026-04-25T08:51:41.568Z</time></trkpt><trkpt lat="43.3419088" lon="13.1271081"><ele>465.5</ele><time>2026-04-25T08:51:42.56Z</time></trkpt><trkpt lat="43.3418146" lon="13.1270089"><ele>467.75</ele><time>2026-04-25T08:51:43.569Z</time></trkpt><trkpt lat="43.3417028" lon="13.1269084"><ele>470.0</ele><time>2026-04-25T08:51:44.564Z</time></trkpt><trkpt lat="43.3415971" lon="13.1268292"><ele>470.0</ele><time>2026-04-25T08:51:45.564Z</time></trkpt><trkpt lat="43.3414964" lon="13.1267623"><ele>470.0</ele><time>2026-04-25T08:51:46.569Z</time></trkpt><trkpt lat="43.341378" lon="13.1267131"><ele>470.0</ele><time>2026-04-25T08:51:47.576Z</time></trkpt><trkpt lat="43.34126" lon="13.1266781"><ele>470.0</ele><time>2026-04-25T08:51:48.548Z</time></trkpt><trkpt lat="43.3411412" lon="13.1266529"><ele>470.0</ele><time>2026-04-25T08:51:49.554Z</time></trkpt><trkpt lat="43.3410245" lon="13.1266381"><ele>470.0</ele><time>2026-04-25T08:51:50.548Z</time></trkpt><trkpt lat="43.3409169" lon="13.1266422"><ele>470.0</ele><time>2026-04-25T08:51:51.55Z</time></trkpt><trkpt lat="43.3408015" lon="13.1266317"><ele>470.0</ele><time>2026-04-25T08:51:52.548Z</time></trkpt><trkpt lat="43.340681" lon="13.1266012"><ele>471.5</ele><time>2026-04-25T08:51:53.56Z</time></trkpt><trkpt lat="43.3405649" lon="13.1265606"><ele>473.0</ele><time>2026-04-25T08:51:54.555Z</time></trkpt><trkpt lat="43.3404488" lon="13.1265254"><ele>474.5</ele><time>2026-04-25T08:51:55.556Z</time></trkpt><trkpt lat="43.3403304" lon="13.1264766"><ele>476.0</ele><time>2026-04-25T08:51:56.55Z</time></trkpt><trkpt lat="43.3402172" lon="13.1264336"><ele>476.20000000000005</ele><time>2026-04-25T08:51:57.555Z</time></trkpt><trkpt lat="43.3401072" lon="13.1263883"><ele>476.40000000000003</ele><time>2026-04-25T08:51:58.556Z</time></trkpt><trkpt lat="43.3400044" lon="13.1263506"><ele>476.6</ele><time>2026-04-25T08:51:59.556Z</time></trkpt><trkpt lat="43.339904" lon="13.1263262"><ele>476.8</ele><time>2026-04-25T08:52:00.555Z</time></trkpt><trkpt lat="43.3398047" lon="13.1263233"><ele>477.0</ele><time>2026-04-25T08:52:01.554Z</time></trkpt><trkpt lat="43.3397071" lon="13.1263365"><ele>478.40000000000003</ele><time>2026-04-25T08:52:02.56Z</time></trkpt><trkpt lat="43.3396191" lon="13.1263483"><ele>479.80000000000007</ele><time>2026-04-25T08:52:03.548Z</time></trkpt><trkpt lat="43.3395336" lon="13.1263292"><ele>481.2</ele><time>2026-04-25T08:52:04.554Z</time></trkpt><trkpt lat="43.3394504" lon="13.1262772"><ele>482.6</ele><time>2026-04-25T08:52:05.547Z</time></trkpt><trkpt lat="43.3393652" lon="13.1261844"><ele>484.0</ele><time>2026-04-25T08:52:06.547Z</time></trkpt><trkpt lat="43.3392632" lon="13.1260892"><ele>484.0</ele><time>2026-04-25T08:52:07.548Z</time></trkpt><trkpt lat="43.339157" lon="13.1259896"><ele>484.0</ele><time>2026-04-25T08:52:08.552Z</time></trkpt><trkpt lat="43.3390452" lon="13.1259045"><ele>484.0</ele><time>2026-04-25T08:52:09.552Z</time></trkpt><trkpt lat="43.338934" lon="13.1258242"><ele>484.0</ele><time>2026-04-25T08:52:10.555Z</time></trkpt><trkpt lat="43.3388137" lon="13.1257536"><ele>484.2</ele><time>2026-04-25T08:52:11.554Z</time></trkpt><trkpt lat="43.3387003" lon="13.1256914"><ele>484.4</ele><time>2026-04-25T08:52:12.555Z</time></trkpt><trkpt lat="43.338602" lon="13.1256461"><ele>484.6</ele><time>2026-04-25T08:52:13.547Z</time></trkpt><trkpt lat="43.3385156" lon="13.1256077"><ele>484.8</ele><time>2026-04-25T08:52:14.548Z</time></trkpt><trkpt lat="43.3384458" lon="13.1255694"><ele>485.0</ele><time>2026-04-25T08:52:15.543Z</time></trkpt><trkpt lat="43.3383746" lon="13.1255402"><ele>485.0</ele><time>2026-04-25T08:52:16.554Z</time></trkpt><trkpt lat="43.3383096" lon="13.1255068"><ele>485.0</ele><time>2026-04-25T08:52:17.552Z</time></trkpt><trkpt lat="43.3382264" lon="13.1254584"><ele>485.0</ele><time>2026-04-25T08:52:18.556Z</time></trkpt><trkpt lat="43.3381452" lon="13.125394"><ele>485.0</ele><time>2026-04-25T08:52:19.554Z</time></trkpt><trkpt lat="43.3380594" lon="13.1253081"><ele>485.0</ele><time>2026-04-25T08:52:20.545Z</time></trkpt><trkpt lat="43.337969" lon="13.1252096"><ele>486.0</ele><time>2026-04-25T08:52:21.543Z</time></trkpt><trkpt lat="43.3378702" lon="13.125104"><ele>487.0</ele><time>2026-04-25T08:52:22.555Z</time></trkpt><trkpt lat="43.3377774" lon="13.1249965"><ele>488.0</ele><time>2026-04-25T08:52:23.554Z</time></trkpt><trkpt lat="43.3376812" lon="13.1248893"><ele>489.0</ele><time>2026-04-25T08:52:24.557Z</time></trkpt><trkpt lat="43.3375825" lon="13.1247959"><ele>489.0</ele><time>2026-04-25T08:52:25.547Z</time></trkpt><trkpt lat="43.337486" lon="13.1247116"><ele>489.0</ele><time>2026-04-25T08:52:26.551Z</time></trkpt><trkpt lat="43.3373854" lon="13.1246092"><ele>489.0</ele><time>2026-04-25T08:52:27.548Z</time></trkpt><trkpt lat="43.337283" lon="13.1245109"><ele>489.0</ele><time>2026-04-25T08:52:28.546Z</time></trkpt><trkpt lat="43.3371672" lon="13.1244489"><ele>490.25</ele><time>2026-04-25T08:52:29.554Z</time></trkpt><trkpt lat="43.3370442" lon="13.124408"><ele>491.5</ele><time>2026-04-25T08:52:30.554Z</time></trkpt><trkpt lat="43.3369288" lon="13.1244"><ele>492.75</ele><time>2026-04-25T08:52:31.558Z</time></trkpt><trkpt lat="43.3368116" lon="13.1243966"><ele>494.0</ele><time>2026-04-25T08:52:32.562Z</time></trkpt><trkpt lat="43.3366956" lon="13.1243817"><ele>494.0</ele><time>2026-04-25T08:52:33.551Z</time></trkpt><trkpt lat="43.3365772" lon="13.1243611"><ele>494.0</ele><time>2026-04-25T08:52:34.556Z</time></trkpt><trkpt lat="43.3364597" lon="13.1243235"><ele>494.0</ele><time>2026-04-25T08:52:35.551Z</time></trkpt><trkpt lat="43.3363406" lon="13.1242769"><ele>494.0</ele><time>2026-04-25T08:52:36.559Z</time></trkpt><trkpt lat="43.3362208" lon="13.1242253"><ele>494.6</ele><time>2026-04-25T08:52:37.549Z</time></trkpt><trkpt lat="43.3361103" lon="13.1241732"><ele>495.2</ele><time>2026-04-25T08:52:38.556Z</time></trkpt><trkpt lat="43.3360098" lon="13.1241326"><ele>495.80000000000007</ele><time>2026-04-25T08:52:39.55Z</time></trkpt><trkpt lat="43.3359217" lon="13.1241022"><ele>496.40000000000003</ele><time>2026-04-25T08:52:40.545Z</time></trkpt><trkpt lat="43.3358244" lon="13.1240748"><ele>497.0</ele><time>2026-04-25T08:52:41.556Z</time></trkpt><trkpt lat="43.3357219" lon="13.1240497"><ele>494.0</ele><time>2026-04-25T08:52:42.547Z</time></trkpt><trkpt lat="43.3356117" lon="13.1240489"><ele>491.0</ele><time>2026-04-25T08:52:43.553Z</time></trkpt><trkpt lat="43.3354838" lon="13.1240518"><ele>488.0</ele><time>2026-04-25T08:52:44.543Z</time></trkpt><trkpt lat="43.3353536" lon="13.1240459"><ele>485.0</ele><time>2026-04-25T08:52:45.551Z</time></trkpt><trkpt lat="43.3352355" lon="13.1240245"><ele>485.0</ele><time>2026-04-25T08:52:46.548Z</time></trkpt><trkpt lat="43.335136" lon="13.1239951"><ele>485.0</ele><time>2026-04-25T08:52:47.557Z</time></trkpt><trkpt lat="43.3350506" lon="13.1239693"><ele>485.0</ele><time>2026-04-25T08:52:48.562Z</time></trkpt><trkpt lat="43.3349661" lon="13.1239621"><ele>485.0</ele><time>2026-04-25T08:52:49.554Z</time></trkpt><trkpt lat="43.3348757" lon="13.1239679"><ele>485.0</ele><time>2026-04-25T08:52:50.546Z</time></trkpt><trkpt lat="43.3347892" lon="13.1239846"><ele>485.6</ele><time>2026-04-25T08:52:51.536Z</time></trkpt><trkpt lat="43.334698" lon="13.1240164"><ele>486.2</ele><time>2026-04-25T08:52:52.55Z</time></trkpt><trkpt lat="43.3345986" lon="13.1240673"><ele>486.79999999999995</ele><time>2026-04-25T08:52:53.548Z</time></trkpt><trkpt lat="43.3344931" lon="13.1241216"><ele>487.4</ele><time>2026-04-25T08:52:54.554Z</time></trkpt><trkpt lat="43.3343825" lon="13.1241615"><ele>488.0</ele><time>2026-04-25T08:52:55.549Z</time></trkpt><trkpt lat="43.3342711" lon="13.12421"><ele>491.0</ele><time>2026-04-25T08:52:56.549Z</time></trkpt><trkpt lat="43.3341621" lon="13.1242462"><ele>494.0</ele><time>2026-04-25T08:52:57.55Z</time></trkpt><trkpt lat="43.3340457" lon="13.1242719"><ele>497.0</ele><time>2026-04-25T08:52:58.545Z</time></trkpt><trkpt lat="43.3339273" lon="13.1242975"><ele>500.0</ele><time>2026-04-25T08:52:59.543Z</time></trkpt><trkpt lat="43.333809" lon="13.1243027"><ele>501.0</ele><time>2026-04-25T08:53:00.534Z</time></trkpt><trkpt lat="43.3336893" lon="13.1243086"><ele>502.0</ele><time>2026-04-25T08:53:01.541Z</time></trkpt><trkpt lat="43.3335688" lon="13.1243155"><ele>503.0</ele><time>2026-04-25T08:53:02.552Z</time></trkpt><trkpt lat="43.3334597" lon="13.1243363"><ele>504.0</ele><time>2026-04-25T08:53:03.549Z</time></trkpt><trkpt lat="43.3333496" lon="13.124345"><ele>504.0</ele><time>2026-04-25T08:53:04.547Z</time></trkpt><trkpt lat="43.3332641" lon="13.1243667"><ele>504.0</ele><time>2026-04-25T08:53:05.55Z</time></trkpt><trkpt lat="43.3331978" lon="13.1243948"><ele>504.0</ele><time>2026-04-25T08:53:06.544Z</time></trkpt><trkpt lat="43.3331096" lon="13.1244295"><ele>504.0</ele><time>2026-04-25T08:53:08.546Z</time></trkpt><trkpt lat="43.3330343" lon="13.1244197"><ele>504.0</ele><time>2026-04-25T08:53:11.546Z</time></trkpt><trkpt lat="43.332987" lon="13.1243217"><ele>504.0</ele><time>2026-04-25T08:53:15.54Z</time></trkpt><trkpt lat="43.3330297" lon="13.1242455"><ele>504.0</ele><time>2026-04-25T08:53:30.55Z</time></trkpt><trkpt lat="43.3330719" lon="13.1241781"><ele>504.0</ele><time>2026-04-25T08:55:50.579Z</time></trkpt><trkpt lat="43.3330648" lon="13.1240899"><ele>504.0</ele><time>2026-04-25T08:55:54.559Z</time></trkpt><trkpt lat="43.3330181" lon="13.1239896"><ele>504.0</ele><time>2026-04-25T08:57:09.591Z</time></trkpt><trkpt lat="43.3329937" lon="13.1239024"><ele>504.0</ele><time>2026-04-25T08:57:11.592Z</time></trkpt><trkpt lat="43.3329679" lon="13.1237828"><ele>504.0</ele><time>2026-04-25T08:57:13.59Z</time></trkpt><trkpt lat="43.3329299" lon="13.1236368"><ele>502.8333333333333</ele><time>2026-04-25T08:57:15.601Z</time></trkpt><trkpt lat="43.3329008" lon="13.1235421"><ele>501.66666666666663</ele><time>2026-04-25T08:57:16.591Z</time></trkpt><trkpt lat="43.3328784" lon="13.1234434"><ele>500.5</ele><time>2026-04-25T08:57:17.594Z</time></trkpt><trkpt lat="43.3328604" lon="13.1233497"><ele>499.3333333333333</ele><time>2026-04-25T08:57:18.591Z</time></trkpt><trkpt lat="43.3328389" lon="13.1232678"><ele>498.16666666666663</ele><time>2026-04-25T08:57:19.597Z</time></trkpt><trkpt lat="43.3327896" lon="13.1231471"><ele>497.0</ele><time>2026-04-25T08:57:21.593Z</time></trkpt><trkpt lat="43.3327416" lon="13.1230245"><ele>497.0</ele><time>2026-04-25T08:57:23.59Z</time></trkpt><trkpt lat="43.3326973" lon="13.1229549"><ele>497.00000000000006</ele><time>2026-04-25T08:57:24.584Z</time></trkpt><trkpt lat="43.3326359" lon="13.1228792"><ele>497.00000000000006</ele><time>2026-04-25T08:57:25.59Z</time></trkpt><trkpt lat="43.3325526" lon="13.1227949"><ele>497.0</ele><time>2026-04-25T08:57:26.584Z</time></trkpt><trkpt lat="43.3324739" lon="13.1226926"><ele>497.0</ele><time>2026-04-25T08:57:27.59Z</time></trkpt><trkpt lat="43.3323998" lon="13.1225692"><ele>497.0</ele><time>2026-04-25T08:57:28.589Z</time></trkpt><trkpt lat="43.3323332" lon="13.1224548"><ele>497.00000000000006</ele><time>2026-04-25T08:57:29.592Z</time></trkpt><trkpt lat="43.3322744" lon="13.1223494"><ele>497.00000000000006</ele><time>2026-04-25T08:57:30.59Z</time></trkpt><trkpt lat="43.3322163" lon="13.1222378"><ele>497.0</ele><time>2026-04-25T08:57:31.594Z</time></trkpt><trkpt lat="43.3321586" lon="13.1221262"><ele>497.0</ele><time>2026-04-25T08:57:32.596Z</time></trkpt><trkpt lat="43.332102" lon="13.1220182"><ele>496.6</ele><time>2026-04-25T08:57:33.597Z</time></trkpt><trkpt lat="43.3320403" lon="13.1219137"><ele>496.20000000000005</ele><time>2026-04-25T08:57:34.589Z</time></trkpt><trkpt lat="43.3319746" lon="13.121815"><ele>495.8</ele><time>2026-04-25T08:57:35.587Z</time></trkpt><trkpt lat="43.3319075" lon="13.1217056"><ele>495.4</ele><time>2026-04-25T08:57:36.583Z</time></trkpt><trkpt lat="43.3318321" lon="13.1215766"><ele>495.0</ele><time>2026-04-25T08:57:37.579Z</time></trkpt><trkpt lat="43.3317502" lon="13.1214512"><ele>495.0</ele><time>2026-04-25T08:57:38.581Z</time></trkpt><trkpt lat="43.3316686" lon="13.1213131"><ele>495.0</ele><time>2026-04-25T08:57:39.582Z</time></trkpt><trkpt lat="43.3315777" lon="13.1211629"><ele>495.0</ele><time>2026-04-25T08:57:40.58Z</time></trkpt><trkpt lat="43.3314746" lon="13.1210329"><ele>495.0</ele><time>2026-04-25T08:57:41.587Z</time></trkpt><trkpt lat="43.3313605" lon="13.120924"><ele>494.5</ele><time>2026-04-25T08:57:42.581Z</time></trkpt><trkpt lat="43.3312486" lon="13.1208253"><ele>494.0</ele><time>2026-04-25T08:57:43.581Z</time></trkpt><trkpt lat="43.3311405" lon="13.120743"><ele>493.5</ele><time>2026-04-25T08:57:44.576Z</time></trkpt><trkpt lat="43.3310294" lon="13.1206861"><ele>493.0</ele><time>2026-04-25T08:57:45.576Z</time></trkpt><trkpt lat="43.3309053" lon="13.1206586"><ele>493.0</ele><time>2026-04-25T08:57:46.576Z</time></trkpt><trkpt lat="43.3307768" lon="13.120661"><ele>493.0</ele><time>2026-04-25T08:57:47.576Z</time></trkpt><trkpt lat="43.330628" lon="13.1207074"><ele>493.0</ele><time>2026-04-25T08:57:48.572Z</time></trkpt><trkpt lat="43.3305049" lon="13.120762"><ele>493.0</ele><time>2026-04-25T08:57:49.583Z</time></trkpt><trkpt lat="43.3303664" lon="13.1208301"><ele>490.0</ele><time>2026-04-25T08:57:50.58Z</time></trkpt><trkpt lat="43.3302281" lon="13.1209141"><ele>487.0</ele><time>2026-04-25T08:57:51.59Z</time></trkpt><trkpt lat="43.3300884" lon="13.1209959"><ele>484.0</ele><time>2026-04-25T08:57:52.58Z</time></trkpt><trkpt lat="43.3299531" lon="13.1210777"><ele>484.0</ele><time>2026-04-25T08:57:53.585Z</time></trkpt><trkpt lat="43.32983" lon="13.1211844"><ele>484.0</ele><time>2026-04-25T08:57:54.58Z</time></trkpt><trkpt lat="43.329721" lon="13.1213217"><ele>484.0</ele><time>2026-04-25T08:57:55.571Z</time></trkpt><trkpt lat="43.3296088" lon="13.1214704"><ele>484.0</ele><time>2026-04-25T08:57:56.57Z</time></trkpt><trkpt lat="43.3295124" lon="13.1216278"><ele>484.0</ele><time>2026-04-25T08:57:57.578Z</time></trkpt><trkpt lat="43.3293956" lon="13.1217831"><ele>484.0</ele><time>2026-04-25T08:57:58.573Z</time></trkpt><trkpt lat="43.3292927" lon="13.1219376"><ele>484.0</ele><time>2026-04-25T08:57:59.577Z</time></trkpt><trkpt lat="43.3291733" lon="13.1221135"><ele>484.0</ele><time>2026-04-25T08:58:00.571Z</time></trkpt><trkpt lat="43.3290559" lon="13.1222939"><ele>484.0</ele><time>2026-04-25T08:58:01.576Z</time></trkpt><trkpt lat="43.3289365" lon="13.122464"><ele>484.0</ele><time>2026-04-25T08:58:02.576Z</time></trkpt><trkpt lat="43.3288336" lon="13.1226329"><ele>485.33333333333337</ele><time>2026-04-25T08:58:03.587Z</time></trkpt><trkpt lat="43.3287345" lon="13.1228031"><ele>486.66666666666663</ele><time>2026-04-25T08:58:04.584Z</time></trkpt><trkpt lat="43.3286428" lon="13.1229701"><ele>488.0</ele><time>2026-04-25T08:58:05.576Z</time></trkpt><trkpt lat="43.3285691" lon="13.1231619"><ele>485.3333333333333</ele><time>2026-04-25T08:58:06.57Z</time></trkpt><trkpt lat="43.3285018" lon="13.1233607"><ele>482.66666666666663</ele><time>2026-04-25T08:58:07.572Z</time></trkpt><trkpt lat="43.3284672" lon="13.123573"><ele>480.0</ele><time>2026-04-25T08:58:08.569Z</time></trkpt><trkpt lat="43.3284269" lon="13.1237877"><ele>480.0</ele><time>2026-04-25T08:58:09.587Z</time></trkpt><trkpt lat="43.3283877" lon="13.1239893"><ele>480.0</ele><time>2026-04-25T08:58:10.578Z</time></trkpt><trkpt lat="43.3283591" lon="13.1241924"><ele>480.0</ele><time>2026-04-25T08:58:11.571Z</time></trkpt><trkpt lat="43.3283216" lon="13.1243809"><ele>480.0</ele><time>2026-04-25T08:58:12.569Z</time></trkpt><trkpt lat="43.3282627" lon="13.1246072"><ele>478.33333333333337</ele><time>2026-04-25T08:58:13.573Z</time></trkpt><trkpt lat="43.3282037" lon="13.1248299"><ele>476.6666666666667</ele><time>2026-04-25T08:58:14.573Z</time></trkpt><trkpt lat="43.3281167" lon="13.125009"><ele>475.0</ele><time>2026-04-25T08:58:15.565Z</time></trkpt><trkpt lat="43.3280382" lon="13.1251768"><ele>477.5</ele><time>2026-04-25T08:58:16.561Z</time></trkpt><trkpt lat="43.3279517" lon="13.1253254"><ele>480.0</ele><time>2026-04-25T08:58:17.566Z</time></trkpt><trkpt lat="43.3278644" lon="13.1254607"><ele>482.5</ele><time>2026-04-25T08:58:18.576Z</time></trkpt><trkpt lat="43.3277494" lon="13.1255878"><ele>485.0</ele><time>2026-04-25T08:58:19.575Z</time></trkpt><trkpt lat="43.3276115" lon="13.1256937"><ele>482.0</ele><time>2026-04-25T08:58:20.58Z</time></trkpt><trkpt lat="43.327444" lon="13.1257954"><ele>479.0</ele><time>2026-04-25T08:58:21.569Z</time></trkpt><trkpt lat="43.3272857" lon="13.1259057"><ele>476.0</ele><time>2026-04-25T08:58:22.572Z</time></trkpt><trkpt lat="43.3271166" lon="13.1260095"><ele>473.3333333333333</ele><time>2026-04-25T08:58:23.57Z</time></trkpt><trkpt lat="43.3269686" lon="13.1261234"><ele>470.66666666666663</ele><time>2026-04-25T08:58:24.578Z</time></trkpt><trkpt lat="43.3268038" lon="13.1262196"><ele>468.0</ele><time>2026-04-25T08:58:25.579Z</time></trkpt><trkpt lat="43.3266472" lon="13.126335"><ele>468.0</ele><time>2026-04-25T08:58:26.58Z</time></trkpt><trkpt lat="43.3264912" lon="13.126438"><ele>468.0</ele><time>2026-04-25T08:58:27.585Z</time></trkpt><trkpt lat="43.3263293" lon="13.1265537"><ele>468.0</ele><time>2026-04-25T08:58:28.579Z</time></trkpt><trkpt lat="43.3261772" lon="13.1266497"><ele>464.0</ele><time>2026-04-25T08:58:29.588Z</time></trkpt><trkpt lat="43.3260159" lon="13.1267286"><ele>460.0</ele><time>2026-04-25T08:58:30.582Z</time></trkpt><trkpt lat="43.3258665" lon="13.1267926"><ele>456.0</ele><time>2026-04-25T08:58:31.589Z</time></trkpt><trkpt lat="43.3257045" lon="13.1268339"><ele>456.0</ele><time>2026-04-25T08:58:32.582Z</time></trkpt><trkpt lat="43.325577" lon="13.1268625"><ele>456.0</ele><time>2026-04-25T08:58:33.574Z</time></trkpt><trkpt lat="43.3254727" lon="13.1268472"><ele>456.0</ele><time>2026-04-25T08:58:34.577Z</time></trkpt><trkpt lat="43.3253711" lon="13.1268207"><ele>456.0</ele><time>2026-04-25T08:58:35.584Z</time></trkpt><trkpt lat="43.3252707" lon="13.1267327"><ele>456.33333333333337</ele><time>2026-04-25T08:58:36.57Z</time></trkpt><trkpt lat="43.32517" lon="13.1265972"><ele>456.6666666666667</ele><time>2026-04-25T08:58:37.59Z</time></trkpt><trkpt lat="43.3250483" lon="13.1264284"><ele>457.0</ele><time>2026-04-25T08:58:38.576Z</time></trkpt><trkpt lat="43.3249361" lon="13.1262694"><ele>457.0</ele><time>2026-04-25T08:58:39.58Z</time></trkpt><trkpt lat="43.3248337" lon="13.1261196"><ele>457.0</ele><time>2026-04-25T08:58:40.574Z</time></trkpt><trkpt lat="43.3247456" lon="13.1259852"><ele>457.0</ele><time>2026-04-25T08:58:41.579Z</time></trkpt><trkpt lat="43.324658" lon="13.1258862"><ele>457.0</ele><time>2026-04-25T08:58:42.576Z</time></trkpt><trkpt lat="43.3245586" lon="13.1258313"><ele>457.0</ele><time>2026-04-25T08:58:43.583Z</time></trkpt><trkpt lat="43.3244599" lon="13.1258014"><ele>457.0</ele><time>2026-04-25T08:58:44.566Z</time></trkpt><trkpt lat="43.3243318" lon="13.1258522"><ele>457.0</ele><time>2026-04-25T08:58:45.571Z</time></trkpt><trkpt lat="43.3242289" lon="13.1258939"><ele>457.0</ele><time>2026-04-25T08:58:46.576Z</time></trkpt><trkpt lat="43.3241267" lon="13.125961"><ele>457.0</ele><time>2026-04-25T08:58:47.569Z</time></trkpt><trkpt lat="43.3240448" lon="13.1260763"><ele>457.0</ele><time>2026-04-25T08:58:48.578Z</time></trkpt><trkpt lat="43.3239876" lon="13.1262412"><ele>457.0</ele><time>2026-04-25T08:58:49.567Z</time></trkpt><trkpt lat="43.3239519" lon="13.126421"><ele>457.0</ele><time>2026-04-25T08:58:50.577Z</time></trkpt><trkpt lat="43.3239641" lon="13.1266386"><ele>458.0</ele><time>2026-04-25T08:58:51.561Z</time></trkpt><trkpt lat="43.3239891" lon="13.1268773"><ele>459.0</ele><time>2026-04-25T08:58:52.574Z</time></trkpt><trkpt lat="43.324002" lon="13.1271537"><ele>460.0</ele><time>2026-04-25T08:58:53.568Z</time></trkpt><trkpt lat="43.3240114" lon="13.127433"><ele>460.0</ele><time>2026-04-25T08:58:54.582Z</time></trkpt><trkpt lat="43.3240145" lon="13.127694"><ele>460.0</ele><time>2026-04-25T08:58:55.575Z</time></trkpt><trkpt lat="43.3240222" lon="13.1279331"><ele>460.0</ele><time>2026-04-25T08:58:56.591Z</time></trkpt><trkpt lat="43.3240278" lon="13.1281739"><ele>460.6666666666667</ele><time>2026-04-25T08:58:57.585Z</time></trkpt><trkpt lat="43.3240331" lon="13.1284148"><ele>461.33333333333337</ele><time>2026-04-25T08:58:58.59Z</time></trkpt><trkpt lat="43.3240353" lon="13.1286392"><ele>462.0</ele><time>2026-04-25T08:58:59.589Z</time></trkpt><trkpt lat="43.3240269" lon="13.1288367"><ele>462.0</ele><time>2026-04-25T08:59:00.605Z</time></trkpt><trkpt lat="43.3240359" lon="13.129055"><ele>462.0</ele><time>2026-04-25T08:59:01.587Z</time></trkpt><trkpt lat="43.3240232" lon="13.1292407"><ele>462.0</ele><time>2026-04-25T08:59:02.596Z</time></trkpt><trkpt lat="43.3239834" lon="13.1293913"><ele>462.0</ele><time>2026-04-25T08:59:03.584Z</time></trkpt><trkpt lat="43.3239265" lon="13.1295486"><ele>464.0</ele><time>2026-04-25T08:59:04.582Z</time></trkpt><trkpt lat="43.3238561" lon="13.1296814"><ele>466.0</ele><time>2026-04-25T08:59:05.597Z</time></trkpt><trkpt lat="43.3237521" lon="13.1297725"><ele>468.0</ele><time>2026-04-25T08:59:06.578Z</time></trkpt><trkpt lat="43.3236254" lon="13.1298555"><ele>470.0</ele><time>2026-04-25T08:59:07.582Z</time></trkpt><trkpt lat="43.3234925" lon="13.129925"><ele>470.0</ele><time>2026-04-25T08:59:08.582Z</time></trkpt><trkpt lat="43.3233394" lon="13.1299907"><ele>470.0</ele><time>2026-04-25T08:59:09.592Z</time></trkpt><trkpt lat="43.3231924" lon="13.1300415"><ele>470.0</ele><time>2026-04-25T08:59:10.589Z</time></trkpt><trkpt lat="43.3230567" lon="13.1300934"><ele>472.25</ele><time>2026-04-25T08:59:11.589Z</time></trkpt><trkpt lat="43.322939" lon="13.130187"><ele>474.5</ele><time>2026-04-25T08:59:12.579Z</time></trkpt><trkpt lat="43.322842" lon="13.1303351"><ele>476.75</ele><time>2026-04-25T08:59:13.588Z</time></trkpt><trkpt lat="43.3227753" lon="13.1305203"><ele>479.0</ele><time>2026-04-25T08:59:14.586Z</time></trkpt><trkpt lat="43.3227114" lon="13.1307578"><ele>479.66666666666663</ele><time>2026-04-25T08:59:15.591Z</time></trkpt><trkpt lat="43.3226317" lon="13.1309763"><ele>480.33333333333337</ele><time>2026-04-25T08:59:16.593Z</time></trkpt><trkpt lat="43.3225533" lon="13.1311748"><ele>481.0</ele><time>2026-04-25T08:59:17.586Z</time></trkpt><trkpt lat="43.322472" lon="13.1313545"><ele>481.0</ele><time>2026-04-25T08:59:18.585Z</time></trkpt><trkpt lat="43.3224021" lon="13.1315413"><ele>481.0</ele><time>2026-04-25T08:59:19.577Z</time></trkpt><trkpt lat="43.3223235" lon="13.1317253"><ele>481.0</ele><time>2026-04-25T08:59:20.577Z</time></trkpt><trkpt lat="43.32224" lon="13.1318898"><ele>482.25</ele><time>2026-04-25T08:59:21.579Z</time></trkpt><trkpt lat="43.3221424" lon="13.1320384"><ele>483.5</ele><time>2026-04-25T08:59:22.57Z</time></trkpt><trkpt lat="43.3220415" lon="13.1321737"><ele>484.75</ele><time>2026-04-25T08:59:23.574Z</time></trkpt><trkpt lat="43.3219223" lon="13.1323162"><ele>486.0</ele><time>2026-04-25T08:59:24.576Z</time></trkpt><trkpt lat="43.321798" lon="13.1324566"><ele>486.0</ele><time>2026-04-25T08:59:25.578Z</time></trkpt><trkpt lat="43.3216766" lon="13.1325994"><ele>486.0</ele><time>2026-04-25T08:59:26.593Z</time></trkpt><trkpt lat="43.3215625" lon="13.132732"><ele>486.0</ele><time>2026-04-25T08:59:27.589Z</time></trkpt><trkpt lat="43.3214532" lon="13.1328539"><ele>488.75</ele><time>2026-04-25T08:59:28.59Z</time></trkpt><trkpt lat="43.321346" lon="13.1329433"><ele>491.5</ele><time>2026-04-25T08:59:29.584Z</time></trkpt><trkpt lat="43.3212422" lon="13.1330249"><ele>494.25</ele><time>2026-04-25T08:59:30.592Z</time></trkpt><trkpt lat="43.3211059" lon="13.1330605"><ele>497.0</ele><time>2026-04-25T08:59:31.578Z</time></trkpt><trkpt lat="43.320964" lon="13.1330642"><ele>497.0</ele><time>2026-04-25T08:59:32.596Z</time></trkpt><trkpt lat="43.3208137" lon="13.1330548"><ele>497.0</ele><time>2026-04-25T08:59:33.59Z</time></trkpt><trkpt lat="43.3206577" lon="13.1330393"><ele>497.0</ele><time>2026-04-25T08:59:34.592Z</time></trkpt><trkpt lat="43.3205061" lon="13.1330382"><ele>496.75</ele><time>2026-04-25T08:59:35.58Z</time></trkpt><trkpt lat="43.3203779" lon="13.1330325"><ele>496.5</ele><time>2026-04-25T08:59:36.584Z</time></trkpt><trkpt lat="43.3202504" lon="13.1330302"><ele>496.25</ele><time>2026-04-25T08:59:37.576Z</time></trkpt><trkpt lat="43.3201203" lon="13.1329894"><ele>496.0</ele><time>2026-04-25T08:59:38.582Z</time></trkpt><trkpt lat="43.3200053" lon="13.1328834"><ele>496.0</ele><time>2026-04-25T08:59:39.586Z</time></trkpt><trkpt lat="43.3199125" lon="13.1327373"><ele>496.0</ele><time>2026-04-25T08:59:40.574Z</time></trkpt><trkpt lat="43.3198253" lon="13.132561"><ele>496.0</ele><time>2026-04-25T08:59:41.577Z</time></trkpt><trkpt lat="43.3197272" lon="13.1323714"><ele>493.6666666666667</ele><time>2026-04-25T08:59:42.576Z</time></trkpt><trkpt lat="43.3196332" lon="13.132177"><ele>491.33333333333337</ele><time>2026-04-25T08:59:43.585Z</time></trkpt><trkpt lat="43.3195259" lon="13.1319909"><ele>489.0</ele><time>2026-04-25T08:59:44.578Z</time></trkpt><trkpt lat="43.3194171" lon="13.131799"><ele>489.0</ele><time>2026-04-25T08:59:45.588Z</time></trkpt><trkpt lat="43.3193324" lon="13.131585"><ele>489.0</ele><time>2026-04-25T08:59:46.586Z</time></trkpt><trkpt lat="43.3192408" lon="13.1314072"><ele>489.0</ele><time>2026-04-25T08:59:47.593Z</time></trkpt><trkpt lat="43.3191582" lon="13.1312473"><ele>489.5</ele><time>2026-04-25T08:59:48.583Z</time></trkpt><trkpt lat="43.3190873" lon="13.1310901"><ele>490.0</ele><time>2026-04-25T08:59:49.581Z</time></trkpt><trkpt lat="43.3190113" lon="13.1309439"><ele>490.5</ele><time>2026-04-25T08:59:50.585Z</time></trkpt><trkpt lat="43.3189132" lon="13.1308239"><ele>491.0</ele><time>2026-04-25T08:59:51.583Z</time></trkpt><trkpt lat="43.3187903" lon="13.1307494"><ele>494.66666666666663</ele><time>2026-04-25T08:59:52.576Z</time></trkpt><trkpt lat="43.3186372" lon="13.1306791"><ele>498.33333333333337</ele><time>2026-04-25T08:59:53.583Z</time></trkpt><trkpt lat="43.3184803" lon="13.1306147"><ele>502.0</ele><time>2026-04-25T08:59:54.592Z</time></trkpt><trkpt lat="43.318353" lon="13.1305443"><ele>502.0</ele><time>2026-04-25T08:59:55.578Z</time></trkpt><trkpt lat="43.318236" lon="13.1304989"><ele>502.0</ele><time>2026-04-25T08:59:56.571Z</time></trkpt><trkpt lat="43.3181156" lon="13.1304663"><ele>502.0</ele><time>2026-04-25T08:59:57.574Z</time></trkpt><trkpt lat="43.3180004" lon="13.1304572"><ele>502.0</ele><time>2026-04-25T08:59:58.577Z</time></trkpt><trkpt lat="43.3178953" lon="13.1304661"><ele>502.8</ele><time>2026-04-25T08:59:59.573Z</time></trkpt><trkpt lat="43.3178074" lon="13.1305075"><ele>503.6</ele><time>2026-04-25T09:00:00.573Z</time></trkpt><trkpt lat="43.3177158" lon="13.1305518"><ele>504.40000000000003</ele><time>2026-04-25T09:00:01.573Z</time></trkpt><trkpt lat="43.3176283" lon="13.1305883"><ele>505.20000000000005</ele><time>2026-04-25T09:00:02.565Z</time></trkpt><trkpt lat="43.31754" lon="13.1306078"><ele>506.0</ele><time>2026-04-25T09:00:03.56Z</time></trkpt><trkpt lat="43.3174595" lon="13.1306033"><ele>506.00000000000006</ele><time>2026-04-25T09:00:04.573Z</time></trkpt><trkpt lat="43.3173824" lon="13.1305923"><ele>506.0</ele><time>2026-04-25T09:00:05.568Z</time></trkpt><trkpt lat="43.3173106" lon="13.1305696"><ele>506.00000000000006</ele><time>2026-04-25T09:00:06.567Z</time></trkpt><trkpt lat="43.3172399" lon="13.1305574"><ele>506.00000000000006</ele><time>2026-04-25T09:00:07.563Z</time></trkpt><trkpt lat="43.3171716" lon="13.1305735"><ele>506.0</ele><time>2026-04-25T09:00:08.558Z</time></trkpt><trkpt lat="43.3171151" lon="13.1306229"><ele>506.00000000000006</ele><time>2026-04-25T09:00:09.564Z</time></trkpt><trkpt lat="43.3170689" lon="13.1306878"><ele>506.00000000000006</ele><time>2026-04-25T09:00:10.568Z</time></trkpt><trkpt lat="43.3170444" lon="13.1307817"><ele>507.49999999999994</ele><time>2026-04-25T09:00:11.567Z</time></trkpt><trkpt lat="43.3170255" lon="13.1308833"><ele>509.0</ele><time>2026-04-25T09:00:12.565Z</time></trkpt><trkpt lat="43.3170258" lon="13.1309916"><ele>510.5</ele><time>2026-04-25T09:00:13.561Z</time></trkpt><trkpt lat="43.3170368" lon="13.1311174"><ele>512.0</ele><time>2026-04-25T09:00:14.566Z</time></trkpt><trkpt lat="43.3170266" lon="13.1312249"><ele>513.5</ele><time>2026-04-25T09:00:15.568Z</time></trkpt><trkpt lat="43.3169807" lon="13.1313755"><ele>515.0</ele><time>2026-04-25T09:00:17.579Z</time></trkpt><trkpt lat="43.3169046" lon="13.1315116"><ele>514.4</ele><time>2026-04-25T09:00:19.576Z</time></trkpt><trkpt lat="43.3168024" lon="13.1316139"><ele>513.8</ele><time>2026-04-25T09:00:21.566Z</time></trkpt><trkpt lat="43.3167197" lon="13.1317197"><ele>513.2</ele><time>2026-04-25T09:00:23.561Z</time></trkpt><trkpt lat="43.3166651" lon="13.1318721"><ele>512.6</ele><time>2026-04-25T09:00:25.565Z</time></trkpt><trkpt lat="43.3166224" lon="13.1319734"><ele>512.0</ele><time>2026-04-25T09:00:26.572Z</time></trkpt><trkpt lat="43.3165925" lon="13.1320885"><ele>511.99999999999994</ele><time>2026-04-25T09:00:27.573Z</time></trkpt><trkpt lat="43.3165549" lon="13.1321841"><ele>512.0</ele><time>2026-04-25T09:00:28.581Z</time></trkpt><trkpt lat="43.3165385" lon="13.1322724"><ele>512.0</ele><time>2026-04-25T09:00:29.576Z</time></trkpt><trkpt lat="43.3165033" lon="13.1323483"><ele>512.0</ele><time>2026-04-25T09:00:30.574Z</time></trkpt><trkpt lat="43.3164227" lon="13.1324526"><ele>511.99999999999994</ele><time>2026-04-25T09:00:32.576Z</time></trkpt><trkpt lat="43.3163447" lon="13.132491"><ele>512.0</ele><time>2026-04-25T09:00:35.565Z</time></trkpt><trkpt lat="43.316274" lon="13.1324577"><ele>513.5</ele><time>2026-04-25T09:00:37.571Z</time></trkpt><trkpt lat="43.3161668" lon="13.1324491"><ele>515.0</ele><time>2026-04-25T09:00:39.567Z</time></trkpt><trkpt lat="43.3161012" lon="13.1324613"><ele>516.5</ele><time>2026-04-25T09:00:40.567Z</time></trkpt><trkpt lat="43.3160347" lon="13.1324646"><ele>518.0</ele><time>2026-04-25T09:00:41.566Z</time></trkpt><trkpt lat="43.3159665" lon="13.1324788"><ele>519.5</ele><time>2026-04-25T09:00:42.58Z</time></trkpt><trkpt lat="43.3158924" lon="13.1325006"><ele>521.0</ele><time>2026-04-25T09:00:43.575Z</time></trkpt><trkpt lat="43.3158286" lon="13.1325156"><ele>521.0</ele><time>2026-04-25T09:00:44.579Z</time></trkpt><trkpt lat="43.3157527" lon="13.1325338"><ele>521.0</ele><time>2026-04-25T09:00:45.571Z</time></trkpt><trkpt lat="43.3156928" lon="13.1325722"><ele>521.0</ele><time>2026-04-25T09:00:46.577Z</time></trkpt><trkpt lat="43.3155789" lon="13.1326369"><ele>521.0</ele><time>2026-04-25T09:00:48.573Z</time></trkpt><trkpt lat="43.3154825" lon="13.1326569"><ele>521.0</ele><time>2026-04-25T09:00:50.575Z</time></trkpt><trkpt lat="43.3154011" lon="13.1326323"><ele>521.0</ele><time>2026-04-25T09:00:52.571Z</time></trkpt><trkpt lat="43.3152727" lon="13.1326492"><ele>523.3333333333333</ele><time>2026-04-25T09:00:54.576Z</time></trkpt><trkpt lat="43.3151905" lon="13.1326584"><ele>525.6666666666666</ele><time>2026-04-25T09:00:55.577Z</time></trkpt><trkpt lat="43.3151071" lon="13.1326649"><ele>528.0</ele><time>2026-04-25T09:00:56.573Z</time></trkpt><trkpt lat="43.3150303" lon="13.1326749"><ele>530.3333333333334</ele><time>2026-04-25T09:00:57.577Z</time></trkpt><trkpt lat="43.3149653" lon="13.1326807"><ele>532.6666666666667</ele><time>2026-04-25T09:00:58.573Z</time></trkpt><trkpt lat="43.314901" lon="13.1326905"><ele>535.0</ele><time>2026-04-25T09:00:59.581Z</time></trkpt><trkpt lat="43.3147976" lon="13.1327237"><ele>536.3333333333334</ele><time>2026-04-25T09:01:01.568Z</time></trkpt><trkpt lat="43.3147315" lon="13.1327464"><ele>537.6666666666667</ele><time>2026-04-25T09:01:04.554Z</time></trkpt><trkpt lat="43.3146687" lon="13.132794"><ele>539.0</ele><time>2026-04-25T09:01:06.549Z</time></trkpt><trkpt lat="43.3145788" lon="13.1327493"><ele>540.3333333333334</ele><time>2026-04-25T09:01:09.559Z</time></trkpt><trkpt lat="43.3144957" lon="13.1327881"><ele>541.6666666666666</ele><time>2026-04-25T09:01:11.56Z</time></trkpt><trkpt lat="43.3144193" lon="13.1327439"><ele>543.0</ele><time>2026-04-25T09:01:13.568Z</time></trkpt><trkpt lat="43.3143147" lon="13.1326293"><ele>543.0</ele><time>2026-04-25T09:01:15.573Z</time></trkpt><trkpt lat="43.3142375" lon="13.1325518"><ele>543.0</ele><time>2026-04-25T09:01:17.568Z</time></trkpt><trkpt lat="43.3141985" lon="13.1324747"><ele>543.0</ele><time>2026-04-25T09:01:18.565Z</time></trkpt><trkpt lat="43.3141157" lon="13.1323341"><ele>543.0</ele><time>2026-04-25T09:01:20.566Z</time></trkpt><trkpt lat="43.3140218" lon="13.1322158"><ele>543.0</ele><time>2026-04-25T09:01:22.572Z</time></trkpt><trkpt lat="43.3139166" lon="13.1321885"><ele>542.8</ele><time>2026-04-25T09:01:24.586Z</time></trkpt><trkpt lat="43.313822" lon="13.1322805"><ele>542.5999999999999</ele><time>2026-04-25T09:01:26.571Z</time></trkpt><trkpt lat="43.3137616" lon="13.1323255"><ele>542.4000000000001</ele><time>2026-04-25T09:01:27.574Z</time></trkpt><trkpt lat="43.3136434" lon="13.1323867"><ele>542.2</ele><time>2026-04-25T09:01:29.58Z</time></trkpt><trkpt lat="43.3135239" lon="13.1324134"><ele>542.0</ele><time>2026-04-25T09:01:31.569Z</time></trkpt><trkpt lat="43.313405" lon="13.1324428"><ele>542.0</ele><time>2026-04-25T09:01:33.578Z</time></trkpt><trkpt lat="43.3132819" lon="13.1324811"><ele>542.0</ele><time>2026-04-25T09:01:35.573Z</time></trkpt><trkpt lat="43.3132142" lon="13.1324958"><ele>542.0</ele><time>2026-04-25T09:01:36.566Z</time></trkpt><trkpt lat="43.3131119" lon="13.1325109"><ele>542.0</ele><time>2026-04-25T09:01:38.563Z</time></trkpt><trkpt lat="43.3130451" lon="13.1325143"><ele>542.0</ele><time>2026-04-25T09:01:39.571Z</time></trkpt><trkpt lat="43.3129721" lon="13.1325082"><ele>542.0</ele><time>2026-04-25T09:01:40.572Z</time></trkpt><trkpt lat="43.3128957" lon="13.1324959"><ele>541.4</ele><time>2026-04-25T09:01:41.579Z</time></trkpt><trkpt lat="43.3128207" lon="13.132487"><ele>540.8000000000001</ele><time>2026-04-25T09:01:42.574Z</time></trkpt><trkpt lat="43.3127532" lon="13.1324871"><ele>540.2</ele><time>2026-04-25T09:01:43.576Z</time></trkpt><trkpt lat="43.3126356" lon="13.132513"><ele>539.6</ele><time>2026-04-25T09:01:45.567Z</time></trkpt><trkpt lat="43.312561" lon="13.1325217"><ele>539.0</ele><time>2026-04-25T09:01:47.565Z</time></trkpt><trkpt lat="43.3124481" lon="13.1325025"><ele>539.0</ele><time>2026-04-25T09:01:49.577Z</time></trkpt><trkpt lat="43.3123589" lon="13.1324868"><ele>539.0</ele><time>2026-04-25T09:01:51.574Z</time></trkpt><trkpt lat="43.3122894" lon="13.1325168"><ele>539.0</ele><time>2026-04-25T09:01:53.579Z</time></trkpt><trkpt lat="43.3121963" lon="13.1324926"><ele>539.0</ele><time>2026-04-25T09:01:56.57Z</time></trkpt><trkpt lat="43.3121292" lon="13.1324317"><ele>539.0</ele><time>2026-04-25T09:01:58.577Z</time></trkpt><trkpt lat="43.3120862" lon="13.1323065"><ele>539.0</ele><time>2026-04-25T09:02:01.577Z</time></trkpt><trkpt lat="43.3120767" lon="13.132139"><ele>539.3333333333333</ele><time>2026-04-25T09:02:03.572Z</time></trkpt><trkpt lat="43.3120641" lon="13.1320377"><ele>539.6666666666666</ele><time>2026-04-25T09:02:04.572Z</time></trkpt><trkpt lat="43.3120536" lon="13.1319435"><ele>540.0</ele><time>2026-04-25T09:02:05.568Z</time></trkpt><trkpt lat="43.3120402" lon="13.1318511"><ele>540.3333333333334</ele><time>2026-04-25T09:02:06.568Z</time></trkpt><trkpt lat="43.3120358" lon="13.1316696"><ele>540.6666666666667</ele><time>2026-04-25T09:02:08.56Z</time></trkpt><trkpt lat="43.3120308" lon="13.1315725"><ele>541.0</ele><time>2026-04-25T09:02:09.559Z</time></trkpt><trkpt lat="43.312004" lon="13.1314874"><ele>541.0</ele><time>2026-04-25T09:02:10.564Z</time></trkpt><trkpt lat="43.3119358" lon="13.1313688"><ele>541.0</ele><time>2026-04-25T09:02:12.563Z</time></trkpt><trkpt lat="43.3118267" lon="13.1313061"><ele>541.0</ele><time>2026-04-25T09:02:14.564Z</time></trkpt><trkpt lat="43.3117281" lon="13.1312781"><ele>541.0</ele><time>2026-04-25T09:02:16.564Z</time></trkpt><trkpt lat="43.3116435" lon="13.1312473"><ele>541.0</ele><time>2026-04-25T09:02:18.558Z</time></trkpt><trkpt lat="43.3115345" lon="13.1312531"><ele>541.0</ele><time>2026-04-25T09:02:20.567Z</time></trkpt><trkpt lat="43.3114172" lon="13.1313408"><ele>541.0</ele><time>2026-04-25T09:02:22.546Z</time></trkpt><trkpt lat="43.3113295" lon="13.1313635"><ele>541.0</ele><time>2026-04-25T09:02:23.552Z</time></trkpt><trkpt lat="43.3112576" lon="13.1313779"><ele>541.0</ele><time>2026-04-25T09:02:24.55Z</time></trkpt><trkpt lat="43.3111684" lon="13.1314179"><ele>541.0</ele><time>2026-04-25T09:02:25.554Z</time></trkpt><trkpt lat="43.3110624" lon="13.1314184"><ele>543.0</ele><time>2026-04-25T09:02:26.555Z</time></trkpt><trkpt lat="43.31099" lon="13.1314203"><ele>545.0</ele><time>2026-04-25T09:02:27.554Z</time></trkpt><trkpt lat="43.3109196" lon="13.1314389"><ele>547.0</ele><time>2026-04-25T09:02:28.565Z</time></trkpt><trkpt lat="43.3108501" lon="13.131447"><ele>549.0</ele><time>2026-04-25T09:02:29.56Z</time></trkpt><trkpt lat="43.3107821" lon="13.1314573"><ele>551.0</ele><time>2026-04-25T09:02:30.567Z</time></trkpt><trkpt lat="43.3106635" lon="13.1314924"><ele>553.0</ele><time>2026-04-25T09:02:32.564Z</time></trkpt><trkpt lat="43.3105529" lon="13.1315244"><ele>557.1666666666667</ele><time>2026-04-25T09:02:34.569Z</time></trkpt><trkpt lat="43.3104879" lon="13.1315824"><ele>561.3333333333334</ele><time>2026-04-25T09:02:36.561Z</time></trkpt><trkpt lat="43.3104629" lon="13.1317009"><ele>565.5</ele><time>2026-04-25T09:02:38.562Z</time></trkpt><trkpt lat="43.3104788" lon="13.1317886"><ele>569.6666666666666</ele><time>2026-04-25T09:02:39.56Z</time></trkpt><trkpt lat="43.3105012" lon="13.1318839"><ele>573.8333333333333</ele><time>2026-04-25T09:02:40.558Z</time></trkpt><trkpt lat="43.3105047" lon="13.1319709"><ele>578.0</ele><time>2026-04-25T09:02:41.558Z</time></trkpt><trkpt lat="43.3105011" lon="13.1321262"><ele>578.0</ele><time>2026-04-25T09:02:43.558Z</time></trkpt><trkpt lat="43.3104906" lon="13.1322858"><ele>578.0</ele><time>2026-04-25T09:02:45.564Z</time></trkpt><trkpt lat="43.3104419" lon="13.1324085"><ele>578.0</ele><time>2026-04-25T09:02:47.575Z</time></trkpt><trkpt lat="43.3104301" lon="13.1325454"><ele>578.0</ele><time>2026-04-25T09:02:49.566Z</time></trkpt><trkpt lat="43.3104325" lon="13.1326807"><ele>578.0</ele><time>2026-04-25T09:02:51.572Z</time></trkpt><trkpt lat="43.3104198" lon="13.1327925"><ele>577.1999999999999</ele><time>2026-04-25T09:02:53.578Z</time></trkpt><trkpt lat="43.3103754" lon="13.1329143"><ele>576.4</ele><time>2026-04-25T09:02:55.575Z</time></trkpt><trkpt lat="43.3102914" lon="13.1330397"><ele>575.5999999999999</ele><time>2026-04-25T09:02:57.566Z</time></trkpt><trkpt lat="43.3102398" lon="13.1331622"><ele>574.8</ele><time>2026-04-25T09:02:59.571Z</time></trkpt><trkpt lat="43.3101509" lon="13.1332395"><ele>574.0</ele><time>2026-04-25T09:03:01.577Z</time></trkpt><trkpt lat="43.3100366" lon="13.1332781"><ele>571.0</ele><time>2026-04-25T09:03:03.575Z</time></trkpt><trkpt lat="43.3099223" lon="13.1332956"><ele>568.0</ele><time>2026-04-25T09:03:05.572Z</time></trkpt><trkpt lat="43.3098135" lon="13.1332807"><ele>565.0</ele><time>2026-04-25T09:03:07.571Z</time></trkpt><trkpt lat="43.3097108" lon="13.1332627"><ele>562.0</ele><time>2026-04-25T09:03:09.568Z</time></trkpt><trkpt lat="43.3096312" lon="13.1332469"><ele>559.0</ele><time>2026-04-25T09:03:11.568Z</time></trkpt><trkpt lat="43.3095473" lon="13.1332232"><ele>558.6666666666667</ele><time>2026-04-25T09:03:14.58Z</time></trkpt><trkpt lat="43.3094646" lon="13.1332589"><ele>558.3333333333334</ele><time>2026-04-25T09:03:16.582Z</time></trkpt><trkpt lat="43.3093915" lon="13.1332584"><ele>558.0</ele><time>2026-04-25T09:03:19.566Z</time></trkpt><trkpt lat="43.3093095" lon="13.1332512"><ele>557.6666666666666</ele><time>2026-04-25T09:03:21.567Z</time></trkpt><trkpt lat="43.3092474" lon="13.1332269"><ele>557.3333333333333</ele><time>2026-04-25T09:03:22.566Z</time></trkpt><trkpt lat="43.3091707" lon="13.1331707"><ele>557.0</ele><time>2026-04-25T09:03:23.571Z</time></trkpt><trkpt lat="43.3090832" lon="13.13311"><ele>559.5</ele><time>2026-04-25T09:03:24.575Z</time></trkpt><trkpt lat="43.3090095" lon="13.1330673"><ele>562.0</ele><time>2026-04-25T09:03:25.567Z</time></trkpt><trkpt lat="43.3089262" lon="13.1330113"><ele>564.5</ele><time>2026-04-25T09:03:26.57Z</time></trkpt><trkpt lat="43.3088564" lon="13.1329566"><ele>567.0</ele><time>2026-04-25T09:03:27.564Z</time></trkpt><trkpt lat="43.3087843" lon="13.1329157"><ele>569.5</ele><time>2026-04-25T09:03:28.569Z</time></trkpt><trkpt lat="43.3087273" lon="13.1328465"><ele>572.0</ele><time>2026-04-25T09:03:29.565Z</time></trkpt><trkpt lat="43.3086723" lon="13.1327759"><ele>572.0</ele><time>2026-04-25T09:03:30.562Z</time></trkpt><trkpt lat="43.3085647" lon="13.1326969"><ele>572.0</ele><time>2026-04-25T09:03:32.56Z</time></trkpt><trkpt lat="43.3085077" lon="13.132659"><ele>572.0</ele><time>2026-04-25T09:03:33.561Z</time></trkpt><trkpt lat="43.3084096" lon="13.1325669"><ele>572.0</ele><time>2026-04-25T09:03:35.564Z</time></trkpt><trkpt lat="43.3083318" lon="13.1324662"><ele>572.0</ele><time>2026-04-25T09:03:37.574Z</time></trkpt><trkpt lat="43.3082421" lon="13.1324449"><ele>572.0</ele><time>2026-04-25T09:03:39.571Z</time></trkpt><trkpt lat="43.3081303" lon="13.1324483"><ele>572.0</ele><time>2026-04-25T09:03:41.573Z</time></trkpt><trkpt lat="43.3080123" lon="13.1324198"><ele>572.0</ele><time>2026-04-25T09:03:43.573Z</time></trkpt><trkpt lat="43.3079491" lon="13.1324121"><ele>572.0</ele><time>2026-04-25T09:03:44.58Z</time></trkpt><trkpt lat="43.3078379" lon="13.1324096"><ele>572.0</ele><time>2026-04-25T09:03:46.582Z</time></trkpt><trkpt lat="43.3077291" lon="13.1324837"><ele>571.8000000000001</ele><time>2026-04-25T09:03:48.582Z</time></trkpt><trkpt lat="43.3076713" lon="13.1325366"><ele>571.6</ele><time>2026-04-25T09:03:49.572Z</time></trkpt><trkpt lat="43.3075647" lon="13.1325847"><ele>571.4000000000001</ele><time>2026-04-25T09:03:51.571Z</time></trkpt><trkpt lat="43.3074646" lon="13.1325998"><ele>571.2</ele><time>2026-04-25T09:03:53.563Z</time></trkpt><trkpt lat="43.307359" lon="13.1326112"><ele>571.0</ele><time>2026-04-25T09:03:55.577Z</time></trkpt><trkpt lat="43.3072491" lon="13.1326137"><ele>576.0</ele><time>2026-04-25T09:03:57.563Z</time></trkpt><trkpt lat="43.3071854" lon="13.132637"><ele>581.0</ele><time>2026-04-25T09:03:59.567Z</time></trkpt><trkpt lat="43.3071022" lon="13.13265"><ele>586.0</ele><time>2026-04-25T09:04:01.574Z</time></trkpt><trkpt lat="43.307012" lon="13.1327143"><ele>591.0</ele><time>2026-04-25T09:04:03.566Z</time></trkpt><trkpt lat="43.3069652" lon="13.1327876"><ele>596.0</ele><time>2026-04-25T09:04:04.573Z</time></trkpt><trkpt lat="43.3069169" lon="13.1328747"><ele>601.0</ele><time>2026-04-25T09:04:05.571Z</time></trkpt><trkpt lat="43.306878" lon="13.1329524"><ele>601.0</ele><time>2026-04-25T09:04:06.574Z</time></trkpt><trkpt lat="43.3068152" lon="13.1330487"><ele>601.0</ele><time>2026-04-25T09:04:08.567Z</time></trkpt><trkpt lat="43.3067809" lon="13.1331961"><ele>601.0</ele><time>2026-04-25T09:04:10.562Z</time></trkpt><trkpt lat="43.3067693" lon="13.1332827"><ele>601.0</ele><time>2026-04-25T09:04:11.562Z</time></trkpt><trkpt lat="43.3067638" lon="13.1333715"><ele>601.0</ele><time>2026-04-25T09:04:12.556Z</time></trkpt><trkpt lat="43.3067568" lon="13.1334892"><ele>601.0</ele><time>2026-04-25T09:04:14.564Z</time></trkpt><trkpt lat="43.3067578" lon="13.1336073"><ele>596.75</ele><time>2026-04-25T09:04:17.58Z</time></trkpt><trkpt lat="43.3067471" lon="13.1337629"><ele>592.5</ele><time>2026-04-25T09:04:19.573Z</time></trkpt><trkpt lat="43.306731" lon="13.1339138"><ele>588.25</ele><time>2026-04-25T09:04:21.577Z</time></trkpt><trkpt lat="43.3067016" lon="13.1340655"><ele>584.0</ele><time>2026-04-25T09:04:23.569Z</time></trkpt><trkpt lat="43.306661" lon="13.1342274"><ele>582.1666666666666</ele><time>2026-04-25T09:04:25.58Z</time></trkpt><trkpt lat="43.3066403" lon="13.1343168"><ele>580.3333333333333</ele><time>2026-04-25T09:04:26.576Z</time></trkpt><trkpt lat="43.3066135" lon="13.1343964"><ele>578.5</ele><time>2026-04-25T09:04:27.581Z</time></trkpt><trkpt lat="43.3065608" lon="13.1344759"><ele>576.6666666666666</ele><time>2026-04-25T09:04:29.584Z</time></trkpt><trkpt lat="43.3065166" lon="13.1345606"><ele>574.8333333333334</ele><time>2026-04-25T09:04:31.582Z</time></trkpt><trkpt lat="43.3064633" lon="13.1346687"><ele>573.0</ele><time>2026-04-25T09:04:33.577Z</time></trkpt><trkpt lat="43.30641" lon="13.1347826"><ele>574.5</ele><time>2026-04-25T09:04:35.576Z</time></trkpt><trkpt lat="43.3063314" lon="13.1349094"><ele>576.0</ele><time>2026-04-25T09:04:37.579Z</time></trkpt><trkpt lat="43.3062774" lon="13.1349729"><ele>577.5</ele><time>2026-04-25T09:04:38.589Z</time></trkpt><trkpt lat="43.3062176" lon="13.1350334"><ele>579.0</ele><time>2026-04-25T09:04:39.582Z</time></trkpt><trkpt lat="43.3061443" lon="13.1351094"><ele>580.5</ele><time>2026-04-25T09:04:40.584Z</time></trkpt><trkpt lat="43.306077" lon="13.1351632"><ele>582.0</ele><time>2026-04-25T09:04:41.578Z</time></trkpt><trkpt lat="43.3060185" lon="13.1352137"><ele>582.0</ele><time>2026-04-25T09:04:42.565Z</time></trkpt><trkpt lat="43.3059671" lon="13.135282"><ele>582.0</ele><time>2026-04-25T09:04:43.562Z</time></trkpt><trkpt lat="43.3058725" lon="13.1353777"><ele>582.0</ele><time>2026-04-25T09:04:45.564Z</time></trkpt><trkpt lat="43.3058021" lon="13.1354289"><ele>582.0</ele><time>2026-04-25T09:04:47.574Z</time></trkpt><trkpt lat="43.3057393" lon="13.1354543"><ele>582.0</ele><time>2026-04-25T09:04:49.571Z</time></trkpt><trkpt lat="43.3056063" lon="13.1354338"><ele>583.1428571428571</ele><time>2026-04-25T09:04:51.576Z</time></trkpt><trkpt lat="43.3055482" lon="13.1353667"><ele>584.2857142857142</ele><time>2026-04-25T09:04:52.574Z</time></trkpt><trkpt lat="43.305511" lon="13.1352952"><ele>585.4285714285714</ele><time>2026-04-25T09:04:53.581Z</time></trkpt><trkpt lat="43.305488" lon="13.1352115"><ele>586.5714285714286</ele><time>2026-04-25T09:04:54.579Z</time></trkpt><trkpt lat="43.3054656" lon="13.1351192"><ele>587.7142857142858</ele><time>2026-04-25T09:04:55.573Z</time></trkpt><trkpt lat="43.3054476" lon="13.1350145"><ele>588.8571428571429</ele><time>2026-04-25T09:04:56.576Z</time></trkpt><trkpt lat="43.3054259" lon="13.1349037"><ele>590.0</ele><time>2026-04-25T09:04:57.578Z</time></trkpt><trkpt lat="43.3053969" lon="13.1347906"><ele>590.0</ele><time>2026-04-25T09:04:58.582Z</time></trkpt><trkpt lat="43.3053657" lon="13.1346889"><ele>590.0</ele><time>2026-04-25T09:04:59.583Z</time></trkpt><trkpt lat="43.3053354" lon="13.1345954"><ele>590.0</ele><time>2026-04-25T09:05:00.572Z</time></trkpt><trkpt lat="43.30531" lon="13.1345105"><ele>590.0</ele><time>2026-04-25T09:05:01.568Z</time></trkpt><trkpt lat="43.305249" lon="13.1343772"><ele>590.0</ele><time>2026-04-25T09:05:03.572Z</time></trkpt><trkpt lat="43.3051997" lon="13.1343227"><ele>590.0</ele><time>2026-04-25T09:05:04.563Z</time></trkpt><trkpt lat="43.3050877" lon="13.1342866"><ele>590.0</ele><time>2026-04-25T09:05:06.563Z</time></trkpt><trkpt lat="43.3050196" lon="13.1342853"><ele>590.0</ele><time>2026-04-25T09:05:07.57Z</time></trkpt><trkpt lat="43.3049036" lon="13.1342861"><ele>590.0</ele><time>2026-04-25T09:05:09.572Z</time></trkpt><trkpt lat="43.3047932" lon="13.1342854"><ele>590.0</ele><time>2026-04-25T09:05:11.573Z</time></trkpt><trkpt lat="43.3046833" lon="13.1343224"><ele>590.0</ele><time>2026-04-25T09:05:13.555Z</time></trkpt><trkpt lat="43.3045995" lon="13.1342902"><ele>591.4</ele><time>2026-04-25T09:05:15.557Z</time></trkpt><trkpt lat="43.3045105" lon="13.134286"><ele>592.8</ele><time>2026-04-25T09:05:17.56Z</time></trkpt><trkpt lat="43.3044322" lon="13.1343756"><ele>594.2</ele><time>2026-04-25T09:05:19.558Z</time></trkpt><trkpt lat="43.3043804" lon="13.1344658"><ele>595.6</ele><time>2026-04-25T09:05:20.572Z</time></trkpt><trkpt lat="43.30433" lon="13.134596"><ele>597.0</ele><time>2026-04-25T09:05:22.565Z</time></trkpt><trkpt lat="43.304283" lon="13.1346838"><ele>597.0</ele><time>2026-04-25T09:05:23.564Z</time></trkpt><trkpt lat="43.3042455" lon="13.1347698"><ele>597.0</ele><time>2026-04-25T09:05:24.569Z</time></trkpt><trkpt lat="43.3041673" lon="13.1348687"><ele>597.0</ele><time>2026-04-25T09:05:26.568Z</time></trkpt><trkpt lat="43.3041033" lon="13.135012"><ele>597.0</ele><time>2026-04-25T09:05:28.572Z</time></trkpt><trkpt lat="43.3040592" lon="13.135083"><ele>597.0</ele><time>2026-04-25T09:05:29.566Z</time></trkpt><trkpt lat="43.3039929" lon="13.1352119"><ele>598.8000000000001</ele><time>2026-04-25T09:05:31.568Z</time></trkpt><trkpt lat="43.303929" lon="13.135332"><ele>600.6</ele><time>2026-04-25T09:05:33.569Z</time></trkpt><trkpt lat="43.3038852" lon="13.1354838"><ele>602.4000000000001</ele><time>2026-04-25T09:05:35.568Z</time></trkpt><trkpt lat="43.3038769" lon="13.1356418"><ele>604.2</ele><time>2026-04-25T09:05:37.563Z</time></trkpt><trkpt lat="43.3038468" lon="13.1357491"><ele>606.0</ele><time>2026-04-25T09:05:39.556Z</time></trkpt><trkpt lat="43.3037389" lon="13.1359088"><ele>606.0</ele><time>2026-04-25T09:05:45.554Z</time></trkpt><trkpt lat="43.3036425" lon="13.1357951"><ele>606.0</ele><time>2026-04-25T09:05:59.572Z</time></trkpt><trkpt lat="43.3037058" lon="13.1357734"><ele>606.0</ele><time>2026-04-25T09:06:21.565Z</time></trkpt><trkpt lat="43.3037758" lon="13.1357667"><ele>606.0</ele><time>2026-04-25T09:06:29.568Z</time></trkpt><trkpt lat="43.3038212" lon="13.1357017"><ele>606.0</ele><time>2026-04-25T09:06:34.561Z</time></trkpt><trkpt lat="43.3038756" lon="13.1357747"><ele>606.0</ele><time>2026-04-25T09:07:15.559Z</time></trkpt><trkpt lat="43.3037872" lon="13.1357466"><ele>602.8333333333334</ele><time>2026-04-25T09:07:25.575Z</time></trkpt><trkpt lat="43.3037267" lon="13.1358125"><ele>599.6666666666666</ele><time>2026-04-25T09:10:21.556Z</time></trkpt><trkpt lat="43.303796" lon="13.1358531"><ele>596.5</ele><time>2026-04-25T09:10:39.541Z</time></trkpt><trkpt lat="43.3038619" lon="13.1358611"><ele>593.3333333333333</ele><time>2026-04-25T09:10:43.534Z</time></trkpt><trkpt lat="43.303877" lon="13.1357339"><ele>590.1666666666666</ele><time>2026-04-25T09:11:08.564Z</time></trkpt><trkpt lat="43.3037785" lon="13.13573"><ele>587.0</ele><time>2026-04-25T09:11:16.574Z</time></trkpt><trkpt lat="43.3038454" lon="13.1357417"><ele>587.0</ele><time>2026-04-25T09:11:35.539Z</time></trkpt><trkpt lat="43.3039135" lon="13.1358887"><ele>587.0</ele><time>2026-04-25T09:11:51.553Z</time></trkpt><trkpt lat="43.3038431" lon="13.1358252"><ele>587.0</ele><time>2026-04-25T09:11:56.58Z</time></trkpt><trkpt lat="43.3038779" lon="13.1357167"><ele>587.0</ele><time>2026-04-25T09:12:00.545Z</time></trkpt><trkpt lat="43.3039403" lon="13.1355822"><ele>587.0</ele><time>2026-04-25T09:12:02.556Z</time></trkpt><trkpt lat="43.3039796" lon="13.1355072"><ele>585.3333333333333</ele><time>2026-04-25T09:12:03.548Z</time></trkpt><trkpt lat="43.3040192" lon="13.1354153"><ele>583.6666666666666</ele><time>2026-04-25T09:12:04.543Z</time></trkpt><trkpt lat="43.3040961" lon="13.1353056"><ele>582.0</ele><time>2026-04-25T09:12:06.545Z</time></trkpt><trkpt lat="43.3041509" lon="13.1352409"><ele>580.3333333333334</ele><time>2026-04-25T09:12:07.547Z</time></trkpt><trkpt lat="43.304203" lon="13.1351903"><ele>578.6666666666667</ele><time>2026-04-25T09:12:08.548Z</time></trkpt><trkpt lat="43.3043151" lon="13.135121"><ele>577.0</ele><time>2026-04-25T09:12:10.554Z</time></trkpt><trkpt lat="43.3043779" lon="13.1351011"><ele>577.0</ele><time>2026-04-25T09:12:11.548Z</time></trkpt><trkpt lat="43.3044554" lon="13.1351001"><ele>577.0</ele><time>2026-04-25T09:12:12.552Z</time></trkpt><trkpt lat="43.3045221" lon="13.1351259"><ele>577.0</ele><time>2026-04-25T09:12:13.563Z</time></trkpt><trkpt lat="43.3045781" lon="13.1351688"><ele>577.0</ele><time>2026-04-25T09:12:14.561Z</time></trkpt><trkpt lat="43.3046205" lon="13.1352411"><ele>577.0</ele><time>2026-04-25T09:12:15.556Z</time></trkpt><trkpt lat="43.304649" lon="13.1353428"><ele>577.0</ele><time>2026-04-25T09:12:16.558Z</time></trkpt><trkpt lat="43.3046457" lon="13.1354746"><ele>577.0</ele><time>2026-04-25T09:12:17.552Z</time></trkpt><trkpt lat="43.3046131" lon="13.1356168"><ele>577.0</ele><time>2026-04-25T09:12:18.553Z</time></trkpt><trkpt lat="43.3045699" lon="13.1357742"><ele>577.0</ele><time>2026-04-25T09:12:19.549Z</time></trkpt><trkpt lat="43.3045597" lon="13.1359188"><ele>577.0</ele><time>2026-04-25T09:12:20.562Z</time></trkpt><trkpt lat="43.3045316" lon="13.13611"><ele>572.75</ele><time>2026-04-25T09:12:21.55Z</time></trkpt><trkpt lat="43.3045087" lon="13.1363002"><ele>568.5</ele><time>2026-04-25T09:12:22.563Z</time></trkpt><trkpt lat="43.3044747" lon="13.1364974"><ele>564.25</ele><time>2026-04-25T09:12:23.549Z</time></trkpt><trkpt lat="43.304428" lon="13.1366813"><ele>560.0</ele><time>2026-04-25T09:12:24.556Z</time></trkpt><trkpt lat="43.3043748" lon="13.1368303"><ele>557.5</ele><time>2026-04-25T09:12:25.552Z</time></trkpt><trkpt lat="43.3043307" lon="13.1369638"><ele>555.0</ele><time>2026-04-25T09:12:26.56Z</time></trkpt><trkpt lat="43.3042426" lon="13.1370537"><ele>552.5</ele><time>2026-04-25T09:12:27.552Z</time></trkpt><trkpt lat="43.3041304" lon="13.1371421"><ele>550.0</ele><time>2026-04-25T09:12:28.548Z</time></trkpt><trkpt lat="43.3040178" lon="13.1372105"><ele>548.4</ele><time>2026-04-25T09:12:29.547Z</time></trkpt><trkpt lat="43.3039133" lon="13.1372717"><ele>546.8</ele><time>2026-04-25T09:12:30.55Z</time></trkpt><trkpt lat="43.3038041" lon="13.1372847"><ele>545.2</ele><time>2026-04-25T09:12:31.546Z</time></trkpt><trkpt lat="43.3037145" lon="13.1373113"><ele>543.6</ele><time>2026-04-25T09:12:32.551Z</time></trkpt><trkpt lat="43.303634" lon="13.1373453"><ele>542.0</ele><time>2026-04-25T09:12:33.549Z</time></trkpt><trkpt lat="43.303569" lon="13.1374052"><ele>542.0</ele><time>2026-04-25T09:12:34.547Z</time></trkpt><trkpt lat="43.3035073" lon="13.1374686"><ele>542.0</ele><time>2026-04-25T09:12:35.556Z</time></trkpt><trkpt lat="43.3034434" lon="13.137524"><ele>542.0</ele><time>2026-04-25T09:12:36.551Z</time></trkpt><trkpt lat="43.3034045" lon="13.1376637"><ele>542.0</ele><time>2026-04-25T09:12:37.545Z</time></trkpt><trkpt lat="43.3033501" lon="13.1378224"><ele>542.0</ele><time>2026-04-25T09:12:38.55Z</time></trkpt><trkpt lat="43.3032943" lon="13.1379974"><ele>542.0</ele><time>2026-04-25T09:12:39.552Z</time></trkpt><trkpt lat="43.3032388" lon="13.1381736"><ele>542.0</ele><time>2026-04-25T09:12:40.547Z</time></trkpt><trkpt lat="43.3031869" lon="13.1383905"><ele>542.0</ele><time>2026-04-25T09:12:41.555Z</time></trkpt><trkpt lat="43.3031131" lon="13.1386476"><ele>537.75</ele><time>2026-04-25T09:12:42.549Z</time></trkpt><trkpt lat="43.303064" lon="13.1388628"><ele>533.5</ele><time>2026-04-25T09:12:43.555Z</time></trkpt><trkpt lat="43.3030219" lon="13.139066"><ele>529.25</ele><time>2026-04-25T09:12:44.553Z</time></trkpt><trkpt lat="43.3029753" lon="13.1392108"><ele>525.0</ele><time>2026-04-25T09:12:45.56Z</time></trkpt><trkpt lat="43.3029439" lon="13.139347"><ele>523.4</ele><time>2026-04-25T09:12:46.555Z</time></trkpt><trkpt lat="43.3029292" lon="13.1394713"><ele>521.8</ele><time>2026-04-25T09:12:47.561Z</time></trkpt><trkpt lat="43.3028847" lon="13.1395736"><ele>520.2</ele><time>2026-04-25T09:12:48.552Z</time></trkpt><trkpt lat="43.3028136" lon="13.1396699"><ele>518.6</ele><time>2026-04-25T09:12:49.559Z</time></trkpt><trkpt lat="43.3027201" lon="13.1397297"><ele>517.0</ele><time>2026-04-25T09:12:50.554Z</time></trkpt><trkpt lat="43.3026108" lon="13.1397987"><ele>517.0</ele><time>2026-04-25T09:12:51.556Z</time></trkpt><trkpt lat="43.302475" lon="13.1398446"><ele>517.0</ele><time>2026-04-25T09:12:52.547Z</time></trkpt><trkpt lat="43.3023295" lon="13.1399118"><ele>517.0</ele><time>2026-04-25T09:12:53.553Z</time></trkpt><trkpt lat="43.3021964" lon="13.1399913"><ele>517.0</ele><time>2026-04-25T09:12:54.554Z</time></trkpt><trkpt lat="43.3020524" lon="13.1400674"><ele>513.25</ele><time>2026-04-25T09:12:55.558Z</time></trkpt><trkpt lat="43.3019239" lon="13.140152"><ele>509.5</ele><time>2026-04-25T09:12:56.557Z</time></trkpt><trkpt lat="43.3018121" lon="13.1402603"><ele>505.75</ele><time>2026-04-25T09:12:57.563Z</time></trkpt><trkpt lat="43.3017335" lon="13.1403383"><ele>502.0</ele><time>2026-04-25T09:12:58.551Z</time></trkpt><trkpt lat="43.3016831" lon="13.1404336"><ele>502.0</ele><time>2026-04-25T09:12:59.558Z</time></trkpt><trkpt lat="43.3016176" lon="13.1405361"><ele>502.00000000000006</ele><time>2026-04-25T09:13:00.556Z</time></trkpt><trkpt lat="43.3015725" lon="13.1406595"><ele>502.00000000000006</ele><time>2026-04-25T09:13:01.55Z</time></trkpt><trkpt lat="43.3015541" lon="13.1408129"><ele>502.0</ele><time>2026-04-25T09:13:02.554Z</time></trkpt><trkpt lat="43.3015326" lon="13.140976"><ele>502.0</ele><time>2026-04-25T09:13:03.546Z</time></trkpt><trkpt lat="43.3015069" lon="13.1411406"><ele>501.75</ele><time>2026-04-25T09:13:04.545Z</time></trkpt><trkpt lat="43.3014967" lon="13.1413326"><ele>501.5</ele><time>2026-04-25T09:13:05.554Z</time></trkpt><trkpt lat="43.3014948" lon="13.1415489"><ele>501.25</ele><time>2026-04-25T09:13:06.556Z</time></trkpt><trkpt lat="43.3014761" lon="13.1417542"><ele>501.0</ele><time>2026-04-25T09:13:07.561Z</time></trkpt><trkpt lat="43.3014613" lon="13.1419581"><ele>500.0</ele><time>2026-04-25T09:13:08.554Z</time></trkpt><trkpt lat="43.3014394" lon="13.1421767"><ele>499.0</ele><time>2026-04-25T09:13:09.559Z</time></trkpt><trkpt lat="43.3014211" lon="13.1423792"><ele>498.0</ele><time>2026-04-25T09:13:10.558Z</time></trkpt><trkpt lat="43.3014096" lon="13.1425907"><ele>494.5</ele><time>2026-04-25T09:13:11.559Z</time></trkpt><trkpt lat="43.3013944" lon="13.1427951"><ele>491.0</ele><time>2026-04-25T09:13:12.562Z</time></trkpt><trkpt lat="43.3013815" lon="13.1429879"><ele>487.5</ele><time>2026-04-25T09:13:13.56Z</time></trkpt><trkpt lat="43.3013595" lon="13.1431912"><ele>484.0</ele><time>2026-04-25T09:13:14.561Z</time></trkpt><trkpt lat="43.3013373" lon="13.143384"><ele>482.25</ele><time>2026-04-25T09:13:15.553Z</time></trkpt><trkpt lat="43.3013285" lon="13.1435804"><ele>480.5</ele><time>2026-04-25T09:13:16.562Z</time></trkpt><trkpt lat="43.3012952" lon="13.1437865"><ele>478.75</ele><time>2026-04-25T09:13:17.558Z</time></trkpt><trkpt lat="43.3012809" lon="13.1439697"><ele>477.0</ele><time>2026-04-25T09:13:18.555Z</time></trkpt><trkpt lat="43.3012683" lon="13.1441225"><ele>476.0</ele><time>2026-04-25T09:13:19.556Z</time></trkpt><trkpt lat="43.301258" lon="13.1442827"><ele>475.00000000000006</ele><time>2026-04-25T09:13:20.558Z</time></trkpt><trkpt lat="43.3012351" lon="13.1444168"><ele>474.00000000000006</ele><time>2026-04-25T09:13:21.56Z</time></trkpt><trkpt lat="43.3012207" lon="13.1445336"><ele>473.0</ele><time>2026-04-25T09:13:22.558Z</time></trkpt><trkpt lat="43.3012126" lon="13.1446354"><ele>472.0</ele><time>2026-04-25T09:13:23.56Z</time></trkpt><trkpt lat="43.3011749" lon="13.1447575"><ele>472.0</ele><time>2026-04-25T09:13:25.561Z</time></trkpt><trkpt lat="43.3011037" lon="13.1447189"><ele>472.00000000000006</ele><time>2026-04-25T09:13:28.562Z</time></trkpt><trkpt lat="43.301056" lon="13.1446367"><ele>472.00000000000006</ele><time>2026-04-25T09:13:29.555Z</time></trkpt><trkpt lat="43.3010175" lon="13.1445219"><ele>472.0</ele><time>2026-04-25T09:13:30.558Z</time></trkpt><trkpt lat="43.3009426" lon="13.1444004"><ele>472.0</ele><time>2026-04-25T09:13:31.561Z</time></trkpt><trkpt lat="43.3008572" lon="13.1442907"><ele>472.0</ele><time>2026-04-25T09:13:32.563Z</time></trkpt><trkpt lat="43.3007507" lon="13.1442128"><ele>472.0</ele><time>2026-04-25T09:13:33.557Z</time></trkpt><trkpt lat="43.3006209" lon="13.1441603"><ele>472.0</ele><time>2026-04-25T09:13:34.57Z</time></trkpt><trkpt lat="43.3004743" lon="13.1441769"><ele>472.0</ele><time>2026-04-25T09:13:35.563Z</time></trkpt><trkpt lat="43.3003213" lon="13.144241"><ele>471.33333333333337</ele><time>2026-04-25T09:13:36.565Z</time></trkpt><trkpt lat="43.3001645" lon="13.144312"><ele>470.66666666666663</ele><time>2026-04-25T09:13:37.554Z</time></trkpt><trkpt lat="43.2999939" lon="13.1444005"><ele>470.0</ele><time>2026-04-25T09:13:38.573Z</time></trkpt><trkpt lat="43.299824" lon="13.1444667"><ele>472.25</ele><time>2026-04-25T09:13:39.57Z</time></trkpt><trkpt lat="43.2996596" lon="13.1445043"><ele>474.5</ele><time>2026-04-25T09:13:40.569Z</time></trkpt><trkpt lat="43.2995245" lon="13.1445475"><ele>476.75</ele><time>2026-04-25T09:13:41.56Z</time></trkpt><trkpt lat="43.2994015" lon="13.1445605"><ele>479.0</ele><time>2026-04-25T09:13:42.562Z</time></trkpt><trkpt lat="43.2992558" lon="13.144517"><ele>479.0</ele><time>2026-04-25T09:13:43.564Z</time></trkpt><trkpt lat="43.2991197" lon="13.1444259"><ele>479.0</ele><time>2026-04-25T09:13:44.567Z</time></trkpt><trkpt lat="43.2989862" lon="13.1443191"><ele>479.0</ele><time>2026-04-25T09:13:45.565Z</time></trkpt><trkpt lat="43.2988396" lon="13.1441827"><ele>481.66666666666663</ele><time>2026-04-25T09:13:46.565Z</time></trkpt><trkpt lat="43.2986901" lon="13.1440312"><ele>484.33333333333337</ele><time>2026-04-25T09:13:47.563Z</time></trkpt><trkpt lat="43.298538" lon="13.1438893"><ele>487.0</ele><time>2026-04-25T09:13:48.562Z</time></trkpt><trkpt lat="43.2983841" lon="13.1437377"><ele>487.0</ele><time>2026-04-25T09:13:49.552Z</time></trkpt><trkpt lat="43.2982324" lon="13.1435911"><ele>487.0</ele><time>2026-04-25T09:13:50.572Z</time></trkpt><trkpt lat="43.2980562" lon="13.143434"><ele>487.0</ele><time>2026-04-25T09:13:51.569Z</time></trkpt><trkpt lat="43.2978796" lon="13.1432672"><ele>490.0</ele><time>2026-04-25T09:13:52.575Z</time></trkpt><trkpt lat="43.2977264" lon="13.1431418"><ele>493.0</ele><time>2026-04-25T09:13:53.563Z</time></trkpt><trkpt lat="43.2975824" lon="13.1430117"><ele>496.0</ele><time>2026-04-25T09:13:54.574Z</time></trkpt><trkpt lat="43.2974506" lon="13.1428886"><ele>496.0</ele><time>2026-04-25T09:13:55.567Z</time></trkpt><trkpt lat="43.2973398" lon="13.142788"><ele>496.0</ele><time>2026-04-25T09:13:56.567Z</time></trkpt><trkpt lat="43.2972089" lon="13.1426724"><ele>496.0</ele><time>2026-04-25T09:13:57.564Z</time></trkpt><trkpt lat="43.2971048" lon="13.1425875"><ele>496.0</ele><time>2026-04-25T09:13:58.572Z</time></trkpt><trkpt lat="43.2969875" lon="13.1425669"><ele>498.0</ele><time>2026-04-25T09:13:59.566Z</time></trkpt><trkpt lat="43.2968433" lon="13.1426016"><ele>500.0</ele><time>2026-04-25T09:14:00.565Z</time></trkpt><trkpt lat="43.2967051" lon="13.1426777"><ele>502.0</ele><time>2026-04-25T09:14:01.56Z</time></trkpt><trkpt lat="43.2965757" lon="13.142795"><ele>502.0</ele><time>2026-04-25T09:14:02.555Z</time></trkpt><trkpt lat="43.2964362" lon="13.1429358"><ele>502.0</ele><time>2026-04-25T09:14:03.556Z</time></trkpt><trkpt lat="43.2962869" lon="13.1430821"><ele>502.0</ele><time>2026-04-25T09:14:04.56Z</time></trkpt><trkpt lat="43.2961245" lon="13.143234"><ele>504.0</ele><time>2026-04-25T09:14:05.558Z</time></trkpt><trkpt lat="43.2959529" lon="13.143385"><ele>506.0</ele><time>2026-04-25T09:14:06.557Z</time></trkpt><trkpt lat="43.2957838" lon="13.1435437"><ele>508.0</ele><time>2026-04-25T09:14:07.557Z</time></trkpt><trkpt lat="43.295606" lon="13.1437013"><ele>510.6666666666667</ele><time>2026-04-25T09:14:08.552Z</time></trkpt><trkpt lat="43.2954643" lon="13.1438285"><ele>513.3333333333334</ele><time>2026-04-25T09:14:09.553Z</time></trkpt><trkpt lat="43.2953461" lon="13.1439429"><ele>516.0</ele><time>2026-04-25T09:14:10.559Z</time></trkpt><trkpt lat="43.295219" lon="13.1440598"><ele>516.0</ele><time>2026-04-25T09:14:11.552Z</time></trkpt><trkpt lat="43.2951128" lon="13.1441584"><ele>516.0</ele><time>2026-04-25T09:14:12.561Z</time></trkpt><trkpt lat="43.2950232" lon="13.1442758"><ele>516.0</ele><time>2026-04-25T09:14:13.554Z</time></trkpt><trkpt lat="43.2949729" lon="13.1444168"><ele>516.0</ele><time>2026-04-25T09:14:14.563Z</time></trkpt><trkpt lat="43.2949466" lon="13.1445747"><ele>516.0</ele><time>2026-04-25T09:14:15.557Z</time></trkpt><trkpt lat="43.2949695" lon="13.1447201"><ele>516.0</ele><time>2026-04-25T09:14:16.569Z</time></trkpt><trkpt lat="43.295016" lon="13.1448212"><ele>516.0</ele><time>2026-04-25T09:14:17.557Z</time></trkpt><trkpt lat="43.2951197" lon="13.144917"><ele>516.0</ele><time>2026-04-25T09:14:18.561Z</time></trkpt><trkpt lat="43.2952469" lon="13.1450066"><ele>518.0</ele><time>2026-04-25T09:14:19.555Z</time></trkpt><trkpt lat="43.2953629" lon="13.1451291"><ele>520.0</ele><time>2026-04-25T09:14:20.551Z</time></trkpt><trkpt lat="43.2954415" lon="13.1452501"><ele>522.0</ele><time>2026-04-25T09:14:21.542Z</time></trkpt><trkpt lat="43.2955105" lon="13.1453948"><ele>524.0</ele><time>2026-04-25T09:14:22.555Z</time></trkpt><trkpt lat="43.2955514" lon="13.1455369"><ele>524.0</ele><time>2026-04-25T09:14:23.554Z</time></trkpt><trkpt lat="43.2955695" lon="13.1457026"><ele>524.0</ele><time>2026-04-25T09:14:24.556Z</time></trkpt><trkpt lat="43.2955499" lon="13.1459138"><ele>524.0</ele><time>2026-04-25T09:14:25.551Z</time></trkpt><trkpt lat="43.2955259" lon="13.1461247"><ele>524.0</ele><time>2026-04-25T09:14:26.558Z</time></trkpt><trkpt lat="43.295503" lon="13.1463497"><ele>529.3333333333333</ele><time>2026-04-25T09:14:27.553Z</time></trkpt><trkpt lat="43.2954867" lon="13.146598"><ele>534.6666666666666</ele><time>2026-04-25T09:14:28.56Z</time></trkpt><trkpt lat="43.2954844" lon="13.1468538"><ele>540.0</ele><time>2026-04-25T09:14:29.559Z</time></trkpt><trkpt lat="43.2954541" lon="13.1470767"><ele>540.0</ele><time>2026-04-25T09:14:30.568Z</time></trkpt><trkpt lat="43.2954391" lon="13.1472721"><ele>540.0</ele><time>2026-04-25T09:14:31.551Z</time></trkpt><trkpt lat="43.2954057" lon="13.1474314"><ele>540.0</ele><time>2026-04-25T09:14:32.564Z</time></trkpt><trkpt lat="43.2953312" lon="13.1476021"><ele>540.0</ele><time>2026-04-25T09:14:33.555Z</time></trkpt><trkpt lat="43.2952497" lon="13.1477924"><ele>540.3333333333334</ele><time>2026-04-25T09:14:34.562Z</time></trkpt><trkpt lat="43.2951363" lon="13.1479642"><ele>540.6666666666667</ele><time>2026-04-25T09:14:35.554Z</time></trkpt><trkpt lat="43.2950121" lon="13.1481438"><ele>541.0</ele><time>2026-04-25T09:14:36.556Z</time></trkpt><trkpt lat="43.2949061" lon="13.148297"><ele>540.0</ele><time>2026-04-25T09:14:37.551Z</time></trkpt><trkpt lat="43.2948061" lon="13.1484351"><ele>539.0</ele><time>2026-04-25T09:14:38.558Z</time></trkpt><trkpt lat="43.2947216" lon="13.1485634"><ele>538.0</ele><time>2026-04-25T09:14:39.555Z</time></trkpt><trkpt lat="43.2946484" lon="13.1487178"><ele>537.0</ele><time>2026-04-25T09:14:40.553Z</time></trkpt><trkpt lat="43.294641" lon="13.1489064"><ele>531.6666666666666</ele><time>2026-04-25T09:14:41.563Z</time></trkpt><trkpt lat="43.294649" lon="13.1491738"><ele>526.3333333333333</ele><time>2026-04-25T09:14:42.546Z</time></trkpt><trkpt lat="43.2946798" lon="13.1494292"><ele>521.0</ele><time>2026-04-25T09:14:43.548Z</time></trkpt><trkpt lat="43.2947326" lon="13.1496665"><ele>526.6666666666666</ele><time>2026-04-25T09:14:44.548Z</time></trkpt><trkpt lat="43.2948433" lon="13.1499009"><ele>532.3333333333334</ele><time>2026-04-25T09:14:45.544Z</time></trkpt><trkpt lat="43.2948815" lon="13.1501929"><ele>538.0</ele><time>2026-04-25T09:14:46.553Z</time></trkpt><trkpt lat="43.2949387" lon="13.1504419"><ele>538.0</ele><time>2026-04-25T09:14:47.55Z</time></trkpt><trkpt lat="43.295005" lon="13.1506908"><ele>538.0</ele><time>2026-04-25T09:14:48.55Z</time></trkpt><trkpt lat="43.2950533" lon="13.1508915"><ele>538.0</ele><time>2026-04-25T09:14:49.553Z</time></trkpt><trkpt lat="43.2951352" lon="13.1510906"><ele>535.6666666666667</ele><time>2026-04-25T09:14:50.561Z</time></trkpt><trkpt lat="43.2952514" lon="13.1512623"><ele>533.3333333333334</ele><time>2026-04-25T09:14:51.554Z</time></trkpt><trkpt lat="43.2953993" lon="13.1514692"><ele>531.0</ele><time>2026-04-25T09:14:52.558Z</time></trkpt><trkpt lat="43.2955305" lon="13.1516872"><ele>536.0</ele><time>2026-04-25T09:14:53.562Z</time></trkpt><trkpt lat="43.2956373" lon="13.1518818"><ele>541.0</ele><time>2026-04-25T09:14:54.558Z</time></trkpt><trkpt lat="43.2957638" lon="13.1520499"><ele>546.0</ele><time>2026-04-25T09:14:55.564Z</time></trkpt><trkpt lat="43.2958639" lon="13.1521907"><ele>546.0</ele><time>2026-04-25T09:14:56.564Z</time></trkpt><trkpt lat="43.2959372" lon="13.1523367"><ele>546.0</ele><time>2026-04-25T09:14:57.569Z</time></trkpt><trkpt lat="43.2959705" lon="13.1524962"><ele>546.0</ele><time>2026-04-25T09:14:58.563Z</time></trkpt><trkpt lat="43.2959796" lon="13.1526651"><ele>546.0</ele><time>2026-04-25T09:14:59.562Z</time></trkpt><trkpt lat="43.2959405" lon="13.1528328"><ele>545.4</ele><time>2026-04-25T09:15:00.543Z</time></trkpt><trkpt lat="43.2958876" lon="13.1529863"><ele>544.8</ele><time>2026-04-25T09:15:01.58Z</time></trkpt><trkpt lat="43.2958394" lon="13.1531189"><ele>544.1999999999999</ele><time>2026-04-25T09:15:02.537Z</time></trkpt><trkpt lat="43.2957933" lon="13.1532353"><ele>543.6</ele><time>2026-04-25T09:15:03.539Z</time></trkpt><trkpt lat="43.2957423" lon="13.1533242"><ele>543.0</ele><time>2026-04-25T09:15:04.532Z</time></trkpt><trkpt lat="43.2956701" lon="13.1534239"><ele>543.0</ele><time>2026-04-25T09:15:05.531Z</time></trkpt><trkpt lat="43.2956158" lon="13.1535275"><ele>543.0</ele><time>2026-04-25T09:15:06.541Z</time></trkpt><trkpt lat="43.2955674" lon="13.1536247"><ele>543.0</ele><time>2026-04-25T09:15:07.534Z</time></trkpt><trkpt lat="43.295494" lon="13.1536947"><ele>543.0</ele><time>2026-04-25T09:15:08.538Z</time></trkpt><trkpt lat="43.2954352" lon="13.1538077"><ele>543.0</ele><time>2026-04-25T09:15:09.541Z</time></trkpt><trkpt lat="43.2953854" lon="13.1538852"><ele>543.0</ele><time>2026-04-25T09:15:10.542Z</time></trkpt><trkpt lat="43.2953241" lon="13.1539974"><ele>540.8333333333334</ele><time>2026-04-25T09:15:12.555Z</time></trkpt><trkpt lat="43.2954223" lon="13.1540481"><ele>538.6666666666666</ele><time>2026-04-25T09:15:24.551Z</time></trkpt><trkpt lat="43.2955051" lon="13.1540557"><ele>536.5</ele><time>2026-04-25T09:15:28.544Z</time></trkpt><trkpt lat="43.2955763" lon="13.1540462"><ele>534.3333333333333</ele><time>2026-04-25T09:15:31.557Z</time></trkpt><trkpt lat="43.295524" lon="13.1539803"><ele>532.1666666666666</ele><time>2026-04-25T09:15:34.554Z</time></trkpt><trkpt lat="43.2954629" lon="13.1538819"><ele>530.0</ele><time>2026-04-25T09:15:36.553Z</time></trkpt><trkpt lat="43.2954403" lon="13.1537431"><ele>529.1428571428571</ele><time>2026-04-25T09:15:38.556Z</time></trkpt><trkpt lat="43.2954745" lon="13.1536263"><ele>528.2857142857142</ele><time>2026-04-25T09:15:40.553Z</time></trkpt><trkpt lat="43.2954599" lon="13.1535235"><ele>527.4285714285714</ele><time>2026-04-25T09:15:44.541Z</time></trkpt><trkpt lat="43.2955241" lon="13.1535103"><ele>526.5714285714286</ele><time>2026-04-25T09:15:49.539Z</time></trkpt><trkpt lat="43.2955766" lon="13.1535612"><ele>525.7142857142858</ele><time>2026-04-25T09:15:55.547Z</time></trkpt><trkpt lat="43.2955882" lon="13.1534665"><ele>524.8571428571429</ele><time>2026-04-25T09:16:52.567Z</time></trkpt><trkpt lat="43.2956189" lon="13.1533835"><ele>524.0</ele><time>2026-04-25T09:17:43.56Z</time></trkpt><trkpt lat="43.2956515" lon="13.1532903"><ele>526.2857142857143</ele><time>2026-04-25T09:18:30.596Z</time></trkpt><trkpt lat="43.2956821" lon="13.1532075"><ele>528.5714285714287</ele><time>2026-04-25T09:19:11.585Z</time></trkpt><trkpt lat="43.2957091" lon="13.1531278"><ele>530.8571428571429</ele><time>2026-04-25T09:20:20.577Z</time></trkpt><trkpt lat="43.2957459" lon="13.1530554"><ele>533.1428571428571</ele><time>2026-04-25T09:20:26.584Z</time></trkpt><trkpt lat="43.2957796" lon="13.1529644"><ele>535.4285714285713</ele><time>2026-04-25T09:20:47.597Z</time></trkpt><trkpt lat="43.2958129" lon="13.1528744"><ele>537.7142857142857</ele><time>2026-04-25T09:21:59.574Z</time></trkpt><trkpt lat="43.2958479" lon="13.1527799"><ele>540.0</ele><time>2026-04-25T09:22:31.58Z</time></trkpt><trkpt lat="43.2958776" lon="13.1526998"><ele>540.0</ele><time>2026-04-25T09:22:55.604Z</time></trkpt><trkpt lat="43.2959167" lon="13.1525942"><ele>540.0</ele><time>2026-04-25T09:23:15.608Z</time></trkpt><trkpt lat="43.295952" lon="13.1524989"><ele>540.0</ele><time>2026-04-25T09:23:20.597Z</time></trkpt><trkpt lat="43.2959885" lon="13.1524166"><ele>540.0</ele><time>2026-04-25T09:23:24.588Z</time></trkpt><trkpt lat="43.2959524" lon="13.15258"><ele>540.0</ele><time>2026-04-25T09:23:35.582Z</time></trkpt><trkpt lat="43.2958662" lon="13.1527592"><ele>540.0</ele><time>2026-04-25T09:23:38.595Z</time></trkpt><trkpt lat="43.2958082" lon="13.152887"><ele>540.0</ele><time>2026-04-25T09:23:39.593Z</time></trkpt><trkpt lat="43.2957293" lon="13.1530455"><ele>540.0</ele><time>2026-04-25T09:23:40.596Z</time></trkpt><trkpt lat="43.2956624" lon="13.1532001"><ele>540.0</ele><time>2026-04-25T09:23:44.603Z</time></trkpt><trkpt lat="43.2956215" lon="13.1532836"><ele>537.7142857142857</ele><time>2026-04-25T09:23:48.608Z</time></trkpt><trkpt lat="43.2955831" lon="13.1533631"><ele>535.4285714285713</ele><time>2026-04-25T09:24:20.611Z</time></trkpt><trkpt lat="43.295546" lon="13.153434"><ele>533.1428571428571</ele><time>2026-04-25T09:25:11.617Z</time></trkpt><trkpt lat="43.2955062" lon="13.1535075"><ele>530.8571428571429</ele><time>2026-04-25T09:26:37.581Z</time></trkpt><trkpt lat="43.2954493" lon="13.1535447"><ele>528.5714285714287</ele><time>2026-04-25T09:27:30.616Z</time></trkpt><trkpt lat="43.295438" lon="13.1536402"><ele>526.2857142857143</ele><time>2026-04-25T09:27:37.589Z</time></trkpt><trkpt lat="43.2954058" lon="13.1537587"><ele>524.0</ele><time>2026-04-25T09:27:40.592Z</time></trkpt><trkpt lat="43.2954207" lon="13.1538619"><ele>524.0</ele><time>2026-04-25T09:27:42.623Z</time></trkpt><trkpt lat="43.295446" lon="13.1539573"><ele>524.0</ele><time>2026-04-25T09:27:44.607Z</time></trkpt><trkpt lat="43.295486" lon="13.154062"><ele>524.0</ele><time>2026-04-25T09:27:46.619Z</time></trkpt><trkpt lat="43.2955371" lon="13.1541349"><ele>524.0</ele><time>2026-04-25T09:27:48.63Z</time></trkpt><trkpt lat="43.2956132" lon="13.1542011"><ele>524.0</ele><time>2026-04-25T09:27:50.624Z</time></trkpt><trkpt lat="43.2956682" lon="13.1542434"><ele>524.0</ele><time>2026-04-25T09:27:51.623Z</time></trkpt><trkpt lat="43.295735" lon="13.154301"><ele>527.2</ele><time>2026-04-25T09:27:52.622Z</time></trkpt><trkpt lat="43.2958093" lon="13.1543545"><ele>530.4</ele><time>2026-04-25T09:27:53.627Z</time></trkpt><trkpt lat="43.2958917" lon="13.1544039"><ele>533.6</ele><time>2026-04-25T09:27:54.624Z</time></trkpt><trkpt lat="43.2959755" lon="13.1544746"><ele>536.8</ele><time>2026-04-25T09:27:55.631Z</time></trkpt><trkpt lat="43.296073" lon="13.154538"><ele>540.0</ele><time>2026-04-25T09:27:56.629Z</time></trkpt><trkpt lat="43.296164" lon="13.1546306"><ele>540.0</ele><time>2026-04-25T09:27:57.625Z</time></trkpt><trkpt lat="43.2962338" lon="13.1547438"><ele>540.0</ele><time>2026-04-25T09:27:58.624Z</time></trkpt><trkpt lat="43.2963028" lon="13.1548748"><ele>540.0</ele><time>2026-04-25T09:27:59.616Z</time></trkpt><trkpt lat="43.2963595" lon="13.1550321"><ele>540.0</ele><time>2026-04-25T09:28:00.62Z</time></trkpt><trkpt lat="43.2963977" lon="13.1552033"><ele>539.6666666666666</ele><time>2026-04-25T09:28:01.62Z</time></trkpt><trkpt lat="43.296423" lon="13.1554009"><ele>539.3333333333333</ele><time>2026-04-25T09:28:02.625Z</time></trkpt><trkpt lat="43.2964434" lon="13.1556075"><ele>539.0</ele><time>2026-04-25T09:28:03.624Z</time></trkpt><trkpt lat="43.2964616" lon="13.1558176"><ele>537.75</ele><time>2026-04-25T09:28:04.623Z</time></trkpt><trkpt lat="43.2964865" lon="13.1560267"><ele>536.5</ele><time>2026-04-25T09:28:05.621Z</time></trkpt><trkpt lat="43.2965024" lon="13.156232"><ele>535.25</ele><time>2026-04-25T09:28:06.627Z</time></trkpt><trkpt lat="43.2965178" lon="13.1564251"><ele>534.0</ele><time>2026-04-25T09:28:07.626Z</time></trkpt><trkpt lat="43.2965427" lon="13.156621"><ele>533.0</ele><time>2026-04-25T09:28:08.622Z</time></trkpt><trkpt lat="43.2965526" lon="13.156792"><ele>532.0</ele><time>2026-04-25T09:28:09.624Z</time></trkpt><trkpt lat="43.2965428" lon="13.1569707"><ele>531.0</ele><time>2026-04-25T09:28:10.624Z</time></trkpt><trkpt lat="43.2965147" lon="13.1571502"><ele>530.0</ele><time>2026-04-25T09:28:11.597Z</time></trkpt><trkpt lat="43.2964721" lon="13.1573505"><ele>523.6666666666666</ele><time>2026-04-25T09:28:12.61Z</time></trkpt><trkpt lat="43.2964146" lon="13.1575667"><ele>517.3333333333334</ele><time>2026-04-25T09:28:13.603Z</time></trkpt><trkpt lat="43.2963485" lon="13.1577501"><ele>511.0</ele><time>2026-04-25T09:28:14.606Z</time></trkpt><trkpt lat="43.2962818" lon="13.1579639"><ele>511.0</ele><time>2026-04-25T09:28:15.607Z</time></trkpt><trkpt lat="43.2961532" lon="13.1580843"><ele>511.0</ele><time>2026-04-25T09:28:16.608Z</time></trkpt><trkpt lat="43.2960889" lon="13.1582171"><ele>511.0</ele><time>2026-04-25T09:28:17.603Z</time></trkpt><trkpt lat="43.2960058" lon="13.1583944"><ele>511.0</ele><time>2026-04-25T09:28:18.607Z</time></trkpt><trkpt lat="43.2960028" lon="13.1585917"><ele>511.25</ele><time>2026-04-25T09:28:19.579Z</time></trkpt><trkpt lat="43.2960308" lon="13.1587238"><ele>511.5</ele><time>2026-04-25T09:28:20.586Z</time></trkpt><trkpt lat="43.2960234" lon="13.1589002"><ele>511.75</ele><time>2026-04-25T09:28:21.605Z</time></trkpt><trkpt lat="43.2960189" lon="13.1590829"><ele>512.0</ele><time>2026-04-25T09:28:22.58Z</time></trkpt><trkpt lat="43.2960432" lon="13.1594652"><ele>509.0</ele><time>2026-04-25T09:28:24.559Z</time></trkpt><trkpt lat="43.2959772" lon="13.1598979"><ele>506.0</ele><time>2026-04-25T09:28:26.565Z</time></trkpt><trkpt lat="43.2960828" lon="13.1601652"><ele>506.0</ele><time>2026-04-25T09:28:27.56Z</time></trkpt><trkpt lat="43.2961559" lon="13.1604099"><ele>506.0</ele><time>2026-04-25T09:28:28.562Z</time></trkpt><trkpt lat="43.2961618" lon="13.1605393"><ele>506.0</ele><time>2026-04-25T09:28:29.58Z</time></trkpt><trkpt lat="43.2960659" lon="13.1605276"><ele>506.0</ele><time>2026-04-25T09:28:30.568Z</time></trkpt><trkpt lat="43.2959569" lon="13.1605724"><ele>509.0</ele><time>2026-04-25T09:28:31.562Z</time></trkpt><trkpt lat="43.2958324" lon="13.1607704"><ele>512.0</ele><time>2026-04-25T09:28:32.565Z</time></trkpt><trkpt lat="43.2957294" lon="13.1609753"><ele>515.0</ele><time>2026-04-25T09:28:33.568Z</time></trkpt><trkpt lat="43.295645" lon="13.1611628"><ele>510.3333333333333</ele><time>2026-04-25T09:28:34.568Z</time></trkpt><trkpt lat="43.2955507" lon="13.1613233"><ele>505.66666666666663</ele><time>2026-04-25T09:28:35.565Z</time></trkpt><trkpt lat="43.2954552" lon="13.1615005"><ele>501.0</ele><time>2026-04-25T09:28:36.576Z</time></trkpt><trkpt lat="43.2953717" lon="13.1616782"><ele>501.0</ele><time>2026-04-25T09:28:37.578Z</time></trkpt><trkpt lat="43.2952505" lon="13.1618384"><ele>501.0</ele><time>2026-04-25T09:28:38.576Z</time></trkpt><trkpt lat="43.2951484" lon="13.1619837"><ele>501.0</ele><time>2026-04-25T09:28:39.574Z</time></trkpt><trkpt lat="43.2950402" lon="13.1621463"><ele>501.0</ele><time>2026-04-25T09:28:40.578Z</time></trkpt><trkpt lat="43.2949234" lon="13.1622875"><ele>501.0</ele><time>2026-04-25T09:28:41.579Z</time></trkpt><trkpt lat="43.294781" lon="13.162409"><ele>501.0</ele><time>2026-04-25T09:28:42.574Z</time></trkpt><trkpt lat="43.294603" lon="13.1624757"><ele>500.66666666666663</ele><time>2026-04-25T09:28:43.577Z</time></trkpt><trkpt lat="43.2944609" lon="13.1625331"><ele>500.3333333333333</ele><time>2026-04-25T09:28:44.579Z</time></trkpt><trkpt lat="43.2943095" lon="13.1625662"><ele>500.0</ele><time>2026-04-25T09:28:45.576Z</time></trkpt><trkpt lat="43.2941603" lon="13.1625992"><ele>500.0</ele><time>2026-04-25T09:28:46.573Z</time></trkpt><trkpt lat="43.2939965" lon="13.1626052"><ele>500.0</ele><time>2026-04-25T09:28:47.584Z</time></trkpt><trkpt lat="43.2938416" lon="13.1625914"><ele>500.0</ele><time>2026-04-25T09:28:48.575Z</time></trkpt><trkpt lat="43.2936943" lon="13.1625468"><ele>498.0</ele><time>2026-04-25T09:28:49.571Z</time></trkpt><trkpt lat="43.2935893" lon="13.1625042"><ele>496.0</ele><time>2026-04-25T09:28:50.575Z</time></trkpt><trkpt lat="43.2934592" lon="13.1625337"><ele>494.0</ele><time>2026-04-25T09:28:51.58Z</time></trkpt><trkpt lat="43.2933646" lon="13.1625799"><ele>492.0</ele><time>2026-04-25T09:28:52.572Z</time></trkpt><trkpt lat="43.2932555" lon="13.1626621"><ele>492.0</ele><time>2026-04-25T09:28:53.591Z</time></trkpt><trkpt lat="43.2931383" lon="13.1628105"><ele>492.0</ele><time>2026-04-25T09:28:54.583Z</time></trkpt><trkpt lat="43.2930357" lon="13.163019"><ele>492.0</ele><time>2026-04-25T09:28:55.58Z</time></trkpt><trkpt lat="43.2929515" lon="13.1632422"><ele>490.0</ele><time>2026-04-25T09:28:56.583Z</time></trkpt><trkpt lat="43.2928916" lon="13.1634804"><ele>488.0</ele><time>2026-04-25T09:28:57.582Z</time></trkpt><trkpt lat="43.2928276" lon="13.1636765"><ele>486.0</ele><time>2026-04-25T09:28:58.581Z</time></trkpt><trkpt lat="43.292744" lon="13.1639074"><ele>486.66666666666663</ele><time>2026-04-25T09:28:59.591Z</time></trkpt><trkpt lat="43.2926458" lon="13.1641194"><ele>487.3333333333333</ele><time>2026-04-25T09:29:00.593Z</time></trkpt><trkpt lat="43.2925518" lon="13.1643487"><ele>488.0</ele><time>2026-04-25T09:29:01.593Z</time></trkpt><trkpt lat="43.2924261" lon="13.1645655"><ele>488.0</ele><time>2026-04-25T09:29:02.582Z</time></trkpt><trkpt lat="43.2923146" lon="13.1647695"><ele>488.0</ele><time>2026-04-25T09:29:03.571Z</time></trkpt><trkpt lat="43.2921757" lon="13.16497"><ele>488.0</ele><time>2026-04-25T09:29:04.573Z</time></trkpt><trkpt lat="43.2920383" lon="13.1651956"><ele>487.66666666666663</ele><time>2026-04-25T09:29:05.579Z</time></trkpt><trkpt lat="43.2918934" lon="13.165389"><ele>487.33333333333337</ele><time>2026-04-25T09:29:06.576Z</time></trkpt><trkpt lat="43.291756" lon="13.1655595"><ele>487.0</ele><time>2026-04-25T09:29:07.58Z</time></trkpt><trkpt lat="43.2916245" lon="13.1657581"><ele>487.0</ele><time>2026-04-25T09:29:08.567Z</time></trkpt><trkpt lat="43.2914771" lon="13.1659356"><ele>487.0</ele><time>2026-04-25T09:29:09.567Z</time></trkpt><trkpt lat="43.2913302" lon="13.1661279"><ele>487.0</ele><time>2026-04-25T09:29:10.56Z</time></trkpt><trkpt lat="43.2911965" lon="13.1663214"><ele>485.0</ele><time>2026-04-25T09:29:11.583Z</time></trkpt><trkpt lat="43.2910695" lon="13.1665192"><ele>483.0</ele><time>2026-04-25T09:29:12.577Z</time></trkpt><trkpt lat="43.2909473" lon="13.1666593"><ele>481.0</ele><time>2026-04-25T09:29:13.579Z</time></trkpt><trkpt lat="43.2908386" lon="13.1667857"><ele>481.0</ele><time>2026-04-25T09:29:14.576Z</time></trkpt><trkpt lat="43.2907363" lon="13.1668798"><ele>481.0</ele><time>2026-04-25T09:29:15.58Z</time></trkpt><trkpt lat="43.2906044" lon="13.1669456"><ele>481.0</ele><time>2026-04-25T09:29:16.579Z</time></trkpt><trkpt lat="43.2904754" lon="13.1669782"><ele>481.0</ele><time>2026-04-25T09:29:17.579Z</time></trkpt><trkpt lat="43.2903539" lon="13.1670113"><ele>479.25</ele><time>2026-04-25T09:29:18.584Z</time></trkpt><trkpt lat="43.290244" lon="13.1670588"><ele>477.5</ele><time>2026-04-25T09:29:19.587Z</time></trkpt><trkpt lat="43.2901367" lon="13.167007"><ele>475.75</ele><time>2026-04-25T09:29:20.586Z</time></trkpt><trkpt lat="43.2900054" lon="13.1668459"><ele>474.0</ele><time>2026-04-25T09:29:21.581Z</time></trkpt><trkpt lat="43.2898686" lon="13.1667111"><ele>474.0</ele><time>2026-04-25T09:29:22.578Z</time></trkpt><trkpt lat="43.2897712" lon="13.1665354"><ele>474.0</ele><time>2026-04-25T09:29:23.582Z</time></trkpt><trkpt lat="43.2896823" lon="13.1664675"><ele>474.0</ele><time>2026-04-25T09:29:24.583Z</time></trkpt><trkpt lat="43.2895545" lon="13.1664748"><ele>474.0</ele><time>2026-04-25T09:29:25.585Z</time></trkpt><trkpt lat="43.2893847" lon="13.166542"><ele>473.0</ele><time>2026-04-25T09:29:26.578Z</time></trkpt><trkpt lat="43.289244" lon="13.1666202"><ele>472.0</ele><time>2026-04-25T09:29:27.584Z</time></trkpt><trkpt lat="43.2891333" lon="13.1667711"><ele>471.0</ele><time>2026-04-25T09:29:28.574Z</time></trkpt><trkpt lat="43.2890545" lon="13.1669614"><ele>471.0</ele><time>2026-04-25T09:29:29.575Z</time></trkpt><trkpt lat="43.2889513" lon="13.1671556"><ele>471.0</ele><time>2026-04-25T09:29:30.571Z</time></trkpt><trkpt lat="43.2888929" lon="13.1673497"><ele>471.0</ele><time>2026-04-25T09:29:31.57Z</time></trkpt><trkpt lat="43.2888441" lon="13.1675584"><ele>463.66666666666663</ele><time>2026-04-25T09:29:32.575Z</time></trkpt><trkpt lat="43.2888366" lon="13.1678261"><ele>456.3333333333333</ele><time>2026-04-25T09:29:33.572Z</time></trkpt><trkpt lat="43.2888375" lon="13.1680748"><ele>449.0</ele><time>2026-04-25T09:29:34.573Z</time></trkpt><trkpt lat="43.2888177" lon="13.1682971"><ele>449.0</ele><time>2026-04-25T09:29:35.578Z</time></trkpt><trkpt lat="43.2888137" lon="13.1685177"><ele>449.0</ele><time>2026-04-25T09:29:36.58Z</time></trkpt><trkpt lat="43.2888235" lon="13.1687052"><ele>449.0</ele><time>2026-04-25T09:29:37.581Z</time></trkpt><trkpt lat="43.2888712" lon="13.1688856"><ele>449.0</ele><time>2026-04-25T09:29:38.581Z</time></trkpt><trkpt lat="43.2889486" lon="13.1690653"><ele>454.3333333333333</ele><time>2026-04-25T09:29:39.583Z</time></trkpt><trkpt lat="43.2890612" lon="13.1692358"><ele>459.66666666666663</ele><time>2026-04-25T09:29:40.586Z</time></trkpt><trkpt lat="43.2891348" lon="13.1694134"><ele>465.0</ele><time>2026-04-25T09:29:41.584Z</time></trkpt><trkpt lat="43.2892275" lon="13.1695743"><ele>465.0</ele><time>2026-04-25T09:29:42.59Z</time></trkpt><trkpt lat="43.2893506" lon="13.1697318"><ele>465.0</ele><time>2026-04-25T09:29:43.583Z</time></trkpt><trkpt lat="43.2894748" lon="13.1698913"><ele>465.0</ele><time>2026-04-25T09:29:44.589Z</time></trkpt><trkpt lat="43.2895863" lon="13.1700519"><ele>463.33333333333337</ele><time>2026-04-25T09:29:45.59Z</time></trkpt><trkpt lat="43.2897465" lon="13.1701873"><ele>461.6666666666667</ele><time>2026-04-25T09:29:46.585Z</time></trkpt><trkpt lat="43.2898959" lon="13.1703196"><ele>460.0</ele><time>2026-04-25T09:29:47.593Z</time></trkpt><trkpt lat="43.2900613" lon="13.1704499"><ele>460.0</ele><time>2026-04-25T09:29:48.585Z</time></trkpt><trkpt lat="43.2902177" lon="13.1705359"><ele>460.0</ele><time>2026-04-25T09:29:49.593Z</time></trkpt><trkpt lat="43.2903762" lon="13.1705886"><ele>460.0</ele><time>2026-04-25T09:29:50.596Z</time></trkpt><trkpt lat="43.2905373" lon="13.1706039"><ele>460.6666666666667</ele><time>2026-04-25T09:29:51.6Z</time></trkpt><trkpt lat="43.2907026" lon="13.1706344"><ele>461.33333333333337</ele><time>2026-04-25T09:29:52.596Z</time></trkpt><trkpt lat="43.2908789" lon="13.1706366"><ele>462.0</ele><time>2026-04-25T09:29:53.596Z</time></trkpt><trkpt lat="43.2910514" lon="13.1706145"><ele>462.0</ele><time>2026-04-25T09:29:54.596Z</time></trkpt><trkpt lat="43.291237" lon="13.1705625"><ele>462.0</ele><time>2026-04-25T09:29:55.601Z</time></trkpt><trkpt lat="43.2914218" lon="13.1705487"><ele>462.0</ele><time>2026-04-25T09:29:56.601Z</time></trkpt><trkpt lat="43.2916209" lon="13.1705125"><ele>461.66666666666663</ele><time>2026-04-25T09:29:57.598Z</time></trkpt><trkpt lat="43.291819" lon="13.1704591"><ele>461.3333333333333</ele><time>2026-04-25T09:29:58.598Z</time></trkpt><trkpt lat="43.2920227" lon="13.1704273"><ele>461.0</ele><time>2026-04-25T09:29:59.601Z</time></trkpt><trkpt lat="43.2922158" lon="13.1703931"><ele>458.66666666666663</ele><time>2026-04-25T09:30:00.602Z</time></trkpt><trkpt lat="43.2923983" lon="13.1703511"><ele>456.33333333333337</ele><time>2026-04-25T09:30:01.603Z</time></trkpt><trkpt lat="43.2925773" lon="13.1703378"><ele>454.0</ele><time>2026-04-25T09:30:02.602Z</time></trkpt><trkpt lat="43.2927312" lon="13.1703116"><ele>454.0</ele><time>2026-04-25T09:30:03.583Z</time></trkpt><trkpt lat="43.2928648" lon="13.1702754"><ele>454.0</ele><time>2026-04-25T09:30:04.58Z</time></trkpt><trkpt lat="43.2929704" lon="13.1702621"><ele>454.0</ele><time>2026-04-25T09:30:05.581Z</time></trkpt><trkpt lat="43.2930384" lon="13.1702535"><ele>454.0</ele><time>2026-04-25T09:30:06.571Z</time></trkpt><trkpt lat="43.293103" lon="13.1702656"><ele>454.0</ele><time>2026-04-25T09:30:07.589Z</time></trkpt><trkpt lat="43.2931458" lon="13.1704256"><ele>454.0</ele><time>2026-04-25T09:30:09.585Z</time></trkpt><trkpt lat="43.2931262" lon="13.1705181"><ele>454.0</ele><time>2026-04-25T09:30:10.585Z</time></trkpt><trkpt lat="43.2930574" lon="13.1706119"><ele>454.0</ele><time>2026-04-25T09:30:11.59Z</time></trkpt><trkpt lat="43.2929554" lon="13.1707104"><ele>454.0</ele><time>2026-04-25T09:30:12.576Z</time></trkpt><trkpt lat="43.2928332" lon="13.1708049"><ele>454.0</ele><time>2026-04-25T09:30:13.58Z</time></trkpt><trkpt lat="43.2926882" lon="13.1708966"><ele>449.6666666666667</ele><time>2026-04-25T09:30:14.581Z</time></trkpt><trkpt lat="43.2925235" lon="13.1710135"><ele>445.33333333333337</ele><time>2026-04-25T09:30:15.589Z</time></trkpt><trkpt lat="43.2923475" lon="13.1711511"><ele>441.0</ele><time>2026-04-25T09:30:16.605Z</time></trkpt><trkpt lat="43.2921971" lon="13.1712784"><ele>441.0</ele><time>2026-04-25T09:30:17.594Z</time></trkpt><trkpt lat="43.2920465" lon="13.1714007"><ele>441.0</ele><time>2026-04-25T09:30:18.594Z</time></trkpt><trkpt lat="43.291912" lon="13.1715194"><ele>441.0</ele><time>2026-04-25T09:30:19.595Z</time></trkpt><trkpt lat="43.2917632" lon="13.1716247"><ele>438.5</ele><time>2026-04-25T09:30:20.598Z</time></trkpt><trkpt lat="43.2916589" lon="13.1717191"><ele>436.0</ele><time>2026-04-25T09:30:21.585Z</time></trkpt><trkpt lat="43.2915417" lon="13.1718408"><ele>433.5</ele><time>2026-04-25T09:30:22.591Z</time></trkpt><trkpt lat="43.2914313" lon="13.1720036"><ele>431.0</ele><time>2026-04-25T09:30:23.576Z</time></trkpt><trkpt lat="43.2913519" lon="13.1721615"><ele>427.3333333333333</ele><time>2026-04-25T09:30:24.581Z</time></trkpt><trkpt lat="43.2913042" lon="13.1723613"><ele>423.66666666666663</ele><time>2026-04-25T09:30:25.58Z</time></trkpt><trkpt lat="43.2912491" lon="13.172565"><ele>420.0</ele><time>2026-04-25T09:30:26.579Z</time></trkpt><trkpt lat="43.2912145" lon="13.1727843"><ele>420.0</ele><time>2026-04-25T09:30:27.588Z</time></trkpt><trkpt lat="43.29121" lon="13.173002"><ele>420.0</ele><time>2026-04-25T09:30:28.582Z</time></trkpt><trkpt lat="43.2912154" lon="13.173223"><ele>420.0</ele><time>2026-04-25T09:30:29.585Z</time></trkpt><trkpt lat="43.2912028" lon="13.1734598"><ele>416.66666666666663</ele><time>2026-04-25T09:30:30.581Z</time></trkpt><trkpt lat="43.2912036" lon="13.1737057"><ele>413.3333333333333</ele><time>2026-04-25T09:30:31.586Z</time></trkpt><trkpt lat="43.2911702" lon="13.173948"><ele>410.0</ele><time>2026-04-25T09:30:32.579Z</time></trkpt><trkpt lat="43.291142" lon="13.1741698"><ele>409.3333333333333</ele><time>2026-04-25T09:30:33.578Z</time></trkpt><trkpt lat="43.2911001" lon="13.1743814"><ele>408.66666666666663</ele><time>2026-04-25T09:30:34.585Z</time></trkpt><trkpt lat="43.2910262" lon="13.1746337"><ele>408.0</ele><time>2026-04-25T09:30:35.576Z</time></trkpt><trkpt lat="43.2909268" lon="13.1748317"><ele>408.33333333333337</ele><time>2026-04-25T09:30:36.583Z</time></trkpt><trkpt lat="43.2908382" lon="13.1750328"><ele>408.6666666666667</ele><time>2026-04-25T09:30:37.584Z</time></trkpt><trkpt lat="43.2907494" lon="13.1752128"><ele>409.0</ele><time>2026-04-25T09:30:38.591Z</time></trkpt><trkpt lat="43.2906565" lon="13.1753598"><ele>406.33333333333337</ele><time>2026-04-25T09:30:39.579Z</time></trkpt><trkpt lat="43.2905449" lon="13.1755021"><ele>403.66666666666663</ele><time>2026-04-25T09:30:40.579Z</time></trkpt><trkpt lat="43.2904037" lon="13.1756197"><ele>401.0</ele><time>2026-04-25T09:30:41.57Z</time></trkpt><trkpt lat="43.2902494" lon="13.1757224"><ele>401.0</ele><time>2026-04-25T09:30:42.578Z</time></trkpt><trkpt lat="43.2900771" lon="13.1758086"><ele>401.0</ele><time>2026-04-25T09:30:43.585Z</time></trkpt><trkpt lat="43.2899093" lon="13.1759056"><ele>401.0</ele><time>2026-04-25T09:30:44.579Z</time></trkpt><trkpt lat="43.289775" lon="13.1759931"><ele>395.3333333333333</ele><time>2026-04-25T09:30:45.578Z</time></trkpt><trkpt lat="43.2896329" lon="13.1760975"><ele>389.66666666666663</ele><time>2026-04-25T09:30:46.572Z</time></trkpt><trkpt lat="43.2894868" lon="13.1761766"><ele>384.0</ele><time>2026-04-25T09:30:47.585Z</time></trkpt><trkpt lat="43.2893318" lon="13.1762516"><ele>384.0</ele><time>2026-04-25T09:30:48.582Z</time></trkpt><trkpt lat="43.2891778" lon="13.1763233"><ele>384.0</ele><time>2026-04-25T09:30:49.581Z</time></trkpt><trkpt lat="43.2890074" lon="13.1763885"><ele>384.0</ele><time>2026-04-25T09:30:50.581Z</time></trkpt><trkpt lat="43.2888273" lon="13.1764276"><ele>381.3333333333333</ele><time>2026-04-25T09:30:51.585Z</time></trkpt><trkpt lat="43.2886531" lon="13.1764348"><ele>378.66666666666663</ele><time>2026-04-25T09:30:52.581Z</time></trkpt><trkpt lat="43.2884776" lon="13.1764386"><ele>376.0</ele><time>2026-04-25T09:30:53.578Z</time></trkpt><trkpt lat="43.2883036" lon="13.1764115"><ele>376.0</ele><time>2026-04-25T09:30:54.593Z</time></trkpt><trkpt lat="43.2881152" lon="13.1763884"><ele>376.0</ele><time>2026-04-25T09:30:55.593Z</time></trkpt><trkpt lat="43.2879487" lon="13.1762987"><ele>376.0</ele><time>2026-04-25T09:30:56.586Z</time></trkpt><trkpt lat="43.2877838" lon="13.1761694"><ele>374.0</ele><time>2026-04-25T09:30:57.573Z</time></trkpt><trkpt lat="43.2876149" lon="13.1761089"><ele>372.0</ele><time>2026-04-25T09:30:58.581Z</time></trkpt><trkpt lat="43.2874541" lon="13.1760634"><ele>370.0</ele><time>2026-04-25T09:30:59.575Z</time></trkpt><trkpt lat="43.2873147" lon="13.1760205"><ele>368.75</ele><time>2026-04-25T09:31:00.579Z</time></trkpt><trkpt lat="43.2871853" lon="13.1760021"><ele>367.5</ele><time>2026-04-25T09:31:01.577Z</time></trkpt><trkpt lat="43.2870495" lon="13.1760223"><ele>366.25</ele><time>2026-04-25T09:31:02.572Z</time></trkpt><trkpt lat="43.286925" lon="13.1761016"><ele>365.0</ele><time>2026-04-25T09:31:03.57Z</time></trkpt><trkpt lat="43.2867841" lon="13.1761602"><ele>365.0</ele><time>2026-04-25T09:31:04.571Z</time></trkpt><trkpt lat="43.2866483" lon="13.1761801"><ele>365.0</ele><time>2026-04-25T09:31:05.57Z</time></trkpt><trkpt lat="43.2864942" lon="13.1761494"><ele>365.0</ele><time>2026-04-25T09:31:06.582Z</time></trkpt><trkpt lat="43.2863604" lon="13.1760632"><ele>365.0</ele><time>2026-04-25T09:31:07.571Z</time></trkpt><trkpt lat="43.286254" lon="13.1759302"><ele>364.75</ele><time>2026-04-25T09:31:08.576Z</time></trkpt><trkpt lat="43.2861507" lon="13.1757773"><ele>364.5</ele><time>2026-04-25T09:31:09.567Z</time></trkpt><trkpt lat="43.2860384" lon="13.1756591"><ele>364.25</ele><time>2026-04-25T09:31:10.564Z</time></trkpt><trkpt lat="43.2859479" lon="13.1755383"><ele>364.0</ele><time>2026-04-25T09:31:11.574Z</time></trkpt><trkpt lat="43.2858559" lon="13.175497"><ele>362.75</ele><time>2026-04-25T09:31:12.57Z</time></trkpt><trkpt lat="43.2857307" lon="13.1755019"><ele>361.5</ele><time>2026-04-25T09:31:13.565Z</time></trkpt><trkpt lat="43.2855969" lon="13.1755559"><ele>360.25</ele><time>2026-04-25T09:31:14.574Z</time></trkpt><trkpt lat="43.285468" lon="13.1756205"><ele>359.0</ele><time>2026-04-25T09:31:15.574Z</time></trkpt><trkpt lat="43.2853193" lon="13.1756956"><ele>359.0</ele><time>2026-04-25T09:31:16.571Z</time></trkpt><trkpt lat="43.2851781" lon="13.1757474"><ele>359.0</ele><time>2026-04-25T09:31:17.571Z</time></trkpt><trkpt lat="43.2850227" lon="13.1757446"><ele>359.0</ele><time>2026-04-25T09:31:18.576Z</time></trkpt><trkpt lat="43.2848377" lon="13.1757045"><ele>354.0</ele><time>2026-04-25T09:31:19.576Z</time></trkpt><trkpt lat="43.2846736" lon="13.1756593"><ele>349.0</ele><time>2026-04-25T09:31:20.57Z</time></trkpt><trkpt lat="43.2845533" lon="13.1755834"><ele>344.0</ele><time>2026-04-25T09:31:21.57Z</time></trkpt><trkpt lat="43.2844388" lon="13.1754884"><ele>339.0</ele><time>2026-04-25T09:31:22.576Z</time></trkpt><trkpt lat="43.2843299" lon="13.1754428"><ele>339.0</ele><time>2026-04-25T09:31:23.576Z</time></trkpt><trkpt lat="43.2842255" lon="13.175455"><ele>339.0</ele><time>2026-04-25T09:31:24.576Z</time></trkpt><trkpt lat="43.2841316" lon="13.1755195"><ele>339.0</ele><time>2026-04-25T09:31:25.577Z</time></trkpt><trkpt lat="43.284079" lon="13.175654"><ele>339.0</ele><time>2026-04-25T09:31:26.565Z</time></trkpt><trkpt lat="43.2840368" lon="13.175819"><ele>339.0</ele><time>2026-04-25T09:31:27.566Z</time></trkpt><trkpt lat="43.2839997" lon="13.1760135"><ele>335.0</ele><time>2026-04-25T09:31:28.572Z</time></trkpt><trkpt lat="43.2839699" lon="13.1762529"><ele>331.0</ele><time>2026-04-25T09:31:29.566Z</time></trkpt><trkpt lat="43.2839449" lon="13.1765283"><ele>327.0</ele><time>2026-04-25T09:31:30.578Z</time></trkpt><trkpt lat="43.2839178" lon="13.1767861"><ele>327.0</ele><time>2026-04-25T09:31:31.571Z</time></trkpt><trkpt lat="43.2838921" lon="13.1771022"><ele>327.0</ele><time>2026-04-25T09:31:32.572Z</time></trkpt><trkpt lat="43.2838632" lon="13.1773919"><ele>327.0</ele><time>2026-04-25T09:31:33.567Z</time></trkpt><trkpt lat="43.2838428" lon="13.177677"><ele>326.3333333333333</ele><time>2026-04-25T09:31:34.573Z</time></trkpt><trkpt lat="43.2838134" lon="13.1779621"><ele>325.66666666666663</ele><time>2026-04-25T09:31:35.581Z</time></trkpt><trkpt lat="43.2837723" lon="13.1782237"><ele>325.0</ele><time>2026-04-25T09:31:36.582Z</time></trkpt><trkpt lat="43.2837403" lon="13.1784971"><ele>325.0</ele><time>2026-04-25T09:31:37.577Z</time></trkpt><trkpt lat="43.2837279" lon="13.1787859"><ele>325.0</ele><time>2026-04-25T09:31:38.576Z</time></trkpt><trkpt lat="43.2836957" lon="13.1790799"><ele>325.0</ele><time>2026-04-25T09:31:39.574Z</time></trkpt><trkpt lat="43.2836732" lon="13.1793478"><ele>324.66666666666663</ele><time>2026-04-25T09:31:40.579Z</time></trkpt><trkpt lat="43.2836265" lon="13.1796035"><ele>324.3333333333333</ele><time>2026-04-25T09:31:41.578Z</time></trkpt><trkpt lat="43.283619" lon="13.1798879"><ele>324.0</ele><time>2026-04-25T09:31:42.582Z</time></trkpt><trkpt lat="43.2835862" lon="13.1801571"><ele>324.0</ele><time>2026-04-25T09:31:43.576Z</time></trkpt><trkpt lat="43.2835531" lon="13.1803861"><ele>324.0</ele><time>2026-04-25T09:31:44.573Z</time></trkpt><trkpt lat="43.283515" lon="13.1806433"><ele>324.0</ele><time>2026-04-25T09:31:45.574Z</time></trkpt><trkpt lat="43.2834743" lon="13.1809018"><ele>323.3333333333333</ele><time>2026-04-25T09:31:46.583Z</time></trkpt><trkpt lat="43.2834461" lon="13.1811269"><ele>322.66666666666663</ele><time>2026-04-25T09:31:47.577Z</time></trkpt><trkpt lat="43.2834102" lon="13.1813535"><ele>322.0</ele><time>2026-04-25T09:31:48.582Z</time></trkpt><trkpt lat="43.2833941" lon="13.1815689"><ele>321.20000000000005</ele><time>2026-04-25T09:31:49.571Z</time></trkpt><trkpt lat="43.2833701" lon="13.1817779"><ele>320.40000000000003</ele><time>2026-04-25T09:31:50.569Z</time></trkpt><trkpt lat="43.2833564" lon="13.181916"><ele>319.6</ele><time>2026-04-25T09:31:51.57Z</time></trkpt><trkpt lat="43.2833406" lon="13.1820078"><ele>318.8</ele><time>2026-04-25T09:31:52.578Z</time></trkpt><trkpt lat="43.2833227" lon="13.1821071"><ele>318.0</ele><time>2026-04-25T09:31:53.58Z</time></trkpt><trkpt lat="43.283276" lon="13.1822321"><ele>318.0</ele><time>2026-04-25T09:31:55.576Z</time></trkpt><trkpt lat="43.2831969" lon="13.1823051"><ele>318.0</ele><time>2026-04-25T09:31:57.567Z</time></trkpt><trkpt lat="43.2831279" lon="13.1823509"><ele>318.0</ele><time>2026-04-25T09:31:58.574Z</time></trkpt><trkpt lat="43.2830368" lon="13.1823864"><ele>318.0</ele><time>2026-04-25T09:31:59.575Z</time></trkpt><trkpt lat="43.2829489" lon="13.1824376"><ele>318.0</ele><time>2026-04-25T09:32:00.579Z</time></trkpt><trkpt lat="43.2828438" lon="13.1824974"><ele>316.75</ele><time>2026-04-25T09:32:01.576Z</time></trkpt><trkpt lat="43.2827206" lon="13.1825617"><ele>315.5</ele><time>2026-04-25T09:32:02.582Z</time></trkpt><trkpt lat="43.2825958" lon="13.1826353"><ele>314.25</ele><time>2026-04-25T09:32:03.58Z</time></trkpt><trkpt lat="43.2824512" lon="13.182713"><ele>313.0</ele><time>2026-04-25T09:32:04.583Z</time></trkpt><trkpt lat="43.2822884" lon="13.1827829"><ele>310.0</ele><time>2026-04-25T09:32:05.586Z</time></trkpt><trkpt lat="43.2821529" lon="13.1828572"><ele>307.0</ele><time>2026-04-25T09:32:06.584Z</time></trkpt><trkpt lat="43.2820396" lon="13.1829181"><ele>304.0</ele><time>2026-04-25T09:32:07.577Z</time></trkpt><trkpt lat="43.2819179" lon="13.1829709"><ele>301.0</ele><time>2026-04-25T09:32:08.584Z</time></trkpt><trkpt lat="43.2818182" lon="13.1830561"><ele>301.0</ele><time>2026-04-25T09:32:09.573Z</time></trkpt><trkpt lat="43.2817321" lon="13.1831714"><ele>301.0</ele><time>2026-04-25T09:32:10.584Z</time></trkpt><trkpt lat="43.2816577" lon="13.1833231"><ele>301.0</ele><time>2026-04-25T09:32:11.58Z</time></trkpt><trkpt lat="43.2815972" lon="13.1835016"><ele>301.0</ele><time>2026-04-25T09:32:12.577Z</time></trkpt><trkpt lat="43.2815424" lon="13.1836875"><ele>301.5</ele><time>2026-04-25T09:32:13.575Z</time></trkpt><trkpt lat="43.2814781" lon="13.183913"><ele>302.0</ele><time>2026-04-25T09:32:14.584Z</time></trkpt><trkpt lat="43.281423" lon="13.1840851"><ele>302.5</ele><time>2026-04-25T09:32:15.58Z</time></trkpt><trkpt lat="43.2813653" lon="13.1842139"><ele>303.0</ele><time>2026-04-25T09:32:16.581Z</time></trkpt><trkpt lat="43.2812923" lon="13.184308"><ele>301.0</ele><time>2026-04-25T09:32:17.589Z</time></trkpt><trkpt lat="43.2811857" lon="13.1843783"><ele>299.0</ele><time>2026-04-25T09:32:18.583Z</time></trkpt><trkpt lat="43.2810523" lon="13.1844179"><ele>297.0</ele><time>2026-04-25T09:32:19.577Z</time></trkpt><trkpt lat="43.2809224" lon="13.1844309"><ele>295.0</ele><time>2026-04-25T09:32:20.574Z</time></trkpt><trkpt lat="43.2807942" lon="13.1844381"><ele>295.0</ele><time>2026-04-25T09:32:21.564Z</time></trkpt><trkpt lat="43.2806816" lon="13.1844237"><ele>295.0</ele><time>2026-04-25T09:32:22.57Z</time></trkpt><trkpt lat="43.28058" lon="13.1844344"><ele>295.0</ele><time>2026-04-25T09:32:23.567Z</time></trkpt><trkpt lat="43.2804814" lon="13.1844573"><ele>295.0</ele><time>2026-04-25T09:32:24.568Z</time></trkpt><trkpt lat="43.2803676" lon="13.1844984"><ele>295.0</ele><time>2026-04-25T09:32:25.58Z</time></trkpt><trkpt lat="43.2802568" lon="13.1845671"><ele>294.0</ele><time>2026-04-25T09:32:26.579Z</time></trkpt><trkpt lat="43.2801603" lon="13.1846468"><ele>293.0</ele><time>2026-04-25T09:32:27.565Z</time></trkpt><trkpt lat="43.2800753" lon="13.1847443"><ele>292.0</ele><time>2026-04-25T09:32:28.572Z</time></trkpt><trkpt lat="43.2800178" lon="13.1848523"><ele>291.0</ele><time>2026-04-25T09:32:29.57Z</time></trkpt><trkpt lat="43.280022" lon="13.1849812"><ele>290.0</ele><time>2026-04-25T09:32:30.572Z</time></trkpt><trkpt lat="43.2800577" lon="13.1851176"><ele>289.8</ele><time>2026-04-25T09:32:31.567Z</time></trkpt><trkpt lat="43.2801133" lon="13.1852465"><ele>289.6</ele><time>2026-04-25T09:32:32.581Z</time></trkpt><trkpt lat="43.2801404" lon="13.1853456"><ele>289.4</ele><time>2026-04-25T09:32:33.577Z</time></trkpt><trkpt lat="43.2800296" lon="13.1853884"><ele>289.2</ele><time>2026-04-25T09:32:36.584Z</time></trkpt><trkpt lat="43.2799457" lon="13.1853085"><ele>289.0</ele><time>2026-04-25T09:32:37.578Z</time></trkpt><trkpt lat="43.2798841" lon="13.1852246"><ele>289.0</ele><time>2026-04-25T09:32:38.58Z</time></trkpt><trkpt lat="43.2798784" lon="13.1851094"><ele>289.0</ele><time>2026-04-25T09:32:39.557Z</time></trkpt><trkpt lat="43.279875" lon="13.1849591"><ele>289.0</ele><time>2026-04-25T09:32:40.564Z</time></trkpt><trkpt lat="43.2798502" lon="13.1848233"><ele>289.0</ele><time>2026-04-25T09:32:41.554Z</time></trkpt><trkpt lat="43.2797879" lon="13.1847259"><ele>289.0</ele><time>2026-04-25T09:32:42.551Z</time></trkpt><trkpt lat="43.2796847" lon="13.1846557"><ele>292.25</ele><time>2026-04-25T09:32:43.567Z</time></trkpt><trkpt lat="43.2795694" lon="13.1846043"><ele>295.5</ele><time>2026-04-25T09:32:44.571Z</time></trkpt><trkpt lat="43.2794443" lon="13.1845518"><ele>298.75</ele><time>2026-04-25T09:32:45.574Z</time></trkpt><trkpt lat="43.2793204" lon="13.1845082"><ele>302.0</ele><time>2026-04-25T09:32:46.576Z</time></trkpt><trkpt lat="43.2792054" lon="13.1844886"><ele>302.0</ele><time>2026-04-25T09:32:47.574Z</time></trkpt><trkpt lat="43.2790901" lon="13.1845268"><ele>302.0</ele><time>2026-04-25T09:32:48.569Z</time></trkpt><trkpt lat="43.278973" lon="13.1845852"><ele>302.0</ele><time>2026-04-25T09:32:49.561Z</time></trkpt><trkpt lat="43.2788468" lon="13.1846541"><ele>302.0</ele><time>2026-04-25T09:32:50.569Z</time></trkpt><trkpt lat="43.2787083" lon="13.1847219"><ele>300.5</ele><time>2026-04-25T09:32:51.565Z</time></trkpt><trkpt lat="43.2785652" lon="13.1847975"><ele>299.0</ele><time>2026-04-25T09:32:52.565Z</time></trkpt><trkpt lat="43.2784094" lon="13.1848637"><ele>297.5</ele><time>2026-04-25T09:32:53.561Z</time></trkpt><trkpt lat="43.2783087" lon="13.1849117"><ele>296.0</ele><time>2026-04-25T09:32:54.561Z</time></trkpt><trkpt lat="43.2781937" lon="13.1849843"><ele>297.5</ele><time>2026-04-25T09:32:55.56Z</time></trkpt><trkpt lat="43.278057" lon="13.1849859"><ele>299.0</ele><time>2026-04-25T09:32:56.564Z</time></trkpt><trkpt lat="43.2779002" lon="13.1849853"><ele>300.5</ele><time>2026-04-25T09:32:57.559Z</time></trkpt><trkpt lat="43.2777511" lon="13.1849906"><ele>302.0</ele><time>2026-04-25T09:32:58.569Z</time></trkpt><trkpt lat="43.2775985" lon="13.1849709"><ele>302.0</ele><time>2026-04-25T09:32:59.569Z</time></trkpt><trkpt lat="43.2774759" lon="13.1849712"><ele>302.0</ele><time>2026-04-25T09:33:00.567Z</time></trkpt><trkpt lat="43.2773529" lon="13.1849672"><ele>302.0</ele><time>2026-04-25T09:33:01.57Z</time></trkpt><trkpt lat="43.2772217" lon="13.1849287"><ele>302.0</ele><time>2026-04-25T09:33:02.571Z</time></trkpt><trkpt lat="43.2770892" lon="13.1849354"><ele>300.5</ele><time>2026-04-25T09:33:03.579Z</time></trkpt><trkpt lat="43.2769471" lon="13.1849072"><ele>299.0</ele><time>2026-04-25T09:33:04.58Z</time></trkpt><trkpt lat="43.2768097" lon="13.1848496"><ele>297.5</ele><time>2026-04-25T09:33:05.578Z</time></trkpt><trkpt lat="43.2766678" lon="13.1847935"><ele>296.0</ele><time>2026-04-25T09:33:06.58Z</time></trkpt><trkpt lat="43.2765393" lon="13.1847427"><ele>298.5</ele><time>2026-04-25T09:33:07.581Z</time></trkpt><trkpt lat="43.2764039" lon="13.1846823"><ele>301.0</ele><time>2026-04-25T09:33:08.587Z</time></trkpt><trkpt lat="43.2762786" lon="13.1846157"><ele>303.5</ele><time>2026-04-25T09:33:09.575Z</time></trkpt><trkpt lat="43.2761564" lon="13.1845593"><ele>306.0</ele><time>2026-04-25T09:33:10.578Z</time></trkpt><trkpt lat="43.2760561" lon="13.1845048"><ele>306.0</ele><time>2026-04-25T09:33:11.572Z</time></trkpt><trkpt lat="43.2759265" lon="13.1844843"><ele>306.0</ele><time>2026-04-25T09:33:12.575Z</time></trkpt><trkpt lat="43.275799" lon="13.1844981"><ele>306.0</ele><time>2026-04-25T09:33:13.566Z</time></trkpt><trkpt lat="43.2756865" lon="13.1845291"><ele>306.0</ele><time>2026-04-25T09:33:14.569Z</time></trkpt><trkpt lat="43.2755831" lon="13.1845811"><ele>305.5</ele><time>2026-04-25T09:33:15.566Z</time></trkpt><trkpt lat="43.2754937" lon="13.1846558"><ele>305.0</ele><time>2026-04-25T09:33:16.57Z</time></trkpt><trkpt lat="43.2753967" lon="13.1847539"><ele>304.5</ele><time>2026-04-25T09:33:17.578Z</time></trkpt><trkpt lat="43.275274" lon="13.1848704"><ele>304.0</ele><time>2026-04-25T09:33:18.567Z</time></trkpt><trkpt lat="43.275146" lon="13.184976"><ele>304.0</ele><time>2026-04-25T09:33:19.573Z</time></trkpt><trkpt lat="43.2750027" lon="13.1850834"><ele>304.0</ele><time>2026-04-25T09:33:20.572Z</time></trkpt><trkpt lat="43.2748787" lon="13.1852105"><ele>304.0</ele><time>2026-04-25T09:33:21.57Z</time></trkpt><trkpt lat="43.274753" lon="13.1853498"><ele>304.0</ele><time>2026-04-25T09:33:22.571Z</time></trkpt><trkpt lat="43.2746421" lon="13.1854493"><ele>304.0</ele><time>2026-04-25T09:33:23.574Z</time></trkpt><trkpt lat="43.2744976" lon="13.1855621"><ele>304.0</ele><time>2026-04-25T09:33:24.58Z</time></trkpt><trkpt lat="43.2743582" lon="13.1856873"><ele>302.0</ele><time>2026-04-25T09:33:25.571Z</time></trkpt><trkpt lat="43.2742097" lon="13.1857565"><ele>300.0</ele><time>2026-04-25T09:33:26.577Z</time></trkpt><trkpt lat="43.274084" lon="13.1858764"><ele>298.0</ele><time>2026-04-25T09:33:27.583Z</time></trkpt><trkpt lat="43.2739533" lon="13.1859929"><ele>302.3333333333333</ele><time>2026-04-25T09:33:28.572Z</time></trkpt><trkpt lat="43.2738156" lon="13.1861426"><ele>306.6666666666667</ele><time>2026-04-25T09:33:29.578Z</time></trkpt><trkpt lat="43.273667" lon="13.1862611"><ele>311.0</ele><time>2026-04-25T09:33:30.58Z</time></trkpt><trkpt lat="43.2735512" lon="13.1863476"><ele>311.0</ele><time>2026-04-25T09:33:31.571Z</time></trkpt><trkpt lat="43.27341" lon="13.1864531"><ele>311.0</ele><time>2026-04-25T09:33:32.577Z</time></trkpt><trkpt lat="43.2732619" lon="13.1865473"><ele>311.0</ele><time>2026-04-25T09:33:33.573Z</time></trkpt><trkpt lat="43.2731384" lon="13.1866667"><ele>307.0</ele><time>2026-04-25T09:33:34.58Z</time></trkpt><trkpt lat="43.2729827" lon="13.1867955"><ele>303.0</ele><time>2026-04-25T09:33:35.581Z</time></trkpt><trkpt lat="43.2728305" lon="13.1869057"><ele>299.0</ele><time>2026-04-25T09:33:36.577Z</time></trkpt><trkpt lat="43.2727058" lon="13.187029"><ele>299.0</ele><time>2026-04-25T09:33:37.576Z</time></trkpt><trkpt lat="43.2725656" lon="13.1871349"><ele>299.0</ele><time>2026-04-25T09:33:38.587Z</time></trkpt><trkpt lat="43.2724432" lon="13.1872451"><ele>299.0</ele><time>2026-04-25T09:33:39.585Z</time></trkpt><trkpt lat="43.2722977" lon="13.1873294"><ele>296.6666666666667</ele><time>2026-04-25T09:33:40.583Z</time></trkpt><trkpt lat="43.272154" lon="13.1874271"><ele>294.3333333333333</ele><time>2026-04-25T09:33:41.583Z</time></trkpt><trkpt lat="43.272009" lon="13.1875014"><ele>292.0</ele><time>2026-04-25T09:33:42.574Z</time></trkpt><trkpt lat="43.2718244" lon="13.1875906"><ele>292.0</ele><time>2026-04-25T09:33:43.575Z</time></trkpt><trkpt lat="43.2716501" lon="13.187696"><ele>292.0</ele><time>2026-04-25T09:33:44.578Z</time></trkpt><trkpt lat="43.2714935" lon="13.1877853"><ele>292.0</ele><time>2026-04-25T09:33:45.58Z</time></trkpt><trkpt lat="43.2713303" lon="13.1878235"><ele>295.0</ele><time>2026-04-25T09:33:46.58Z</time></trkpt><trkpt lat="43.2711952" lon="13.1879036"><ele>298.0</ele><time>2026-04-25T09:33:47.575Z</time></trkpt><trkpt lat="43.2710597" lon="13.1879666"><ele>301.0</ele><time>2026-04-25T09:33:48.574Z</time></trkpt><trkpt lat="43.2709523" lon="13.1880549"><ele>304.0</ele><time>2026-04-25T09:33:49.572Z</time></trkpt><trkpt lat="43.2708405" lon="13.1881297"><ele>306.75</ele><time>2026-04-25T09:33:50.574Z</time></trkpt><trkpt lat="43.2707342" lon="13.1882462"><ele>309.5</ele><time>2026-04-25T09:33:51.568Z</time></trkpt><trkpt lat="43.2706534" lon="13.1883635"><ele>312.25</ele><time>2026-04-25T09:33:52.559Z</time></trkpt><trkpt lat="43.270569" lon="13.1885267"><ele>315.0</ele><time>2026-04-25T09:33:53.558Z</time></trkpt><trkpt lat="43.2705256" lon="13.1887001"><ele>315.0</ele><time>2026-04-25T09:33:54.56Z</time></trkpt><trkpt lat="43.270449" lon="13.1888497"><ele>315.0</ele><time>2026-04-25T09:33:55.56Z</time></trkpt><trkpt lat="43.2703133" lon="13.1889521"><ele>315.0</ele><time>2026-04-25T09:33:56.562Z</time></trkpt><trkpt lat="43.2701934" lon="13.1890573"><ele>315.0</ele><time>2026-04-25T09:33:57.56Z</time></trkpt><trkpt lat="43.270056" lon="13.1891711"><ele>312.6666666666667</ele><time>2026-04-25T09:33:58.566Z</time></trkpt><trkpt lat="43.2699302" lon="13.1893139"><ele>310.33333333333337</ele><time>2026-04-25T09:33:59.565Z</time></trkpt><trkpt lat="43.2697964" lon="13.189431"><ele>308.0</ele><time>2026-04-25T09:34:00.562Z</time></trkpt><trkpt lat="43.2696692" lon="13.1895435"><ele>308.0</ele><time>2026-04-25T09:34:01.564Z</time></trkpt><trkpt lat="43.2695372" lon="13.1896582"><ele>308.0</ele><time>2026-04-25T09:34:02.564Z</time></trkpt><trkpt lat="43.2693758" lon="13.1897534"><ele>308.0</ele><time>2026-04-25T09:34:03.561Z</time></trkpt><trkpt lat="43.2692382" lon="13.1898682"><ele>300.25</ele><time>2026-04-25T09:34:04.565Z</time></trkpt><trkpt lat="43.2691133" lon="13.1899458"><ele>292.5</ele><time>2026-04-25T09:34:05.558Z</time></trkpt><trkpt lat="43.2689723" lon="13.189958"><ele>284.75</ele><time>2026-04-25T09:34:06.564Z</time></trkpt><trkpt lat="43.2688277" lon="13.1899487"><ele>277.0</ele><time>2026-04-25T09:34:07.56Z</time></trkpt><trkpt lat="43.268689" lon="13.189919"><ele>276.66666666666663</ele><time>2026-04-25T09:34:08.555Z</time></trkpt><trkpt lat="43.2685414" lon="13.18988"><ele>276.3333333333333</ele><time>2026-04-25T09:34:09.562Z</time></trkpt><trkpt lat="43.2683664" lon="13.1898572"><ele>276.0</ele><time>2026-04-25T09:34:10.558Z</time></trkpt><trkpt lat="43.2682339" lon="13.1898191"><ele>279.0</ele><time>2026-04-25T09:34:11.567Z</time></trkpt><trkpt lat="43.2680957" lon="13.1897868"><ele>282.0</ele><time>2026-04-25T09:34:12.556Z</time></trkpt><trkpt lat="43.2679485" lon="13.1897871"><ele>285.0</ele><time>2026-04-25T09:34:13.564Z</time></trkpt><trkpt lat="43.2678192" lon="13.1898452"><ele>288.0</ele><time>2026-04-25T09:34:14.565Z</time></trkpt><trkpt lat="43.2676865" lon="13.1899506"><ele>288.0</ele><time>2026-04-25T09:34:15.56Z</time></trkpt><trkpt lat="43.2675806" lon="13.1900915"><ele>288.0</ele><time>2026-04-25T09:34:16.563Z</time></trkpt><trkpt lat="43.2675" lon="13.1902705"><ele>288.0</ele><time>2026-04-25T09:34:17.566Z</time></trkpt><trkpt lat="43.2673781" lon="13.1904209"><ele>289.3333333333333</ele><time>2026-04-25T09:34:18.563Z</time></trkpt><trkpt lat="43.2672554" lon="13.1905734"><ele>290.66666666666663</ele><time>2026-04-25T09:34:19.561Z</time></trkpt><trkpt lat="43.2671268" lon="13.190748"><ele>292.0</ele><time>2026-04-25T09:34:20.569Z</time></trkpt><trkpt lat="43.2669789" lon="13.1908625"><ele>286.66666666666663</ele><time>2026-04-25T09:34:21.567Z</time></trkpt><trkpt lat="43.2668256" lon="13.1909877"><ele>281.3333333333333</ele><time>2026-04-25T09:34:22.569Z</time></trkpt><trkpt lat="43.266687" lon="13.1911343"><ele>276.0</ele><time>2026-04-25T09:34:23.565Z</time></trkpt><trkpt lat="43.2665658" lon="13.1912655"><ele>275.0</ele><time>2026-04-25T09:34:24.568Z</time></trkpt><trkpt lat="43.2664165" lon="13.1913601"><ele>274.0</ele><time>2026-04-25T09:34:25.568Z</time></trkpt><trkpt lat="43.2662795" lon="13.1914888"><ele>273.0</ele><time>2026-04-25T09:34:26.577Z</time></trkpt><trkpt lat="43.2661513" lon="13.1915614"><ele>269.0</ele><time>2026-04-25T09:34:27.567Z</time></trkpt><trkpt lat="43.2660002" lon="13.1916309"><ele>265.0</ele><time>2026-04-25T09:34:28.573Z</time></trkpt><trkpt lat="43.2658617" lon="13.1917135"><ele>261.0</ele><time>2026-04-25T09:34:29.574Z</time></trkpt><trkpt lat="43.2657243" lon="13.191769"><ele>260.0</ele><time>2026-04-25T09:34:30.581Z</time></trkpt><trkpt lat="43.2655952" lon="13.1918351"><ele>259.0</ele><time>2026-04-25T09:34:31.582Z</time></trkpt><trkpt lat="43.265465" lon="13.1919183"><ele>258.0</ele><time>2026-04-25T09:34:32.578Z</time></trkpt><trkpt lat="43.2653281" lon="13.1919792"><ele>257.0</ele><time>2026-04-25T09:34:33.577Z</time></trkpt><trkpt lat="43.2651967" lon="13.1920528"><ele>257.0</ele><time>2026-04-25T09:34:34.578Z</time></trkpt><trkpt lat="43.2650701" lon="13.1921325"><ele>257.0</ele><time>2026-04-25T09:34:35.585Z</time></trkpt><trkpt lat="43.2649304" lon="13.1921711"><ele>257.0</ele><time>2026-04-25T09:34:36.588Z</time></trkpt><trkpt lat="43.2647956" lon="13.192244"><ele>257.0</ele><time>2026-04-25T09:34:37.581Z</time></trkpt><trkpt lat="43.2646705" lon="13.1923332"><ele>256.5</ele><time>2026-04-25T09:34:38.577Z</time></trkpt><trkpt lat="43.2645317" lon="13.1924157"><ele>256.0</ele><time>2026-04-25T09:34:39.573Z</time></trkpt><trkpt lat="43.2643844" lon="13.1925027"><ele>255.5</ele><time>2026-04-25T09:34:40.573Z</time></trkpt><trkpt lat="43.264273" lon="13.1926015"><ele>255.0</ele><time>2026-04-25T09:34:41.576Z</time></trkpt><trkpt lat="43.264166" lon="13.1927158"><ele>255.0</ele><time>2026-04-25T09:34:42.567Z</time></trkpt><trkpt lat="43.2640712" lon="13.1928225"><ele>255.0</ele><time>2026-04-25T09:34:43.57Z</time></trkpt><trkpt lat="43.2639581" lon="13.1929336"><ele>255.0</ele><time>2026-04-25T09:34:44.574Z</time></trkpt><trkpt lat="43.2638606" lon="13.1930474"><ele>255.0</ele><time>2026-04-25T09:34:45.572Z</time></trkpt><trkpt lat="43.2637188" lon="13.1931888"><ele>255.5</ele><time>2026-04-25T09:34:46.576Z</time></trkpt><trkpt lat="43.2636088" lon="13.1933169"><ele>256.0</ele><time>2026-04-25T09:34:47.575Z</time></trkpt><trkpt lat="43.2634728" lon="13.1934377"><ele>256.5</ele><time>2026-04-25T09:34:48.575Z</time></trkpt><trkpt lat="43.26335" lon="13.1935363"><ele>257.0</ele><time>2026-04-25T09:34:49.57Z</time></trkpt><trkpt lat="43.2632401" lon="13.1936192"><ele>257.0</ele><time>2026-04-25T09:34:50.57Z</time></trkpt><trkpt lat="43.2631397" lon="13.1936996"><ele>257.0</ele><time>2026-04-25T09:34:51.573Z</time></trkpt><trkpt lat="43.2630142" lon="13.1937626"><ele>257.0</ele><time>2026-04-25T09:34:52.569Z</time></trkpt><trkpt lat="43.262879" lon="13.1938006"><ele>257.0</ele><time>2026-04-25T09:34:53.58Z</time></trkpt><trkpt lat="43.2627289" lon="13.1937822"><ele>259.33333333333337</ele><time>2026-04-25T09:34:54.569Z</time></trkpt><trkpt lat="43.2625798" lon="13.1937613"><ele>261.6666666666667</ele><time>2026-04-25T09:34:55.579Z</time></trkpt><trkpt lat="43.262438" lon="13.1937927"><ele>264.0</ele><time>2026-04-25T09:34:56.567Z</time></trkpt><trkpt lat="43.2622775" lon="13.1938284"><ele>265.3333333333333</ele><time>2026-04-25T09:34:57.571Z</time></trkpt><trkpt lat="43.2621259" lon="13.1938604"><ele>266.66666666666663</ele><time>2026-04-25T09:34:58.565Z</time></trkpt><trkpt lat="43.2619655" lon="13.1939027"><ele>268.0</ele><time>2026-04-25T09:34:59.568Z</time></trkpt><trkpt lat="43.2618076" lon="13.1939356"><ele>264.66666666666663</ele><time>2026-04-25T09:35:00.565Z</time></trkpt><trkpt lat="43.2616688" lon="13.1940203"><ele>261.3333333333333</ele><time>2026-04-25T09:35:01.564Z</time></trkpt><trkpt lat="43.2615152" lon="13.194052"><ele>258.0</ele><time>2026-04-25T09:35:02.569Z</time></trkpt><trkpt lat="43.2613589" lon="13.1940682"><ele>258.0</ele><time>2026-04-25T09:35:03.566Z</time></trkpt><trkpt lat="43.2612293" lon="13.1940593"><ele>258.0</ele><time>2026-04-25T09:35:04.574Z</time></trkpt><trkpt lat="43.2610776" lon="13.1940969"><ele>258.0</ele><time>2026-04-25T09:35:05.581Z</time></trkpt><trkpt lat="43.2609236" lon="13.1941727"><ele>258.0</ele><time>2026-04-25T09:35:06.579Z</time></trkpt><trkpt lat="43.2607699" lon="13.1942339"><ele>258.0</ele><time>2026-04-25T09:35:07.581Z</time></trkpt><trkpt lat="43.2606279" lon="13.194302"><ele>258.0</ele><time>2026-04-25T09:35:08.585Z</time></trkpt><trkpt lat="43.260484" lon="13.1943964"><ele>258.0</ele><time>2026-04-25T09:35:09.58Z</time></trkpt><trkpt lat="43.2603341" lon="13.1944684"><ele>258.0</ele><time>2026-04-25T09:35:10.582Z</time></trkpt><trkpt lat="43.2601809" lon="13.1945276"><ele>258.0</ele><time>2026-04-25T09:35:11.581Z</time></trkpt><trkpt lat="43.2600476" lon="13.1946102"><ele>258.0</ele><time>2026-04-25T09:35:12.587Z</time></trkpt><trkpt lat="43.2599222" lon="13.1946672"><ele>258.0</ele><time>2026-04-25T09:35:13.582Z</time></trkpt><trkpt lat="43.2597808" lon="13.1947143"><ele>258.0</ele><time>2026-04-25T09:35:14.582Z</time></trkpt><trkpt lat="43.2596576" lon="13.1947683"><ele>258.0</ele><time>2026-04-25T09:35:15.58Z</time></trkpt><trkpt lat="43.2595113" lon="13.1947858"><ele>258.0</ele><time>2026-04-25T09:35:16.577Z</time></trkpt><trkpt lat="43.2593471" lon="13.1947788"><ele>258.0</ele><time>2026-04-25T09:35:17.579Z</time></trkpt><trkpt lat="43.2592029" lon="13.1947704"><ele>258.0</ele><time>2026-04-25T09:35:18.569Z</time></trkpt><trkpt lat="43.2590325" lon="13.1946952"><ele>258.0</ele><time>2026-04-25T09:35:19.58Z</time></trkpt><trkpt lat="43.2588782" lon="13.1946639"><ele>258.0</ele><time>2026-04-25T09:35:20.576Z</time></trkpt><trkpt lat="43.2587398" lon="13.1946567"><ele>258.75</ele><time>2026-04-25T09:35:21.581Z</time></trkpt><trkpt lat="43.2585818" lon="13.1946435"><ele>259.5</ele><time>2026-04-25T09:35:22.576Z</time></trkpt><trkpt lat="43.2584403" lon="13.1946345"><ele>260.25</ele><time>2026-04-25T09:35:23.576Z</time></trkpt><trkpt lat="43.2582938" lon="13.19463"><ele>261.0</ele><time>2026-04-25T09:35:24.574Z</time></trkpt><trkpt lat="43.2581388" lon="13.1946087"><ele>260.75</ele><time>2026-04-25T09:35:25.577Z</time></trkpt><trkpt lat="43.2580008" lon="13.1945917"><ele>260.5</ele><time>2026-04-25T09:35:26.569Z</time></trkpt><trkpt lat="43.257843" lon="13.1945669"><ele>260.25</ele><time>2026-04-25T09:35:27.572Z</time></trkpt><trkpt lat="43.2577192" lon="13.1945328"><ele>260.0</ele><time>2026-04-25T09:35:28.575Z</time></trkpt><trkpt lat="43.2575695" lon="13.1944939"><ele>260.0</ele><time>2026-04-25T09:35:29.579Z</time></trkpt><trkpt lat="43.2574249" lon="13.1944547"><ele>260.0</ele><time>2026-04-25T09:35:30.58Z</time></trkpt><trkpt lat="43.2572748" lon="13.1943958"><ele>260.0</ele><time>2026-04-25T09:35:31.583Z</time></trkpt><trkpt lat="43.2571083" lon="13.1943025"><ele>258.6666666666667</ele><time>2026-04-25T09:35:32.576Z</time></trkpt><trkpt lat="43.2569692" lon="13.194226"><ele>257.3333333333333</ele><time>2026-04-25T09:35:33.582Z</time></trkpt><trkpt lat="43.2568291" lon="13.1941468"><ele>256.0</ele><time>2026-04-25T09:35:34.584Z</time></trkpt><trkpt lat="43.2566891" lon="13.1940618"><ele>256.25</ele><time>2026-04-25T09:35:35.583Z</time></trkpt><trkpt lat="43.2565596" lon="13.193996"><ele>256.5</ele><time>2026-04-25T09:35:36.587Z</time></trkpt><trkpt lat="43.2564338" lon="13.1939137"><ele>256.75</ele><time>2026-04-25T09:35:37.578Z</time></trkpt><trkpt lat="43.2563069" lon="13.1938494"><ele>257.0</ele><time>2026-04-25T09:35:38.584Z</time></trkpt><trkpt lat="43.2561648" lon="13.1937863"><ele>257.0</ele><time>2026-04-25T09:35:39.58Z</time></trkpt><trkpt lat="43.2560234" lon="13.1937078"><ele>257.0</ele><time>2026-04-25T09:35:40.585Z</time></trkpt><trkpt lat="43.255864" lon="13.1936482"><ele>257.0</ele><time>2026-04-25T09:35:41.582Z</time></trkpt><trkpt lat="43.2557324" lon="13.1935655"><ele>257.0</ele><time>2026-04-25T09:35:42.589Z</time></trkpt><trkpt lat="43.255601" lon="13.1934932"><ele>257.0</ele><time>2026-04-25T09:35:43.582Z</time></trkpt><trkpt lat="43.2554617" lon="13.1934146"><ele>257.0</ele><time>2026-04-25T09:35:44.583Z</time></trkpt><trkpt lat="43.2553238" lon="13.1933405"><ele>257.0</ele><time>2026-04-25T09:35:45.579Z</time></trkpt><trkpt lat="43.2551743" lon="13.1932525"><ele>257.0</ele><time>2026-04-25T09:35:46.586Z</time></trkpt><trkpt lat="43.2550157" lon="13.1931566"><ele>257.0</ele><time>2026-04-25T09:35:47.582Z</time></trkpt><trkpt lat="43.2548594" lon="13.193063"><ele>257.0</ele><time>2026-04-25T09:35:48.585Z</time></trkpt><trkpt lat="43.2546813" lon="13.1929739"><ele>257.0</ele><time>2026-04-25T09:35:49.581Z</time></trkpt><trkpt lat="43.2545097" lon="13.1928909"><ele>257.0</ele><time>2026-04-25T09:35:50.587Z</time></trkpt><trkpt lat="43.2543448" lon="13.1928191"><ele>257.0</ele><time>2026-04-25T09:35:51.579Z</time></trkpt><trkpt lat="43.2541839" lon="13.1927414"><ele>257.0</ele><time>2026-04-25T09:35:52.576Z</time></trkpt><trkpt lat="43.2540346" lon="13.1926172"><ele>257.0</ele><time>2026-04-25T09:35:53.578Z</time></trkpt><trkpt lat="43.2538423" lon="13.1925263"><ele>257.0</ele><time>2026-04-25T09:35:54.579Z</time></trkpt><trkpt lat="43.2536374" lon="13.1924394"><ele>256.6666666666667</ele><time>2026-04-25T09:35:55.587Z</time></trkpt><trkpt lat="43.2534645" lon="13.1923495"><ele>256.3333333333333</ele><time>2026-04-25T09:35:56.584Z</time></trkpt><trkpt lat="43.2532958" lon="13.1922744"><ele>256.0</ele><time>2026-04-25T09:35:57.572Z</time></trkpt><trkpt lat="43.253115" lon="13.1921758"><ele>256.0</ele><time>2026-04-25T09:35:58.581Z</time></trkpt><trkpt lat="43.252954" lon="13.1920957"><ele>256.0</ele><time>2026-04-25T09:35:59.586Z</time></trkpt><trkpt lat="43.2527878" lon="13.1919988"><ele>256.0</ele><time>2026-04-25T09:36:00.585Z</time></trkpt><trkpt lat="43.252622" lon="13.1918978"><ele>256.0</ele><time>2026-04-25T09:36:01.578Z</time></trkpt><trkpt lat="43.252442" lon="13.1917973"><ele>256.0</ele><time>2026-04-25T09:36:02.58Z</time></trkpt><trkpt lat="43.2522551" lon="13.1917096"><ele>256.0</ele><time>2026-04-25T09:36:03.581Z</time></trkpt><trkpt lat="43.2520839" lon="13.1915912"><ele>256.0</ele><time>2026-04-25T09:36:04.578Z</time></trkpt><trkpt lat="43.2519125" lon="13.1915139"><ele>256.0</ele><time>2026-04-25T09:36:05.58Z</time></trkpt><trkpt lat="43.2517354" lon="13.1914282"><ele>256.0</ele><time>2026-04-25T09:36:06.578Z</time></trkpt><trkpt lat="43.2515695" lon="13.1913374"><ele>256.0</ele><time>2026-04-25T09:36:07.585Z</time></trkpt><trkpt lat="43.2513965" lon="13.191248"><ele>256.0</ele><time>2026-04-25T09:36:08.581Z</time></trkpt><trkpt lat="43.2512264" lon="13.1911705"><ele>256.0</ele><time>2026-04-25T09:36:09.582Z</time></trkpt><trkpt lat="43.2510525" lon="13.1910693"><ele>256.0</ele><time>2026-04-25T09:36:10.585Z</time></trkpt><trkpt lat="43.2508867" lon="13.1909762"><ele>256.0</ele><time>2026-04-25T09:36:11.581Z</time></trkpt><trkpt lat="43.2507065" lon="13.1908824"><ele>256.0</ele><time>2026-04-25T09:36:12.582Z</time></trkpt><trkpt lat="43.2505331" lon="13.1907912"><ele>255.33333333333331</ele><time>2026-04-25T09:36:13.583Z</time></trkpt><trkpt lat="43.2503639" lon="13.1907013"><ele>254.66666666666669</ele><time>2026-04-25T09:36:14.587Z</time></trkpt><trkpt lat="43.2501974" lon="13.1906049"><ele>254.0</ele><time>2026-04-25T09:36:15.585Z</time></trkpt><trkpt lat="43.2500171" lon="13.1905042"><ele>254.0</ele><time>2026-04-25T09:36:16.59Z</time></trkpt><trkpt lat="43.2498429" lon="13.1904211"><ele>254.0</ele><time>2026-04-25T09:36:17.583Z</time></trkpt><trkpt lat="43.2496683" lon="13.1903318"><ele>254.0</ele><time>2026-04-25T09:36:18.584Z</time></trkpt><trkpt lat="43.2494926" lon="13.1902372"><ele>254.0</ele><time>2026-04-25T09:36:19.581Z</time></trkpt><trkpt lat="43.2493107" lon="13.1901431"><ele>254.0</ele><time>2026-04-25T09:36:20.588Z</time></trkpt><trkpt lat="43.2491414" lon="13.1900465"><ele>254.0</ele><time>2026-04-25T09:36:21.582Z</time></trkpt><trkpt lat="43.248962" lon="13.1899659"><ele>254.0</ele><time>2026-04-25T09:36:22.582Z</time></trkpt><trkpt lat="43.2487802" lon="13.1898604"><ele>254.0</ele><time>2026-04-25T09:36:23.577Z</time></trkpt><trkpt lat="43.2486394" lon="13.1897645"><ele>254.0</ele><time>2026-04-25T09:36:24.578Z</time></trkpt><trkpt lat="43.2484507" lon="13.1896715"><ele>254.0</ele><time>2026-04-25T09:36:25.578Z</time></trkpt><trkpt lat="43.2482785" lon="13.1895818"><ele>254.0</ele><time>2026-04-25T09:36:26.573Z</time></trkpt><trkpt lat="43.2481024" lon="13.1894943"><ele>254.0</ele><time>2026-04-25T09:36:27.573Z</time></trkpt><trkpt lat="43.2479137" lon="13.1894002"><ele>254.66666666666669</ele><time>2026-04-25T09:36:28.575Z</time></trkpt><trkpt lat="43.247752" lon="13.1893138"><ele>255.33333333333331</ele><time>2026-04-25T09:36:29.584Z</time></trkpt><trkpt lat="43.2475714" lon="13.1892266"><ele>256.0</ele><time>2026-04-25T09:36:30.584Z</time></trkpt><trkpt lat="43.2474068" lon="13.189128"><ele>255.66666666666666</ele><time>2026-04-25T09:36:31.586Z</time></trkpt><trkpt lat="43.247228" lon="13.1890479"><ele>255.33333333333331</ele><time>2026-04-25T09:36:32.58Z</time></trkpt><trkpt lat="43.2470484" lon="13.1889435"><ele>255.0</ele><time>2026-04-25T09:36:33.581Z</time></trkpt><trkpt lat="43.2468731" lon="13.1888624"><ele>255.0</ele><time>2026-04-25T09:36:34.583Z</time></trkpt><trkpt lat="43.2466736" lon="13.1887533"><ele>255.0</ele><time>2026-04-25T09:36:35.582Z</time></trkpt><trkpt lat="43.2464893" lon="13.1886626"><ele>255.0</ele><time>2026-04-25T09:36:36.58Z</time></trkpt><trkpt lat="43.2463198" lon="13.1885662"><ele>256.0</ele><time>2026-04-25T09:36:37.574Z</time></trkpt><trkpt lat="43.2461261" lon="13.1884654"><ele>257.0</ele><time>2026-04-25T09:36:38.581Z</time></trkpt><trkpt lat="43.2459399" lon="13.188387"><ele>258.0</ele><time>2026-04-25T09:36:39.583Z</time></trkpt><trkpt lat="43.2457634" lon="13.188281"><ele>259.3333333333333</ele><time>2026-04-25T09:36:40.583Z</time></trkpt><trkpt lat="43.2455838" lon="13.1881805"><ele>260.66666666666663</ele><time>2026-04-25T09:36:41.588Z</time></trkpt><trkpt lat="43.2454092" lon="13.1880953"><ele>262.0</ele><time>2026-04-25T09:36:42.582Z</time></trkpt><trkpt lat="43.2452384" lon="13.1879957"><ele>263.0</ele><time>2026-04-25T09:36:43.583Z</time></trkpt><trkpt lat="43.2450662" lon="13.1879155"><ele>264.0</ele><time>2026-04-25T09:36:44.582Z</time></trkpt><trkpt lat="43.244879" lon="13.1878046"><ele>265.0</ele><time>2026-04-25T09:36:45.579Z</time></trkpt><trkpt lat="43.2447071" lon="13.1877203"><ele>265.0</ele><time>2026-04-25T09:36:46.583Z</time></trkpt><trkpt lat="43.2445456" lon="13.1876371"><ele>265.0</ele><time>2026-04-25T09:36:47.576Z</time></trkpt><trkpt lat="43.2443734" lon="13.1875443"><ele>265.0</ele><time>2026-04-25T09:36:48.578Z</time></trkpt><trkpt lat="43.2441864" lon="13.1874547"><ele>265.0</ele><time>2026-04-25T09:36:49.576Z</time></trkpt><trkpt lat="43.2440171" lon="13.1873796"><ele>265.0</ele><time>2026-04-25T09:36:50.582Z</time></trkpt><trkpt lat="43.2438508" lon="13.1872491"><ele>265.0</ele><time>2026-04-25T09:36:51.579Z</time></trkpt><trkpt lat="43.2437089" lon="13.1871929"><ele>266.0</ele><time>2026-04-25T09:36:52.584Z</time></trkpt><trkpt lat="43.2435706" lon="13.1871135"><ele>267.0</ele><time>2026-04-25T09:36:53.577Z</time></trkpt><trkpt lat="43.2434285" lon="13.1870206"><ele>268.0</ele><time>2026-04-25T09:36:54.58Z</time></trkpt><trkpt lat="43.2432666" lon="13.1869423"><ele>268.0</ele><time>2026-04-25T09:36:55.576Z</time></trkpt><trkpt lat="43.2431453" lon="13.1868958"><ele>268.0</ele><time>2026-04-25T09:36:56.585Z</time></trkpt><trkpt lat="43.2430295" lon="13.1868514"><ele>268.0</ele><time>2026-04-25T09:36:57.581Z</time></trkpt><trkpt lat="43.242897" lon="13.1867992"><ele>268.0</ele><time>2026-04-25T09:36:58.579Z</time></trkpt><trkpt lat="43.2427468" lon="13.1867771"><ele>268.0</ele><time>2026-04-25T09:36:59.577Z</time></trkpt><trkpt lat="43.2426126" lon="13.1867562"><ele>268.0</ele><time>2026-04-25T09:37:00.577Z</time></trkpt><trkpt lat="43.2424892" lon="13.1867928"><ele>268.0</ele><time>2026-04-25T09:37:01.573Z</time></trkpt><trkpt lat="43.2423496" lon="13.1868261"><ele>268.0</ele><time>2026-04-25T09:37:02.574Z</time></trkpt><trkpt lat="43.2422128" lon="13.1868637"><ele>268.0</ele><time>2026-04-25T09:37:03.577Z</time></trkpt><trkpt lat="43.2420653" lon="13.1868813"><ele>268.0</ele><time>2026-04-25T09:37:04.582Z</time></trkpt><trkpt lat="43.2419406" lon="13.1869142"><ele>268.0</ele><time>2026-04-25T09:37:05.581Z</time></trkpt><trkpt lat="43.2418064" lon="13.1869496"><ele>268.0</ele><time>2026-04-25T09:37:06.586Z</time></trkpt><trkpt lat="43.2416687" lon="13.1869761"><ele>268.0</ele><time>2026-04-25T09:37:07.582Z</time></trkpt><trkpt lat="43.2415185" lon="13.1870271"><ele>268.0</ele><time>2026-04-25T09:37:08.581Z</time></trkpt><trkpt lat="43.2413846" lon="13.1870701"><ele>268.0</ele><time>2026-04-25T09:37:09.577Z</time></trkpt><trkpt lat="43.2412403" lon="13.1871001"><ele>268.0</ele><time>2026-04-25T09:37:10.583Z</time></trkpt><trkpt lat="43.2410905" lon="13.1871308"><ele>267.66666666666663</ele><time>2026-04-25T09:37:11.581Z</time></trkpt><trkpt lat="43.2409329" lon="13.1871672"><ele>267.3333333333333</ele><time>2026-04-25T09:37:12.587Z</time></trkpt><trkpt lat="43.2407923" lon="13.1871905"><ele>267.0</ele><time>2026-04-25T09:37:13.58Z</time></trkpt><trkpt lat="43.2406461" lon="13.187245"><ele>265.0</ele><time>2026-04-25T09:37:14.581Z</time></trkpt><trkpt lat="43.2404921" lon="13.1872963"><ele>263.0</ele><time>2026-04-25T09:37:15.585Z</time></trkpt><trkpt lat="43.2403535" lon="13.1873703"><ele>261.0</ele><time>2026-04-25T09:37:16.585Z</time></trkpt><trkpt lat="43.2402073" lon="13.1874655"><ele>261.0</ele><time>2026-04-25T09:37:17.584Z</time></trkpt><trkpt lat="43.24006" lon="13.1875697"><ele>261.0</ele><time>2026-04-25T09:37:18.587Z</time></trkpt><trkpt lat="43.2399174" lon="13.1876889"><ele>261.0</ele><time>2026-04-25T09:37:19.577Z</time></trkpt><trkpt lat="43.2397819" lon="13.1878151"><ele>259.6666666666667</ele><time>2026-04-25T09:37:20.582Z</time></trkpt><trkpt lat="43.2396558" lon="13.1879587"><ele>258.33333333333337</ele><time>2026-04-25T09:37:21.583Z</time></trkpt><trkpt lat="43.2395229" lon="13.188112"><ele>257.0</ele><time>2026-04-25T09:37:22.589Z</time></trkpt><trkpt lat="43.2393947" lon="13.1882696"><ele>257.0</ele><time>2026-04-25T09:37:23.583Z</time></trkpt><trkpt lat="43.2392599" lon="13.1884178"><ele>257.0</ele><time>2026-04-25T09:37:24.587Z</time></trkpt><trkpt lat="43.239117" lon="13.1885639"><ele>257.0</ele><time>2026-04-25T09:37:25.585Z</time></trkpt><trkpt lat="43.2389857" lon="13.1887004"><ele>256.0</ele><time>2026-04-25T09:37:26.587Z</time></trkpt><trkpt lat="43.2388449" lon="13.1888287"><ele>255.0</ele><time>2026-04-25T09:37:27.581Z</time></trkpt><trkpt lat="43.2387122" lon="13.1889877"><ele>254.0</ele><time>2026-04-25T09:37:28.585Z</time></trkpt><trkpt lat="43.2385927" lon="13.1891158"><ele>254.0</ele><time>2026-04-25T09:37:29.583Z</time></trkpt><trkpt lat="43.2384992" lon="13.1892432"><ele>254.0</ele><time>2026-04-25T09:37:30.583Z</time></trkpt><trkpt lat="43.238389" lon="13.1893506"><ele>254.0</ele><time>2026-04-25T09:37:31.577Z</time></trkpt><trkpt lat="43.2382742" lon="13.1894367"><ele>254.0</ele><time>2026-04-25T09:37:32.576Z</time></trkpt><trkpt lat="43.2381609" lon="13.1895097"><ele>252.25</ele><time>2026-04-25T09:37:33.574Z</time></trkpt><trkpt lat="43.2380274" lon="13.1895628"><ele>250.5</ele><time>2026-04-25T09:37:34.58Z</time></trkpt><trkpt lat="43.2379152" lon="13.1895872"><ele>248.75</ele><time>2026-04-25T09:37:35.571Z</time></trkpt><trkpt lat="43.2377895" lon="13.1895951"><ele>247.0</ele><time>2026-04-25T09:37:36.571Z</time></trkpt><trkpt lat="43.2376679" lon="13.1895805"><ele>246.99999999999997</ele><time>2026-04-25T09:37:37.575Z</time></trkpt><trkpt lat="43.2375744" lon="13.1895665"><ele>247.0</ele><time>2026-04-25T09:37:38.58Z</time></trkpt><trkpt lat="43.2375092" lon="13.1895357"><ele>247.0</ele><time>2026-04-25T09:37:39.573Z</time></trkpt><trkpt lat="43.2374409" lon="13.1894893"><ele>247.0</ele><time>2026-04-25T09:37:40.573Z</time></trkpt><trkpt lat="43.2373775" lon="13.1893971"><ele>246.99999999999997</ele><time>2026-04-25T09:37:41.567Z</time></trkpt><trkpt lat="43.2373258" lon="13.1892742"><ele>247.0</ele><time>2026-04-25T09:37:42.571Z</time></trkpt><trkpt lat="43.2372881" lon="13.1891267"><ele>246.0</ele><time>2026-04-25T09:37:43.561Z</time></trkpt><trkpt lat="43.2372603" lon="13.1889558"><ele>245.0</ele><time>2026-04-25T09:37:44.573Z</time></trkpt><trkpt lat="43.2372172" lon="13.1887824"><ele>244.0</ele><time>2026-04-25T09:37:45.562Z</time></trkpt><trkpt lat="43.2371596" lon="13.1886071"><ele>243.0</ele><time>2026-04-25T09:37:46.576Z</time></trkpt><trkpt lat="43.237084" lon="13.1884188"><ele>243.0</ele><time>2026-04-25T09:37:47.57Z</time></trkpt><trkpt lat="43.2370065" lon="13.1882102"><ele>243.0</ele><time>2026-04-25T09:37:48.579Z</time></trkpt><trkpt lat="43.2369522" lon="13.1880176"><ele>243.0</ele><time>2026-04-25T09:37:49.582Z</time></trkpt><trkpt lat="43.2369013" lon="13.1878044"><ele>243.5</ele><time>2026-04-25T09:37:50.579Z</time></trkpt><trkpt lat="43.236859" lon="13.1876136"><ele>244.0</ele><time>2026-04-25T09:37:51.585Z</time></trkpt><trkpt lat="43.2368237" lon="13.187415"><ele>244.5</ele><time>2026-04-25T09:37:52.582Z</time></trkpt><trkpt lat="43.2367863" lon="13.1872138"><ele>245.0</ele><time>2026-04-25T09:37:53.585Z</time></trkpt><trkpt lat="43.2367491" lon="13.1870261"><ele>245.8</ele><time>2026-04-25T09:37:54.582Z</time></trkpt><trkpt lat="43.2367151" lon="13.1868523"><ele>246.6</ele><time>2026-04-25T09:37:55.578Z</time></trkpt><trkpt lat="43.2366874" lon="13.1867157"><ele>247.39999999999998</ele><time>2026-04-25T09:37:56.578Z</time></trkpt><trkpt lat="43.2366682" lon="13.1865885"><ele>248.2</ele><time>2026-04-25T09:37:57.579Z</time></trkpt><trkpt lat="43.2366554" lon="13.1865005"><ele>249.0</ele><time>2026-04-25T09:37:58.579Z</time></trkpt><trkpt lat="43.2366669" lon="13.1863964"><ele>249.39999999999998</ele><time>2026-04-25T09:38:00.58Z</time></trkpt><trkpt lat="43.2366468" lon="13.1862889"><ele>249.79999999999998</ele><time>2026-04-25T09:38:32.587Z</time></trkpt><trkpt lat="43.2366437" lon="13.1861774"><ele>250.20000000000002</ele><time>2026-04-25T09:38:35.587Z</time></trkpt><trkpt lat="43.2366079" lon="13.1860578"><ele>250.60000000000002</ele><time>2026-04-25T09:38:37.582Z</time></trkpt><trkpt lat="43.2365184" lon="13.1860153"><ele>251.0</ele><time>2026-04-25T09:38:39.585Z</time></trkpt><trkpt lat="43.2363959" lon="13.185996"><ele>249.20000000000002</ele><time>2026-04-25T09:38:41.583Z</time></trkpt><trkpt lat="43.2363031" lon="13.1859856"><ele>247.40000000000003</ele><time>2026-04-25T09:38:42.58Z</time></trkpt><trkpt lat="43.2362039" lon="13.1859655"><ele>245.6</ele><time>2026-04-25T09:38:43.584Z</time></trkpt><trkpt lat="43.2360951" lon="13.1859339"><ele>243.8</ele><time>2026-04-25T09:38:44.58Z</time></trkpt><trkpt lat="43.235978" lon="13.1859036"><ele>242.0</ele><time>2026-04-25T09:38:45.58Z</time></trkpt><trkpt lat="43.2358606" lon="13.1858934"><ele>242.0</ele><time>2026-04-25T09:38:46.587Z</time></trkpt><trkpt lat="43.2357464" lon="13.1858725"><ele>242.0</ele><time>2026-04-25T09:38:47.586Z</time></trkpt><trkpt lat="43.2356372" lon="13.1858591"><ele>242.0</ele><time>2026-04-25T09:38:48.586Z</time></trkpt><trkpt lat="43.2355317" lon="13.1858315"><ele>242.0</ele><time>2026-04-25T09:38:49.58Z</time></trkpt><trkpt lat="43.235408" lon="13.1858012"><ele>240.0</ele><time>2026-04-25T09:38:50.583Z</time></trkpt><trkpt lat="43.2352824" lon="13.1857738"><ele>238.0</ele><time>2026-04-25T09:38:51.585Z</time></trkpt><trkpt lat="43.2351571" lon="13.1857447"><ele>236.0</ele><time>2026-04-25T09:38:52.584Z</time></trkpt><trkpt lat="43.235032" lon="13.1857144"><ele>234.0</ele><time>2026-04-25T09:38:53.581Z</time></trkpt><trkpt lat="43.2349159" lon="13.185677"><ele>234.0</ele><time>2026-04-25T09:38:54.585Z</time></trkpt><trkpt lat="43.2348071" lon="13.1856562"><ele>234.0</ele><time>2026-04-25T09:38:55.588Z</time></trkpt><trkpt lat="43.2347064" lon="13.18563"><ele>234.0</ele><time>2026-04-25T09:38:56.578Z</time></trkpt><trkpt lat="43.2346177" lon="13.1856002"><ele>234.0</ele><time>2026-04-25T09:38:57.578Z</time></trkpt><trkpt lat="43.2345533" lon="13.1855687"><ele>234.0</ele><time>2026-04-25T09:38:58.577Z</time></trkpt><trkpt lat="43.234485" lon="13.1855202"><ele>234.0</ele><time>2026-04-25T09:39:00.586Z</time></trkpt><trkpt lat="43.2344397" lon="13.185417"><ele>234.0</ele><time>2026-04-25T09:39:02.578Z</time></trkpt><trkpt lat="43.2344113" lon="13.1853143"><ele>233.99999999999997</ele><time>2026-04-25T09:39:03.574Z</time></trkpt><trkpt lat="43.2343896" lon="13.1851809"><ele>233.99999999999997</ele><time>2026-04-25T09:39:04.578Z</time></trkpt><trkpt lat="43.2343685" lon="13.1850525"><ele>234.0</ele><time>2026-04-25T09:39:05.58Z</time></trkpt><trkpt lat="43.2343445" lon="13.1849045"><ele>234.0</ele><time>2026-04-25T09:39:06.579Z</time></trkpt><trkpt lat="43.2343231" lon="13.1847582"><ele>234.0</ele><time>2026-04-25T09:39:07.576Z</time></trkpt><trkpt lat="43.2343099" lon="13.1846104"><ele>233.99999999999997</ele><time>2026-04-25T09:39:08.581Z</time></trkpt><trkpt lat="43.2343095" lon="13.1844632"><ele>233.99999999999997</ele><time>2026-04-25T09:39:09.578Z</time></trkpt><trkpt lat="43.2343178" lon="13.1843192"><ele>234.0</ele><time>2026-04-25T09:39:10.582Z</time></trkpt><trkpt lat="43.2343425" lon="13.1841696"><ele>234.0</ele><time>2026-04-25T09:39:11.579Z</time></trkpt><trkpt lat="43.2343545" lon="13.1840056"><ele>235.0</ele><time>2026-04-25T09:39:12.582Z</time></trkpt><trkpt lat="43.234371" lon="13.1838397"><ele>236.0</ele><time>2026-04-25T09:39:13.581Z</time></trkpt><trkpt lat="43.2343865" lon="13.1836874"><ele>237.0</ele><time>2026-04-25T09:39:14.585Z</time></trkpt><trkpt lat="43.2343954" lon="13.1835415"><ele>238.0</ele><time>2026-04-25T09:39:15.581Z</time></trkpt><trkpt lat="43.234404" lon="13.183383"><ele>238.0</ele><time>2026-04-25T09:39:16.58Z</time></trkpt><trkpt lat="43.2344062" lon="13.183223"><ele>238.0</ele><time>2026-04-25T09:39:17.583Z</time></trkpt><trkpt lat="43.2344087" lon="13.1830649"><ele>238.0</ele><time>2026-04-25T09:39:18.577Z</time></trkpt><trkpt lat="43.2344074" lon="13.1828956"><ele>238.0</ele><time>2026-04-25T09:39:19.586Z</time></trkpt><trkpt lat="43.2343908" lon="13.1827173"><ele>238.25</ele><time>2026-04-25T09:39:20.578Z</time></trkpt><trkpt lat="43.2343748" lon="13.1825357"><ele>238.5</ele><time>2026-04-25T09:39:21.586Z</time></trkpt><trkpt lat="43.2343542" lon="13.1823463"><ele>238.75</ele><time>2026-04-25T09:39:22.568Z</time></trkpt><trkpt lat="43.2343311" lon="13.1821728"><ele>239.0</ele><time>2026-04-25T09:39:23.574Z</time></trkpt><trkpt lat="43.2343112" lon="13.1820144"><ele>239.25</ele><time>2026-04-25T09:39:24.581Z</time></trkpt><trkpt lat="43.2342826" lon="13.1818445"><ele>239.5</ele><time>2026-04-25T09:39:25.578Z</time></trkpt><trkpt lat="43.234236" lon="13.1816791"><ele>239.75</ele><time>2026-04-25T09:39:26.578Z</time></trkpt><trkpt lat="43.2341854" lon="13.1815188"><ele>240.0</ele><time>2026-04-25T09:39:27.573Z</time></trkpt><trkpt lat="43.2341415" lon="13.181363"><ele>241.4</ele><time>2026-04-25T09:39:28.577Z</time></trkpt><trkpt lat="43.2341141" lon="13.181209"><ele>242.8</ele><time>2026-04-25T09:39:29.577Z</time></trkpt><trkpt lat="43.2340898" lon="13.1810735"><ele>244.2</ele><time>2026-04-25T09:39:30.575Z</time></trkpt><trkpt lat="43.2340702" lon="13.1809487"><ele>245.6</ele><time>2026-04-25T09:39:31.577Z</time></trkpt><trkpt lat="43.2340441" lon="13.1808314"><ele>247.0</ele><time>2026-04-25T09:39:32.577Z</time></trkpt><trkpt lat="43.2340108" lon="13.1807122"><ele>245.25</ele><time>2026-04-25T09:39:33.578Z</time></trkpt><trkpt lat="43.233964" lon="13.1805747"><ele>243.5</ele><time>2026-04-25T09:39:34.573Z</time></trkpt><trkpt lat="43.233914" lon="13.1804187"><ele>241.75</ele><time>2026-04-25T09:39:35.575Z</time></trkpt><trkpt lat="43.2338638" lon="13.1802404"><ele>240.0</ele><time>2026-04-25T09:39:36.577Z</time></trkpt><trkpt lat="43.2338118" lon="13.1800603"><ele>240.0</ele><time>2026-04-25T09:39:37.578Z</time></trkpt><trkpt lat="43.233771" lon="13.1798646"><ele>240.0</ele><time>2026-04-25T09:39:38.572Z</time></trkpt><trkpt lat="43.2337388" lon="13.1796585"><ele>240.0</ele><time>2026-04-25T09:39:39.574Z</time></trkpt><trkpt lat="43.2337217" lon="13.1794539"><ele>240.5</ele><time>2026-04-25T09:39:40.575Z</time></trkpt><trkpt lat="43.2337073" lon="13.1792727"><ele>241.0</ele><time>2026-04-25T09:39:41.576Z</time></trkpt><trkpt lat="43.2337039" lon="13.1790974"><ele>241.5</ele><time>2026-04-25T09:39:42.581Z</time></trkpt><trkpt lat="43.2337098" lon="13.1789107"><ele>242.0</ele><time>2026-04-25T09:39:43.577Z</time></trkpt><trkpt lat="43.233719" lon="13.1787394"><ele>242.5</ele><time>2026-04-25T09:39:44.574Z</time></trkpt><trkpt lat="43.2337578" lon="13.1785565"><ele>243.0</ele><time>2026-04-25T09:39:45.576Z</time></trkpt><trkpt lat="43.2337898" lon="13.1783538"><ele>243.5</ele><time>2026-04-25T09:39:46.576Z</time></trkpt><trkpt lat="43.2338382" lon="13.1781765"><ele>244.0</ele><time>2026-04-25T09:39:47.573Z</time></trkpt><trkpt lat="43.2338944" lon="13.1779932"><ele>244.33333333333331</ele><time>2026-04-25T09:39:48.584Z</time></trkpt><trkpt lat="43.2339614" lon="13.177813"><ele>244.66666666666669</ele><time>2026-04-25T09:39:49.581Z</time></trkpt><trkpt lat="43.2340354" lon="13.17764"><ele>245.0</ele><time>2026-04-25T09:39:50.59Z</time></trkpt><trkpt lat="43.2341165" lon="13.1774296"><ele>250.66666666666669</ele><time>2026-04-25T09:39:51.582Z</time></trkpt><trkpt lat="43.2341793" lon="13.1772333"><ele>256.3333333333333</ele><time>2026-04-25T09:39:52.588Z</time></trkpt><trkpt lat="43.2342431" lon="13.1770349"><ele>262.0</ele><time>2026-04-25T09:39:53.58Z</time></trkpt><trkpt lat="43.2342968" lon="13.1768439"><ele>262.0</ele><time>2026-04-25T09:39:54.582Z</time></trkpt><trkpt lat="43.2343516" lon="13.1766565"><ele>262.0</ele><time>2026-04-25T09:39:55.583Z</time></trkpt><trkpt lat="43.2344156" lon="13.1765052"><ele>262.0</ele><time>2026-04-25T09:39:56.578Z</time></trkpt><trkpt lat="43.2344627" lon="13.1763616"><ele>262.0</ele><time>2026-04-25T09:39:57.587Z</time></trkpt><trkpt lat="43.2345159" lon="13.1762371"><ele>261.0</ele><time>2026-04-25T09:39:58.581Z</time></trkpt><trkpt lat="43.2345902" lon="13.1761186"><ele>260.0</ele><time>2026-04-25T09:39:59.586Z</time></trkpt><trkpt lat="43.2346946" lon="13.1760318"><ele>259.0</ele><time>2026-04-25T09:40:00.583Z</time></trkpt><trkpt lat="43.2348079" lon="13.1759399"><ele>258.0</ele><time>2026-04-25T09:40:01.585Z</time></trkpt><trkpt lat="43.2349301" lon="13.175855"><ele>262.3333333333333</ele><time>2026-04-25T09:40:02.588Z</time></trkpt><trkpt lat="43.2350679" lon="13.1757669"><ele>266.66666666666663</ele><time>2026-04-25T09:40:03.583Z</time></trkpt><trkpt lat="43.2352236" lon="13.1756741"><ele>271.0</ele><time>2026-04-25T09:40:04.588Z</time></trkpt><trkpt lat="43.2353672" lon="13.1755907"><ele>271.0</ele><time>2026-04-25T09:40:05.583Z</time></trkpt><trkpt lat="43.235508" lon="13.1755048"><ele>271.0</ele><time>2026-04-25T09:40:06.586Z</time></trkpt><trkpt lat="43.2356564" lon="13.1754257"><ele>271.0</ele><time>2026-04-25T09:40:07.581Z</time></trkpt><trkpt lat="43.2358125" lon="13.1753536"><ele>274.66666666666663</ele><time>2026-04-25T09:40:08.583Z</time></trkpt><trkpt lat="43.23596" lon="13.1752878"><ele>278.3333333333333</ele><time>2026-04-25T09:40:09.586Z</time></trkpt><trkpt lat="43.2360904" lon="13.1752183"><ele>282.0</ele><time>2026-04-25T09:40:10.589Z</time></trkpt><trkpt lat="43.2362443" lon="13.1751554"><ele>282.0</ele><time>2026-04-25T09:40:11.576Z</time></trkpt><trkpt lat="43.236385" lon="13.1750942"><ele>282.0</ele><time>2026-04-25T09:40:12.588Z</time></trkpt><trkpt lat="43.2365232" lon="13.1750269"><ele>282.0</ele><time>2026-04-25T09:40:13.591Z</time></trkpt><trkpt lat="43.2366586" lon="13.1749569"><ele>282.0</ele><time>2026-04-25T09:40:14.585Z</time></trkpt><trkpt lat="43.2367854" lon="13.1748898"><ele>283.6</ele><time>2026-04-25T09:40:15.588Z</time></trkpt><trkpt lat="43.2369086" lon="13.1748341"><ele>285.2</ele><time>2026-04-25T09:40:16.597Z</time></trkpt><trkpt lat="43.2369866" lon="13.1747597"><ele>286.8</ele><time>2026-04-25T09:40:17.596Z</time></trkpt><trkpt lat="43.2370434" lon="13.1746722"><ele>288.4</ele><time>2026-04-25T09:40:18.593Z</time></trkpt><trkpt lat="43.2370752" lon="13.1745834"><ele>290.0</ele><time>2026-04-25T09:40:19.583Z</time></trkpt><trkpt lat="43.2370669" lon="13.1744577"><ele>290.0</ele><time>2026-04-25T09:40:20.579Z</time></trkpt><trkpt lat="43.2370689" lon="13.1743348"><ele>290.0</ele><time>2026-04-25T09:40:21.593Z</time></trkpt><trkpt lat="43.2370464" lon="13.1741778"><ele>290.0</ele><time>2026-04-25T09:40:22.586Z</time></trkpt><trkpt lat="43.2370017" lon="13.1740516"><ele>290.0</ele><time>2026-04-25T09:40:23.58Z</time></trkpt><trkpt lat="43.2369372" lon="13.1739414"><ele>290.0</ele><time>2026-04-25T09:40:24.589Z</time></trkpt><trkpt lat="43.2368519" lon="13.1738484"><ele>291.25</ele><time>2026-04-25T09:40:25.586Z</time></trkpt><trkpt lat="43.2367232" lon="13.1737898"><ele>292.5</ele><time>2026-04-25T09:40:26.577Z</time></trkpt><trkpt lat="43.2365808" lon="13.1737406"><ele>293.75</ele><time>2026-04-25T09:40:27.573Z</time></trkpt><trkpt lat="43.2364206" lon="13.1737118"><ele>295.0</ele><time>2026-04-25T09:40:28.579Z</time></trkpt><trkpt lat="43.2362574" lon="13.1736862"><ele>295.0</ele><time>2026-04-25T09:40:29.583Z</time></trkpt><trkpt lat="43.2361236" lon="13.173636"><ele>295.0</ele><time>2026-04-25T09:40:30.579Z</time></trkpt><trkpt lat="43.2360053" lon="13.1735352"><ele>295.0</ele><time>2026-04-25T09:40:31.578Z</time></trkpt><trkpt lat="43.2358874" lon="13.1734423"><ele>295.0</ele><time>2026-04-25T09:40:32.585Z</time></trkpt><trkpt lat="43.235796" lon="13.1733741"><ele>295.0</ele><time>2026-04-25T09:40:33.583Z</time></trkpt><trkpt lat="43.2357169" lon="13.173312"><ele>295.0</ele><time>2026-04-25T09:40:34.585Z</time></trkpt><trkpt lat="43.2356583" lon="13.1732217"><ele>295.0</ele><time>2026-04-25T09:40:35.591Z</time></trkpt><trkpt lat="43.2356362" lon="13.1731103"><ele>295.0</ele><time>2026-04-25T09:40:36.579Z</time></trkpt><trkpt lat="43.235675" lon="13.1729817"><ele>295.0</ele><time>2026-04-25T09:40:37.591Z</time></trkpt><trkpt lat="43.2357294" lon="13.1728534"><ele>295.75</ele><time>2026-04-25T09:40:38.575Z</time></trkpt><trkpt lat="43.2357896" lon="13.1727227"><ele>296.5</ele><time>2026-04-25T09:40:39.59Z</time></trkpt><trkpt lat="43.2358937" lon="13.1725818"><ele>297.25</ele><time>2026-04-25T09:40:40.576Z</time></trkpt><trkpt lat="43.23599" lon="13.1724322"><ele>298.0</ele><time>2026-04-25T09:40:41.58Z</time></trkpt><trkpt lat="43.2360786" lon="13.172284"><ele>299.6</ele><time>2026-04-25T09:40:42.574Z</time></trkpt><trkpt lat="43.2361588" lon="13.1721461"><ele>301.20000000000005</ele><time>2026-04-25T09:40:43.583Z</time></trkpt><trkpt lat="43.2362276" lon="13.1720093"><ele>302.8</ele><time>2026-04-25T09:40:44.563Z</time></trkpt><trkpt lat="43.2362562" lon="13.1718686"><ele>304.40000000000003</ele><time>2026-04-25T09:40:45.576Z</time></trkpt><trkpt lat="43.2362603" lon="13.1717578"><ele>306.0</ele><time>2026-04-25T09:40:46.572Z</time></trkpt><trkpt lat="43.2362163" lon="13.1716489"><ele>306.0</ele><time>2026-04-25T09:40:47.572Z</time></trkpt><trkpt lat="43.236146" lon="13.1715501"><ele>306.0</ele><time>2026-04-25T09:40:48.565Z</time></trkpt><trkpt lat="43.2360496" lon="13.1714648"><ele>306.0</ele><time>2026-04-25T09:40:49.572Z</time></trkpt><trkpt lat="43.2359237" lon="13.1713995"><ele>306.0</ele><time>2026-04-25T09:40:50.568Z</time></trkpt><trkpt lat="43.2357956" lon="13.171349"><ele>310.6666666666667</ele><time>2026-04-25T09:40:51.581Z</time></trkpt><trkpt lat="43.235659" lon="13.171291"><ele>315.33333333333337</ele><time>2026-04-25T09:40:52.58Z</time></trkpt><trkpt lat="43.2355226" lon="13.1712143"><ele>320.0</ele><time>2026-04-25T09:40:53.58Z</time></trkpt><trkpt lat="43.2353615" lon="13.1711619"><ele>320.0</ele><time>2026-04-25T09:40:54.581Z</time></trkpt><trkpt lat="43.2352203" lon="13.1710948"><ele>320.0</ele><time>2026-04-25T09:40:55.588Z</time></trkpt><trkpt lat="43.2350799" lon="13.1710491"><ele>320.0</ele><time>2026-04-25T09:40:56.583Z</time></trkpt><trkpt lat="43.2349724" lon="13.1709957"><ele>320.0</ele><time>2026-04-25T09:40:57.582Z</time></trkpt><trkpt lat="43.2348774" lon="13.1709389"><ele>315.8</ele><time>2026-04-25T09:40:58.579Z</time></trkpt><trkpt lat="43.2348" lon="13.1708732"><ele>311.6</ele><time>2026-04-25T09:40:59.582Z</time></trkpt><trkpt lat="43.2347501" lon="13.1708008"><ele>307.4</ele><time>2026-04-25T09:41:00.581Z</time></trkpt><trkpt lat="43.2346891" lon="13.1706979"><ele>303.2</ele><time>2026-04-25T09:41:01.58Z</time></trkpt><trkpt lat="43.2346727" lon="13.17056"><ele>299.0</ele><time>2026-04-25T09:41:02.576Z</time></trkpt><trkpt lat="43.2346808" lon="13.1704098"><ele>299.0</ele><time>2026-04-25T09:41:03.586Z</time></trkpt><trkpt lat="43.2347098" lon="13.1702575"><ele>299.0</ele><time>2026-04-25T09:41:04.589Z</time></trkpt><trkpt lat="43.2347619" lon="13.1701125"><ele>299.0</ele><time>2026-04-25T09:41:05.581Z</time></trkpt><trkpt lat="43.234832" lon="13.1699908"><ele>299.0</ele><time>2026-04-25T09:41:06.577Z</time></trkpt><trkpt lat="43.2349124" lon="13.1698775"><ele>301.0</ele><time>2026-04-25T09:41:07.572Z</time></trkpt><trkpt lat="43.2349922" lon="13.1697882"><ele>303.0</ele><time>2026-04-25T09:41:08.57Z</time></trkpt><trkpt lat="43.235087" lon="13.1697432"><ele>305.0</ele><time>2026-04-25T09:41:09.565Z</time></trkpt><trkpt lat="43.2351946" lon="13.1697126"><ele>307.0</ele><time>2026-04-25T09:41:10.574Z</time></trkpt><trkpt lat="43.235325" lon="13.1696938"><ele>309.0</ele><time>2026-04-25T09:41:11.579Z</time></trkpt><trkpt lat="43.2354614" lon="13.1696667"><ele>309.0</ele><time>2026-04-25T09:41:12.59Z</time></trkpt><trkpt lat="43.2356053" lon="13.16965"><ele>309.0</ele><time>2026-04-25T09:41:13.585Z</time></trkpt><trkpt lat="43.2357528" lon="13.1696193"><ele>309.0</ele><time>2026-04-25T09:41:14.585Z</time></trkpt><trkpt lat="43.2358942" lon="13.1695714"><ele>309.0</ele><time>2026-04-25T09:41:15.579Z</time></trkpt><trkpt lat="43.236037" lon="13.1695112"><ele>313.25</ele><time>2026-04-25T09:41:16.584Z</time></trkpt><trkpt lat="43.2361715" lon="13.1694249"><ele>317.5</ele><time>2026-04-25T09:41:17.583Z</time></trkpt><trkpt lat="43.2363062" lon="13.1693446"><ele>321.75</ele><time>2026-04-25T09:41:18.585Z</time></trkpt><trkpt lat="43.2364284" lon="13.1692685"><ele>326.0</ele><time>2026-04-25T09:41:19.589Z</time></trkpt><trkpt lat="43.2365403" lon="13.1691887"><ele>324.25</ele><time>2026-04-25T09:41:20.589Z</time></trkpt><trkpt lat="43.2366572" lon="13.1691125"><ele>322.5</ele><time>2026-04-25T09:41:21.587Z</time></trkpt><trkpt lat="43.2367726" lon="13.1690574"><ele>320.75</ele><time>2026-04-25T09:41:22.586Z</time></trkpt><trkpt lat="43.2369115" lon="13.1690248"><ele>319.0</ele><time>2026-04-25T09:41:23.582Z</time></trkpt><trkpt lat="43.2370614" lon="13.1690018"><ele>319.0</ele><time>2026-04-25T09:41:24.582Z</time></trkpt><trkpt lat="43.2372221" lon="13.1690021"><ele>319.0</ele><time>2026-04-25T09:41:25.586Z</time></trkpt><trkpt lat="43.2373645" lon="13.1690152"><ele>319.0</ele><time>2026-04-25T09:41:26.581Z</time></trkpt><trkpt lat="43.2375149" lon="13.1690692"><ele>328.66666666666663</ele><time>2026-04-25T09:41:27.585Z</time></trkpt><trkpt lat="43.2376812" lon="13.1691326"><ele>338.3333333333333</ele><time>2026-04-25T09:41:28.59Z</time></trkpt><trkpt lat="43.2378273" lon="13.1691951"><ele>348.0</ele><time>2026-04-25T09:41:29.589Z</time></trkpt><trkpt lat="43.2380057" lon="13.1692356"><ele>349.3333333333333</ele><time>2026-04-25T09:41:30.589Z</time></trkpt><trkpt lat="43.2381812" lon="13.1693006"><ele>350.66666666666663</ele><time>2026-04-25T09:41:31.588Z</time></trkpt><trkpt lat="43.2383566" lon="13.169352"><ele>352.0</ele><time>2026-04-25T09:41:32.585Z</time></trkpt><trkpt lat="43.2385192" lon="13.1694044"><ele>352.0</ele><time>2026-04-25T09:41:33.589Z</time></trkpt><trkpt lat="43.2386781" lon="13.1694626"><ele>352.0</ele><time>2026-04-25T09:41:34.585Z</time></trkpt><trkpt lat="43.2388016" lon="13.1695195"><ele>352.0</ele><time>2026-04-25T09:41:35.589Z</time></trkpt><trkpt lat="43.2389425" lon="13.1695553"><ele>352.0</ele><time>2026-04-25T09:41:36.584Z</time></trkpt><trkpt lat="43.239072" lon="13.1695674"><ele>354.5</ele><time>2026-04-25T09:41:37.578Z</time></trkpt><trkpt lat="43.2391917" lon="13.1695346"><ele>357.0</ele><time>2026-04-25T09:41:38.583Z</time></trkpt><trkpt lat="43.2392913" lon="13.1694799"><ele>359.5</ele><time>2026-04-25T09:41:39.584Z</time></trkpt><trkpt lat="43.2393871" lon="13.1693655"><ele>362.0</ele><time>2026-04-25T09:41:40.575Z</time></trkpt><trkpt lat="43.2394687" lon="13.169238"><ele>362.0</ele><time>2026-04-25T09:41:41.58Z</time></trkpt><trkpt lat="43.2395322" lon="13.1690936"><ele>362.0</ele><time>2026-04-25T09:41:42.575Z</time></trkpt><trkpt lat="43.2395899" lon="13.1689671"><ele>362.0</ele><time>2026-04-25T09:41:43.58Z</time></trkpt><trkpt lat="43.2396692" lon="13.1688864"><ele>362.0</ele><time>2026-04-25T09:41:44.569Z</time></trkpt><trkpt lat="43.2397473" lon="13.1688405"><ele>362.0</ele><time>2026-04-25T09:41:45.575Z</time></trkpt><trkpt lat="43.2398398" lon="13.1688401"><ele>360.5</ele><time>2026-04-25T09:41:46.57Z</time></trkpt><trkpt lat="43.2399433" lon="13.1688605"><ele>359.0</ele><time>2026-04-25T09:41:47.57Z</time></trkpt><trkpt lat="43.2400748" lon="13.1689288"><ele>357.5</ele><time>2026-04-25T09:41:48.573Z</time></trkpt><trkpt lat="43.2402217" lon="13.1690185"><ele>356.0</ele><time>2026-04-25T09:41:49.566Z</time></trkpt><trkpt lat="43.240376" lon="13.1690902"><ele>362.33333333333337</ele><time>2026-04-25T09:41:50.572Z</time></trkpt><trkpt lat="43.2405326" lon="13.1691764"><ele>368.6666666666667</ele><time>2026-04-25T09:41:51.581Z</time></trkpt><trkpt lat="43.2406827" lon="13.169256"><ele>375.0</ele><time>2026-04-25T09:41:52.576Z</time></trkpt><trkpt lat="43.2408334" lon="13.1693336"><ele>375.3333333333333</ele><time>2026-04-25T09:41:53.582Z</time></trkpt><trkpt lat="43.2409989" lon="13.1694041"><ele>375.66666666666663</ele><time>2026-04-25T09:41:54.577Z</time></trkpt><trkpt lat="43.2411441" lon="13.1694689"><ele>376.0</ele><time>2026-04-25T09:41:55.584Z</time></trkpt><trkpt lat="43.2412758" lon="13.1695146"><ele>376.0</ele><time>2026-04-25T09:41:56.578Z</time></trkpt><trkpt lat="43.2413606" lon="13.1695992"><ele>376.0</ele><time>2026-04-25T09:41:57.57Z</time></trkpt><trkpt lat="43.2414506" lon="13.1696941"><ele>376.0</ele><time>2026-04-25T09:41:58.56Z</time></trkpt><trkpt lat="43.2415314" lon="13.16977"><ele>376.0</ele><time>2026-04-25T09:41:59.578Z</time></trkpt><trkpt lat="43.2416196" lon="13.169844"><ele>376.0</ele><time>2026-04-25T09:42:00.574Z</time></trkpt><trkpt lat="43.2417035" lon="13.1698856"><ele>376.4</ele><time>2026-04-25T09:42:01.577Z</time></trkpt><trkpt lat="43.2417877" lon="13.1698591"><ele>376.8</ele><time>2026-04-25T09:42:02.571Z</time></trkpt><trkpt lat="43.2418706" lon="13.1698027"><ele>377.2</ele><time>2026-04-25T09:42:03.574Z</time></trkpt><trkpt lat="43.2419323" lon="13.1696889"><ele>377.59999999999997</ele><time>2026-04-25T09:42:04.574Z</time></trkpt><trkpt lat="43.2419934" lon="13.1695484"><ele>378.0</ele><time>2026-04-25T09:42:05.581Z</time></trkpt><trkpt lat="43.2420661" lon="13.1693872"><ele>378.0</ele><time>2026-04-25T09:42:06.566Z</time></trkpt><trkpt lat="43.2421066" lon="13.1692142"><ele>378.0</ele><time>2026-04-25T09:42:07.575Z</time></trkpt><trkpt lat="43.2421536" lon="13.1690211"><ele>378.0</ele><time>2026-04-25T09:42:08.573Z</time></trkpt><trkpt lat="43.2421771" lon="13.1688095"><ele>378.0</ele><time>2026-04-25T09:42:09.566Z</time></trkpt><trkpt lat="43.2421843" lon="13.1686024"><ele>376.6666666666667</ele><time>2026-04-25T09:42:10.576Z</time></trkpt><trkpt lat="43.2421709" lon="13.1683974"><ele>375.33333333333337</ele><time>2026-04-25T09:42:11.578Z</time></trkpt><trkpt lat="43.242117" lon="13.1682038"><ele>374.0</ele><time>2026-04-25T09:42:12.583Z</time></trkpt><trkpt lat="43.2420376" lon="13.167987"><ele>378.0</ele><time>2026-04-25T09:42:13.58Z</time></trkpt><trkpt lat="43.2419594" lon="13.1677736"><ele>382.0</ele><time>2026-04-25T09:42:14.587Z</time></trkpt><trkpt lat="43.2418975" lon="13.1675561"><ele>386.0</ele><time>2026-04-25T09:42:15.579Z</time></trkpt><trkpt lat="43.2418345" lon="13.1673558"><ele>390.0</ele><time>2026-04-25T09:42:16.58Z</time></trkpt><trkpt lat="43.2417809" lon="13.1671296"><ele>394.0</ele><time>2026-04-25T09:42:17.584Z</time></trkpt><trkpt lat="43.2417211" lon="13.1669098"><ele>398.0</ele><time>2026-04-25T09:42:18.576Z</time></trkpt><trkpt lat="43.2416583" lon="13.1666834"><ele>398.25</ele><time>2026-04-25T09:42:19.583Z</time></trkpt><trkpt lat="43.2416066" lon="13.1664885"><ele>398.5</ele><time>2026-04-25T09:42:20.576Z</time></trkpt><trkpt lat="43.2415589" lon="13.1663069"><ele>398.75</ele><time>2026-04-25T09:42:21.583Z</time></trkpt><trkpt lat="43.2415176" lon="13.1661791"><ele>399.0</ele><time>2026-04-25T09:42:22.576Z</time></trkpt><trkpt lat="43.2414399" lon="13.1660599"><ele>399.0</ele><time>2026-04-25T09:42:23.582Z</time></trkpt><trkpt lat="43.2413669" lon="13.1659679"><ele>399.0</ele><time>2026-04-25T09:42:24.572Z</time></trkpt><trkpt lat="43.2412628" lon="13.1658545"><ele>399.0</ele><time>2026-04-25T09:42:25.577Z</time></trkpt><trkpt lat="43.2411603" lon="13.165747"><ele>399.0</ele><time>2026-04-25T09:42:26.569Z</time></trkpt><trkpt lat="43.2410863" lon="13.165685"><ele>399.0</ele><time>2026-04-25T09:42:27.575Z</time></trkpt><trkpt lat="43.2410345" lon="13.1655836"><ele>400.0</ele><time>2026-04-25T09:42:28.571Z</time></trkpt><trkpt lat="43.2409826" lon="13.1654905"><ele>401.0</ele><time>2026-04-25T09:42:29.568Z</time></trkpt><trkpt lat="43.2409972" lon="13.1653083"><ele>402.0</ele><time>2026-04-25T09:42:31.578Z</time></trkpt><trkpt lat="43.2410364" lon="13.1651996"><ele>403.0</ele><time>2026-04-25T09:42:32.574Z</time></trkpt><trkpt lat="43.241096" lon="13.1650783"><ele>404.0</ele><time>2026-04-25T09:42:33.57Z</time></trkpt><trkpt lat="43.2411688" lon="13.1649701"><ele>404.75</ele><time>2026-04-25T09:42:34.57Z</time></trkpt><trkpt lat="43.2412533" lon="13.1648502"><ele>405.5</ele><time>2026-04-25T09:42:35.578Z</time></trkpt><trkpt lat="43.2413608" lon="13.1647376"><ele>406.25</ele><time>2026-04-25T09:42:36.573Z</time></trkpt><trkpt lat="43.241451" lon="13.1646306"><ele>407.0</ele><time>2026-04-25T09:42:37.574Z</time></trkpt><trkpt lat="43.2415217" lon="13.1645289"><ele>409.20000000000005</ele><time>2026-04-25T09:42:38.574Z</time></trkpt><trkpt lat="43.2415598" lon="13.1644174"><ele>411.4</ele><time>2026-04-25T09:42:39.567Z</time></trkpt><trkpt lat="43.2415513" lon="13.1642704"><ele>413.6</ele><time>2026-04-25T09:42:40.574Z</time></trkpt><trkpt lat="43.2415123" lon="13.1641232"><ele>415.79999999999995</ele><time>2026-04-25T09:42:41.578Z</time></trkpt><trkpt lat="43.24144" lon="13.1639817"><ele>418.0</ele><time>2026-04-25T09:42:42.567Z</time></trkpt><trkpt lat="43.2413592" lon="13.1638251"><ele>418.0</ele><time>2026-04-25T09:42:43.574Z</time></trkpt><trkpt lat="43.2412625" lon="13.1636756"><ele>418.0</ele><time>2026-04-25T09:42:44.579Z</time></trkpt><trkpt lat="43.2411827" lon="13.1635139"><ele>418.0</ele><time>2026-04-25T09:42:45.566Z</time></trkpt><trkpt lat="43.2410931" lon="13.1633158"><ele>420.0</ele><time>2026-04-25T09:42:46.571Z</time></trkpt><trkpt lat="43.2410317" lon="13.1631041"><ele>422.0</ele><time>2026-04-25T09:42:47.574Z</time></trkpt><trkpt lat="43.2409959" lon="13.162924"><ele>424.0</ele><time>2026-04-25T09:42:48.567Z</time></trkpt><trkpt lat="43.2409791" lon="13.1627551"><ele>426.0</ele><time>2026-04-25T09:42:49.568Z</time></trkpt><trkpt lat="43.2409621" lon="13.1625771"><ele>427.66666666666663</ele><time>2026-04-25T09:42:50.571Z</time></trkpt><trkpt lat="43.2409582" lon="13.162361"><ele>429.3333333333333</ele><time>2026-04-25T09:42:51.575Z</time></trkpt><trkpt lat="43.2409654" lon="13.1621352"><ele>431.0</ele><time>2026-04-25T09:42:52.568Z</time></trkpt><trkpt lat="43.2409634" lon="13.1619315"><ele>431.0</ele><time>2026-04-25T09:42:53.569Z</time></trkpt><trkpt lat="43.2409709" lon="13.1617225"><ele>431.0</ele><time>2026-04-25T09:42:54.571Z</time></trkpt><trkpt lat="43.2409679" lon="13.1615275"><ele>431.0</ele><time>2026-04-25T09:42:55.578Z</time></trkpt><trkpt lat="43.240976" lon="13.161351"><ele>431.0</ele><time>2026-04-25T09:42:56.576Z</time></trkpt><trkpt lat="43.2409722" lon="13.1612056"><ele>432.0</ele><time>2026-04-25T09:42:57.575Z</time></trkpt><trkpt lat="43.2409453" lon="13.1610614"><ele>433.0</ele><time>2026-04-25T09:42:58.574Z</time></trkpt><trkpt lat="43.2408932" lon="13.1609267"><ele>434.0</ele><time>2026-04-25T09:42:59.575Z</time></trkpt><trkpt lat="43.2408184" lon="13.1608721"><ele>435.0</ele><time>2026-04-25T09:43:00.575Z</time></trkpt><trkpt lat="43.2407202" lon="13.160793"><ele>436.0</ele><time>2026-04-25T09:43:01.573Z</time></trkpt><trkpt lat="43.2405824" lon="13.1607642"><ele>436.0</ele><time>2026-04-25T09:43:02.571Z</time></trkpt><trkpt lat="43.2404583" lon="13.160732"><ele>436.0</ele><time>2026-04-25T09:43:03.57Z</time></trkpt><trkpt lat="43.2403364" lon="13.1607323"><ele>436.0</ele><time>2026-04-25T09:43:04.562Z</time></trkpt><trkpt lat="43.2401895" lon="13.1607457"><ele>436.0</ele><time>2026-04-25T09:43:05.558Z</time></trkpt><trkpt lat="43.2400565" lon="13.1607336"><ele>436.0</ele><time>2026-04-25T09:43:06.561Z</time></trkpt><trkpt lat="43.2399565" lon="13.160712"><ele>436.0</ele><time>2026-04-25T09:43:07.557Z</time></trkpt><trkpt lat="43.2398139" lon="13.1607075"><ele>436.0</ele><time>2026-04-25T09:43:08.555Z</time></trkpt><trkpt lat="43.239672" lon="13.16064"><ele>436.0</ele><time>2026-04-25T09:43:09.551Z</time></trkpt><trkpt lat="43.2395743" lon="13.1605839"><ele>437.25</ele><time>2026-04-25T09:43:10.569Z</time></trkpt><trkpt lat="43.2394771" lon="13.1604997"><ele>438.5</ele><time>2026-04-25T09:43:11.582Z</time></trkpt><trkpt lat="43.2394007" lon="13.1603517"><ele>439.75</ele><time>2026-04-25T09:43:12.573Z</time></trkpt><trkpt lat="43.2393449" lon="13.160183"><ele>441.0</ele><time>2026-04-25T09:43:13.565Z</time></trkpt><trkpt lat="43.2393124" lon="13.1600449"><ele>441.0</ele><time>2026-04-25T09:43:14.563Z</time></trkpt><trkpt lat="43.2393292" lon="13.1598891"><ele>441.0</ele><time>2026-04-25T09:43:15.571Z</time></trkpt><trkpt lat="43.2393778" lon="13.1597262"><ele>441.0</ele><time>2026-04-25T09:43:16.572Z</time></trkpt><trkpt lat="43.2394519" lon="13.1595918"><ele>441.0</ele><time>2026-04-25T09:43:17.569Z</time></trkpt><trkpt lat="43.2395008" lon="13.1594638"><ele>442.0</ele><time>2026-04-25T09:43:18.561Z</time></trkpt><trkpt lat="43.2394964" lon="13.1593365"><ele>443.0</ele><time>2026-04-25T09:43:19.578Z</time></trkpt><trkpt lat="43.2394569" lon="13.1592127"><ele>444.0</ele><time>2026-04-25T09:43:20.578Z</time></trkpt><trkpt lat="43.239393" lon="13.1590873"><ele>445.0</ele><time>2026-04-25T09:43:21.578Z</time></trkpt><trkpt lat="43.2393062" lon="13.1589768"><ele>446.0</ele><time>2026-04-25T09:43:22.567Z</time></trkpt><trkpt lat="43.2392124" lon="13.1588404"><ele>443.75</ele><time>2026-04-25T09:43:23.566Z</time></trkpt><trkpt lat="43.2391407" lon="13.1586977"><ele>441.5</ele><time>2026-04-25T09:43:24.566Z</time></trkpt><trkpt lat="43.2390768" lon="13.1585587"><ele>439.25</ele><time>2026-04-25T09:43:25.571Z</time></trkpt><trkpt lat="43.239005" lon="13.1584273"><ele>437.0</ele><time>2026-04-25T09:43:26.57Z</time></trkpt><trkpt lat="43.2389281" lon="13.1582809"><ele>439.5</ele><time>2026-04-25T09:43:27.569Z</time></trkpt><trkpt lat="43.2388613" lon="13.158143"><ele>442.0</ele><time>2026-04-25T09:43:28.577Z</time></trkpt><trkpt lat="43.2387857" lon="13.1580014"><ele>444.5</ele><time>2026-04-25T09:43:29.579Z</time></trkpt><trkpt lat="43.2387262" lon="13.1578612"><ele>447.0</ele><time>2026-04-25T09:43:30.575Z</time></trkpt><trkpt lat="43.2386873" lon="13.1577181"><ele>447.0</ele><time>2026-04-25T09:43:31.57Z</time></trkpt><trkpt lat="43.2386613" lon="13.1575562"><ele>447.0</ele><time>2026-04-25T09:43:32.57Z</time></trkpt><trkpt lat="43.2386473" lon="13.1573722"><ele>447.0</ele><time>2026-04-25T09:43:33.571Z</time></trkpt><trkpt lat="43.2386127" lon="13.1571898"><ele>447.0</ele><time>2026-04-25T09:43:34.581Z</time></trkpt><trkpt lat="43.2385716" lon="13.1569696"><ele>449.66666666666663</ele><time>2026-04-25T09:43:35.574Z</time></trkpt><trkpt lat="43.2385267" lon="13.1566902"><ele>452.3333333333333</ele><time>2026-04-25T09:43:36.577Z</time></trkpt><trkpt lat="43.238489" lon="13.1564362"><ele>455.0</ele><time>2026-04-25T09:43:37.579Z</time></trkpt><trkpt lat="43.2384486" lon="13.1561967"><ele>457.0</ele><time>2026-04-25T09:43:38.579Z</time></trkpt><trkpt lat="43.2383878" lon="13.155953"><ele>459.0</ele><time>2026-04-25T09:43:39.583Z</time></trkpt><trkpt lat="43.2383568" lon="13.1557064"><ele>461.0</ele><time>2026-04-25T09:43:40.574Z</time></trkpt><trkpt lat="43.2383056" lon="13.1554415"><ele>459.0</ele><time>2026-04-25T09:43:41.584Z</time></trkpt><trkpt lat="43.2382396" lon="13.1551879"><ele>457.0</ele><time>2026-04-25T09:43:42.58Z</time></trkpt><trkpt lat="43.2381748" lon="13.1549512"><ele>455.0</ele><time>2026-04-25T09:43:43.579Z</time></trkpt><trkpt lat="43.2381058" lon="13.1547304"><ele>455.0</ele><time>2026-04-25T09:43:44.602Z</time></trkpt><trkpt lat="43.238062" lon="13.1545281"><ele>455.0</ele><time>2026-04-25T09:43:45.594Z</time></trkpt><trkpt lat="43.2380008" lon="13.1543587"><ele>455.0</ele><time>2026-04-25T09:43:46.595Z</time></trkpt><trkpt lat="43.2379315" lon="13.1541864"><ele>455.0</ele><time>2026-04-25T09:43:47.594Z</time></trkpt><trkpt lat="43.2378664" lon="13.1540333"><ele>458.0</ele><time>2026-04-25T09:43:48.586Z</time></trkpt><trkpt lat="43.2377842" lon="13.1538828"><ele>461.0</ele><time>2026-04-25T09:43:49.574Z</time></trkpt><trkpt lat="43.2376892" lon="13.1537894"><ele>464.0</ele><time>2026-04-25T09:43:50.594Z</time></trkpt><trkpt lat="43.2375906" lon="13.153708"><ele>467.0</ele><time>2026-04-25T09:43:51.581Z</time></trkpt><trkpt lat="43.2374636" lon="13.1536495"><ele>467.0</ele><time>2026-04-25T09:43:52.574Z</time></trkpt><trkpt lat="43.2373315" lon="13.1536127"><ele>467.0</ele><time>2026-04-25T09:43:53.572Z</time></trkpt><trkpt lat="43.2371702" lon="13.1536249"><ele>467.0</ele><time>2026-04-25T09:43:54.57Z</time></trkpt><trkpt lat="43.2370346" lon="13.1536441"><ele>467.0</ele><time>2026-04-25T09:43:55.571Z</time></trkpt><trkpt lat="43.2368807" lon="13.1536596"><ele>468.5</ele><time>2026-04-25T09:43:56.573Z</time></trkpt><trkpt lat="43.2367355" lon="13.1536646"><ele>470.0</ele><time>2026-04-25T09:43:57.57Z</time></trkpt><trkpt lat="43.2366078" lon="13.1536817"><ele>471.5</ele><time>2026-04-25T09:43:58.565Z</time></trkpt><trkpt lat="43.2364775" lon="13.1536865"><ele>473.0</ele><time>2026-04-25T09:43:59.565Z</time></trkpt><trkpt lat="43.236367" lon="13.1536885"><ele>473.59999999999997</ele><time>2026-04-25T09:44:00.563Z</time></trkpt><trkpt lat="43.2362707" lon="13.1536351"><ele>474.19999999999993</ele><time>2026-04-25T09:44:01.566Z</time></trkpt><trkpt lat="43.2361674" lon="13.1535834"><ele>474.8</ele><time>2026-04-25T09:44:02.575Z</time></trkpt><trkpt lat="43.2360988" lon="13.1534829"><ele>475.4</ele><time>2026-04-25T09:44:03.579Z</time></trkpt><trkpt lat="43.2360289" lon="13.1533918"><ele>476.0</ele><time>2026-04-25T09:44:04.57Z</time></trkpt><trkpt lat="43.2359459" lon="13.1533553"><ele>475.99999999999994</ele><time>2026-04-25T09:44:05.574Z</time></trkpt><trkpt lat="43.2358443" lon="13.1534466"><ele>476.0</ele><time>2026-04-25T09:44:07.576Z</time></trkpt><trkpt lat="43.2358064" lon="13.1535198"><ele>476.0</ele><time>2026-04-25T09:44:08.573Z</time></trkpt><trkpt lat="43.2357956" lon="13.1536162"><ele>476.0</ele><time>2026-04-25T09:44:09.561Z</time></trkpt><trkpt lat="43.2358126" lon="13.1537306"><ele>475.99999999999994</ele><time>2026-04-25T09:44:10.559Z</time></trkpt><trkpt lat="43.2358274" lon="13.1538468"><ele>476.0</ele><time>2026-04-25T09:44:11.562Z</time></trkpt><trkpt lat="43.2358453" lon="13.1539477"><ele>474.3333333333333</ele><time>2026-04-25T09:44:12.571Z</time></trkpt><trkpt lat="43.2358574" lon="13.1540484"><ele>472.66666666666663</ele><time>2026-04-25T09:44:13.561Z</time></trkpt><trkpt lat="43.2358614" lon="13.1541949"><ele>471.0</ele><time>2026-04-25T09:44:15.582Z</time></trkpt><trkpt lat="43.2358686" lon="13.1542895"><ele>469.33333333333337</ele><time>2026-04-25T09:44:16.582Z</time></trkpt><trkpt lat="43.2358683" lon="13.1543971"><ele>467.6666666666667</ele><time>2026-04-25T09:44:17.576Z</time></trkpt><trkpt lat="43.2358445" lon="13.1545025"><ele>466.0</ele><time>2026-04-25T09:44:18.588Z</time></trkpt><trkpt lat="43.2358012" lon="13.1546087"><ele>466.0</ele><time>2026-04-25T09:44:19.583Z</time></trkpt><trkpt lat="43.2357574" lon="13.1547036"><ele>466.0</ele><time>2026-04-25T09:44:20.586Z</time></trkpt><trkpt lat="43.2356924" lon="13.1547774"><ele>466.0</ele><time>2026-04-25T09:44:21.575Z</time></trkpt><trkpt lat="43.2356375" lon="13.1548532"><ele>466.0</ele><time>2026-04-25T09:44:22.57Z</time></trkpt><trkpt lat="43.2355575" lon="13.1549706"><ele>466.0</ele><time>2026-04-25T09:44:24.58Z</time></trkpt><trkpt lat="43.235461" lon="13.1550103"><ele>467.1666666666667</ele><time>2026-04-25T09:44:25.588Z</time></trkpt><trkpt lat="43.2353666" lon="13.1550687"><ele>468.33333333333337</ele><time>2026-04-25T09:44:26.581Z</time></trkpt><trkpt lat="43.2352909" lon="13.1551295"><ele>469.5</ele><time>2026-04-25T09:44:27.581Z</time></trkpt><trkpt lat="43.2352273" lon="13.1551863"><ele>470.66666666666663</ele><time>2026-04-25T09:44:28.578Z</time></trkpt><trkpt lat="43.2351698" lon="13.1552306"><ele>471.8333333333333</ele><time>2026-04-25T09:44:29.59Z</time></trkpt><trkpt lat="43.2350974" lon="13.1552486"><ele>473.0</ele><time>2026-04-25T09:44:30.585Z</time></trkpt><trkpt lat="43.2350145" lon="13.1552725"><ele>473.0</ele><time>2026-04-25T09:44:31.59Z</time></trkpt><trkpt lat="43.2349284" lon="13.1552891"><ele>472.99999999999994</ele><time>2026-04-25T09:44:32.581Z</time></trkpt><trkpt lat="43.2348295" lon="13.1553293"><ele>472.99999999999994</ele><time>2026-04-25T09:44:33.585Z</time></trkpt><trkpt lat="43.2347422" lon="13.155394"><ele>473.0</ele><time>2026-04-25T09:44:34.589Z</time></trkpt><trkpt lat="43.2346657" lon="13.1554722"><ele>473.0</ele><time>2026-04-25T09:44:35.59Z</time></trkpt><trkpt lat="43.2345875" lon="13.1555509"><ele>474.4</ele><time>2026-04-25T09:44:36.586Z</time></trkpt><trkpt lat="43.2344909" lon="13.1556093"><ele>475.79999999999995</ele><time>2026-04-25T09:44:37.59Z</time></trkpt><trkpt lat="43.2343874" lon="13.1556465"><ele>477.2</ele><time>2026-04-25T09:44:38.589Z</time></trkpt><trkpt lat="43.2342784" lon="13.155633"><ele>478.6</ele><time>2026-04-25T09:44:39.589Z</time></trkpt><trkpt lat="43.2341812" lon="13.1555837"><ele>480.0</ele><time>2026-04-25T09:44:40.581Z</time></trkpt><trkpt lat="43.2340974" lon="13.1555209"><ele>480.0</ele><time>2026-04-25T09:44:41.585Z</time></trkpt><trkpt lat="43.2340155" lon="13.1554491"><ele>480.0</ele><time>2026-04-25T09:44:42.588Z</time></trkpt><trkpt lat="43.2339598" lon="13.1553543"><ele>480.0</ele><time>2026-04-25T09:44:43.583Z</time></trkpt><trkpt lat="43.233939" lon="13.1552666"><ele>480.0</ele><time>2026-04-25T09:44:44.593Z</time></trkpt><trkpt lat="43.2339461" lon="13.1551747"><ele>480.0</ele><time>2026-04-25T09:44:45.581Z</time></trkpt><trkpt lat="43.2339943" lon="13.155075"><ele>480.0</ele><time>2026-04-25T09:44:47.587Z</time></trkpt><trkpt lat="43.2340989" lon="13.1549617"><ele>480.0</ele><time>2026-04-25T09:44:49.588Z</time></trkpt><trkpt lat="43.2341729" lon="13.1549183"><ele>480.0</ele><time>2026-04-25T09:44:50.578Z</time></trkpt><trkpt lat="43.2342539" lon="13.1548651"><ele>480.0</ele><time>2026-04-25T09:44:51.592Z</time></trkpt><trkpt lat="43.2343483" lon="13.154807"><ele>480.0</ele><time>2026-04-25T09:44:52.587Z</time></trkpt><trkpt lat="43.2344432" lon="13.1547529"><ele>480.0</ele><time>2026-04-25T09:44:53.597Z</time></trkpt><trkpt lat="43.2345394" lon="13.1546937"><ele>480.2</ele><time>2026-04-25T09:44:54.586Z</time></trkpt><trkpt lat="43.2346239" lon="13.1546073"><ele>480.4</ele><time>2026-04-25T09:44:55.593Z</time></trkpt><trkpt lat="43.2346998" lon="13.1545087"><ele>480.6</ele><time>2026-04-25T09:44:56.581Z</time></trkpt><trkpt lat="43.2347564" lon="13.1543742"><ele>480.8</ele><time>2026-04-25T09:44:57.584Z</time></trkpt><trkpt lat="43.234811" lon="13.1542393"><ele>481.0</ele><time>2026-04-25T09:44:58.572Z</time></trkpt><trkpt lat="43.2348738" lon="13.1540974"><ele>483.0</ele><time>2026-04-25T09:44:59.568Z</time></trkpt><trkpt lat="43.2349366" lon="13.1539485"><ele>485.0</ele><time>2026-04-25T09:45:00.567Z</time></trkpt><trkpt lat="43.2350003" lon="13.1537903"><ele>487.0</ele><time>2026-04-25T09:45:01.563Z</time></trkpt><trkpt lat="43.2350489" lon="13.1536411"><ele>489.0</ele><time>2026-04-25T09:45:02.563Z</time></trkpt><trkpt lat="43.2350968" lon="13.1534905"><ele>489.0</ele><time>2026-04-25T09:45:03.562Z</time></trkpt><trkpt lat="43.2351416" lon="13.1533274"><ele>489.0</ele><time>2026-04-25T09:45:04.564Z</time></trkpt><trkpt lat="43.2351833" lon="13.1531849"><ele>489.0</ele><time>2026-04-25T09:45:05.557Z</time></trkpt><trkpt lat="43.2352159" lon="13.1530423"><ele>489.0</ele><time>2026-04-25T09:45:06.565Z</time></trkpt><trkpt lat="43.2352619" lon="13.1529131"><ele>489.79999999999995</ele><time>2026-04-25T09:45:07.563Z</time></trkpt><trkpt lat="43.2353174" lon="13.1528025"><ele>490.59999999999997</ele><time>2026-04-25T09:45:08.573Z</time></trkpt><trkpt lat="43.2353933" lon="13.1527206"><ele>491.4</ele><time>2026-04-25T09:45:09.565Z</time></trkpt><trkpt lat="43.2354811" lon="13.1526665"><ele>492.2</ele><time>2026-04-25T09:45:10.577Z</time></trkpt><trkpt lat="43.2356019" lon="13.1526551"><ele>493.0</ele><time>2026-04-25T09:45:11.565Z</time></trkpt><trkpt lat="43.2357191" lon="13.1526259"><ele>493.0</ele><time>2026-04-25T09:45:12.566Z</time></trkpt><trkpt lat="43.235834" lon="13.152594"><ele>492.99999999999994</ele><time>2026-04-25T09:45:13.564Z</time></trkpt><trkpt lat="43.2359511" lon="13.1525408"><ele>492.99999999999994</ele><time>2026-04-25T09:45:14.563Z</time></trkpt><trkpt lat="43.2360546" lon="13.1524796"><ele>493.0</ele><time>2026-04-25T09:45:15.563Z</time></trkpt><trkpt lat="43.2361402" lon="13.1524208"><ele>493.0</ele><time>2026-04-25T09:45:16.563Z</time></trkpt><trkpt lat="43.2362206" lon="13.1523596"><ele>496.00000000000006</ele><time>2026-04-25T09:45:17.568Z</time></trkpt><trkpt lat="43.2362872" lon="13.1523063"><ele>499.0</ele><time>2026-04-25T09:45:18.561Z</time></trkpt><trkpt lat="43.2363646" lon="13.1522709"><ele>502.0</ele><time>2026-04-25T09:45:19.568Z</time></trkpt><trkpt lat="43.2364495" lon="13.1522286"><ele>505.0</ele><time>2026-04-25T09:45:20.567Z</time></trkpt><trkpt lat="43.236534" lon="13.1521688"><ele>508.00000000000006</ele><time>2026-04-25T09:45:21.576Z</time></trkpt><trkpt lat="43.2366219" lon="13.1521059"><ele>511.0</ele><time>2026-04-25T09:45:22.571Z</time></trkpt><trkpt lat="43.2367135" lon="13.152042"><ele>511.0</ele><time>2026-04-25T09:45:23.572Z</time></trkpt><trkpt lat="43.2368043" lon="13.1519779"><ele>511.0</ele><time>2026-04-25T09:45:24.57Z</time></trkpt><trkpt lat="43.2369008" lon="13.1519079"><ele>511.0</ele><time>2026-04-25T09:45:25.569Z</time></trkpt><trkpt lat="43.2369969" lon="13.1518146"><ele>511.0</ele><time>2026-04-25T09:45:26.57Z</time></trkpt><trkpt lat="43.2370904" lon="13.1517169"><ele>511.0</ele><time>2026-04-25T09:45:27.575Z</time></trkpt><trkpt lat="43.2371887" lon="13.1516294"><ele>514.25</ele><time>2026-04-25T09:45:28.562Z</time></trkpt><trkpt lat="43.2372914" lon="13.1515319"><ele>517.5</ele><time>2026-04-25T09:45:29.574Z</time></trkpt><trkpt lat="43.2373951" lon="13.1514277"><ele>520.75</ele><time>2026-04-25T09:45:30.575Z</time></trkpt><trkpt lat="43.2374902" lon="13.1513143"><ele>524.0</ele><time>2026-04-25T09:45:31.576Z</time></trkpt><trkpt lat="43.2375902" lon="13.1512249"><ele>524.0</ele><time>2026-04-25T09:45:32.57Z</time></trkpt><trkpt lat="43.2376796" lon="13.1511555"><ele>524.0</ele><time>2026-04-25T09:45:33.576Z</time></trkpt><trkpt lat="43.2377678" lon="13.15109"><ele>524.0</ele><time>2026-04-25T09:45:34.572Z</time></trkpt><trkpt lat="43.2378518" lon="13.151025"><ele>524.0</ele><time>2026-04-25T09:45:35.57Z</time></trkpt><trkpt lat="43.2379309" lon="13.1509633"><ele>524.0</ele><time>2026-04-25T09:45:36.569Z</time></trkpt><trkpt lat="43.2379893" lon="13.1509041"><ele>524.0</ele><time>2026-04-25T09:45:37.571Z</time></trkpt><trkpt lat="43.2380523" lon="13.150827"><ele>524.0</ele><time>2026-04-25T09:45:39.567Z</time></trkpt><trkpt lat="43.238054" lon="13.1507357"><ele>524.0</ele><time>2026-04-25T09:45:44.561Z</time></trkpt><trkpt lat="43.2380019" lon="13.1506704"><ele>524.0</ele><time>2026-04-25T09:45:46.56Z</time></trkpt><trkpt lat="43.2378857" lon="13.1505925"><ele>524.0</ele><time>2026-04-25T09:45:48.564Z</time></trkpt><trkpt lat="43.2378149" lon="13.1505515"><ele>524.0</ele><time>2026-04-25T09:45:49.565Z</time></trkpt><trkpt lat="43.2377275" lon="13.1505174"><ele>526.2</ele><time>2026-04-25T09:45:50.561Z</time></trkpt><trkpt lat="43.2376374" lon="13.150479"><ele>528.4</ele><time>2026-04-25T09:45:51.562Z</time></trkpt><trkpt lat="43.2375411" lon="13.1504321"><ele>530.6</ele><time>2026-04-25T09:45:52.567Z</time></trkpt><trkpt lat="43.2374424" lon="13.1503888"><ele>532.8</ele><time>2026-04-25T09:45:53.568Z</time></trkpt><trkpt lat="43.2373401" lon="13.1503469"><ele>535.0</ele><time>2026-04-25T09:45:54.564Z</time></trkpt><trkpt lat="43.237239" lon="13.1502877"><ele>537.25</ele><time>2026-04-25T09:45:55.564Z</time></trkpt><trkpt lat="43.2371283" lon="13.1502416"><ele>539.5</ele><time>2026-04-25T09:45:56.567Z</time></trkpt><trkpt lat="43.2370169" lon="13.1501849"><ele>541.75</ele><time>2026-04-25T09:45:57.563Z</time></trkpt><trkpt lat="43.2369094" lon="13.1501132"><ele>544.0</ele><time>2026-04-25T09:45:58.559Z</time></trkpt><trkpt lat="43.2367911" lon="13.1500334"><ele>544.0</ele><time>2026-04-25T09:45:59.562Z</time></trkpt><trkpt lat="43.2366666" lon="13.1499643"><ele>544.0</ele><time>2026-04-25T09:46:00.554Z</time></trkpt><trkpt lat="43.2365627" lon="13.149938"><ele>544.0</ele><time>2026-04-25T09:46:01.564Z</time></trkpt><trkpt lat="43.2364533" lon="13.1499067"><ele>544.0</ele><time>2026-04-25T09:46:02.547Z</time></trkpt><trkpt lat="43.2363643" lon="13.1498888"><ele>544.0</ele><time>2026-04-25T09:46:03.56Z</time></trkpt><trkpt lat="43.2362938" lon="13.1498608"><ele>547.75</ele><time>2026-04-25T09:46:04.56Z</time></trkpt><trkpt lat="43.2362592" lon="13.1497453"><ele>551.5</ele><time>2026-04-25T09:46:05.544Z</time></trkpt><trkpt lat="43.2362952" lon="13.1495213"><ele>555.25</ele><time>2026-04-25T09:46:06.551Z</time></trkpt><trkpt lat="43.2363236" lon="13.1492733"><ele>559.0</ele><time>2026-04-25T09:46:07.545Z</time></trkpt><trkpt lat="43.2362975" lon="13.1490882"><ele>561.6</ele><time>2026-04-25T09:46:08.548Z</time></trkpt><trkpt lat="43.2362296" lon="13.1489657"><ele>564.2</ele><time>2026-04-25T09:46:09.553Z</time></trkpt><trkpt lat="43.2361947" lon="13.1488589"><ele>566.8000000000001</ele><time>2026-04-25T09:46:10.564Z</time></trkpt><trkpt lat="43.2361846" lon="13.1487349"><ele>569.4</ele><time>2026-04-25T09:46:11.557Z</time></trkpt><trkpt lat="43.2361778" lon="13.1486139"><ele>572.0</ele><time>2026-04-25T09:46:12.56Z</time></trkpt><trkpt lat="43.2362014" lon="13.1484852"><ele>572.0</ele><time>2026-04-25T09:46:13.57Z</time></trkpt><trkpt lat="43.2362527" lon="13.1483344"><ele>572.0</ele><time>2026-04-25T09:46:14.567Z</time></trkpt><trkpt lat="43.236288" lon="13.148175"><ele>572.0</ele><time>2026-04-25T09:46:15.568Z</time></trkpt><trkpt lat="43.2363296" lon="13.1480083"><ele>572.0</ele><time>2026-04-25T09:46:16.57Z</time></trkpt><trkpt lat="43.2363848" lon="13.147838"><ele>574.0</ele><time>2026-04-25T09:46:17.571Z</time></trkpt><trkpt lat="43.2364313" lon="13.1476743"><ele>576.0</ele><time>2026-04-25T09:46:18.572Z</time></trkpt><trkpt lat="43.2364713" lon="13.1475173"><ele>578.0</ele><time>2026-04-25T09:46:19.57Z</time></trkpt><trkpt lat="43.2365145" lon="13.1473753"><ele>580.0</ele><time>2026-04-25T09:46:20.567Z</time></trkpt><trkpt lat="43.236562" lon="13.147251"><ele>581.8</ele><time>2026-04-25T09:46:21.567Z</time></trkpt><trkpt lat="43.236591" lon="13.1471577"><ele>583.6</ele><time>2026-04-25T09:46:22.568Z</time></trkpt><trkpt lat="43.2366057" lon="13.1470361"><ele>585.4</ele><time>2026-04-25T09:46:24.569Z</time></trkpt><trkpt lat="43.236638" lon="13.1469301"><ele>587.2</ele><time>2026-04-25T09:46:43.578Z</time></trkpt><trkpt lat="43.2366792" lon="13.146767"><ele>589.0</ele><time>2026-04-25T09:46:45.572Z</time></trkpt><trkpt lat="43.2366966" lon="13.1466565"><ele>589.0</ele><time>2026-04-25T09:46:46.575Z</time></trkpt><trkpt lat="43.236715" lon="13.1465465"><ele>589.0</ele><time>2026-04-25T09:46:47.568Z</time></trkpt><trkpt lat="43.2367231" lon="13.1464407"><ele>589.0</ele><time>2026-04-25T09:46:48.568Z</time></trkpt><trkpt lat="43.2367181" lon="13.1463222"><ele>589.0</ele><time>2026-04-25T09:46:49.565Z</time></trkpt><trkpt lat="43.2367092" lon="13.146201"><ele>589.0</ele><time>2026-04-25T09:46:50.566Z</time></trkpt><trkpt lat="43.2366922" lon="13.1460918"><ele>589.0</ele><time>2026-04-25T09:46:51.566Z</time></trkpt><trkpt lat="43.2366975" lon="13.1459816"><ele>590.4</ele><time>2026-04-25T09:46:52.574Z</time></trkpt><trkpt lat="43.2367395" lon="13.1458696"><ele>591.8</ele><time>2026-04-25T09:46:53.567Z</time></trkpt><trkpt lat="43.2368038" lon="13.1457637"><ele>593.2</ele><time>2026-04-25T09:46:54.565Z</time></trkpt><trkpt lat="43.2368642" lon="13.1456614"><ele>594.6</ele><time>2026-04-25T09:46:55.565Z</time></trkpt><trkpt lat="43.2369173" lon="13.1455598"><ele>596.0</ele><time>2026-04-25T09:46:56.561Z</time></trkpt><trkpt lat="43.2369702" lon="13.1454282"><ele>597.8</ele><time>2026-04-25T09:46:57.57Z</time></trkpt><trkpt lat="43.2370101" lon="13.1452944"><ele>599.6</ele><time>2026-04-25T09:46:58.556Z</time></trkpt><trkpt lat="43.23706" lon="13.1451552"><ele>601.4</ele><time>2026-04-25T09:46:59.575Z</time></trkpt><trkpt lat="43.2371138" lon="13.145024"><ele>603.2</ele><time>2026-04-25T09:47:00.567Z</time></trkpt><trkpt lat="43.2371618" lon="13.1448985"><ele>605.0</ele><time>2026-04-25T09:47:01.571Z</time></trkpt><trkpt lat="43.2372192" lon="13.1447752"><ele>604.8</ele><time>2026-04-25T09:47:02.567Z</time></trkpt><trkpt lat="43.2372751" lon="13.1446383"><ele>604.6</ele><time>2026-04-25T09:47:03.576Z</time></trkpt><trkpt lat="43.2373287" lon="13.1445119"><ele>604.4</ele><time>2026-04-25T09:47:04.57Z</time></trkpt><trkpt lat="43.2373784" lon="13.1443844"><ele>604.2</ele><time>2026-04-25T09:47:05.571Z</time></trkpt><trkpt lat="43.2374302" lon="13.1442542"><ele>604.0</ele><time>2026-04-25T09:47:06.568Z</time></trkpt><trkpt lat="43.2374892" lon="13.1441293"><ele>606.5</ele><time>2026-04-25T09:47:07.566Z</time></trkpt><trkpt lat="43.2375366" lon="13.1439925"><ele>609.0</ele><time>2026-04-25T09:47:08.566Z</time></trkpt><trkpt lat="43.2375885" lon="13.1438487"><ele>611.5</ele><time>2026-04-25T09:47:09.575Z</time></trkpt><trkpt lat="43.237641" lon="13.1436949"><ele>614.0</ele><time>2026-04-25T09:47:10.566Z</time></trkpt><trkpt lat="43.2377" lon="13.1435407"><ele>614.0</ele><time>2026-04-25T09:47:11.567Z</time></trkpt><trkpt lat="43.2377462" lon="13.1433937"><ele>614.0</ele><time>2026-04-25T09:47:12.57Z</time></trkpt><trkpt lat="43.2377885" lon="13.143242"><ele>614.0</ele><time>2026-04-25T09:47:13.569Z</time></trkpt><trkpt lat="43.2378243" lon="13.143109"><ele>614.0</ele><time>2026-04-25T09:47:14.576Z</time></trkpt><trkpt lat="43.2378605" lon="13.1429913"><ele>614.0</ele><time>2026-04-25T09:47:15.565Z</time></trkpt><trkpt lat="43.2378945" lon="13.1428898"><ele>613.6</ele><time>2026-04-25T09:47:16.571Z</time></trkpt><trkpt lat="43.237937" lon="13.1428053"><ele>613.2</ele><time>2026-04-25T09:47:17.566Z</time></trkpt><trkpt lat="43.2379897" lon="13.1427176"><ele>612.8000000000001</ele><time>2026-04-25T09:47:18.569Z</time></trkpt><trkpt lat="43.2380432" lon="13.1426268"><ele>612.4</ele><time>2026-04-25T09:47:19.559Z</time></trkpt><trkpt lat="43.238112" lon="13.1425204"><ele>612.0</ele><time>2026-04-25T09:47:20.56Z</time></trkpt><trkpt lat="43.238172" lon="13.1423965"><ele>613.5</ele><time>2026-04-25T09:47:21.56Z</time></trkpt><trkpt lat="43.2382104" lon="13.1422751"><ele>615.0</ele><time>2026-04-25T09:47:22.563Z</time></trkpt><trkpt lat="43.2382362" lon="13.1421347"><ele>616.5</ele><time>2026-04-25T09:47:23.564Z</time></trkpt><trkpt lat="43.2382576" lon="13.1419658"><ele>618.0</ele><time>2026-04-25T09:47:24.57Z</time></trkpt><trkpt lat="43.2382803" lon="13.1417911"><ele>618.0</ele><time>2026-04-25T09:47:25.577Z</time></trkpt><trkpt lat="43.2383054" lon="13.1416331"><ele>618.0</ele><time>2026-04-25T09:47:26.571Z</time></trkpt><trkpt lat="43.23832" lon="13.1414831"><ele>618.0</ele><time>2026-04-25T09:47:27.581Z</time></trkpt><trkpt lat="43.2383333" lon="13.1413377"><ele>618.0</ele><time>2026-04-25T09:47:28.573Z</time></trkpt><trkpt lat="43.2383503" lon="13.1411908"><ele>618.0</ele><time>2026-04-25T09:47:29.582Z</time></trkpt><trkpt lat="43.238366" lon="13.1410343"><ele>619.5</ele><time>2026-04-25T09:47:30.574Z</time></trkpt><trkpt lat="43.2383877" lon="13.1408622"><ele>621.0</ele><time>2026-04-25T09:47:31.581Z</time></trkpt><trkpt lat="43.23841" lon="13.1406903"><ele>622.5</ele><time>2026-04-25T09:47:32.575Z</time></trkpt><trkpt lat="43.2384428" lon="13.1405352"><ele>624.0</ele><time>2026-04-25T09:47:33.576Z</time></trkpt><trkpt lat="43.2384646" lon="13.1403725"><ele>624.8</ele><time>2026-04-25T09:47:34.57Z</time></trkpt><trkpt lat="43.2384752" lon="13.1402167"><ele>625.5999999999999</ele><time>2026-04-25T09:47:35.572Z</time></trkpt><trkpt lat="43.2384846" lon="13.1400669"><ele>626.4</ele><time>2026-04-25T09:47:36.566Z</time></trkpt><trkpt lat="43.2384854" lon="13.1399291"><ele>627.1999999999999</ele><time>2026-04-25T09:47:37.572Z</time></trkpt><trkpt lat="43.2384864" lon="13.139802"><ele>628.0</ele><time>2026-04-25T09:47:38.567Z</time></trkpt><trkpt lat="43.2384692" lon="13.1396661"><ele>628.0</ele><time>2026-04-25T09:47:39.568Z</time></trkpt><trkpt lat="43.2384388" lon="13.1395363"><ele>628.0</ele><time>2026-04-25T09:47:40.57Z</time></trkpt><trkpt lat="43.2384118" lon="13.1394047"><ele>628.0</ele><time>2026-04-25T09:47:41.567Z</time></trkpt><trkpt lat="43.238369" lon="13.1392672"><ele>628.0</ele><time>2026-04-25T09:47:42.568Z</time></trkpt><trkpt lat="43.2383335" lon="13.1391202"><ele>628.0</ele><time>2026-04-25T09:47:43.571Z</time></trkpt><trkpt lat="43.2382915" lon="13.1389741"><ele>625.0</ele><time>2026-04-25T09:47:44.572Z</time></trkpt><trkpt lat="43.238244" lon="13.1388253"><ele>622.0</ele><time>2026-04-25T09:47:45.573Z</time></trkpt><trkpt lat="43.2381898" lon="13.1386907"><ele>619.0</ele><time>2026-04-25T09:47:46.578Z</time></trkpt><trkpt lat="43.2381303" lon="13.1385416"><ele>616.0</ele><time>2026-04-25T09:47:47.575Z</time></trkpt><trkpt lat="43.2380739" lon="13.1383937"><ele>621.75</ele><time>2026-04-25T09:47:48.576Z</time></trkpt><trkpt lat="43.238013" lon="13.1382532"><ele>627.5</ele><time>2026-04-25T09:47:49.568Z</time></trkpt><trkpt lat="43.2379578" lon="13.1381078"><ele>633.25</ele><time>2026-04-25T09:47:50.573Z</time></trkpt><trkpt lat="43.2379025" lon="13.1379756"><ele>639.0</ele><time>2026-04-25T09:47:51.573Z</time></trkpt><trkpt lat="43.237846" lon="13.1378403"><ele>639.0</ele><time>2026-04-25T09:47:52.578Z</time></trkpt><trkpt lat="43.2377854" lon="13.1377017"><ele>639.0</ele><time>2026-04-25T09:47:53.571Z</time></trkpt><trkpt lat="43.2377287" lon="13.1375599"><ele>639.0</ele><time>2026-04-25T09:47:54.57Z</time></trkpt><trkpt lat="43.2376781" lon="13.1374091"><ele>639.0</ele><time>2026-04-25T09:47:55.563Z</time></trkpt><trkpt lat="43.2376223" lon="13.1372578"><ele>636.8</ele><time>2026-04-25T09:47:56.566Z</time></trkpt><trkpt lat="43.2375666" lon="13.1371177"><ele>634.5999999999999</ele><time>2026-04-25T09:47:57.568Z</time></trkpt><trkpt lat="43.2375231" lon="13.1369808"><ele>632.4</ele><time>2026-04-25T09:47:58.569Z</time></trkpt><trkpt lat="43.2374791" lon="13.1368467"><ele>630.1999999999999</ele><time>2026-04-25T09:47:59.569Z</time></trkpt><trkpt lat="43.2374271" lon="13.1367219"><ele>628.0</ele><time>2026-04-25T09:48:00.566Z</time></trkpt><trkpt lat="43.2373772" lon="13.1365728"><ele>625.0</ele><time>2026-04-25T09:48:01.559Z</time></trkpt><trkpt lat="43.2373265" lon="13.13642"><ele>622.0</ele><time>2026-04-25T09:48:02.558Z</time></trkpt><trkpt lat="43.2372796" lon="13.136276"><ele>619.0</ele><time>2026-04-25T09:48:03.557Z</time></trkpt><trkpt lat="43.237225" lon="13.1361258"><ele>616.0</ele><time>2026-04-25T09:48:04.551Z</time></trkpt><trkpt lat="43.2371716" lon="13.1359686"><ele>623.5</ele><time>2026-04-25T09:48:05.558Z</time></trkpt><trkpt lat="43.2371229" lon="13.1358131"><ele>631.0</ele><time>2026-04-25T09:48:06.553Z</time></trkpt><trkpt lat="43.2370755" lon="13.1356665"><ele>638.5</ele><time>2026-04-25T09:48:07.562Z</time></trkpt><trkpt lat="43.2370254" lon="13.1355222"><ele>646.0</ele><time>2026-04-25T09:48:08.555Z</time></trkpt><trkpt lat="43.2369685" lon="13.1353696"><ele>646.0</ele><time>2026-04-25T09:48:09.554Z</time></trkpt><trkpt lat="43.2369126" lon="13.1352151"><ele>646.0</ele><time>2026-04-25T09:48:10.554Z</time></trkpt><trkpt lat="43.2368533" lon="13.1350613"><ele>646.0</ele><time>2026-04-25T09:48:11.561Z</time></trkpt><trkpt lat="43.2368075" lon="13.1349045"><ele>646.0</ele><time>2026-04-25T09:48:12.556Z</time></trkpt><trkpt lat="43.2367672" lon="13.1347554"><ele>645.0</ele><time>2026-04-25T09:48:13.566Z</time></trkpt><trkpt lat="43.2367211" lon="13.1346149"><ele>644.0</ele><time>2026-04-25T09:48:14.558Z</time></trkpt><trkpt lat="43.2366714" lon="13.1344677"><ele>643.0</ele><time>2026-04-25T09:48:15.559Z</time></trkpt><trkpt lat="43.2366345" lon="13.134318"><ele>642.0</ele><time>2026-04-25T09:48:16.559Z</time></trkpt><trkpt lat="43.2366017" lon="13.1341617"><ele>642.0</ele><time>2026-04-25T09:48:17.56Z</time></trkpt><trkpt lat="43.2365765" lon="13.1340159"><ele>642.0</ele><time>2026-04-25T09:48:18.557Z</time></trkpt><trkpt lat="43.2365467" lon="13.1338789"><ele>642.0</ele><time>2026-04-25T09:48:19.56Z</time></trkpt><trkpt lat="43.236532" lon="13.1337442"><ele>642.0</ele><time>2026-04-25T09:48:20.564Z</time></trkpt><trkpt lat="43.23652" lon="13.1335994"><ele>642.0</ele><time>2026-04-25T09:48:21.566Z</time></trkpt><trkpt lat="43.2365132" lon="13.1334472"><ele>642.0</ele><time>2026-04-25T09:48:22.569Z</time></trkpt><trkpt lat="43.2365083" lon="13.133292"><ele>642.0</ele><time>2026-04-25T09:48:23.572Z</time></trkpt><trkpt lat="43.236496" lon="13.1331315"><ele>642.0</ele><time>2026-04-25T09:48:24.568Z</time></trkpt><trkpt lat="43.2364852" lon="13.1329768"><ele>642.0</ele><time>2026-04-25T09:48:25.563Z</time></trkpt><trkpt lat="43.236472" lon="13.1328168"><ele>644.0</ele><time>2026-04-25T09:48:26.558Z</time></trkpt><trkpt lat="43.2364789" lon="13.1326867"><ele>646.0</ele><time>2026-04-25T09:48:27.56Z</time></trkpt><trkpt lat="43.2364884" lon="13.1325463"><ele>648.0</ele><time>2026-04-25T09:48:28.555Z</time></trkpt><trkpt lat="43.236508" lon="13.1324073"><ele>650.0</ele><time>2026-04-25T09:48:29.565Z</time></trkpt><trkpt lat="43.2365304" lon="13.1322722"><ele>652.0</ele><time>2026-04-25T09:48:30.56Z</time></trkpt><trkpt lat="43.2365274" lon="13.1321428"><ele>654.0</ele><time>2026-04-25T09:48:31.562Z</time></trkpt><trkpt lat="43.2364982" lon="13.1319905"><ele>656.0</ele><time>2026-04-25T09:48:32.566Z</time></trkpt><trkpt lat="43.2364663" lon="13.1318378"><ele>658.0</ele><time>2026-04-25T09:48:33.559Z</time></trkpt><trkpt lat="43.2364497" lon="13.1316916"><ele>660.0</ele><time>2026-04-25T09:48:34.563Z</time></trkpt><trkpt lat="43.2364184" lon="13.1315285"><ele>663.0</ele><time>2026-04-25T09:48:35.562Z</time></trkpt><trkpt lat="43.2363958" lon="13.1313583"><ele>666.0</ele><time>2026-04-25T09:48:36.563Z</time></trkpt><trkpt lat="43.236367" lon="13.1311911"><ele>669.0</ele><time>2026-04-25T09:48:37.559Z</time></trkpt><trkpt lat="43.2363431" lon="13.1310365"><ele>672.0</ele><time>2026-04-25T09:48:38.567Z</time></trkpt><trkpt lat="43.2363139" lon="13.1308749"><ele>672.0</ele><time>2026-04-25T09:48:39.565Z</time></trkpt><trkpt lat="43.2362994" lon="13.1307101"><ele>672.0</ele><time>2026-04-25T09:48:40.572Z</time></trkpt><trkpt lat="43.2362788" lon="13.1305477"><ele>672.0</ele><time>2026-04-25T09:48:41.568Z</time></trkpt><trkpt lat="43.236254" lon="13.1303792"><ele>672.0</ele><time>2026-04-25T09:48:42.569Z</time></trkpt><trkpt lat="43.2362108" lon="13.1302234"><ele>672.0</ele><time>2026-04-25T09:48:43.564Z</time></trkpt><trkpt lat="43.2361608" lon="13.1300688"><ele>672.0</ele><time>2026-04-25T09:48:44.564Z</time></trkpt><trkpt lat="43.2361431" lon="13.1299109"><ele>672.0</ele><time>2026-04-25T09:48:45.557Z</time></trkpt><trkpt lat="43.2361516" lon="13.1297633"><ele>672.0</ele><time>2026-04-25T09:48:46.55Z</time></trkpt><trkpt lat="43.2361574" lon="13.1296603"><ele>672.0</ele><time>2026-04-25T09:48:47.548Z</time></trkpt><trkpt lat="43.2361529" lon="13.1295651"><ele>672.5</ele><time>2026-04-25T09:48:48.555Z</time></trkpt><trkpt lat="43.2361575" lon="13.1294741"><ele>673.0</ele><time>2026-04-25T09:48:49.549Z</time></trkpt><trkpt lat="43.236188" lon="13.1293359"><ele>673.5</ele><time>2026-04-25T09:48:51.556Z</time></trkpt><trkpt lat="43.2361506" lon="13.1292517"><ele>674.0</ele><time>2026-04-25T09:49:05.573Z</time></trkpt><trkpt lat="43.2361317" lon="13.1291434"><ele>674.5</ele><time>2026-04-25T09:49:18.585Z</time></trkpt><trkpt lat="43.2361043" lon="13.1290521"><ele>675.0</ele><time>2026-04-25T09:49:21.576Z</time></trkpt><trkpt lat="43.2360982" lon="13.1289245"><ele>675.5</ele><time>2026-04-25T09:49:24.569Z</time></trkpt><trkpt lat="43.2361009" lon="13.1287746"><ele>676.0</ele><time>2026-04-25T09:49:26.572Z</time></trkpt><trkpt lat="43.2361029" lon="13.128685"><ele>676.5</ele><time>2026-04-25T09:49:27.574Z</time></trkpt><trkpt lat="43.236101" lon="13.1285887"><ele>677.0</ele><time>2026-04-25T09:49:28.57Z</time></trkpt><trkpt lat="43.2360938" lon="13.1284806"><ele>677.5</ele><time>2026-04-25T09:49:29.572Z</time></trkpt><trkpt lat="43.2360837" lon="13.1283524"><ele>678.0</ele><time>2026-04-25T09:49:30.56Z</time></trkpt><trkpt lat="43.2360626" lon="13.1282387"><ele>678.4</ele><time>2026-04-25T09:49:31.565Z</time></trkpt><trkpt lat="43.2360561" lon="13.1280955"><ele>678.8</ele><time>2026-04-25T09:49:32.564Z</time></trkpt><trkpt lat="43.2360764" lon="13.1279372"><ele>679.2</ele><time>2026-04-25T09:49:33.56Z</time></trkpt><trkpt lat="43.2360943" lon="13.1278171"><ele>679.6</ele><time>2026-04-25T09:49:34.55Z</time></trkpt><trkpt lat="43.2360929" lon="13.1276848"><ele>680.0</ele><time>2026-04-25T09:49:35.563Z</time></trkpt><trkpt lat="43.2361048" lon="13.127521"><ele>681.75</ele><time>2026-04-25T09:49:36.556Z</time></trkpt><trkpt lat="43.2361062" lon="13.1273434"><ele>683.5</ele><time>2026-04-25T09:49:37.559Z</time></trkpt><trkpt lat="43.2361007" lon="13.1271708"><ele>685.25</ele><time>2026-04-25T09:49:38.56Z</time></trkpt><trkpt lat="43.2360768" lon="13.1269948"><ele>687.0</ele><time>2026-04-25T09:49:39.56Z</time></trkpt><trkpt lat="43.2360431" lon="13.1268538"><ele>687.0</ele><time>2026-04-25T09:49:40.554Z</time></trkpt><trkpt lat="43.2360079" lon="13.1267119"><ele>687.0</ele><time>2026-04-25T09:49:41.556Z</time></trkpt><trkpt lat="43.2359812" lon="13.1265538"><ele>687.0</ele><time>2026-04-25T09:49:42.555Z</time></trkpt><trkpt lat="43.235978" lon="13.1263989"><ele>687.0</ele><time>2026-04-25T09:49:43.561Z</time></trkpt><trkpt lat="43.2359476" lon="13.1262349"><ele>689.2</ele><time>2026-04-25T09:49:44.554Z</time></trkpt><trkpt lat="43.2359119" lon="13.1260815"><ele>691.4000000000001</ele><time>2026-04-25T09:49:45.557Z</time></trkpt><trkpt lat="43.235878" lon="13.1259343"><ele>693.5999999999999</ele><time>2026-04-25T09:49:46.554Z</time></trkpt><trkpt lat="43.2358463" lon="13.1257865"><ele>695.8</ele><time>2026-04-25T09:49:47.558Z</time></trkpt><trkpt lat="43.2358259" lon="13.1256454"><ele>698.0</ele><time>2026-04-25T09:49:48.555Z</time></trkpt><trkpt lat="43.2358055" lon="13.1254998"><ele>700.2</ele><time>2026-04-25T09:49:49.556Z</time></trkpt><trkpt lat="43.2357834" lon="13.1253697"><ele>702.4</ele><time>2026-04-25T09:49:50.555Z</time></trkpt><trkpt lat="43.2357593" lon="13.1252427"><ele>704.6</ele><time>2026-04-25T09:49:51.562Z</time></trkpt><trkpt lat="43.2357318" lon="13.1251142"><ele>706.8000000000001</ele><time>2026-04-25T09:49:52.556Z</time></trkpt><trkpt lat="43.2357102" lon="13.1249682"><ele>709.0</ele><time>2026-04-25T09:49:53.558Z</time></trkpt><trkpt lat="43.2357046" lon="13.1248157"><ele>710.0</ele><time>2026-04-25T09:49:54.551Z</time></trkpt><trkpt lat="43.2356884" lon="13.1246629"><ele>711.0</ele><time>2026-04-25T09:49:55.549Z</time></trkpt><trkpt lat="43.2356694" lon="13.1244968"><ele>712.0</ele><time>2026-04-25T09:49:56.565Z</time></trkpt><trkpt lat="43.2356603" lon="13.124347"><ele>713.0</ele><time>2026-04-25T09:49:57.561Z</time></trkpt><trkpt lat="43.2356675" lon="13.1242153"><ele>714.0</ele><time>2026-04-25T09:49:58.559Z</time></trkpt><trkpt lat="43.2356675" lon="13.1240852"><ele>711.4000000000001</ele><time>2026-04-25T09:49:59.564Z</time></trkpt><trkpt lat="43.2356816" lon="13.1239787"><ele>708.8</ele><time>2026-04-25T09:50:00.561Z</time></trkpt><trkpt lat="43.2357906" lon="13.12385"><ele>706.2</ele><time>2026-04-25T09:50:02.555Z</time></trkpt><trkpt lat="43.2358437" lon="13.1237505"><ele>703.5999999999999</ele><time>2026-04-25T09:50:03.563Z</time></trkpt><trkpt lat="43.2358943" lon="13.1236621"><ele>701.0</ele><time>2026-04-25T09:50:04.556Z</time></trkpt><trkpt lat="43.2359642" lon="13.1236059"><ele>701.0</ele><time>2026-04-25T09:50:05.57Z</time></trkpt><trkpt lat="43.2360835" lon="13.1235743"><ele>701.0</ele><time>2026-04-25T09:50:06.559Z</time></trkpt><trkpt lat="43.2362247" lon="13.1235753"><ele>701.0</ele><time>2026-04-25T09:50:07.557Z</time></trkpt><trkpt lat="43.2363666" lon="13.1235764"><ele>701.0</ele><time>2026-04-25T09:50:08.556Z</time></trkpt><trkpt lat="43.2364834" lon="13.1235724"><ele>703.25</ele><time>2026-04-25T09:50:09.558Z</time></trkpt><trkpt lat="43.2366192" lon="13.1235781"><ele>705.5</ele><time>2026-04-25T09:50:10.558Z</time></trkpt><trkpt lat="43.2367602" lon="13.1235898"><ele>707.75</ele><time>2026-04-25T09:50:11.549Z</time></trkpt><trkpt lat="43.2368854" lon="13.1236162"><ele>710.0</ele><time>2026-04-25T09:50:12.553Z</time></trkpt><trkpt lat="43.2370114" lon="13.1236345"><ele>710.0</ele><time>2026-04-25T09:50:13.552Z</time></trkpt><trkpt lat="43.2371216" lon="13.1236234"><ele>710.0</ele><time>2026-04-25T09:50:14.561Z</time></trkpt><trkpt lat="43.2372043" lon="13.1235654"><ele>710.0</ele><time>2026-04-25T09:50:15.552Z</time></trkpt><trkpt lat="43.2372809" lon="13.1234742"><ele>710.0</ele><time>2026-04-25T09:50:16.555Z</time></trkpt><trkpt lat="43.2373665" lon="13.1233737"><ele>710.0</ele><time>2026-04-25T09:50:17.557Z</time></trkpt><trkpt lat="43.2374502" lon="13.1232551"><ele>714.0</ele><time>2026-04-25T09:50:18.561Z</time></trkpt><trkpt lat="43.2375275" lon="13.1231271"><ele>718.0</ele><time>2026-04-25T09:50:19.56Z</time></trkpt><trkpt lat="43.2376035" lon="13.1229921"><ele>722.0</ele><time>2026-04-25T09:50:20.559Z</time></trkpt><trkpt lat="43.237684" lon="13.1228803"><ele>726.0</ele><time>2026-04-25T09:50:21.558Z</time></trkpt><trkpt lat="43.2377759" lon="13.1227662"><ele>726.0</ele><time>2026-04-25T09:50:22.559Z</time></trkpt><trkpt lat="43.2378662" lon="13.1226825"><ele>726.0</ele><time>2026-04-25T09:50:23.558Z</time></trkpt><trkpt lat="43.2379517" lon="13.122596"><ele>726.0</ele><time>2026-04-25T09:50:24.554Z</time></trkpt><trkpt lat="43.2380149" lon="13.1225067"><ele>726.0</ele><time>2026-04-25T09:50:25.558Z</time></trkpt><trkpt lat="43.2380856" lon="13.1224123"><ele>726.0</ele><time>2026-04-25T09:50:26.565Z</time></trkpt><trkpt lat="43.2381636" lon="13.1223096"><ele>726.8</ele><time>2026-04-25T09:50:27.561Z</time></trkpt><trkpt lat="43.2382383" lon="13.1222011"><ele>727.5999999999999</ele><time>2026-04-25T09:50:28.563Z</time></trkpt><trkpt lat="43.2383035" lon="13.1221254"><ele>728.4</ele><time>2026-04-25T09:50:29.565Z</time></trkpt><trkpt lat="43.2383647" lon="13.1219726"><ele>729.2</ele><time>2026-04-25T09:50:31.566Z</time></trkpt><trkpt lat="43.2383691" lon="13.1218703"><ele>730.0</ele><time>2026-04-25T09:50:32.569Z</time></trkpt><trkpt lat="43.2383546" lon="13.1217481"><ele>730.0</ele><time>2026-04-25T09:50:33.561Z</time></trkpt><trkpt lat="43.2383441" lon="13.1216083"><ele>730.0</ele><time>2026-04-25T09:50:34.567Z</time></trkpt><trkpt lat="43.2383421" lon="13.1214634"><ele>730.0</ele><time>2026-04-25T09:50:35.567Z</time></trkpt><trkpt lat="43.2383121" lon="13.1213239"><ele>730.0</ele><time>2026-04-25T09:50:36.568Z</time></trkpt><trkpt lat="43.238307" lon="13.1211846"><ele>730.0</ele><time>2026-04-25T09:50:37.574Z</time></trkpt><trkpt lat="43.2383109" lon="13.1210201"><ele>731.0</ele><time>2026-04-25T09:50:38.564Z</time></trkpt><trkpt lat="43.2383092" lon="13.1208801"><ele>732.0</ele><time>2026-04-25T09:50:39.574Z</time></trkpt><trkpt lat="43.2383113" lon="13.1207755"><ele>733.0</ele><time>2026-04-25T09:50:40.569Z</time></trkpt><trkpt lat="43.2382877" lon="13.1206616"><ele>734.0</ele><time>2026-04-25T09:50:41.572Z</time></trkpt><trkpt lat="43.2382727" lon="13.1205676"><ele>735.0</ele><time>2026-04-25T09:50:42.57Z</time></trkpt><trkpt lat="43.2382564" lon="13.1204729"><ele>736.0</ele><time>2026-04-25T09:50:43.571Z</time></trkpt><trkpt lat="43.238259" lon="13.1203565"><ele>737.1999999999999</ele><time>2026-04-25T09:50:44.565Z</time></trkpt><trkpt lat="43.238256" lon="13.1202352"><ele>738.4</ele><time>2026-04-25T09:50:45.572Z</time></trkpt><trkpt lat="43.2382524" lon="13.1201164"><ele>739.6</ele><time>2026-04-25T09:50:46.565Z</time></trkpt><trkpt lat="43.2382429" lon="13.1199946"><ele>740.8</ele><time>2026-04-25T09:50:47.566Z</time></trkpt><trkpt lat="43.2382674" lon="13.1198599"><ele>742.0</ele><time>2026-04-25T09:50:48.563Z</time></trkpt><trkpt lat="43.2382927" lon="13.1197117"><ele>743.0</ele><time>2026-04-25T09:50:49.576Z</time></trkpt><trkpt lat="43.2383009" lon="13.1195837"><ele>744.0</ele><time>2026-04-25T09:50:50.574Z</time></trkpt><trkpt lat="43.2383106" lon="13.1194534"><ele>745.0</ele><time>2026-04-25T09:50:51.581Z</time></trkpt><trkpt lat="43.2383202" lon="13.1193286"><ele>746.0</ele><time>2026-04-25T09:50:52.572Z</time></trkpt><trkpt lat="43.2383202" lon="13.1191918"><ele>747.0</ele><time>2026-04-25T09:50:53.578Z</time></trkpt><trkpt lat="43.238333" lon="13.1190561"><ele>748.8</ele><time>2026-04-25T09:50:54.569Z</time></trkpt><trkpt lat="43.2383474" lon="13.1189241"><ele>750.6</ele><time>2026-04-25T09:50:55.581Z</time></trkpt><trkpt lat="43.2383715" lon="13.1187994"><ele>752.4</ele><time>2026-04-25T09:50:56.576Z</time></trkpt><trkpt lat="43.2383882" lon="13.1186601"><ele>754.1999999999999</ele><time>2026-04-25T09:50:57.578Z</time></trkpt><trkpt lat="43.238403" lon="13.1185332"><ele>756.0</ele><time>2026-04-25T09:50:58.581Z</time></trkpt><trkpt lat="43.2384162" lon="13.1184129"><ele>756.0</ele><time>2026-04-25T09:50:59.577Z</time></trkpt><trkpt lat="43.2384223" lon="13.118282"><ele>756.0</ele><time>2026-04-25T09:51:00.583Z</time></trkpt><trkpt lat="43.2384317" lon="13.1181351"><ele>756.0</ele><time>2026-04-25T09:51:01.578Z</time></trkpt><trkpt lat="43.2384523" lon="13.117979"><ele>756.0</ele><time>2026-04-25T09:51:02.586Z</time></trkpt><trkpt lat="43.2384722" lon="13.1178153"><ele>756.0</ele><time>2026-04-25T09:51:03.58Z</time></trkpt><trkpt lat="43.2384909" lon="13.1176496"><ele>758.25</ele><time>2026-04-25T09:51:04.587Z</time></trkpt><trkpt lat="43.2385138" lon="13.1174944"><ele>760.5</ele><time>2026-04-25T09:51:05.578Z</time></trkpt><trkpt lat="43.2385301" lon="13.1173261"><ele>762.75</ele><time>2026-04-25T09:51:06.582Z</time></trkpt><trkpt lat="43.2385429" lon="13.1171458"><ele>765.0</ele><time>2026-04-25T09:51:07.58Z</time></trkpt><trkpt lat="43.2385585" lon="13.1169878"><ele>765.8</ele><time>2026-04-25T09:51:08.584Z</time></trkpt><trkpt lat="43.2385636" lon="13.1168512"><ele>766.6</ele><time>2026-04-25T09:51:09.576Z</time></trkpt><trkpt lat="43.2385784" lon="13.1167111"><ele>767.4000000000001</ele><time>2026-04-25T09:51:10.58Z</time></trkpt><trkpt lat="43.2385925" lon="13.1165832"><ele>768.2</ele><time>2026-04-25T09:51:11.584Z</time></trkpt><trkpt lat="43.238584" lon="13.1164504"><ele>769.0</ele><time>2026-04-25T09:51:12.572Z</time></trkpt><trkpt lat="43.2385965" lon="13.1163084"><ele>769.75</ele><time>2026-04-25T09:51:13.579Z</time></trkpt><trkpt lat="43.2386401" lon="13.1161397"><ele>770.5</ele><time>2026-04-25T09:51:14.56Z</time></trkpt><trkpt lat="43.2387094" lon="13.1160117"><ele>771.25</ele><time>2026-04-25T09:51:15.583Z</time></trkpt><trkpt lat="43.2387694" lon="13.11589"><ele>772.0</ele><time>2026-04-25T09:51:16.572Z</time></trkpt><trkpt lat="43.238806" lon="13.1157634"><ele>772.4000000000001</ele><time>2026-04-25T09:51:17.579Z</time></trkpt><trkpt lat="43.2388422" lon="13.1156287"><ele>772.8000000000001</ele><time>2026-04-25T09:51:18.581Z</time></trkpt><trkpt lat="43.2388789" lon="13.1154913"><ele>773.2</ele><time>2026-04-25T09:51:19.58Z</time></trkpt><trkpt lat="43.2389088" lon="13.1153431"><ele>773.6</ele><time>2026-04-25T09:51:20.578Z</time></trkpt><trkpt lat="43.2389197" lon="13.1151994"><ele>774.0</ele><time>2026-04-25T09:51:21.583Z</time></trkpt><trkpt lat="43.238945" lon="13.1150686"><ele>774.0</ele><time>2026-04-25T09:51:22.582Z</time></trkpt><trkpt lat="43.238983" lon="13.1149565"><ele>774.0</ele><time>2026-04-25T09:51:23.576Z</time></trkpt><trkpt lat="43.2390039" lon="13.1148556"><ele>774.0</ele><time>2026-04-25T09:51:24.578Z</time></trkpt><trkpt lat="43.2390105" lon="13.1147357"><ele>774.0</ele><time>2026-04-25T09:51:25.578Z</time></trkpt><trkpt lat="43.2390148" lon="13.1146048"><ele>774.0</ele><time>2026-04-25T09:51:26.568Z</time></trkpt><trkpt lat="43.2390306" lon="13.114474"><ele>774.0</ele><time>2026-04-25T09:51:27.575Z</time></trkpt><trkpt lat="43.2390534" lon="13.1143541"><ele>774.3333333333334</ele><time>2026-04-25T09:51:28.569Z</time></trkpt><trkpt lat="43.2390783" lon="13.1142474"><ele>774.6666666666667</ele><time>2026-04-25T09:51:29.575Z</time></trkpt><trkpt lat="43.2390827" lon="13.1141581"><ele>775.0</ele><time>2026-04-25T09:51:30.576Z</time></trkpt><trkpt lat="43.2390791" lon="13.1140636"><ele>775.3333333333334</ele><time>2026-04-25T09:51:31.566Z</time></trkpt><trkpt lat="43.2391049" lon="13.1139735"><ele>775.6666666666667</ele><time>2026-04-25T09:51:32.57Z</time></trkpt><trkpt lat="43.2391298" lon="13.1138682"><ele>776.0</ele><time>2026-04-25T09:51:33.562Z</time></trkpt><trkpt lat="43.2391492" lon="13.1137375"><ele>776.0</ele><time>2026-04-25T09:51:34.57Z</time></trkpt><trkpt lat="43.2391722" lon="13.1135925"><ele>776.0</ele><time>2026-04-25T09:51:35.564Z</time></trkpt><trkpt lat="43.2391827" lon="13.1134268"><ele>776.0</ele><time>2026-04-25T09:51:36.567Z</time></trkpt><trkpt lat="43.2392001" lon="13.1132551"><ele>776.0</ele><time>2026-04-25T09:51:37.565Z</time></trkpt><trkpt lat="43.2392067" lon="13.113069"><ele>776.0</ele><time>2026-04-25T09:51:38.57Z</time></trkpt><trkpt lat="43.2392162" lon="13.1128809"><ele>776.0</ele><time>2026-04-25T09:51:39.564Z</time></trkpt><trkpt lat="43.2392271" lon="13.1126907"><ele>776.0</ele><time>2026-04-25T09:51:40.573Z</time></trkpt><trkpt lat="43.2392504" lon="13.1125012"><ele>776.0</ele><time>2026-04-25T09:51:41.567Z</time></trkpt><trkpt lat="43.2392632" lon="13.1123137"><ele>775.5</ele><time>2026-04-25T09:51:42.575Z</time></trkpt><trkpt lat="43.2392754" lon="13.1121407"><ele>775.0</ele><time>2026-04-25T09:51:43.567Z</time></trkpt><trkpt lat="43.2392771" lon="13.1119723"><ele>774.5</ele><time>2026-04-25T09:51:44.566Z</time></trkpt><trkpt lat="43.2392759" lon="13.1118225"><ele>774.0</ele><time>2026-04-25T09:51:45.564Z</time></trkpt><trkpt lat="43.2392789" lon="13.1116832"><ele>774.3333333333334</ele><time>2026-04-25T09:51:46.566Z</time></trkpt><trkpt lat="43.2392882" lon="13.1115586"><ele>774.6666666666667</ele><time>2026-04-25T09:51:47.571Z</time></trkpt><trkpt lat="43.2393057" lon="13.1114431"><ele>775.0</ele><time>2026-04-25T09:51:48.567Z</time></trkpt><trkpt lat="43.2393297" lon="13.1113343"><ele>775.3333333333334</ele><time>2026-04-25T09:51:49.575Z</time></trkpt><trkpt lat="43.2393493" lon="13.11124"><ele>775.6666666666667</ele><time>2026-04-25T09:51:50.573Z</time></trkpt><trkpt lat="43.2393872" lon="13.1111402"><ele>776.0</ele><time>2026-04-25T09:51:51.575Z</time></trkpt><trkpt lat="43.2394269" lon="13.111038"><ele>776.0</ele><time>2026-04-25T09:51:52.571Z</time></trkpt><trkpt lat="43.2394613" lon="13.1109516"><ele>776.0</ele><time>2026-04-25T09:51:53.572Z</time></trkpt><trkpt lat="43.2395052" lon="13.1108296"><ele>776.0</ele><time>2026-04-25T09:51:55.576Z</time></trkpt><trkpt lat="43.2395844" lon="13.1107295"><ele>776.0</ele><time>2026-04-25T09:51:57.57Z</time></trkpt><trkpt lat="43.2396718" lon="13.1106619"><ele>776.0</ele><time>2026-04-25T09:51:59.567Z</time></trkpt><trkpt lat="43.2397636" lon="13.1106474"><ele>777.6666666666667</ele><time>2026-04-25T09:52:01.568Z</time></trkpt><trkpt lat="43.2398461" lon="13.1106187"><ele>779.3333333333334</ele><time>2026-04-25T09:52:03.564Z</time></trkpt><trkpt lat="43.2399525" lon="13.110586"><ele>781.0</ele><time>2026-04-25T09:52:05.565Z</time></trkpt><trkpt lat="43.240016" lon="13.1105876"><ele>782.6666666666667</ele><time>2026-04-25T09:52:06.57Z</time></trkpt><trkpt lat="43.2400819" lon="13.1105832"><ele>784.3333333333334</ele><time>2026-04-25T09:52:07.559Z</time></trkpt><trkpt lat="43.2401478" lon="13.1105793"><ele>786.0</ele><time>2026-04-25T09:52:08.569Z</time></trkpt><trkpt lat="43.2402166" lon="13.1105661"><ele>786.0000000000001</ele><time>2026-04-25T09:52:09.564Z</time></trkpt><trkpt lat="43.2402851" lon="13.1105575"><ele>786.0</ele><time>2026-04-25T09:52:10.561Z</time></trkpt><trkpt lat="43.2403482" lon="13.1105294"><ele>786.0</ele><time>2026-04-25T09:52:11.561Z</time></trkpt><trkpt lat="43.2404142" lon="13.110507"><ele>786.0</ele><time>2026-04-25T09:52:12.562Z</time></trkpt><trkpt lat="43.2404855" lon="13.1105032"><ele>786.0</ele><time>2026-04-25T09:52:13.566Z</time></trkpt><trkpt lat="43.2405551" lon="13.1105191"><ele>786.0000000000001</ele><time>2026-04-25T09:52:14.563Z</time></trkpt><trkpt lat="43.240624" lon="13.1105195"><ele>786.0</ele><time>2026-04-25T09:52:15.564Z</time></trkpt><trkpt lat="43.240691" lon="13.1105395"><ele>785.3333333333334</ele><time>2026-04-25T09:52:16.567Z</time></trkpt><trkpt lat="43.2407622" lon="13.1105697"><ele>784.6666666666667</ele><time>2026-04-25T09:52:17.569Z</time></trkpt><trkpt lat="43.2408315" lon="13.1106092"><ele>784.0</ele><time>2026-04-25T09:52:18.567Z</time></trkpt><trkpt lat="43.2408968" lon="13.1106565"><ele>783.3333333333334</ele><time>2026-04-25T09:52:19.566Z</time></trkpt><trkpt lat="43.2409763" lon="13.1106986"><ele>782.6666666666667</ele><time>2026-04-25T09:52:20.572Z</time></trkpt><trkpt lat="43.2410598" lon="13.1107419"><ele>782.0</ele><time>2026-04-25T09:52:21.571Z</time></trkpt><trkpt lat="43.2411473" lon="13.1107907"><ele>782.0</ele><time>2026-04-25T09:52:22.566Z</time></trkpt><trkpt lat="43.2412323" lon="13.110827"><ele>782.0</ele><time>2026-04-25T09:52:23.572Z</time></trkpt><trkpt lat="43.2413339" lon="13.1108506"><ele>782.0</ele><time>2026-04-25T09:52:24.566Z</time></trkpt><trkpt lat="43.2414374" lon="13.1108602"><ele>782.0</ele><time>2026-04-25T09:52:25.571Z</time></trkpt><trkpt lat="43.2415254" lon="13.1108624"><ele>782.0</ele><time>2026-04-25T09:52:26.572Z</time></trkpt><trkpt lat="43.2416109" lon="13.110854"><ele>785.2</ele><time>2026-04-25T09:52:27.569Z</time></trkpt><trkpt lat="43.2416999" lon="13.1108697"><ele>788.4000000000001</ele><time>2026-04-25T09:52:28.574Z</time></trkpt><trkpt lat="43.2417957" lon="13.1109018"><ele>791.5999999999999</ele><time>2026-04-25T09:52:29.571Z</time></trkpt><trkpt lat="43.2419026" lon="13.1109292"><ele>794.8</ele><time>2026-04-25T09:52:30.57Z</time></trkpt><trkpt lat="43.2420112" lon="13.1109402"><ele>798.0</ele><time>2026-04-25T09:52:31.568Z</time></trkpt><trkpt lat="43.2421099" lon="13.110925"><ele>798.0</ele><time>2026-04-25T09:52:32.57Z</time></trkpt><trkpt lat="43.2422039" lon="13.1109132"><ele>798.0</ele><time>2026-04-25T09:52:33.566Z</time></trkpt><trkpt lat="43.2422963" lon="13.1109224"><ele>798.0</ele><time>2026-04-25T09:52:34.567Z</time></trkpt><trkpt lat="43.2423933" lon="13.1109445"><ele>798.0</ele><time>2026-04-25T09:52:35.564Z</time></trkpt><trkpt lat="43.2424825" lon="13.1109605"><ele>798.0</ele><time>2026-04-25T09:52:36.567Z</time></trkpt><trkpt lat="43.2425776" lon="13.1109583"><ele>799.8</ele><time>2026-04-25T09:52:37.564Z</time></trkpt><trkpt lat="43.2426757" lon="13.1109447"><ele>801.5999999999999</ele><time>2026-04-25T09:52:38.566Z</time></trkpt><trkpt lat="43.242758" lon="13.1109234"><ele>803.4000000000001</ele><time>2026-04-25T09:52:39.559Z</time></trkpt><trkpt lat="43.2428434" lon="13.1108883"><ele>805.2</ele><time>2026-04-25T09:52:40.568Z</time></trkpt><trkpt lat="43.2429341" lon="13.1108443"><ele>807.0</ele><time>2026-04-25T09:52:41.562Z</time></trkpt><trkpt lat="43.2430205" lon="13.1107952"><ele>808.0</ele><time>2026-04-25T09:52:42.572Z</time></trkpt><trkpt lat="43.2431159" lon="13.1107201"><ele>809.0</ele><time>2026-04-25T09:52:43.57Z</time></trkpt><trkpt lat="43.2432122" lon="13.1106438"><ele>810.0</ele><time>2026-04-25T09:52:44.57Z</time></trkpt><trkpt lat="43.2432919" lon="13.1105749"><ele>811.0</ele><time>2026-04-25T09:52:45.57Z</time></trkpt><trkpt lat="43.2433495" lon="13.1105091"><ele>812.0</ele><time>2026-04-25T09:52:46.564Z</time></trkpt><trkpt lat="43.2434096" lon="13.1104103"><ele>812.0000000000001</ele><time>2026-04-25T09:52:48.57Z</time></trkpt><trkpt lat="43.2434778" lon="13.1103816"><ele>812.0</ele><time>2026-04-25T09:52:50.568Z</time></trkpt><trkpt lat="43.2435397" lon="13.1102801"><ele>812.0</ele><time>2026-04-25T09:52:53.569Z</time></trkpt><trkpt lat="43.243616" lon="13.1102238"><ele>812.0</ele><time>2026-04-25T09:52:55.567Z</time></trkpt><trkpt lat="43.2436626" lon="13.1101583"><ele>812.0000000000001</ele><time>2026-04-25T09:52:56.563Z</time></trkpt><trkpt lat="43.2437018" lon="13.1100661"><ele>812.0</ele><time>2026-04-25T09:52:57.562Z</time></trkpt><trkpt lat="43.2437546" lon="13.1099943"><ele>812.0</ele><time>2026-04-25T09:52:58.565Z</time></trkpt><trkpt lat="43.243826" lon="13.1099094"><ele>812.0</ele><time>2026-04-25T09:52:59.567Z</time></trkpt><trkpt lat="43.2438982" lon="13.1098156"><ele>812.0</ele><time>2026-04-25T09:53:00.567Z</time></trkpt><trkpt lat="43.2439551" lon="13.1097106"><ele>812.0</ele><time>2026-04-25T09:53:01.571Z</time></trkpt><trkpt lat="43.244021" lon="13.1096112"><ele>812.0</ele><time>2026-04-25T09:53:02.563Z</time></trkpt><trkpt lat="43.2440802" lon="13.1095053"><ele>811.6</ele><time>2026-04-25T09:53:03.568Z</time></trkpt><trkpt lat="43.2441333" lon="13.1094117"><ele>811.2</ele><time>2026-04-25T09:53:04.565Z</time></trkpt><trkpt lat="43.2441906" lon="13.1093041"><ele>810.8</ele><time>2026-04-25T09:53:05.567Z</time></trkpt><trkpt lat="43.2442447" lon="13.1092103"><ele>810.4</ele><time>2026-04-25T09:53:06.567Z</time></trkpt><trkpt lat="43.2443006" lon="13.109113"><ele>810.0</ele><time>2026-04-25T09:53:07.563Z</time></trkpt><trkpt lat="43.2443433" lon="13.1089915"><ele>810.0</ele><time>2026-04-25T09:53:08.572Z</time></trkpt><trkpt lat="43.244401" lon="13.1088788"><ele>810.0</ele><time>2026-04-25T09:53:09.566Z</time></trkpt><trkpt lat="43.2444588" lon="13.1087605"><ele>810.0</ele><time>2026-04-25T09:53:10.566Z</time></trkpt><trkpt lat="43.2445154" lon="13.1086491"><ele>810.0</ele><time>2026-04-25T09:53:11.572Z</time></trkpt><trkpt lat="43.2445743" lon="13.1085316"><ele>810.0</ele><time>2026-04-25T09:53:12.569Z</time></trkpt><trkpt lat="43.2446391" lon="13.1084365"><ele>810.0</ele><time>2026-04-25T09:53:13.572Z</time></trkpt><trkpt lat="43.2447181" lon="13.1083413"><ele>810.0</ele><time>2026-04-25T09:53:14.573Z</time></trkpt><trkpt lat="43.2447962" lon="13.1082474"><ele>810.0</ele><time>2026-04-25T09:53:15.572Z</time></trkpt><trkpt lat="43.2448702" lon="13.1081534"><ele>810.0</ele><time>2026-04-25T09:53:16.58Z</time></trkpt><trkpt lat="43.2449302" lon="13.1080653"><ele>810.0</ele><time>2026-04-25T09:53:17.568Z</time></trkpt><trkpt lat="43.2449831" lon="13.1079837"><ele>808.5</ele><time>2026-04-25T09:53:18.566Z</time></trkpt><trkpt lat="43.2450354" lon="13.1079188"><ele>807.0</ele><time>2026-04-25T09:53:19.569Z</time></trkpt><trkpt lat="43.2451132" lon="13.1078264"><ele>805.5</ele><time>2026-04-25T09:53:21.571Z</time></trkpt><trkpt lat="43.2451878" lon="13.1077535"><ele>804.0</ele><time>2026-04-25T09:53:23.569Z</time></trkpt><trkpt lat="43.2452636" lon="13.1077147"><ele>802.5</ele><time>2026-04-25T09:53:25.569Z</time></trkpt><trkpt lat="43.2453332" lon="13.1076727"><ele>801.0</ele><time>2026-04-25T09:53:27.565Z</time></trkpt><trkpt lat="43.2454273" lon="13.1076008"><ele>801.0</ele><time>2026-04-25T09:53:29.569Z</time></trkpt><trkpt lat="43.2455064" lon="13.1075363"><ele>801.0</ele><time>2026-04-25T09:53:31.569Z</time></trkpt><trkpt lat="43.2456245" lon="13.1074752"><ele>801.0</ele><time>2026-04-25T09:53:33.564Z</time></trkpt><trkpt lat="43.2457184" lon="13.1074167"><ele>801.0</ele><time>2026-04-25T09:53:35.561Z</time></trkpt><trkpt lat="43.2457995" lon="13.1073385"><ele>801.0</ele><time>2026-04-25T09:53:37.567Z</time></trkpt><trkpt lat="43.2459143" lon="13.1072353"><ele>801.1999999999999</ele><time>2026-04-25T09:53:39.564Z</time></trkpt><trkpt lat="43.2459855" lon="13.107184"><ele>801.4</ele><time>2026-04-25T09:53:40.566Z</time></trkpt><trkpt lat="43.246052" lon="13.1071262"><ele>801.6</ele><time>2026-04-25T09:53:41.561Z</time></trkpt><trkpt lat="43.2461303" lon="13.1070716"><ele>801.8</ele><time>2026-04-25T09:53:42.564Z</time></trkpt><trkpt lat="43.2462138" lon="13.1070034"><ele>802.0</ele><time>2026-04-25T09:53:43.561Z</time></trkpt><trkpt lat="43.2463124" lon="13.1069235"><ele>802.0</ele><time>2026-04-25T09:53:44.565Z</time></trkpt><trkpt lat="43.2464064" lon="13.1068392"><ele>802.0</ele><time>2026-04-25T09:53:45.555Z</time></trkpt><trkpt lat="43.2465081" lon="13.106772"><ele>802.0</ele><time>2026-04-25T09:53:46.563Z</time></trkpt><trkpt lat="43.2466038" lon="13.1067122"><ele>802.0</ele><time>2026-04-25T09:53:47.566Z</time></trkpt><trkpt lat="43.2466977" lon="13.1066724"><ele>802.0</ele><time>2026-04-25T09:53:48.564Z</time></trkpt><trkpt lat="43.2467852" lon="13.1066325"><ele>803.0</ele><time>2026-04-25T09:53:49.566Z</time></trkpt><trkpt lat="43.2468435" lon="13.1065929"><ele>804.0</ele><time>2026-04-25T09:53:50.562Z</time></trkpt><trkpt lat="43.2469113" lon="13.1064395"><ele>805.0</ele><time>2026-04-25T09:53:52.558Z</time></trkpt><trkpt lat="43.2469087" lon="13.1063303"><ele>806.0</ele><time>2026-04-25T09:53:53.568Z</time></trkpt><trkpt lat="43.2468896" lon="13.1062058"><ele>807.0</ele><time>2026-04-25T09:53:54.559Z</time></trkpt><trkpt lat="43.2468624" lon="13.1060748"><ele>808.4000000000001</ele><time>2026-04-25T09:53:55.568Z</time></trkpt><trkpt lat="43.2468384" lon="13.105938"><ele>809.8000000000001</ele><time>2026-04-25T09:53:56.563Z</time></trkpt><trkpt lat="43.2468186" lon="13.1058044"><ele>811.2</ele><time>2026-04-25T09:53:57.563Z</time></trkpt><trkpt lat="43.2467984" lon="13.1056673"><ele>812.6</ele><time>2026-04-25T09:53:58.561Z</time></trkpt><trkpt lat="43.2467634" lon="13.1055349"><ele>814.0</ele><time>2026-04-25T09:53:59.561Z</time></trkpt><trkpt lat="43.2467356" lon="13.1054291"><ele>815.8333333333333</ele><time>2026-04-25T09:54:00.552Z</time></trkpt><trkpt lat="43.2467382" lon="13.1053294"><ele>817.6666666666666</ele><time>2026-04-25T09:54:02.555Z</time></trkpt><trkpt lat="43.2467953" lon="13.1052791"><ele>819.5</ele><time>2026-04-25T09:54:04.554Z</time></trkpt><trkpt lat="43.2468764" lon="13.1053147"><ele>821.3333333333333</ele><time>2026-04-25T09:54:06.554Z</time></trkpt><trkpt lat="43.2469368" lon="13.1054807"><ele>823.1666666666666</ele><time>2026-04-25T09:54:08.551Z</time></trkpt><trkpt lat="43.2469726" lon="13.1055802"><ele>825.0</ele><time>2026-04-25T09:54:09.547Z</time></trkpt><trkpt lat="43.2470337" lon="13.1056778"><ele>826.8</ele><time>2026-04-25T09:54:10.548Z</time></trkpt><trkpt lat="43.2471115" lon="13.1057921"><ele>828.6</ele><time>2026-04-25T09:54:11.552Z</time></trkpt><trkpt lat="43.247191" lon="13.1059207"><ele>830.4000000000001</ele><time>2026-04-25T09:54:12.558Z</time></trkpt><trkpt lat="43.2472573" lon="13.106032"><ele>832.2</ele><time>2026-04-25T09:54:13.556Z</time></trkpt><trkpt lat="43.2473073" lon="13.1061197"><ele>834.0</ele><time>2026-04-25T09:54:14.549Z</time></trkpt><trkpt lat="43.2473804" lon="13.1062154"><ele>834.0</ele><time>2026-04-25T09:54:16.559Z</time></trkpt><trkpt lat="43.2474426" lon="13.1061993"><ele>834.0</ele><time>2026-04-25T09:54:18.556Z</time></trkpt><trkpt lat="43.2474714" lon="13.1060917"><ele>834.0</ele><time>2026-04-25T09:54:20.563Z</time></trkpt><trkpt lat="43.2474026" lon="13.1059273"><ele>834.0</ele><time>2026-04-25T09:54:22.56Z</time></trkpt><trkpt lat="43.247363" lon="13.1058265"><ele>834.0</ele><time>2026-04-25T09:54:23.553Z</time></trkpt><trkpt lat="43.2473153" lon="13.1057287"><ele>835.1666666666666</ele><time>2026-04-25T09:54:24.564Z</time></trkpt><trkpt lat="43.247285" lon="13.1056433"><ele>836.3333333333333</ele><time>2026-04-25T09:54:25.56Z</time></trkpt><trkpt lat="43.2472616" lon="13.1055452"><ele>837.5</ele><time>2026-04-25T09:54:26.559Z</time></trkpt><trkpt lat="43.2472559" lon="13.1053846"><ele>838.6666666666666</ele><time>2026-04-25T09:54:28.553Z</time></trkpt><trkpt lat="43.2473462" lon="13.1053461"><ele>839.8333333333333</ele><time>2026-04-25T09:54:30.556Z</time></trkpt><trkpt lat="43.2474353" lon="13.105366"><ele>841.0</ele><time>2026-04-25T09:54:31.556Z</time></trkpt><trkpt lat="43.247543" lon="13.1053916"><ele>840.9999999999999</ele><time>2026-04-25T09:54:32.562Z</time></trkpt><trkpt lat="43.2476364" lon="13.1053981"><ele>841.0</ele><time>2026-04-25T09:54:33.554Z</time></trkpt><trkpt lat="43.2477174" lon="13.1053879"><ele>841.0</ele><time>2026-04-25T09:54:34.563Z</time></trkpt><trkpt lat="43.2477885" lon="13.1053438"><ele>841.0</ele><time>2026-04-25T09:54:35.567Z</time></trkpt><trkpt lat="43.2478402" lon="13.1052682"><ele>840.9999999999999</ele><time>2026-04-25T09:54:36.566Z</time></trkpt><trkpt lat="43.2478809" lon="13.1051581"><ele>841.0</ele><time>2026-04-25T09:54:37.559Z</time></trkpt><trkpt lat="43.2479217" lon="13.1050454"><ele>841.0</ele><time>2026-04-25T09:54:38.552Z</time></trkpt><trkpt lat="43.2479607" lon="13.1049215"><ele>841.0</ele><time>2026-04-25T09:54:39.564Z</time></trkpt><trkpt lat="43.2480076" lon="13.1047724"><ele>841.0</ele><time>2026-04-25T09:54:40.559Z</time></trkpt><trkpt lat="43.2480555" lon="13.1046234"><ele>841.0</ele><time>2026-04-25T09:54:41.566Z</time></trkpt><trkpt lat="43.2481" lon="13.1044701"><ele>840.5</ele><time>2026-04-25T09:54:42.557Z</time></trkpt><trkpt lat="43.2481358" lon="13.1043217"><ele>840.0</ele><time>2026-04-25T09:54:43.561Z</time></trkpt><trkpt lat="43.248166" lon="13.1041611"><ele>839.5</ele><time>2026-04-25T09:54:44.564Z</time></trkpt><trkpt lat="43.248194" lon="13.1039891"><ele>839.0</ele><time>2026-04-25T09:54:45.569Z</time></trkpt><trkpt lat="43.248214" lon="13.1038356"><ele>838.25</ele><time>2026-04-25T09:54:46.569Z</time></trkpt><trkpt lat="43.2482434" lon="13.103674"><ele>837.5</ele><time>2026-04-25T09:54:47.568Z</time></trkpt><trkpt lat="43.2482806" lon="13.1035022"><ele>836.75</ele><time>2026-04-25T09:54:48.563Z</time></trkpt><trkpt lat="43.2483106" lon="13.1033451"><ele>836.0</ele><time>2026-04-25T09:54:49.578Z</time></trkpt><trkpt lat="43.2483485" lon="13.1031885"><ele>834.0</ele><time>2026-04-25T09:54:50.563Z</time></trkpt><trkpt lat="43.2483826" lon="13.1030311"><ele>832.0</ele><time>2026-04-25T09:54:51.57Z</time></trkpt><trkpt lat="43.2484161" lon="13.1028714"><ele>830.0</ele><time>2026-04-25T09:54:52.576Z</time></trkpt><trkpt lat="43.2484458" lon="13.1027242"><ele>828.0</ele><time>2026-04-25T09:54:53.578Z</time></trkpt><trkpt lat="43.2484732" lon="13.1025822"><ele>828.0</ele><time>2026-04-25T09:54:54.578Z</time></trkpt><trkpt lat="43.2484915" lon="13.1024437"><ele>828.0</ele><time>2026-04-25T09:54:55.582Z</time></trkpt><trkpt lat="43.2485135" lon="13.1023095"><ele>828.0</ele><time>2026-04-25T09:54:56.579Z</time></trkpt><trkpt lat="43.248548" lon="13.1021603"><ele>828.0</ele><time>2026-04-25T09:54:57.582Z</time></trkpt><trkpt lat="43.2485917" lon="13.1020158"><ele>828.0</ele><time>2026-04-25T09:54:58.592Z</time></trkpt><trkpt lat="43.248635" lon="13.1018568"><ele>825.5</ele><time>2026-04-25T09:54:59.593Z</time></trkpt><trkpt lat="43.248673" lon="13.1016928"><ele>823.0</ele><time>2026-04-25T09:55:00.59Z</time></trkpt><trkpt lat="43.2487062" lon="13.1015339"><ele>820.5</ele><time>2026-04-25T09:55:01.584Z</time></trkpt><trkpt lat="43.2487292" lon="13.1013776"><ele>818.0</ele><time>2026-04-25T09:55:02.58Z</time></trkpt><trkpt lat="43.2487454" lon="13.1012346"><ele>816.8</ele><time>2026-04-25T09:55:03.582Z</time></trkpt><trkpt lat="43.248755" lon="13.1010888"><ele>815.5999999999999</ele><time>2026-04-25T09:55:04.582Z</time></trkpt><trkpt lat="43.2487606" lon="13.1009393"><ele>814.4000000000001</ele><time>2026-04-25T09:55:05.582Z</time></trkpt><trkpt lat="43.2487601" lon="13.1007927"><ele>813.2</ele><time>2026-04-25T09:55:06.579Z</time></trkpt><trkpt lat="43.2487546" lon="13.1006448"><ele>812.0</ele><time>2026-04-25T09:55:07.574Z</time></trkpt><trkpt lat="43.2487498" lon="13.1005231"><ele>810.8</ele><time>2026-04-25T09:55:08.578Z</time></trkpt><trkpt lat="43.2487377" lon="13.1003892"><ele>809.6</ele><time>2026-04-25T09:55:09.578Z</time></trkpt><trkpt lat="43.2487321" lon="13.1002648"><ele>808.4</ele><time>2026-04-25T09:55:10.582Z</time></trkpt><trkpt lat="43.2487352" lon="13.1001569"><ele>807.1999999999999</ele><time>2026-04-25T09:55:11.578Z</time></trkpt><trkpt lat="43.2487618" lon="13.1000407"><ele>806.0</ele><time>2026-04-25T09:55:12.575Z</time></trkpt><trkpt lat="43.2488063" lon="13.0999098"><ele>808.1999999999999</ele><time>2026-04-25T09:55:13.573Z</time></trkpt><trkpt lat="43.2488474" lon="13.0997755"><ele>810.4</ele><time>2026-04-25T09:55:14.579Z</time></trkpt><trkpt lat="43.248899" lon="13.0996448"><ele>812.6</ele><time>2026-04-25T09:55:15.576Z</time></trkpt><trkpt lat="43.2489511" lon="13.0995108"><ele>814.8</ele><time>2026-04-25T09:55:16.58Z</time></trkpt><trkpt lat="43.2490074" lon="13.0993776"><ele>817.0</ele><time>2026-04-25T09:55:17.575Z</time></trkpt><trkpt lat="43.2490445" lon="13.0992497"><ele>816.9999999999999</ele><time>2026-04-25T09:55:18.583Z</time></trkpt><trkpt lat="43.2490619" lon="13.0991223"><ele>817.0</ele><time>2026-04-25T09:55:19.573Z</time></trkpt><trkpt lat="43.2490749" lon="13.0990049"><ele>817.0</ele><time>2026-04-25T09:55:20.579Z</time></trkpt><trkpt lat="43.249084" lon="13.0988994"><ele>817.0</ele><time>2026-04-25T09:55:21.575Z</time></trkpt><trkpt lat="43.2490733" lon="13.0987991"><ele>816.9999999999999</ele><time>2026-04-25T09:55:22.58Z</time></trkpt><trkpt lat="43.249078" lon="13.0986922"><ele>817.0</ele><time>2026-04-25T09:55:23.581Z</time></trkpt><trkpt lat="43.249062" lon="13.0985742"><ele>815.9999999999999</ele><time>2026-04-25T09:55:24.575Z</time></trkpt><trkpt lat="43.2490418" lon="13.0984601"><ele>815.0</ele><time>2026-04-25T09:55:25.577Z</time></trkpt><trkpt lat="43.2490333" lon="13.0983597"><ele>814.0</ele><time>2026-04-25T09:55:26.571Z</time></trkpt><trkpt lat="43.2490276" lon="13.0982632"><ele>813.0</ele><time>2026-04-25T09:55:27.574Z</time></trkpt><trkpt lat="43.2490122" lon="13.0981741"><ele>811.9999999999999</ele><time>2026-04-25T09:55:28.57Z</time></trkpt><trkpt lat="43.2489835" lon="13.0980248"><ele>811.0</ele><time>2026-04-25T09:55:30.582Z</time></trkpt><trkpt lat="43.2490214" lon="13.0978874"><ele>807.9999999999999</ele><time>2026-04-25T09:55:32.575Z</time></trkpt><trkpt lat="43.2490788" lon="13.0978251"><ele>805.0</ele><time>2026-04-25T09:55:33.585Z</time></trkpt><trkpt lat="43.2491597" lon="13.0978073"><ele>802.0</ele><time>2026-04-25T09:55:34.583Z</time></trkpt><trkpt lat="43.2492417" lon="13.0978448"><ele>799.0</ele><time>2026-04-25T09:55:35.574Z</time></trkpt><trkpt lat="43.2493228" lon="13.0979083"><ele>795.9999999999999</ele><time>2026-04-25T09:55:36.574Z</time></trkpt><trkpt lat="43.2494155" lon="13.0980002"><ele>793.0</ele><time>2026-04-25T09:55:37.569Z</time></trkpt><trkpt lat="43.2495105" lon="13.0980938"><ele>793.0</ele><time>2026-04-25T09:55:38.573Z</time></trkpt><trkpt lat="43.2496086" lon="13.0982029"><ele>793.0</ele><time>2026-04-25T09:55:39.583Z</time></trkpt><trkpt lat="43.2497054" lon="13.0983084"><ele>793.0</ele><time>2026-04-25T09:55:40.572Z</time></trkpt><trkpt lat="43.2498066" lon="13.0984208"><ele>793.0</ele><time>2026-04-25T09:55:41.585Z</time></trkpt><trkpt lat="43.2498975" lon="13.0985171"><ele>794.0</ele><time>2026-04-25T09:55:42.581Z</time></trkpt><trkpt lat="43.2499828" lon="13.098614"><ele>795.0</ele><time>2026-04-25T09:55:43.578Z</time></trkpt><trkpt lat="43.2500728" lon="13.0987062"><ele>796.0</ele><time>2026-04-25T09:55:44.58Z</time></trkpt><trkpt lat="43.2501532" lon="13.0987922"><ele>797.0</ele><time>2026-04-25T09:55:45.582Z</time></trkpt><trkpt lat="43.2502195" lon="13.0988922"><ele>798.0</ele><time>2026-04-25T09:55:46.588Z</time></trkpt><trkpt lat="43.2502758" lon="13.098972"><ele>798.0</ele><time>2026-04-25T09:55:47.586Z</time></trkpt><trkpt lat="43.2503446" lon="13.0990347"><ele>798.0</ele><time>2026-04-25T09:55:48.581Z</time></trkpt><trkpt lat="43.2504219" lon="13.0990708"><ele>798.0</ele><time>2026-04-25T09:55:49.584Z</time></trkpt><trkpt lat="43.2505197" lon="13.0990797"><ele>798.0</ele><time>2026-04-25T09:55:50.585Z</time></trkpt><trkpt lat="43.2506187" lon="13.0990642"><ele>798.0</ele><time>2026-04-25T09:55:51.599Z</time></trkpt><trkpt lat="43.2507067" lon="13.0990794"><ele>797.6666666666666</ele><time>2026-04-25T09:55:52.599Z</time></trkpt><trkpt lat="43.2507809" lon="13.0991221"><ele>797.3333333333333</ele><time>2026-04-25T09:55:53.588Z</time></trkpt><trkpt lat="43.2508522" lon="13.0991962"><ele>797.0</ele><time>2026-04-25T09:55:54.583Z</time></trkpt><trkpt lat="43.2509098" lon="13.0992992"><ele>796.6666666666666</ele><time>2026-04-25T09:55:55.583Z</time></trkpt><trkpt lat="43.2509489" lon="13.099408"><ele>796.3333333333333</ele><time>2026-04-25T09:55:56.582Z</time></trkpt><trkpt lat="43.2509822" lon="13.0995085"><ele>796.0</ele><time>2026-04-25T09:55:57.589Z</time></trkpt><trkpt lat="43.2510085" lon="13.0995993"><ele>796.0</ele><time>2026-04-25T09:55:58.594Z</time></trkpt><trkpt lat="43.2510415" lon="13.0997738"><ele>796.0</ele><time>2026-04-25T09:56:00.592Z</time></trkpt><trkpt lat="43.2510687" lon="13.0998779"><ele>796.0</ele><time>2026-04-25T09:56:01.588Z</time></trkpt><trkpt lat="43.2511043" lon="13.0999991"><ele>796.0</ele><time>2026-04-25T09:56:02.593Z</time></trkpt><trkpt lat="43.251139" lon="13.1001279"><ele>796.0</ele><time>2026-04-25T09:56:03.58Z</time></trkpt><trkpt lat="43.251166" lon="13.1002564"><ele>795.4999999999999</ele><time>2026-04-25T09:56:04.589Z</time></trkpt><trkpt lat="43.2512051" lon="13.1003619"><ele>795.0</ele><time>2026-04-25T09:56:05.583Z</time></trkpt><trkpt lat="43.25125" lon="13.1004458"><ele>794.5</ele><time>2026-04-25T09:56:06.59Z</time></trkpt><trkpt lat="43.2513024" lon="13.1005078"><ele>794.0</ele><time>2026-04-25T09:56:07.586Z</time></trkpt><trkpt lat="43.2513655" lon="13.1005569"><ele>793.4999999999999</ele><time>2026-04-25T09:56:08.58Z</time></trkpt><trkpt lat="43.2514409" lon="13.100572"><ele>793.0</ele><time>2026-04-25T09:56:09.584Z</time></trkpt><trkpt lat="43.2515235" lon="13.1005525"><ele>793.0000000000001</ele><time>2026-04-25T09:56:10.581Z</time></trkpt><trkpt lat="43.2515981" lon="13.1005225"><ele>793.0</ele><time>2026-04-25T09:56:11.579Z</time></trkpt><trkpt lat="43.2516726" lon="13.1004791"><ele>793.0</ele><time>2026-04-25T09:56:12.587Z</time></trkpt><trkpt lat="43.2517331" lon="13.1004338"><ele>793.0</ele><time>2026-04-25T09:56:13.582Z</time></trkpt><trkpt lat="43.2517946" lon="13.1003725"><ele>793.0</ele><time>2026-04-25T09:56:14.586Z</time></trkpt><trkpt lat="43.2518492" lon="13.1003117"><ele>793.0000000000001</ele><time>2026-04-25T09:56:15.579Z</time></trkpt><trkpt lat="43.2518886" lon="13.1002246"><ele>793.0</ele><time>2026-04-25T09:56:16.579Z</time></trkpt><trkpt lat="43.2519131" lon="13.1001265"><ele>792.9999999999999</ele><time>2026-04-25T09:56:17.574Z</time></trkpt><trkpt lat="43.2519213" lon="13.1000146"><ele>793.0</ele><time>2026-04-25T09:56:18.568Z</time></trkpt><trkpt lat="43.2519189" lon="13.0998914"><ele>793.0</ele><time>2026-04-25T09:56:19.573Z</time></trkpt><trkpt lat="43.2519097" lon="13.0997925"><ele>793.0</ele><time>2026-04-25T09:56:20.575Z</time></trkpt><trkpt lat="43.2519173" lon="13.0996965"><ele>792.9999999999999</ele><time>2026-04-25T09:56:21.582Z</time></trkpt><trkpt lat="43.2519279" lon="13.0996059"><ele>793.0</ele><time>2026-04-25T09:56:22.583Z</time></trkpt><trkpt lat="43.2519968" lon="13.0994853"><ele>788.0</ele><time>2026-04-25T09:56:24.569Z</time></trkpt><trkpt lat="43.2521153" lon="13.0994885"><ele>783.0</ele><time>2026-04-25T09:56:26.575Z</time></trkpt><trkpt lat="43.2521919" lon="13.0995535"><ele>778.0</ele><time>2026-04-25T09:56:27.584Z</time></trkpt><trkpt lat="43.2522662" lon="13.0996205"><ele>773.0</ele><time>2026-04-25T09:56:28.573Z</time></trkpt><trkpt lat="43.2523457" lon="13.0997092"><ele>768.0</ele><time>2026-04-25T09:56:29.588Z</time></trkpt><trkpt lat="43.2524352" lon="13.0998181"><ele>769.4</ele><time>2026-04-25T09:56:30.582Z</time></trkpt><trkpt lat="43.2525226" lon="13.0998955"><ele>770.8</ele><time>2026-04-25T09:56:31.581Z</time></trkpt><trkpt lat="43.2525966" lon="13.0999734"><ele>772.2</ele><time>2026-04-25T09:56:32.579Z</time></trkpt><trkpt lat="43.2526622" lon="13.1000601"><ele>773.6</ele><time>2026-04-25T09:56:33.579Z</time></trkpt><trkpt lat="43.25271" lon="13.1001479"><ele>775.0</ele><time>2026-04-25T09:56:34.579Z</time></trkpt><trkpt lat="43.2527613" lon="13.1002451"><ele>775.0</ele><time>2026-04-25T09:56:35.581Z</time></trkpt><trkpt lat="43.2528251" lon="13.1003568"><ele>775.0</ele><time>2026-04-25T09:56:36.585Z</time></trkpt><trkpt lat="43.2529032" lon="13.1004895"><ele>775.0</ele><time>2026-04-25T09:56:37.584Z</time></trkpt><trkpt lat="43.2529819" lon="13.1006327"><ele>775.0</ele><time>2026-04-25T09:56:38.583Z</time></trkpt><trkpt lat="43.253045" lon="13.1007778"><ele>775.75</ele><time>2026-04-25T09:56:39.585Z</time></trkpt><trkpt lat="43.2531016" lon="13.1009053"><ele>776.5</ele><time>2026-04-25T09:56:40.588Z</time></trkpt><trkpt lat="43.2531735" lon="13.1010322"><ele>777.25</ele><time>2026-04-25T09:56:41.585Z</time></trkpt><trkpt lat="43.2532481" lon="13.1011574"><ele>778.0</ele><time>2026-04-25T09:56:42.589Z</time></trkpt><trkpt lat="43.2533187" lon="13.1012887"><ele>775.0</ele><time>2026-04-25T09:56:43.58Z</time></trkpt><trkpt lat="43.2533801" lon="13.1014167"><ele>772.0</ele><time>2026-04-25T09:56:44.585Z</time></trkpt><trkpt lat="43.2534473" lon="13.1015416"><ele>769.0</ele><time>2026-04-25T09:56:45.58Z</time></trkpt><trkpt lat="43.2535192" lon="13.1016747"><ele>766.0</ele><time>2026-04-25T09:56:46.583Z</time></trkpt><trkpt lat="43.2535814" lon="13.1018064"><ele>765.5999999999999</ele><time>2026-04-25T09:56:47.589Z</time></trkpt><trkpt lat="43.253636" lon="13.101921"><ele>765.2</ele><time>2026-04-25T09:56:48.584Z</time></trkpt><trkpt lat="43.253675" lon="13.1020252"><ele>764.8</ele><time>2026-04-25T09:56:49.583Z</time></trkpt><trkpt lat="43.2537051" lon="13.1021025"><ele>764.4000000000001</ele><time>2026-04-25T09:56:50.583Z</time></trkpt><trkpt lat="43.2538101" lon="13.1021441"><ele>764.0</ele><time>2026-04-25T09:56:52.586Z</time></trkpt><trkpt lat="43.2539164" lon="13.1020712"><ele>763.8333333333333</ele><time>2026-04-25T09:56:54.585Z</time></trkpt><trkpt lat="43.2539665" lon="13.1020094"><ele>763.6666666666666</ele><time>2026-04-25T09:56:55.591Z</time></trkpt><trkpt lat="43.2540172" lon="13.1019542"><ele>763.5</ele><time>2026-04-25T09:56:56.585Z</time></trkpt><trkpt lat="43.2540695" lon="13.1019058"><ele>763.3333333333334</ele><time>2026-04-25T09:56:57.597Z</time></trkpt><trkpt lat="43.2541643" lon="13.1018188"><ele>763.1666666666667</ele><time>2026-04-25T09:56:59.589Z</time></trkpt><trkpt lat="43.2542111" lon="13.1016804"><ele>763.0</ele><time>2026-04-25T09:57:01.592Z</time></trkpt><trkpt lat="43.2542313" lon="13.1015775"><ele>763.0</ele><time>2026-04-25T09:57:02.587Z</time></trkpt><trkpt lat="43.254264" lon="13.1014747"><ele>763.0</ele><time>2026-04-25T09:57:03.59Z</time></trkpt><trkpt lat="43.25432" lon="13.1013909"><ele>763.0</ele><time>2026-04-25T09:57:04.577Z</time></trkpt><trkpt lat="43.2543783" lon="13.10129"><ele>763.0</ele><time>2026-04-25T09:57:05.59Z</time></trkpt><trkpt lat="43.2544414" lon="13.1011718"><ele>763.0</ele><time>2026-04-25T09:57:06.574Z</time></trkpt><trkpt lat="43.2545008" lon="13.101065"><ele>763.0</ele><time>2026-04-25T09:57:07.587Z</time></trkpt><trkpt lat="43.2545698" lon="13.1009841"><ele>763.0</ele><time>2026-04-25T09:57:08.585Z</time></trkpt><trkpt lat="43.2546553" lon="13.100902"><ele>763.0</ele><time>2026-04-25T09:57:09.585Z</time></trkpt><trkpt lat="43.2547514" lon="13.1008277"><ele>763.0</ele><time>2026-04-25T09:57:10.576Z</time></trkpt><trkpt lat="43.2548397" lon="13.1007459"><ele>763.0</ele><time>2026-04-25T09:57:11.573Z</time></trkpt><trkpt lat="43.2549169" lon="13.1006568"><ele>765.8</ele><time>2026-04-25T09:57:12.571Z</time></trkpt><trkpt lat="43.2549904" lon="13.1005613"><ele>768.5999999999999</ele><time>2026-04-25T09:57:13.572Z</time></trkpt><trkpt lat="43.2550713" lon="13.1004712"><ele>771.4000000000001</ele><time>2026-04-25T09:57:14.581Z</time></trkpt><trkpt lat="43.2551528" lon="13.1003799"><ele>774.2</ele><time>2026-04-25T09:57:15.586Z</time></trkpt><trkpt lat="43.2552422" lon="13.1002706"><ele>777.0</ele><time>2026-04-25T09:57:16.584Z</time></trkpt><trkpt lat="43.2553218" lon="13.1001701"><ele>777.0</ele><time>2026-04-25T09:57:17.584Z</time></trkpt><trkpt lat="43.2553961" lon="13.1000685"><ele>777.0</ele><time>2026-04-25T09:57:18.583Z</time></trkpt><trkpt lat="43.2554527" lon="13.0999547"><ele>777.0</ele><time>2026-04-25T09:57:19.586Z</time></trkpt><trkpt lat="43.2555028" lon="13.0998361"><ele>777.0</ele><time>2026-04-25T09:57:20.582Z</time></trkpt><trkpt lat="43.2555432" lon="13.0996984"><ele>777.0</ele><time>2026-04-25T09:57:21.588Z</time></trkpt><trkpt lat="43.2555846" lon="13.0995671"><ele>784.0</ele><time>2026-04-25T09:57:22.59Z</time></trkpt><trkpt lat="43.255631" lon="13.0994298"><ele>791.0</ele><time>2026-04-25T09:57:23.591Z</time></trkpt><trkpt lat="43.2556896" lon="13.0993135"><ele>798.0</ele><time>2026-04-25T09:57:24.593Z</time></trkpt><trkpt lat="43.2557396" lon="13.0992072"><ele>805.0</ele><time>2026-04-25T09:57:25.587Z</time></trkpt><trkpt lat="43.2557448" lon="13.0991005"><ele>812.0</ele><time>2026-04-25T09:57:26.583Z</time></trkpt><trkpt lat="43.2557288" lon="13.0990002"><ele>811.2</ele><time>2026-04-25T09:57:27.573Z</time></trkpt><trkpt lat="43.2556895" lon="13.0989158"><ele>810.4000000000001</ele><time>2026-04-25T09:57:28.579Z</time></trkpt><trkpt lat="43.2556284" lon="13.0988303"><ele>809.5999999999999</ele><time>2026-04-25T09:57:29.574Z</time></trkpt><trkpt lat="43.2555482" lon="13.0987322"><ele>808.8</ele><time>2026-04-25T09:57:30.584Z</time></trkpt><trkpt lat="43.2554593" lon="13.0986372"><ele>808.0</ele><time>2026-04-25T09:57:31.578Z</time></trkpt><trkpt lat="43.2553654" lon="13.0985466"><ele>808.0</ele><time>2026-04-25T09:57:32.575Z</time></trkpt><trkpt lat="43.2552688" lon="13.0984827"><ele>808.0</ele><time>2026-04-25T09:57:33.582Z</time></trkpt><trkpt lat="43.2551762" lon="13.0984203"><ele>808.0</ele><time>2026-04-25T09:57:34.581Z</time></trkpt><trkpt lat="43.2550801" lon="13.0983684"><ele>808.0</ele><time>2026-04-25T09:57:35.588Z</time></trkpt><trkpt lat="43.2549909" lon="13.0983168"><ele>808.0</ele><time>2026-04-25T09:57:36.591Z</time></trkpt><trkpt lat="43.2549152" lon="13.0982326"><ele>806.8</ele><time>2026-04-25T09:57:37.586Z</time></trkpt><trkpt lat="43.2548511" lon="13.0981457"><ele>805.5999999999999</ele><time>2026-04-25T09:57:38.589Z</time></trkpt><trkpt lat="43.2547913" lon="13.0980441"><ele>804.4000000000001</ele><time>2026-04-25T09:57:39.574Z</time></trkpt><trkpt lat="43.2547469" lon="13.0979192"><ele>803.2</ele><time>2026-04-25T09:57:40.59Z</time></trkpt><trkpt lat="43.2547072" lon="13.0977969"><ele>802.0</ele><time>2026-04-25T09:57:41.589Z</time></trkpt><trkpt lat="43.2546633" lon="13.0976735"><ele>802.0</ele><time>2026-04-25T09:57:42.59Z</time></trkpt><trkpt lat="43.2546173" lon="13.0975589"><ele>802.0</ele><time>2026-04-25T09:57:43.592Z</time></trkpt><trkpt lat="43.2545659" lon="13.0974433"><ele>802.0</ele><time>2026-04-25T09:57:44.586Z</time></trkpt><trkpt lat="43.2544988" lon="13.0973356"><ele>802.0</ele><time>2026-04-25T09:57:45.588Z</time></trkpt><trkpt lat="43.2544246" lon="13.09722"><ele>802.0</ele><time>2026-04-25T09:57:46.585Z</time></trkpt><trkpt lat="43.2543553" lon="13.0971027"><ele>809.0</ele><time>2026-04-25T09:57:47.587Z</time></trkpt><trkpt lat="43.2542848" lon="13.0969884"><ele>816.0</ele><time>2026-04-25T09:57:48.584Z</time></trkpt><trkpt lat="43.2542153" lon="13.0968672"><ele>823.0</ele><time>2026-04-25T09:57:49.588Z</time></trkpt><trkpt lat="43.2541485" lon="13.0967353"><ele>830.0</ele><time>2026-04-25T09:57:50.578Z</time></trkpt><trkpt lat="43.2540937" lon="13.0966008"><ele>826.75</ele><time>2026-04-25T09:57:51.576Z</time></trkpt><trkpt lat="43.2540389" lon="13.0964648"><ele>823.5</ele><time>2026-04-25T09:57:52.58Z</time></trkpt><trkpt lat="43.2539705" lon="13.0963389"><ele>820.25</ele><time>2026-04-25T09:57:53.574Z</time></trkpt><trkpt lat="43.2539031" lon="13.0962152"><ele>817.0</ele><time>2026-04-25T09:57:54.574Z</time></trkpt><trkpt lat="43.253839" lon="13.0960919"><ele>817.0</ele><time>2026-04-25T09:57:55.582Z</time></trkpt><trkpt lat="43.2537775" lon="13.0959609"><ele>817.0</ele><time>2026-04-25T09:57:56.575Z</time></trkpt><trkpt lat="43.2537171" lon="13.0958325"><ele>817.0</ele><time>2026-04-25T09:57:57.581Z</time></trkpt><trkpt lat="43.2536568" lon="13.0956941"><ele>817.0</ele><time>2026-04-25T09:57:58.599Z</time></trkpt><trkpt lat="43.2535939" lon="13.0955605"><ele>821.0</ele><time>2026-04-25T09:57:59.598Z</time></trkpt><trkpt lat="43.2535339" lon="13.0954299"><ele>825.0</ele><time>2026-04-25T09:58:00.6Z</time></trkpt><trkpt lat="43.2534736" lon="13.0952923"><ele>829.0</ele><time>2026-04-25T09:58:01.597Z</time></trkpt><trkpt lat="43.253416" lon="13.0951546"><ele>833.0</ele><time>2026-04-25T09:58:02.601Z</time></trkpt><trkpt lat="43.2533584" lon="13.0950106"><ele>834.75</ele><time>2026-04-25T09:58:03.607Z</time></trkpt><trkpt lat="43.2532974" lon="13.0948582"><ele>836.5</ele><time>2026-04-25T09:58:04.602Z</time></trkpt><trkpt lat="43.2532375" lon="13.0946978"><ele>838.25</ele><time>2026-04-25T09:58:05.604Z</time></trkpt><trkpt lat="43.2531706" lon="13.0945536"><ele>840.0</ele><time>2026-04-25T09:58:06.601Z</time></trkpt><trkpt lat="43.253097" lon="13.0944201"><ele>837.8</ele><time>2026-04-25T09:58:07.604Z</time></trkpt><trkpt lat="43.2530241" lon="13.0942996"><ele>835.6</ele><time>2026-04-25T09:58:08.599Z</time></trkpt><trkpt lat="43.252947" lon="13.0941896"><ele>833.4000000000001</ele><time>2026-04-25T09:58:09.61Z</time></trkpt><trkpt lat="43.2528702" lon="13.0940877"><ele>831.2</ele><time>2026-04-25T09:58:10.602Z</time></trkpt><trkpt lat="43.2527918" lon="13.0939945"><ele>829.0</ele><time>2026-04-25T09:58:11.608Z</time></trkpt><trkpt lat="43.2527144" lon="13.0939227"><ele>828.9999999999999</ele><time>2026-04-25T09:58:12.602Z</time></trkpt><trkpt lat="43.2526363" lon="13.0938497"><ele>829.0</ele><time>2026-04-25T09:58:13.604Z</time></trkpt><trkpt lat="43.25255" lon="13.093795"><ele>829.0</ele><time>2026-04-25T09:58:14.608Z</time></trkpt><trkpt lat="43.2524665" lon="13.0937349"><ele>829.0</ele><time>2026-04-25T09:58:15.59Z</time></trkpt><trkpt lat="43.252382" lon="13.0936873"><ele>828.9999999999999</ele><time>2026-04-25T09:58:16.588Z</time></trkpt><trkpt lat="43.2523151" lon="13.0936507"><ele>829.0</ele><time>2026-04-25T09:58:17.584Z</time></trkpt><trkpt lat="43.2522164" lon="13.0935223"><ele>827.4999999999999</ele><time>2026-04-25T09:58:19.581Z</time></trkpt><trkpt lat="43.2521763" lon="13.0934195"><ele>826.0</ele><time>2026-04-25T09:58:20.606Z</time></trkpt><trkpt lat="43.2521314" lon="13.0933099"><ele>824.5</ele><time>2026-04-25T09:58:21.61Z</time></trkpt><trkpt lat="43.2520921" lon="13.093199"><ele>823.0</ele><time>2026-04-25T09:58:22.609Z</time></trkpt><trkpt lat="43.2520388" lon="13.0930962"><ele>821.4999999999999</ele><time>2026-04-25T09:58:23.59Z</time></trkpt><trkpt lat="43.2519843" lon="13.0929999"><ele>820.0</ele><time>2026-04-25T09:58:24.592Z</time></trkpt><trkpt lat="43.251933" lon="13.0929027"><ele>820.0</ele><time>2026-04-25T09:58:25.595Z</time></trkpt><trkpt lat="43.2518826" lon="13.09281"><ele>820.0</ele><time>2026-04-25T09:58:26.579Z</time></trkpt><trkpt lat="43.2518389" lon="13.0927063"><ele>820.0</ele><time>2026-04-25T09:58:27.586Z</time></trkpt><trkpt lat="43.2518001" lon="13.0925892"><ele>820.0</ele><time>2026-04-25T09:58:28.579Z</time></trkpt><trkpt lat="43.2517619" lon="13.092473"><ele>820.0</ele><time>2026-04-25T09:58:29.589Z</time></trkpt><trkpt lat="43.2517281" lon="13.0923479"><ele>819.2</ele><time>2026-04-25T09:58:30.586Z</time></trkpt><trkpt lat="43.2517112" lon="13.0922314"><ele>818.4</ele><time>2026-04-25T09:58:31.589Z</time></trkpt><trkpt lat="43.2516875" lon="13.0921019"><ele>817.5999999999999</ele><time>2026-04-25T09:58:32.582Z</time></trkpt><trkpt lat="43.2516656" lon="13.0919773"><ele>816.8</ele><time>2026-04-25T09:58:33.583Z</time></trkpt><trkpt lat="43.2516345" lon="13.0918621"><ele>816.0</ele><time>2026-04-25T09:58:34.582Z</time></trkpt><trkpt lat="43.2515952" lon="13.0917569"><ele>816.0</ele><time>2026-04-25T09:58:35.588Z</time></trkpt><trkpt lat="43.2515478" lon="13.0916421"><ele>816.0</ele><time>2026-04-25T09:58:36.582Z</time></trkpt><trkpt lat="43.2515063" lon="13.0915252"><ele>816.0</ele><time>2026-04-25T09:58:37.585Z</time></trkpt><trkpt lat="43.251475" lon="13.091405"><ele>816.0</ele><time>2026-04-25T09:58:38.578Z</time></trkpt><trkpt lat="43.2514496" lon="13.0912828"><ele>816.0</ele><time>2026-04-25T09:58:39.579Z</time></trkpt><trkpt lat="43.2514244" lon="13.0911591"><ele>814.4</ele><time>2026-04-25T09:58:40.581Z</time></trkpt><trkpt lat="43.251409" lon="13.0910146"><ele>812.8</ele><time>2026-04-25T09:58:41.584Z</time></trkpt><trkpt lat="43.2514056" lon="13.0908606"><ele>811.1999999999999</ele><time>2026-04-25T09:58:42.581Z</time></trkpt><trkpt lat="43.2513997" lon="13.0907164"><ele>809.5999999999999</ele><time>2026-04-25T09:58:43.582Z</time></trkpt><trkpt lat="43.2513667" lon="13.0905869"><ele>808.0</ele><time>2026-04-25T09:58:44.581Z</time></trkpt><trkpt lat="43.2513229" lon="13.0904642"><ele>805.5999999999999</ele><time>2026-04-25T09:58:45.581Z</time></trkpt><trkpt lat="43.2512718" lon="13.0903361"><ele>803.1999999999999</ele><time>2026-04-25T09:58:46.588Z</time></trkpt><trkpt lat="43.2512173" lon="13.0902273"><ele>800.8</ele><time>2026-04-25T09:58:47.582Z</time></trkpt><trkpt lat="43.251152" lon="13.0901195"><ele>798.4</ele><time>2026-04-25T09:58:48.589Z</time></trkpt><trkpt lat="43.2510816" lon="13.0900221"><ele>796.0</ele><time>2026-04-25T09:58:49.577Z</time></trkpt><trkpt lat="43.251013" lon="13.0899271"><ele>793.8333333333333</ele><time>2026-04-25T09:58:50.578Z</time></trkpt><trkpt lat="43.2509628" lon="13.089818"><ele>791.6666666666666</ele><time>2026-04-25T09:58:51.584Z</time></trkpt><trkpt lat="43.2509257" lon="13.0897171"><ele>789.5</ele><time>2026-04-25T09:58:52.585Z</time></trkpt><trkpt lat="43.2508943" lon="13.0896052"><ele>787.3333333333333</ele><time>2026-04-25T09:58:53.583Z</time></trkpt><trkpt lat="43.2508589" lon="13.0894929"><ele>785.1666666666666</ele><time>2026-04-25T09:58:54.586Z</time></trkpt><trkpt lat="43.250831" lon="13.0893714"><ele>783.0</ele><time>2026-04-25T09:58:55.585Z</time></trkpt><trkpt lat="43.2508128" lon="13.0892658"><ele>783.0</ele><time>2026-04-25T09:58:56.584Z</time></trkpt><trkpt lat="43.2508175" lon="13.0891709"><ele>783.0</ele><time>2026-04-25T09:58:57.585Z</time></trkpt><trkpt lat="43.250872" lon="13.0890236"><ele>783.0</ele><time>2026-04-25T09:58:59.588Z</time></trkpt><trkpt lat="43.2509363" lon="13.088989"><ele>783.0</ele><time>2026-04-25T09:59:00.582Z</time></trkpt><trkpt lat="43.251012" lon="13.0889684"><ele>783.0</ele><time>2026-04-25T09:59:01.585Z</time></trkpt><trkpt lat="43.2510917" lon="13.0889837"><ele>783.0</ele><time>2026-04-25T09:59:02.583Z</time></trkpt><trkpt lat="43.2511674" lon="13.0889962"><ele>783.0</ele><time>2026-04-25T09:59:03.572Z</time></trkpt><trkpt lat="43.2512509" lon="13.0890271"><ele>783.0</ele><time>2026-04-25T09:59:04.572Z</time></trkpt><trkpt lat="43.2513395" lon="13.0890632"><ele>783.0</ele><time>2026-04-25T09:59:05.567Z</time></trkpt><trkpt lat="43.2514337" lon="13.0891395"><ele>783.0</ele><time>2026-04-25T09:59:06.57Z</time></trkpt><trkpt lat="43.2515352" lon="13.0892133"><ele>783.0</ele><time>2026-04-25T09:59:07.573Z</time></trkpt><trkpt lat="43.251635" lon="13.0892795"><ele>782.8333333333334</ele><time>2026-04-25T09:59:08.57Z</time></trkpt><trkpt lat="43.2517238" lon="13.0893373"><ele>782.6666666666667</ele><time>2026-04-25T09:59:09.569Z</time></trkpt><trkpt lat="43.2518003" lon="13.0893873"><ele>782.5</ele><time>2026-04-25T09:59:10.569Z</time></trkpt><trkpt lat="43.2518686" lon="13.089404"><ele>782.3333333333334</ele><time>2026-04-25T09:59:11.588Z</time></trkpt><trkpt lat="43.2519333" lon="13.0893986"><ele>782.1666666666667</ele><time>2026-04-25T09:59:12.588Z</time></trkpt><trkpt lat="43.2519901" lon="13.0892672"><ele>782.0</ele><time>2026-04-25T09:59:14.576Z</time></trkpt><trkpt lat="43.2519823" lon="13.0891698"><ele>778.3333333333334</ele><time>2026-04-25T09:59:15.584Z</time></trkpt><trkpt lat="43.2519722" lon="13.0890581"><ele>774.6666666666667</ele><time>2026-04-25T09:59:16.584Z</time></trkpt><trkpt lat="43.2519607" lon="13.0889492"><ele>771.0</ele><time>2026-04-25T09:59:17.587Z</time></trkpt><trkpt lat="43.2519776" lon="13.0888605"><ele>767.3333333333334</ele><time>2026-04-25T09:59:18.59Z</time></trkpt><trkpt lat="43.2520104" lon="13.0887838"><ele>763.6666666666667</ele><time>2026-04-25T09:59:19.595Z</time></trkpt><trkpt lat="43.2520744" lon="13.0886887"><ele>760.0</ele><time>2026-04-25T09:59:20.588Z</time></trkpt><trkpt lat="43.2521526" lon="13.0886104"><ele>760.0</ele><time>2026-04-25T09:59:21.589Z</time></trkpt><trkpt lat="43.2522255" lon="13.088527"><ele>760.0</ele><time>2026-04-25T09:59:22.588Z</time></trkpt><trkpt lat="43.252284" lon="13.0884317"><ele>760.0</ele><time>2026-04-25T09:59:23.589Z</time></trkpt><trkpt lat="43.2523453" lon="13.0883278"><ele>760.0</ele><time>2026-04-25T09:59:24.593Z</time></trkpt><trkpt lat="43.2524083" lon="13.088238"><ele>760.0</ele><time>2026-04-25T09:59:25.59Z</time></trkpt><trkpt lat="43.2524918" lon="13.0881618"><ele>758.6</ele><time>2026-04-25T09:59:26.588Z</time></trkpt><trkpt lat="43.2525733" lon="13.088088"><ele>757.2</ele><time>2026-04-25T09:59:27.59Z</time></trkpt><trkpt lat="43.2526628" lon="13.0880308"><ele>755.8</ele><time>2026-04-25T09:59:28.596Z</time></trkpt><trkpt lat="43.2527458" lon="13.0879864"><ele>754.4</ele><time>2026-04-25T09:59:29.593Z</time></trkpt><trkpt lat="43.2528249" lon="13.087958"><ele>753.0</ele><time>2026-04-25T09:59:30.595Z</time></trkpt><trkpt lat="43.2529059" lon="13.0879092"><ele>753.0</ele><time>2026-04-25T09:59:31.582Z</time></trkpt><trkpt lat="43.2529654" lon="13.0878328"><ele>753.0</ele><time>2026-04-25T09:59:32.571Z</time></trkpt><trkpt lat="43.2530272" lon="13.0877627"><ele>753.0</ele><time>2026-04-25T09:59:33.576Z</time></trkpt><trkpt lat="43.2530575" lon="13.087634"><ele>753.0</ele><time>2026-04-25T09:59:34.579Z</time></trkpt><trkpt lat="43.253085" lon="13.0874759"><ele>753.0</ele><time>2026-04-25T09:59:35.582Z</time></trkpt><trkpt lat="43.2531091" lon="13.0873224"><ele>756.6666666666666</ele><time>2026-04-25T09:59:36.573Z</time></trkpt><trkpt lat="43.2531244" lon="13.0871893"><ele>760.3333333333333</ele><time>2026-04-25T09:59:37.576Z</time></trkpt><trkpt lat="43.253151" lon="13.0870808"><ele>764.0</ele><time>2026-04-25T09:59:38.575Z</time></trkpt><trkpt lat="43.2531759" lon="13.0869818"><ele>767.6666666666666</ele><time>2026-04-25T09:59:39.585Z</time></trkpt><trkpt lat="43.2531773" lon="13.086864"><ele>771.3333333333333</ele><time>2026-04-25T09:59:40.581Z</time></trkpt><trkpt lat="43.2531708" lon="13.0867473"><ele>775.0</ele><time>2026-04-25T09:59:41.57Z</time></trkpt><trkpt lat="43.2531632" lon="13.0866108"><ele>774.0</ele><time>2026-04-25T09:59:42.577Z</time></trkpt><trkpt lat="43.2531441" lon="13.086448"><ele>773.0</ele><time>2026-04-25T09:59:43.58Z</time></trkpt><trkpt lat="43.2531164" lon="13.0862888"><ele>772.0</ele><time>2026-04-25T09:59:44.589Z</time></trkpt><trkpt lat="43.2531134" lon="13.0861141"><ele>771.0</ele><time>2026-04-25T09:59:45.578Z</time></trkpt><trkpt lat="43.2531052" lon="13.0859511"><ele>758.0</ele><time>2026-04-25T09:59:46.58Z</time></trkpt><trkpt lat="43.2530921" lon="13.0857855"><ele>745.0</ele><time>2026-04-25T09:59:47.581Z</time></trkpt><trkpt lat="43.2530654" lon="13.0856142"><ele>732.0</ele><time>2026-04-25T09:59:48.584Z</time></trkpt><trkpt lat="43.2530411" lon="13.0854495"><ele>719.0</ele><time>2026-04-25T09:59:49.586Z</time></trkpt><trkpt lat="43.2530287" lon="13.0852855"><ele>718.5</ele><time>2026-04-25T09:59:50.591Z</time></trkpt><trkpt lat="43.2530006" lon="13.0851105"><ele>718.0</ele><time>2026-04-25T09:59:51.594Z</time></trkpt><trkpt lat="43.2529748" lon="13.0849506"><ele>717.5</ele><time>2026-04-25T09:59:52.584Z</time></trkpt><trkpt lat="43.2529358" lon="13.0847878"><ele>717.0</ele><time>2026-04-25T09:59:53.588Z</time></trkpt><trkpt lat="43.2529027" lon="13.0846267"><ele>717.0</ele><time>2026-04-25T09:59:54.587Z</time></trkpt><trkpt lat="43.252861" lon="13.0844682"><ele>717.0</ele><time>2026-04-25T09:59:55.582Z</time></trkpt><trkpt lat="43.2528126" lon="13.0843223"><ele>717.0</ele><time>2026-04-25T09:59:56.585Z</time></trkpt><trkpt lat="43.2527842" lon="13.0841788"><ele>717.0</ele><time>2026-04-25T09:59:57.589Z</time></trkpt><trkpt lat="43.252761" lon="13.0840244"><ele>718.8</ele><time>2026-04-25T09:59:58.583Z</time></trkpt><trkpt lat="43.2527424" lon="13.0838867"><ele>720.6</ele><time>2026-04-25T09:59:59.588Z</time></trkpt><trkpt lat="43.2527308" lon="13.0837449"><ele>722.4</ele><time>2026-04-25T10:00:00.588Z</time></trkpt><trkpt lat="43.252691" lon="13.0836098"><ele>724.1999999999999</ele><time>2026-04-25T10:00:01.588Z</time></trkpt><trkpt lat="43.2526511" lon="13.0834743"><ele>726.0</ele><time>2026-04-25T10:00:02.586Z</time></trkpt><trkpt lat="43.2526113" lon="13.0833262"><ele>726.0</ele><time>2026-04-25T10:00:03.585Z</time></trkpt><trkpt lat="43.2525762" lon="13.0831808"><ele>726.0</ele><time>2026-04-25T10:00:04.585Z</time></trkpt><trkpt lat="43.2525406" lon="13.083028"><ele>726.0</ele><time>2026-04-25T10:00:05.591Z</time></trkpt><trkpt lat="43.2525232" lon="13.0828834"><ele>726.0</ele><time>2026-04-25T10:00:06.587Z</time></trkpt><trkpt lat="43.2525071" lon="13.0827594"><ele>726.0</ele><time>2026-04-25T10:00:07.587Z</time></trkpt><trkpt lat="43.252502" lon="13.0826417"><ele>726.0</ele><time>2026-04-25T10:00:08.58Z</time></trkpt><trkpt lat="43.2525088" lon="13.0825435"><ele>726.0</ele><time>2026-04-25T10:00:09.581Z</time></trkpt><trkpt lat="43.2525278" lon="13.0824449"><ele>726.0</ele><time>2026-04-25T10:00:10.587Z</time></trkpt><trkpt lat="43.2525641" lon="13.0823437"><ele>726.0</ele><time>2026-04-25T10:00:11.586Z</time></trkpt><trkpt lat="43.2526196" lon="13.082254"><ele>726.0</ele><time>2026-04-25T10:00:12.585Z</time></trkpt><trkpt lat="43.2526969" lon="13.0821901"><ele>726.0</ele><time>2026-04-25T10:00:13.583Z</time></trkpt><trkpt lat="43.2527908" lon="13.0821566"><ele>724.0</ele><time>2026-04-25T10:00:14.585Z</time></trkpt><trkpt lat="43.2528856" lon="13.082125"><ele>722.0</ele><time>2026-04-25T10:00:15.583Z</time></trkpt><trkpt lat="43.2529638" lon="13.0820698"><ele>720.0</ele><time>2026-04-25T10:00:16.581Z</time></trkpt><trkpt lat="43.2530265" lon="13.0819833"><ele>718.0</ele><time>2026-04-25T10:00:17.569Z</time></trkpt><trkpt lat="43.2530702" lon="13.0818723"><ele>716.0</ele><time>2026-04-25T10:00:18.57Z</time></trkpt><trkpt lat="43.2530901" lon="13.0817392"><ele>714.0</ele><time>2026-04-25T10:00:19.574Z</time></trkpt><trkpt lat="43.2530824" lon="13.0815964"><ele>712.0</ele><time>2026-04-25T10:00:20.576Z</time></trkpt><trkpt lat="43.2530781" lon="13.0814725"><ele>710.0</ele><time>2026-04-25T10:00:21.573Z</time></trkpt><trkpt lat="43.2530969" lon="13.0813001"><ele>708.0</ele><time>2026-04-25T10:00:23.581Z</time></trkpt><trkpt lat="43.2531016" lon="13.0811321"><ele>706.0</ele><time>2026-04-25T10:00:25.582Z</time></trkpt><trkpt lat="43.2531082" lon="13.0809924"><ele>714.0</ele><time>2026-04-25T10:00:27.576Z</time></trkpt><trkpt lat="43.2531449" lon="13.0808272"><ele>722.0</ele><time>2026-04-25T10:00:29.578Z</time></trkpt><trkpt lat="43.2531776" lon="13.080738"><ele>730.0</ele><time>2026-04-25T10:00:30.579Z</time></trkpt><trkpt lat="43.2532192" lon="13.0806313"><ele>738.0</ele><time>2026-04-25T10:00:31.58Z</time></trkpt><trkpt lat="43.2532704" lon="13.0805247"><ele>746.0</ele><time>2026-04-25T10:00:32.588Z</time></trkpt><trkpt lat="43.2533217" lon="13.0804242"><ele>746.1666666666666</ele><time>2026-04-25T10:00:33.587Z</time></trkpt><trkpt lat="43.2533577" lon="13.080316"><ele>746.3333333333333</ele><time>2026-04-25T10:00:34.587Z</time></trkpt><trkpt lat="43.2533724" lon="13.0802029"><ele>746.5</ele><time>2026-04-25T10:00:35.58Z</time></trkpt><trkpt lat="43.2533857" lon="13.0800847"><ele>746.6666666666666</ele><time>2026-04-25T10:00:36.586Z</time></trkpt><trkpt lat="43.2533992" lon="13.0799669"><ele>746.8333333333334</ele><time>2026-04-25T10:00:37.577Z</time></trkpt><trkpt lat="43.2534052" lon="13.0798639"><ele>747.0</ele><time>2026-04-25T10:00:38.576Z</time></trkpt><trkpt lat="43.2533472" lon="13.0797172"><ele>747.0</ele><time>2026-04-25T10:00:40.581Z</time></trkpt><trkpt lat="43.2532886" lon="13.0796655"><ele>747.0</ele><time>2026-04-25T10:00:41.581Z</time></trkpt><trkpt lat="43.253209" lon="13.0796423"><ele>747.0</ele><time>2026-04-25T10:00:42.585Z</time></trkpt><trkpt lat="43.253116" lon="13.0796459"><ele>747.0</ele><time>2026-04-25T10:00:43.58Z</time></trkpt><trkpt lat="43.2530247" lon="13.0796605"><ele>747.0</ele><time>2026-04-25T10:00:44.58Z</time></trkpt><trkpt lat="43.252936" lon="13.079676"><ele>747.0</ele><time>2026-04-25T10:00:45.572Z</time></trkpt><trkpt lat="43.2528517" lon="13.0796846"><ele>747.0</ele><time>2026-04-25T10:00:46.574Z</time></trkpt><trkpt lat="43.2527643" lon="13.0796766"><ele>747.0</ele><time>2026-04-25T10:00:47.572Z</time></trkpt><trkpt lat="43.2526855" lon="13.0796479"><ele>747.0</ele><time>2026-04-25T10:00:48.579Z</time></trkpt><trkpt lat="43.2526221" lon="13.0795962"><ele>747.0</ele><time>2026-04-25T10:00:49.582Z</time></trkpt><trkpt lat="43.2525596" lon="13.0795205"><ele>747.0</ele><time>2026-04-25T10:00:50.578Z</time></trkpt><trkpt lat="43.2525095" lon="13.0794143"><ele>747.0</ele><time>2026-04-25T10:00:51.595Z</time></trkpt><trkpt lat="43.2524593" lon="13.079292"><ele>747.0</ele><time>2026-04-25T10:00:52.587Z</time></trkpt><trkpt lat="43.2524029" lon="13.0791665"><ele>747.0</ele><time>2026-04-25T10:00:53.579Z</time></trkpt><trkpt lat="43.2523472" lon="13.079051"><ele>747.0</ele><time>2026-04-25T10:00:54.582Z</time></trkpt><trkpt lat="43.2522825" lon="13.0789463"><ele>747.0</ele><time>2026-04-25T10:00:55.587Z</time></trkpt><trkpt lat="43.2522108" lon="13.0788425"><ele>747.0</ele><time>2026-04-25T10:00:56.583Z</time></trkpt><trkpt lat="43.2521432" lon="13.0787343"><ele>745.5</ele><time>2026-04-25T10:00:57.59Z</time></trkpt><trkpt lat="43.2520826" lon="13.0786363"><ele>744.0</ele><time>2026-04-25T10:00:58.591Z</time></trkpt><trkpt lat="43.2520302" lon="13.0785428"><ele>742.5</ele><time>2026-04-25T10:00:59.593Z</time></trkpt><trkpt lat="43.2519927" lon="13.078453"><ele>741.0</ele><time>2026-04-25T10:01:00.596Z</time></trkpt><trkpt lat="43.2519656" lon="13.078362"><ele>739.5</ele><time>2026-04-25T10:01:01.589Z</time></trkpt><trkpt lat="43.2519519" lon="13.0782689"><ele>738.0</ele><time>2026-04-25T10:01:02.587Z</time></trkpt><trkpt lat="43.2519469" lon="13.0781765"><ele>737.8571428571429</ele><time>2026-04-25T10:01:03.59Z</time></trkpt><trkpt lat="43.2519534" lon="13.0780753"><ele>737.7142857142857</ele><time>2026-04-25T10:01:04.588Z</time></trkpt><trkpt lat="43.251972" lon="13.0779781"><ele>737.5714285714287</ele><time>2026-04-25T10:01:05.587Z</time></trkpt><trkpt lat="43.252004" lon="13.0778865"><ele>737.4285714285714</ele><time>2026-04-25T10:01:06.589Z</time></trkpt><trkpt lat="43.2520453" lon="13.0778178"><ele>737.2857142857143</ele><time>2026-04-25T10:01:07.586Z</time></trkpt><trkpt lat="43.2521014" lon="13.0777779"><ele>737.1428571428572</ele><time>2026-04-25T10:01:08.593Z</time></trkpt><trkpt lat="43.2521697" lon="13.0777721"><ele>737.0</ele><time>2026-04-25T10:01:09.593Z</time></trkpt><trkpt lat="43.2522949" lon="13.0777911"><ele>737.0</ele><time>2026-04-25T10:01:11.595Z</time></trkpt><trkpt lat="43.2523754" lon="13.0778478"><ele>737.0</ele><time>2026-04-25T10:01:13.589Z</time></trkpt><trkpt lat="43.2524428" lon="13.077793"><ele>737.0</ele><time>2026-04-25T10:02:12.587Z</time></trkpt><trkpt lat="43.2524546" lon="13.0776896"><ele>737.0</ele><time>2026-04-25T10:02:15.581Z</time></trkpt><trkpt lat="43.252378" lon="13.0776287"><ele>737.0</ele><time>2026-04-25T10:02:18.58Z</time></trkpt><trkpt lat="43.2522529" lon="13.0775991"><ele>737.0</ele><time>2026-04-25T10:02:20.583Z</time></trkpt><trkpt lat="43.2521755" lon="13.077565"><ele>737.0</ele><time>2026-04-25T10:02:21.589Z</time></trkpt><trkpt lat="43.2520937" lon="13.0775266"><ele>737.0</ele><time>2026-04-25T10:02:22.585Z</time></trkpt><trkpt lat="43.252007" lon="13.0774732"><ele>737.0</ele><time>2026-04-25T10:02:23.582Z</time></trkpt><trkpt lat="43.2519237" lon="13.0774241"><ele>737.0</ele><time>2026-04-25T10:02:24.581Z</time></trkpt><trkpt lat="43.2518511" lon="13.0773666"><ele>737.0</ele><time>2026-04-25T10:02:25.587Z</time></trkpt><trkpt lat="43.251794" lon="13.0773144"><ele>734.6</ele><time>2026-04-25T10:02:26.581Z</time></trkpt><trkpt lat="43.251711" lon="13.0771852"><ele>732.2</ele><time>2026-04-25T10:02:28.572Z</time></trkpt><trkpt lat="43.2516827" lon="13.077096"><ele>729.8</ele><time>2026-04-25T10:02:29.577Z</time></trkpt><trkpt lat="43.2516727" lon="13.0769972"><ele>727.4</ele><time>2026-04-25T10:02:30.572Z</time></trkpt><trkpt lat="43.251686" lon="13.076878"><ele>725.0</ele><time>2026-04-25T10:02:31.579Z</time></trkpt><trkpt lat="43.2517141" lon="13.0767528"><ele>722.75</ele><time>2026-04-25T10:02:32.58Z</time></trkpt><trkpt lat="43.251752" lon="13.0765979"><ele>720.5</ele><time>2026-04-25T10:02:33.587Z</time></trkpt><trkpt lat="43.2518094" lon="13.0764117"><ele>718.25</ele><time>2026-04-25T10:02:34.583Z</time></trkpt><trkpt lat="43.2518603" lon="13.0762122"><ele>716.0</ele><time>2026-04-25T10:02:35.586Z</time></trkpt><trkpt lat="43.2519164" lon="13.0760164"><ele>716.0</ele><time>2026-04-25T10:02:36.585Z</time></trkpt><trkpt lat="43.2519617" lon="13.0758363"><ele>716.0</ele><time>2026-04-25T10:02:37.584Z</time></trkpt><trkpt lat="43.252001" lon="13.075684"><ele>716.0</ele><time>2026-04-25T10:02:38.587Z</time></trkpt><trkpt lat="43.2520261" lon="13.0755308"><ele>716.0</ele><time>2026-04-25T10:02:39.593Z</time></trkpt><trkpt lat="43.2520608" lon="13.0753771"><ele>713.8</ele><time>2026-04-25T10:02:40.584Z</time></trkpt><trkpt lat="43.2520837" lon="13.0752372"><ele>711.5999999999999</ele><time>2026-04-25T10:02:41.594Z</time></trkpt><trkpt lat="43.2521146" lon="13.0751096"><ele>709.4</ele><time>2026-04-25T10:02:42.583Z</time></trkpt><trkpt lat="43.2521474" lon="13.074989"><ele>707.2</ele><time>2026-04-25T10:02:43.593Z</time></trkpt><trkpt lat="43.252199" lon="13.0748719"><ele>705.0</ele><time>2026-04-25T10:02:44.579Z</time></trkpt><trkpt lat="43.2522573" lon="13.0747673"><ele>705.0</ele><time>2026-04-25T10:02:45.59Z</time></trkpt><trkpt lat="43.2523273" lon="13.0746776"><ele>705.0</ele><time>2026-04-25T10:02:46.586Z</time></trkpt><trkpt lat="43.2523974" lon="13.0745869"><ele>705.0</ele><time>2026-04-25T10:02:47.588Z</time></trkpt><trkpt lat="43.2524778" lon="13.0744911"><ele>705.0</ele><time>2026-04-25T10:02:48.592Z</time></trkpt><trkpt lat="43.2525666" lon="13.0744021"><ele>705.0</ele><time>2026-04-25T10:02:49.585Z</time></trkpt><trkpt lat="43.2526467" lon="13.0743124"><ele>705.0</ele><time>2026-04-25T10:02:50.589Z</time></trkpt><trkpt lat="43.2527178" lon="13.0742127"><ele>705.0</ele><time>2026-04-25T10:02:51.603Z</time></trkpt><trkpt lat="43.2527891" lon="13.0741223"><ele>705.0</ele><time>2026-04-25T10:02:52.594Z</time></trkpt><trkpt lat="43.2528579" lon="13.0740378"><ele>705.0</ele><time>2026-04-25T10:02:53.592Z</time></trkpt><trkpt lat="43.2529161" lon="13.0739565"><ele>705.0</ele><time>2026-04-25T10:02:54.588Z</time></trkpt><trkpt lat="43.252976" lon="13.0738811"><ele>704.0</ele><time>2026-04-25T10:02:55.594Z</time></trkpt><trkpt lat="43.2530487" lon="13.0737988"><ele>703.0</ele><time>2026-04-25T10:02:56.587Z</time></trkpt><trkpt lat="43.2531302" lon="13.0736907"><ele>702.0</ele><time>2026-04-25T10:02:57.603Z</time></trkpt><trkpt lat="43.2532324" lon="13.0735853"><ele>701.0</ele><time>2026-04-25T10:02:58.599Z</time></trkpt><trkpt lat="43.2533323" lon="13.0734644"><ele>701.0</ele><time>2026-04-25T10:02:59.599Z</time></trkpt><trkpt lat="43.2534234" lon="13.0733545"><ele>701.0</ele><time>2026-04-25T10:03:00.596Z</time></trkpt><trkpt lat="43.2535138" lon="13.0732392"><ele>701.0</ele><time>2026-04-25T10:03:01.603Z</time></trkpt><trkpt lat="43.2536037" lon="13.0731411"><ele>701.0</ele><time>2026-04-25T10:03:02.601Z</time></trkpt><trkpt lat="43.2536952" lon="13.0730473"><ele>698.75</ele><time>2026-04-25T10:03:03.602Z</time></trkpt><trkpt lat="43.2537922" lon="13.0729619"><ele>696.5</ele><time>2026-04-25T10:03:04.592Z</time></trkpt><trkpt lat="43.2538846" lon="13.0728846"><ele>694.25</ele><time>2026-04-25T10:03:05.593Z</time></trkpt><trkpt lat="43.2539876" lon="13.0728189"><ele>692.0</ele><time>2026-04-25T10:03:06.586Z</time></trkpt><trkpt lat="43.2540949" lon="13.0727498"><ele>692.0</ele><time>2026-04-25T10:03:07.596Z</time></trkpt><trkpt lat="43.254209" lon="13.0726899"><ele>692.0</ele><time>2026-04-25T10:03:08.586Z</time></trkpt><trkpt lat="43.2543163" lon="13.0726286"><ele>692.0</ele><time>2026-04-25T10:03:09.585Z</time></trkpt><trkpt lat="43.2544229" lon="13.0725793"><ele>692.0</ele><time>2026-04-25T10:03:10.582Z</time></trkpt><trkpt lat="43.2545114" lon="13.0725404"><ele>692.0</ele><time>2026-04-25T10:03:11.584Z</time></trkpt><trkpt lat="43.2545881" lon="13.0725133"><ele>692.0</ele><time>2026-04-25T10:03:12.578Z</time></trkpt><trkpt lat="43.2546484" lon="13.0724878"><ele>692.0</ele><time>2026-04-25T10:03:13.591Z</time></trkpt><trkpt lat="43.2547414" lon="13.0723996"><ele>692.0</ele><time>2026-04-25T10:03:15.597Z</time></trkpt><trkpt lat="43.2547473" lon="13.0722684"><ele>692.0</ele><time>2026-04-25T10:03:17.586Z</time></trkpt><trkpt lat="43.2546773" lon="13.0721583"><ele>692.0</ele><time>2026-04-25T10:03:19.579Z</time></trkpt><trkpt lat="43.2545531" lon="13.0721373"><ele>689.2</ele><time>2026-04-25T10:03:21.583Z</time></trkpt><trkpt lat="43.2544645" lon="13.0721467"><ele>686.4000000000001</ele><time>2026-04-25T10:03:22.576Z</time></trkpt><trkpt lat="43.2543663" lon="13.0721695"><ele>683.5999999999999</ele><time>2026-04-25T10:03:23.579Z</time></trkpt><trkpt lat="43.2542561" lon="13.0721908"><ele>680.8</ele><time>2026-04-25T10:03:24.575Z</time></trkpt><trkpt lat="43.2541378" lon="13.0722048"><ele>678.0</ele><time>2026-04-25T10:03:25.586Z</time></trkpt><trkpt lat="43.2540274" lon="13.0722007"><ele>677.5</ele><time>2026-04-25T10:03:26.586Z</time></trkpt><trkpt lat="43.2539129" lon="13.0721708"><ele>677.0</ele><time>2026-04-25T10:03:27.583Z</time></trkpt><trkpt lat="43.2538022" lon="13.0721308"><ele>676.5</ele><time>2026-04-25T10:03:28.585Z</time></trkpt><trkpt lat="43.2536931" lon="13.0720774"><ele>676.0</ele><time>2026-04-25T10:03:29.576Z</time></trkpt><trkpt lat="43.2535842" lon="13.0720321"><ele>676.0</ele><time>2026-04-25T10:03:30.583Z</time></trkpt><trkpt lat="43.253476" lon="13.0719775"><ele>676.0</ele><time>2026-04-25T10:03:31.57Z</time></trkpt><trkpt lat="43.2533776" lon="13.0719416"><ele>676.0</ele><time>2026-04-25T10:03:32.587Z</time></trkpt><trkpt lat="43.2532931" lon="13.0719259"><ele>676.0</ele><time>2026-04-25T10:03:33.587Z</time></trkpt><trkpt lat="43.2532162" lon="13.0719212"><ele>676.0</ele><time>2026-04-25T10:03:34.573Z</time></trkpt><trkpt lat="43.2531272" lon="13.0719627"><ele>672.0</ele><time>2026-04-25T10:03:36.569Z</time></trkpt><trkpt lat="43.2530573" lon="13.0719878"><ele>668.0</ele><time>2026-04-25T10:03:38.573Z</time></trkpt><trkpt lat="43.252971" lon="13.0720886"><ele>664.0</ele><time>2026-04-25T10:03:40.572Z</time></trkpt><trkpt lat="43.2529107" lon="13.0721473"><ele>660.0</ele><time>2026-04-25T10:03:41.566Z</time></trkpt><trkpt lat="43.2528406" lon="13.0722403"><ele>656.0</ele><time>2026-04-25T10:03:42.572Z</time></trkpt><trkpt lat="43.2527629" lon="13.0723509"><ele>658.8</ele><time>2026-04-25T10:03:43.577Z</time></trkpt><trkpt lat="43.2527073" lon="13.0724895"><ele>661.5999999999999</ele><time>2026-04-25T10:03:44.575Z</time></trkpt><trkpt lat="43.2526622" lon="13.0726309"><ele>664.4</ele><time>2026-04-25T10:03:45.572Z</time></trkpt><trkpt lat="43.252615" lon="13.0727355"><ele>667.2</ele><time>2026-04-25T10:03:46.575Z</time></trkpt><trkpt lat="43.2525521" lon="13.0728043"><ele>670.0</ele><time>2026-04-25T10:03:47.572Z</time></trkpt><trkpt lat="43.2524711" lon="13.0728512"><ele>670.0</ele><time>2026-04-25T10:03:48.573Z</time></trkpt><trkpt lat="43.2523913" lon="13.0728656"><ele>670.0</ele><time>2026-04-25T10:03:49.576Z</time></trkpt><trkpt lat="43.2522998" lon="13.0728905"><ele>670.0</ele><time>2026-04-25T10:03:50.59Z</time></trkpt><trkpt lat="43.2521901" lon="13.0729419"><ele>670.0</ele><time>2026-04-25T10:03:51.586Z</time></trkpt><trkpt lat="43.2520853" lon="13.0730252"><ele>670.0</ele><time>2026-04-25T10:03:52.58Z</time></trkpt><trkpt lat="43.2519747" lon="13.0731052"><ele>662.0</ele><time>2026-04-25T10:03:53.575Z</time></trkpt><trkpt lat="43.251861" lon="13.0731819"><ele>654.0</ele><time>2026-04-25T10:03:54.587Z</time></trkpt><trkpt lat="43.251735" lon="13.0732149"><ele>646.0</ele><time>2026-04-25T10:03:55.591Z</time></trkpt><trkpt lat="43.2516154" lon="13.0732475"><ele>638.0</ele><time>2026-04-25T10:03:56.589Z</time></trkpt><trkpt lat="43.2514964" lon="13.0732591"><ele>640.0</ele><time>2026-04-25T10:03:57.587Z</time></trkpt><trkpt lat="43.2513843" lon="13.0732851"><ele>642.0</ele><time>2026-04-25T10:03:58.582Z</time></trkpt><trkpt lat="43.2512733" lon="13.0733285"><ele>644.0</ele><time>2026-04-25T10:03:59.592Z</time></trkpt><trkpt lat="43.2511638" lon="13.0733758"><ele>646.0</ele><time>2026-04-25T10:04:00.588Z</time></trkpt><trkpt lat="43.2510631" lon="13.0734302"><ele>646.0</ele><time>2026-04-25T10:04:01.59Z</time></trkpt><trkpt lat="43.2509706" lon="13.0734867"><ele>646.0</ele><time>2026-04-25T10:04:02.586Z</time></trkpt><trkpt lat="43.2508802" lon="13.073551"><ele>646.0</ele><time>2026-04-25T10:04:03.583Z</time></trkpt><trkpt lat="43.2507751" lon="13.07363"><ele>646.0</ele><time>2026-04-25T10:04:04.591Z</time></trkpt><trkpt lat="43.2506692" lon="13.0737019"><ele>646.0</ele><time>2026-04-25T10:04:05.581Z</time></trkpt><trkpt lat="43.2505592" lon="13.0737581"><ele>646.4</ele><time>2026-04-25T10:04:06.582Z</time></trkpt><trkpt lat="43.2504538" lon="13.0738302"><ele>646.8</ele><time>2026-04-25T10:04:07.587Z</time></trkpt><trkpt lat="43.2503653" lon="13.0739144"><ele>647.1999999999999</ele><time>2026-04-25T10:04:08.585Z</time></trkpt><trkpt lat="43.2502765" lon="13.0740163"><ele>647.5999999999999</ele><time>2026-04-25T10:04:09.584Z</time></trkpt><trkpt lat="43.25019" lon="13.0741013"><ele>648.0</ele><time>2026-04-25T10:04:10.581Z</time></trkpt><trkpt lat="43.2500815" lon="13.0741641"><ele>648.0</ele><time>2026-04-25T10:04:11.595Z</time></trkpt><trkpt lat="43.2499567" lon="13.0742208"><ele>648.0</ele><time>2026-04-25T10:04:12.581Z</time></trkpt><trkpt lat="43.2498289" lon="13.0742698"><ele>648.0</ele><time>2026-04-25T10:04:13.588Z</time></trkpt><trkpt lat="43.2496977" lon="13.074335"><ele>648.0</ele><time>2026-04-25T10:04:14.581Z</time></trkpt><trkpt lat="43.249583" lon="13.074426"><ele>643.0</ele><time>2026-04-25T10:04:15.577Z</time></trkpt><trkpt lat="43.2494745" lon="13.0745243"><ele>638.0</ele><time>2026-04-25T10:04:16.59Z</time></trkpt><trkpt lat="43.2493904" lon="13.0746012"><ele>633.0</ele><time>2026-04-25T10:04:17.586Z</time></trkpt><trkpt lat="43.2493198" lon="13.0746767"><ele>628.0</ele><time>2026-04-25T10:04:18.586Z</time></trkpt><trkpt lat="43.2492545" lon="13.0747394"><ele>623.0</ele><time>2026-04-25T10:04:19.592Z</time></trkpt><trkpt lat="43.2491643" lon="13.074815"><ele>623.0</ele><time>2026-04-25T10:04:21.592Z</time></trkpt><trkpt lat="43.2490835" lon="13.0747253"><ele>623.0</ele><time>2026-04-25T10:04:24.593Z</time></trkpt><trkpt lat="43.2490978" lon="13.0745811"><ele>623.0</ele><time>2026-04-25T10:04:26.595Z</time></trkpt><trkpt lat="43.249151" lon="13.0745294"><ele>623.0</ele><time>2026-04-25T10:04:27.597Z</time></trkpt><trkpt lat="43.2492087" lon="13.0744789"><ele>623.0</ele><time>2026-04-25T10:04:28.591Z</time></trkpt><trkpt lat="43.2492713" lon="13.0744166"><ele>623.0</ele><time>2026-04-25T10:04:29.596Z</time></trkpt><trkpt lat="43.2493623" lon="13.074351"><ele>623.0</ele><time>2026-04-25T10:04:30.588Z</time></trkpt><trkpt lat="43.2494413" lon="13.0742626"><ele>623.0</ele><time>2026-04-25T10:04:31.588Z</time></trkpt><trkpt lat="43.2495118" lon="13.0741265"><ele>623.0</ele><time>2026-04-25T10:04:32.577Z</time></trkpt><trkpt lat="43.2496108" lon="13.0739857"><ele>623.0</ele><time>2026-04-25T10:04:33.577Z</time></trkpt><trkpt lat="43.2497054" lon="13.073871"><ele>623.6</ele><time>2026-04-25T10:04:34.581Z</time></trkpt><trkpt lat="43.2497767" lon="13.0737686"><ele>624.1999999999999</ele><time>2026-04-25T10:04:35.579Z</time></trkpt><trkpt lat="43.2498498" lon="13.0736444"><ele>624.8</ele><time>2026-04-25T10:04:36.577Z</time></trkpt><trkpt lat="43.2499059" lon="13.0735212"><ele>625.4</ele><time>2026-04-25T10:04:37.582Z</time></trkpt><trkpt lat="43.2499509" lon="13.0733822"><ele>626.0</ele><time>2026-04-25T10:04:38.584Z</time></trkpt><trkpt lat="43.2499741" lon="13.0732369"><ele>623.0</ele><time>2026-04-25T10:04:39.58Z</time></trkpt><trkpt lat="43.2500083" lon="13.0731092"><ele>620.0</ele><time>2026-04-25T10:04:40.589Z</time></trkpt><trkpt lat="43.2500428" lon="13.0729956"><ele>617.0</ele><time>2026-04-25T10:04:41.586Z</time></trkpt><trkpt lat="43.2500754" lon="13.0728921"><ele>614.0</ele><time>2026-04-25T10:04:42.576Z</time></trkpt><trkpt lat="43.2500907" lon="13.0727862"><ele>611.0</ele><time>2026-04-25T10:04:43.572Z</time></trkpt><trkpt lat="43.2501102" lon="13.0726673"><ele>608.0</ele><time>2026-04-25T10:04:44.574Z</time></trkpt><trkpt lat="43.2500716" lon="13.0725629"><ele>608.0</ele><time>2026-04-25T10:04:45.573Z</time></trkpt><trkpt lat="43.2500018" lon="13.0725206"><ele>608.0</ele><time>2026-04-25T10:04:46.575Z</time></trkpt><trkpt lat="43.2499359" lon="13.0724789"><ele>608.0</ele><time>2026-04-25T10:04:47.579Z</time></trkpt><trkpt lat="43.2498667" lon="13.072415"><ele>608.0</ele><time>2026-04-25T10:04:49.567Z</time></trkpt><trkpt lat="43.2497963" lon="13.072386"><ele>608.0</ele><time>2026-04-25T10:04:51.552Z</time></trkpt><trkpt lat="43.2497212" lon="13.0724373"><ele>608.0</ele><time>2026-04-25T10:04:53.55Z</time></trkpt><trkpt lat="43.2496473" lon="13.0725752"><ele>602.0</ele><time>2026-04-25T10:04:55.535Z</time></trkpt><trkpt lat="43.2496001" lon="13.0728622"><ele>596.0</ele><time>2026-04-25T10:04:56.546Z</time></trkpt><trkpt lat="43.2495776" lon="13.073164"><ele>590.0</ele><time>2026-04-25T10:04:57.556Z</time></trkpt><trkpt lat="43.2495655" lon="13.0732808"><ele>590.0</ele><time>2026-04-25T10:04:58.563Z</time></trkpt><trkpt lat="43.249523" lon="13.073353"><ele>590.0</ele><time>2026-04-25T10:04:59.565Z</time></trkpt><trkpt lat="43.2494623" lon="13.0734149"><ele>590.0</ele><time>2026-04-25T10:05:00.571Z</time></trkpt><trkpt lat="43.2494081" lon="13.0734981"><ele>590.0</ele><time>2026-04-25T10:05:01.568Z</time></trkpt><trkpt lat="43.2493499" lon="13.0735751"><ele>590.0</ele><time>2026-04-25T10:05:02.573Z</time></trkpt><trkpt lat="43.2492989" lon="13.0736668"><ele>590.0</ele><time>2026-04-25T10:05:03.576Z</time></trkpt><trkpt lat="43.2492493" lon="13.0737772"><ele>590.0</ele><time>2026-04-25T10:05:04.571Z</time></trkpt><trkpt lat="43.2491956" lon="13.0738902"><ele>590.0</ele><time>2026-04-25T10:05:05.571Z</time></trkpt><trkpt lat="43.2491297" lon="13.0739705"><ele>590.0</ele><time>2026-04-25T10:05:06.573Z</time></trkpt><trkpt lat="43.2490515" lon="13.0740361"><ele>590.0</ele><time>2026-04-25T10:05:07.57Z</time></trkpt><trkpt lat="43.248972" lon="13.0740919"><ele>590.0</ele><time>2026-04-25T10:05:08.575Z</time></trkpt><trkpt lat="43.2488841" lon="13.0741118"><ele>592.4</ele><time>2026-04-25T10:05:09.573Z</time></trkpt><trkpt lat="43.2487946" lon="13.0741051"><ele>594.8</ele><time>2026-04-25T10:05:10.582Z</time></trkpt><trkpt lat="43.2487002" lon="13.0740771"><ele>597.2</ele><time>2026-04-25T10:05:11.575Z</time></trkpt><trkpt lat="43.2485908" lon="13.0740339"><ele>599.6</ele><time>2026-04-25T10:05:12.579Z</time></trkpt><trkpt lat="43.2484836" lon="13.0739963"><ele>602.0</ele><time>2026-04-25T10:05:13.58Z</time></trkpt><trkpt lat="43.2483789" lon="13.0739664"><ele>592.5</ele><time>2026-04-25T10:05:14.586Z</time></trkpt><trkpt lat="43.2482649" lon="13.0739564"><ele>583.0</ele><time>2026-04-25T10:05:15.576Z</time></trkpt><trkpt lat="43.2481443" lon="13.073947"><ele>573.5</ele><time>2026-04-25T10:05:16.584Z</time></trkpt><trkpt lat="43.248017" lon="13.0739448"><ele>564.0</ele><time>2026-04-25T10:05:17.586Z</time></trkpt><trkpt lat="43.2478981" lon="13.0739282"><ele>562.4</ele><time>2026-04-25T10:05:18.584Z</time></trkpt><trkpt lat="43.2477827" lon="13.0739182"><ele>560.8</ele><time>2026-04-25T10:05:19.586Z</time></trkpt><trkpt lat="43.2476771" lon="13.0739001"><ele>559.2</ele><time>2026-04-25T10:05:20.589Z</time></trkpt><trkpt lat="43.2475757" lon="13.0739143"><ele>557.6</ele><time>2026-04-25T10:05:21.587Z</time></trkpt><trkpt lat="43.2474803" lon="13.0739413"><ele>556.0</ele><time>2026-04-25T10:05:22.579Z</time></trkpt><trkpt lat="43.2473886" lon="13.073979"><ele>556.0</ele><time>2026-04-25T10:05:23.581Z</time></trkpt><trkpt lat="43.2473088" lon="13.0740338"><ele>556.0</ele><time>2026-04-25T10:05:24.584Z</time></trkpt><trkpt lat="43.247234" lon="13.0741089"><ele>556.0</ele><time>2026-04-25T10:05:25.586Z</time></trkpt><trkpt lat="43.2471422" lon="13.0742053"><ele>556.0</ele><time>2026-04-25T10:05:26.58Z</time></trkpt><trkpt lat="43.2470391" lon="13.0742905"><ele>556.0</ele><time>2026-04-25T10:05:27.576Z</time></trkpt><trkpt lat="43.2469349" lon="13.0743654"><ele>557.6</ele><time>2026-04-25T10:05:28.581Z</time></trkpt><trkpt lat="43.2468355" lon="13.0744407"><ele>559.2</ele><time>2026-04-25T10:05:29.589Z</time></trkpt><trkpt lat="43.2467329" lon="13.0744898"><ele>560.8</ele><time>2026-04-25T10:05:30.585Z</time></trkpt><trkpt lat="43.2466331" lon="13.074519"><ele>562.4</ele><time>2026-04-25T10:05:31.581Z</time></trkpt><trkpt lat="43.2465358" lon="13.0745357"><ele>564.0</ele><time>2026-04-25T10:05:32.579Z</time></trkpt><trkpt lat="43.246435" lon="13.0745417"><ele>558.0</ele><time>2026-04-25T10:05:33.579Z</time></trkpt><trkpt lat="43.2463408" lon="13.0745688"><ele>552.0</ele><time>2026-04-25T10:05:34.58Z</time></trkpt><trkpt lat="43.2462421" lon="13.0745842"><ele>546.0</ele><time>2026-04-25T10:05:35.575Z</time></trkpt><trkpt lat="43.2461421" lon="13.0746172"><ele>540.0</ele><time>2026-04-25T10:05:36.572Z</time></trkpt><trkpt lat="43.2460364" lon="13.0746906"><ele>534.0</ele><time>2026-04-25T10:05:37.576Z</time></trkpt><trkpt lat="43.2459442" lon="13.0747912"><ele>534.0</ele><time>2026-04-25T10:05:38.575Z</time></trkpt><trkpt lat="43.2458581" lon="13.074875"><ele>534.0</ele><time>2026-04-25T10:05:39.576Z</time></trkpt><trkpt lat="43.2457796" lon="13.0749647"><ele>534.0</ele><time>2026-04-25T10:05:40.585Z</time></trkpt><trkpt lat="43.2457091" lon="13.0750631"><ele>534.0</ele><time>2026-04-25T10:05:41.586Z</time></trkpt><trkpt lat="43.2456636" lon="13.0751279"><ele>534.0</ele><time>2026-04-25T10:05:42.573Z</time></trkpt><trkpt lat="43.245605" lon="13.075217"><ele>536.0</ele><time>2026-04-25T10:05:43.574Z</time></trkpt><trkpt lat="43.2455286" lon="13.0753065"><ele>538.0</ele><time>2026-04-25T10:05:44.577Z</time></trkpt><trkpt lat="43.2454425" lon="13.0753499"><ele>540.0</ele><time>2026-04-25T10:05:45.564Z</time></trkpt><trkpt lat="43.2453288" lon="13.0753838"><ele>542.0</ele><time>2026-04-25T10:05:46.581Z</time></trkpt><trkpt lat="43.2452132" lon="13.075398"><ele>544.0</ele><time>2026-04-25T10:05:47.576Z</time></trkpt><trkpt lat="43.2450847" lon="13.0753749"><ele>544.0</ele><time>2026-04-25T10:05:48.576Z</time></trkpt><trkpt lat="43.2449613" lon="13.075375"><ele>544.0</ele><time>2026-04-25T10:05:49.576Z</time></trkpt><trkpt lat="43.2448386" lon="13.0753846"><ele>544.0</ele><time>2026-04-25T10:05:50.58Z</time></trkpt><trkpt lat="43.2447228" lon="13.0754178"><ele>544.0</ele><time>2026-04-25T10:05:51.578Z</time></trkpt><trkpt lat="43.2446175" lon="13.075451"><ele>544.0</ele><time>2026-04-25T10:05:52.573Z</time></trkpt><trkpt lat="43.2445289" lon="13.0754925"><ele>544.0</ele><time>2026-04-25T10:05:53.582Z</time></trkpt><trkpt lat="43.2444407" lon="13.0755367"><ele>544.0</ele><time>2026-04-25T10:05:54.577Z</time></trkpt><trkpt lat="43.2443612" lon="13.0756094"><ele>544.0</ele><time>2026-04-25T10:05:55.583Z</time></trkpt><trkpt lat="43.2443132" lon="13.0757071"><ele>544.0</ele><time>2026-04-25T10:05:56.58Z</time></trkpt><trkpt lat="43.2442562" lon="13.0758161"><ele>544.0</ele><time>2026-04-25T10:05:57.568Z</time></trkpt><trkpt lat="43.244213" lon="13.0759387"><ele>544.0</ele><time>2026-04-25T10:05:58.572Z</time></trkpt><trkpt lat="43.2441614" lon="13.0760304"><ele>544.0</ele><time>2026-04-25T10:05:59.572Z</time></trkpt><trkpt lat="43.244077" lon="13.0761143"><ele>544.0</ele><time>2026-04-25T10:06:00.573Z</time></trkpt><trkpt lat="43.2439825" lon="13.0761603"><ele>544.0</ele><time>2026-04-25T10:06:01.581Z</time></trkpt><trkpt lat="43.2438882" lon="13.0761772"><ele>542.5</ele><time>2026-04-25T10:06:02.574Z</time></trkpt><trkpt lat="43.2438078" lon="13.076183"><ele>541.0</ele><time>2026-04-25T10:06:03.573Z</time></trkpt><trkpt lat="43.2437442" lon="13.0762164"><ele>539.5</ele><time>2026-04-25T10:06:04.578Z</time></trkpt><trkpt lat="43.2436707" lon="13.0763805"><ele>538.0</ele><time>2026-04-25T10:06:06.578Z</time></trkpt><trkpt lat="43.2436458" lon="13.0764826"><ele>536.5</ele><time>2026-04-25T10:06:07.575Z</time></trkpt><trkpt lat="43.243616" lon="13.0765784"><ele>535.0</ele><time>2026-04-25T10:06:08.583Z</time></trkpt><trkpt lat="43.2435748" lon="13.0766693"><ele>535.0</ele><time>2026-04-25T10:06:09.581Z</time></trkpt><trkpt lat="43.2435224" lon="13.0767491"><ele>535.0</ele><time>2026-04-25T10:06:10.581Z</time></trkpt><trkpt lat="43.2434626" lon="13.0767884"><ele>535.0</ele><time>2026-04-25T10:06:11.579Z</time></trkpt><trkpt lat="43.2433768" lon="13.0768169"><ele>535.0</ele><time>2026-04-25T10:06:12.581Z</time></trkpt><trkpt lat="43.2432817" lon="13.0768292"><ele>535.0</ele><time>2026-04-25T10:06:13.582Z</time></trkpt><trkpt lat="43.2431855" lon="13.0768199"><ele>535.0</ele><time>2026-04-25T10:06:14.602Z</time></trkpt><trkpt lat="43.2430911" lon="13.0767647"><ele>535.1666666666667</ele><time>2026-04-25T10:06:15.581Z</time></trkpt><trkpt lat="43.2430214" lon="13.0766785"><ele>535.3333333333334</ele><time>2026-04-25T10:06:16.593Z</time></trkpt><trkpt lat="43.2429663" lon="13.0765977"><ele>535.5</ele><time>2026-04-25T10:06:17.58Z</time></trkpt><trkpt lat="43.2429025" lon="13.0765458"><ele>535.6666666666666</ele><time>2026-04-25T10:06:18.581Z</time></trkpt><trkpt lat="43.2428371" lon="13.0765087"><ele>535.8333333333333</ele><time>2026-04-25T10:06:19.584Z</time></trkpt><trkpt lat="43.2427717" lon="13.0764941"><ele>536.0</ele><time>2026-04-25T10:06:20.584Z</time></trkpt><trkpt lat="43.2426584" lon="13.0765137"><ele>535.2</ele><time>2026-04-25T10:06:22.582Z</time></trkpt><trkpt lat="43.2425781" lon="13.0765338"><ele>534.4000000000001</ele><time>2026-04-25T10:06:23.587Z</time></trkpt><trkpt lat="43.2424863" lon="13.0765654"><ele>533.6</ele><time>2026-04-25T10:06:24.579Z</time></trkpt><trkpt lat="43.242388" lon="13.0766029"><ele>532.8000000000001</ele><time>2026-04-25T10:06:25.573Z</time></trkpt><trkpt lat="43.2422891" lon="13.076635"><ele>532.0</ele><time>2026-04-25T10:06:26.581Z</time></trkpt><trkpt lat="43.242186" lon="13.0766621"><ele>532.0</ele><time>2026-04-25T10:06:27.573Z</time></trkpt><trkpt lat="43.2420767" lon="13.0766724"><ele>532.0</ele><time>2026-04-25T10:06:28.571Z</time></trkpt><trkpt lat="43.2419469" lon="13.0766919"><ele>532.0</ele><time>2026-04-25T10:06:29.575Z</time></trkpt><trkpt lat="43.2418199" lon="13.0767246"><ele>532.0</ele><time>2026-04-25T10:06:30.577Z</time></trkpt><trkpt lat="43.2417522" lon="13.0767566"><ele>532.0</ele><time>2026-04-25T10:06:31.576Z</time></trkpt><trkpt lat="43.2416701" lon="13.0767618"><ele>532.0</ele><time>2026-04-25T10:06:32.561Z</time></trkpt><trkpt lat="43.2415982" lon="13.0767024"><ele>532.0</ele><time>2026-04-25T10:06:33.581Z</time></trkpt><trkpt lat="43.2415647" lon="13.0765761"><ele>532.0</ele><time>2026-04-25T10:06:34.578Z</time></trkpt><trkpt lat="43.2415542" lon="13.0763992"><ele>532.0</ele><time>2026-04-25T10:06:35.579Z</time></trkpt><trkpt lat="43.2415443" lon="13.0762112"><ele>532.0</ele><time>2026-04-25T10:06:36.571Z</time></trkpt><trkpt lat="43.2415469" lon="13.0760362"><ele>529.5</ele><time>2026-04-25T10:06:37.583Z</time></trkpt><trkpt lat="43.241543" lon="13.0758685"><ele>527.0</ele><time>2026-04-25T10:06:38.576Z</time></trkpt><trkpt lat="43.2415402" lon="13.0757119"><ele>524.5</ele><time>2026-04-25T10:06:39.581Z</time></trkpt><trkpt lat="43.2415259" lon="13.075552"><ele>522.0</ele><time>2026-04-25T10:06:40.583Z</time></trkpt><trkpt lat="43.241495" lon="13.0754155"><ele>520.75</ele><time>2026-04-25T10:06:41.578Z</time></trkpt><trkpt lat="43.241444" lon="13.0752646"><ele>519.5</ele><time>2026-04-25T10:06:42.586Z</time></trkpt><trkpt lat="43.2413716" lon="13.0750978"><ele>518.25</ele><time>2026-04-25T10:06:43.588Z</time></trkpt><trkpt lat="43.2412985" lon="13.0749406"><ele>517.0</ele><time>2026-04-25T10:06:44.582Z</time></trkpt><trkpt lat="43.2412266" lon="13.0747884"><ele>517.0</ele><time>2026-04-25T10:06:45.579Z</time></trkpt><trkpt lat="43.2411592" lon="13.0746888"><ele>517.0</ele><time>2026-04-25T10:06:46.584Z</time></trkpt><trkpt lat="43.2410928" lon="13.0746008"><ele>517.0</ele><time>2026-04-25T10:06:47.595Z</time></trkpt><trkpt lat="43.2409908" lon="13.0745487"><ele>517.0</ele><time>2026-04-25T10:06:48.587Z</time></trkpt><trkpt lat="43.2408778" lon="13.0744817"><ele>517.0</ele><time>2026-04-25T10:06:49.583Z</time></trkpt><trkpt lat="43.2407616" lon="13.0744111"><ele>517.0</ele><time>2026-04-25T10:06:50.584Z</time></trkpt><trkpt lat="43.2406642" lon="13.0743496"><ele>517.0</ele><time>2026-04-25T10:06:51.587Z</time></trkpt><trkpt lat="43.2405669" lon="13.0742865"><ele>517.0</ele><time>2026-04-25T10:06:52.587Z</time></trkpt><trkpt lat="43.2404953" lon="13.0742273"><ele>517.0</ele><time>2026-04-25T10:06:53.585Z</time></trkpt><trkpt lat="43.2404387" lon="13.0741401"><ele>517.0</ele><time>2026-04-25T10:06:54.592Z</time></trkpt><trkpt lat="43.2404075" lon="13.0740511"><ele>512.8000000000001</ele><time>2026-04-25T10:06:55.583Z</time></trkpt><trkpt lat="43.2403868" lon="13.0739507"><ele>508.6</ele><time>2026-04-25T10:06:56.583Z</time></trkpt><trkpt lat="43.2403756" lon="13.0738357"><ele>504.40000000000003</ele><time>2026-04-25T10:06:57.581Z</time></trkpt><trkpt lat="43.240376" lon="13.0737012"><ele>500.20000000000005</ele><time>2026-04-25T10:06:58.578Z</time></trkpt><trkpt lat="43.2403798" lon="13.073559"><ele>496.0</ele><time>2026-04-25T10:06:59.583Z</time></trkpt><trkpt lat="43.2403684" lon="13.073389"><ele>496.75</ele><time>2026-04-25T10:07:00.575Z</time></trkpt><trkpt lat="43.2403369" lon="13.0732269"><ele>497.5</ele><time>2026-04-25T10:07:01.584Z</time></trkpt><trkpt lat="43.2402798" lon="13.0730775"><ele>498.25</ele><time>2026-04-25T10:07:02.584Z</time></trkpt><trkpt lat="43.2401998" lon="13.0729328"><ele>499.0</ele><time>2026-04-25T10:07:03.582Z</time></trkpt><trkpt lat="43.240128" lon="13.0727976"><ele>499.0</ele><time>2026-04-25T10:07:04.578Z</time></trkpt><trkpt lat="43.2400545" lon="13.072668"><ele>499.0</ele><time>2026-04-25T10:07:05.582Z</time></trkpt><trkpt lat="43.2399929" lon="13.0725625"><ele>499.0</ele><time>2026-04-25T10:07:06.577Z</time></trkpt><trkpt lat="43.2399492" lon="13.0724618"><ele>499.0</ele><time>2026-04-25T10:07:07.579Z</time></trkpt><trkpt lat="43.2399175" lon="13.0723506"><ele>499.0</ele><time>2026-04-25T10:07:08.577Z</time></trkpt><trkpt lat="43.2398966" lon="13.0722337"><ele>498.4</ele><time>2026-04-25T10:07:09.584Z</time></trkpt><trkpt lat="43.2398914" lon="13.0721077"><ele>497.79999999999995</ele><time>2026-04-25T10:07:10.575Z</time></trkpt><trkpt lat="43.2399136" lon="13.0719783"><ele>497.20000000000005</ele><time>2026-04-25T10:07:11.58Z</time></trkpt><trkpt lat="43.2399609" lon="13.0718483"><ele>496.6</ele><time>2026-04-25T10:07:12.583Z</time></trkpt><trkpt lat="43.2400162" lon="13.0717138"><ele>496.0</ele><time>2026-04-25T10:07:13.581Z</time></trkpt><trkpt lat="43.240076" lon="13.0715965"><ele>494.33333333333337</ele><time>2026-04-25T10:07:14.585Z</time></trkpt><trkpt lat="43.2401248" lon="13.0714985"><ele>492.6666666666667</ele><time>2026-04-25T10:07:15.568Z</time></trkpt><trkpt lat="43.2401798" lon="13.0714124"><ele>491.0</ele><time>2026-04-25T10:07:16.582Z</time></trkpt><trkpt lat="43.2402295" lon="13.0713392"><ele>489.33333333333337</ele><time>2026-04-25T10:07:17.575Z</time></trkpt><trkpt lat="43.2402778" lon="13.0712658"><ele>487.6666666666667</ele><time>2026-04-25T10:07:18.581Z</time></trkpt><trkpt lat="43.2403199" lon="13.071188"><ele>486.0</ele><time>2026-04-25T10:07:19.572Z</time></trkpt><trkpt lat="43.2403759" lon="13.071141"><ele>486.0</ele><time>2026-04-25T10:07:20.573Z</time></trkpt><trkpt lat="43.2404495" lon="13.0710339"><ele>486.0</ele><time>2026-04-25T10:07:22.581Z</time></trkpt><trkpt lat="43.2405065" lon="13.070905"><ele>486.0</ele><time>2026-04-25T10:07:24.569Z</time></trkpt><trkpt lat="43.2405301" lon="13.0707725"><ele>486.0</ele><time>2026-04-25T10:07:26.57Z</time></trkpt><trkpt lat="43.240547" lon="13.0705827"><ele>485.8333333333333</ele><time>2026-04-25T10:07:28.57Z</time></trkpt><trkpt lat="43.2405852" lon="13.0704681"><ele>485.66666666666663</ele><time>2026-04-25T10:07:29.576Z</time></trkpt><trkpt lat="43.2406196" lon="13.0703847"><ele>485.5</ele><time>2026-04-25T10:07:30.572Z</time></trkpt><trkpt lat="43.240642" lon="13.0703004"><ele>485.3333333333333</ele><time>2026-04-25T10:07:31.572Z</time></trkpt><trkpt lat="43.2406528" lon="13.0701467"><ele>485.16666666666663</ele><time>2026-04-25T10:07:33.589Z</time></trkpt><trkpt lat="43.2406072" lon="13.0700245"><ele>485.0</ele><time>2026-04-25T10:07:35.588Z</time></trkpt><trkpt lat="43.2405696" lon="13.0699485"><ele>483.66666666666663</ele><time>2026-04-25T10:07:36.583Z</time></trkpt><trkpt lat="43.2405349" lon="13.0698662"><ele>482.3333333333333</ele><time>2026-04-25T10:07:37.585Z</time></trkpt><trkpt lat="43.2405099" lon="13.0697641"><ele>481.0</ele><time>2026-04-25T10:07:38.586Z</time></trkpt><trkpt lat="43.2404941" lon="13.0696646"><ele>479.66666666666663</ele><time>2026-04-25T10:07:39.585Z</time></trkpt><trkpt lat="43.2404649" lon="13.069565"><ele>478.3333333333333</ele><time>2026-04-25T10:07:40.579Z</time></trkpt><trkpt lat="43.2404142" lon="13.0694778"><ele>477.0</ele><time>2026-04-25T10:07:41.584Z</time></trkpt><trkpt lat="43.2403558" lon="13.0694015"><ele>477.0</ele><time>2026-04-25T10:07:42.58Z</time></trkpt><trkpt lat="43.2402774" lon="13.0693378"><ele>477.0</ele><time>2026-04-25T10:07:43.59Z</time></trkpt><trkpt lat="43.2402204" lon="13.0692681"><ele>477.0</ele><time>2026-04-25T10:07:44.581Z</time></trkpt><trkpt lat="43.2401763" lon="13.0691894"><ele>477.0</ele><time>2026-04-25T10:07:45.58Z</time></trkpt><trkpt lat="43.240121" lon="13.0690911"><ele>477.0</ele><time>2026-04-25T10:07:46.586Z</time></trkpt><trkpt lat="43.2400542" lon="13.0690354"><ele>477.0</ele><time>2026-04-25T10:07:47.577Z</time></trkpt><trkpt lat="43.2399923" lon="13.0689944"><ele>477.0</ele><time>2026-04-25T10:07:48.586Z</time></trkpt><trkpt lat="43.2398903" lon="13.0689314"><ele>477.00000000000006</ele><time>2026-04-25T10:07:50.577Z</time></trkpt><trkpt lat="43.2397938" lon="13.0688922"><ele>477.00000000000006</ele><time>2026-04-25T10:07:52.576Z</time></trkpt><trkpt lat="43.2397322" lon="13.0688377"><ele>477.0</ele><time>2026-04-25T10:07:53.578Z</time></trkpt><trkpt lat="43.2396695" lon="13.0687663"><ele>477.0</ele><time>2026-04-25T10:07:54.58Z</time></trkpt><trkpt lat="43.2396062" lon="13.0686893"><ele>476.0</ele><time>2026-04-25T10:07:55.582Z</time></trkpt><trkpt lat="43.2395304" lon="13.0686186"><ele>475.0</ele><time>2026-04-25T10:07:56.575Z</time></trkpt><trkpt lat="43.2394574" lon="13.0685246"><ele>474.0</ele><time>2026-04-25T10:07:57.585Z</time></trkpt><trkpt lat="43.2393942" lon="13.0684331"><ele>473.0</ele><time>2026-04-25T10:07:58.584Z</time></trkpt><trkpt lat="43.2393347" lon="13.0683581"><ele>472.0</ele><time>2026-04-25T10:07:59.581Z</time></trkpt><trkpt lat="43.2392749" lon="13.0682841"><ele>471.0</ele><time>2026-04-25T10:08:00.582Z</time></trkpt><trkpt lat="43.2392046" lon="13.0682131"><ele>470.3333333333333</ele><time>2026-04-25T10:08:01.578Z</time></trkpt><trkpt lat="43.2391485" lon="13.068137"><ele>469.66666666666663</ele><time>2026-04-25T10:08:02.584Z</time></trkpt><trkpt lat="43.2391197" lon="13.0680528"><ele>469.0</ele><time>2026-04-25T10:08:03.588Z</time></trkpt><trkpt lat="43.2390824" lon="13.0679698"><ele>468.3333333333333</ele><time>2026-04-25T10:08:04.584Z</time></trkpt><trkpt lat="43.2390681" lon="13.0678556"><ele>467.66666666666663</ele><time>2026-04-25T10:08:05.589Z</time></trkpt><trkpt lat="43.2390655" lon="13.0677479"><ele>467.0</ele><time>2026-04-25T10:08:06.582Z</time></trkpt><trkpt lat="43.2390553" lon="13.0676472"><ele>466.99999999999994</ele><time>2026-04-25T10:08:07.586Z</time></trkpt><trkpt lat="43.2390451" lon="13.0675569"><ele>467.0</ele><time>2026-04-25T10:08:08.587Z</time></trkpt><trkpt lat="43.2390673" lon="13.0674216"><ele>467.0</ele><time>2026-04-25T10:08:10.586Z</time></trkpt><trkpt lat="43.2391437" lon="13.0674144"><ele>467.0</ele><time>2026-04-25T10:08:11.585Z</time></trkpt><trkpt lat="43.2392138" lon="13.0674305"><ele>466.99999999999994</ele><time>2026-04-25T10:08:12.578Z</time></trkpt><trkpt lat="43.2392834" lon="13.0674764"><ele>467.0</ele><time>2026-04-25T10:08:13.581Z</time></trkpt><trkpt lat="43.2393685" lon="13.0675378"><ele>467.0</ele><time>2026-04-25T10:08:14.581Z</time></trkpt><trkpt lat="43.2394659" lon="13.0675764"><ele>467.00000000000006</ele><time>2026-04-25T10:08:15.581Z</time></trkpt><trkpt lat="43.2395598" lon="13.0675716"><ele>467.00000000000006</ele><time>2026-04-25T10:08:16.585Z</time></trkpt><trkpt lat="43.2396659" lon="13.0675325"><ele>467.0</ele><time>2026-04-25T10:08:17.578Z</time></trkpt><trkpt lat="43.2397608" lon="13.0674542"><ele>467.0</ele><time>2026-04-25T10:08:18.581Z</time></trkpt><trkpt lat="43.239858" lon="13.0673616"><ele>459.0</ele><time>2026-04-25T10:08:19.576Z</time></trkpt><trkpt lat="43.239974" lon="13.0672851"><ele>451.0</ele><time>2026-04-25T10:08:20.582Z</time></trkpt><trkpt lat="43.2400999" lon="13.0672206"><ele>443.0</ele><time>2026-04-25T10:08:21.583Z</time></trkpt><trkpt lat="43.2402179" lon="13.0671575"><ele>435.0</ele><time>2026-04-25T10:08:22.582Z</time></trkpt><trkpt lat="43.2403278" lon="13.0671071"><ele>435.0</ele><time>2026-04-25T10:08:23.586Z</time></trkpt><trkpt lat="43.2404209" lon="13.0670686"><ele>435.0</ele><time>2026-04-25T10:08:24.586Z</time></trkpt><trkpt lat="43.2404848" lon="13.0670393"><ele>435.0</ele><time>2026-04-25T10:08:25.586Z</time></trkpt><trkpt lat="43.2405628" lon="13.0670523"><ele>435.0</ele><time>2026-04-25T10:08:26.588Z</time></trkpt><trkpt lat="43.2406291" lon="13.0671055"><ele>435.0</ele><time>2026-04-25T10:08:27.589Z</time></trkpt><trkpt lat="43.240687" lon="13.0672317"><ele>435.0</ele><time>2026-04-25T10:08:28.588Z</time></trkpt><trkpt lat="43.2407249" lon="13.0673664"><ele>435.5</ele><time>2026-04-25T10:08:29.572Z</time></trkpt><trkpt lat="43.2407526" lon="13.0675"><ele>436.0</ele><time>2026-04-25T10:08:30.573Z</time></trkpt><trkpt lat="43.2407872" lon="13.0676537"><ele>436.5</ele><time>2026-04-25T10:08:31.569Z</time></trkpt><trkpt lat="43.2408213" lon="13.0678128"><ele>437.0</ele><time>2026-04-25T10:08:32.566Z</time></trkpt><trkpt lat="43.2408659" lon="13.0679776"><ele>437.0</ele><time>2026-04-25T10:08:33.576Z</time></trkpt><trkpt lat="43.2409044" lon="13.0681188"><ele>437.00000000000006</ele><time>2026-04-25T10:08:34.58Z</time></trkpt><trkpt lat="43.2409485" lon="13.0682321"><ele>437.00000000000006</ele><time>2026-04-25T10:08:35.584Z</time></trkpt><trkpt lat="43.2410157" lon="13.0683343"><ele>437.0</ele><time>2026-04-25T10:08:36.576Z</time></trkpt><trkpt lat="43.2410921" lon="13.0684085"><ele>437.0</ele><time>2026-04-25T10:08:37.575Z</time></trkpt><trkpt lat="43.2412075" lon="13.068455"><ele>437.25</ele><time>2026-04-25T10:08:38.576Z</time></trkpt><trkpt lat="43.2413123" lon="13.0684666"><ele>437.5</ele><time>2026-04-25T10:08:39.578Z</time></trkpt><trkpt lat="43.2414442" lon="13.0684119"><ele>437.75</ele><time>2026-04-25T10:08:40.58Z</time></trkpt><trkpt lat="43.2415395" lon="13.0683303"><ele>438.0</ele><time>2026-04-25T10:08:41.576Z</time></trkpt><trkpt lat="43.2416232" lon="13.0682099"><ele>434.75</ele><time>2026-04-25T10:08:42.578Z</time></trkpt><trkpt lat="43.2416877" lon="13.0680554"><ele>431.5</ele><time>2026-04-25T10:08:43.591Z</time></trkpt><trkpt lat="43.2417498" lon="13.0678944"><ele>428.25</ele><time>2026-04-25T10:08:44.58Z</time></trkpt><trkpt lat="43.2418219" lon="13.0677235"><ele>425.0</ele><time>2026-04-25T10:08:45.585Z</time></trkpt><trkpt lat="43.2418715" lon="13.0675085"><ele>421.25</ele><time>2026-04-25T10:08:46.588Z</time></trkpt><trkpt lat="43.2419486" lon="13.0673213"><ele>417.5</ele><time>2026-04-25T10:08:47.588Z</time></trkpt><trkpt lat="43.2420299" lon="13.0671787"><ele>413.75</ele><time>2026-04-25T10:08:48.586Z</time></trkpt><trkpt lat="43.2421085" lon="13.0670697"><ele>410.0</ele><time>2026-04-25T10:08:49.591Z</time></trkpt><trkpt lat="43.2421854" lon="13.0669792"><ele>410.0</ele><time>2026-04-25T10:08:50.579Z</time></trkpt><trkpt lat="43.2422652" lon="13.0669377"><ele>410.0</ele><time>2026-04-25T10:08:51.586Z</time></trkpt><trkpt lat="43.242351" lon="13.0669441"><ele>410.0</ele><time>2026-04-25T10:08:52.581Z</time></trkpt><trkpt lat="43.242459" lon="13.0669514"><ele>410.0</ele><time>2026-04-25T10:08:53.583Z</time></trkpt><trkpt lat="43.2425775" lon="13.0669782"><ele>410.0</ele><time>2026-04-25T10:08:54.576Z</time></trkpt><trkpt lat="43.242712" lon="13.0670211"><ele>409.0</ele><time>2026-04-25T10:08:55.581Z</time></trkpt><trkpt lat="43.2428493" lon="13.0670836"><ele>408.0</ele><time>2026-04-25T10:08:56.572Z</time></trkpt><trkpt lat="43.2429632" lon="13.0671568"><ele>407.0</ele><time>2026-04-25T10:08:57.577Z</time></trkpt><trkpt lat="43.2430601" lon="13.0672303"><ele>406.0</ele><time>2026-04-25T10:08:58.571Z</time></trkpt><trkpt lat="43.2431366" lon="13.0673205"><ele>405.0</ele><time>2026-04-25T10:08:59.579Z</time></trkpt><trkpt lat="43.243193" lon="13.0673997"><ele>404.0</ele><time>2026-04-25T10:09:00.579Z</time></trkpt><trkpt lat="43.2432578" lon="13.0674283"><ele>403.0</ele><time>2026-04-25T10:09:01.572Z</time></trkpt><trkpt lat="43.2433211" lon="13.067405"><ele>402.0</ele><time>2026-04-25T10:09:02.576Z</time></trkpt><trkpt lat="43.2433775" lon="13.0672959"><ele>401.0</ele><time>2026-04-25T10:09:04.576Z</time></trkpt><trkpt lat="43.2433533" lon="13.0672133"><ele>400.0</ele><time>2026-04-25T10:09:05.57Z</time></trkpt><trkpt lat="43.2432992" lon="13.0671503"><ele>399.0</ele><time>2026-04-25T10:09:06.579Z</time></trkpt><trkpt lat="43.2432282" lon="13.0671057"><ele>399.0</ele><time>2026-04-25T10:09:07.576Z</time></trkpt><trkpt lat="43.2431372" lon="13.0670493"><ele>399.0</ele><time>2026-04-25T10:09:08.587Z</time></trkpt><trkpt lat="43.2430189" lon="13.0669743"><ele>399.0</ele><time>2026-04-25T10:09:09.574Z</time></trkpt><trkpt lat="43.2428907" lon="13.0668777"><ele>399.0</ele><time>2026-04-25T10:09:10.577Z</time></trkpt><trkpt lat="43.2427538" lon="13.0667782"><ele>398.0</ele><time>2026-04-25T10:09:11.573Z</time></trkpt><trkpt lat="43.2425982" lon="13.0666557"><ele>397.0</ele><time>2026-04-25T10:09:12.578Z</time></trkpt><trkpt lat="43.2424039" lon="13.0664987"><ele>396.0</ele><time>2026-04-25T10:09:13.578Z</time></trkpt><trkpt lat="43.242255" lon="13.0663551"><ele>395.25</ele><time>2026-04-25T10:09:14.577Z</time></trkpt><trkpt lat="43.2421057" lon="13.0662382"><ele>394.5</ele><time>2026-04-25T10:09:15.573Z</time></trkpt><trkpt lat="43.2419935" lon="13.066153"><ele>393.75</ele><time>2026-04-25T10:09:16.589Z</time></trkpt><trkpt lat="43.2418678" lon="13.0660781"><ele>393.0</ele><time>2026-04-25T10:09:17.573Z</time></trkpt><trkpt lat="43.241703" lon="13.0659829"><ele>393.0</ele><time>2026-04-25T10:09:18.58Z</time></trkpt><trkpt lat="43.2415598" lon="13.0659167"><ele>393.0</ele><time>2026-04-25T10:09:19.578Z</time></trkpt><trkpt lat="43.2414256" lon="13.0658579"><ele>393.0</ele><time>2026-04-25T10:09:20.577Z</time></trkpt><trkpt lat="43.2412831" lon="13.0657872"><ele>393.0</ele><time>2026-04-25T10:09:21.573Z</time></trkpt><trkpt lat="43.241158" lon="13.0657162"><ele>391.0</ele><time>2026-04-25T10:09:22.577Z</time></trkpt><trkpt lat="43.2410164" lon="13.0656373"><ele>389.0</ele><time>2026-04-25T10:09:23.576Z</time></trkpt><trkpt lat="43.2408837" lon="13.0655368"><ele>387.0</ele><time>2026-04-25T10:09:24.571Z</time></trkpt><trkpt lat="43.2407634" lon="13.0654491"><ele>385.0</ele><time>2026-04-25T10:09:25.587Z</time></trkpt><trkpt lat="43.2406491" lon="13.0653589"><ele>385.33333333333337</ele><time>2026-04-25T10:09:26.579Z</time></trkpt><trkpt lat="43.2404998" lon="13.0652886"><ele>385.66666666666663</ele><time>2026-04-25T10:09:27.573Z</time></trkpt><trkpt lat="43.2403456" lon="13.0652387"><ele>386.0</ele><time>2026-04-25T10:09:28.566Z</time></trkpt><trkpt lat="43.2401988" lon="13.0651971"><ele>386.0</ele><time>2026-04-25T10:09:29.579Z</time></trkpt><trkpt lat="43.2400515" lon="13.0651462"><ele>386.0</ele><time>2026-04-25T10:09:30.565Z</time></trkpt><trkpt lat="43.2398944" lon="13.0651033"><ele>386.0</ele><time>2026-04-25T10:09:31.577Z</time></trkpt><trkpt lat="43.2397647" lon="13.0650689"><ele>386.0</ele><time>2026-04-25T10:09:32.575Z</time></trkpt><trkpt lat="43.2396115" lon="13.0650385"><ele>387.5</ele><time>2026-04-25T10:09:33.578Z</time></trkpt><trkpt lat="43.2394625" lon="13.0649808"><ele>389.0</ele><time>2026-04-25T10:09:34.574Z</time></trkpt><trkpt lat="43.2393315" lon="13.0648682"><ele>390.5</ele><time>2026-04-25T10:09:35.562Z</time></trkpt><trkpt lat="43.2392201" lon="13.0648022"><ele>392.0</ele><time>2026-04-25T10:09:36.571Z</time></trkpt><trkpt lat="43.2391188" lon="13.0647246"><ele>387.5</ele><time>2026-04-25T10:09:37.573Z</time></trkpt><trkpt lat="43.2389671" lon="13.0646879"><ele>383.0</ele><time>2026-04-25T10:09:38.568Z</time></trkpt><trkpt lat="43.2388304" lon="13.0646281"><ele>378.5</ele><time>2026-04-25T10:09:39.57Z</time></trkpt><trkpt lat="43.2387068" lon="13.0645839"><ele>374.0</ele><time>2026-04-25T10:09:40.568Z</time></trkpt><trkpt lat="43.2385756" lon="13.064529"><ele>374.0</ele><time>2026-04-25T10:09:41.567Z</time></trkpt><trkpt lat="43.2384528" lon="13.0644808"><ele>374.0</ele><time>2026-04-25T10:09:42.559Z</time></trkpt><trkpt lat="43.2382627" lon="13.0644656"><ele>374.0</ele><time>2026-04-25T10:09:43.567Z</time></trkpt><trkpt lat="43.2380779" lon="13.0644572"><ele>373.0</ele><time>2026-04-25T10:09:44.572Z</time></trkpt><trkpt lat="43.2378702" lon="13.0644426"><ele>372.0</ele><time>2026-04-25T10:09:45.572Z</time></trkpt><trkpt lat="43.23765" lon="13.0643729"><ele>371.0</ele><time>2026-04-25T10:09:46.575Z</time></trkpt><trkpt lat="43.2373095" lon="13.0643263"><ele>371.0</ele><time>2026-04-25T10:09:47.566Z</time></trkpt><trkpt lat="43.2369768" lon="13.0642964"><ele>371.0</ele><time>2026-04-25T10:09:48.562Z</time></trkpt><trkpt lat="43.2367211" lon="13.0642823"><ele>371.0</ele><time>2026-04-25T10:09:49.551Z</time></trkpt><trkpt lat="43.2366285" lon="13.0642183"><ele>371.0</ele><time>2026-04-25T10:09:50.567Z</time></trkpt><trkpt lat="43.236556" lon="13.0641563"><ele>371.0</ele><time>2026-04-25T10:09:51.567Z</time></trkpt><trkpt lat="43.2365006" lon="13.0641118"><ele>371.0</ele><time>2026-04-25T10:09:52.563Z</time></trkpt><trkpt lat="43.2364403" lon="13.0640452"><ele>371.0</ele><time>2026-04-25T10:09:53.568Z</time></trkpt><trkpt lat="43.2363741" lon="13.0640058"><ele>371.0</ele><time>2026-04-25T10:09:54.573Z</time></trkpt><trkpt lat="43.2362954" lon="13.0639707"><ele>367.20000000000005</ele><time>2026-04-25T10:09:55.569Z</time></trkpt><trkpt lat="43.2362036" lon="13.0639577"><ele>363.40000000000003</ele><time>2026-04-25T10:09:56.576Z</time></trkpt><trkpt lat="43.2361066" lon="13.0639571"><ele>359.6</ele><time>2026-04-25T10:09:57.575Z</time></trkpt><trkpt lat="43.2360035" lon="13.0639609"><ele>355.8</ele><time>2026-04-25T10:09:58.568Z</time></trkpt><trkpt lat="43.235883" lon="13.0640087"><ele>352.0</ele><time>2026-04-25T10:09:59.57Z</time></trkpt><trkpt lat="43.235765" lon="13.0640714"><ele>352.0</ele><time>2026-04-25T10:10:00.574Z</time></trkpt><trkpt lat="43.2356492" lon="13.0640993"><ele>352.0</ele><time>2026-04-25T10:10:01.572Z</time></trkpt><trkpt lat="43.2355324" lon="13.0641574"><ele>352.0</ele><time>2026-04-25T10:10:02.57Z</time></trkpt><trkpt lat="43.235423" lon="13.0642016"><ele>352.0</ele><time>2026-04-25T10:10:03.562Z</time></trkpt><trkpt lat="43.2353156" lon="13.0642243"><ele>352.0</ele><time>2026-04-25T10:10:04.562Z</time></trkpt><trkpt lat="43.2352054" lon="13.0642782"><ele>352.0</ele><time>2026-04-25T10:10:05.57Z</time></trkpt><trkpt lat="43.2350652" lon="13.0642636"><ele>352.0</ele><time>2026-04-25T10:10:06.572Z</time></trkpt><trkpt lat="43.23495" lon="13.064234"><ele>352.0</ele><time>2026-04-25T10:10:07.575Z</time></trkpt><trkpt lat="43.2348867" lon="13.0640866"><ele>350.25</ele><time>2026-04-25T10:10:08.574Z</time></trkpt><trkpt lat="43.2348381" lon="13.0639098"><ele>348.5</ele><time>2026-04-25T10:10:09.565Z</time></trkpt><trkpt lat="43.2347657" lon="13.0637294"><ele>346.75</ele><time>2026-04-25T10:10:10.558Z</time></trkpt><trkpt lat="43.2346715" lon="13.0635642"><ele>345.0</ele><time>2026-04-25T10:10:11.564Z</time></trkpt><trkpt lat="43.2345407" lon="13.0635035"><ele>344.3333333333333</ele><time>2026-04-25T10:10:12.571Z</time></trkpt><trkpt lat="43.2344077" lon="13.0634648"><ele>343.66666666666663</ele><time>2026-04-25T10:10:13.567Z</time></trkpt><trkpt lat="43.2343209" lon="13.0632828"><ele>343.0</ele><time>2026-04-25T10:10:14.563Z</time></trkpt><trkpt lat="43.2342396" lon="13.0629965"><ele>344.3333333333333</ele><time>2026-04-25T10:10:15.571Z</time></trkpt><trkpt lat="43.2340972" lon="13.0628329"><ele>345.6666666666667</ele><time>2026-04-25T10:10:16.578Z</time></trkpt><trkpt lat="43.2338987" lon="13.0626459"><ele>347.0</ele><time>2026-04-25T10:10:17.573Z</time></trkpt><trkpt lat="43.2337606" lon="13.0625269"><ele>343.6666666666667</ele><time>2026-04-25T10:10:18.57Z</time></trkpt><trkpt lat="43.2335798" lon="13.0623673"><ele>340.3333333333333</ele><time>2026-04-25T10:10:19.56Z</time></trkpt><trkpt lat="43.2333934" lon="13.0621965"><ele>337.0</ele><time>2026-04-25T10:10:20.566Z</time></trkpt><trkpt lat="43.2332499" lon="13.0620707"><ele>338.66666666666663</ele><time>2026-04-25T10:10:21.567Z</time></trkpt><trkpt lat="43.2331146" lon="13.0619412"><ele>340.3333333333333</ele><time>2026-04-25T10:10:22.567Z</time></trkpt><trkpt lat="43.2329605" lon="13.0618115"><ele>342.0</ele><time>2026-04-25T10:10:23.569Z</time></trkpt><trkpt lat="43.2327968" lon="13.0616679"><ele>339.0</ele><time>2026-04-25T10:10:24.563Z</time></trkpt><trkpt lat="43.2326171" lon="13.0614891"><ele>336.0</ele><time>2026-04-25T10:10:25.57Z</time></trkpt><trkpt lat="43.2324878" lon="13.061356"><ele>333.0</ele><time>2026-04-25T10:10:26.572Z</time></trkpt><trkpt lat="43.2323268" lon="13.0612"><ele>335.3333333333333</ele><time>2026-04-25T10:10:27.57Z</time></trkpt><trkpt lat="43.2321583" lon="13.0609873"><ele>337.66666666666663</ele><time>2026-04-25T10:10:28.562Z</time></trkpt><trkpt lat="43.2320788" lon="13.0607506"><ele>340.0</ele><time>2026-04-25T10:10:29.576Z</time></trkpt><trkpt lat="43.2319413" lon="13.0607017"><ele>340.0</ele><time>2026-04-25T10:10:30.576Z</time></trkpt><trkpt lat="43.231783" lon="13.0607331"><ele>340.0</ele><time>2026-04-25T10:10:31.569Z</time></trkpt><trkpt lat="43.2316814" lon="13.060804"><ele>340.0</ele><time>2026-04-25T10:10:32.571Z</time></trkpt><trkpt lat="43.231544" lon="13.0607122"><ele>340.0</ele><time>2026-04-25T10:10:34.561Z</time></trkpt><trkpt lat="43.2313875" lon="13.060708"><ele>334.66666666666663</ele><time>2026-04-25T10:10:35.563Z</time></trkpt><trkpt lat="43.2311668" lon="13.0607515"><ele>329.3333333333333</ele><time>2026-04-25T10:10:36.571Z</time></trkpt><trkpt lat="43.2309545" lon="13.0607453"><ele>324.0</ele><time>2026-04-25T10:10:37.574Z</time></trkpt><trkpt lat="43.2307548" lon="13.0607434"><ele>322.6666666666667</ele><time>2026-04-25T10:10:38.57Z</time></trkpt><trkpt lat="43.2305685" lon="13.0607516"><ele>321.33333333333337</ele><time>2026-04-25T10:10:39.575Z</time></trkpt><trkpt lat="43.2303923" lon="13.0608022"><ele>320.0</ele><time>2026-04-25T10:10:40.57Z</time></trkpt><trkpt lat="43.2302358" lon="13.0608221"><ele>321.6666666666667</ele><time>2026-04-25T10:10:41.578Z</time></trkpt><trkpt lat="43.2300744" lon="13.0608741"><ele>323.3333333333333</ele><time>2026-04-25T10:10:42.578Z</time></trkpt><trkpt lat="43.2299233" lon="13.0609395"><ele>325.0</ele><time>2026-04-25T10:10:43.578Z</time></trkpt><trkpt lat="43.2297654" lon="13.0609876"><ele>325.0</ele><time>2026-04-25T10:10:44.573Z</time></trkpt><trkpt lat="43.2296141" lon="13.0610399"><ele>325.0</ele><time>2026-04-25T10:10:45.583Z</time></trkpt><trkpt lat="43.2294431" lon="13.0610823"><ele>325.0</ele><time>2026-04-25T10:10:46.585Z</time></trkpt><trkpt lat="43.2292783" lon="13.061135"><ele>325.0</ele><time>2026-04-25T10:10:47.581Z</time></trkpt><trkpt lat="43.2291097" lon="13.0611999"><ele>325.0</ele><time>2026-04-25T10:10:48.584Z</time></trkpt><trkpt lat="43.2289442" lon="13.0612517"><ele>325.0</ele><time>2026-04-25T10:10:49.579Z</time></trkpt><trkpt lat="43.2287905" lon="13.0612914"><ele>322.3333333333333</ele><time>2026-04-25T10:10:50.576Z</time></trkpt><trkpt lat="43.228629" lon="13.0613157"><ele>319.6666666666667</ele><time>2026-04-25T10:10:51.582Z</time></trkpt><trkpt lat="43.2284695" lon="13.0613258"><ele>317.0</ele><time>2026-04-25T10:10:52.581Z</time></trkpt><trkpt lat="43.2283145" lon="13.0613394"><ele>317.0</ele><time>2026-04-25T10:10:53.582Z</time></trkpt><trkpt lat="43.2281583" lon="13.0613455"><ele>317.0</ele><time>2026-04-25T10:10:54.58Z</time></trkpt><trkpt lat="43.2280199" lon="13.0613614"><ele>317.0</ele><time>2026-04-25T10:10:55.579Z</time></trkpt><trkpt lat="43.2278993" lon="13.0613844"><ele>317.0</ele><time>2026-04-25T10:10:56.575Z</time></trkpt><trkpt lat="43.2277841" lon="13.0614465"><ele>317.25</ele><time>2026-04-25T10:10:57.576Z</time></trkpt><trkpt lat="43.2276776" lon="13.0615455"><ele>317.5</ele><time>2026-04-25T10:10:58.577Z</time></trkpt><trkpt lat="43.2275674" lon="13.0616526"><ele>317.75</ele><time>2026-04-25T10:10:59.577Z</time></trkpt><trkpt lat="43.227483" lon="13.0617784"><ele>318.0</ele><time>2026-04-25T10:11:00.582Z</time></trkpt><trkpt lat="43.227385" lon="13.0618504"><ele>316.75</ele><time>2026-04-25T10:11:01.574Z</time></trkpt><trkpt lat="43.2272833" lon="13.0619512"><ele>315.5</ele><time>2026-04-25T10:11:02.578Z</time></trkpt><trkpt lat="43.2271813" lon="13.0620291"><ele>314.25</ele><time>2026-04-25T10:11:03.592Z</time></trkpt><trkpt lat="43.2270777" lon="13.062091"><ele>313.0</ele><time>2026-04-25T10:11:04.579Z</time></trkpt><trkpt lat="43.2269652" lon="13.0621345"><ele>313.0</ele><time>2026-04-25T10:11:05.582Z</time></trkpt><trkpt lat="43.2268249" lon="13.0621726"><ele>313.0</ele><time>2026-04-25T10:11:06.578Z</time></trkpt><trkpt lat="43.2266786" lon="13.0621915"><ele>313.0</ele><time>2026-04-25T10:11:07.583Z</time></trkpt><trkpt lat="43.2265294" lon="13.062201"><ele>313.0</ele><time>2026-04-25T10:11:08.587Z</time></trkpt><trkpt lat="43.2263873" lon="13.0621904"><ele>313.25</ele><time>2026-04-25T10:11:09.583Z</time></trkpt><trkpt lat="43.2262602" lon="13.0621755"><ele>313.5</ele><time>2026-04-25T10:11:10.586Z</time></trkpt><trkpt lat="43.22613" lon="13.0622041"><ele>313.75</ele><time>2026-04-25T10:11:11.577Z</time></trkpt><trkpt lat="43.2260515" lon="13.0622304"><ele>314.0</ele><time>2026-04-25T10:11:12.58Z</time></trkpt><trkpt lat="43.2259187" lon="13.0623099"><ele>314.0</ele><time>2026-04-25T10:11:13.576Z</time></trkpt><trkpt lat="43.2258006" lon="13.0623833"><ele>314.0</ele><time>2026-04-25T10:11:14.581Z</time></trkpt><trkpt lat="43.2257068" lon="13.062458"><ele>314.0</ele><time>2026-04-25T10:11:15.567Z</time></trkpt><trkpt lat="43.2255926" lon="13.062547"><ele>314.0</ele><time>2026-04-25T10:11:16.575Z</time></trkpt><trkpt lat="43.2254746" lon="13.0626163"><ele>313.25</ele><time>2026-04-25T10:11:17.573Z</time></trkpt><trkpt lat="43.2253601" lon="13.062686"><ele>312.5</ele><time>2026-04-25T10:11:18.577Z</time></trkpt><trkpt lat="43.2252389" lon="13.0627639"><ele>311.75</ele><time>2026-04-25T10:11:19.576Z</time></trkpt><trkpt lat="43.2251044" lon="13.0628359"><ele>311.0</ele><time>2026-04-25T10:11:20.576Z</time></trkpt><trkpt lat="43.2249551" lon="13.0629209"><ele>311.0</ele><time>2026-04-25T10:11:21.585Z</time></trkpt><trkpt lat="43.2248014" lon="13.0630141"><ele>311.0</ele><time>2026-04-25T10:11:22.581Z</time></trkpt><trkpt lat="43.2246329" lon="13.0630934"><ele>311.0</ele><time>2026-04-25T10:11:23.584Z</time></trkpt><trkpt lat="43.2244881" lon="13.0631854"><ele>310.6666666666667</ele><time>2026-04-25T10:11:24.574Z</time></trkpt><trkpt lat="43.2243492" lon="13.0633059"><ele>310.3333333333333</ele><time>2026-04-25T10:11:25.581Z</time></trkpt><trkpt lat="43.2242143" lon="13.0634015"><ele>310.0</ele><time>2026-04-25T10:11:26.573Z</time></trkpt><trkpt lat="43.2240827" lon="13.063487"><ele>309.5</ele><time>2026-04-25T10:11:27.578Z</time></trkpt><trkpt lat="43.2239481" lon="13.0635702"><ele>309.0</ele><time>2026-04-25T10:11:28.574Z</time></trkpt><trkpt lat="43.223817" lon="13.0636747"><ele>308.5</ele><time>2026-04-25T10:11:29.582Z</time></trkpt><trkpt lat="43.2236902" lon="13.0637776"><ele>308.0</ele><time>2026-04-25T10:11:30.575Z</time></trkpt><trkpt lat="43.2235632" lon="13.0638895"><ele>308.0</ele><time>2026-04-25T10:11:31.584Z</time></trkpt><trkpt lat="43.2234432" lon="13.0640017"><ele>308.0</ele><time>2026-04-25T10:11:32.574Z</time></trkpt><trkpt lat="43.2233267" lon="13.0641194"><ele>308.0</ele><time>2026-04-25T10:11:33.573Z</time></trkpt><trkpt lat="43.2232255" lon="13.0642136"><ele>308.0</ele><time>2026-04-25T10:11:34.565Z</time></trkpt><trkpt lat="43.2231255" lon="13.0643253"><ele>307.25</ele><time>2026-04-25T10:11:35.573Z</time></trkpt><trkpt lat="43.2230152" lon="13.0644464"><ele>306.5</ele><time>2026-04-25T10:11:36.568Z</time></trkpt><trkpt lat="43.2229176" lon="13.064541"><ele>305.75</ele><time>2026-04-25T10:11:37.578Z</time></trkpt><trkpt lat="43.2228357" lon="13.0646353"><ele>305.0</ele><time>2026-04-25T10:11:38.574Z</time></trkpt><trkpt lat="43.2227502" lon="13.0647279"><ele>305.0</ele><time>2026-04-25T10:11:39.585Z</time></trkpt><trkpt lat="43.2226592" lon="13.0648161"><ele>305.0</ele><time>2026-04-25T10:11:40.576Z</time></trkpt><trkpt lat="43.2225577" lon="13.0648978"><ele>305.0</ele><time>2026-04-25T10:11:41.579Z</time></trkpt><trkpt lat="43.2224456" lon="13.0649794"><ele>305.0</ele><time>2026-04-25T10:11:42.57Z</time></trkpt><trkpt lat="43.2223281" lon="13.0650583"><ele>303.6666666666667</ele><time>2026-04-25T10:11:43.564Z</time></trkpt><trkpt lat="43.2221926" lon="13.0651342"><ele>302.3333333333333</ele><time>2026-04-25T10:11:44.565Z</time></trkpt><trkpt lat="43.2220458" lon="13.0652135"><ele>301.0</ele><time>2026-04-25T10:11:45.569Z</time></trkpt><trkpt lat="43.2218997" lon="13.0653364"><ele>301.0</ele><time>2026-04-25T10:11:46.567Z</time></trkpt><trkpt lat="43.2217903" lon="13.065457"><ele>301.0</ele><time>2026-04-25T10:11:47.571Z</time></trkpt><trkpt lat="43.2217089" lon="13.0656009"><ele>301.0</ele><time>2026-04-25T10:11:48.567Z</time></trkpt><trkpt lat="43.2216158" lon="13.0657481"><ele>301.0</ele><time>2026-04-25T10:11:49.579Z</time></trkpt><trkpt lat="43.2214673" lon="13.0659066"><ele>299.3333333333333</ele><time>2026-04-25T10:11:50.572Z</time></trkpt><trkpt lat="43.2213507" lon="13.0660264"><ele>297.6666666666667</ele><time>2026-04-25T10:11:51.574Z</time></trkpt><trkpt lat="43.2212202" lon="13.0661734"><ele>296.0</ele><time>2026-04-25T10:11:52.579Z</time></trkpt><trkpt lat="43.2211031" lon="13.066292"><ele>296.0</ele><time>2026-04-25T10:11:53.579Z</time></trkpt><trkpt lat="43.2209855" lon="13.0663909"><ele>296.0</ele><time>2026-04-25T10:11:54.571Z</time></trkpt><trkpt lat="43.220877" lon="13.0665161"><ele>296.0</ele><time>2026-04-25T10:11:55.571Z</time></trkpt><trkpt lat="43.22077" lon="13.066598"><ele>296.0</ele><time>2026-04-25T10:11:56.572Z</time></trkpt><trkpt lat="43.2206613" lon="13.0666753"><ele>296.0</ele><time>2026-04-25T10:11:57.582Z</time></trkpt><trkpt lat="43.2205069" lon="13.0666894"><ele>296.0</ele><time>2026-04-25T10:11:58.582Z</time></trkpt><trkpt lat="43.2204172" lon="13.0666873"><ele>296.0</ele><time>2026-04-25T10:11:59.581Z</time></trkpt><trkpt lat="43.2203379" lon="13.0667186"><ele>296.0</ele><time>2026-04-25T10:12:00.58Z</time></trkpt><trkpt lat="43.2202498" lon="13.0667623"><ele>296.0</ele><time>2026-04-25T10:12:01.583Z</time></trkpt><trkpt lat="43.2201626" lon="13.0668351"><ele>296.0</ele><time>2026-04-25T10:12:02.583Z</time></trkpt><trkpt lat="43.2200927" lon="13.0669295"><ele>296.0</ele><time>2026-04-25T10:12:03.593Z</time></trkpt><trkpt lat="43.2200484" lon="13.0670681"><ele>296.0</ele><time>2026-04-25T10:12:04.601Z</time></trkpt><trkpt lat="43.2200156" lon="13.0672322"><ele>296.0</ele><time>2026-04-25T10:12:05.584Z</time></trkpt><trkpt lat="43.2199773" lon="13.0673927"><ele>296.0</ele><time>2026-04-25T10:12:06.584Z</time></trkpt><trkpt lat="43.2199174" lon="13.0675394"><ele>296.0</ele><time>2026-04-25T10:12:07.581Z</time></trkpt><trkpt lat="43.2198402" lon="13.0676697"><ele>296.0</ele><time>2026-04-25T10:12:08.584Z</time></trkpt><trkpt lat="43.2197504" lon="13.067768"><ele>296.0</ele><time>2026-04-25T10:12:09.591Z</time></trkpt><trkpt lat="43.2196585" lon="13.0678458"><ele>295.1666666666667</ele><time>2026-04-25T10:12:10.593Z</time></trkpt><trkpt lat="43.2195713" lon="13.0679188"><ele>294.33333333333337</ele><time>2026-04-25T10:12:11.593Z</time></trkpt><trkpt lat="43.2195063" lon="13.0679762"><ele>293.5</ele><time>2026-04-25T10:12:12.594Z</time></trkpt><trkpt lat="43.2194192" lon="13.0680288"><ele>292.6666666666667</ele><time>2026-04-25T10:12:14.59Z</time></trkpt><trkpt lat="43.2193446" lon="13.068076"><ele>291.8333333333333</ele><time>2026-04-25T10:12:17.584Z</time></trkpt><trkpt lat="43.2193276" lon="13.068179"><ele>291.0</ele><time>2026-04-25T10:12:27.582Z</time></trkpt><trkpt lat="43.2193332" lon="13.0682911"><ele>291.0</ele><time>2026-04-25T10:12:32.573Z</time></trkpt><trkpt lat="43.2192931" lon="13.0681497"><ele>291.0</ele><time>2026-04-25T10:12:36.562Z</time></trkpt><trkpt lat="43.2192067" lon="13.0681365"><ele>291.0</ele><time>2026-04-25T10:13:04.588Z</time></trkpt><trkpt lat="43.2191504" lon="13.0680417"><ele>291.0</ele><time>2026-04-25T10:13:06.592Z</time></trkpt><trkpt lat="43.219118" lon="13.0679409"><ele>291.0</ele><time>2026-04-25T10:13:07.587Z</time></trkpt><trkpt lat="43.2190792" lon="13.0678125"><ele>291.0</ele><time>2026-04-25T10:13:08.58Z</time></trkpt><trkpt lat="43.2190475" lon="13.0676582"><ele>291.0</ele><time>2026-04-25T10:13:09.579Z</time></trkpt><trkpt lat="43.2190196" lon="13.0674764"><ele>291.0</ele><time>2026-04-25T10:13:10.582Z</time></trkpt><trkpt lat="43.2189874" lon="13.0672957"><ele>291.0</ele><time>2026-04-25T10:13:11.584Z</time></trkpt><trkpt lat="43.2189479" lon="13.0671374"><ele>291.25</ele><time>2026-04-25T10:13:12.587Z</time></trkpt><trkpt lat="43.218909" lon="13.066961"><ele>291.5</ele><time>2026-04-25T10:13:13.592Z</time></trkpt><trkpt lat="43.2188738" lon="13.0667819"><ele>291.75</ele><time>2026-04-25T10:13:14.594Z</time></trkpt><trkpt lat="43.2188312" lon="13.0666057"><ele>292.0</ele><time>2026-04-25T10:13:15.59Z</time></trkpt><trkpt lat="43.2187652" lon="13.0664383"><ele>292.0</ele><time>2026-04-25T10:13:16.59Z</time></trkpt><trkpt lat="43.2186846" lon="13.066284"><ele>292.0</ele><time>2026-04-25T10:13:17.585Z</time></trkpt><trkpt lat="43.2185894" lon="13.0661366"><ele>292.0</ele><time>2026-04-25T10:13:18.588Z</time></trkpt><trkpt lat="43.2184725" lon="13.0659985"><ele>292.0</ele><time>2026-04-25T10:13:19.579Z</time></trkpt><trkpt lat="43.218351" lon="13.0658655"><ele>293.0</ele><time>2026-04-25T10:13:20.587Z</time></trkpt><trkpt lat="43.2182428" lon="13.0657185"><ele>294.0</ele><time>2026-04-25T10:13:21.588Z</time></trkpt><trkpt lat="43.2181288" lon="13.0655727"><ele>295.0</ele><time>2026-04-25T10:13:22.589Z</time></trkpt><trkpt lat="43.2180162" lon="13.0654155"><ele>293.66666666666663</ele><time>2026-04-25T10:13:23.58Z</time></trkpt><trkpt lat="43.2179053" lon="13.0652766"><ele>292.3333333333333</ele><time>2026-04-25T10:13:24.583Z</time></trkpt><trkpt lat="43.2178125" lon="13.0650894"><ele>291.0</ele><time>2026-04-25T10:13:25.579Z</time></trkpt><trkpt lat="43.2177434" lon="13.0649009"><ele>291.0</ele><time>2026-04-25T10:13:26.59Z</time></trkpt><trkpt lat="43.2176971" lon="13.0646895"><ele>291.0</ele><time>2026-04-25T10:13:27.584Z</time></trkpt><trkpt lat="43.2176326" lon="13.0644743"><ele>291.0</ele><time>2026-04-25T10:13:28.58Z</time></trkpt><trkpt lat="43.2175842" lon="13.0642438"><ele>292.6666666666667</ele><time>2026-04-25T10:13:29.584Z</time></trkpt><trkpt lat="43.2175272" lon="13.0640431"><ele>294.33333333333337</ele><time>2026-04-25T10:13:30.584Z</time></trkpt><trkpt lat="43.2174691" lon="13.0638527"><ele>296.0</ele><time>2026-04-25T10:13:31.578Z</time></trkpt><trkpt lat="43.2173992" lon="13.0636685"><ele>295.0</ele><time>2026-04-25T10:13:32.582Z</time></trkpt><trkpt lat="43.2173047" lon="13.0634906"><ele>294.0</ele><time>2026-04-25T10:13:33.578Z</time></trkpt><trkpt lat="43.2171943" lon="13.063326"><ele>293.0</ele><time>2026-04-25T10:13:34.58Z</time></trkpt><trkpt lat="43.2170783" lon="13.0631597"><ele>293.0</ele><time>2026-04-25T10:13:35.581Z</time></trkpt><trkpt lat="43.2169548" lon="13.0629922"><ele>293.0</ele><time>2026-04-25T10:13:36.58Z</time></trkpt><trkpt lat="43.2168306" lon="13.0628075"><ele>293.0</ele><time>2026-04-25T10:13:37.573Z</time></trkpt><trkpt lat="43.2167083" lon="13.0626364"><ele>293.0</ele><time>2026-04-25T10:13:38.579Z</time></trkpt><trkpt lat="43.2165919" lon="13.0624691"><ele>293.0</ele><time>2026-04-25T10:13:39.574Z</time></trkpt><trkpt lat="43.2164759" lon="13.0623373"><ele>293.0</ele><time>2026-04-25T10:13:40.584Z</time></trkpt><trkpt lat="43.2163571" lon="13.0621978"><ele>293.0</ele><time>2026-04-25T10:13:41.575Z</time></trkpt><trkpt lat="43.216225" lon="13.0620902"><ele>293.0</ele><time>2026-04-25T10:13:42.588Z</time></trkpt><trkpt lat="43.2160736" lon="13.0619847"><ele>293.0</ele><time>2026-04-25T10:13:43.588Z</time></trkpt><trkpt lat="43.2159246" lon="13.0618894"><ele>293.0</ele><time>2026-04-25T10:13:44.593Z</time></trkpt><trkpt lat="43.2157806" lon="13.0618348"><ele>293.0</ele><time>2026-04-25T10:13:45.59Z</time></trkpt><trkpt lat="43.2156382" lon="13.0617721"><ele>293.0</ele><time>2026-04-25T10:13:46.594Z</time></trkpt><trkpt lat="43.2155007" lon="13.061686"><ele>293.33333333333337</ele><time>2026-04-25T10:13:47.577Z</time></trkpt><trkpt lat="43.2153672" lon="13.0615697"><ele>293.6666666666667</ele><time>2026-04-25T10:13:48.581Z</time></trkpt><trkpt lat="43.2152574" lon="13.0614203"><ele>294.0</ele><time>2026-04-25T10:13:49.57Z</time></trkpt><trkpt lat="43.2151413" lon="13.0612735"><ele>294.0</ele><time>2026-04-25T10:13:50.581Z</time></trkpt><trkpt lat="43.2149695" lon="13.0610827"><ele>294.0</ele><time>2026-04-25T10:13:51.575Z</time></trkpt><trkpt lat="43.2148116" lon="13.0609145"><ele>294.0</ele><time>2026-04-25T10:13:52.576Z</time></trkpt><trkpt lat="43.2146966" lon="13.0607572"><ele>292.6666666666667</ele><time>2026-04-25T10:13:53.567Z</time></trkpt><trkpt lat="43.2145616" lon="13.0606039"><ele>291.33333333333337</ele><time>2026-04-25T10:13:54.582Z</time></trkpt><trkpt lat="43.214456" lon="13.0604664"><ele>290.0</ele><time>2026-04-25T10:13:55.576Z</time></trkpt><trkpt lat="43.2143444" lon="13.0603343"><ele>290.0</ele><time>2026-04-25T10:13:56.575Z</time></trkpt><trkpt lat="43.2142293" lon="13.0602266"><ele>290.0</ele><time>2026-04-25T10:13:57.573Z</time></trkpt><trkpt lat="43.214079" lon="13.0601334"><ele>290.0</ele><time>2026-04-25T10:13:58.576Z</time></trkpt><trkpt lat="43.2139374" lon="13.0600733"><ele>290.0</ele><time>2026-04-25T10:13:59.577Z</time></trkpt><trkpt lat="43.2137892" lon="13.0600435"><ele>290.0</ele><time>2026-04-25T10:14:00.582Z</time></trkpt><trkpt lat="43.2136453" lon="13.0600438"><ele>290.0</ele><time>2026-04-25T10:14:01.58Z</time></trkpt><trkpt lat="43.2134809" lon="13.0600503"><ele>290.0</ele><time>2026-04-25T10:14:02.582Z</time></trkpt><trkpt lat="43.2132995" lon="13.0600701"><ele>290.0</ele><time>2026-04-25T10:14:03.582Z</time></trkpt><trkpt lat="43.2131124" lon="13.0600988"><ele>290.0</ele><time>2026-04-25T10:14:04.585Z</time></trkpt><trkpt lat="43.2129393" lon="13.0601192"><ele>290.33333333333337</ele><time>2026-04-25T10:14:05.583Z</time></trkpt><trkpt lat="43.2127663" lon="13.060131"><ele>290.6666666666667</ele><time>2026-04-25T10:14:06.585Z</time></trkpt><trkpt lat="43.2125973" lon="13.0601377"><ele>291.0</ele><time>2026-04-25T10:14:07.586Z</time></trkpt><trkpt lat="43.2124325" lon="13.0601492"><ele>290.0</ele><time>2026-04-25T10:14:08.574Z</time></trkpt><trkpt lat="43.2122676" lon="13.060146"><ele>289.0</ele><time>2026-04-25T10:14:09.576Z</time></trkpt><trkpt lat="43.212109" lon="13.0601265"><ele>288.0</ele><time>2026-04-25T10:14:10.576Z</time></trkpt><trkpt lat="43.2119365" lon="13.0601031"><ele>288.0</ele><time>2026-04-25T10:14:11.575Z</time></trkpt><trkpt lat="43.2118034" lon="13.0600721"><ele>288.0</ele><time>2026-04-25T10:14:12.582Z</time></trkpt><trkpt lat="43.2116741" lon="13.0600145"><ele>288.0</ele><time>2026-04-25T10:14:13.575Z</time></trkpt><trkpt lat="43.2115483" lon="13.0599661"><ele>288.0</ele><time>2026-04-25T10:14:14.593Z</time></trkpt><trkpt lat="43.2114417" lon="13.0599162"><ele>290.5</ele><time>2026-04-25T10:14:15.586Z</time></trkpt><trkpt lat="43.2113297" lon="13.0598721"><ele>293.0</ele><time>2026-04-25T10:14:16.585Z</time></trkpt><trkpt lat="43.2112075" lon="13.0598266"><ele>295.5</ele><time>2026-04-25T10:14:17.586Z</time></trkpt><trkpt lat="43.2110827" lon="13.0598104"><ele>298.0</ele><time>2026-04-25T10:14:18.582Z</time></trkpt><trkpt lat="43.2109637" lon="13.059806"><ele>298.0</ele><time>2026-04-25T10:14:19.59Z</time></trkpt><trkpt lat="43.210849" lon="13.0598171"><ele>298.0</ele><time>2026-04-25T10:14:20.583Z</time></trkpt><trkpt lat="43.2107575" lon="13.059838"><ele>298.0</ele><time>2026-04-25T10:14:21.59Z</time></trkpt><trkpt lat="43.2106384" lon="13.0598339"><ele>298.0</ele><time>2026-04-25T10:14:22.588Z</time></trkpt><trkpt lat="43.2105217" lon="13.0598434"><ele>298.0</ele><time>2026-04-25T10:14:23.592Z</time></trkpt><trkpt lat="43.2104003" lon="13.0598332"><ele>297.6</ele><time>2026-04-25T10:14:24.577Z</time></trkpt><trkpt lat="43.2102981" lon="13.0598129"><ele>297.20000000000005</ele><time>2026-04-25T10:14:25.579Z</time></trkpt><trkpt lat="43.2101951" lon="13.0597838"><ele>296.8</ele><time>2026-04-25T10:14:26.572Z</time></trkpt><trkpt lat="43.2101123" lon="13.0597611"><ele>296.40000000000003</ele><time>2026-04-25T10:14:27.571Z</time></trkpt><trkpt lat="43.2100173" lon="13.059725"><ele>296.0</ele><time>2026-04-25T10:14:28.561Z</time></trkpt><trkpt lat="43.2099398" lon="13.0596556"><ele>296.0</ele><time>2026-04-25T10:14:29.574Z</time></trkpt><trkpt lat="43.2098721" lon="13.0595641"><ele>296.0</ele><time>2026-04-25T10:14:30.568Z</time></trkpt><trkpt lat="43.2098115" lon="13.0594677"><ele>296.0</ele><time>2026-04-25T10:14:31.569Z</time></trkpt><trkpt lat="43.2097544" lon="13.0593906"><ele>296.0</ele><time>2026-04-25T10:14:32.571Z</time></trkpt><trkpt lat="43.2096948" lon="13.0593142"><ele>296.0</ele><time>2026-04-25T10:14:33.571Z</time></trkpt><trkpt lat="43.2096302" lon="13.0592384"><ele>296.0</ele><time>2026-04-25T10:14:34.586Z</time></trkpt><trkpt lat="43.2095602" lon="13.0591689"><ele>296.6</ele><time>2026-04-25T10:14:35.586Z</time></trkpt><trkpt lat="43.2094831" lon="13.05908"><ele>297.20000000000005</ele><time>2026-04-25T10:14:36.581Z</time></trkpt><trkpt lat="43.2094119" lon="13.0589974"><ele>297.79999999999995</ele><time>2026-04-25T10:14:37.591Z</time></trkpt><trkpt lat="43.2093495" lon="13.0589051"><ele>298.4</ele><time>2026-04-25T10:14:38.587Z</time></trkpt><trkpt lat="43.2092839" lon="13.0588131"><ele>299.0</ele><time>2026-04-25T10:14:39.591Z</time></trkpt><trkpt lat="43.2092098" lon="13.0587239"><ele>299.0</ele><time>2026-04-25T10:14:40.594Z</time></trkpt><trkpt lat="43.209126" lon="13.0586286"><ele>299.0</ele><time>2026-04-25T10:14:41.593Z</time></trkpt><trkpt lat="43.2090418" lon="13.058526"><ele>299.0</ele><time>2026-04-25T10:14:42.592Z</time></trkpt><trkpt lat="43.2089637" lon="13.0584232"><ele>299.0</ele><time>2026-04-25T10:14:43.587Z</time></trkpt><trkpt lat="43.2088736" lon="13.0583124"><ele>301.75</ele><time>2026-04-25T10:14:44.593Z</time></trkpt><trkpt lat="43.2087729" lon="13.0581995"><ele>304.5</ele><time>2026-04-25T10:14:45.592Z</time></trkpt><trkpt lat="43.2086605" lon="13.0580695"><ele>307.25</ele><time>2026-04-25T10:14:46.605Z</time></trkpt><trkpt lat="43.2085448" lon="13.0579737"><ele>310.0</ele><time>2026-04-25T10:14:47.595Z</time></trkpt><trkpt lat="43.208434" lon="13.0578953"><ele>310.0</ele><time>2026-04-25T10:14:48.588Z</time></trkpt><trkpt lat="43.2083213" lon="13.057843"><ele>310.0</ele><time>2026-04-25T10:14:49.593Z</time></trkpt><trkpt lat="43.2082176" lon="13.0578101"><ele>310.0</ele><time>2026-04-25T10:14:50.573Z</time></trkpt><trkpt lat="43.2081225" lon="13.0577707"><ele>310.0</ele><time>2026-04-25T10:14:51.579Z</time></trkpt><trkpt lat="43.2080371" lon="13.0577352"><ele>310.0</ele><time>2026-04-25T10:14:52.585Z</time></trkpt><trkpt lat="43.2079683" lon="13.0577076"><ele>310.0</ele><time>2026-04-25T10:14:53.584Z</time></trkpt><trkpt lat="43.2079032" lon="13.0576632"><ele>310.0</ele><time>2026-04-25T10:14:54.59Z</time></trkpt><trkpt lat="43.2078395" lon="13.0576249"><ele>310.0</ele><time>2026-04-25T10:14:55.591Z</time></trkpt><trkpt lat="43.2077347" lon="13.0575581"><ele>310.0</ele><time>2026-04-25T10:14:57.589Z</time></trkpt><trkpt lat="43.2076444" lon="13.0574483"><ele>310.0</ele><time>2026-04-25T10:14:59.589Z</time></trkpt><trkpt lat="43.2075943" lon="13.0573919"><ele>310.0</ele><time>2026-04-25T10:15:00.588Z</time></trkpt><trkpt lat="43.2074795" lon="13.0573528"><ele>310.0</ele><time>2026-04-25T10:15:02.582Z</time></trkpt><trkpt lat="43.207414" lon="13.0573585"><ele>310.0</ele><time>2026-04-25T10:15:03.582Z</time></trkpt><trkpt lat="43.2073388" lon="13.0573561"><ele>310.0</ele><time>2026-04-25T10:15:04.58Z</time></trkpt><trkpt lat="43.2072524" lon="13.057335"><ele>310.0</ele><time>2026-04-25T10:15:05.578Z</time></trkpt><trkpt lat="43.207155" lon="13.0572885"><ele>310.0</ele><time>2026-04-25T10:15:06.575Z</time></trkpt><trkpt lat="43.2070511" lon="13.057249"><ele>310.0</ele><time>2026-04-25T10:15:07.575Z</time></trkpt><trkpt lat="43.2069465" lon="13.0572086"><ele>310.0</ele><time>2026-04-25T10:15:08.579Z</time></trkpt><trkpt lat="43.2068342" lon="13.0571735"><ele>310.0</ele><time>2026-04-25T10:15:09.579Z</time></trkpt><trkpt lat="43.2067093" lon="13.0571268"><ele>310.0</ele><time>2026-04-25T10:15:10.574Z</time></trkpt><trkpt lat="43.2065757" lon="13.0570792"><ele>310.0</ele><time>2026-04-25T10:15:11.578Z</time></trkpt><trkpt lat="43.2064405" lon="13.0570227"><ele>310.0</ele><time>2026-04-25T10:15:12.576Z</time></trkpt><trkpt lat="43.2063078" lon="13.0569563"><ele>310.0</ele><time>2026-04-25T10:15:13.581Z</time></trkpt><trkpt lat="43.20618" lon="13.0569013"><ele>310.0</ele><time>2026-04-25T10:15:14.584Z</time></trkpt><trkpt lat="43.2060411" lon="13.0568377"><ele>310.0</ele><time>2026-04-25T10:15:15.588Z</time></trkpt><trkpt lat="43.205926" lon="13.056778"><ele>310.0</ele><time>2026-04-25T10:15:16.586Z</time></trkpt><trkpt lat="43.205813" lon="13.0567328"><ele>310.0</ele><time>2026-04-25T10:15:17.585Z</time></trkpt><trkpt lat="43.2057135" lon="13.0566503"><ele>310.0</ele><time>2026-04-25T10:15:18.587Z</time></trkpt><trkpt lat="43.2056023" lon="13.0565795"><ele>310.0</ele><time>2026-04-25T10:15:19.586Z</time></trkpt><trkpt lat="43.2055002" lon="13.0564261"><ele>309.75</ele><time>2026-04-25T10:15:20.587Z</time></trkpt><trkpt lat="43.2054127" lon="13.0562923"><ele>309.5</ele><time>2026-04-25T10:15:21.59Z</time></trkpt><trkpt lat="43.2053371" lon="13.0561507"><ele>309.25</ele><time>2026-04-25T10:15:22.589Z</time></trkpt><trkpt lat="43.2052664" lon="13.0560127"><ele>309.0</ele><time>2026-04-25T10:15:23.591Z</time></trkpt><trkpt lat="43.2051923" lon="13.0558861"><ele>309.8</ele><time>2026-04-25T10:15:24.587Z</time></trkpt><trkpt lat="43.205116" lon="13.0557665"><ele>310.59999999999997</ele><time>2026-04-25T10:15:25.595Z</time></trkpt><trkpt lat="43.2050373" lon="13.0556592"><ele>311.4</ele><time>2026-04-25T10:15:26.594Z</time></trkpt><trkpt lat="43.2049654" lon="13.055558"><ele>312.2</ele><time>2026-04-25T10:15:27.588Z</time></trkpt><trkpt lat="43.2048932" lon="13.055444"><ele>313.0</ele><time>2026-04-25T10:15:28.588Z</time></trkpt><trkpt lat="43.2048153" lon="13.0553344"><ele>311.66666666666663</ele><time>2026-04-25T10:15:29.59Z</time></trkpt><trkpt lat="43.2047344" lon="13.0552489"><ele>310.3333333333333</ele><time>2026-04-25T10:15:30.588Z</time></trkpt><trkpt lat="43.2046602" lon="13.0551798"><ele>309.0</ele><time>2026-04-25T10:15:31.583Z</time></trkpt><trkpt lat="43.2045875" lon="13.0551227"><ele>307.6666666666667</ele><time>2026-04-25T10:15:32.584Z</time></trkpt><trkpt lat="43.2045243" lon="13.0550762"><ele>306.33333333333337</ele><time>2026-04-25T10:15:33.576Z</time></trkpt><trkpt lat="43.2044573" lon="13.0550248"><ele>305.0</ele><time>2026-04-25T10:15:35.579Z</time></trkpt><trkpt lat="43.2043986" lon="13.0549552"><ele>307.33333333333337</ele><time>2026-04-25T10:15:38.584Z</time></trkpt><trkpt lat="43.2043247" lon="13.0548306"><ele>309.6666666666667</ele><time>2026-04-25T10:15:40.589Z</time></trkpt><trkpt lat="43.2042926" lon="13.0547128"><ele>312.0</ele><time>2026-04-25T10:15:42.59Z</time></trkpt><trkpt lat="43.2042835" lon="13.0546094"><ele>314.3333333333333</ele><time>2026-04-25T10:15:44.587Z</time></trkpt><trkpt lat="43.2042581" lon="13.0545266"><ele>316.66666666666663</ele><time>2026-04-25T10:15:48.595Z</time></trkpt><trkpt lat="43.2042171" lon="13.0544547"><ele>319.0</ele><time>2026-04-25T10:15:51.587Z</time></trkpt><trkpt lat="43.2041328" lon="13.0543983"><ele>319.0</ele><time>2026-04-25T10:15:53.582Z</time></trkpt><trkpt lat="43.2040478" lon="13.0544014"><ele>319.0</ele><time>2026-04-25T10:15:54.578Z</time></trkpt><trkpt lat="43.2039151" lon="13.0544001"><ele>319.0</ele><time>2026-04-25T10:15:55.583Z</time></trkpt><trkpt lat="43.2037614" lon="13.0543941"><ele>319.0</ele><time>2026-04-25T10:15:56.581Z</time></trkpt><trkpt lat="43.2036026" lon="13.054385"><ele>318.66666666666663</ele><time>2026-04-25T10:15:57.583Z</time></trkpt><trkpt lat="43.2034141" lon="13.0543785"><ele>318.3333333333333</ele><time>2026-04-25T10:15:58.581Z</time></trkpt><trkpt lat="43.2032609" lon="13.0543927"><ele>318.0</ele><time>2026-04-25T10:15:59.585Z</time></trkpt><trkpt lat="43.2031043" lon="13.0543954"><ele>318.5</ele><time>2026-04-25T10:16:00.576Z</time></trkpt><trkpt lat="43.2029511" lon="13.0543995"><ele>319.0</ele><time>2026-04-25T10:16:01.578Z</time></trkpt><trkpt lat="43.2028036" lon="13.05442"><ele>319.5</ele><time>2026-04-25T10:16:02.585Z</time></trkpt><trkpt lat="43.2026574" lon="13.0544355"><ele>320.0</ele><time>2026-04-25T10:16:03.582Z</time></trkpt><trkpt lat="43.2024897" lon="13.0544449"><ele>320.0</ele><time>2026-04-25T10:16:04.588Z</time></trkpt><trkpt lat="43.2023347" lon="13.0544226"><ele>320.0</ele><time>2026-04-25T10:16:05.584Z</time></trkpt><trkpt lat="43.2021941" lon="13.0543853"><ele>320.0</ele><time>2026-04-25T10:16:06.58Z</time></trkpt><trkpt lat="43.2020845" lon="13.054343"><ele>320.0</ele><time>2026-04-25T10:16:07.59Z</time></trkpt><trkpt lat="43.2019647" lon="13.0542872"><ele>320.6666666666667</ele><time>2026-04-25T10:16:08.586Z</time></trkpt><trkpt lat="43.2018201" lon="13.0542271"><ele>321.3333333333333</ele><time>2026-04-25T10:16:09.586Z</time></trkpt><trkpt lat="43.2016784" lon="13.0541579"><ele>322.0</ele><time>2026-04-25T10:16:10.585Z</time></trkpt><trkpt lat="43.201537" lon="13.0540746"><ele>319.3333333333333</ele><time>2026-04-25T10:16:11.585Z</time></trkpt><trkpt lat="43.2013893" lon="13.0539605"><ele>316.6666666666667</ele><time>2026-04-25T10:16:12.581Z</time></trkpt><trkpt lat="43.201271" lon="13.0538659"><ele>314.0</ele><time>2026-04-25T10:16:13.593Z</time></trkpt><trkpt lat="43.2011332" lon="13.0537921"><ele>314.0</ele><time>2026-04-25T10:16:14.591Z</time></trkpt><trkpt lat="43.2010023" lon="13.0537099"><ele>314.0</ele><time>2026-04-25T10:16:15.594Z</time></trkpt><trkpt lat="43.200879" lon="13.0536388"><ele>314.0</ele><time>2026-04-25T10:16:16.594Z</time></trkpt><trkpt lat="43.2007389" lon="13.0535399"><ele>314.0</ele><time>2026-04-25T10:16:17.591Z</time></trkpt><trkpt lat="43.2006058" lon="13.0534486"><ele>313.75</ele><time>2026-04-25T10:16:18.6Z</time></trkpt><trkpt lat="43.2004771" lon="13.0533632"><ele>313.5</ele><time>2026-04-25T10:16:19.593Z</time></trkpt><trkpt lat="43.2003457" lon="13.0532777"><ele>313.25</ele><time>2026-04-25T10:16:20.597Z</time></trkpt><trkpt lat="43.2002233" lon="13.0531821"><ele>313.0</ele><time>2026-04-25T10:16:21.593Z</time></trkpt><trkpt lat="43.2000934" lon="13.0530739"><ele>313.0</ele><time>2026-04-25T10:16:22.59Z</time></trkpt><trkpt lat="43.1999696" lon="13.0529507"><ele>313.0</ele><time>2026-04-25T10:16:23.594Z</time></trkpt><trkpt lat="43.1998493" lon="13.0528411"><ele>313.0</ele><time>2026-04-25T10:16:24.597Z</time></trkpt><trkpt lat="43.1997327" lon="13.0527165"><ele>313.0</ele><time>2026-04-25T10:16:25.589Z</time></trkpt><trkpt lat="43.199617" lon="13.052585"><ele>312.25</ele><time>2026-04-25T10:16:26.596Z</time></trkpt><trkpt lat="43.1995189" lon="13.0524684"><ele>311.5</ele><time>2026-04-25T10:16:27.584Z</time></trkpt><trkpt lat="43.1993904" lon="13.0523359"><ele>310.75</ele><time>2026-04-25T10:16:28.589Z</time></trkpt><trkpt lat="43.1992795" lon="13.0521916"><ele>310.0</ele><time>2026-04-25T10:16:29.592Z</time></trkpt><trkpt lat="43.199157" lon="13.0520718"><ele>310.0</ele><time>2026-04-25T10:16:30.595Z</time></trkpt><trkpt lat="43.1990363" lon="13.0519399"><ele>310.0</ele><time>2026-04-25T10:16:31.591Z</time></trkpt><trkpt lat="43.1989196" lon="13.0518048"><ele>310.0</ele><time>2026-04-25T10:16:32.595Z</time></trkpt><trkpt lat="43.1987981" lon="13.0516792"><ele>309.0</ele><time>2026-04-25T10:16:33.591Z</time></trkpt><trkpt lat="43.1986863" lon="13.0515566"><ele>308.0</ele><time>2026-04-25T10:16:34.595Z</time></trkpt><trkpt lat="43.1985739" lon="13.0514361"><ele>307.0</ele><time>2026-04-25T10:16:35.59Z</time></trkpt><trkpt lat="43.1984693" lon="13.0513202"><ele>306.0</ele><time>2026-04-25T10:16:36.589Z</time></trkpt><trkpt lat="43.1983614" lon="13.0512042"><ele>306.0</ele><time>2026-04-25T10:16:37.591Z</time></trkpt><trkpt lat="43.1982353" lon="13.0510874"><ele>306.0</ele><time>2026-04-25T10:16:38.599Z</time></trkpt><trkpt lat="43.1981136" lon="13.0509456"><ele>306.0</ele><time>2026-04-25T10:16:39.595Z</time></trkpt><trkpt lat="43.1979961" lon="13.0508143"><ele>307.0</ele><time>2026-04-25T10:16:40.594Z</time></trkpt><trkpt lat="43.197888" lon="13.0506873"><ele>308.0</ele><time>2026-04-25T10:16:41.598Z</time></trkpt><trkpt lat="43.1977926" lon="13.0505649"><ele>309.0</ele><time>2026-04-25T10:16:42.593Z</time></trkpt><trkpt lat="43.1976857" lon="13.0504571"><ele>310.0</ele><time>2026-04-25T10:16:43.6Z</time></trkpt><trkpt lat="43.1975963" lon="13.0503621"><ele>310.0</ele><time>2026-04-25T10:16:44.594Z</time></trkpt><trkpt lat="43.1974994" lon="13.0502877"><ele>310.0</ele><time>2026-04-25T10:16:45.598Z</time></trkpt><trkpt lat="43.1974075" lon="13.0502584"><ele>310.0</ele><time>2026-04-25T10:16:46.602Z</time></trkpt><trkpt lat="43.1973218" lon="13.0502045"><ele>310.0</ele><time>2026-04-25T10:16:47.592Z</time></trkpt><trkpt lat="43.1972369" lon="13.0501308"><ele>310.0</ele><time>2026-04-25T10:16:48.598Z</time></trkpt><trkpt lat="43.197145" lon="13.050039"><ele>310.0</ele><time>2026-04-25T10:16:49.591Z</time></trkpt><trkpt lat="43.1970447" lon="13.0499493"><ele>310.0</ele><time>2026-04-25T10:16:50.605Z</time></trkpt><trkpt lat="43.1969549" lon="13.0498851"><ele>310.0</ele><time>2026-04-25T10:16:51.597Z</time></trkpt><trkpt lat="43.1968834" lon="13.0498256"><ele>310.0</ele><time>2026-04-25T10:16:52.598Z</time></trkpt><trkpt lat="43.1968206" lon="13.0497367"><ele>310.0</ele><time>2026-04-25T10:16:53.591Z</time></trkpt><trkpt lat="43.1967646" lon="13.0496123"><ele>310.0</ele><time>2026-04-25T10:16:54.608Z</time></trkpt><trkpt lat="43.1967406" lon="13.0494652"><ele>310.0</ele><time>2026-04-25T10:16:55.6Z</time></trkpt><trkpt lat="43.1967391" lon="13.0493196"><ele>310.0</ele><time>2026-04-25T10:16:56.601Z</time></trkpt><trkpt lat="43.1967369" lon="13.0491737"><ele>310.0</ele><time>2026-04-25T10:16:57.596Z</time></trkpt><trkpt lat="43.1967327" lon="13.049027"><ele>310.0</ele><time>2026-04-25T10:16:58.599Z</time></trkpt><trkpt lat="43.1967213" lon="13.048883"><ele>311.0</ele><time>2026-04-25T10:16:59.594Z</time></trkpt><trkpt lat="43.1967106" lon="13.0487356"><ele>312.0</ele><time>2026-04-25T10:17:00.597Z</time></trkpt><trkpt lat="43.1967042" lon="13.0485844"><ele>313.0</ele><time>2026-04-25T10:17:01.596Z</time></trkpt><trkpt lat="43.1966888" lon="13.0484389"><ele>314.0</ele><time>2026-04-25T10:17:02.588Z</time></trkpt><trkpt lat="43.1966588" lon="13.048305"><ele>315.0</ele><time>2026-04-25T10:17:03.597Z</time></trkpt><trkpt lat="43.1966152" lon="13.0481756"><ele>315.0</ele><time>2026-04-25T10:17:04.582Z</time></trkpt><trkpt lat="43.1965461" lon="13.0480533"><ele>315.0</ele><time>2026-04-25T10:17:05.591Z</time></trkpt><trkpt lat="43.1964706" lon="13.0479533"><ele>315.0</ele><time>2026-04-25T10:17:06.59Z</time></trkpt><trkpt lat="43.1963714" lon="13.0478625"><ele>315.0</ele><time>2026-04-25T10:17:07.59Z</time></trkpt><trkpt lat="43.1962574" lon="13.0477872"><ele>315.0</ele><time>2026-04-25T10:17:08.594Z</time></trkpt><trkpt lat="43.196136" lon="13.0477426"><ele>315.0</ele><time>2026-04-25T10:17:09.592Z</time></trkpt><trkpt lat="43.1960064" lon="13.0476875"><ele>315.0</ele><time>2026-04-25T10:17:10.592Z</time></trkpt><trkpt lat="43.1958729" lon="13.0476405"><ele>315.0</ele><time>2026-04-25T10:17:11.597Z</time></trkpt><trkpt lat="43.195742" lon="13.0475724"><ele>314.75</ele><time>2026-04-25T10:17:12.586Z</time></trkpt><trkpt lat="43.1956321" lon="13.0475136"><ele>314.5</ele><time>2026-04-25T10:17:13.595Z</time></trkpt><trkpt lat="43.1955104" lon="13.0474351"><ele>314.25</ele><time>2026-04-25T10:17:14.588Z</time></trkpt><trkpt lat="43.1954039" lon="13.0473306"><ele>314.0</ele><time>2026-04-25T10:17:15.593Z</time></trkpt><trkpt lat="43.1952945" lon="13.047196"><ele>314.0</ele><time>2026-04-25T10:17:16.589Z</time></trkpt><trkpt lat="43.1951934" lon="13.0470582"><ele>314.0</ele><time>2026-04-25T10:17:17.593Z</time></trkpt><trkpt lat="43.1950913" lon="13.0468929"><ele>314.0</ele><time>2026-04-25T10:17:18.587Z</time></trkpt><trkpt lat="43.1949817" lon="13.0467556"><ele>314.0</ele><time>2026-04-25T10:17:19.596Z</time></trkpt><trkpt lat="43.1948773" lon="13.0466181"><ele>314.0</ele><time>2026-04-25T10:17:20.589Z</time></trkpt><trkpt lat="43.1947426" lon="13.0464667"><ele>314.0</ele><time>2026-04-25T10:17:21.579Z</time></trkpt><trkpt lat="43.1946464" lon="13.0463005"><ele>314.0</ele><time>2026-04-25T10:17:22.582Z</time></trkpt><trkpt lat="43.194527" lon="13.0461259"><ele>314.0</ele><time>2026-04-25T10:17:23.575Z</time></trkpt><trkpt lat="43.194423" lon="13.0459859"><ele>314.0</ele><time>2026-04-25T10:17:24.577Z</time></trkpt><trkpt lat="43.1942989" lon="13.0458516"><ele>314.0</ele><time>2026-04-25T10:17:25.577Z</time></trkpt><trkpt lat="43.1941757" lon="13.0457136"><ele>313.75</ele><time>2026-04-25T10:17:26.571Z</time></trkpt><trkpt lat="43.194075" lon="13.0456103"><ele>313.5</ele><time>2026-04-25T10:17:27.58Z</time></trkpt><trkpt lat="43.1939772" lon="13.045488"><ele>313.25</ele><time>2026-04-25T10:17:28.582Z</time></trkpt><trkpt lat="43.1938686" lon="13.0453787"><ele>313.0</ele><time>2026-04-25T10:17:29.58Z</time></trkpt><trkpt lat="43.193761" lon="13.0452903"><ele>313.0</ele><time>2026-04-25T10:17:30.589Z</time></trkpt><trkpt lat="43.1936538" lon="13.0452078"><ele>313.0</ele><time>2026-04-25T10:17:31.578Z</time></trkpt><trkpt lat="43.1935491" lon="13.0451514"><ele>313.0</ele><time>2026-04-25T10:17:32.586Z</time></trkpt><trkpt lat="43.193432" lon="13.0450952"><ele>313.0</ele><time>2026-04-25T10:17:33.585Z</time></trkpt><trkpt lat="43.1933106" lon="13.0450457"><ele>313.0</ele><time>2026-04-25T10:17:34.589Z</time></trkpt><trkpt lat="43.1931963" lon="13.0450004"><ele>313.0</ele><time>2026-04-25T10:17:35.584Z</time></trkpt><trkpt lat="43.1930754" lon="13.0449246"><ele>313.0</ele><time>2026-04-25T10:17:36.589Z</time></trkpt><trkpt lat="43.1929608" lon="13.0448361"><ele>313.0</ele><time>2026-04-25T10:17:37.586Z</time></trkpt><trkpt lat="43.1928484" lon="13.0447427"><ele>313.25</ele><time>2026-04-25T10:17:38.54Z</time></trkpt><trkpt lat="43.1927412" lon="13.0446213"><ele>313.5</ele><time>2026-04-25T10:17:39.531Z</time></trkpt><trkpt lat="43.1926385" lon="13.0444704"><ele>313.75</ele><time>2026-04-25T10:17:40.536Z</time></trkpt><trkpt lat="43.1925376" lon="13.0443375"><ele>314.0</ele><time>2026-04-25T10:17:41.53Z</time></trkpt><trkpt lat="43.1924327" lon="13.0441966"><ele>313.6666666666667</ele><time>2026-04-25T10:17:42.529Z</time></trkpt><trkpt lat="43.1923375" lon="13.0440279"><ele>313.3333333333333</ele><time>2026-04-25T10:17:43.527Z</time></trkpt><trkpt lat="43.1921973" lon="13.0438426"><ele>313.0</ele><time>2026-04-25T10:17:44.535Z</time></trkpt><trkpt lat="43.1921113" lon="13.0436949"><ele>313.0</ele><time>2026-04-25T10:17:45.528Z</time></trkpt><trkpt lat="43.1920488" lon="13.0435501"><ele>313.0</ele><time>2026-04-25T10:17:46.538Z</time></trkpt><trkpt lat="43.1919792" lon="13.0433988"><ele>313.0</ele><time>2026-04-25T10:17:47.529Z</time></trkpt><trkpt lat="43.1919049" lon="13.0432518"><ele>313.0</ele><time>2026-04-25T10:17:48.533Z</time></trkpt><trkpt lat="43.1918246" lon="13.0430941"><ele>313.5</ele><time>2026-04-25T10:17:49.537Z</time></trkpt><trkpt lat="43.1917329" lon="13.0429103"><ele>314.0</ele><time>2026-04-25T10:17:50.534Z</time></trkpt><trkpt lat="43.191657" lon="13.0427567"><ele>314.5</ele><time>2026-04-25T10:17:51.537Z</time></trkpt><trkpt lat="43.1915702" lon="13.0426282"><ele>315.0</ele><time>2026-04-25T10:17:52.542Z</time></trkpt><trkpt lat="43.1914823" lon="13.0424794"><ele>315.0</ele><time>2026-04-25T10:17:53.539Z</time></trkpt><trkpt lat="43.1913807" lon="13.0423347"><ele>315.0</ele><time>2026-04-25T10:17:54.536Z</time></trkpt><trkpt lat="43.1912695" lon="13.0421959"><ele>315.0</ele><time>2026-04-25T10:17:55.54Z</time></trkpt><trkpt lat="43.1911862" lon="13.0420577"><ele>315.0</ele><time>2026-04-25T10:17:56.534Z</time></trkpt><trkpt lat="43.191115" lon="13.0418937"><ele>315.0</ele><time>2026-04-25T10:17:57.548Z</time></trkpt><trkpt lat="43.191021" lon="13.0417016"><ele>315.0</ele><time>2026-04-25T10:17:58.538Z</time></trkpt><trkpt lat="43.1909518" lon="13.0415251"><ele>315.0</ele><time>2026-04-25T10:17:59.55Z</time></trkpt><trkpt lat="43.1908915" lon="13.0413401"><ele>315.25</ele><time>2026-04-25T10:18:00.543Z</time></trkpt><trkpt lat="43.1908416" lon="13.0411593"><ele>315.5</ele><time>2026-04-25T10:18:01.544Z</time></trkpt><trkpt lat="43.1908005" lon="13.0409953"><ele>315.75</ele><time>2026-04-25T10:18:02.54Z</time></trkpt><trkpt lat="43.1907556" lon="13.0408466"><ele>316.0</ele><time>2026-04-25T10:18:03.545Z</time></trkpt><trkpt lat="43.190701" lon="13.0407146"><ele>316.0</ele><time>2026-04-25T10:18:04.539Z</time></trkpt><trkpt lat="43.1906469" lon="13.0405985"><ele>316.0</ele><time>2026-04-25T10:18:05.542Z</time></trkpt><trkpt lat="43.1905622" lon="13.0404901"><ele>316.0</ele><time>2026-04-25T10:18:06.538Z</time></trkpt><trkpt lat="43.1904613" lon="13.0404146"><ele>316.0</ele><time>2026-04-25T10:18:07.54Z</time></trkpt><trkpt lat="43.190353" lon="13.0403553"><ele>316.0</ele><time>2026-04-25T10:18:08.542Z</time></trkpt><trkpt lat="43.1902398" lon="13.0403033"><ele>316.0</ele><time>2026-04-25T10:18:09.543Z</time></trkpt><trkpt lat="43.1901264" lon="13.0402399"><ele>316.0</ele><time>2026-04-25T10:18:10.547Z</time></trkpt><trkpt lat="43.190015" lon="13.0401567"><ele>316.0</ele><time>2026-04-25T10:18:11.539Z</time></trkpt><trkpt lat="43.1899093" lon="13.0400458"><ele>316.0</ele><time>2026-04-25T10:18:12.539Z</time></trkpt><trkpt lat="43.1898143" lon="13.0399133"><ele>316.3333333333333</ele><time>2026-04-25T10:18:13.529Z</time></trkpt><trkpt lat="43.1897292" lon="13.0397404"><ele>316.6666666666667</ele><time>2026-04-25T10:18:14.541Z</time></trkpt><trkpt lat="43.1896452" lon="13.0395482"><ele>317.0</ele><time>2026-04-25T10:18:15.538Z</time></trkpt><trkpt lat="43.1895735" lon="13.0393808"><ele>317.0</ele><time>2026-04-25T10:18:16.544Z</time></trkpt><trkpt lat="43.1895099" lon="13.0392183"><ele>317.0</ele><time>2026-04-25T10:18:17.532Z</time></trkpt><trkpt lat="43.1894349" lon="13.0390571"><ele>317.0</ele><time>2026-04-25T10:18:18.532Z</time></trkpt><trkpt lat="43.1893675" lon="13.0388982"><ele>317.0</ele><time>2026-04-25T10:18:19.534Z</time></trkpt><trkpt lat="43.1892977" lon="13.0387374"><ele>317.25</ele><time>2026-04-25T10:18:20.529Z</time></trkpt><trkpt lat="43.1892214" lon="13.0385609"><ele>317.5</ele><time>2026-04-25T10:18:21.537Z</time></trkpt><trkpt lat="43.1891452" lon="13.0383988"><ele>317.75</ele><time>2026-04-25T10:18:22.544Z</time></trkpt><trkpt lat="43.1890638" lon="13.0382443"><ele>318.0</ele><time>2026-04-25T10:18:23.534Z</time></trkpt><trkpt lat="43.1889847" lon="13.0380692"><ele>318.0</ele><time>2026-04-25T10:18:24.534Z</time></trkpt><trkpt lat="43.1889495" lon="13.0378953"><ele>318.0</ele><time>2026-04-25T10:18:25.533Z</time></trkpt><trkpt lat="43.1889114" lon="13.0376845"><ele>318.0</ele><time>2026-04-25T10:18:26.536Z</time></trkpt><trkpt lat="43.1888833" lon="13.0374729"><ele>318.0</ele><time>2026-04-25T10:18:27.536Z</time></trkpt><trkpt lat="43.1888277" lon="13.0372706"><ele>320.0</ele><time>2026-04-25T10:18:28.54Z</time></trkpt><trkpt lat="43.1887699" lon="13.0370721"><ele>322.0</ele><time>2026-04-25T10:18:29.54Z</time></trkpt><trkpt lat="43.1886994" lon="13.0368783"><ele>324.0</ele><time>2026-04-25T10:18:30.541Z</time></trkpt><trkpt lat="43.1886097" lon="13.0366999"><ele>325.0</ele><time>2026-04-25T10:18:31.528Z</time></trkpt><trkpt lat="43.1884941" lon="13.0365522"><ele>326.0</ele><time>2026-04-25T10:18:32.537Z</time></trkpt><trkpt lat="43.1883847" lon="13.0363829"><ele>327.0</ele><time>2026-04-25T10:18:33.541Z</time></trkpt><trkpt lat="43.1882991" lon="13.0362314"><ele>327.0</ele><time>2026-04-25T10:18:34.537Z</time></trkpt><trkpt lat="43.1881893" lon="13.0360736"><ele>327.0</ele><time>2026-04-25T10:18:35.538Z</time></trkpt><trkpt lat="43.1880777" lon="13.0359047"><ele>327.0</ele><time>2026-04-25T10:18:36.54Z</time></trkpt><trkpt lat="43.1879671" lon="13.0357514"><ele>329.0</ele><time>2026-04-25T10:18:37.539Z</time></trkpt><trkpt lat="43.1878547" lon="13.0355955"><ele>331.0</ele><time>2026-04-25T10:18:38.539Z</time></trkpt><trkpt lat="43.187756" lon="13.0354128"><ele>333.0</ele><time>2026-04-25T10:18:39.537Z</time></trkpt><trkpt lat="43.187655" lon="13.0352563"><ele>333.0</ele><time>2026-04-25T10:18:40.541Z</time></trkpt><trkpt lat="43.1875373" lon="13.0350809"><ele>333.0</ele><time>2026-04-25T10:18:41.541Z</time></trkpt><trkpt lat="43.1874168" lon="13.0349203"><ele>333.0</ele><time>2026-04-25T10:18:42.545Z</time></trkpt><trkpt lat="43.187309" lon="13.0347736"><ele>332.5</ele><time>2026-04-25T10:18:43.542Z</time></trkpt><trkpt lat="43.1872125" lon="13.0346257"><ele>332.0</ele><time>2026-04-25T10:18:44.544Z</time></trkpt><trkpt lat="43.1871163" lon="13.0344679"><ele>331.5</ele><time>2026-04-25T10:18:45.543Z</time></trkpt><trkpt lat="43.1870319" lon="13.0343014"><ele>331.0</ele><time>2026-04-25T10:18:46.541Z</time></trkpt><trkpt lat="43.1869423" lon="13.0341381"><ele>331.0</ele><time>2026-04-25T10:18:47.539Z</time></trkpt><trkpt lat="43.1868702" lon="13.0339414"><ele>331.0</ele><time>2026-04-25T10:18:48.538Z</time></trkpt><trkpt lat="43.1868031" lon="13.0337343"><ele>331.0</ele><time>2026-04-25T10:18:49.537Z</time></trkpt><trkpt lat="43.1867437" lon="13.0335136"><ele>332.0</ele><time>2026-04-25T10:18:50.543Z</time></trkpt><trkpt lat="43.186713" lon="13.0332937"><ele>333.0</ele><time>2026-04-25T10:18:51.55Z</time></trkpt><trkpt lat="43.1866928" lon="13.0330838"><ele>334.0</ele><time>2026-04-25T10:18:52.545Z</time></trkpt><trkpt lat="43.1866762" lon="13.0328833"><ele>334.0</ele><time>2026-04-25T10:18:53.553Z</time></trkpt><trkpt lat="43.1866541" lon="13.0326649"><ele>334.0</ele><time>2026-04-25T10:18:54.536Z</time></trkpt><trkpt lat="43.1866396" lon="13.0324625"><ele>334.0</ele><time>2026-04-25T10:18:55.535Z</time></trkpt><trkpt lat="43.1866082" lon="13.0322626"><ele>334.0</ele><time>2026-04-25T10:18:56.531Z</time></trkpt><trkpt lat="43.1865516" lon="13.0320592"><ele>334.0</ele><time>2026-04-25T10:18:57.533Z</time></trkpt><trkpt lat="43.1864845" lon="13.0318718"><ele>334.0</ele><time>2026-04-25T10:18:58.536Z</time></trkpt><trkpt lat="43.1864217" lon="13.0316773"><ele>333.66666666666663</ele><time>2026-04-25T10:18:59.541Z</time></trkpt><trkpt lat="43.1863668" lon="13.0314643"><ele>333.3333333333333</ele><time>2026-04-25T10:19:00.535Z</time></trkpt><trkpt lat="43.1863151" lon="13.0312538"><ele>333.0</ele><time>2026-04-25T10:19:01.542Z</time></trkpt><trkpt lat="43.1862437" lon="13.0310484"><ele>333.0</ele><time>2026-04-25T10:19:02.531Z</time></trkpt><trkpt lat="43.1861548" lon="13.0308385"><ele>333.0</ele><time>2026-04-25T10:19:03.536Z</time></trkpt><trkpt lat="43.1860596" lon="13.030646"><ele>333.0</ele><time>2026-04-25T10:19:04.534Z</time></trkpt><trkpt lat="43.1859568" lon="13.0304566"><ele>333.3333333333333</ele><time>2026-04-25T10:19:05.544Z</time></trkpt><trkpt lat="43.1858571" lon="13.0302762"><ele>333.66666666666663</ele><time>2026-04-25T10:19:06.536Z</time></trkpt><trkpt lat="43.1857629" lon="13.030085"><ele>334.0</ele><time>2026-04-25T10:19:07.536Z</time></trkpt><trkpt lat="43.18568" lon="13.0298971"><ele>334.0</ele><time>2026-04-25T10:19:08.54Z</time></trkpt><trkpt lat="43.1855862" lon="13.0297074"><ele>334.0</ele><time>2026-04-25T10:19:09.537Z</time></trkpt><trkpt lat="43.1854925" lon="13.0295168"><ele>334.0</ele><time>2026-04-25T10:19:10.542Z</time></trkpt><trkpt lat="43.1853983" lon="13.0293374"><ele>334.0</ele><time>2026-04-25T10:19:11.539Z</time></trkpt><trkpt lat="43.1853088" lon="13.0291448"><ele>334.0</ele><time>2026-04-25T10:19:12.541Z</time></trkpt><trkpt lat="43.1852197" lon="13.0289507"><ele>334.0</ele><time>2026-04-25T10:19:13.542Z</time></trkpt><trkpt lat="43.1851285" lon="13.0287545"><ele>335.3333333333333</ele><time>2026-04-25T10:19:14.542Z</time></trkpt><trkpt lat="43.1850393" lon="13.0285642"><ele>336.6666666666667</ele><time>2026-04-25T10:19:15.539Z</time></trkpt><trkpt lat="43.1849519" lon="13.0283665"><ele>338.0</ele><time>2026-04-25T10:19:16.546Z</time></trkpt><trkpt lat="43.1848674" lon="13.0281723"><ele>337.6666666666667</ele><time>2026-04-25T10:19:17.539Z</time></trkpt><trkpt lat="43.1847683" lon="13.0279995"><ele>337.3333333333333</ele><time>2026-04-25T10:19:18.541Z</time></trkpt><trkpt lat="43.1846846" lon="13.0278108"><ele>337.0</ele><time>2026-04-25T10:19:19.537Z</time></trkpt><trkpt lat="43.1845984" lon="13.0276197"><ele>338.0</ele><time>2026-04-25T10:19:20.541Z</time></trkpt><trkpt lat="43.1845092" lon="13.0274346"><ele>339.0</ele><time>2026-04-25T10:19:21.54Z</time></trkpt><trkpt lat="43.1844325" lon="13.0272587"><ele>340.0</ele><time>2026-04-25T10:19:22.544Z</time></trkpt><trkpt lat="43.1843436" lon="13.0270853"><ele>340.0</ele><time>2026-04-25T10:19:23.537Z</time></trkpt><trkpt lat="43.1842453" lon="13.0269075"><ele>340.0</ele><time>2026-04-25T10:19:24.545Z</time></trkpt><trkpt lat="43.1841525" lon="13.0267375"><ele>340.0</ele><time>2026-04-25T10:19:25.542Z</time></trkpt><trkpt lat="43.184059" lon="13.0265527"><ele>339.66666666666663</ele><time>2026-04-25T10:19:26.542Z</time></trkpt><trkpt lat="43.1839623" lon="13.0263506"><ele>339.3333333333333</ele><time>2026-04-25T10:19:27.54Z</time></trkpt><trkpt lat="43.1838777" lon="13.0261562"><ele>339.0</ele><time>2026-04-25T10:19:28.539Z</time></trkpt><trkpt lat="43.1837981" lon="13.0259545"><ele>339.6666666666667</ele><time>2026-04-25T10:19:29.54Z</time></trkpt><trkpt lat="43.1837168" lon="13.025742"><ele>340.33333333333337</ele><time>2026-04-25T10:19:30.545Z</time></trkpt><trkpt lat="43.183638" lon="13.0255171"><ele>341.0</ele><time>2026-04-25T10:19:31.542Z</time></trkpt><trkpt lat="43.1835587" lon="13.0253049"><ele>341.0</ele><time>2026-04-25T10:19:32.54Z</time></trkpt><trkpt lat="43.1834721" lon="13.025077"><ele>341.0</ele><time>2026-04-25T10:19:33.535Z</time></trkpt><trkpt lat="43.1833832" lon="13.0248633"><ele>341.0</ele><time>2026-04-25T10:19:34.539Z</time></trkpt><trkpt lat="43.1832895" lon="13.0246553"><ele>341.0</ele><time>2026-04-25T10:19:35.536Z</time></trkpt><trkpt lat="43.1832132" lon="13.0244412"><ele>341.0</ele><time>2026-04-25T10:19:36.538Z</time></trkpt><trkpt lat="43.1831478" lon="13.0242184"><ele>341.0</ele><time>2026-04-25T10:19:37.536Z</time></trkpt><trkpt lat="43.183103" lon="13.023964"><ele>341.6666666666667</ele><time>2026-04-25T10:19:38.54Z</time></trkpt><trkpt lat="43.1830505" lon="13.0237202"><ele>342.3333333333333</ele><time>2026-04-25T10:19:39.541Z</time></trkpt><trkpt lat="43.1830023" lon="13.0234996"><ele>343.0</ele><time>2026-04-25T10:19:40.538Z</time></trkpt><trkpt lat="43.1829658" lon="13.02327"><ele>343.3333333333333</ele><time>2026-04-25T10:19:41.541Z</time></trkpt><trkpt lat="43.1829349" lon="13.023048"><ele>343.6666666666667</ele><time>2026-04-25T10:19:42.527Z</time></trkpt><trkpt lat="43.1828804" lon="13.0228007"><ele>344.0</ele><time>2026-04-25T10:19:43.538Z</time></trkpt><trkpt lat="43.1828279" lon="13.0225708"><ele>344.33333333333337</ele><time>2026-04-25T10:19:44.541Z</time></trkpt><trkpt lat="43.1827844" lon="13.0223469"><ele>344.6666666666667</ele><time>2026-04-25T10:19:45.541Z</time></trkpt><trkpt lat="43.1827381" lon="13.0221071"><ele>345.0</ele><time>2026-04-25T10:19:46.543Z</time></trkpt><trkpt lat="43.182698" lon="13.021883"><ele>347.0</ele><time>2026-04-25T10:19:47.544Z</time></trkpt><trkpt lat="43.1826529" lon="13.0216471"><ele>349.0</ele><time>2026-04-25T10:19:48.539Z</time></trkpt><trkpt lat="43.1826198" lon="13.0214272"><ele>351.0</ele><time>2026-04-25T10:19:49.54Z</time></trkpt><trkpt lat="43.18258" lon="13.0212037"><ele>351.0</ele><time>2026-04-25T10:19:50.538Z</time></trkpt><trkpt lat="43.1825329" lon="13.0209636"><ele>351.0</ele><time>2026-04-25T10:19:51.543Z</time></trkpt><trkpt lat="43.1824793" lon="13.0207399"><ele>351.0</ele><time>2026-04-25T10:19:52.534Z</time></trkpt><trkpt lat="43.1824383" lon="13.0205214"><ele>353.0</ele><time>2026-04-25T10:19:53.532Z</time></trkpt><trkpt lat="43.1824183" lon="13.0203268"><ele>355.0</ele><time>2026-04-25T10:19:54.533Z</time></trkpt><trkpt lat="43.1823789" lon="13.020092"><ele>357.0</ele><time>2026-04-25T10:19:55.541Z</time></trkpt><trkpt lat="43.1823831" lon="13.0198438"><ele>357.6666666666667</ele><time>2026-04-25T10:19:56.526Z</time></trkpt><trkpt lat="43.1823961" lon="13.0196145"><ele>358.33333333333337</ele><time>2026-04-25T10:19:57.529Z</time></trkpt><trkpt lat="43.1824206" lon="13.0193803"><ele>359.0</ele><time>2026-04-25T10:19:58.527Z</time></trkpt><trkpt lat="43.1824386" lon="13.0191609"><ele>358.33333333333337</ele><time>2026-04-25T10:19:59.529Z</time></trkpt><trkpt lat="43.1824738" lon="13.0189161"><ele>357.6666666666667</ele><time>2026-04-25T10:20:00.519Z</time></trkpt><trkpt lat="43.1825069" lon="13.0186948"><ele>357.0</ele><time>2026-04-25T10:20:01.525Z</time></trkpt><trkpt lat="43.1825468" lon="13.0184722"><ele>357.6666666666667</ele><time>2026-04-25T10:20:02.526Z</time></trkpt><trkpt lat="43.1825799" lon="13.0182434"><ele>358.33333333333337</ele><time>2026-04-25T10:20:03.539Z</time></trkpt><trkpt lat="43.1826169" lon="13.0180598"><ele>359.0</ele><time>2026-04-25T10:20:04.533Z</time></trkpt><trkpt lat="43.1826528" lon="13.0178677"><ele>359.0</ele><time>2026-04-25T10:20:05.535Z</time></trkpt><trkpt lat="43.1826774" lon="13.0176799"><ele>359.0</ele><time>2026-04-25T10:20:06.529Z</time></trkpt><trkpt lat="43.1827013" lon="13.0174737"><ele>359.0</ele><time>2026-04-25T10:20:07.526Z</time></trkpt><trkpt lat="43.1826935" lon="13.0172725"><ele>359.0</ele><time>2026-04-25T10:20:08.525Z</time></trkpt><trkpt lat="43.1826695" lon="13.017076"><ele>360.6666666666667</ele><time>2026-04-25T10:20:09.523Z</time></trkpt><trkpt lat="43.1826185" lon="13.0168863"><ele>362.3333333333333</ele><time>2026-04-25T10:20:10.522Z</time></trkpt><trkpt lat="43.1825596" lon="13.0167017"><ele>364.0</ele><time>2026-04-25T10:20:11.521Z</time></trkpt><trkpt lat="43.1824835" lon="13.0165042"><ele>364.66666666666663</ele><time>2026-04-25T10:20:12.519Z</time></trkpt><trkpt lat="43.1824324" lon="13.016307"><ele>365.3333333333333</ele><time>2026-04-25T10:20:13.529Z</time></trkpt><trkpt lat="43.1823687" lon="13.0161113"><ele>366.0</ele><time>2026-04-25T10:20:14.529Z</time></trkpt><trkpt lat="43.1822937" lon="13.015916"><ele>363.3333333333333</ele><time>2026-04-25T10:20:15.533Z</time></trkpt><trkpt lat="43.1822275" lon="13.0157056"><ele>360.66666666666663</ele><time>2026-04-25T10:20:16.532Z</time></trkpt><trkpt lat="43.1821484" lon="13.0155082"><ele>358.0</ele><time>2026-04-25T10:20:17.532Z</time></trkpt><trkpt lat="43.18208" lon="13.015315"><ele>358.0</ele><time>2026-04-25T10:20:18.523Z</time></trkpt><trkpt lat="43.1820048" lon="13.0151193"><ele>358.0</ele><time>2026-04-25T10:20:19.53Z</time></trkpt><trkpt lat="43.1819392" lon="13.0149216"><ele>358.0</ele><time>2026-04-25T10:20:20.533Z</time></trkpt><trkpt lat="43.1818563" lon="13.0147054"><ele>359.3333333333333</ele><time>2026-04-25T10:20:21.537Z</time></trkpt><trkpt lat="43.1818024" lon="13.0145036"><ele>360.6666666666667</ele><time>2026-04-25T10:20:22.537Z</time></trkpt><trkpt lat="43.1817328" lon="13.0143197"><ele>362.0</ele><time>2026-04-25T10:20:23.534Z</time></trkpt><trkpt lat="43.1816709" lon="13.0141199"><ele>360.33333333333337</ele><time>2026-04-25T10:20:24.533Z</time></trkpt><trkpt lat="43.1815724" lon="13.013948"><ele>358.6666666666667</ele><time>2026-04-25T10:20:25.534Z</time></trkpt><trkpt lat="43.1814795" lon="13.0137762"><ele>357.0</ele><time>2026-04-25T10:20:26.536Z</time></trkpt><trkpt lat="43.1813476" lon="13.0136225"><ele>357.0</ele><time>2026-04-25T10:20:27.531Z</time></trkpt><trkpt lat="43.1812371" lon="13.0134784"><ele>357.0</ele><time>2026-04-25T10:20:28.531Z</time></trkpt><trkpt lat="43.181125" lon="13.0133392"><ele>357.0</ele><time>2026-04-25T10:20:29.524Z</time></trkpt><trkpt lat="43.1810299" lon="13.0131996"><ele>357.0</ele><time>2026-04-25T10:20:30.533Z</time></trkpt><trkpt lat="43.1809155" lon="13.0130408"><ele>356.0</ele><time>2026-04-25T10:20:31.525Z</time></trkpt><trkpt lat="43.1807997" lon="13.0128891"><ele>355.0</ele><time>2026-04-25T10:20:32.517Z</time></trkpt><trkpt lat="43.1807088" lon="13.012745"><ele>354.0</ele><time>2026-04-25T10:20:33.534Z</time></trkpt><trkpt lat="43.1806113" lon="13.0126073"><ele>353.0</ele><time>2026-04-25T10:20:34.533Z</time></trkpt><trkpt lat="43.180526" lon="13.0124806"><ele>353.0</ele><time>2026-04-25T10:20:35.524Z</time></trkpt><trkpt lat="43.1804431" lon="13.0123695"><ele>353.0</ele><time>2026-04-25T10:20:36.525Z</time></trkpt><trkpt lat="43.1803844" lon="13.0121855"><ele>353.0</ele><time>2026-04-25T10:20:37.524Z</time></trkpt><trkpt lat="43.1803361" lon="13.0119998"><ele>353.0</ele><time>2026-04-25T10:20:38.53Z</time></trkpt><trkpt lat="43.1802416" lon="13.0118621"><ele>353.0</ele><time>2026-04-25T10:20:39.534Z</time></trkpt><trkpt lat="43.1801608" lon="13.0118194"><ele>353.0</ele><time>2026-04-25T10:20:40.524Z</time></trkpt><trkpt lat="43.1800107" lon="13.0117101"><ele>353.0</ele><time>2026-04-25T10:20:41.53Z</time></trkpt><trkpt lat="43.1798601" lon="13.0114934"><ele>352.33333333333337</ele><time>2026-04-25T10:20:42.52Z</time></trkpt><trkpt lat="43.1797521" lon="13.0112932"><ele>351.6666666666667</ele><time>2026-04-25T10:20:43.525Z</time></trkpt><trkpt lat="43.179636" lon="13.0111397"><ele>351.0</ele><time>2026-04-25T10:20:44.523Z</time></trkpt><trkpt lat="43.179449" lon="13.0110092"><ele>352.6666666666667</ele><time>2026-04-25T10:20:45.51Z</time></trkpt><trkpt lat="43.1794362" lon="13.010775"><ele>354.33333333333337</ele><time>2026-04-25T10:20:46.526Z</time></trkpt><trkpt lat="43.1793517" lon="13.0104845"><ele>356.0</ele><time>2026-04-25T10:20:47.514Z</time></trkpt><trkpt lat="43.1792755" lon="13.01026"><ele>359.0</ele><time>2026-04-25T10:20:48.518Z</time></trkpt><trkpt lat="43.1791951" lon="13.0099039"><ele>362.0</ele><time>2026-04-25T10:20:49.513Z</time></trkpt><trkpt lat="43.1791543" lon="13.0095508"><ele>362.0</ele><time>2026-04-25T10:20:50.517Z</time></trkpt><trkpt lat="43.179098" lon="13.0092415"><ele>362.0</ele><time>2026-04-25T10:20:51.515Z</time></trkpt><trkpt lat="43.1790118" lon="13.0089817"><ele>362.0</ele><time>2026-04-25T10:20:52.528Z</time></trkpt><trkpt lat="43.1789142" lon="13.0087441"><ele>360.33333333333337</ele><time>2026-04-25T10:20:53.531Z</time></trkpt><trkpt lat="43.1787991" lon="13.0085289"><ele>358.6666666666667</ele><time>2026-04-25T10:20:54.535Z</time></trkpt><trkpt lat="43.1786745" lon="13.0083276"><ele>357.0</ele><time>2026-04-25T10:20:55.529Z</time></trkpt><trkpt lat="43.178533" lon="13.008148"><ele>358.6666666666667</ele><time>2026-04-25T10:20:56.53Z</time></trkpt><trkpt lat="43.1784022" lon="13.00797"><ele>360.33333333333337</ele><time>2026-04-25T10:20:57.533Z</time></trkpt><trkpt lat="43.1782657" lon="13.0077983"><ele>362.0</ele><time>2026-04-25T10:20:58.538Z</time></trkpt><trkpt lat="43.1781317" lon="13.0076112"><ele>363.33333333333337</ele><time>2026-04-25T10:20:59.532Z</time></trkpt><trkpt lat="43.1779986" lon="13.0074401"><ele>364.6666666666667</ele><time>2026-04-25T10:21:00.536Z</time></trkpt><trkpt lat="43.177852" lon="13.0072719"><ele>366.0</ele><time>2026-04-25T10:21:01.528Z</time></trkpt><trkpt lat="43.1777288" lon="13.0071182"><ele>366.0</ele><time>2026-04-25T10:21:02.531Z</time></trkpt><trkpt lat="43.1776245" lon="13.0069786"><ele>366.0</ele><time>2026-04-25T10:21:03.518Z</time></trkpt><trkpt lat="43.1775427" lon="13.0068168"><ele>366.0</ele><time>2026-04-25T10:21:04.533Z</time></trkpt><trkpt lat="43.1774694" lon="13.0066559"><ele>366.0</ele><time>2026-04-25T10:21:05.527Z</time></trkpt><trkpt lat="43.1774122" lon="13.0064877"><ele>366.0</ele><time>2026-04-25T10:21:06.521Z</time></trkpt><trkpt lat="43.1773876" lon="13.0063406"><ele>366.0</ele><time>2026-04-25T10:21:07.52Z</time></trkpt><trkpt lat="43.1773668" lon="13.0061767"><ele>366.0</ele><time>2026-04-25T10:21:08.523Z</time></trkpt><trkpt lat="43.1773771" lon="13.0060209"><ele>366.0</ele><time>2026-04-25T10:21:09.517Z</time></trkpt><trkpt lat="43.1774342" lon="13.0058114"><ele>366.0</ele><time>2026-04-25T10:21:10.527Z</time></trkpt><trkpt lat="43.1775111" lon="13.0055926"><ele>366.0</ele><time>2026-04-25T10:21:11.517Z</time></trkpt><trkpt lat="43.17758" lon="13.0053626"><ele>366.0</ele><time>2026-04-25T10:21:12.52Z</time></trkpt><trkpt lat="43.1776557" lon="13.0051096"><ele>366.0</ele><time>2026-04-25T10:21:13.524Z</time></trkpt><trkpt lat="43.1776997" lon="13.0048546"><ele>366.0</ele><time>2026-04-25T10:21:14.52Z</time></trkpt><trkpt lat="43.1777637" lon="13.0046409"><ele>366.0</ele><time>2026-04-25T10:21:15.529Z</time></trkpt><trkpt lat="43.1778163" lon="13.0044102"><ele>365.0</ele><time>2026-04-25T10:21:16.521Z</time></trkpt><trkpt lat="43.1778164" lon="13.0041555"><ele>364.0</ele><time>2026-04-25T10:21:17.522Z</time></trkpt><trkpt lat="43.1778212" lon="13.0039376"><ele>363.0</ele><time>2026-04-25T10:21:18.5Z</time></trkpt><trkpt lat="43.1777745" lon="13.0036907"><ele>363.0</ele><time>2026-04-25T10:21:19.516Z</time></trkpt><trkpt lat="43.1777292" lon="13.0034696"><ele>363.0</ele><time>2026-04-25T10:21:20.511Z</time></trkpt><trkpt lat="43.1776851" lon="13.0031955"><ele>363.0</ele><time>2026-04-25T10:21:21.509Z</time></trkpt><trkpt lat="43.1776327" lon="13.002938"><ele>364.0</ele><time>2026-04-25T10:21:22.508Z</time></trkpt><trkpt lat="43.1775727" lon="13.0027123"><ele>365.0</ele><time>2026-04-25T10:21:23.509Z</time></trkpt><trkpt lat="43.1775234" lon="13.0025188"><ele>366.0</ele><time>2026-04-25T10:21:24.512Z</time></trkpt><trkpt lat="43.1775098" lon="13.0022869"><ele>366.0</ele><time>2026-04-25T10:21:25.517Z</time></trkpt><trkpt lat="43.1774936" lon="13.0021086"><ele>366.0</ele><time>2026-04-25T10:21:26.512Z</time></trkpt><trkpt lat="43.1775215" lon="13.0018422"><ele>366.0</ele><time>2026-04-25T10:21:27.508Z</time></trkpt><trkpt lat="43.1775696" lon="13.0015726"><ele>366.6666666666667</ele><time>2026-04-25T10:21:28.516Z</time></trkpt><trkpt lat="43.1776208" lon="13.0012723"><ele>367.33333333333337</ele><time>2026-04-25T10:21:29.516Z</time></trkpt><trkpt lat="43.1776464" lon="13.0009903"><ele>368.0</ele><time>2026-04-25T10:21:30.516Z</time></trkpt><trkpt lat="43.1776793" lon="13.0007138"><ele>369.33333333333337</ele><time>2026-04-25T10:21:31.521Z</time></trkpt><trkpt lat="43.1777064" lon="13.0004508"><ele>370.6666666666667</ele><time>2026-04-25T10:21:32.521Z</time></trkpt><trkpt lat="43.177731" lon="13.000195"><ele>372.0</ele><time>2026-04-25T10:21:33.514Z</time></trkpt><trkpt lat="43.1777505" lon="12.9999719"><ele>372.0</ele><time>2026-04-25T10:21:34.512Z</time></trkpt><trkpt lat="43.1777503" lon="12.9997452"><ele>372.0</ele><time>2026-04-25T10:21:35.51Z</time></trkpt><trkpt lat="43.1777273" lon="12.9994957"><ele>372.0</ele><time>2026-04-25T10:21:36.517Z</time></trkpt><trkpt lat="43.1776991" lon="12.9992731"><ele>373.6666666666667</ele><time>2026-04-25T10:21:37.508Z</time></trkpt><trkpt lat="43.1776674" lon="12.9990616"><ele>375.33333333333337</ele><time>2026-04-25T10:21:38.516Z</time></trkpt><trkpt lat="43.1776092" lon="12.9988807"><ele>377.0</ele><time>2026-04-25T10:21:39.503Z</time></trkpt><trkpt lat="43.1775388" lon="12.9986947"><ele>377.0</ele><time>2026-04-25T10:21:40.514Z</time></trkpt><trkpt lat="43.1774305" lon="12.9985369"><ele>377.0</ele><time>2026-04-25T10:21:41.507Z</time></trkpt><trkpt lat="43.1772874" lon="12.9984095"><ele>377.0</ele><time>2026-04-25T10:21:42.517Z</time></trkpt><trkpt lat="43.1771269" lon="12.9982956"><ele>378.6666666666667</ele><time>2026-04-25T10:21:43.509Z</time></trkpt><trkpt lat="43.1769835" lon="12.9981637"><ele>380.3333333333333</ele><time>2026-04-25T10:21:44.517Z</time></trkpt><trkpt lat="43.1768583" lon="12.998051"><ele>382.0</ele><time>2026-04-25T10:21:45.513Z</time></trkpt><trkpt lat="43.1767447" lon="12.997956"><ele>382.0</ele><time>2026-04-25T10:21:46.516Z</time></trkpt><trkpt lat="43.1766555" lon="12.9978472"><ele>382.0</ele><time>2026-04-25T10:21:47.516Z</time></trkpt><trkpt lat="43.1765772" lon="12.9977305"><ele>382.0</ele><time>2026-04-25T10:21:48.51Z</time></trkpt><trkpt lat="43.1765358" lon="12.9975702"><ele>382.0</ele><time>2026-04-25T10:21:49.507Z</time></trkpt><trkpt lat="43.1765155" lon="12.9973712"><ele>381.25</ele><time>2026-04-25T10:21:50.508Z</time></trkpt><trkpt lat="43.1765386" lon="12.9972172"><ele>380.5</ele><time>2026-04-25T10:21:51.509Z</time></trkpt><trkpt lat="43.1765883" lon="12.997053"><ele>379.75</ele><time>2026-04-25T10:21:52.504Z</time></trkpt><trkpt lat="43.1766696" lon="12.9968887"><ele>379.0</ele><time>2026-04-25T10:21:53.498Z</time></trkpt><trkpt lat="43.1767552" lon="12.9967406"><ele>386.0</ele><time>2026-04-25T10:21:54.501Z</time></trkpt><trkpt lat="43.1768849" lon="12.9965727"><ele>393.0</ele><time>2026-04-25T10:21:55.501Z</time></trkpt><trkpt lat="43.1769971" lon="12.9964016"><ele>400.0</ele><time>2026-04-25T10:21:56.505Z</time></trkpt><trkpt lat="43.1771327" lon="12.9962161"><ele>400.0</ele><time>2026-04-25T10:21:57.508Z</time></trkpt><trkpt lat="43.1773005" lon="12.9960716"><ele>400.0</ele><time>2026-04-25T10:21:58.496Z</time></trkpt><trkpt lat="43.1774257" lon="12.9959174"><ele>400.0</ele><time>2026-04-25T10:21:59.523Z</time></trkpt><trkpt lat="43.177534" lon="12.9957682"><ele>397.0</ele><time>2026-04-25T10:22:00.524Z</time></trkpt><trkpt lat="43.1776064" lon="12.995609"><ele>394.0</ele><time>2026-04-25T10:22:01.53Z</time></trkpt><trkpt lat="43.1776773" lon="12.9954666"><ele>391.0</ele><time>2026-04-25T10:22:02.525Z</time></trkpt><trkpt lat="43.1777382" lon="12.9953302"><ele>388.0</ele><time>2026-04-25T10:22:03.526Z</time></trkpt><trkpt lat="43.1777843" lon="12.9952025"><ele>388.00000000000006</ele><time>2026-04-25T10:22:04.529Z</time></trkpt><trkpt lat="43.1778304" lon="12.9950959"><ele>388.0</ele><time>2026-04-25T10:22:05.53Z</time></trkpt><trkpt lat="43.1778666" lon="12.9950029"><ele>388.0</ele><time>2026-04-25T10:22:06.532Z</time></trkpt><trkpt lat="43.1779111" lon="12.9949245"><ele>388.0</ele><time>2026-04-25T10:22:07.529Z</time></trkpt><trkpt lat="43.1779511" lon="12.994841"><ele>388.00000000000006</ele><time>2026-04-25T10:22:08.527Z</time></trkpt><trkpt lat="43.1780159" lon="12.994707"><ele>388.0</ele><time>2026-04-25T10:22:10.532Z</time></trkpt><trkpt lat="43.1780567" lon="12.9946051"><ele>389.59999999999997</ele><time>2026-04-25T10:22:12.531Z</time></trkpt><trkpt lat="43.1780935" lon="12.9945195"><ele>391.2</ele><time>2026-04-25T10:22:17.532Z</time></trkpt><trkpt lat="43.1781256" lon="12.9944166"><ele>392.8</ele><time>2026-04-25T10:23:24.525Z</time></trkpt><trkpt lat="43.178174" lon="12.9942838"><ele>394.4</ele><time>2026-04-25T10:23:25.527Z</time></trkpt><trkpt lat="43.1782168" lon="12.9941375"><ele>396.0</ele><time>2026-04-25T10:23:26.522Z</time></trkpt><trkpt lat="43.1782504" lon="12.9939251"><ele>396.0</ele><time>2026-04-25T10:23:27.526Z</time></trkpt><trkpt lat="43.1782675" lon="12.9937295"><ele>396.0</ele><time>2026-04-25T10:23:28.527Z</time></trkpt><trkpt lat="43.1782615" lon="12.9936212"><ele>396.0</ele><time>2026-04-25T10:23:29.519Z</time></trkpt><trkpt lat="43.1782581" lon="12.993521"><ele>396.0</ele><time>2026-04-25T10:23:30.517Z</time></trkpt><trkpt lat="43.1782687" lon="12.9934243"><ele>396.0</ele><time>2026-04-25T10:23:31.497Z</time></trkpt><trkpt lat="43.1785562" lon="12.989908"><ele>409.66666666666663</ele><time>2026-04-25T10:23:46.531Z</time></trkpt><trkpt lat="43.1784817" lon="12.9896351"><ele>423.3333333333333</ele><time>2026-04-25T10:23:47.516Z</time></trkpt><trkpt lat="43.178444" lon="12.9894097"><ele>437.0</ele><time>2026-04-25T10:23:48.527Z</time></trkpt><trkpt lat="43.1784406" lon="12.9891957"><ele>437.66666666666663</ele><time>2026-04-25T10:23:49.531Z</time></trkpt><trkpt lat="43.1784458" lon="12.9889498"><ele>438.33333333333337</ele><time>2026-04-25T10:23:50.532Z</time></trkpt><trkpt lat="43.1784645" lon="12.988729"><ele>439.0</ele><time>2026-04-25T10:23:51.531Z</time></trkpt><trkpt lat="43.1784707" lon="12.9885302"><ele>439.0</ele><time>2026-04-25T10:23:52.54Z</time></trkpt><trkpt lat="43.1784756" lon="12.988347"><ele>439.0</ele><time>2026-04-25T10:23:53.531Z</time></trkpt><trkpt lat="43.178466" lon="12.9881372"><ele>439.0</ele><time>2026-04-25T10:23:54.533Z</time></trkpt><trkpt lat="43.1784728" lon="12.9879316"><ele>439.0</ele><time>2026-04-25T10:23:55.521Z</time></trkpt><trkpt lat="43.178461" lon="12.9877219"><ele>444.33333333333337</ele><time>2026-04-25T10:23:56.512Z</time></trkpt><trkpt lat="43.1784557" lon="12.9875352"><ele>449.66666666666663</ele><time>2026-04-25T10:23:57.504Z</time></trkpt><trkpt lat="43.1784284" lon="12.9872978"><ele>455.0</ele><time>2026-04-25T10:23:58.492Z</time></trkpt><trkpt lat="43.178071" lon="12.9855858"><ele>455.0</ele><time>2026-04-25T10:24:08.515Z</time></trkpt><trkpt lat="43.1780331" lon="12.9854146"><ele>455.0</ele><time>2026-04-25T10:24:09.527Z</time></trkpt><trkpt lat="43.178029" lon="12.9852646"><ele>455.0</ele><time>2026-04-25T10:24:10.53Z</time></trkpt><trkpt lat="43.1779723" lon="12.9850996"><ele>455.0</ele><time>2026-04-25T10:24:11.526Z</time></trkpt><trkpt lat="43.1779271" lon="12.9849781"><ele>454.99999999999994</ele><time>2026-04-25T10:24:12.529Z</time></trkpt><trkpt lat="43.1778341" lon="12.9850398"><ele>455.0</ele><time>2026-04-25T10:24:18.534Z</time></trkpt><trkpt lat="43.1777721" lon="12.9850907"><ele>455.0</ele><time>2026-04-25T10:24:19.532Z</time></trkpt><trkpt lat="43.1777045" lon="12.9851383"><ele>455.0</ele><time>2026-04-25T10:24:20.533Z</time></trkpt><trkpt lat="43.1776164" lon="12.9852028"><ele>454.99999999999994</ele><time>2026-04-25T10:24:21.533Z</time></trkpt><trkpt lat="43.1775294" lon="12.985261"><ele>455.0</ele><time>2026-04-25T10:24:22.538Z</time></trkpt><trkpt lat="43.1774431" lon="12.9853125"><ele>455.0</ele><time>2026-04-25T10:24:23.534Z</time></trkpt><trkpt lat="43.1773566" lon="12.9853766"><ele>455.0</ele><time>2026-04-25T10:24:24.528Z</time></trkpt><trkpt lat="43.1772819" lon="12.9854461"><ele>455.0</ele><time>2026-04-25T10:24:25.536Z</time></trkpt><trkpt lat="43.1772155" lon="12.9855217"><ele>455.0</ele><time>2026-04-25T10:24:26.53Z</time></trkpt><trkpt lat="43.1771374" lon="12.9855851"><ele>455.0</ele><time>2026-04-25T10:24:27.528Z</time></trkpt><trkpt lat="43.1770427" lon="12.9856614"><ele>456.75</ele><time>2026-04-25T10:24:28.527Z</time></trkpt><trkpt lat="43.1769319" lon="12.9857429"><ele>458.5</ele><time>2026-04-25T10:24:29.535Z</time></trkpt><trkpt lat="43.176813" lon="12.9858136"><ele>460.25</ele><time>2026-04-25T10:24:30.538Z</time></trkpt><trkpt lat="43.176695" lon="12.9859052"><ele>462.0</ele><time>2026-04-25T10:24:31.532Z</time></trkpt><trkpt lat="43.17659" lon="12.9859692"><ele>469.8</ele><time>2026-04-25T10:24:32.54Z</time></trkpt><trkpt lat="43.1765013" lon="12.9860176"><ele>477.6</ele><time>2026-04-25T10:24:33.544Z</time></trkpt><trkpt lat="43.1764152" lon="12.9860388"><ele>485.40000000000003</ele><time>2026-04-25T10:24:34.539Z</time></trkpt><trkpt lat="43.1763216" lon="12.9860283"><ele>493.20000000000005</ele><time>2026-04-25T10:24:35.539Z</time></trkpt><trkpt lat="43.1762015" lon="12.9859978"><ele>501.0</ele><time>2026-04-25T10:24:36.538Z</time></trkpt><trkpt lat="43.1760644" lon="12.9859602"><ele>501.0</ele><time>2026-04-25T10:24:37.535Z</time></trkpt><trkpt lat="43.175907" lon="12.9859227"><ele>501.0</ele><time>2026-04-25T10:24:38.536Z</time></trkpt><trkpt lat="43.1757411" lon="12.9858854"><ele>501.0</ele><time>2026-04-25T10:24:39.541Z</time></trkpt><trkpt lat="43.1755839" lon="12.9858479"><ele>490.0</ele><time>2026-04-25T10:24:40.544Z</time></trkpt><trkpt lat="43.1754273" lon="12.9858051"><ele>479.0</ele><time>2026-04-25T10:24:41.537Z</time></trkpt><trkpt lat="43.1752488" lon="12.9857711"><ele>468.0</ele><time>2026-04-25T10:24:42.535Z</time></trkpt><trkpt lat="43.1750657" lon="12.9857179"><ele>468.0</ele><time>2026-04-25T10:24:43.536Z</time></trkpt><trkpt lat="43.1748837" lon="12.9856697"><ele>468.0</ele><time>2026-04-25T10:24:44.532Z</time></trkpt><trkpt lat="43.1746817" lon="12.9856334"><ele>468.0</ele><time>2026-04-25T10:24:45.533Z</time></trkpt><trkpt lat="43.1744773" lon="12.9855911"><ele>470.0</ele><time>2026-04-25T10:24:46.54Z</time></trkpt><trkpt lat="43.1742831" lon="12.9855322"><ele>472.0</ele><time>2026-04-25T10:24:47.536Z</time></trkpt><trkpt lat="43.1740827" lon="12.9854872"><ele>474.0</ele><time>2026-04-25T10:24:48.532Z</time></trkpt><trkpt lat="43.1738922" lon="12.9854578"><ele>477.0</ele><time>2026-04-25T10:24:49.532Z</time></trkpt><trkpt lat="43.1737092" lon="12.9854163"><ele>480.0</ele><time>2026-04-25T10:24:50.532Z</time></trkpt><trkpt lat="43.1735432" lon="12.9853829"><ele>483.0</ele><time>2026-04-25T10:24:51.528Z</time></trkpt><trkpt lat="43.1734051" lon="12.985389"><ele>483.0</ele><time>2026-04-25T10:24:52.537Z</time></trkpt><trkpt lat="43.1732536" lon="12.9853786"><ele>483.0</ele><time>2026-04-25T10:24:53.532Z</time></trkpt><trkpt lat="43.1730968" lon="12.9853365"><ele>483.0</ele><time>2026-04-25T10:24:54.528Z</time></trkpt><trkpt lat="43.1729388" lon="12.9852398"><ele>484.0</ele><time>2026-04-25T10:24:55.54Z</time></trkpt><trkpt lat="43.1727792" lon="12.9851385"><ele>485.0</ele><time>2026-04-25T10:24:56.532Z</time></trkpt><trkpt lat="43.1726217" lon="12.9849998"><ele>486.0</ele><time>2026-04-25T10:24:57.537Z</time></trkpt><trkpt lat="43.1724583" lon="12.9848832"><ele>480.0</ele><time>2026-04-25T10:24:58.535Z</time></trkpt><trkpt lat="43.1723008" lon="12.9847738"><ele>474.0</ele><time>2026-04-25T10:24:59.534Z</time></trkpt><trkpt lat="43.1721411" lon="12.9846541"><ele>468.0</ele><time>2026-04-25T10:25:00.533Z</time></trkpt><trkpt lat="43.1719828" lon="12.9845353"><ele>468.0</ele><time>2026-04-25T10:25:01.537Z</time></trkpt><trkpt lat="43.1718239" lon="12.9843882"><ele>468.0</ele><time>2026-04-25T10:25:02.533Z</time></trkpt><trkpt lat="43.1716777" lon="12.9842466"><ele>468.0</ele><time>2026-04-25T10:25:03.537Z</time></trkpt><trkpt lat="43.1715213" lon="12.9841071"><ele>474.66666666666663</ele><time>2026-04-25T10:25:04.536Z</time></trkpt><trkpt lat="43.1713819" lon="12.9839658"><ele>481.3333333333333</ele><time>2026-04-25T10:25:05.534Z</time></trkpt><trkpt lat="43.1712556" lon="12.9838129"><ele>488.0</ele><time>2026-04-25T10:25:06.53Z</time></trkpt><trkpt lat="43.1711328" lon="12.9836599"><ele>488.0</ele><time>2026-04-25T10:25:07.529Z</time></trkpt><trkpt lat="43.1710035" lon="12.9834999"><ele>488.0</ele><time>2026-04-25T10:25:08.534Z</time></trkpt><trkpt lat="43.1709101" lon="12.9832879"><ele>488.0</ele><time>2026-04-25T10:25:09.534Z</time></trkpt><trkpt lat="43.1708415" lon="12.9830482"><ele>481.0</ele><time>2026-04-25T10:25:10.53Z</time></trkpt><trkpt lat="43.1707822" lon="12.9827927"><ele>474.0</ele><time>2026-04-25T10:25:11.53Z</time></trkpt><trkpt lat="43.1707468" lon="12.9825402"><ele>467.0</ele><time>2026-04-25T10:25:12.531Z</time></trkpt><trkpt lat="43.1707178" lon="12.9822704"><ele>465.3333333333333</ele><time>2026-04-25T10:25:13.528Z</time></trkpt><trkpt lat="43.1707083" lon="12.9819916"><ele>463.66666666666663</ele><time>2026-04-25T10:25:14.531Z</time></trkpt><trkpt lat="43.1707025" lon="12.981702"><ele>462.0</ele><time>2026-04-25T10:25:15.521Z</time></trkpt><trkpt lat="43.1706957" lon="12.9814324"><ele>473.33333333333337</ele><time>2026-04-25T10:25:16.533Z</time></trkpt><trkpt lat="43.1706661" lon="12.9811708"><ele>484.6666666666667</ele><time>2026-04-25T10:25:17.527Z</time></trkpt><trkpt lat="43.1706644" lon="12.9809379"><ele>496.0</ele><time>2026-04-25T10:25:18.536Z</time></trkpt><trkpt lat="43.1706756" lon="12.9806968"><ele>496.0</ele><time>2026-04-25T10:25:19.534Z</time></trkpt><trkpt lat="43.170662" lon="12.9804964"><ele>496.0</ele><time>2026-04-25T10:25:20.533Z</time></trkpt><trkpt lat="43.1706379" lon="12.980292"><ele>496.0</ele><time>2026-04-25T10:25:21.523Z</time></trkpt><trkpt lat="43.1705984" lon="12.980118"><ele>496.0</ele><time>2026-04-25T10:25:22.533Z</time></trkpt><trkpt lat="43.1705148" lon="12.9800086"><ele>489.33333333333337</ele><time>2026-04-25T10:25:23.525Z</time></trkpt><trkpt lat="43.1703993" lon="12.9799159"><ele>482.66666666666663</ele><time>2026-04-25T10:25:24.535Z</time></trkpt><trkpt lat="43.1702429" lon="12.9798809"><ele>476.0</ele><time>2026-04-25T10:25:25.532Z</time></trkpt><trkpt lat="43.1700859" lon="12.9797829"><ele>476.0</ele><time>2026-04-25T10:25:26.534Z</time></trkpt><trkpt lat="43.1699301" lon="12.9796343"><ele>476.0</ele><time>2026-04-25T10:25:27.528Z</time></trkpt><trkpt lat="43.1697869" lon="12.979444"><ele>476.0</ele><time>2026-04-25T10:25:28.531Z</time></trkpt><trkpt lat="43.1696807" lon="12.9792668"><ele>479.66666666666663</ele><time>2026-04-25T10:25:29.53Z</time></trkpt><trkpt lat="43.1696017" lon="12.9790674"><ele>483.33333333333337</ele><time>2026-04-25T10:25:30.525Z</time></trkpt><trkpt lat="43.1695243" lon="12.9788647"><ele>487.0</ele><time>2026-04-25T10:25:31.528Z</time></trkpt><trkpt lat="43.1694152" lon="12.978644"><ele>487.0</ele><time>2026-04-25T10:25:32.516Z</time></trkpt><trkpt lat="43.1693171" lon="12.9784014"><ele>487.0</ele><time>2026-04-25T10:25:33.514Z</time></trkpt><trkpt lat="43.1692136" lon="12.9782051"><ele>487.0</ele><time>2026-04-25T10:25:34.528Z</time></trkpt><trkpt lat="43.1690744" lon="12.9779838"><ele>487.0</ele><time>2026-04-25T10:25:35.527Z</time></trkpt><trkpt lat="43.1690048" lon="12.9778423"><ele>487.0</ele><time>2026-04-25T10:25:36.52Z</time></trkpt><trkpt lat="43.1689268" lon="12.9777465"><ele>487.0</ele><time>2026-04-25T10:25:37.521Z</time></trkpt><trkpt lat="43.1687731" lon="12.977701"><ele>487.0</ele><time>2026-04-25T10:25:38.525Z</time></trkpt><trkpt lat="43.1686037" lon="12.9776825"><ele>487.0</ele><time>2026-04-25T10:25:39.527Z</time></trkpt><trkpt lat="43.1684397" lon="12.9776683"><ele>487.0</ele><time>2026-04-25T10:25:40.529Z</time></trkpt><trkpt lat="43.1682812" lon="12.977615"><ele>487.0</ele><time>2026-04-25T10:25:41.53Z</time></trkpt><trkpt lat="43.1681184" lon="12.9775027"><ele>486.6666666666667</ele><time>2026-04-25T10:25:42.53Z</time></trkpt><trkpt lat="43.1679816" lon="12.9773646"><ele>486.33333333333337</ele><time>2026-04-25T10:25:43.53Z</time></trkpt><trkpt lat="43.1678445" lon="12.9771884"><ele>486.0</ele><time>2026-04-25T10:25:44.531Z</time></trkpt><trkpt lat="43.1677201" lon="12.9770307"><ele>486.0</ele><time>2026-04-25T10:25:45.536Z</time></trkpt><trkpt lat="43.1675949" lon="12.9768821"><ele>486.0</ele><time>2026-04-25T10:25:46.533Z</time></trkpt><trkpt lat="43.1674881" lon="12.976779"><ele>486.0</ele><time>2026-04-25T10:25:47.538Z</time></trkpt><trkpt lat="43.1673755" lon="12.9767044"><ele>486.0</ele><time>2026-04-25T10:25:48.543Z</time></trkpt><trkpt lat="43.1672297" lon="12.976668"><ele>484.75</ele><time>2026-04-25T10:25:49.53Z</time></trkpt><trkpt lat="43.1670868" lon="12.9766379"><ele>483.5</ele><time>2026-04-25T10:25:50.536Z</time></trkpt><trkpt lat="43.166954" lon="12.9765835"><ele>482.25</ele><time>2026-04-25T10:25:51.537Z</time></trkpt><trkpt lat="43.1668144" lon="12.9764996"><ele>481.0</ele><time>2026-04-25T10:25:52.529Z</time></trkpt><trkpt lat="43.166681" lon="12.9763712"><ele>481.0</ele><time>2026-04-25T10:25:53.536Z</time></trkpt><trkpt lat="43.1665522" lon="12.9762382"><ele>481.0</ele><time>2026-04-25T10:25:54.532Z</time></trkpt><trkpt lat="43.1664483" lon="12.9761075"><ele>481.0</ele><time>2026-04-25T10:25:55.541Z</time></trkpt><trkpt lat="43.1662977" lon="12.9760408"><ele>488.33333333333337</ele><time>2026-04-25T10:25:56.528Z</time></trkpt><trkpt lat="43.1661326" lon="12.9759975"><ele>495.66666666666663</ele><time>2026-04-25T10:25:57.525Z</time></trkpt><trkpt lat="43.165953" lon="12.975966"><ele>503.0</ele><time>2026-04-25T10:25:58.535Z</time></trkpt><trkpt lat="43.1657892" lon="12.9759398"><ele>507.0</ele><time>2026-04-25T10:25:59.531Z</time></trkpt><trkpt lat="43.1656083" lon="12.9758773"><ele>511.0</ele><time>2026-04-25T10:26:00.538Z</time></trkpt><trkpt lat="43.1654301" lon="12.9757873"><ele>515.0</ele><time>2026-04-25T10:26:01.524Z</time></trkpt><trkpt lat="43.1652753" lon="12.9756376"><ele>504.66666666666663</ele><time>2026-04-25T10:26:02.524Z</time></trkpt><trkpt lat="43.1651307" lon="12.9754743"><ele>494.33333333333337</ele><time>2026-04-25T10:26:03.528Z</time></trkpt><trkpt lat="43.1650018" lon="12.9752905"><ele>484.0</ele><time>2026-04-25T10:26:04.534Z</time></trkpt><trkpt lat="43.1648823" lon="12.9751087"><ele>485.6666666666667</ele><time>2026-04-25T10:26:05.534Z</time></trkpt><trkpt lat="43.1647695" lon="12.9749357"><ele>487.33333333333337</ele><time>2026-04-25T10:26:06.535Z</time></trkpt><trkpt lat="43.1646485" lon="12.9747777"><ele>489.0</ele><time>2026-04-25T10:26:07.526Z</time></trkpt><trkpt lat="43.164514" lon="12.9746308"><ele>489.0</ele><time>2026-04-25T10:26:08.538Z</time></trkpt><trkpt lat="43.164364" lon="12.9745307"><ele>489.0</ele><time>2026-04-25T10:26:09.538Z</time></trkpt><trkpt lat="43.1642227" lon="12.9744407"><ele>489.0</ele><time>2026-04-25T10:26:10.541Z</time></trkpt><trkpt lat="43.164058" lon="12.9743969"><ele>493.66666666666663</ele><time>2026-04-25T10:26:11.53Z</time></trkpt><trkpt lat="43.1638778" lon="12.9743791"><ele>498.3333333333333</ele><time>2026-04-25T10:26:12.53Z</time></trkpt><trkpt lat="43.1636937" lon="12.9743793"><ele>503.0</ele><time>2026-04-25T10:26:13.531Z</time></trkpt><trkpt lat="43.1635176" lon="12.9743971"><ele>503.0</ele><time>2026-04-25T10:26:14.537Z</time></trkpt><trkpt lat="43.1633154" lon="12.9743984"><ele>503.0</ele><time>2026-04-25T10:26:15.53Z</time></trkpt><trkpt lat="43.1631156" lon="12.9743868"><ele>503.0</ele><time>2026-04-25T10:26:16.534Z</time></trkpt><trkpt lat="43.1629199" lon="12.9743497"><ele>500.3333333333333</ele><time>2026-04-25T10:26:17.535Z</time></trkpt><trkpt lat="43.1627171" lon="12.9742715"><ele>497.66666666666663</ele><time>2026-04-25T10:26:18.533Z</time></trkpt><trkpt lat="43.1625023" lon="12.9741521"><ele>495.0</ele><time>2026-04-25T10:26:19.529Z</time></trkpt><trkpt lat="43.1622913" lon="12.9740323"><ele>481.5</ele><time>2026-04-25T10:26:20.531Z</time></trkpt><trkpt lat="43.1620533" lon="12.9739123"><ele>468.0</ele><time>2026-04-25T10:26:21.535Z</time></trkpt><trkpt lat="43.161832" lon="12.9737842"><ele>468.0</ele><time>2026-04-25T10:26:22.535Z</time></trkpt><trkpt lat="43.1616151" lon="12.9736839"><ele>468.0</ele><time>2026-04-25T10:26:23.535Z</time></trkpt><trkpt lat="43.1614264" lon="12.9735698"><ele>468.0</ele><time>2026-04-25T10:26:24.534Z</time></trkpt><trkpt lat="43.1612496" lon="12.9734642"><ele>469.0</ele><time>2026-04-25T10:26:25.536Z</time></trkpt><trkpt lat="43.1610922" lon="12.9733339"><ele>470.0</ele><time>2026-04-25T10:26:26.532Z</time></trkpt><trkpt lat="43.1609553" lon="12.9732124"><ele>471.0</ele><time>2026-04-25T10:26:27.539Z</time></trkpt><trkpt lat="43.160799" lon="12.9730876"><ele>472.33333333333337</ele><time>2026-04-25T10:26:28.539Z</time></trkpt><trkpt lat="43.1606409" lon="12.9729773"><ele>473.6666666666667</ele><time>2026-04-25T10:26:29.539Z</time></trkpt><trkpt lat="43.160472" lon="12.9728924"><ele>475.0</ele><time>2026-04-25T10:26:30.537Z</time></trkpt><trkpt lat="43.1602914" lon="12.972837"><ele>475.0</ele><time>2026-04-25T10:26:31.546Z</time></trkpt><trkpt lat="43.1601167" lon="12.9728028"><ele>475.0</ele><time>2026-04-25T10:26:32.538Z</time></trkpt><trkpt lat="43.1599507" lon="12.9727498"><ele>475.0</ele><time>2026-04-25T10:26:33.543Z</time></trkpt><trkpt lat="43.1597771" lon="12.972684"><ele>472.6666666666667</ele><time>2026-04-25T10:26:34.542Z</time></trkpt><trkpt lat="43.1596034" lon="12.9726195"><ele>470.33333333333337</ele><time>2026-04-25T10:26:35.541Z</time></trkpt><trkpt lat="43.1594608" lon="12.9725645"><ele>468.0</ele><time>2026-04-25T10:26:36.537Z</time></trkpt><trkpt lat="43.1593243" lon="12.9725127"><ele>468.0</ele><time>2026-04-25T10:26:37.543Z</time></trkpt><trkpt lat="43.1591812" lon="12.9724695"><ele>468.0</ele><time>2026-04-25T10:26:38.535Z</time></trkpt><trkpt lat="43.1590463" lon="12.9724063"><ele>468.0</ele><time>2026-04-25T10:26:39.54Z</time></trkpt><trkpt lat="43.1589015" lon="12.9723196"><ele>468.0</ele><time>2026-04-25T10:26:40.533Z</time></trkpt><trkpt lat="43.1587838" lon="12.9722572"><ele>473.33333333333337</ele><time>2026-04-25T10:26:41.535Z</time></trkpt><trkpt lat="43.1586755" lon="12.9721516"><ele>478.6666666666667</ele><time>2026-04-25T10:26:42.534Z</time></trkpt><trkpt lat="43.1585552" lon="12.9719984"><ele>484.0</ele><time>2026-04-25T10:26:43.526Z</time></trkpt><trkpt lat="43.158386" lon="12.9718913"><ele>484.0</ele><time>2026-04-25T10:26:44.54Z</time></trkpt><trkpt lat="43.1582737" lon="12.9717749"><ele>484.0</ele><time>2026-04-25T10:26:45.539Z</time></trkpt><trkpt lat="43.1581383" lon="12.971628"><ele>484.0</ele><time>2026-04-25T10:26:46.534Z</time></trkpt><trkpt lat="43.1580003" lon="12.9715319"><ele>482.5</ele><time>2026-04-25T10:26:47.522Z</time></trkpt><trkpt lat="43.1578806" lon="12.9714762"><ele>481.0</ele><time>2026-04-25T10:26:48.532Z</time></trkpt><trkpt lat="43.1577772" lon="12.9714139"><ele>479.5</ele><time>2026-04-25T10:26:49.518Z</time></trkpt><trkpt lat="43.1576734" lon="12.9713846"><ele>478.0</ele><time>2026-04-25T10:26:50.525Z</time></trkpt><trkpt lat="43.1575658" lon="12.9713472"><ele>478.0</ele><time>2026-04-25T10:26:51.536Z</time></trkpt><trkpt lat="43.1574432" lon="12.9713107"><ele>478.0</ele><time>2026-04-25T10:26:52.54Z</time></trkpt><trkpt lat="43.1573381" lon="12.9712836"><ele>478.0</ele><time>2026-04-25T10:26:53.538Z</time></trkpt><trkpt lat="43.1572232" lon="12.9712536"><ele>478.0</ele><time>2026-04-25T10:26:54.538Z</time></trkpt><trkpt lat="43.1571114" lon="12.9712243"><ele>477.75</ele><time>2026-04-25T10:26:55.54Z</time></trkpt><trkpt lat="43.1570062" lon="12.9711751"><ele>477.5</ele><time>2026-04-25T10:26:56.539Z</time></trkpt><trkpt lat="43.1569269" lon="12.9711106"><ele>477.25</ele><time>2026-04-25T10:26:57.542Z</time></trkpt><trkpt lat="43.1568046" lon="12.9710181"><ele>477.0</ele><time>2026-04-25T10:26:58.543Z</time></trkpt><trkpt lat="43.1567027" lon="12.9708785"><ele>476.5</ele><time>2026-04-25T10:26:59.544Z</time></trkpt><trkpt lat="43.1566059" lon="12.97075"><ele>476.0</ele><time>2026-04-25T10:27:00.536Z</time></trkpt><trkpt lat="43.1565174" lon="12.9705944"><ele>475.5</ele><time>2026-04-25T10:27:01.545Z</time></trkpt><trkpt lat="43.1564453" lon="12.9704102"><ele>475.0</ele><time>2026-04-25T10:27:02.536Z</time></trkpt><trkpt lat="43.1563875" lon="12.9702491"><ele>480.25</ele><time>2026-04-25T10:27:03.54Z</time></trkpt><trkpt lat="43.1563302" lon="12.9700847"><ele>485.5</ele><time>2026-04-25T10:27:04.542Z</time></trkpt><trkpt lat="43.15628" lon="12.9699076"><ele>490.75</ele><time>2026-04-25T10:27:05.539Z</time></trkpt><trkpt lat="43.1562383" lon="12.9697331"><ele>496.0</ele><time>2026-04-25T10:27:06.539Z</time></trkpt><trkpt lat="43.1562022" lon="12.9695445"><ele>496.75</ele><time>2026-04-25T10:27:07.531Z</time></trkpt><trkpt lat="43.156151" lon="12.9693687"><ele>497.5</ele><time>2026-04-25T10:27:08.536Z</time></trkpt><trkpt lat="43.1560937" lon="12.9692016"><ele>498.25</ele><time>2026-04-25T10:27:09.527Z</time></trkpt><trkpt lat="43.1560545" lon="12.9689967"><ele>499.0</ele><time>2026-04-25T10:27:10.53Z</time></trkpt><trkpt lat="43.1560592" lon="12.968813"><ele>496.25</ele><time>2026-04-25T10:27:11.532Z</time></trkpt><trkpt lat="43.1560448" lon="12.96862"><ele>493.5</ele><time>2026-04-25T10:27:12.53Z</time></trkpt><trkpt lat="43.1560007" lon="12.968432"><ele>490.75</ele><time>2026-04-25T10:27:13.536Z</time></trkpt><trkpt lat="43.1559432" lon="12.9682481"><ele>488.0</ele><time>2026-04-25T10:27:14.526Z</time></trkpt><trkpt lat="43.1558673" lon="12.9680905"><ele>486.0</ele><time>2026-04-25T10:27:15.547Z</time></trkpt><trkpt lat="43.1557796" lon="12.9679471"><ele>484.0</ele><time>2026-04-25T10:27:16.531Z</time></trkpt><trkpt lat="43.1556586" lon="12.9678241"><ele>482.0</ele><time>2026-04-25T10:27:17.535Z</time></trkpt><trkpt lat="43.1555218" lon="12.9677208"><ele>480.0</ele><time>2026-04-25T10:27:18.535Z</time></trkpt><trkpt lat="43.1554016" lon="12.9676172"><ele>480.5</ele><time>2026-04-25T10:27:19.542Z</time></trkpt><trkpt lat="43.1552802" lon="12.9675048"><ele>481.0</ele><time>2026-04-25T10:27:20.538Z</time></trkpt><trkpt lat="43.1551727" lon="12.9673705"><ele>481.5</ele><time>2026-04-25T10:27:21.544Z</time></trkpt><trkpt lat="43.1550505" lon="12.9672503"><ele>482.0</ele><time>2026-04-25T10:27:22.546Z</time></trkpt><trkpt lat="43.1549331" lon="12.9671499"><ele>491.0</ele><time>2026-04-25T10:27:23.548Z</time></trkpt><trkpt lat="43.1548192" lon="12.9670193"><ele>500.0</ele><time>2026-04-25T10:27:24.54Z</time></trkpt><trkpt lat="43.1547049" lon="12.9668853"><ele>509.0</ele><time>2026-04-25T10:27:25.553Z</time></trkpt><trkpt lat="43.1545847" lon="12.9667502"><ele>504.0</ele><time>2026-04-25T10:27:26.547Z</time></trkpt><trkpt lat="43.1544768" lon="12.9665982"><ele>499.0</ele><time>2026-04-25T10:27:27.547Z</time></trkpt><trkpt lat="43.1543929" lon="12.9664454"><ele>494.0</ele><time>2026-04-25T10:27:28.54Z</time></trkpt><trkpt lat="43.1543217" lon="12.9662962"><ele>489.0</ele><time>2026-04-25T10:27:29.545Z</time></trkpt><trkpt lat="43.1542295" lon="12.9661584"><ele>489.0</ele><time>2026-04-25T10:27:30.546Z</time></trkpt><trkpt lat="43.1541384" lon="12.9659984"><ele>489.0</ele><time>2026-04-25T10:27:31.544Z</time></trkpt><trkpt lat="43.1541036" lon="12.965845"><ele>489.0</ele><time>2026-04-25T10:27:32.546Z</time></trkpt><trkpt lat="43.1540207" lon="12.965696"><ele>489.0</ele><time>2026-04-25T10:27:33.543Z</time></trkpt><trkpt lat="43.1539449" lon="12.965548"><ele>487.75</ele><time>2026-04-25T10:27:34.541Z</time></trkpt><trkpt lat="43.1538573" lon="12.9653933"><ele>486.5</ele><time>2026-04-25T10:27:35.538Z</time></trkpt><trkpt lat="43.1537654" lon="12.9652426"><ele>485.25</ele><time>2026-04-25T10:27:36.545Z</time></trkpt><trkpt lat="43.1536421" lon="12.9651077"><ele>484.0</ele><time>2026-04-25T10:27:37.539Z</time></trkpt><trkpt lat="43.1535614" lon="12.9649613"><ele>484.0</ele><time>2026-04-25T10:27:38.543Z</time></trkpt><trkpt lat="43.1534554" lon="12.9648133"><ele>484.0</ele><time>2026-04-25T10:27:39.548Z</time></trkpt><trkpt lat="43.1533569" lon="12.9646752"><ele>484.0</ele><time>2026-04-25T10:27:40.548Z</time></trkpt><trkpt lat="43.1532776" lon="12.9645372"><ele>484.0</ele><time>2026-04-25T10:27:41.545Z</time></trkpt><trkpt lat="43.153207" lon="12.9643792"><ele>486.79999999999995</ele><time>2026-04-25T10:27:42.55Z</time></trkpt><trkpt lat="43.15315" lon="12.9642299"><ele>489.59999999999997</ele><time>2026-04-25T10:27:43.552Z</time></trkpt><trkpt lat="43.1531205" lon="12.9640941"><ele>492.4</ele><time>2026-04-25T10:27:44.55Z</time></trkpt><trkpt lat="43.1531025" lon="12.9639657"><ele>495.2</ele><time>2026-04-25T10:27:45.545Z</time></trkpt><trkpt lat="43.1530292" lon="12.9638426"><ele>498.0</ele><time>2026-04-25T10:27:46.555Z</time></trkpt><trkpt lat="43.1529373" lon="12.9637239"><ele>498.0</ele><time>2026-04-25T10:27:47.55Z</time></trkpt><trkpt lat="43.1528505" lon="12.9635994"><ele>498.0</ele><time>2026-04-25T10:27:48.547Z</time></trkpt><trkpt lat="43.1527544" lon="12.9634858"><ele>498.0</ele><time>2026-04-25T10:27:49.554Z</time></trkpt><trkpt lat="43.1526427" lon="12.9633569"><ele>498.0</ele><time>2026-04-25T10:27:50.552Z</time></trkpt><trkpt lat="43.1525454" lon="12.9632295"><ele>500.33333333333337</ele><time>2026-04-25T10:27:51.552Z</time></trkpt><trkpt lat="43.1524418" lon="12.9630935"><ele>502.6666666666667</ele><time>2026-04-25T10:27:52.549Z</time></trkpt><trkpt lat="43.1523286" lon="12.9629338"><ele>505.0</ele><time>2026-04-25T10:27:53.55Z</time></trkpt><trkpt lat="43.1522474" lon="12.9627609"><ele>505.0</ele><time>2026-04-25T10:27:54.55Z</time></trkpt><trkpt lat="43.1521697" lon="12.9625976"><ele>505.0</ele><time>2026-04-25T10:27:55.554Z</time></trkpt><trkpt lat="43.1521136" lon="12.9624498"><ele>505.0</ele><time>2026-04-25T10:27:56.549Z</time></trkpt><trkpt lat="43.1521076" lon="12.9622932"><ele>505.0</ele><time>2026-04-25T10:27:57.546Z</time></trkpt><trkpt lat="43.1520868" lon="12.9621792"><ele>502.8</ele><time>2026-04-25T10:27:59.532Z</time></trkpt><trkpt lat="43.152037" lon="12.9620939"><ele>500.6</ele><time>2026-04-25T10:28:00.527Z</time></trkpt><trkpt lat="43.1519951" lon="12.9619752"><ele>498.4</ele><time>2026-04-25T10:28:01.543Z</time></trkpt><trkpt lat="43.1518904" lon="12.9619083"><ele>496.2</ele><time>2026-04-25T10:28:02.525Z</time></trkpt><trkpt lat="43.1518159" lon="12.9617858"><ele>494.0</ele><time>2026-04-25T10:28:03.523Z</time></trkpt><trkpt lat="43.1517436" lon="12.9616196"><ele>491.5</ele><time>2026-04-25T10:28:04.534Z</time></trkpt><trkpt lat="43.1516736" lon="12.9614276"><ele>489.0</ele><time>2026-04-25T10:28:05.529Z</time></trkpt><trkpt lat="43.1516207" lon="12.9612268"><ele>486.5</ele><time>2026-04-25T10:28:06.534Z</time></trkpt><trkpt lat="43.1515692" lon="12.9610666"><ele>484.0</ele><time>2026-04-25T10:28:07.527Z</time></trkpt><trkpt lat="43.1515631" lon="12.9608933"><ele>482.33333333333337</ele><time>2026-04-25T10:28:08.525Z</time></trkpt><trkpt lat="43.1515404" lon="12.9607635"><ele>480.66666666666663</ele><time>2026-04-25T10:28:09.52Z</time></trkpt><trkpt lat="43.1515546" lon="12.960514"><ele>479.0</ele><time>2026-04-25T10:28:10.538Z</time></trkpt><trkpt lat="43.1515057" lon="12.9602773"><ele>483.66666666666663</ele><time>2026-04-25T10:28:11.527Z</time></trkpt><trkpt lat="43.15143" lon="12.9600786"><ele>488.33333333333337</ele><time>2026-04-25T10:28:12.528Z</time></trkpt><trkpt lat="43.1513376" lon="12.9598745"><ele>493.0</ele><time>2026-04-25T10:28:13.524Z</time></trkpt><trkpt lat="43.1511972" lon="12.9595518"><ele>492.6666666666667</ele><time>2026-04-25T10:28:14.536Z</time></trkpt><trkpt lat="43.1510832" lon="12.9593085"><ele>492.33333333333337</ele><time>2026-04-25T10:28:15.53Z</time></trkpt><trkpt lat="43.1510016" lon="12.9591145"><ele>492.0</ele><time>2026-04-25T10:28:16.532Z</time></trkpt><trkpt lat="43.1509358" lon="12.9589661"><ele>492.0</ele><time>2026-04-25T10:28:17.531Z</time></trkpt><trkpt lat="43.150881" lon="12.9587976"><ele>492.0</ele><time>2026-04-25T10:28:18.536Z</time></trkpt><trkpt lat="43.1508304" lon="12.9586242"><ele>492.0</ele><time>2026-04-25T10:28:19.526Z</time></trkpt><trkpt lat="43.1507829" lon="12.9584621"><ele>492.0</ele><time>2026-04-25T10:28:20.529Z</time></trkpt><trkpt lat="43.1507444" lon="12.9582801"><ele>490.75</ele><time>2026-04-25T10:28:21.524Z</time></trkpt><trkpt lat="43.1507151" lon="12.9580839"><ele>489.5</ele><time>2026-04-25T10:28:22.527Z</time></trkpt><trkpt lat="43.1507372" lon="12.9579079"><ele>488.25</ele><time>2026-04-25T10:28:23.529Z</time></trkpt><trkpt lat="43.1507614" lon="12.9577722"><ele>487.0</ele><time>2026-04-25T10:28:24.534Z</time></trkpt><trkpt lat="43.1507877" lon="12.9576312"><ele>486.25</ele><time>2026-04-25T10:28:25.533Z</time></trkpt><trkpt lat="43.1507989" lon="12.9574965"><ele>485.5</ele><time>2026-04-25T10:28:26.531Z</time></trkpt><trkpt lat="43.1508234" lon="12.9573598"><ele>484.75</ele><time>2026-04-25T10:28:27.528Z</time></trkpt><trkpt lat="43.1508326" lon="12.9571392"><ele>484.0</ele><time>2026-04-25T10:28:28.517Z</time></trkpt><trkpt lat="43.1508071" lon="12.9570058"><ele>484.0</ele><time>2026-04-25T10:28:29.53Z</time></trkpt><trkpt lat="43.150765" lon="12.9569055"><ele>484.0</ele><time>2026-04-25T10:28:30.531Z</time></trkpt><trkpt lat="43.1506918" lon="12.9567644"><ele>484.0</ele><time>2026-04-25T10:28:31.519Z</time></trkpt><trkpt lat="43.1505904" lon="12.9566197"><ele>484.0</ele><time>2026-04-25T10:28:32.52Z</time></trkpt><trkpt lat="43.1504982" lon="12.9564927"><ele>491.5</ele><time>2026-04-25T10:28:33.519Z</time></trkpt><trkpt lat="43.1503983" lon="12.9563775"><ele>499.0</ele><time>2026-04-25T10:28:34.519Z</time></trkpt><trkpt lat="43.1502827" lon="12.9562572"><ele>506.5</ele><time>2026-04-25T10:28:35.522Z</time></trkpt><trkpt lat="43.1501792" lon="12.9561224"><ele>514.0</ele><time>2026-04-25T10:28:36.523Z</time></trkpt><trkpt lat="43.1500448" lon="12.9559365"><ele>510.25</ele><time>2026-04-25T10:28:37.52Z</time></trkpt><trkpt lat="43.1499705" lon="12.9557999"><ele>506.5</ele><time>2026-04-25T10:28:38.525Z</time></trkpt><trkpt lat="43.149933" lon="12.9556274"><ele>502.75</ele><time>2026-04-25T10:28:39.528Z</time></trkpt><trkpt lat="43.1499331" lon="12.9554846"><ele>499.0</ele><time>2026-04-25T10:28:40.522Z</time></trkpt><trkpt lat="43.1499681" lon="12.9553208"><ele>499.0</ele><time>2026-04-25T10:28:41.522Z</time></trkpt><trkpt lat="43.1499955" lon="12.9551439"><ele>499.0</ele><time>2026-04-25T10:28:42.525Z</time></trkpt><trkpt lat="43.1500332" lon="12.9549655"><ele>499.0</ele><time>2026-04-25T10:28:43.519Z</time></trkpt><trkpt lat="43.1500395" lon="12.9547683"><ele>499.0</ele><time>2026-04-25T10:28:44.527Z</time></trkpt><trkpt lat="43.1500444" lon="12.9545614"><ele>498.25</ele><time>2026-04-25T10:28:45.52Z</time></trkpt><trkpt lat="43.1500595" lon="12.9543763"><ele>497.5</ele><time>2026-04-25T10:28:46.524Z</time></trkpt><trkpt lat="43.15005" lon="12.9541681"><ele>496.75</ele><time>2026-04-25T10:28:47.517Z</time></trkpt><trkpt lat="43.1500126" lon="12.9539614"><ele>496.0</ele><time>2026-04-25T10:28:48.53Z</time></trkpt><trkpt lat="43.1499738" lon="12.9537773"><ele>495.75</ele><time>2026-04-25T10:28:49.526Z</time></trkpt><trkpt lat="43.1499505" lon="12.9536015"><ele>495.5</ele><time>2026-04-25T10:28:50.526Z</time></trkpt><trkpt lat="43.1499041" lon="12.9534451"><ele>495.25</ele><time>2026-04-25T10:28:51.527Z</time></trkpt><trkpt lat="43.1498663" lon="12.9532788"><ele>495.0</ele><time>2026-04-25T10:28:52.526Z</time></trkpt><trkpt lat="43.149838" lon="12.9531277"><ele>497.8</ele><time>2026-04-25T10:28:53.528Z</time></trkpt><trkpt lat="43.1498" lon="12.9529712"><ele>500.6</ele><time>2026-04-25T10:28:54.528Z</time></trkpt><trkpt lat="43.1497385" lon="12.9528278"><ele>503.4</ele><time>2026-04-25T10:28:55.53Z</time></trkpt><trkpt lat="43.1496852" lon="12.9526976"><ele>506.2</ele><time>2026-04-25T10:28:56.533Z</time></trkpt><trkpt lat="43.1496381" lon="12.9525792"><ele>509.0</ele><time>2026-04-25T10:28:57.531Z</time></trkpt><trkpt lat="43.1496002" lon="12.9524799"><ele>509.0</ele><time>2026-04-25T10:28:58.521Z</time></trkpt><trkpt lat="43.1495452" lon="12.9523817"><ele>509.0</ele><time>2026-04-25T10:28:59.521Z</time></trkpt><trkpt lat="43.1494702" lon="12.9523091"><ele>509.0</ele><time>2026-04-25T10:29:00.53Z</time></trkpt><trkpt lat="43.1493803" lon="12.9522392"><ele>509.0</ele><time>2026-04-25T10:29:01.519Z</time></trkpt><trkpt lat="43.1492733" lon="12.9521581"><ele>509.0</ele><time>2026-04-25T10:29:02.529Z</time></trkpt><trkpt lat="43.1491495" lon="12.9520842"><ele>509.0</ele><time>2026-04-25T10:29:03.529Z</time></trkpt><trkpt lat="43.1490463" lon="12.9520135"><ele>509.0</ele><time>2026-04-25T10:29:04.53Z</time></trkpt><trkpt lat="43.1489584" lon="12.9519452"><ele>509.0</ele><time>2026-04-25T10:29:05.529Z</time></trkpt><trkpt lat="43.1488831" lon="12.9518368"><ele>509.0</ele><time>2026-04-25T10:29:06.531Z</time></trkpt><trkpt lat="43.1488313" lon="12.9516902"><ele>509.0</ele><time>2026-04-25T10:29:07.538Z</time></trkpt><trkpt lat="43.1487694" lon="12.9515461"><ele>511.0</ele><time>2026-04-25T10:29:08.536Z</time></trkpt><trkpt lat="43.1487061" lon="12.9514101"><ele>513.0</ele><time>2026-04-25T10:29:09.543Z</time></trkpt><trkpt lat="43.1486474" lon="12.9512747"><ele>515.0</ele><time>2026-04-25T10:29:10.542Z</time></trkpt><trkpt lat="43.1485804" lon="12.9511497"><ele>517.0</ele><time>2026-04-25T10:29:11.541Z</time></trkpt><trkpt lat="43.1485148" lon="12.9510175"><ele>517.0</ele><time>2026-04-25T10:29:12.533Z</time></trkpt><trkpt lat="43.1484518" lon="12.9508885"><ele>517.0</ele><time>2026-04-25T10:29:13.538Z</time></trkpt><trkpt lat="43.1483705" lon="12.9507916"><ele>504.0</ele><time>2026-04-25T10:29:14.537Z</time></trkpt></trkseg><trkseg><trkpt lat="43.1466664" lon="12.9495034"><ele>518.0</ele><time>2026-04-25T11:13:09.954Z</time></trkpt><trkpt lat="43.1467501" lon="12.949484"><ele>518.0</ele><time>2026-04-25T11:13:12.836Z</time></trkpt><trkpt lat="43.1464016" lon="12.9496444"><ele>518.0</ele><time>2026-04-25T11:13:15.837Z</time></trkpt><trkpt lat="43.1466203" lon="12.9494613"><ele>518.0</ele><time>2026-04-25T11:13:17.838Z</time></trkpt><trkpt lat="43.1467013" lon="12.9494163"><ele>518.0</ele><time>2026-04-25T11:13:19.837Z</time></trkpt><trkpt lat="43.1465987" lon="12.9494136"><ele>518.0</ele><time>2026-04-25T11:13:20.839Z</time></trkpt><trkpt lat="43.1466928" lon="12.9493933"><ele>518.0</ele><time>2026-04-25T11:13:22.833Z</time></trkpt><trkpt lat="43.146758" lon="12.9493571"><ele>518.0</ele><time>2026-04-25T11:13:24.847Z</time></trkpt><trkpt lat="43.1466922" lon="12.9493368"><ele>518.0</ele><time>2026-04-25T11:14:00.501Z</time></trkpt><trkpt lat="43.1466221" lon="12.9493305"><ele>518.0</ele><time>2026-04-25T11:14:04.504Z</time></trkpt><trkpt lat="43.1465552" lon="12.9493706"><ele>518.0</ele><time>2026-04-25T11:14:39.524Z</time></trkpt><trkpt lat="43.1464848" lon="12.9493698"><ele>518.0</ele><time>2026-04-25T11:14:55.529Z</time></trkpt><trkpt lat="43.1465678" lon="12.9494524"><ele>518.0</ele><time>2026-04-25T11:15:17.554Z</time></trkpt><trkpt lat="43.1466728" lon="12.9495175"><ele>518.0</ele><time>2026-04-25T11:15:19.554Z</time></trkpt><trkpt lat="43.1467572" lon="12.9495473"><ele>518.0</ele><time>2026-04-25T11:15:21.552Z</time></trkpt><trkpt lat="43.1468619" lon="12.9495921"><ele>518.0</ele><time>2026-04-25T11:15:23.55Z</time></trkpt><trkpt lat="43.1469329" lon="12.9496259"><ele>518.0</ele><time>2026-04-25T11:15:25.547Z</time></trkpt><trkpt lat="43.1470068" lon="12.94965"><ele>518.0</ele><time>2026-04-25T11:15:27.548Z</time></trkpt><trkpt lat="43.147062" lon="12.9495796"><ele>518.0</ele><time>2026-04-25T11:15:30.53Z</time></trkpt><trkpt lat="43.1471129" lon="12.9494765"><ele>518.0</ele><time>2026-04-25T11:15:32.531Z</time></trkpt><trkpt lat="43.1471424" lon="12.9493942"><ele>518.0</ele><time>2026-04-25T11:15:33.525Z</time></trkpt><trkpt lat="43.1471646" lon="12.9493037"><ele>518.0</ele><time>2026-04-25T11:15:34.526Z</time></trkpt><trkpt lat="43.1471916" lon="12.949214"><ele>518.0</ele><time>2026-04-25T11:15:35.523Z</time></trkpt><trkpt lat="43.1472293" lon="12.949124"><ele>518.0</ele><time>2026-04-25T11:15:36.525Z</time></trkpt><trkpt lat="43.1472798" lon="12.9490333"><ele>517.0</ele><time>2026-04-25T11:15:37.524Z</time></trkpt><trkpt lat="43.1473402" lon="12.9489578"><ele>516.0</ele><time>2026-04-25T11:15:38.523Z</time></trkpt><trkpt lat="43.1474026" lon="12.9488886"><ele>515.0</ele><time>2026-04-25T11:15:39.527Z</time></trkpt><trkpt lat="43.1474759" lon="12.9488173"><ele>514.0</ele><time>2026-04-25T11:15:40.523Z</time></trkpt><trkpt lat="43.1475527" lon="12.9487597"><ele>513.0</ele><time>2026-04-25T11:15:41.522Z</time></trkpt><trkpt lat="43.1476306" lon="12.9487147"><ele>512.0</ele><time>2026-04-25T11:15:42.527Z</time></trkpt><trkpt lat="43.1477142" lon="12.9486659"><ele>512.0</ele><time>2026-04-25T11:15:43.518Z</time></trkpt><trkpt lat="43.1478042" lon="12.9486229"><ele>512.0</ele><time>2026-04-25T11:15:44.525Z</time></trkpt><trkpt lat="43.1478921" lon="12.9485704"><ele>512.0</ele><time>2026-04-25T11:15:45.519Z</time></trkpt><trkpt lat="43.1479747" lon="12.9485006"><ele>512.0</ele><time>2026-04-25T11:15:46.528Z</time></trkpt><trkpt lat="43.1480461" lon="12.9484281"><ele>512.0</ele><time>2026-04-25T11:15:47.527Z</time></trkpt><trkpt lat="43.1481073" lon="12.9483438"><ele>512.2</ele><time>2026-04-25T11:15:48.526Z</time></trkpt><trkpt lat="43.1481832" lon="12.9482437"><ele>512.4000000000001</ele><time>2026-04-25T11:15:49.545Z</time></trkpt><trkpt lat="43.148265" lon="12.9481379"><ele>512.5999999999999</ele><time>2026-04-25T11:15:50.553Z</time></trkpt><trkpt lat="43.1483337" lon="12.9480375"><ele>512.8</ele><time>2026-04-25T11:15:51.556Z</time></trkpt><trkpt lat="43.1484075" lon="12.9479399"><ele>513.0</ele><time>2026-04-25T11:15:52.552Z</time></trkpt><trkpt lat="43.1484804" lon="12.9478348"><ele>515.0</ele><time>2026-04-25T11:15:53.554Z</time></trkpt><trkpt lat="43.1485556" lon="12.9477383"><ele>517.0</ele><time>2026-04-25T11:15:54.542Z</time></trkpt><trkpt lat="43.1486334" lon="12.9476308"><ele>519.0</ele><time>2026-04-25T11:15:55.544Z</time></trkpt><trkpt lat="43.1487084" lon="12.9475177"><ele>521.0</ele><time>2026-04-25T11:15:56.535Z</time></trkpt><trkpt lat="43.148781" lon="12.9474075"><ele>523.0</ele><time>2026-04-25T11:15:57.545Z</time></trkpt><trkpt lat="43.1488626" lon="12.9472894"><ele>523.4</ele><time>2026-04-25T11:15:58.534Z</time></trkpt><trkpt lat="43.1489285" lon="12.9471706"><ele>523.8</ele><time>2026-04-25T11:15:59.518Z</time></trkpt><trkpt lat="43.1489961" lon="12.9470454"><ele>524.2</ele><time>2026-04-25T11:16:00.513Z</time></trkpt><trkpt lat="43.1490358" lon="12.9469235"><ele>524.6</ele><time>2026-04-25T11:16:01.524Z</time></trkpt><trkpt lat="43.1491014" lon="12.9467984"><ele>525.0</ele><time>2026-04-25T11:16:02.52Z</time></trkpt><trkpt lat="43.1491725" lon="12.9466743"><ele>529.0</ele><time>2026-04-25T11:16:03.525Z</time></trkpt><trkpt lat="43.14925" lon="12.9465397"><ele>533.0</ele><time>2026-04-25T11:16:04.52Z</time></trkpt><trkpt lat="43.1493317" lon="12.9464055"><ele>537.0</ele><time>2026-04-25T11:16:05.514Z</time></trkpt><trkpt lat="43.1494241" lon="12.9462705"><ele>541.0</ele><time>2026-04-25T11:16:06.515Z</time></trkpt><trkpt lat="43.1495111" lon="12.9461562"><ele>541.0</ele><time>2026-04-25T11:16:07.511Z</time></trkpt><trkpt lat="43.1496272" lon="12.9460488"><ele>541.0</ele><time>2026-04-25T11:16:08.512Z</time></trkpt><trkpt lat="43.1497418" lon="12.9459406"><ele>541.0</ele><time>2026-04-25T11:16:09.536Z</time></trkpt><trkpt lat="43.1498862" lon="12.9458433"><ele>541.0</ele><time>2026-04-25T11:16:10.51Z</time></trkpt><trkpt lat="43.1500215" lon="12.9457547"><ele>543.5</ele><time>2026-04-25T11:16:11.515Z</time></trkpt><trkpt lat="43.1501718" lon="12.9457245"><ele>546.0</ele><time>2026-04-25T11:16:12.517Z</time></trkpt><trkpt lat="43.1503092" lon="12.9456758"><ele>548.5</ele><time>2026-04-25T11:16:13.516Z</time></trkpt><trkpt lat="43.1504536" lon="12.9456416"><ele>551.0</ele><time>2026-04-25T11:16:14.515Z</time></trkpt><trkpt lat="43.1505946" lon="12.945576"><ele>554.5</ele><time>2026-04-25T11:16:15.513Z</time></trkpt><trkpt lat="43.1507235" lon="12.9455152"><ele>558.0</ele><time>2026-04-25T11:16:16.517Z</time></trkpt><trkpt lat="43.1508315" lon="12.9454249"><ele>561.5</ele><time>2026-04-25T11:16:17.553Z</time></trkpt><trkpt lat="43.1509263" lon="12.9452747"><ele>565.0</ele><time>2026-04-25T11:16:18.539Z</time></trkpt><trkpt lat="43.1509869" lon="12.9451578"><ele>564.8</ele><time>2026-04-25T11:16:19.531Z</time></trkpt><trkpt lat="43.1510428" lon="12.9450358"><ele>564.6</ele><time>2026-04-25T11:16:20.539Z</time></trkpt><trkpt lat="43.1510706" lon="12.9448839"><ele>564.4</ele><time>2026-04-25T11:16:21.516Z</time></trkpt><trkpt lat="43.1511437" lon="12.9447477"><ele>564.2</ele><time>2026-04-25T11:16:22.515Z</time></trkpt><trkpt lat="43.1511889" lon="12.9446379"><ele>564.0</ele><time>2026-04-25T11:16:23.512Z</time></trkpt><trkpt lat="43.1512125" lon="12.9445129"><ele>564.0</ele><time>2026-04-25T11:16:24.51Z</time></trkpt><trkpt lat="43.1512554" lon="12.9444054"><ele>564.0</ele><time>2026-04-25T11:16:25.512Z</time></trkpt><trkpt lat="43.151328" lon="12.9442889"><ele>564.0</ele><time>2026-04-25T11:16:26.51Z</time></trkpt><trkpt lat="43.1514019" lon="12.9441518"><ele>564.0</ele><time>2026-04-25T11:16:27.519Z</time></trkpt><trkpt lat="43.1514824" lon="12.9440439"><ele>564.0</ele><time>2026-04-25T11:16:28.561Z</time></trkpt><trkpt lat="43.1515667" lon="12.9439429"><ele>569.25</ele><time>2026-04-25T11:16:29.542Z</time></trkpt><trkpt lat="43.1516531" lon="12.9438275"><ele>574.5</ele><time>2026-04-25T11:16:30.538Z</time></trkpt><trkpt lat="43.1517222" lon="12.9437167"><ele>579.75</ele><time>2026-04-25T11:16:31.563Z</time></trkpt><trkpt lat="43.1517989" lon="12.9436066"><ele>585.0</ele><time>2026-04-25T11:16:32.54Z</time></trkpt><trkpt lat="43.1518897" lon="12.9435007"><ele>585.0</ele><time>2026-04-25T11:16:33.545Z</time></trkpt><trkpt lat="43.15199" lon="12.9434047"><ele>585.0</ele><time>2026-04-25T11:16:34.544Z</time></trkpt><trkpt lat="43.1521041" lon="12.9433212"><ele>585.0</ele><time>2026-04-25T11:16:35.539Z</time></trkpt><trkpt lat="43.1522244" lon="12.9432319"><ele>585.0</ele><time>2026-04-25T11:16:36.514Z</time></trkpt><trkpt lat="43.1523525" lon="12.9431389"><ele>589.75</ele><time>2026-04-25T11:16:37.513Z</time></trkpt><trkpt lat="43.1524838" lon="12.9430546"><ele>594.5</ele><time>2026-04-25T11:16:38.51Z</time></trkpt><trkpt lat="43.1525996" lon="12.942986"><ele>599.25</ele><time>2026-04-25T11:16:39.519Z</time></trkpt><trkpt lat="43.1526986" lon="12.9428645"><ele>604.0</ele><time>2026-04-25T11:16:40.529Z</time></trkpt><trkpt lat="43.1527736" lon="12.9427573"><ele>604.0</ele><time>2026-04-25T11:16:41.51Z</time></trkpt><trkpt lat="43.1528237" lon="12.9426662"><ele>604.0</ele><time>2026-04-25T11:16:42.516Z</time></trkpt><trkpt lat="43.152902" lon="12.9425415"><ele>604.0</ele><time>2026-04-25T11:16:44.533Z</time></trkpt><trkpt lat="43.1528624" lon="12.9424242"><ele>604.0</ele><time>2026-04-25T11:16:46.534Z</time></trkpt><trkpt lat="43.1527489" lon="12.9424179"><ele>604.0</ele><time>2026-04-25T11:16:48.536Z</time></trkpt><trkpt lat="43.1526507" lon="12.9424396"><ele>603.6</ele><time>2026-04-25T11:16:49.528Z</time></trkpt><trkpt lat="43.1525428" lon="12.9424554"><ele>603.2</ele><time>2026-04-25T11:16:50.528Z</time></trkpt><trkpt lat="43.15243" lon="12.9424587"><ele>602.8000000000001</ele><time>2026-04-25T11:16:51.55Z</time></trkpt><trkpt lat="43.1523366" lon="12.9424923"><ele>602.4</ele><time>2026-04-25T11:16:52.501Z</time></trkpt><trkpt lat="43.1522493" lon="12.9425417"><ele>602.0</ele><time>2026-04-25T11:16:53.553Z</time></trkpt><trkpt lat="43.1521578" lon="12.9426306"><ele>598.75</ele><time>2026-04-25T11:16:54.547Z</time></trkpt><trkpt lat="43.1520566" lon="12.9427152"><ele>595.5</ele><time>2026-04-25T11:16:55.547Z</time></trkpt><trkpt lat="43.1519469" lon="12.9427848"><ele>592.25</ele><time>2026-04-25T11:16:56.551Z</time></trkpt><trkpt lat="43.1518034" lon="12.942867"><ele>589.0</ele><time>2026-04-25T11:16:57.556Z</time></trkpt><trkpt lat="43.1516603" lon="12.9429213"><ele>590.75</ele><time>2026-04-25T11:16:58.556Z</time></trkpt><trkpt lat="43.1515351" lon="12.9429622"><ele>592.5</ele><time>2026-04-25T11:16:59.556Z</time></trkpt><trkpt lat="43.151406" lon="12.9430141"><ele>594.25</ele><time>2026-04-25T11:17:00.558Z</time></trkpt><trkpt lat="43.1512773" lon="12.9430361"><ele>596.0</ele><time>2026-04-25T11:17:01.561Z</time></trkpt><trkpt lat="43.1511399" lon="12.943048"><ele>596.0</ele><time>2026-04-25T11:17:02.535Z</time></trkpt><trkpt lat="43.1509966" lon="12.9430384"><ele>596.0</ele><time>2026-04-25T11:17:03.535Z</time></trkpt><trkpt lat="43.1508553" lon="12.9430684"><ele>596.0</ele><time>2026-04-25T11:17:04.536Z</time></trkpt><trkpt lat="43.150716" lon="12.9431156"><ele>596.0</ele><time>2026-04-25T11:17:05.54Z</time></trkpt><trkpt lat="43.1506069" lon="12.9431566"><ele>598.0</ele><time>2026-04-25T11:17:06.538Z</time></trkpt><trkpt lat="43.1505017" lon="12.9432041"><ele>600.0</ele><time>2026-04-25T11:17:07.536Z</time></trkpt><trkpt lat="43.1503822" lon="12.9432685"><ele>602.0</ele><time>2026-04-25T11:17:08.559Z</time></trkpt><trkpt lat="43.1502806" lon="12.9433483"><ele>604.0</ele><time>2026-04-25T11:17:09.554Z</time></trkpt><trkpt lat="43.1501866" lon="12.9433937"><ele>609.5</ele><time>2026-04-25T11:17:10.554Z</time></trkpt><trkpt lat="43.1500855" lon="12.9434155"><ele>615.0</ele><time>2026-04-25T11:17:11.562Z</time></trkpt><trkpt lat="43.149976" lon="12.9433812"><ele>620.5</ele><time>2026-04-25T11:17:12.555Z</time></trkpt><trkpt lat="43.1498508" lon="12.9433519"><ele>626.0</ele><time>2026-04-25T11:17:13.56Z</time></trkpt><trkpt lat="43.1497275" lon="12.9433374"><ele>626.0</ele><time>2026-04-25T11:17:14.562Z</time></trkpt><trkpt lat="43.1496107" lon="12.9433279"><ele>626.0</ele><time>2026-04-25T11:17:15.561Z</time></trkpt><trkpt lat="43.1495006" lon="12.9433399"><ele>626.0</ele><time>2026-04-25T11:17:16.539Z</time></trkpt><trkpt lat="43.1493965" lon="12.9433575"><ele>626.0</ele><time>2026-04-25T11:17:17.542Z</time></trkpt><trkpt lat="43.149305" lon="12.9433988"><ele>626.0</ele><time>2026-04-25T11:17:18.537Z</time></trkpt><trkpt lat="43.149221" lon="12.9434629"><ele>620.25</ele><time>2026-04-25T11:17:19.567Z</time></trkpt><trkpt lat="43.1491369" lon="12.9435228"><ele>614.5</ele><time>2026-04-25T11:17:20.554Z</time></trkpt><trkpt lat="43.149036" lon="12.9435694"><ele>608.75</ele><time>2026-04-25T11:17:21.557Z</time></trkpt><trkpt lat="43.1489149" lon="12.9435873"><ele>603.0</ele><time>2026-04-25T11:17:22.534Z</time></trkpt><trkpt lat="43.1487846" lon="12.9436052"><ele>603.0</ele><time>2026-04-25T11:17:23.536Z</time></trkpt><trkpt lat="43.1486556" lon="12.9436305"><ele>603.0</ele><time>2026-04-25T11:17:24.532Z</time></trkpt><trkpt lat="43.1485287" lon="12.9436445"><ele>603.0</ele><time>2026-04-25T11:17:25.532Z</time></trkpt><trkpt lat="43.1484063" lon="12.9436634"><ele>603.0</ele><time>2026-04-25T11:17:26.53Z</time></trkpt><trkpt lat="43.1482889" lon="12.9436842"><ele>598.75</ele><time>2026-04-25T11:17:27.532Z</time></trkpt><trkpt lat="43.1481668" lon="12.9437089"><ele>594.5</ele><time>2026-04-25T11:17:28.53Z</time></trkpt><trkpt lat="43.1480384" lon="12.9437351"><ele>590.25</ele><time>2026-04-25T11:17:29.563Z</time></trkpt><trkpt lat="43.1479254" lon="12.9437456"><ele>586.0</ele><time>2026-04-25T11:17:30.556Z</time></trkpt><trkpt lat="43.1478197" lon="12.9437276"><ele>586.0</ele><time>2026-04-25T11:17:31.561Z</time></trkpt><trkpt lat="43.1477301" lon="12.9436727"><ele>586.0</ele><time>2026-04-25T11:17:32.559Z</time></trkpt><trkpt lat="43.1476275" lon="12.9436461"><ele>586.0</ele><time>2026-04-25T11:17:33.557Z</time></trkpt><trkpt lat="43.1475236" lon="12.9436082"><ele>586.0</ele><time>2026-04-25T11:17:34.587Z</time></trkpt><trkpt lat="43.1474278" lon="12.9435118"><ele>586.0</ele><time>2026-04-25T11:17:35.556Z</time></trkpt><trkpt lat="43.1473343" lon="12.9433806"><ele>590.0</ele><time>2026-04-25T11:17:36.564Z</time></trkpt><trkpt lat="43.1472469" lon="12.9432583"><ele>594.0</ele><time>2026-04-25T11:17:37.569Z</time></trkpt><trkpt lat="43.147144" lon="12.9431614"><ele>598.0</ele><time>2026-04-25T11:17:38.574Z</time></trkpt><trkpt lat="43.147046" lon="12.9430574"><ele>602.0</ele><time>2026-04-25T11:17:39.541Z</time></trkpt><trkpt lat="43.1469579" lon="12.9429116"><ele>602.0</ele><time>2026-04-25T11:17:40.539Z</time></trkpt><trkpt lat="43.1468814" lon="12.9427654"><ele>602.0</ele><time>2026-04-25T11:17:41.543Z</time></trkpt><trkpt lat="43.1467959" lon="12.9426067"><ele>602.0</ele><time>2026-04-25T11:17:42.54Z</time></trkpt><trkpt lat="43.1467351" lon="12.9424004"><ele>602.0</ele><time>2026-04-25T11:17:43.545Z</time></trkpt><trkpt lat="43.1466715" lon="12.9422321"><ele>601.75</ele><time>2026-04-25T11:17:44.544Z</time></trkpt><trkpt lat="43.1466006" lon="12.9420778"><ele>601.5</ele><time>2026-04-25T11:17:45.564Z</time></trkpt><trkpt lat="43.1465158" lon="12.9419328"><ele>601.25</ele><time>2026-04-25T11:17:46.567Z</time></trkpt><trkpt lat="43.1464401" lon="12.941789"><ele>601.0</ele><time>2026-04-25T11:17:47.566Z</time></trkpt><trkpt lat="43.146359" lon="12.9416356"><ele>607.5</ele><time>2026-04-25T11:17:48.547Z</time></trkpt><trkpt lat="43.1462872" lon="12.9414736"><ele>614.0</ele><time>2026-04-25T11:17:49.546Z</time></trkpt><trkpt lat="43.1462256" lon="12.9413201"><ele>620.5</ele><time>2026-04-25T11:17:50.55Z</time></trkpt><trkpt lat="43.1461792" lon="12.9411723"><ele>627.0</ele><time>2026-04-25T11:17:51.549Z</time></trkpt><trkpt lat="43.1461618" lon="12.9410235"><ele>627.0</ele><time>2026-04-25T11:17:52.569Z</time></trkpt><trkpt lat="43.1461495" lon="12.940883"><ele>627.0</ele><time>2026-04-25T11:17:53.568Z</time></trkpt><trkpt lat="43.1461521" lon="12.9407514"><ele>627.0</ele><time>2026-04-25T11:17:54.543Z</time></trkpt><trkpt lat="43.1461797" lon="12.9406308"><ele>627.0</ele><time>2026-04-25T11:17:55.544Z</time></trkpt><trkpt lat="43.1462219" lon="12.9405103"><ele>627.0</ele><time>2026-04-25T11:17:56.558Z</time></trkpt><trkpt lat="43.1462737" lon="12.9403925"><ele>626.4</ele><time>2026-04-25T11:17:57.524Z</time></trkpt><trkpt lat="43.1463108" lon="12.9402718"><ele>625.8000000000001</ele><time>2026-04-25T11:17:58.514Z</time></trkpt><trkpt lat="43.1463451" lon="12.9401498"><ele>625.2</ele><time>2026-04-25T11:17:59.52Z</time></trkpt><trkpt lat="43.1464272" lon="12.9400322"><ele>624.6</ele><time>2026-04-25T11:18:00.518Z</time></trkpt><trkpt lat="43.1464854" lon="12.9398835"><ele>624.0</ele><time>2026-04-25T11:18:01.517Z</time></trkpt><trkpt lat="43.1465304" lon="12.9397061"><ele>635.25</ele><time>2026-04-25T11:18:02.511Z</time></trkpt><trkpt lat="43.1465602" lon="12.9395106"><ele>646.5</ele><time>2026-04-25T11:18:03.509Z</time></trkpt><trkpt lat="43.1465864" lon="12.9393152"><ele>657.75</ele><time>2026-04-25T11:18:04.514Z</time></trkpt><trkpt lat="43.1466123" lon="12.9391169"><ele>669.0</ele><time>2026-04-25T11:18:05.507Z</time></trkpt><trkpt lat="43.1466369" lon="12.938929"><ele>669.0</ele><time>2026-04-25T11:18:06.507Z</time></trkpt><trkpt lat="43.1466768" lon="12.9387589"><ele>669.0</ele><time>2026-04-25T11:18:07.507Z</time></trkpt><trkpt lat="43.1467249" lon="12.9386123"><ele>669.0</ele><time>2026-04-25T11:18:08.509Z</time></trkpt><trkpt lat="43.1467836" lon="12.9384599"><ele>669.0</ele><time>2026-04-25T11:18:09.509Z</time></trkpt><trkpt lat="43.1468643" lon="12.9383175"><ele>670.0</ele><time>2026-04-25T11:18:10.509Z</time></trkpt><trkpt lat="43.1469336" lon="12.9381822"><ele>671.0</ele><time>2026-04-25T11:18:11.509Z</time></trkpt><trkpt lat="43.1469833" lon="12.9380657"><ele>672.0</ele><time>2026-04-25T11:18:12.513Z</time></trkpt><trkpt lat="43.1470261" lon="12.9379808"><ele>673.0</ele><time>2026-04-25T11:18:13.513Z</time></trkpt><trkpt lat="43.1470442" lon="12.9378889"><ele>674.0</ele><time>2026-04-25T11:18:14.533Z</time></trkpt><trkpt lat="43.1470281" lon="12.9377961"><ele>675.0</ele><time>2026-04-25T11:18:15.529Z</time></trkpt><trkpt lat="43.1469895" lon="12.937714"><ele>675.0</ele><time>2026-04-25T11:18:16.559Z</time></trkpt><trkpt lat="43.1469524" lon="12.9375797"><ele>675.0</ele><time>2026-04-25T11:18:17.547Z</time></trkpt><trkpt lat="43.146908" lon="12.9374618"><ele>675.0</ele><time>2026-04-25T11:18:18.541Z</time></trkpt><trkpt lat="43.1468322" lon="12.9373832"><ele>675.0</ele><time>2026-04-25T11:18:19.555Z</time></trkpt><trkpt lat="43.1467434" lon="12.9373266"><ele>675.0</ele><time>2026-04-25T11:18:20.536Z</time></trkpt><trkpt lat="43.1466437" lon="12.9372967"><ele>678.0</ele><time>2026-04-25T11:18:21.541Z</time></trkpt><trkpt lat="43.1465147" lon="12.9372815"><ele>681.0</ele><time>2026-04-25T11:18:22.558Z</time></trkpt><trkpt lat="43.1463824" lon="12.9372648"><ele>684.0</ele><time>2026-04-25T11:18:23.562Z</time></trkpt><trkpt lat="43.1462467" lon="12.9372483"><ele>687.0</ele><time>2026-04-25T11:18:24.558Z</time></trkpt><trkpt lat="43.1461209" lon="12.9372325"><ele>687.0</ele><time>2026-04-25T11:18:25.565Z</time></trkpt><trkpt lat="43.1459919" lon="12.9372138"><ele>687.0</ele><time>2026-04-25T11:18:26.538Z</time></trkpt><trkpt lat="43.1458627" lon="12.9372199"><ele>687.0</ele><time>2026-04-25T11:18:27.565Z</time></trkpt><trkpt lat="43.1457622" lon="12.9372187"><ele>687.0</ele><time>2026-04-25T11:18:28.555Z</time></trkpt><trkpt lat="43.1456731" lon="12.9372431"><ele>683.8</ele><time>2026-04-25T11:18:29.541Z</time></trkpt><trkpt lat="43.1455868" lon="12.9373167"><ele>680.6</ele><time>2026-04-25T11:18:30.531Z</time></trkpt><trkpt lat="43.1455062" lon="12.9373919"><ele>677.4</ele><time>2026-04-25T11:18:31.55Z</time></trkpt><trkpt lat="43.1454164" lon="12.9374817"><ele>674.1999999999999</ele><time>2026-04-25T11:18:32.552Z</time></trkpt><trkpt lat="43.1453168" lon="12.937547"><ele>671.0</ele><time>2026-04-25T11:18:33.556Z</time></trkpt><trkpt lat="43.1452247" lon="12.9375969"><ele>671.0</ele><time>2026-04-25T11:18:34.55Z</time></trkpt><trkpt lat="43.1451228" lon="12.9376693"><ele>671.0</ele><time>2026-04-25T11:18:35.552Z</time></trkpt><trkpt lat="43.145045" lon="12.9377243"><ele>671.0</ele><time>2026-04-25T11:18:36.548Z</time></trkpt><trkpt lat="43.1449145" lon="12.9378029"><ele>671.0</ele><time>2026-04-25T11:18:38.548Z</time></trkpt><trkpt lat="43.1448138" lon="12.9378264"><ele>671.0</ele><time>2026-04-25T11:18:39.554Z</time></trkpt><trkpt lat="43.1447138" lon="12.9378441"><ele>673.0</ele><time>2026-04-25T11:18:40.552Z</time></trkpt><trkpt lat="43.144604" lon="12.9378581"><ele>675.0</ele><time>2026-04-25T11:18:41.549Z</time></trkpt><trkpt lat="43.1444748" lon="12.9378413"><ele>677.0</ele><time>2026-04-25T11:18:42.554Z</time></trkpt><trkpt lat="43.1443576" lon="12.9378238"><ele>679.0</ele><time>2026-04-25T11:18:43.528Z</time></trkpt><trkpt lat="43.1442482" lon="12.9378333"><ele>679.0</ele><time>2026-04-25T11:18:44.551Z</time></trkpt><trkpt lat="43.1441479" lon="12.9378157"><ele>679.0</ele><time>2026-04-25T11:18:45.552Z</time></trkpt><trkpt lat="43.1440548" lon="12.9377665"><ele>679.0</ele><time>2026-04-25T11:18:46.547Z</time></trkpt><trkpt lat="43.1439597" lon="12.9376911"><ele>679.0</ele><time>2026-04-25T11:18:47.547Z</time></trkpt><trkpt lat="43.1438581" lon="12.9376194"><ele>679.0</ele><time>2026-04-25T11:18:48.551Z</time></trkpt><trkpt lat="43.14375" lon="12.9375329"><ele>682.5</ele><time>2026-04-25T11:18:49.552Z</time></trkpt><trkpt lat="43.1436435" lon="12.9374204"><ele>686.0</ele><time>2026-04-25T11:18:50.548Z</time></trkpt><trkpt lat="43.1435483" lon="12.937265"><ele>689.5</ele><time>2026-04-25T11:18:51.552Z</time></trkpt><trkpt lat="43.1434531" lon="12.9371038"><ele>693.0</ele><time>2026-04-25T11:18:52.551Z</time></trkpt><trkpt lat="43.143374" lon="12.9369576"><ele>693.0</ele><time>2026-04-25T11:18:53.555Z</time></trkpt><trkpt lat="43.1432935" lon="12.9367984"><ele>693.0</ele><time>2026-04-25T11:18:54.547Z</time></trkpt><trkpt lat="43.1432106" lon="12.9366134"><ele>693.0</ele><time>2026-04-25T11:18:55.528Z</time></trkpt><trkpt lat="43.1431436" lon="12.9364582"><ele>693.0</ele><time>2026-04-25T11:18:56.52Z</time></trkpt><trkpt lat="43.1430764" lon="12.9363113"><ele>692.75</ele><time>2026-04-25T11:18:57.533Z</time></trkpt><trkpt lat="43.1429954" lon="12.9361665"><ele>692.5</ele><time>2026-04-25T11:18:58.505Z</time></trkpt><trkpt lat="43.1429012" lon="12.9360278"><ele>692.25</ele><time>2026-04-25T11:18:59.531Z</time></trkpt><trkpt lat="43.1428051" lon="12.9358836"><ele>692.0</ele><time>2026-04-25T11:19:00.528Z</time></trkpt><trkpt lat="43.1426676" lon="12.93583"><ele>692.0</ele><time>2026-04-25T11:19:01.525Z</time></trkpt><trkpt lat="43.1425712" lon="12.935667"><ele>692.0</ele><time>2026-04-25T11:19:02.523Z</time></trkpt><trkpt lat="43.142475" lon="12.9354739"><ele>692.0</ele><time>2026-04-25T11:19:03.526Z</time></trkpt><trkpt lat="43.1423999" lon="12.9353469"><ele>692.0</ele><time>2026-04-25T11:19:04.521Z</time></trkpt><trkpt lat="43.1423076" lon="12.9352213"><ele>692.0</ele><time>2026-04-25T11:19:05.556Z</time></trkpt><trkpt lat="43.1422016" lon="12.9350916"><ele>692.0</ele><time>2026-04-25T11:19:06.556Z</time></trkpt><trkpt lat="43.1421207" lon="12.9349568"><ele>692.0</ele><time>2026-04-25T11:19:07.559Z</time></trkpt><trkpt lat="43.1420327" lon="12.934832"><ele>692.0</ele><time>2026-04-25T11:19:08.552Z</time></trkpt><trkpt lat="43.141958" lon="12.9347354"><ele>697.5</ele><time>2026-04-25T11:19:09.54Z</time></trkpt><trkpt lat="43.1418966" lon="12.9346546"><ele>703.0</ele><time>2026-04-25T11:19:10.557Z</time></trkpt><trkpt lat="43.1418481" lon="12.9345851"><ele>708.5</ele><time>2026-04-25T11:19:11.559Z</time></trkpt><trkpt lat="43.1417977" lon="12.9345291"><ele>714.0</ele><time>2026-04-25T11:19:12.533Z</time></trkpt><trkpt lat="43.1417297" lon="12.934402"><ele>719.5</ele><time>2026-04-25T11:19:14.537Z</time></trkpt><trkpt lat="43.1416513" lon="12.9343078"><ele>725.0</ele><time>2026-04-25T11:19:16.56Z</time></trkpt><trkpt lat="43.1415816" lon="12.934189"><ele>722.4</ele><time>2026-04-25T11:19:18.565Z</time></trkpt><trkpt lat="43.141507" lon="12.9340965"><ele>719.8</ele><time>2026-04-25T11:19:20.568Z</time></trkpt><trkpt lat="43.1414638" lon="12.934017"><ele>717.2</ele><time>2026-04-25T11:19:22.564Z</time></trkpt><trkpt lat="43.1413906" lon="12.9339008"><ele>714.6</ele><time>2026-04-25T11:19:24.562Z</time></trkpt><trkpt lat="43.1413455" lon="12.9338051"><ele>712.0</ele><time>2026-04-25T11:19:25.558Z</time></trkpt><trkpt lat="43.1413119" lon="12.933692"><ele>712.0</ele><time>2026-04-25T11:19:26.555Z</time></trkpt><trkpt lat="43.1413029" lon="12.9335624"><ele>712.0</ele><time>2026-04-25T11:19:27.551Z</time></trkpt><trkpt lat="43.1412987" lon="12.9334262"><ele>712.0</ele><time>2026-04-25T11:19:28.523Z</time></trkpt><trkpt lat="43.1413064" lon="12.933267"><ele>712.0</ele><time>2026-04-25T11:19:29.537Z</time></trkpt><trkpt lat="43.1413071" lon="12.9331056"><ele>712.0</ele><time>2026-04-25T11:19:30.537Z</time></trkpt><trkpt lat="43.1413165" lon="12.932919"><ele>715.6666666666667</ele><time>2026-04-25T11:19:31.555Z</time></trkpt><trkpt lat="43.1413297" lon="12.9327152"><ele>719.3333333333334</ele><time>2026-04-25T11:19:32.557Z</time></trkpt><trkpt lat="43.1413387" lon="12.9325012"><ele>723.0</ele><time>2026-04-25T11:19:33.532Z</time></trkpt><trkpt lat="43.1413545" lon="12.9322968"><ele>723.0</ele><time>2026-04-25T11:19:34.53Z</time></trkpt><trkpt lat="43.1413768" lon="12.9320869"><ele>723.0</ele><time>2026-04-25T11:19:35.524Z</time></trkpt><trkpt lat="43.1414067" lon="12.9318999"><ele>723.0</ele><time>2026-04-25T11:19:36.528Z</time></trkpt><trkpt lat="43.141436" lon="12.9317397"><ele>723.0</ele><time>2026-04-25T11:19:37.529Z</time></trkpt><trkpt lat="43.1414382" lon="12.9315859"><ele>723.0</ele><time>2026-04-25T11:19:38.527Z</time></trkpt><trkpt lat="43.1414381" lon="12.9314513"><ele>723.0</ele><time>2026-04-25T11:19:39.507Z</time></trkpt><trkpt lat="43.1414543" lon="12.9313198"><ele>723.0</ele><time>2026-04-25T11:19:40.507Z</time></trkpt><trkpt lat="43.1415008" lon="12.9311921"><ele>723.0</ele><time>2026-04-25T11:19:41.501Z</time></trkpt><trkpt lat="43.1415668" lon="12.931059"><ele>723.0</ele><time>2026-04-25T11:19:42.508Z</time></trkpt><trkpt lat="43.1416278" lon="12.9309313"><ele>734.0</ele><time>2026-04-25T11:19:43.513Z</time></trkpt><trkpt lat="43.1416839" lon="12.9308003"><ele>745.0</ele><time>2026-04-25T11:19:44.503Z</time></trkpt><trkpt lat="43.1417192" lon="12.9306758"><ele>756.0</ele><time>2026-04-25T11:19:45.532Z</time></trkpt><trkpt lat="43.1417348" lon="12.9305549"><ele>767.0</ele><time>2026-04-25T11:19:46.531Z</time></trkpt><trkpt lat="43.1417326" lon="12.9304584"><ele>778.0</ele><time>2026-04-25T11:19:47.498Z</time></trkpt><trkpt lat="43.1416987" lon="12.9303157"><ele>778.0</ele><time>2026-04-25T11:19:49.537Z</time></trkpt><trkpt lat="43.1416106" lon="12.9302075"><ele>778.0</ele><time>2026-04-25T11:19:51.548Z</time></trkpt><trkpt lat="43.1415461" lon="12.9302111"><ele>778.0</ele><time>2026-04-25T11:19:52.52Z</time></trkpt><trkpt lat="43.1414737" lon="12.9302071"><ele>778.0</ele><time>2026-04-25T11:19:53.542Z</time></trkpt><trkpt lat="43.1413795" lon="12.9301705"><ele>778.0</ele><time>2026-04-25T11:19:54.55Z</time></trkpt><trkpt lat="43.1412709" lon="12.9301411"><ele>769.2</ele><time>2026-04-25T11:19:55.543Z</time></trkpt><trkpt lat="43.1411583" lon="12.9301133"><ele>760.4</ele><time>2026-04-25T11:19:56.539Z</time></trkpt><trkpt lat="43.1410611" lon="12.9300979"><ele>751.6</ele><time>2026-04-25T11:19:57.542Z</time></trkpt><trkpt lat="43.140966" lon="12.9301575"><ele>742.8000000000001</ele><time>2026-04-25T11:19:58.542Z</time></trkpt><trkpt lat="43.1408749" lon="12.9301971"><ele>734.0</ele><time>2026-04-25T11:19:59.531Z</time></trkpt><trkpt lat="43.140773" lon="12.9301431"><ele>733.6</ele><time>2026-04-25T11:20:00.551Z</time></trkpt><trkpt lat="43.1407081" lon="12.9300402"><ele>733.2</ele><time>2026-04-25T11:20:01.554Z</time></trkpt><trkpt lat="43.1406606" lon="12.9298932"><ele>732.8000000000001</ele><time>2026-04-25T11:20:02.55Z</time></trkpt><trkpt lat="43.1406195" lon="12.9297577"><ele>732.4000000000001</ele><time>2026-04-25T11:20:03.549Z</time></trkpt><trkpt lat="43.1405854" lon="12.9296291"><ele>732.0</ele><time>2026-04-25T11:20:04.555Z</time></trkpt><trkpt lat="43.1405771" lon="12.9294968"><ele>732.0</ele><time>2026-04-25T11:20:05.534Z</time></trkpt><trkpt lat="43.1406002" lon="12.9293329"><ele>732.0</ele><time>2026-04-25T11:20:06.529Z</time></trkpt><trkpt lat="43.14062" lon="12.9291788"><ele>732.0</ele><time>2026-04-25T11:20:07.528Z</time></trkpt><trkpt lat="43.1406049" lon="12.9290579"><ele>732.0</ele><time>2026-04-25T11:20:08.55Z</time></trkpt><trkpt lat="43.1405971" lon="12.9289154"><ele>732.0</ele><time>2026-04-25T11:20:09.535Z</time></trkpt><trkpt lat="43.1405836" lon="12.9288034"><ele>737.6</ele><time>2026-04-25T11:20:10.532Z</time></trkpt><trkpt lat="43.1405397" lon="12.9286836"><ele>743.2</ele><time>2026-04-25T11:20:11.535Z</time></trkpt><trkpt lat="43.140453" lon="12.9285831"><ele>748.8</ele><time>2026-04-25T11:20:12.533Z</time></trkpt><trkpt lat="43.140359" lon="12.9285054"><ele>754.4</ele><time>2026-04-25T11:20:13.534Z</time></trkpt><trkpt lat="43.1402681" lon="12.9284229"><ele>760.0</ele><time>2026-04-25T11:20:14.557Z</time></trkpt><trkpt lat="43.1401997" lon="12.9283393"><ele>765.0</ele><time>2026-04-25T11:20:15.561Z</time></trkpt><trkpt lat="43.1401562" lon="12.9282394"><ele>770.0</ele><time>2026-04-25T11:20:16.558Z</time></trkpt><trkpt lat="43.1401409" lon="12.9281426"><ele>775.0</ele><time>2026-04-25T11:20:17.562Z</time></trkpt><trkpt lat="43.1401827" lon="12.9280414"><ele>780.0</ele><time>2026-04-25T11:20:18.532Z</time></trkpt><trkpt lat="43.1402168" lon="12.9279142"><ele>785.0</ele><time>2026-04-25T11:20:19.532Z</time></trkpt><trkpt lat="43.1402602" lon="12.9277761"><ele>785.0000000000001</ele><time>2026-04-25T11:20:20.511Z</time></trkpt><trkpt lat="43.1402921" lon="12.9276466"><ele>785.0</ele><time>2026-04-25T11:20:21.563Z</time></trkpt><trkpt lat="43.1402857" lon="12.9275469"><ele>785.0</ele><time>2026-04-25T11:20:22.563Z</time></trkpt><trkpt lat="43.1402529" lon="12.9274706"><ele>785.0</ele><time>2026-04-25T11:20:23.555Z</time></trkpt><trkpt lat="43.1401806" lon="12.9273915"><ele>785.0000000000001</ele><time>2026-04-25T11:20:24.539Z</time></trkpt><trkpt lat="43.1401088" lon="12.9272731"><ele>785.0</ele><time>2026-04-25T11:20:25.559Z</time></trkpt><trkpt lat="43.1400565" lon="12.9271587"><ele>788.4</ele><time>2026-04-25T11:20:26.555Z</time></trkpt><trkpt lat="43.1400185" lon="12.9270702"><ele>791.8</ele><time>2026-04-25T11:20:27.561Z</time></trkpt><trkpt lat="43.1399887" lon="12.9269702"><ele>795.2</ele><time>2026-04-25T11:20:28.562Z</time></trkpt><trkpt lat="43.1399708" lon="12.92684"><ele>798.6</ele><time>2026-04-25T11:20:29.545Z</time></trkpt><trkpt lat="43.1399667" lon="12.9266846"><ele>802.0</ele><time>2026-04-25T11:20:30.525Z</time></trkpt><trkpt lat="43.1399559" lon="12.9265453"><ele>800.6666666666666</ele><time>2026-04-25T11:20:31.513Z</time></trkpt><trkpt lat="43.1399515" lon="12.9264273"><ele>799.3333333333333</ele><time>2026-04-25T11:20:32.521Z</time></trkpt><trkpt lat="43.139945" lon="12.9262735"><ele>798.0</ele><time>2026-04-25T11:20:34.543Z</time></trkpt><trkpt lat="43.1399445" lon="12.9261739"><ele>796.6666666666667</ele><time>2026-04-25T11:20:36.537Z</time></trkpt><trkpt lat="43.1399258" lon="12.9260848"><ele>795.3333333333334</ele><time>2026-04-25T11:20:38.54Z</time></trkpt><trkpt lat="43.139908" lon="12.9259719"><ele>794.0</ele><time>2026-04-25T11:20:40.538Z</time></trkpt><trkpt lat="43.1398698" lon="12.925855"><ele>794.0</ele><time>2026-04-25T11:20:42.518Z</time></trkpt><trkpt lat="43.1398662" lon="12.9257457"><ele>794.0</ele><time>2026-04-25T11:20:43.535Z</time></trkpt><trkpt lat="43.1398485" lon="12.9256389"><ele>794.0</ele><time>2026-04-25T11:20:44.539Z</time></trkpt><trkpt lat="43.1398267" lon="12.9255188"><ele>794.0</ele><time>2026-04-25T11:20:45.541Z</time></trkpt><trkpt lat="43.1398045" lon="12.9254048"><ele>794.0</ele><time>2026-04-25T11:20:46.563Z</time></trkpt><trkpt lat="43.1397127" lon="12.9252813"><ele>794.0</ele><time>2026-04-25T11:20:47.558Z</time></trkpt><trkpt lat="43.1396974" lon="12.9251122"><ele>794.0</ele><time>2026-04-25T11:20:48.539Z</time></trkpt><trkpt lat="43.1397007" lon="12.9249412"><ele>794.0</ele><time>2026-04-25T11:20:49.53Z</time></trkpt><trkpt lat="43.1396871" lon="12.9248001"><ele>794.0</ele><time>2026-04-25T11:20:50.538Z</time></trkpt><trkpt lat="43.1396763" lon="12.9246542"><ele>796.4000000000001</ele><time>2026-04-25T11:20:51.534Z</time></trkpt><trkpt lat="43.1396487" lon="12.9245082"><ele>798.8</ele><time>2026-04-25T11:20:52.533Z</time></trkpt><trkpt lat="43.1396287" lon="12.9243615"><ele>801.2</ele><time>2026-04-25T11:20:53.537Z</time></trkpt><trkpt lat="43.1396101" lon="12.9242129"><ele>803.5999999999999</ele><time>2026-04-25T11:20:54.539Z</time></trkpt><trkpt lat="43.139591" lon="12.9240571"><ele>806.0</ele><time>2026-04-25T11:20:55.548Z</time></trkpt><trkpt lat="43.13955" lon="12.9239117"><ele>808.8</ele><time>2026-04-25T11:20:56.539Z</time></trkpt><trkpt lat="43.1395129" lon="12.9237646"><ele>811.5999999999999</ele><time>2026-04-25T11:20:57.563Z</time></trkpt><trkpt lat="43.1394748" lon="12.9236183"><ele>814.4</ele><time>2026-04-25T11:20:58.53Z</time></trkpt><trkpt lat="43.1394456" lon="12.9234891"><ele>817.2</ele><time>2026-04-25T11:20:59.538Z</time></trkpt><trkpt lat="43.1394198" lon="12.9233602"><ele>820.0</ele><time>2026-04-25T11:21:00.564Z</time></trkpt><trkpt lat="43.1393866" lon="12.9232279"><ele>823.6</ele><time>2026-04-25T11:21:01.536Z</time></trkpt><trkpt lat="43.1393626" lon="12.9230928"><ele>827.2</ele><time>2026-04-25T11:21:02.541Z</time></trkpt><trkpt lat="43.139352" lon="12.9229497"><ele>830.8</ele><time>2026-04-25T11:21:03.51Z</time></trkpt><trkpt lat="43.1393456" lon="12.9228239"><ele>834.4</ele><time>2026-04-25T11:21:04.515Z</time></trkpt><trkpt lat="43.1393408" lon="12.9227088"><ele>838.0</ele><time>2026-04-25T11:21:05.509Z</time></trkpt><trkpt lat="43.1393228" lon="12.9226203"><ele>842.5999999999999</ele><time>2026-04-25T11:21:06.53Z</time></trkpt><trkpt lat="43.1392503" lon="12.9224875"><ele>847.1999999999999</ele><time>2026-04-25T11:21:08.529Z</time></trkpt><trkpt lat="43.1391669" lon="12.922413"><ele>851.8</ele><time>2026-04-25T11:21:09.531Z</time></trkpt><trkpt lat="43.1391002" lon="12.9223386"><ele>856.4</ele><time>2026-04-25T11:21:10.553Z</time></trkpt><trkpt lat="43.1390223" lon="12.9222533"><ele>861.0</ele><time>2026-04-25T11:21:11.561Z</time></trkpt><trkpt lat="43.1389617" lon="12.9221509"><ele>866.0</ele><time>2026-04-25T11:21:12.556Z</time></trkpt><trkpt lat="43.1389031" lon="12.9220413"><ele>871.0</ele><time>2026-04-25T11:21:13.551Z</time></trkpt><trkpt lat="43.1388308" lon="12.9219521"><ele>876.0</ele><time>2026-04-25T11:21:14.543Z</time></trkpt><trkpt lat="43.1387371" lon="12.9218831"><ele>881.0</ele><time>2026-04-25T11:21:15.549Z</time></trkpt><trkpt lat="43.1387108" lon="12.9217978"><ele>886.0</ele><time>2026-04-25T11:21:16.541Z</time></trkpt><trkpt lat="43.1386968" lon="12.921713"><ele>891.0</ele><time>2026-04-25T11:21:17.551Z</time></trkpt><trkpt lat="43.1387648" lon="12.9216884"><ele>891.0</ele><time>2026-04-25T11:21:18.547Z</time></trkpt><trkpt lat="43.1388819" lon="12.9216767"><ele>890.9999999999999</ele><time>2026-04-25T11:21:20.549Z</time></trkpt><trkpt lat="43.1389101" lon="12.921785"><ele>890.9999999999999</ele><time>2026-04-25T11:21:21.548Z</time></trkpt><trkpt lat="43.1389523" lon="12.9218619"><ele>891.0</ele><time>2026-04-25T11:21:22.547Z</time></trkpt><trkpt lat="43.1390237" lon="12.9219911"><ele>891.0</ele><time>2026-04-25T11:21:23.53Z</time></trkpt><trkpt lat="43.139109" lon="12.9221204"><ele>885.0</ele><time>2026-04-25T11:21:25.528Z</time></trkpt><trkpt lat="43.139212" lon="12.9221799"><ele>878.9999999999999</ele><time>2026-04-25T11:21:27.546Z</time></trkpt><trkpt lat="43.1393057" lon="12.9222081"><ele>872.9999999999999</ele><time>2026-04-25T11:21:29.547Z</time></trkpt><trkpt lat="43.139382" lon="12.9222251"><ele>867.0</ele><time>2026-04-25T11:21:31.544Z</time></trkpt><trkpt lat="43.1394552" lon="12.9223375"><ele>861.0</ele><time>2026-04-25T11:21:32.555Z</time></trkpt><trkpt lat="43.1395215" lon="12.922511"><ele>855.25</ele><time>2026-04-25T11:21:33.557Z</time></trkpt><trkpt lat="43.1395857" lon="12.9226617"><ele>849.5</ele><time>2026-04-25T11:21:34.547Z</time></trkpt><trkpt lat="43.1396716" lon="12.9228401"><ele>843.75</ele><time>2026-04-25T11:21:35.556Z</time></trkpt><trkpt lat="43.1397552" lon="12.9229795"><ele>838.0</ele><time>2026-04-25T11:21:36.548Z</time></trkpt><trkpt lat="43.139835" lon="12.9231175"><ele>844.75</ele><time>2026-04-25T11:21:37.554Z</time></trkpt><trkpt lat="43.1398947" lon="12.9232377"><ele>851.5</ele><time>2026-04-25T11:21:38.549Z</time></trkpt><trkpt lat="43.1399802" lon="12.9233834"><ele>858.25</ele><time>2026-04-25T11:21:39.564Z</time></trkpt><trkpt lat="43.1400527" lon="12.9235226"><ele>865.0</ele><time>2026-04-25T11:21:40.559Z</time></trkpt><trkpt lat="43.1401233" lon="12.9236522"><ele>865.0</ele><time>2026-04-25T11:21:41.559Z</time></trkpt><trkpt lat="43.140194" lon="12.9237863"><ele>865.0</ele><time>2026-04-25T11:21:42.554Z</time></trkpt><trkpt lat="43.1402787" lon="12.9239133"><ele>865.0</ele><time>2026-04-25T11:21:43.561Z</time></trkpt><trkpt lat="43.1403583" lon="12.9240423"><ele>865.0</ele><time>2026-04-25T11:21:44.557Z</time></trkpt><trkpt lat="43.1404523" lon="12.924166"><ele>860.5</ele><time>2026-04-25T11:21:45.561Z</time></trkpt><trkpt lat="43.1405364" lon="12.9242907"><ele>856.0</ele><time>2026-04-25T11:21:46.559Z</time></trkpt><trkpt lat="43.1406212" lon="12.9244215"><ele>851.5</ele><time>2026-04-25T11:21:47.565Z</time></trkpt><trkpt lat="43.1407101" lon="12.9245381"><ele>847.0</ele><time>2026-04-25T11:21:48.56Z</time></trkpt><trkpt lat="43.1408024" lon="12.9246543"><ele>854.75</ele><time>2026-04-25T11:21:49.566Z</time></trkpt><trkpt lat="43.1408846" lon="12.9247883"><ele>862.5</ele><time>2026-04-25T11:21:50.562Z</time></trkpt><trkpt lat="43.1409833" lon="12.9249268"><ele>870.25</ele><time>2026-04-25T11:21:51.563Z</time></trkpt><trkpt lat="43.1410821" lon="12.9250742"><ele>878.0</ele><time>2026-04-25T11:21:52.568Z</time></trkpt><trkpt lat="43.1411808" lon="12.9251947"><ele>878.0</ele><time>2026-04-25T11:21:53.559Z</time></trkpt><trkpt lat="43.1412613" lon="12.9253306"><ele>878.0</ele><time>2026-04-25T11:21:54.554Z</time></trkpt><trkpt lat="43.1413249" lon="12.9254681"><ele>878.0</ele><time>2026-04-25T11:21:55.563Z</time></trkpt><trkpt lat="43.1413818" lon="12.925607"><ele>878.0</ele><time>2026-04-25T11:21:56.566Z</time></trkpt><trkpt lat="43.1414249" lon="12.9257477"><ele>878.0</ele><time>2026-04-25T11:21:57.566Z</time></trkpt><trkpt lat="43.1414896" lon="12.9258562"><ele>878.0</ele><time>2026-04-25T11:21:58.56Z</time></trkpt><trkpt lat="43.1415427" lon="12.9259807"><ele>878.0</ele><time>2026-04-25T11:21:59.564Z</time></trkpt><trkpt lat="43.141596" lon="12.9261306"><ele>878.0</ele><time>2026-04-25T11:22:00.558Z</time></trkpt><trkpt lat="43.1416381" lon="12.926258"><ele>878.0</ele><time>2026-04-25T11:22:01.565Z</time></trkpt><trkpt lat="43.1416735" lon="12.9263813"><ele>879.5</ele><time>2026-04-25T11:22:02.546Z</time></trkpt><trkpt lat="43.1417467" lon="12.9264956"><ele>881.0</ele><time>2026-04-25T11:22:03.545Z</time></trkpt><trkpt lat="43.1418421" lon="12.9265995"><ele>882.5</ele><time>2026-04-25T11:22:04.54Z</time></trkpt><trkpt lat="43.1419595" lon="12.9266922"><ele>884.0</ele><time>2026-04-25T11:22:05.538Z</time></trkpt><trkpt lat="43.1420826" lon="12.9267722"><ele>884.0</ele><time>2026-04-25T11:22:06.538Z</time></trkpt><trkpt lat="43.1422102" lon="12.9268288"><ele>884.0</ele><time>2026-04-25T11:22:07.541Z</time></trkpt><trkpt lat="43.142351" lon="12.9268871"><ele>884.0</ele><time>2026-04-25T11:22:08.536Z</time></trkpt><trkpt lat="43.1424743" lon="12.9269216"><ele>884.0</ele><time>2026-04-25T11:22:09.537Z</time></trkpt><trkpt lat="43.1426047" lon="12.9269365"><ele>887.4000000000001</ele><time>2026-04-25T11:22:10.535Z</time></trkpt><trkpt lat="43.1427521" lon="12.9268981"><ele>890.8000000000001</ele><time>2026-04-25T11:22:11.546Z</time></trkpt><trkpt lat="43.1428579" lon="12.9268739"><ele>894.1999999999999</ele><time>2026-04-25T11:22:12.531Z</time></trkpt><trkpt lat="43.1429486" lon="12.9268419"><ele>897.5999999999999</ele><time>2026-04-25T11:22:13.544Z</time></trkpt><trkpt lat="43.1430371" lon="12.9268403"><ele>901.0</ele><time>2026-04-25T11:22:14.554Z</time></trkpt><trkpt lat="43.1431207" lon="12.9268568"><ele>901.0</ele><time>2026-04-25T11:22:15.555Z</time></trkpt><trkpt lat="43.1431865" lon="12.9268952"><ele>900.9999999999999</ele><time>2026-04-25T11:22:16.559Z</time></trkpt><trkpt lat="43.1432535" lon="12.9269692"><ele>900.9999999999999</ele><time>2026-04-25T11:22:17.551Z</time></trkpt><trkpt lat="43.1433751" lon="12.9270641"><ele>901.0</ele><time>2026-04-25T11:22:19.53Z</time></trkpt><trkpt lat="43.1434681" lon="12.9271279"><ele>901.0</ele><time>2026-04-25T11:22:21.555Z</time></trkpt><trkpt lat="43.1435313" lon="12.927083"><ele>903.6666666666666</ele><time>2026-04-25T11:22:23.538Z</time></trkpt><trkpt lat="43.1434706" lon="12.9269859"><ele>906.3333333333333</ele><time>2026-04-25T11:22:25.557Z</time></trkpt><trkpt lat="43.1434146" lon="12.9269442"><ele>909.0</ele><time>2026-04-25T11:22:26.558Z</time></trkpt><trkpt lat="43.1433583" lon="12.9268465"><ele>911.6666666666667</ele><time>2026-04-25T11:22:27.555Z</time></trkpt><trkpt lat="43.1432927" lon="12.926764"><ele>914.3333333333334</ele><time>2026-04-25T11:22:28.565Z</time></trkpt><trkpt lat="43.1432405" lon="12.9266768"><ele>917.0</ele><time>2026-04-25T11:22:29.557Z</time></trkpt><trkpt lat="43.1431769" lon="12.9266039"><ele>918.3333333333334</ele><time>2026-04-25T11:22:30.561Z</time></trkpt><trkpt lat="43.1431142" lon="12.9265206"><ele>919.6666666666667</ele><time>2026-04-25T11:22:31.547Z</time></trkpt><trkpt lat="43.1430427" lon="12.9264753"><ele>921.0</ele><time>2026-04-25T11:22:32.525Z</time></trkpt><trkpt lat="43.1429894" lon="12.9264057"><ele>922.3333333333333</ele><time>2026-04-25T11:22:33.509Z</time></trkpt><trkpt lat="43.1429275" lon="12.9263507"><ele>923.6666666666666</ele><time>2026-04-25T11:22:34.528Z</time></trkpt><trkpt lat="43.1428544" lon="12.9263034"><ele>925.0</ele><time>2026-04-25T11:22:35.519Z</time></trkpt><trkpt lat="43.1427703" lon="12.9262852"><ele>925.0</ele><time>2026-04-25T11:22:36.525Z</time></trkpt><trkpt lat="43.1426835" lon="12.9262841"><ele>925.0</ele><time>2026-04-25T11:22:37.546Z</time></trkpt><trkpt lat="43.1425954" lon="12.9262939"><ele>925.0</ele><time>2026-04-25T11:22:38.544Z</time></trkpt><trkpt lat="43.1424932" lon="12.9262967"><ele>925.0</ele><time>2026-04-25T11:22:39.549Z</time></trkpt><trkpt lat="43.1424118" lon="12.9262328"><ele>925.0</ele><time>2026-04-25T11:22:40.552Z</time></trkpt><trkpt lat="43.1423356" lon="12.9261593"><ele>923.2</ele><time>2026-04-25T11:22:41.551Z</time></trkpt><trkpt lat="43.142251" lon="12.9260985"><ele>921.4</ele><time>2026-04-25T11:22:42.559Z</time></trkpt><trkpt lat="43.1421722" lon="12.9260192"><ele>919.5999999999999</ele><time>2026-04-25T11:22:43.534Z</time></trkpt><trkpt lat="43.1420992" lon="12.9258888"><ele>917.8</ele><time>2026-04-25T11:22:44.534Z</time></trkpt><trkpt lat="43.142027" lon="12.9257464"><ele>916.0</ele><time>2026-04-25T11:22:45.541Z</time></trkpt><trkpt lat="43.14196" lon="12.9256183"><ele>916.0</ele><time>2026-04-25T11:22:46.542Z</time></trkpt><trkpt lat="43.1419108" lon="12.9254732"><ele>916.0</ele><time>2026-04-25T11:22:47.563Z</time></trkpt><trkpt lat="43.1418729" lon="12.9253187"><ele>916.0</ele><time>2026-04-25T11:22:48.554Z</time></trkpt><trkpt lat="43.1418386" lon="12.9251647"><ele>916.0</ele><time>2026-04-25T11:22:49.54Z</time></trkpt><trkpt lat="43.141797" lon="12.9250225"><ele>911.1999999999999</ele><time>2026-04-25T11:22:50.535Z</time></trkpt><trkpt lat="43.1417398" lon="12.9248965"><ele>906.3999999999999</ele><time>2026-04-25T11:22:51.54Z</time></trkpt><trkpt lat="43.1416894" lon="12.9247796"><ele>901.6</ele><time>2026-04-25T11:22:52.543Z</time></trkpt><trkpt lat="43.141636" lon="12.9246827"><ele>896.8</ele><time>2026-04-25T11:22:53.559Z</time></trkpt><trkpt lat="43.141586" lon="12.9245679"><ele>892.0</ele><time>2026-04-25T11:22:54.57Z</time></trkpt><trkpt lat="43.1415447" lon="12.9244537"><ele>891.9999999999999</ele><time>2026-04-25T11:22:55.547Z</time></trkpt><trkpt lat="43.1415267" lon="12.9243354"><ele>892.0</ele><time>2026-04-25T11:22:56.541Z</time></trkpt><trkpt lat="43.141515" lon="12.9242346"><ele>892.0</ele><time>2026-04-25T11:22:57.547Z</time></trkpt><trkpt lat="43.1414986" lon="12.9241504"><ele>892.0</ele><time>2026-04-25T11:22:58.548Z</time></trkpt><trkpt lat="43.1414492" lon="12.9239978"><ele>891.9999999999999</ele><time>2026-04-25T11:23:00.532Z</time></trkpt><trkpt lat="43.1414389" lon="12.9239126"><ele>892.0</ele><time>2026-04-25T11:23:01.573Z</time></trkpt><trkpt lat="43.1414347" lon="12.9237917"><ele>897.4999999999999</ele><time>2026-04-25T11:23:03.554Z</time></trkpt><trkpt lat="43.1414096" lon="12.9236689"><ele>903.0</ele><time>2026-04-25T11:23:05.549Z</time></trkpt><trkpt lat="43.1414002" lon="12.9235475"><ele>908.5</ele><time>2026-04-25T11:23:07.546Z</time></trkpt><trkpt lat="43.1413874" lon="12.9234595"><ele>914.0</ele><time>2026-04-25T11:23:08.558Z</time></trkpt><trkpt lat="43.1413708" lon="12.9233717"><ele>919.4999999999999</ele><time>2026-04-25T11:23:09.554Z</time></trkpt><trkpt lat="43.1413544" lon="12.9232788"><ele>925.0</ele><time>2026-04-25T11:23:10.548Z</time></trkpt><trkpt lat="43.1413404" lon="12.9231743"><ele>928.4999999999999</ele><time>2026-04-25T11:23:11.556Z</time></trkpt><trkpt lat="43.1413373" lon="12.9230709"><ele>932.0</ele><time>2026-04-25T11:23:12.545Z</time></trkpt><trkpt lat="43.1413307" lon="12.922956"><ele>935.5</ele><time>2026-04-25T11:23:13.557Z</time></trkpt><trkpt lat="43.1413246" lon="12.9228358"><ele>939.0</ele><time>2026-04-25T11:23:14.527Z</time></trkpt><trkpt lat="43.1413224" lon="12.922714"><ele>942.4999999999999</ele><time>2026-04-25T11:23:15.53Z</time></trkpt><trkpt lat="43.1413023" lon="12.9225827"><ele>946.0</ele><time>2026-04-25T11:23:16.551Z</time></trkpt><trkpt lat="43.1412782" lon="12.9224527"><ele>948.5</ele><time>2026-04-25T11:23:17.556Z</time></trkpt><trkpt lat="43.1412494" lon="12.9223061"><ele>951.0</ele><time>2026-04-25T11:23:18.557Z</time></trkpt><trkpt lat="43.1412292" lon="12.9221421"><ele>953.5</ele><time>2026-04-25T11:23:19.552Z</time></trkpt><trkpt lat="43.1412084" lon="12.921978"><ele>956.0</ele><time>2026-04-25T11:23:20.53Z</time></trkpt><trkpt lat="43.1412003" lon="12.9218228"><ele>959.0</ele><time>2026-04-25T11:23:21.537Z</time></trkpt><trkpt lat="43.1411975" lon="12.9216685"><ele>962.0</ele><time>2026-04-25T11:23:22.533Z</time></trkpt><trkpt lat="43.1411907" lon="12.9214975"><ele>965.0</ele><time>2026-04-25T11:23:23.531Z</time></trkpt><trkpt lat="43.1411788" lon="12.9213346"><ele>968.0</ele><time>2026-04-25T11:23:24.531Z</time></trkpt><trkpt lat="43.1411536" lon="12.9211737"><ele>968.0</ele><time>2026-04-25T11:23:25.57Z</time></trkpt><trkpt lat="43.1411078" lon="12.9210202"><ele>968.0</ele><time>2026-04-25T11:23:26.575Z</time></trkpt><trkpt lat="43.1410515" lon="12.9208762"><ele>968.0</ele><time>2026-04-25T11:23:27.578Z</time></trkpt><trkpt lat="43.1409915" lon="12.9207377"><ele>968.0</ele><time>2026-04-25T11:23:28.546Z</time></trkpt><trkpt lat="43.1409304" lon="12.920589"><ele>970.25</ele><time>2026-04-25T11:23:29.555Z</time></trkpt><trkpt lat="43.140874" lon="12.9204341"><ele>972.5</ele><time>2026-04-25T11:23:30.557Z</time></trkpt><trkpt lat="43.1408099" lon="12.920298"><ele>974.75</ele><time>2026-04-25T11:23:31.551Z</time></trkpt><trkpt lat="43.1407375" lon="12.9201575"><ele>977.0</ele><time>2026-04-25T11:23:32.553Z</time></trkpt><trkpt lat="43.1406635" lon="12.92002"><ele>977.0</ele><time>2026-04-25T11:23:33.556Z</time></trkpt><trkpt lat="43.1405832" lon="12.9198854"><ele>977.0</ele><time>2026-04-25T11:23:34.548Z</time></trkpt><trkpt lat="43.1405059" lon="12.9197448"><ele>977.0</ele><time>2026-04-25T11:23:35.561Z</time></trkpt><trkpt lat="43.1404247" lon="12.9196185"><ele>977.0</ele><time>2026-04-25T11:23:36.547Z</time></trkpt><trkpt lat="43.1403395" lon="12.9195128"><ele>977.0</ele><time>2026-04-25T11:23:37.549Z</time></trkpt><trkpt lat="43.140262" lon="12.9194105"><ele>977.0</ele><time>2026-04-25T11:23:38.567Z</time></trkpt><trkpt lat="43.1401888" lon="12.9192925"><ele>977.0</ele><time>2026-04-25T11:23:39.575Z</time></trkpt><trkpt lat="43.1401207" lon="12.919202"><ele>977.0</ele><time>2026-04-25T11:23:40.547Z</time></trkpt><trkpt lat="43.1400591" lon="12.9191434"><ele>977.0</ele><time>2026-04-25T11:23:41.548Z</time></trkpt><trkpt lat="43.139991" lon="12.919098"><ele>981.8</ele><time>2026-04-25T11:23:42.546Z</time></trkpt><trkpt lat="43.1399218" lon="12.9190763"><ele>986.6</ele><time>2026-04-25T11:23:43.571Z</time></trkpt><trkpt lat="43.1398329" lon="12.9190953"><ele>991.3999999999999</ele><time>2026-04-25T11:23:45.556Z</time></trkpt><trkpt lat="43.1397848" lon="12.9190239"><ele>996.1999999999999</ele><time>2026-04-25T11:23:51.54Z</time></trkpt><trkpt lat="43.1398798" lon="12.9190799"><ele>1001.0</ele><time>2026-04-25T11:23:53.547Z</time></trkpt><trkpt lat="43.1399959" lon="12.919164"><ele>993.0</ele><time>2026-04-25T11:23:54.536Z</time></trkpt><trkpt lat="43.1401629" lon="12.9192619"><ele>985.0</ele><time>2026-04-25T11:23:55.541Z</time></trkpt><trkpt lat="43.1402913" lon="12.9193876"><ele>977.0</ele><time>2026-04-25T11:23:56.54Z</time></trkpt><trkpt lat="43.1404271" lon="12.9194646"><ele>977.0</ele><time>2026-04-25T11:23:57.539Z</time></trkpt><trkpt lat="43.1405535" lon="12.9195261"><ele>977.0</ele><time>2026-04-25T11:23:58.563Z</time></trkpt><trkpt lat="43.1406655" lon="12.9195902"><ele>977.0</ele><time>2026-04-25T11:23:59.567Z</time></trkpt><trkpt lat="43.1407647" lon="12.9196788"><ele>977.0</ele><time>2026-04-25T11:24:00.571Z</time></trkpt><trkpt lat="43.1408799" lon="12.9197697"><ele>979.0</ele><time>2026-04-25T11:24:01.543Z</time></trkpt><trkpt lat="43.1409725" lon="12.9198613"><ele>981.0</ele><time>2026-04-25T11:24:02.568Z</time></trkpt><trkpt lat="43.14108" lon="12.9199599"><ele>983.0</ele><time>2026-04-25T11:24:03.565Z</time></trkpt><trkpt lat="43.141191" lon="12.9200652"><ele>985.0</ele><time>2026-04-25T11:24:04.567Z</time></trkpt><trkpt lat="43.1413007" lon="12.9201645"><ele>985.0</ele><time>2026-04-25T11:24:05.566Z</time></trkpt><trkpt lat="43.1413886" lon="12.9202877"><ele>985.0</ele><time>2026-04-25T11:24:06.561Z</time></trkpt><trkpt lat="43.1414798" lon="12.9204169"><ele>985.0</ele><time>2026-04-25T11:24:07.561Z</time></trkpt><trkpt lat="43.1415642" lon="12.9205645"><ele>985.0</ele><time>2026-04-25T11:24:08.559Z</time></trkpt><trkpt lat="43.141707" lon="12.9207256"><ele>994.0</ele><time>2026-04-25T11:24:09.558Z</time></trkpt><trkpt lat="43.141827" lon="12.9208897"><ele>1003.0</ele><time>2026-04-25T11:24:10.553Z</time></trkpt><trkpt lat="43.1418428" lon="12.9211532"><ele>1012.0</ele><time>2026-04-25T11:24:12.555Z</time></trkpt><trkpt lat="43.1418741" lon="12.9213585"><ele>1012.0</ele><time>2026-04-25T11:24:14.552Z</time></trkpt><trkpt lat="43.1419895" lon="12.9215869"><ele>1012.0</ele><time>2026-04-25T11:24:15.555Z</time></trkpt><trkpt lat="43.1420784" lon="12.9218127"><ele>1012.0</ele><time>2026-04-25T11:24:16.562Z</time></trkpt><trkpt lat="43.14218" lon="12.9219907"><ele>1009.0</ele><time>2026-04-25T11:24:17.559Z</time></trkpt><trkpt lat="43.1422495" lon="12.9222903"><ele>1006.0</ele><time>2026-04-25T11:24:18.565Z</time></trkpt><trkpt lat="43.1422962" lon="12.9224704"><ele>1003.0</ele><time>2026-04-25T11:24:19.559Z</time></trkpt><trkpt lat="43.1424172" lon="12.9226128"><ele>1008.8</ele><time>2026-04-25T11:24:20.559Z</time></trkpt><trkpt lat="43.142482" lon="12.9227541"><ele>1014.5999999999999</ele><time>2026-04-25T11:24:21.564Z</time></trkpt><trkpt lat="43.1425274" lon="12.922872"><ele>1020.4000000000001</ele><time>2026-04-25T11:24:22.566Z</time></trkpt><trkpt lat="43.142541" lon="12.9229645"><ele>1026.2</ele><time>2026-04-25T11:24:23.566Z</time></trkpt><trkpt lat="43.1425589" lon="12.9230684"><ele>1032.0</ele><time>2026-04-25T11:24:24.569Z</time></trkpt><trkpt lat="43.1425909" lon="12.9232052"><ele>1032.0</ele><time>2026-04-25T11:24:26.571Z</time></trkpt><trkpt lat="43.1426259" lon="12.9233022"><ele>1032.0</ele><time>2026-04-25T11:24:28.579Z</time></trkpt><trkpt lat="43.1426638" lon="12.9234039"><ele>1032.0</ele><time>2026-04-25T11:24:31.564Z</time></trkpt><trkpt lat="43.1426054" lon="12.9232954"><ele>1032.0</ele><time>2026-04-25T11:24:36.497Z</time></trkpt><trkpt lat="43.1425539" lon="12.9230563"><ele>1032.0</ele><time>2026-04-25T11:24:37.503Z</time></trkpt><trkpt lat="43.1425442" lon="12.9229175"><ele>1032.0</ele><time>2026-04-25T11:24:38.506Z</time></trkpt><trkpt lat="43.1425247" lon="12.9227415"><ele>1032.0</ele><time>2026-04-25T11:24:39.501Z</time></trkpt><trkpt lat="43.1424908" lon="12.922534"><ele>1032.0</ele><time>2026-04-25T11:24:40.506Z</time></trkpt><trkpt lat="43.142467" lon="12.9223732"><ele>1032.0</ele><time>2026-04-25T11:24:41.499Z</time></trkpt><trkpt lat="43.1424252" lon="12.9221684"><ele>1035.6666666666667</ele><time>2026-04-25T11:24:42.53Z</time></trkpt><trkpt lat="43.1423868" lon="12.9219754"><ele>1039.3333333333335</ele><time>2026-04-25T11:24:43.502Z</time></trkpt><trkpt lat="43.1423556" lon="12.9217642"><ele>1043.0</ele><time>2026-04-25T11:24:44.509Z</time></trkpt><trkpt lat="43.1423205" lon="12.9215663"><ele>1038.25</ele><time>2026-04-25T11:24:45.498Z</time></trkpt><trkpt lat="43.142283" lon="12.9213874"><ele>1033.5</ele><time>2026-04-25T11:24:46.534Z</time></trkpt><trkpt lat="43.1422609" lon="12.9212057"><ele>1028.75</ele><time>2026-04-25T11:24:47.52Z</time></trkpt><trkpt lat="43.1422187" lon="12.9210373"><ele>1024.0</ele><time>2026-04-25T11:24:48.532Z</time></trkpt><trkpt lat="43.1421839" lon="12.9208817"><ele>1024.0</ele><time>2026-04-25T11:24:49.529Z</time></trkpt><trkpt lat="43.1420956" lon="12.9207004"><ele>1024.0</ele><time>2026-04-25T11:24:50.527Z</time></trkpt><trkpt lat="43.1419776" lon="12.920525"><ele>1024.0</ele><time>2026-04-25T11:24:51.54Z</time></trkpt><trkpt lat="43.1419985" lon="12.9202699"><ele>1029.6666666666665</ele><time>2026-04-25T11:24:52.522Z</time></trkpt><trkpt lat="43.1419862" lon="12.9199555"><ele>1035.3333333333333</ele><time>2026-04-25T11:24:53.534Z</time></trkpt><trkpt lat="43.1418722" lon="12.9197179"><ele>1041.0</ele><time>2026-04-25T11:24:54.535Z</time></trkpt><trkpt lat="43.1418369" lon="12.9196014"><ele>1041.0</ele><time>2026-04-25T11:24:55.534Z</time></trkpt><trkpt lat="43.1418192" lon="12.9194523"><ele>1041.0</ele><time>2026-04-25T11:24:56.534Z</time></trkpt><trkpt lat="43.1418145" lon="12.9192391"><ele>1041.0</ele><time>2026-04-25T11:24:57.536Z</time></trkpt><trkpt lat="43.1418206" lon="12.9190055"><ele>1041.0</ele><time>2026-04-25T11:24:58.526Z</time></trkpt><trkpt lat="43.1417689" lon="12.9188024"><ele>1047.0</ele><time>2026-04-25T11:24:59.53Z</time></trkpt><trkpt lat="43.1416781" lon="12.9186093"><ele>1053.0</ele><time>2026-04-25T11:25:00.529Z</time></trkpt><trkpt lat="43.1415927" lon="12.9184427"><ele>1059.0</ele><time>2026-04-25T11:25:01.537Z</time></trkpt><trkpt lat="43.1415191" lon="12.9182882"><ele>1059.0</ele><time>2026-04-25T11:25:02.538Z</time></trkpt><trkpt lat="43.1414428" lon="12.9181468"><ele>1059.0</ele><time>2026-04-25T11:25:03.534Z</time></trkpt><trkpt lat="43.1413606" lon="12.9179884"><ele>1059.0</ele><time>2026-04-25T11:25:04.531Z</time></trkpt><trkpt lat="43.1412674" lon="12.9178469"><ele>1059.0</ele><time>2026-04-25T11:25:05.53Z</time></trkpt><trkpt lat="43.1411703" lon="12.9176958"><ele>1067.25</ele><time>2026-04-25T11:25:06.557Z</time></trkpt><trkpt lat="43.141081" lon="12.9175545"><ele>1075.5</ele><time>2026-04-25T11:25:07.553Z</time></trkpt><trkpt lat="43.140989" lon="12.9174158"><ele>1083.75</ele><time>2026-04-25T11:25:08.555Z</time></trkpt><trkpt lat="43.1409022" lon="12.9172848"><ele>1092.0</ele><time>2026-04-25T11:25:09.558Z</time></trkpt><trkpt lat="43.1408268" lon="12.91719"><ele>1092.0</ele><time>2026-04-25T11:25:10.562Z</time></trkpt><trkpt lat="43.1407662" lon="12.9171156"><ele>1092.0</ele><time>2026-04-25T11:25:11.561Z</time></trkpt><trkpt lat="43.1407035" lon="12.9170615"><ele>1092.0</ele><time>2026-04-25T11:25:12.535Z</time></trkpt><trkpt lat="43.1406321" lon="12.917039"><ele>1092.0</ele><time>2026-04-25T11:25:13.539Z</time></trkpt><trkpt lat="43.1405575" lon="12.9170321"><ele>1092.0</ele><time>2026-04-25T11:25:14.552Z</time></trkpt><trkpt lat="43.1404809" lon="12.9170226"><ele>1092.0</ele><time>2026-04-25T11:25:15.555Z</time></trkpt><trkpt lat="43.1403861" lon="12.9169979"><ele>1088.5</ele><time>2026-04-25T11:25:16.55Z</time></trkpt><trkpt lat="43.1402508" lon="12.9169707"><ele>1085.0</ele><time>2026-04-25T11:25:17.547Z</time></trkpt><trkpt lat="43.1401195" lon="12.9169415"><ele>1081.5</ele><time>2026-04-25T11:25:18.55Z</time></trkpt><trkpt lat="43.1399905" lon="12.9169184"><ele>1078.0</ele><time>2026-04-25T11:25:19.546Z</time></trkpt><trkpt lat="43.1398606" lon="12.9169229"><ele>1077.25</ele><time>2026-04-25T11:25:20.557Z</time></trkpt><trkpt lat="43.1397347" lon="12.9169145"><ele>1076.5</ele><time>2026-04-25T11:25:21.552Z</time></trkpt><trkpt lat="43.1396113" lon="12.9169084"><ele>1075.75</ele><time>2026-04-25T11:25:22.563Z</time></trkpt><trkpt lat="43.1394926" lon="12.9168728"><ele>1075.0</ele><time>2026-04-25T11:25:23.559Z</time></trkpt><trkpt lat="43.1393841" lon="12.9168383"><ele>1075.0</ele><time>2026-04-25T11:25:24.563Z</time></trkpt><trkpt lat="43.1392758" lon="12.9168053"><ele>1075.0</ele><time>2026-04-25T11:25:25.548Z</time></trkpt><trkpt lat="43.1391685" lon="12.916751"><ele>1075.0</ele><time>2026-04-25T11:25:26.563Z</time></trkpt><trkpt lat="43.1390628" lon="12.9166996"><ele>1075.0</ele><time>2026-04-25T11:25:27.556Z</time></trkpt><trkpt lat="43.1389566" lon="12.9166254"><ele>1080.5</ele><time>2026-04-25T11:25:28.556Z</time></trkpt><trkpt lat="43.1388537" lon="12.9165272"><ele>1086.0</ele><time>2026-04-25T11:25:29.562Z</time></trkpt><trkpt lat="43.1387501" lon="12.9164427"><ele>1091.5</ele><time>2026-04-25T11:25:30.562Z</time></trkpt><trkpt lat="43.1386504" lon="12.9163481"><ele>1097.0</ele><time>2026-04-25T11:25:31.557Z</time></trkpt><trkpt lat="43.1385417" lon="12.916272"><ele>1097.0</ele><time>2026-04-25T11:25:32.559Z</time></trkpt><trkpt lat="43.1384313" lon="12.9162093"><ele>1097.0</ele><time>2026-04-25T11:25:33.569Z</time></trkpt><trkpt lat="43.1383228" lon="12.9161536"><ele>1097.0</ele><time>2026-04-25T11:25:34.557Z</time></trkpt><trkpt lat="43.1382173" lon="12.9161157"><ele>1097.0</ele><time>2026-04-25T11:25:35.556Z</time></trkpt><trkpt lat="43.1381251" lon="12.9160626"><ele>1097.0</ele><time>2026-04-25T11:25:36.556Z</time></trkpt><trkpt lat="43.1380333" lon="12.9160007"><ele>1095.4</ele><time>2026-04-25T11:25:37.564Z</time></trkpt><trkpt lat="43.1379555" lon="12.9159205"><ele>1093.8000000000002</ele><time>2026-04-25T11:25:38.557Z</time></trkpt><trkpt lat="43.1378741" lon="12.9158305"><ele>1092.2</ele><time>2026-04-25T11:25:39.556Z</time></trkpt><trkpt lat="43.1378018" lon="12.9157376"><ele>1090.6000000000001</ele><time>2026-04-25T11:25:40.553Z</time></trkpt><trkpt lat="43.1377465" lon="12.9156489"><ele>1089.0</ele><time>2026-04-25T11:25:41.562Z</time></trkpt><trkpt lat="43.1376889" lon="12.9155602"><ele>1094.0</ele><time>2026-04-25T11:25:42.553Z</time></trkpt><trkpt lat="43.1376229" lon="12.9154431"><ele>1099.0</ele><time>2026-04-25T11:25:43.553Z</time></trkpt><trkpt lat="43.1375284" lon="12.9153221"><ele>1104.0</ele><time>2026-04-25T11:25:44.552Z</time></trkpt><trkpt lat="43.1374416" lon="12.9151969"><ele>1109.0</ele><time>2026-04-25T11:25:45.552Z</time></trkpt><trkpt lat="43.1373614" lon="12.9150827"><ele>1111.1666666666667</ele><time>2026-04-25T11:25:46.555Z</time></trkpt><trkpt lat="43.1372879" lon="12.9149914"><ele>1113.3333333333335</ele><time>2026-04-25T11:25:47.555Z</time></trkpt><trkpt lat="43.1372182" lon="12.9149054"><ele>1115.5</ele><time>2026-04-25T11:25:48.558Z</time></trkpt><trkpt lat="43.1371544" lon="12.9148382"><ele>1117.6666666666667</ele><time>2026-04-25T11:25:49.56Z</time></trkpt><trkpt lat="43.1370849" lon="12.9147657"><ele>1119.8333333333333</ele><time>2026-04-25T11:25:51.556Z</time></trkpt><trkpt lat="43.1370134" lon="12.9147061"><ele>1122.0</ele><time>2026-04-25T11:25:53.555Z</time></trkpt><trkpt lat="43.1369553" lon="12.9146332"><ele>1122.0</ele><time>2026-04-25T11:25:54.561Z</time></trkpt><trkpt lat="43.1368835" lon="12.914548"><ele>1122.0</ele><time>2026-04-25T11:25:55.559Z</time></trkpt><trkpt lat="43.1368155" lon="12.9144697"><ele>1122.0</ele><time>2026-04-25T11:25:56.557Z</time></trkpt><trkpt lat="43.1367509" lon="12.9143893"><ele>1122.0</ele><time>2026-04-25T11:25:57.56Z</time></trkpt><trkpt lat="43.1366744" lon="12.9143136"><ele>1122.0</ele><time>2026-04-25T11:25:58.531Z</time></trkpt><trkpt lat="43.1365967" lon="12.9142418"><ele>1124.0</ele><time>2026-04-25T11:25:59.563Z</time></trkpt><trkpt lat="43.1365263" lon="12.91417"><ele>1126.0</ele><time>2026-04-25T11:26:00.559Z</time></trkpt><trkpt lat="43.1364703" lon="12.914095"><ele>1128.0</ele><time>2026-04-25T11:26:01.563Z</time></trkpt><trkpt lat="43.1364295" lon="12.9140077"><ele>1130.0</ele><time>2026-04-25T11:26:02.555Z</time></trkpt><trkpt lat="43.1364065" lon="12.913907"><ele>1132.0</ele><time>2026-04-25T11:26:03.566Z</time></trkpt><trkpt lat="43.1364044" lon="12.9138138"><ele>1134.0</ele><time>2026-04-25T11:26:04.563Z</time></trkpt><trkpt lat="43.136403" lon="12.9136361"><ele>1134.0</ele><time>2026-04-25T11:26:06.536Z</time></trkpt><trkpt lat="43.1363992" lon="12.9135477"><ele>1134.0</ele><time>2026-04-25T11:26:07.514Z</time></trkpt><trkpt lat="43.1363807" lon="12.9134417"><ele>1134.0</ele><time>2026-04-25T11:26:08.515Z</time></trkpt><trkpt lat="43.1363738" lon="12.9133398"><ele>1134.0</ele><time>2026-04-25T11:26:09.506Z</time></trkpt><trkpt lat="43.1363778" lon="12.9131546"><ele>1134.0</ele><time>2026-04-25T11:26:11.508Z</time></trkpt><trkpt lat="43.1363857" lon="12.9130608"><ele>1134.0</ele><time>2026-04-25T11:26:12.514Z</time></trkpt><trkpt lat="43.136398" lon="12.9128946"><ele>1134.75</ele><time>2026-04-25T11:26:14.52Z</time></trkpt><trkpt lat="43.1364344" lon="12.9127512"><ele>1135.5</ele><time>2026-04-25T11:26:16.547Z</time></trkpt><trkpt lat="43.1364828" lon="12.9126101"><ele>1136.25</ele><time>2026-04-25T11:26:18.521Z</time></trkpt><trkpt lat="43.1365376" lon="12.9124741"><ele>1137.0</ele><time>2026-04-25T11:26:20.519Z</time></trkpt><trkpt lat="43.1365979" lon="12.9123348"><ele>1137.0</ele><time>2026-04-25T11:26:22.541Z</time></trkpt><trkpt lat="43.1366737" lon="12.9121935"><ele>1137.0</ele><time>2026-04-25T11:26:24.545Z</time></trkpt><trkpt lat="43.1367518" lon="12.9120674"><ele>1137.0</ele><time>2026-04-25T11:26:26.536Z</time></trkpt><trkpt lat="43.1367972" lon="12.912005"><ele>1137.0</ele><time>2026-04-25T11:26:27.545Z</time></trkpt><trkpt lat="43.1369043" lon="12.9119116"><ele>1137.0</ele><time>2026-04-25T11:26:29.549Z</time></trkpt><trkpt lat="43.1369688" lon="12.9118747"><ele>1137.0</ele><time>2026-04-25T11:26:30.563Z</time></trkpt><trkpt lat="43.1370397" lon="12.9118606"><ele>1137.0</ele><time>2026-04-25T11:26:31.561Z</time></trkpt><trkpt lat="43.1371197" lon="12.9118536"><ele>1137.0</ele><time>2026-04-25T11:26:32.541Z</time></trkpt><trkpt lat="43.1372059" lon="12.9118647"><ele>1137.0</ele><time>2026-04-25T11:26:33.557Z</time></trkpt><trkpt lat="43.1372989" lon="12.9118904"><ele>1137.0</ele><time>2026-04-25T11:26:34.54Z</time></trkpt><trkpt lat="43.1373978" lon="12.9119244"><ele>1137.0</ele><time>2026-04-25T11:26:35.546Z</time></trkpt><trkpt lat="43.1374964" lon="12.9119572"><ele>1140.25</ele><time>2026-04-25T11:26:36.537Z</time></trkpt><trkpt lat="43.1376086" lon="12.911987"><ele>1143.5</ele><time>2026-04-25T11:26:37.542Z</time></trkpt><trkpt lat="43.1377191" lon="12.9120098"><ele>1146.75</ele><time>2026-04-25T11:26:38.541Z</time></trkpt><trkpt lat="43.1378356" lon="12.9120375"><ele>1150.0</ele><time>2026-04-25T11:26:39.541Z</time></trkpt><trkpt lat="43.1379442" lon="12.91207"><ele>1150.0</ele><time>2026-04-25T11:26:40.547Z</time></trkpt><trkpt lat="43.1380395" lon="12.9121009"><ele>1150.0</ele><time>2026-04-25T11:26:41.541Z</time></trkpt><trkpt lat="43.1381295" lon="12.9121288"><ele>1150.0</ele><time>2026-04-25T11:26:42.549Z</time></trkpt><trkpt lat="43.1382156" lon="12.9121617"><ele>1150.0</ele><time>2026-04-25T11:26:43.539Z</time></trkpt><trkpt lat="43.138307" lon="12.9122081"><ele>1150.0</ele><time>2026-04-25T11:26:44.545Z</time></trkpt><trkpt lat="43.1383949" lon="12.9122539"><ele>1151.4</ele><time>2026-04-25T11:26:45.541Z</time></trkpt><trkpt lat="43.1384927" lon="12.9123016"><ele>1152.8</ele><time>2026-04-25T11:26:46.543Z</time></trkpt><trkpt lat="43.1385789" lon="12.9123468"><ele>1154.2</ele><time>2026-04-25T11:26:47.537Z</time></trkpt><trkpt lat="43.13868" lon="12.9124146"><ele>1155.6</ele><time>2026-04-25T11:26:48.544Z</time></trkpt><trkpt lat="43.1387988" lon="12.9125016"><ele>1157.0</ele><time>2026-04-25T11:26:49.536Z</time></trkpt><trkpt lat="43.1389339" lon="12.912619"><ele>1158.0</ele><time>2026-04-25T11:26:50.54Z</time></trkpt><trkpt lat="43.1390423" lon="12.9126991"><ele>1159.0</ele><time>2026-04-25T11:26:51.557Z</time></trkpt><trkpt lat="43.1390949" lon="12.9127663"><ele>1160.0</ele><time>2026-04-25T11:26:52.525Z</time></trkpt><trkpt lat="43.1391624" lon="12.9127665"><ele>1161.0</ele><time>2026-04-25T11:26:53.536Z</time></trkpt><trkpt lat="43.1392401" lon="12.9127231"><ele>1162.0</ele><time>2026-04-25T11:26:54.54Z</time></trkpt><trkpt lat="43.1393154" lon="12.9126785"><ele>1163.0</ele><time>2026-04-25T11:26:55.534Z</time></trkpt><trkpt lat="43.1393913" lon="12.9126826"><ele>1163.8333333333335</ele><time>2026-04-25T11:26:56.535Z</time></trkpt><trkpt lat="43.1394714" lon="12.9126927"><ele>1164.6666666666667</ele><time>2026-04-25T11:26:57.531Z</time></trkpt><trkpt lat="43.1395544" lon="12.9127058"><ele>1165.5</ele><time>2026-04-25T11:26:58.558Z</time></trkpt><trkpt lat="43.139634" lon="12.9126728"><ele>1166.3333333333333</ele><time>2026-04-25T11:26:59.536Z</time></trkpt><trkpt lat="43.1397169" lon="12.912623"><ele>1167.1666666666665</ele><time>2026-04-25T11:27:00.567Z</time></trkpt><trkpt lat="43.1398047" lon="12.9125592"><ele>1168.0</ele><time>2026-04-25T11:27:01.536Z</time></trkpt><trkpt lat="43.139897" lon="12.9124798"><ele>1170.0</ele><time>2026-04-25T11:27:02.536Z</time></trkpt><trkpt lat="43.1399872" lon="12.9124147"><ele>1172.0</ele><time>2026-04-25T11:27:03.542Z</time></trkpt><trkpt lat="43.1400775" lon="12.9123351"><ele>1174.0</ele><time>2026-04-25T11:27:04.536Z</time></trkpt><trkpt lat="43.1401666" lon="12.9122442"><ele>1176.0</ele><time>2026-04-25T11:27:05.543Z</time></trkpt><trkpt lat="43.1402493" lon="12.9121475"><ele>1178.0</ele><time>2026-04-25T11:27:06.543Z</time></trkpt><trkpt lat="43.1403451" lon="12.9120535"><ele>1178.0</ele><time>2026-04-25T11:27:07.547Z</time></trkpt><trkpt lat="43.1404465" lon="12.9119581"><ele>1178.0</ele><time>2026-04-25T11:27:08.543Z</time></trkpt><trkpt lat="43.1405515" lon="12.9118698"><ele>1178.0</ele><time>2026-04-25T11:27:09.546Z</time></trkpt><trkpt lat="43.1406549" lon="12.9117783"><ele>1178.0</ele><time>2026-04-25T11:27:10.539Z</time></trkpt><trkpt lat="43.1407363" lon="12.9117168"><ele>1179.0</ele><time>2026-04-25T11:27:11.54Z</time></trkpt><trkpt lat="43.1407996" lon="12.9116704"><ele>1180.0</ele><time>2026-04-25T11:27:12.54Z</time></trkpt><trkpt lat="43.1409034" lon="12.911578"><ele>1181.0</ele><time>2026-04-25T11:27:14.536Z</time></trkpt><trkpt lat="43.1409669" lon="12.9115195"><ele>1182.0</ele><time>2026-04-25T11:27:16.535Z</time></trkpt><trkpt lat="43.1410307" lon="12.9114883"><ele>1183.0</ele><time>2026-04-25T11:28:47.574Z</time></trkpt><trkpt lat="43.1411114" lon="12.9114276"><ele>1184.0</ele><time>2026-04-25T11:30:28.557Z</time></trkpt><trkpt lat="43.1411614" lon="12.9113682"><ele>1184.0</ele><time>2026-04-25T11:30:44.554Z</time></trkpt><trkpt lat="43.1412253" lon="12.911344"><ele>1184.0</ele><time>2026-04-25T11:32:07.564Z</time></trkpt><trkpt lat="43.1412176" lon="12.9114372"><ele>1184.0</ele><time>2026-04-25T11:33:46.562Z</time></trkpt><trkpt lat="43.1411459" lon="12.9114931"><ele>1184.0</ele><time>2026-04-25T11:33:58.544Z</time></trkpt><trkpt lat="43.141076" lon="12.911516"><ele>1184.0</ele><time>2026-04-25T11:36:39.57Z</time></trkpt><trkpt lat="43.1409844" lon="12.9115317"><ele>1184.0</ele><time>2026-04-25T11:37:24.602Z</time></trkpt><trkpt lat="43.1409955" lon="12.911439"><ele>1184.0</ele><time>2026-04-25T11:38:46.601Z</time></trkpt><trkpt lat="43.1410551" lon="12.9113437"><ele>1184.0</ele><time>2026-04-25T11:38:49.608Z</time></trkpt><trkpt lat="43.1411182" lon="12.9112853"><ele>1184.0</ele><time>2026-04-25T11:38:51.61Z</time></trkpt><trkpt lat="43.1411857" lon="12.9111948"><ele>1184.0</ele><time>2026-04-25T11:38:53.605Z</time></trkpt><trkpt lat="43.141265" lon="12.911105"><ele>1184.0</ele><time>2026-04-25T11:38:55.591Z</time></trkpt><trkpt lat="43.1413429" lon="12.9110101"><ele>1183.8</ele><time>2026-04-25T11:38:57.591Z</time></trkpt><trkpt lat="43.1414089" lon="12.9108987"><ele>1183.6000000000001</ele><time>2026-04-25T11:38:59.589Z</time></trkpt><trkpt lat="43.1414815" lon="12.9107788"><ele>1183.4</ele><time>2026-04-25T11:39:01.579Z</time></trkpt><trkpt lat="43.1415253" lon="12.9107058"><ele>1183.2</ele><time>2026-04-25T11:39:02.576Z</time></trkpt><trkpt lat="43.1416011" lon="12.9105845"><ele>1183.0</ele><time>2026-04-25T11:39:04.598Z</time></trkpt><trkpt lat="43.1416465" lon="12.910515"><ele>1183.0</ele><time>2026-04-25T11:39:05.602Z</time></trkpt><trkpt lat="43.1416947" lon="12.91043"><ele>1183.0</ele><time>2026-04-25T11:39:06.583Z</time></trkpt><trkpt lat="43.14173" lon="12.9103525"><ele>1183.0</ele><time>2026-04-25T11:39:07.582Z</time></trkpt><trkpt lat="43.141762" lon="12.9102692"><ele>1183.0</ele><time>2026-04-25T11:39:08.605Z</time></trkpt><trkpt lat="43.1418045" lon="12.9101363"><ele>1183.0</ele><time>2026-04-25T11:39:10.586Z</time></trkpt><trkpt lat="43.1418277" lon="12.9100545"><ele>1183.0</ele><time>2026-04-25T11:39:11.578Z</time></trkpt><trkpt lat="43.141863" lon="12.9098883"><ele>1181.8</ele><time>2026-04-25T11:39:13.577Z</time></trkpt><trkpt lat="43.1418792" lon="12.9097391"><ele>1180.6</ele><time>2026-04-25T11:39:15.551Z</time></trkpt><trkpt lat="43.141881" lon="12.9095904"><ele>1179.4</ele><time>2026-04-25T11:39:17.601Z</time></trkpt><trkpt lat="43.1418651" lon="12.9095046"><ele>1178.2</ele><time>2026-04-25T11:39:18.583Z</time></trkpt><trkpt lat="43.141831" lon="12.9093765"><ele>1177.0</ele><time>2026-04-25T11:39:20.578Z</time></trkpt><trkpt lat="43.1417728" lon="12.9092459"><ele>1176.2</ele><time>2026-04-25T11:39:22.59Z</time></trkpt><trkpt lat="43.1417262" lon="12.9091351"><ele>1175.4</ele><time>2026-04-25T11:39:24.619Z</time></trkpt><trkpt lat="43.1417004" lon="12.9090393"><ele>1174.6</ele><time>2026-04-25T11:39:26.599Z</time></trkpt><trkpt lat="43.1416757" lon="12.9089179"><ele>1173.8</ele><time>2026-04-25T11:39:28.601Z</time></trkpt><trkpt lat="43.1416444" lon="12.9087557"><ele>1173.0</ele><time>2026-04-25T11:39:30.57Z</time></trkpt><trkpt lat="43.1415958" lon="12.9086097"><ele>1173.0</ele><time>2026-04-25T11:39:32.566Z</time></trkpt><trkpt lat="43.14156" lon="12.9084944"><ele>1173.0</ele><time>2026-04-25T11:39:34.541Z</time></trkpt><trkpt lat="43.1415178" lon="12.9083701"><ele>1173.0</ele><time>2026-04-25T11:39:36.554Z</time></trkpt><trkpt lat="43.1414943" lon="12.9082551"><ele>1173.0</ele><time>2026-04-25T11:39:38.551Z</time></trkpt><trkpt lat="43.1414724" lon="12.9081185"><ele>1173.0</ele><time>2026-04-25T11:39:40.553Z</time></trkpt><trkpt lat="43.1414557" lon="12.9080291"><ele>1173.0</ele><time>2026-04-25T11:39:41.556Z</time></trkpt><trkpt lat="43.1414414" lon="12.9079431"><ele>1169.0</ele><time>2026-04-25T11:39:42.551Z</time></trkpt><trkpt lat="43.1414343" lon="12.9078043"><ele>1165.0</ele><time>2026-04-25T11:39:44.555Z</time></trkpt><trkpt lat="43.1414395" lon="12.9076685"><ele>1161.0</ele><time>2026-04-25T11:39:46.556Z</time></trkpt><trkpt lat="43.1414445" lon="12.9075283"><ele>1157.0</ele><time>2026-04-25T11:39:48.577Z</time></trkpt><trkpt lat="43.1414413" lon="12.9073955"><ele>1153.0</ele><time>2026-04-25T11:39:50.557Z</time></trkpt><trkpt lat="43.1414521" lon="12.9072549"><ele>1151.8</ele><time>2026-04-25T11:39:52.554Z</time></trkpt><trkpt lat="43.14145" lon="12.9071177"><ele>1150.6</ele><time>2026-04-25T11:39:54.552Z</time></trkpt><trkpt lat="43.1414569" lon="12.906967"><ele>1149.4</ele><time>2026-04-25T11:39:56.578Z</time></trkpt><trkpt lat="43.141466" lon="12.9068336"><ele>1148.2</ele><time>2026-04-25T11:39:58.553Z</time></trkpt><trkpt lat="43.1414661" lon="12.9067103"><ele>1147.0</ele><time>2026-04-25T11:40:00.553Z</time></trkpt><trkpt lat="43.1414409" lon="12.9065726"><ele>1145.4</ele><time>2026-04-25T11:40:02.552Z</time></trkpt><trkpt lat="43.141459" lon="12.9064539"><ele>1143.8000000000002</ele><time>2026-04-25T11:40:04.557Z</time></trkpt><trkpt lat="43.1414683" lon="12.9063187"><ele>1142.2</ele><time>2026-04-25T11:40:06.557Z</time></trkpt><trkpt lat="43.141481" lon="12.9061879"><ele>1140.6000000000001</ele><time>2026-04-25T11:40:08.558Z</time></trkpt><trkpt lat="43.1415035" lon="12.906056"><ele>1139.0</ele><time>2026-04-25T11:40:10.56Z</time></trkpt><trkpt lat="43.1415148" lon="12.9059522"><ele>1139.5</ele><time>2026-04-25T11:40:12.551Z</time></trkpt><trkpt lat="43.1415295" lon="12.9058464"><ele>1140.0</ele><time>2026-04-25T11:40:14.603Z</time></trkpt><trkpt lat="43.141558" lon="12.9057357"><ele>1140.5</ele><time>2026-04-25T11:40:16.58Z</time></trkpt><trkpt lat="43.1416088" lon="12.9056403"><ele>1141.0</ele><time>2026-04-25T11:40:18.578Z</time></trkpt><trkpt lat="43.1416459" lon="12.9055639"><ele>1141.5</ele><time>2026-04-25T11:40:20.578Z</time></trkpt><trkpt lat="43.1416834" lon="12.9054936"><ele>1142.0</ele><time>2026-04-25T11:40:22.599Z</time></trkpt><trkpt lat="43.1416532" lon="12.9053725"><ele>1142.0</ele><time>2026-04-25T11:40:25.628Z</time></trkpt><trkpt lat="43.1415948" lon="12.9052538"><ele>1142.0</ele><time>2026-04-25T11:40:28.573Z</time></trkpt><trkpt lat="43.1415812" lon="12.9051242"><ele>1142.0</ele><time>2026-04-25T11:40:30.581Z</time></trkpt><trkpt lat="43.1415603" lon="12.9049991"><ele>1142.0</ele><time>2026-04-25T11:40:32.555Z</time></trkpt><trkpt lat="43.1415167" lon="12.9048638"><ele>1142.0</ele><time>2026-04-25T11:40:34.581Z</time></trkpt><trkpt lat="43.141466" lon="12.9047356"><ele>1136.4</ele><time>2026-04-25T11:40:36.575Z</time></trkpt><trkpt lat="43.1414158" lon="12.9046076"><ele>1130.8000000000002</ele><time>2026-04-25T11:40:38.576Z</time></trkpt><trkpt lat="43.1413656" lon="12.9044696"><ele>1125.2</ele><time>2026-04-25T11:40:40.567Z</time></trkpt><trkpt lat="43.1413574" lon="12.9043374"><ele>1119.6000000000001</ele><time>2026-04-25T11:40:42.572Z</time></trkpt><trkpt lat="43.1413835" lon="12.9042151"><ele>1114.0</ele><time>2026-04-25T11:40:44.549Z</time></trkpt><trkpt lat="43.1414432" lon="12.904172"><ele>1114.0</ele><time>2026-04-25T11:40:46.573Z</time></trkpt><trkpt lat="43.1415326" lon="12.9041806"><ele>1114.0</ele><time>2026-04-25T11:40:49.598Z</time></trkpt><trkpt lat="43.1416212" lon="12.9041606"><ele>1114.0</ele><time>2026-04-25T11:40:51.576Z</time></trkpt><trkpt lat="43.1417059" lon="12.9041369"><ele>1114.0</ele><time>2026-04-25T11:40:54.574Z</time></trkpt><trkpt lat="43.1417871" lon="12.9041374"><ele>1114.0</ele><time>2026-04-25T11:40:57.579Z</time></trkpt><trkpt lat="43.1418594" lon="12.9041189"><ele>1114.0</ele><time>2026-04-25T11:41:02.584Z</time></trkpt><trkpt lat="43.141965" lon="12.9041065"><ele>1114.5</ele><time>2026-04-25T11:41:04.578Z</time></trkpt><trkpt lat="43.1420373" lon="12.904103"><ele>1115.0</ele><time>2026-04-25T11:41:05.581Z</time></trkpt><trkpt lat="43.1421213" lon="12.9041027"><ele>1115.5</ele><time>2026-04-25T11:41:06.581Z</time></trkpt><trkpt lat="43.1422047" lon="12.9041136"><ele>1116.0</ele><time>2026-04-25T11:41:07.585Z</time></trkpt><trkpt lat="43.142278" lon="12.9041281"><ele>1116.5</ele><time>2026-04-25T11:41:08.578Z</time></trkpt><trkpt lat="43.1423525" lon="12.9041502"><ele>1117.0</ele><time>2026-04-25T11:41:09.583Z</time></trkpt><trkpt lat="43.1424296" lon="12.9041645"><ele>1117.0</ele><time>2026-04-25T11:41:10.578Z</time></trkpt><trkpt lat="43.1425047" lon="12.9041779"><ele>1117.0</ele><time>2026-04-25T11:41:11.582Z</time></trkpt><trkpt lat="43.1425779" lon="12.9041954"><ele>1117.0</ele><time>2026-04-25T11:41:12.58Z</time></trkpt><trkpt lat="43.1426544" lon="12.9042139"><ele>1117.0</ele><time>2026-04-25T11:41:13.587Z</time></trkpt><trkpt lat="43.1427312" lon="12.9042302"><ele>1117.0</ele><time>2026-04-25T11:41:14.578Z</time></trkpt><trkpt lat="43.1428079" lon="12.9042504"><ele>1117.0</ele><time>2026-04-25T11:41:15.586Z</time></trkpt><trkpt lat="43.1428879" lon="12.9042645"><ele>1117.5</ele><time>2026-04-25T11:41:16.586Z</time></trkpt><trkpt lat="43.1429704" lon="12.9042819"><ele>1118.0</ele><time>2026-04-25T11:41:17.584Z</time></trkpt><trkpt lat="43.1430446" lon="12.904306"><ele>1118.5</ele><time>2026-04-25T11:41:18.587Z</time></trkpt><trkpt lat="43.1431138" lon="12.9043367"><ele>1119.0</ele><time>2026-04-25T11:41:19.605Z</time></trkpt><trkpt lat="43.1431869" lon="12.9043603"><ele>1119.5</ele><time>2026-04-25T11:41:20.583Z</time></trkpt><trkpt lat="43.1432622" lon="12.9043855"><ele>1120.0</ele><time>2026-04-25T11:41:21.586Z</time></trkpt><trkpt lat="43.1433316" lon="12.9044087"><ele>1120.0</ele><time>2026-04-25T11:41:22.582Z</time></trkpt><trkpt lat="43.1434003" lon="12.9044375"><ele>1120.0</ele><time>2026-04-25T11:41:23.587Z</time></trkpt><trkpt lat="43.143513" lon="12.9044842"><ele>1120.0</ele><time>2026-04-25T11:41:25.585Z</time></trkpt><trkpt lat="43.1436194" lon="12.9045131"><ele>1120.0</ele><time>2026-04-25T11:41:27.581Z</time></trkpt><trkpt lat="43.1437245" lon="12.9044401"><ele>1120.0</ele><time>2026-04-25T11:41:29.578Z</time></trkpt><trkpt lat="43.1437753" lon="12.9043866"><ele>1120.0</ele><time>2026-04-25T11:41:30.585Z</time></trkpt><trkpt lat="43.1438428" lon="12.9042613"><ele>1120.0</ele><time>2026-04-25T11:41:32.589Z</time></trkpt><trkpt lat="43.1438904" lon="12.9041083"><ele>1120.0</ele><time>2026-04-25T11:41:34.601Z</time></trkpt><trkpt lat="43.1439165" lon="12.9040194"><ele>1120.0</ele><time>2026-04-25T11:41:35.58Z</time></trkpt><trkpt lat="43.1439416" lon="12.9039215"><ele>1120.0</ele><time>2026-04-25T11:41:36.578Z</time></trkpt><trkpt lat="43.1439597" lon="12.9038278"><ele>1118.0</ele><time>2026-04-25T11:41:37.576Z</time></trkpt><trkpt lat="43.1439781" lon="12.9037427"><ele>1116.0</ele><time>2026-04-25T11:41:38.576Z</time></trkpt><trkpt lat="43.1439985" lon="12.9035803"><ele>1114.0</ele><time>2026-04-25T11:41:40.575Z</time></trkpt><trkpt lat="43.1439937" lon="12.9034905"><ele>1112.0</ele><time>2026-04-25T11:41:41.577Z</time></trkpt><trkpt lat="43.143989" lon="12.9033995"><ele>1110.0</ele><time>2026-04-25T11:41:42.577Z</time></trkpt><trkpt lat="43.1439782" lon="12.9033009"><ele>1108.0</ele><time>2026-04-25T11:41:43.577Z</time></trkpt><trkpt lat="43.1439568" lon="12.9032067"><ele>1106.3333333333333</ele><time>2026-04-25T11:41:44.579Z</time></trkpt><trkpt lat="43.1439354" lon="12.9031142"><ele>1104.6666666666665</ele><time>2026-04-25T11:41:45.576Z</time></trkpt><trkpt lat="43.1439099" lon="12.9030278"><ele>1103.0</ele><time>2026-04-25T11:41:46.572Z</time></trkpt><trkpt lat="43.1438736" lon="12.9029446"><ele>1101.3333333333333</ele><time>2026-04-25T11:41:47.6Z</time></trkpt><trkpt lat="43.1438273" lon="12.9028686"><ele>1099.6666666666667</ele><time>2026-04-25T11:41:48.62Z</time></trkpt><trkpt lat="43.143768" lon="12.902782"><ele>1098.0</ele><time>2026-04-25T11:41:49.621Z</time></trkpt><trkpt lat="43.1437039" lon="12.9027054"><ele>1098.0</ele><time>2026-04-25T11:41:50.628Z</time></trkpt><trkpt lat="43.1436467" lon="12.9026326"><ele>1098.0</ele><time>2026-04-25T11:41:51.624Z</time></trkpt><trkpt lat="43.143597" lon="12.9025451"><ele>1098.0</ele><time>2026-04-25T11:41:52.627Z</time></trkpt><trkpt lat="43.1435523" lon="12.9024574"><ele>1098.0</ele><time>2026-04-25T11:41:53.625Z</time></trkpt><trkpt lat="43.1435021" lon="12.9023682"><ele>1098.0</ele><time>2026-04-25T11:41:54.626Z</time></trkpt><trkpt lat="43.1434561" lon="12.9022916"><ele>1098.0</ele><time>2026-04-25T11:41:55.626Z</time></trkpt><trkpt lat="43.1434184" lon="12.9022066"><ele>1096.6</ele><time>2026-04-25T11:41:56.615Z</time></trkpt><trkpt lat="43.1433906" lon="12.9021159"><ele>1095.1999999999998</ele><time>2026-04-25T11:41:57.614Z</time></trkpt><trkpt lat="43.1433613" lon="12.9020337"><ele>1093.8</ele><time>2026-04-25T11:41:58.617Z</time></trkpt><trkpt lat="43.1432969" lon="12.9018856"><ele>1092.3999999999999</ele><time>2026-04-25T11:42:00.601Z</time></trkpt><trkpt lat="43.1432292" lon="12.9017438"><ele>1091.0</ele><time>2026-04-25T11:42:02.576Z</time></trkpt><trkpt lat="43.1431711" lon="12.9015956"><ele>1088.6</ele><time>2026-04-25T11:42:04.625Z</time></trkpt><trkpt lat="43.1431359" lon="12.9015209"><ele>1086.1999999999998</ele><time>2026-04-25T11:42:05.623Z</time></trkpt><trkpt lat="43.1430701" lon="12.9013927"><ele>1083.8000000000002</ele><time>2026-04-25T11:42:07.621Z</time></trkpt><trkpt lat="43.1430117" lon="12.9012661"><ele>1081.4</ele><time>2026-04-25T11:42:09.601Z</time></trkpt><trkpt lat="43.1429457" lon="12.9011566"><ele>1079.0</ele><time>2026-04-25T11:42:11.601Z</time></trkpt><trkpt lat="43.1428673" lon="12.9010669"><ele>1079.0</ele><time>2026-04-25T11:42:13.623Z</time></trkpt><trkpt lat="43.1427622" lon="12.9009807"><ele>1079.0</ele><time>2026-04-25T11:42:15.619Z</time></trkpt><trkpt lat="43.1426694" lon="12.9008846"><ele>1079.0</ele><time>2026-04-25T11:42:17.612Z</time></trkpt><trkpt lat="43.1426298" lon="12.9007755"><ele>1079.0</ele><time>2026-04-25T11:42:19.61Z</time></trkpt><trkpt lat="43.1426101" lon="12.9006933"><ele>1079.0</ele><time>2026-04-25T11:42:21.595Z</time></trkpt><trkpt lat="43.1425637" lon="12.9005774"><ele>1078.6666666666667</ele><time>2026-04-25T11:42:24.598Z</time></trkpt><trkpt lat="43.1425279" lon="12.9004737"><ele>1078.3333333333335</ele><time>2026-04-25T11:42:26.623Z</time></trkpt><trkpt lat="43.1424989" lon="12.9003765"><ele>1078.0</ele><time>2026-04-25T11:42:28.579Z</time></trkpt><trkpt lat="43.1424641" lon="12.9002438"><ele>1077.6666666666667</ele><time>2026-04-25T11:42:30.617Z</time></trkpt><trkpt lat="43.1424281" lon="12.9001632"><ele>1077.3333333333333</ele><time>2026-04-25T11:42:31.597Z</time></trkpt><trkpt lat="43.1423984" lon="12.9000795"><ele>1077.0</ele><time>2026-04-25T11:42:32.619Z</time></trkpt><trkpt lat="43.1423734" lon="12.8999985"><ele>1068.5</ele><time>2026-04-25T11:42:33.616Z</time></trkpt><trkpt lat="43.1423229" lon="12.8998422"><ele>1060.0</ele><time>2026-04-25T11:42:35.615Z</time></trkpt><trkpt lat="43.1422871" lon="12.8996999"><ele>1051.5</ele><time>2026-04-25T11:42:37.621Z</time></trkpt><trkpt lat="43.1422362" lon="12.8995522"><ele>1043.0</ele><time>2026-04-25T11:42:39.596Z</time></trkpt><trkpt lat="43.1422087" lon="12.8994004"><ele>1043.0</ele><time>2026-04-25T11:42:41.595Z</time></trkpt><trkpt lat="43.1421909" lon="12.899315"><ele>1043.0</ele><time>2026-04-25T11:42:42.595Z</time></trkpt><trkpt lat="43.1421646" lon="12.8992066"><ele>1043.0</ele><time>2026-04-25T11:42:43.593Z</time></trkpt><trkpt lat="43.1421482" lon="12.8991037"><ele>1043.0</ele><time>2026-04-25T11:42:44.557Z</time></trkpt><trkpt lat="43.1421242" lon="12.8990097"><ele>1043.0</ele><time>2026-04-25T11:42:45.597Z</time></trkpt><trkpt lat="43.1421009" lon="12.8989026"><ele>1043.0</ele><time>2026-04-25T11:42:46.558Z</time></trkpt><trkpt lat="43.1420796" lon="12.8988086"><ele>1042.3333333333335</ele><time>2026-04-25T11:42:47.576Z</time></trkpt><trkpt lat="43.1420588" lon="12.8987168"><ele>1041.6666666666667</ele><time>2026-04-25T11:42:48.598Z</time></trkpt><trkpt lat="43.1420437" lon="12.8986247"><ele>1041.0</ele><time>2026-04-25T11:42:49.575Z</time></trkpt><trkpt lat="43.1420376" lon="12.8985147"><ele>1040.3333333333333</ele><time>2026-04-25T11:42:50.584Z</time></trkpt><trkpt lat="43.1420304" lon="12.8984004"><ele>1039.6666666666665</ele><time>2026-04-25T11:42:51.576Z</time></trkpt><trkpt lat="43.1420163" lon="12.8982928"><ele>1039.0</ele><time>2026-04-25T11:42:52.575Z</time></trkpt><trkpt lat="43.1420075" lon="12.8981887"><ele>1038.9999999999998</ele><time>2026-04-25T11:42:53.573Z</time></trkpt><trkpt lat="43.1420076" lon="12.8980914"><ele>1039.0</ele><time>2026-04-25T11:42:54.596Z</time></trkpt><trkpt lat="43.1420092" lon="12.8979951"><ele>1039.0</ele><time>2026-04-25T11:42:55.588Z</time></trkpt><trkpt lat="43.1420089" lon="12.8978966"><ele>1039.0</ele><time>2026-04-25T11:42:56.573Z</time></trkpt><trkpt lat="43.1420073" lon="12.8977989"><ele>1039.0</ele><time>2026-04-25T11:42:57.573Z</time></trkpt><trkpt lat="43.1420116" lon="12.8977051"><ele>1038.9999999999998</ele><time>2026-04-25T11:42:58.575Z</time></trkpt><trkpt lat="43.1420121" lon="12.8976116"><ele>1039.0</ele><time>2026-04-25T11:42:59.575Z</time></trkpt><trkpt lat="43.1420081" lon="12.8975233"><ele>1039.2</ele><time>2026-04-25T11:43:00.57Z</time></trkpt><trkpt lat="43.1420073" lon="12.8973679"><ele>1039.4</ele><time>2026-04-25T11:43:02.567Z</time></trkpt><trkpt lat="43.1420447" lon="12.8972526"><ele>1039.6</ele><time>2026-04-25T11:43:04.569Z</time></trkpt><trkpt lat="43.1420978" lon="12.8971962"><ele>1039.8</ele><time>2026-04-25T11:43:05.587Z</time></trkpt><trkpt lat="43.1421919" lon="12.8971502"><ele>1040.0</ele><time>2026-04-25T11:43:07.544Z</time></trkpt><trkpt lat="43.1422857" lon="12.8971765"><ele>1040.0</ele><time>2026-04-25T11:43:09.546Z</time></trkpt><trkpt lat="43.1423715" lon="12.8972373"><ele>1040.0</ele><time>2026-04-25T11:43:11.547Z</time></trkpt><trkpt lat="43.1424259" lon="12.8972832"><ele>1040.0</ele><time>2026-04-25T11:43:12.552Z</time></trkpt><trkpt lat="43.1425029" lon="12.8973248"><ele>1040.0</ele><time>2026-04-25T11:43:13.546Z</time></trkpt><trkpt lat="43.1425719" lon="12.8973754"><ele>1040.0</ele><time>2026-04-25T11:43:14.545Z</time></trkpt><trkpt lat="43.14264" lon="12.8974368"><ele>1040.0</ele><time>2026-04-25T11:43:15.542Z</time></trkpt><trkpt lat="43.1427359" lon="12.8974873"><ele>1042.4</ele><time>2026-04-25T11:43:16.55Z</time></trkpt><trkpt lat="43.1428333" lon="12.8975381"><ele>1044.8</ele><time>2026-04-25T11:43:17.545Z</time></trkpt><trkpt lat="43.1429306" lon="12.8975844"><ele>1047.2</ele><time>2026-04-25T11:43:18.541Z</time></trkpt><trkpt lat="43.1430336" lon="12.8976309"><ele>1049.6</ele><time>2026-04-25T11:43:19.544Z</time></trkpt><trkpt lat="43.1431375" lon="12.8976772"><ele>1052.0</ele><time>2026-04-25T11:43:20.532Z</time></trkpt><trkpt lat="43.1432486" lon="12.8977327"><ele>1053.5</ele><time>2026-04-25T11:43:21.533Z</time></trkpt><trkpt lat="43.14335" lon="12.8977921"><ele>1055.0</ele><time>2026-04-25T11:43:22.532Z</time></trkpt><trkpt lat="43.1434495" lon="12.8978449"><ele>1056.5</ele><time>2026-04-25T11:43:23.54Z</time></trkpt><trkpt lat="43.1435548" lon="12.8979096"><ele>1058.0</ele><time>2026-04-25T11:43:24.541Z</time></trkpt><trkpt lat="43.1436652" lon="12.8979647"><ele>1058.0</ele><time>2026-04-25T11:43:25.541Z</time></trkpt><trkpt lat="43.1437488" lon="12.8980306"><ele>1058.0</ele><time>2026-04-25T11:43:26.536Z</time></trkpt><trkpt lat="43.1438246" lon="12.8980869"><ele>1058.0</ele><time>2026-04-25T11:43:27.541Z</time></trkpt><trkpt lat="43.1438985" lon="12.8981378"><ele>1058.0</ele><time>2026-04-25T11:43:28.541Z</time></trkpt><trkpt lat="43.143982" lon="12.898183"><ele>1058.0</ele><time>2026-04-25T11:43:29.542Z</time></trkpt><trkpt lat="43.1440552" lon="12.89824"><ele>1058.0</ele><time>2026-04-25T11:43:30.545Z</time></trkpt><trkpt lat="43.1441238" lon="12.8982917"><ele>1058.0</ele><time>2026-04-25T11:43:31.545Z</time></trkpt><trkpt lat="43.1441987" lon="12.8983329"><ele>1058.0</ele><time>2026-04-25T11:43:32.552Z</time></trkpt><trkpt lat="43.1442863" lon="12.8983626"><ele>1058.0</ele><time>2026-04-25T11:43:33.573Z</time></trkpt><trkpt lat="43.1443827" lon="12.8983922"><ele>1058.0</ele><time>2026-04-25T11:43:34.571Z</time></trkpt><trkpt lat="43.1444653" lon="12.898412"><ele>1058.0</ele><time>2026-04-25T11:43:35.56Z</time></trkpt><trkpt lat="43.1445413" lon="12.8984353"><ele>1058.0</ele><time>2026-04-25T11:43:36.549Z</time></trkpt><trkpt lat="43.1446235" lon="12.8984518"><ele>1058.0</ele><time>2026-04-25T11:43:37.553Z</time></trkpt><trkpt lat="43.1447082" lon="12.8984753"><ele>1058.0</ele><time>2026-04-25T11:43:38.557Z</time></trkpt><trkpt lat="43.144791" lon="12.8984739"><ele>1058.0</ele><time>2026-04-25T11:43:39.553Z</time></trkpt><trkpt lat="43.1448644" lon="12.8984649"><ele>1058.0</ele><time>2026-04-25T11:43:40.556Z</time></trkpt><trkpt lat="43.1449323" lon="12.8984522"><ele>1058.0</ele><time>2026-04-25T11:43:41.575Z</time></trkpt><trkpt lat="43.144997" lon="12.8984376"><ele>1058.0</ele><time>2026-04-25T11:43:42.55Z</time></trkpt><trkpt lat="43.1450675" lon="12.8984164"><ele>1058.0</ele><time>2026-04-25T11:43:43.556Z</time></trkpt><trkpt lat="43.1451946" lon="12.898366"><ele>1049.8</ele><time>2026-04-25T11:43:45.571Z</time></trkpt><trkpt lat="43.1452599" lon="12.8983329"><ele>1041.6</ele><time>2026-04-25T11:43:46.599Z</time></trkpt><trkpt lat="43.1453275" lon="12.8983041"><ele>1033.4</ele><time>2026-04-25T11:43:47.574Z</time></trkpt><trkpt lat="43.1454578" lon="12.8982785"><ele>1025.2</ele><time>2026-04-25T11:43:49.572Z</time></trkpt><trkpt lat="43.1455261" lon="12.8982755"><ele>1017.0</ele><time>2026-04-25T11:43:50.552Z</time></trkpt><trkpt lat="43.1456419" lon="12.8982587"><ele>1017.0</ele><time>2026-04-25T11:43:52.572Z</time></trkpt><trkpt lat="43.1457044" lon="12.8982244"><ele>1016.9999999999999</ele><time>2026-04-25T11:43:53.577Z</time></trkpt><trkpt lat="43.1457645" lon="12.898189"><ele>1017.0</ele><time>2026-04-25T11:43:54.598Z</time></trkpt><trkpt lat="43.1458175" lon="12.8981347"><ele>1017.0</ele><time>2026-04-25T11:43:55.551Z</time></trkpt><trkpt lat="43.1458659" lon="12.8980687"><ele>1016.9999999999999</ele><time>2026-04-25T11:43:56.551Z</time></trkpt><trkpt lat="43.1459201" lon="12.8979877"><ele>1017.0</ele><time>2026-04-25T11:43:57.553Z</time></trkpt><trkpt lat="43.1459738" lon="12.897904"><ele>1017.0</ele><time>2026-04-25T11:43:58.553Z</time></trkpt><trkpt lat="43.1460258" lon="12.8978384"><ele>1016.1666666666666</ele><time>2026-04-25T11:43:59.554Z</time></trkpt><trkpt lat="43.1460664" lon="12.8977576"><ele>1015.3333333333333</ele><time>2026-04-25T11:44:00.548Z</time></trkpt><trkpt lat="43.1461082" lon="12.8976658"><ele>1014.5</ele><time>2026-04-25T11:44:01.551Z</time></trkpt><trkpt lat="43.146136" lon="12.8975881"><ele>1013.6666666666666</ele><time>2026-04-25T11:44:02.55Z</time></trkpt><trkpt lat="43.1461694" lon="12.8974875"><ele>1012.8333333333333</ele><time>2026-04-25T11:44:03.545Z</time></trkpt><trkpt lat="43.1462102" lon="12.8973869"><ele>1012.0</ele><time>2026-04-25T11:44:04.547Z</time></trkpt><trkpt lat="43.1462566" lon="12.8972928"><ele>1010.6666666666666</ele><time>2026-04-25T11:44:05.547Z</time></trkpt><trkpt lat="43.1463017" lon="12.8971906"><ele>1009.3333333333333</ele><time>2026-04-25T11:44:06.558Z</time></trkpt><trkpt lat="43.1463461" lon="12.8970881"><ele>1008.0</ele><time>2026-04-25T11:44:07.547Z</time></trkpt><trkpt lat="43.1463991" lon="12.8969823"><ele>1006.6666666666667</ele><time>2026-04-25T11:44:08.554Z</time></trkpt><trkpt lat="43.1464432" lon="12.896882"><ele>1005.3333333333334</ele><time>2026-04-25T11:44:09.548Z</time></trkpt><trkpt lat="43.1464843" lon="12.8967813"><ele>1004.0</ele><time>2026-04-25T11:44:10.554Z</time></trkpt><trkpt lat="43.1465235" lon="12.8966822"><ele>1001.5000000000001</ele><time>2026-04-25T11:44:11.547Z</time></trkpt><trkpt lat="43.1465605" lon="12.8965852"><ele>999.0</ele><time>2026-04-25T11:44:12.548Z</time></trkpt><trkpt lat="43.146585" lon="12.896486"><ele>996.5</ele><time>2026-04-25T11:44:13.553Z</time></trkpt><trkpt lat="43.1466134" lon="12.8963936"><ele>994.0</ele><time>2026-04-25T11:44:14.551Z</time></trkpt><trkpt lat="43.146632" lon="12.8962983"><ele>991.5000000000001</ele><time>2026-04-25T11:44:15.552Z</time></trkpt><trkpt lat="43.1466489" lon="12.896196"><ele>989.0</ele><time>2026-04-25T11:44:16.548Z</time></trkpt><trkpt lat="43.1466578" lon="12.8960895"><ele>989.0000000000001</ele><time>2026-04-25T11:44:17.549Z</time></trkpt><trkpt lat="43.1466605" lon="12.8959825"><ele>989.0</ele><time>2026-04-25T11:44:18.545Z</time></trkpt><trkpt lat="43.1466659" lon="12.8958796"><ele>989.0</ele><time>2026-04-25T11:44:19.551Z</time></trkpt><trkpt lat="43.1466825" lon="12.8957717"><ele>989.0</ele><time>2026-04-25T11:44:20.547Z</time></trkpt><trkpt lat="43.1467064" lon="12.8956605"><ele>989.0000000000001</ele><time>2026-04-25T11:44:21.553Z</time></trkpt><trkpt lat="43.146729" lon="12.8955475"><ele>989.0</ele><time>2026-04-25T11:44:22.545Z</time></trkpt><trkpt lat="43.1467416" lon="12.8954436"><ele>988.7142857142857</ele><time>2026-04-25T11:44:23.555Z</time></trkpt><trkpt lat="43.1467571" lon="12.8953443"><ele>988.4285714285713</ele><time>2026-04-25T11:44:24.55Z</time></trkpt><trkpt lat="43.1467719" lon="12.8952384"><ele>988.1428571428571</ele><time>2026-04-25T11:44:25.551Z</time></trkpt><trkpt lat="43.1467777" lon="12.8951351"><ele>987.8571428571429</ele><time>2026-04-25T11:44:26.554Z</time></trkpt><trkpt lat="43.1467791" lon="12.8950394"><ele>987.5714285714286</ele><time>2026-04-25T11:44:27.553Z</time></trkpt><trkpt lat="43.1467718" lon="12.894952"><ele>987.2857142857142</ele><time>2026-04-25T11:44:28.553Z</time></trkpt><trkpt lat="43.1467547" lon="12.8948611"><ele>987.0</ele><time>2026-04-25T11:44:29.555Z</time></trkpt><trkpt lat="43.1467304" lon="12.8947784"><ele>986.4000000000001</ele><time>2026-04-25T11:44:30.593Z</time></trkpt><trkpt lat="43.1466876" lon="12.894683"><ele>985.8000000000001</ele><time>2026-04-25T11:44:31.569Z</time></trkpt><trkpt lat="43.1466351" lon="12.8945705"><ele>985.2</ele><time>2026-04-25T11:44:32.574Z</time></trkpt><trkpt lat="43.1465846" lon="12.8944558"><ele>984.6</ele><time>2026-04-25T11:44:33.568Z</time></trkpt><trkpt lat="43.1465344" lon="12.8943482"><ele>984.0</ele><time>2026-04-25T11:44:34.575Z</time></trkpt><trkpt lat="43.1464848" lon="12.8942564"><ele>983.3333333333334</ele><time>2026-04-25T11:44:35.59Z</time></trkpt><trkpt lat="43.1464352" lon="12.8941731"><ele>982.6666666666667</ele><time>2026-04-25T11:44:36.597Z</time></trkpt><trkpt lat="43.1463921" lon="12.8940909"><ele>982.0</ele><time>2026-04-25T11:44:37.605Z</time></trkpt><trkpt lat="43.146352" lon="12.894024"><ele>981.3333333333334</ele><time>2026-04-25T11:44:38.592Z</time></trkpt><trkpt lat="43.1463046" lon="12.8939524"><ele>980.6666666666667</ele><time>2026-04-25T11:44:39.599Z</time></trkpt><trkpt lat="43.1462541" lon="12.8938661"><ele>980.0</ele><time>2026-04-25T11:44:40.594Z</time></trkpt><trkpt lat="43.1461978" lon="12.8937746"><ele>980.0000000000001</ele><time>2026-04-25T11:44:41.6Z</time></trkpt><trkpt lat="43.1461521" lon="12.8936797"><ele>980.0</ele><time>2026-04-25T11:44:42.605Z</time></trkpt><trkpt lat="43.1461047" lon="12.8935886"><ele>980.0</ele><time>2026-04-25T11:44:43.61Z</time></trkpt><trkpt lat="43.1460647" lon="12.8934991"><ele>980.0</ele><time>2026-04-25T11:44:44.612Z</time></trkpt><trkpt lat="43.1460207" lon="12.8934103"><ele>980.0000000000001</ele><time>2026-04-25T11:44:45.582Z</time></trkpt><trkpt lat="43.1459884" lon="12.8933242"><ele>980.0</ele><time>2026-04-25T11:44:46.587Z</time></trkpt><trkpt lat="43.1459532" lon="12.8932336"><ele>978.5000000000001</ele><time>2026-04-25T11:44:47.584Z</time></trkpt><trkpt lat="43.1459191" lon="12.8931428"><ele>977.0</ele><time>2026-04-25T11:44:48.585Z</time></trkpt><trkpt lat="43.145875" lon="12.8930485"><ele>975.5</ele><time>2026-04-25T11:44:49.589Z</time></trkpt><trkpt lat="43.145836" lon="12.8929551"><ele>974.0</ele><time>2026-04-25T11:44:50.601Z</time></trkpt><trkpt lat="43.1457866" lon="12.8928589"><ele>972.5000000000001</ele><time>2026-04-25T11:44:51.574Z</time></trkpt><trkpt lat="43.145743" lon="12.8927687"><ele>971.0</ele><time>2026-04-25T11:44:52.58Z</time></trkpt><trkpt lat="43.1457025" lon="12.8926786"><ele>966.1666666666667</ele><time>2026-04-25T11:44:53.595Z</time></trkpt><trkpt lat="43.1456685" lon="12.8925986"><ele>961.3333333333334</ele><time>2026-04-25T11:44:54.602Z</time></trkpt><trkpt lat="43.1456371" lon="12.89251"><ele>956.5</ele><time>2026-04-25T11:44:55.598Z</time></trkpt><trkpt lat="43.1456115" lon="12.8924203"><ele>951.6666666666667</ele><time>2026-04-25T11:44:56.6Z</time></trkpt><trkpt lat="43.1455849" lon="12.8923319"><ele>946.8333333333334</ele><time>2026-04-25T11:44:57.579Z</time></trkpt><trkpt lat="43.1455541" lon="12.8921645"><ele>942.0</ele><time>2026-04-25T11:44:59.572Z</time></trkpt><trkpt lat="43.1455923" lon="12.8920109"><ele>940.8333333333334</ele><time>2026-04-25T11:45:01.546Z</time></trkpt><trkpt lat="43.1456317" lon="12.8919284"><ele>939.6666666666667</ele><time>2026-04-25T11:45:02.555Z</time></trkpt><trkpt lat="43.145668" lon="12.8918405"><ele>938.5</ele><time>2026-04-25T11:45:03.562Z</time></trkpt><trkpt lat="43.1457014" lon="12.8917575"><ele>937.3333333333334</ele><time>2026-04-25T11:45:04.572Z</time></trkpt><trkpt lat="43.1457377" lon="12.8916805"><ele>936.1666666666667</ele><time>2026-04-25T11:45:05.575Z</time></trkpt><trkpt lat="43.145809" lon="12.8915528"><ele>935.0</ele><time>2026-04-25T11:45:07.576Z</time></trkpt><trkpt lat="43.1458646" lon="12.8914951"><ele>939.6</ele><time>2026-04-25T11:45:08.598Z</time></trkpt><trkpt lat="43.1459272" lon="12.8914508"><ele>944.2</ele><time>2026-04-25T11:45:09.594Z</time></trkpt><trkpt lat="43.145992" lon="12.8914177"><ele>948.8</ele><time>2026-04-25T11:45:10.575Z</time></trkpt><trkpt lat="43.1461194" lon="12.8913956"><ele>953.4</ele><time>2026-04-25T11:45:12.6Z</time></trkpt><trkpt lat="43.1462396" lon="12.891395"><ele>958.0</ele><time>2026-04-25T11:45:14.597Z</time></trkpt><trkpt lat="43.1463504" lon="12.8914169"><ele>957.9999999999999</ele><time>2026-04-25T11:45:16.604Z</time></trkpt><trkpt lat="43.1464617" lon="12.8914637"><ele>958.0</ele><time>2026-04-25T11:45:18.605Z</time></trkpt><trkpt lat="43.1465229" lon="12.8914877"><ele>958.0</ele><time>2026-04-25T11:45:19.601Z</time></trkpt><trkpt lat="43.1465914" lon="12.8915126"><ele>958.0</ele><time>2026-04-25T11:45:20.602Z</time></trkpt><trkpt lat="43.1466525" lon="12.891543"><ele>957.9999999999999</ele><time>2026-04-25T11:45:21.599Z</time></trkpt><trkpt lat="43.1467597" lon="12.8916037"><ele>958.0</ele><time>2026-04-25T11:45:23.6Z</time></trkpt><trkpt lat="43.1468601" lon="12.8916556"><ele>957.4</ele><time>2026-04-25T11:45:25.592Z</time></trkpt><trkpt lat="43.1469545" lon="12.8917266"><ele>956.8</ele><time>2026-04-25T11:45:27.599Z</time></trkpt><trkpt lat="43.1470578" lon="12.8917917"><ele>956.2</ele><time>2026-04-25T11:45:29.602Z</time></trkpt><trkpt lat="43.1471169" lon="12.8918227"><ele>955.6</ele><time>2026-04-25T11:45:30.575Z</time></trkpt><trkpt lat="43.1472224" lon="12.8919078"><ele>955.0</ele><time>2026-04-25T11:45:32.596Z</time></trkpt><trkpt lat="43.1473208" lon="12.8920125"><ele>953.3333333333333</ele><time>2026-04-25T11:45:34.596Z</time></trkpt><trkpt lat="43.1473811" lon="12.8920748"><ele>951.6666666666666</ele><time>2026-04-25T11:45:35.602Z</time></trkpt><trkpt lat="43.147438" lon="12.8921465"><ele>950.0</ele><time>2026-04-25T11:45:36.595Z</time></trkpt><trkpt lat="43.1474866" lon="12.8922191"><ele>948.3333333333333</ele><time>2026-04-25T11:45:37.6Z</time></trkpt><trkpt lat="43.1475708" lon="12.892338"><ele>946.6666666666666</ele><time>2026-04-25T11:45:39.606Z</time></trkpt><trkpt lat="43.1476168" lon="12.8924139"><ele>945.0</ele><time>2026-04-25T11:45:41.602Z</time></trkpt><trkpt lat="43.1476719" lon="12.8924841"><ele>947.4</ele><time>2026-04-25T11:46:04.586Z</time></trkpt><trkpt lat="43.14774" lon="12.8926403"><ele>949.8</ele><time>2026-04-25T11:46:06.607Z</time></trkpt><trkpt lat="43.1477981" lon="12.8927591"><ele>952.2</ele><time>2026-04-25T11:46:07.594Z</time></trkpt><trkpt lat="43.1478613" lon="12.8928784"><ele>954.6</ele><time>2026-04-25T11:46:08.6Z</time></trkpt><trkpt lat="43.147929" lon="12.8929805"><ele>957.0</ele><time>2026-04-25T11:46:09.595Z</time></trkpt><trkpt lat="43.1479882" lon="12.8930842"><ele>957.0</ele><time>2026-04-25T11:46:10.602Z</time></trkpt><trkpt lat="43.1480421" lon="12.8931826"><ele>957.0</ele><time>2026-04-25T11:46:11.594Z</time></trkpt><trkpt lat="43.1480945" lon="12.8932808"><ele>957.0</ele><time>2026-04-25T11:46:12.59Z</time></trkpt><trkpt lat="43.1481461" lon="12.8933651"><ele>957.0</ele><time>2026-04-25T11:46:13.587Z</time></trkpt><trkpt lat="43.1481911" lon="12.8934504"><ele>957.0</ele><time>2026-04-25T11:46:14.599Z</time></trkpt><trkpt lat="43.1482353" lon="12.8935476"><ele>957.0</ele><time>2026-04-25T11:46:15.619Z</time></trkpt><trkpt lat="43.1482809" lon="12.8936471"><ele>953.0</ele><time>2026-04-25T11:46:16.622Z</time></trkpt><trkpt lat="43.1483139" lon="12.8937497"><ele>949.0</ele><time>2026-04-25T11:46:17.618Z</time></trkpt><trkpt lat="43.1483347" lon="12.8938527"><ele>945.0</ele><time>2026-04-25T11:46:18.617Z</time></trkpt><trkpt lat="43.1483463" lon="12.8939437"><ele>941.0</ele><time>2026-04-25T11:46:19.629Z</time></trkpt><trkpt lat="43.1483717" lon="12.8940757"><ele>937.0</ele><time>2026-04-25T11:46:21.624Z</time></trkpt><trkpt lat="43.1484486" lon="12.8941097"><ele>933.0</ele><time>2026-04-25T11:46:24.607Z</time></trkpt><trkpt lat="43.1484932" lon="12.893988"><ele>933.0</ele><time>2026-04-25T11:46:27.587Z</time></trkpt><trkpt lat="43.1484981" lon="12.8938148"><ele>933.0</ele><time>2026-04-25T11:46:29.588Z</time></trkpt><trkpt lat="43.1485009" lon="12.8937258"><ele>933.0</ele><time>2026-04-25T11:46:30.57Z</time></trkpt><trkpt lat="43.1485039" lon="12.8936152"><ele>933.0</ele><time>2026-04-25T11:46:31.53Z</time></trkpt><trkpt lat="43.1485135" lon="12.8935044"><ele>933.0</ele><time>2026-04-25T11:46:32.572Z</time></trkpt><trkpt lat="43.1485225" lon="12.8933946"><ele>933.0</ele><time>2026-04-25T11:46:33.564Z</time></trkpt><trkpt lat="43.14854" lon="12.8932957"><ele>932.4</ele><time>2026-04-25T11:46:34.564Z</time></trkpt><trkpt lat="43.1485481" lon="12.8932028"><ele>931.8</ele><time>2026-04-25T11:46:35.56Z</time></trkpt><trkpt lat="43.1485254" lon="12.893059"><ele>931.2</ele><time>2026-04-25T11:46:37.56Z</time></trkpt><trkpt lat="43.1485014" lon="12.8929411"><ele>930.6</ele><time>2026-04-25T11:46:39.566Z</time></trkpt><trkpt lat="43.1485" lon="12.8928266"><ele>930.0</ele><time>2026-04-25T11:46:41.575Z</time></trkpt><trkpt lat="43.1484993" lon="12.8926813"><ele>927.8</ele><time>2026-04-25T11:46:43.563Z</time></trkpt><trkpt lat="43.1485075" lon="12.8925894"><ele>925.6</ele><time>2026-04-25T11:46:44.538Z</time></trkpt><trkpt lat="43.1485156" lon="12.8924985"><ele>923.4000000000001</ele><time>2026-04-25T11:46:45.549Z</time></trkpt><trkpt lat="43.1485361" lon="12.89235"><ele>921.2</ele><time>2026-04-25T11:46:47.549Z</time></trkpt><trkpt lat="43.1485355" lon="12.8922006"><ele>919.0</ele><time>2026-04-25T11:46:49.565Z</time></trkpt><trkpt lat="43.148541" lon="12.8920384"><ele>918.9999999999999</ele><time>2026-04-25T11:46:51.545Z</time></trkpt><trkpt lat="43.1485548" lon="12.8919507"><ele>919.0</ele><time>2026-04-25T11:46:52.57Z</time></trkpt><trkpt lat="43.1485707" lon="12.8918591"><ele>919.0</ele><time>2026-04-25T11:46:53.544Z</time></trkpt><trkpt lat="43.1485799" lon="12.8917584"><ele>919.0</ele><time>2026-04-25T11:46:54.541Z</time></trkpt><trkpt lat="43.1486103" lon="12.8915873"><ele>918.9999999999999</ele><time>2026-04-25T11:46:56.548Z</time></trkpt><trkpt lat="43.1486309" lon="12.8914371"><ele>919.0</ele><time>2026-04-25T11:46:58.55Z</time></trkpt><trkpt lat="43.1486463" lon="12.8912824"><ele>917.5714285714286</ele><time>2026-04-25T11:47:00.564Z</time></trkpt><trkpt lat="43.1486568" lon="12.8911932"><ele>916.1428571428571</ele><time>2026-04-25T11:47:01.566Z</time></trkpt><trkpt lat="43.1486821" lon="12.8910999"><ele>914.7142857142857</ele><time>2026-04-25T11:47:02.564Z</time></trkpt><trkpt lat="43.1486956" lon="12.8909918"><ele>913.2857142857142</ele><time>2026-04-25T11:47:03.549Z</time></trkpt><trkpt lat="43.1487058" lon="12.8908944"><ele>911.8571428571429</ele><time>2026-04-25T11:47:04.564Z</time></trkpt><trkpt lat="43.1487196" lon="12.8908083"><ele>910.4285714285713</ele><time>2026-04-25T11:47:05.574Z</time></trkpt><trkpt lat="43.148716" lon="12.8907168"><ele>909.0</ele><time>2026-04-25T11:47:06.573Z</time></trkpt><trkpt lat="43.148706" lon="12.8906183"><ele>907.8333333333334</ele><time>2026-04-25T11:47:07.569Z</time></trkpt><trkpt lat="43.1486881" lon="12.8905279"><ele>906.6666666666667</ele><time>2026-04-25T11:47:08.593Z</time></trkpt><trkpt lat="43.1486634" lon="12.8904394"><ele>905.5</ele><time>2026-04-25T11:47:09.592Z</time></trkpt><trkpt lat="43.1486531" lon="12.8903489"><ele>904.3333333333334</ele><time>2026-04-25T11:47:10.595Z</time></trkpt><trkpt lat="43.1486281" lon="12.890196"><ele>903.1666666666667</ele><time>2026-04-25T11:47:12.584Z</time></trkpt><trkpt lat="43.1485987" lon="12.8900496"><ele>902.0</ele><time>2026-04-25T11:47:14.575Z</time></trkpt><trkpt lat="43.1485787" lon="12.8899261"><ele>900.0</ele><time>2026-04-25T11:47:16.581Z</time></trkpt><trkpt lat="43.1485637" lon="12.889789"><ele>898.0</ele><time>2026-04-25T11:47:19.621Z</time></trkpt><trkpt lat="43.1485368" lon="12.8896722"><ele>896.0</ele><time>2026-04-25T11:47:21.572Z</time></trkpt><trkpt lat="43.148523" lon="12.8895089"><ele>894.0</ele><time>2026-04-25T11:47:23.592Z</time></trkpt><trkpt lat="43.148501" lon="12.8894216"><ele>892.0</ele><time>2026-04-25T11:47:24.593Z</time></trkpt><trkpt lat="43.1484756" lon="12.8893215"><ele>890.4285714285714</ele><time>2026-04-25T11:47:25.571Z</time></trkpt><trkpt lat="43.1484578" lon="12.8892162"><ele>888.8571428571429</ele><time>2026-04-25T11:47:26.574Z</time></trkpt><trkpt lat="43.1484397" lon="12.8891188"><ele>887.2857142857142</ele><time>2026-04-25T11:47:27.596Z</time></trkpt><trkpt lat="43.1484239" lon="12.8890328"><ele>885.7142857142858</ele><time>2026-04-25T11:47:28.598Z</time></trkpt><trkpt lat="43.1483992" lon="12.8889488"><ele>884.1428571428572</ele><time>2026-04-25T11:47:29.595Z</time></trkpt><trkpt lat="43.1483689" lon="12.8888604"><ele>882.5714285714286</ele><time>2026-04-25T11:47:30.575Z</time></trkpt><trkpt lat="43.1483377" lon="12.8887782"><ele>881.0</ele><time>2026-04-25T11:47:31.596Z</time></trkpt><trkpt lat="43.148293" lon="12.8886881"><ele>881.0000000000001</ele><time>2026-04-25T11:47:32.572Z</time></trkpt><trkpt lat="43.1482501" lon="12.8885846"><ele>881.0</ele><time>2026-04-25T11:47:33.591Z</time></trkpt><trkpt lat="43.1481986" lon="12.8885195"><ele>881.0</ele><time>2026-04-25T11:47:34.597Z</time></trkpt><trkpt lat="43.1481423" lon="12.888447"><ele>881.0</ele><time>2026-04-25T11:47:35.57Z</time></trkpt><trkpt lat="43.148082" lon="12.8883771"><ele>881.0000000000001</ele><time>2026-04-25T11:47:36.569Z</time></trkpt><trkpt lat="43.1480187" lon="12.8883142"><ele>881.0</ele><time>2026-04-25T11:47:37.564Z</time></trkpt><trkpt lat="43.1479539" lon="12.8882573"><ele>881.3333333333334</ele><time>2026-04-25T11:47:38.559Z</time></trkpt><trkpt lat="43.1478943" lon="12.8881974"><ele>881.6666666666667</ele><time>2026-04-25T11:47:39.563Z</time></trkpt><trkpt lat="43.1478325" lon="12.8881321"><ele>882.0</ele><time>2026-04-25T11:47:40.556Z</time></trkpt><trkpt lat="43.1477703" lon="12.8880689"><ele>882.3333333333333</ele><time>2026-04-25T11:47:41.565Z</time></trkpt><trkpt lat="43.1477096" lon="12.8880084"><ele>882.6666666666666</ele><time>2026-04-25T11:47:42.562Z</time></trkpt><trkpt lat="43.1476435" lon="12.88795"><ele>883.0</ele><time>2026-04-25T11:47:43.565Z</time></trkpt><trkpt lat="43.1475733" lon="12.887887"><ele>882.9999999999999</ele><time>2026-04-25T11:47:44.556Z</time></trkpt><trkpt lat="43.1475029" lon="12.8878163"><ele>883.0</ele><time>2026-04-25T11:47:45.554Z</time></trkpt><trkpt lat="43.1474187" lon="12.8877629"><ele>883.0</ele><time>2026-04-25T11:47:46.551Z</time></trkpt><trkpt lat="43.1473449" lon="12.8877"><ele>883.0</ele><time>2026-04-25T11:47:47.551Z</time></trkpt><trkpt lat="43.1472744" lon="12.8876274"><ele>882.9999999999999</ele><time>2026-04-25T11:47:48.551Z</time></trkpt><trkpt lat="43.1472106" lon="12.8875553"><ele>883.0</ele><time>2026-04-25T11:47:49.559Z</time></trkpt><trkpt lat="43.1471548" lon="12.8874855"><ele>880.9999999999999</ele><time>2026-04-25T11:47:50.549Z</time></trkpt><trkpt lat="43.147091" lon="12.8874271"><ele>879.0</ele><time>2026-04-25T11:47:51.556Z</time></trkpt><trkpt lat="43.1470249" lon="12.8873619"><ele>877.0</ele><time>2026-04-25T11:47:52.552Z</time></trkpt><trkpt lat="43.1469514" lon="12.8873018"><ele>875.0</ele><time>2026-04-25T11:47:53.558Z</time></trkpt><trkpt lat="43.1468736" lon="12.8872415"><ele>872.9999999999999</ele><time>2026-04-25T11:47:54.561Z</time></trkpt><trkpt lat="43.1467869" lon="12.8871847"><ele>871.0</ele><time>2026-04-25T11:47:55.569Z</time></trkpt><trkpt lat="43.1467186" lon="12.8871284"><ele>870.9999999999999</ele><time>2026-04-25T11:47:56.553Z</time></trkpt><trkpt lat="43.1466532" lon="12.8870677"><ele>871.0</ele><time>2026-04-25T11:47:57.56Z</time></trkpt><trkpt lat="43.1465743" lon="12.8870007"><ele>871.0</ele><time>2026-04-25T11:47:58.565Z</time></trkpt><trkpt lat="43.1465039" lon="12.8869415"><ele>871.0</ele><time>2026-04-25T11:47:59.559Z</time></trkpt><trkpt lat="43.1464346" lon="12.8868731"><ele>870.9999999999999</ele><time>2026-04-25T11:48:00.566Z</time></trkpt><trkpt lat="43.1463682" lon="12.8868084"><ele>871.0</ele><time>2026-04-25T11:48:01.561Z</time></trkpt><trkpt lat="43.1463001" lon="12.8867551"><ele>866.4</ele><time>2026-04-25T11:48:02.571Z</time></trkpt><trkpt lat="43.1462192" lon="12.8866956"><ele>861.8</ele><time>2026-04-25T11:48:03.565Z</time></trkpt><trkpt lat="43.146133" lon="12.8866346"><ele>857.1999999999999</ele><time>2026-04-25T11:48:04.565Z</time></trkpt><trkpt lat="43.1460556" lon="12.8865649"><ele>852.5999999999999</ele><time>2026-04-25T11:48:05.56Z</time></trkpt><trkpt lat="43.1459654" lon="12.88651"><ele>848.0</ele><time>2026-04-25T11:48:06.568Z</time></trkpt><trkpt lat="43.1458791" lon="12.8864483"><ele>848.0000000000001</ele><time>2026-04-25T11:48:07.564Z</time></trkpt><trkpt lat="43.1457921" lon="12.8863897"><ele>848.0</ele><time>2026-04-25T11:48:08.567Z</time></trkpt><trkpt lat="43.1457144" lon="12.8863327"><ele>848.0</ele><time>2026-04-25T11:48:09.561Z</time></trkpt><trkpt lat="43.1456361" lon="12.8862841"><ele>848.0</ele><time>2026-04-25T11:48:10.569Z</time></trkpt><trkpt lat="43.1455726" lon="12.8862338"><ele>848.0000000000001</ele><time>2026-04-25T11:48:11.56Z</time></trkpt><trkpt lat="43.1455101" lon="12.8861845"><ele>848.0</ele><time>2026-04-25T11:48:12.565Z</time></trkpt><trkpt lat="43.1454479" lon="12.8861358"><ele>848.5000000000001</ele><time>2026-04-25T11:48:13.571Z</time></trkpt><trkpt lat="43.145387" lon="12.8860902"><ele>849.0</ele><time>2026-04-25T11:48:14.574Z</time></trkpt><trkpt lat="43.1453218" lon="12.8860526"><ele>849.5</ele><time>2026-04-25T11:48:15.57Z</time></trkpt><trkpt lat="43.1452462" lon="12.88602"><ele>850.0</ele><time>2026-04-25T11:48:16.571Z</time></trkpt><trkpt lat="43.1451631" lon="12.8859892"><ele>850.5000000000001</ele><time>2026-04-25T11:48:17.567Z</time></trkpt><trkpt lat="43.1450813" lon="12.8859664"><ele>851.0</ele><time>2026-04-25T11:48:18.57Z</time></trkpt><trkpt lat="43.1449996" lon="12.8859407"><ele>846.5000000000001</ele><time>2026-04-25T11:48:19.564Z</time></trkpt><trkpt lat="43.1449201" lon="12.8859107"><ele>842.0</ele><time>2026-04-25T11:48:20.57Z</time></trkpt><trkpt lat="43.14485" lon="12.88588"><ele>837.5</ele><time>2026-04-25T11:48:21.567Z</time></trkpt><trkpt lat="43.1447793" lon="12.8858578"><ele>833.0</ele><time>2026-04-25T11:48:22.562Z</time></trkpt><trkpt lat="43.1447083" lon="12.8858425"><ele>828.5000000000001</ele><time>2026-04-25T11:48:23.589Z</time></trkpt><trkpt lat="43.1446336" lon="12.8858424"><ele>824.0</ele><time>2026-04-25T11:48:24.562Z</time></trkpt><trkpt lat="43.1445568" lon="12.8858566"><ele>822.0</ele><time>2026-04-25T11:48:25.564Z</time></trkpt><trkpt lat="43.1444846" lon="12.885866"><ele>820.0</ele><time>2026-04-25T11:48:26.564Z</time></trkpt><trkpt lat="43.1444086" lon="12.8858745"><ele>818.0</ele><time>2026-04-25T11:48:27.559Z</time></trkpt><trkpt lat="43.1442903" lon="12.8859005"><ele>816.0</ele><time>2026-04-25T11:48:29.557Z</time></trkpt><trkpt lat="43.1441947" lon="12.8859353"><ele>814.0</ele><time>2026-04-25T11:48:31.562Z</time></trkpt><trkpt lat="43.1440915" lon="12.8859504"><ele>807.8000000000001</ele><time>2026-04-25T11:48:33.557Z</time></trkpt><trkpt lat="43.1439964" lon="12.8859617"><ele>801.6</ele><time>2026-04-25T11:48:35.558Z</time></trkpt><trkpt lat="43.1439207" lon="12.8859928"><ele>795.4</ele><time>2026-04-25T11:48:37.556Z</time></trkpt><trkpt lat="43.1438126" lon="12.8860424"><ele>789.2</ele><time>2026-04-25T11:48:39.563Z</time></trkpt><trkpt lat="43.1437178" lon="12.8861274"><ele>783.0</ele><time>2026-04-25T11:48:41.558Z</time></trkpt><trkpt lat="43.1436411" lon="12.8862002"><ele>783.0</ele><time>2026-04-25T11:48:43.561Z</time></trkpt><trkpt lat="43.1435767" lon="12.8862834"><ele>783.0</ele><time>2026-04-25T11:48:45.557Z</time></trkpt><trkpt lat="43.1435342" lon="12.8864295"><ele>783.0</ele><time>2026-04-25T11:48:47.552Z</time></trkpt><trkpt lat="43.143524" lon="12.8865203"><ele>783.0</ele><time>2026-04-25T11:48:48.556Z</time></trkpt><trkpt lat="43.1435168" lon="12.8866645"><ele>783.0</ele><time>2026-04-25T11:48:50.562Z</time></trkpt><trkpt lat="43.1435107" lon="12.8867903"><ele>785.0</ele><time>2026-04-25T11:48:52.556Z</time></trkpt><trkpt lat="43.1434993" lon="12.886933"><ele>787.0</ele><time>2026-04-25T11:48:54.564Z</time></trkpt><trkpt lat="43.1434932" lon="12.8870579"><ele>789.0</ele><time>2026-04-25T11:48:56.559Z</time></trkpt><trkpt lat="43.1434975" lon="12.8872104"><ele>791.0</ele><time>2026-04-25T11:48:58.553Z</time></trkpt><trkpt lat="43.1434746" lon="12.8873846"><ele>793.0</ele><time>2026-04-25T11:49:00.555Z</time></trkpt><trkpt lat="43.1434673" lon="12.8874883"><ele>793.2</ele><time>2026-04-25T11:49:01.554Z</time></trkpt><trkpt lat="43.1434578" lon="12.8875939"><ele>793.4</ele><time>2026-04-25T11:49:02.554Z</time></trkpt><trkpt lat="43.1434461" lon="12.8876832"><ele>793.6</ele><time>2026-04-25T11:49:03.556Z</time></trkpt><trkpt lat="43.1434132" lon="12.887836"><ele>793.8000000000001</ele><time>2026-04-25T11:49:05.563Z</time></trkpt><trkpt lat="43.1433906" lon="12.8879915"><ele>794.0</ele><time>2026-04-25T11:49:07.568Z</time></trkpt><trkpt lat="43.1433427" lon="12.8881431"><ele>794.0</ele><time>2026-04-25T11:49:09.557Z</time></trkpt><trkpt lat="43.1433226" lon="12.8882283"><ele>794.0</ele><time>2026-04-25T11:49:10.551Z</time></trkpt><trkpt lat="43.1432951" lon="12.8883205"><ele>794.0</ele><time>2026-04-25T11:49:11.553Z</time></trkpt><trkpt lat="43.1432776" lon="12.8884194"><ele>794.0</ele><time>2026-04-25T11:49:12.558Z</time></trkpt><trkpt lat="43.1432601" lon="12.888517"><ele>794.0</ele><time>2026-04-25T11:49:13.551Z</time></trkpt><trkpt lat="43.1432427" lon="12.8886209"><ele>794.0</ele><time>2026-04-25T11:49:14.564Z</time></trkpt><trkpt lat="43.1432233" lon="12.8887345"><ele>794.0</ele><time>2026-04-25T11:49:15.552Z</time></trkpt><trkpt lat="43.1431985" lon="12.8888439"><ele>789.4000000000001</ele><time>2026-04-25T11:49:16.571Z</time></trkpt><trkpt lat="43.1431809" lon="12.8889681"><ele>784.8</ele><time>2026-04-25T11:49:17.556Z</time></trkpt><trkpt lat="43.1431603" lon="12.889099"><ele>780.2</ele><time>2026-04-25T11:49:18.569Z</time></trkpt><trkpt lat="43.1431399" lon="12.8892283"><ele>775.5999999999999</ele><time>2026-04-25T11:49:19.561Z</time></trkpt><trkpt lat="43.1431251" lon="12.8893482"><ele>771.0</ele><time>2026-04-25T11:49:20.559Z</time></trkpt><trkpt lat="43.1431156" lon="12.8894888"><ele>771.0</ele><time>2026-04-25T11:49:21.558Z</time></trkpt><trkpt lat="43.1431186" lon="12.8896157"><ele>771.0</ele><time>2026-04-25T11:49:22.555Z</time></trkpt><trkpt lat="43.1431117" lon="12.8897157"><ele>771.0</ele><time>2026-04-25T11:49:23.565Z</time></trkpt><trkpt lat="43.1430997" lon="12.8898191"><ele>771.0</ele><time>2026-04-25T11:49:24.557Z</time></trkpt><trkpt lat="43.1430797" lon="12.8899161"><ele>771.0</ele><time>2026-04-25T11:49:25.559Z</time></trkpt><trkpt lat="43.1430601" lon="12.8900169"><ele>771.0</ele><time>2026-04-25T11:49:26.552Z</time></trkpt><trkpt lat="43.1430447" lon="12.8901193"><ele>774.1666666666666</ele><time>2026-04-25T11:49:27.554Z</time></trkpt><trkpt lat="43.1430195" lon="12.8902265"><ele>777.3333333333333</ele><time>2026-04-25T11:49:28.554Z</time></trkpt><trkpt lat="43.1429932" lon="12.8903282"><ele>780.5</ele><time>2026-04-25T11:49:29.552Z</time></trkpt><trkpt lat="43.1429777" lon="12.8904208"><ele>783.6666666666666</ele><time>2026-04-25T11:49:30.551Z</time></trkpt><trkpt lat="43.1429691" lon="12.8905253"><ele>786.8333333333333</ele><time>2026-04-25T11:49:32.554Z</time></trkpt><trkpt lat="43.1429267" lon="12.8904417"><ele>790.0</ele><time>2026-04-25T11:49:40.531Z</time></trkpt><trkpt lat="43.1429295" lon="12.8903456"><ele>790.0</ele><time>2026-04-25T11:49:42.523Z</time></trkpt><trkpt lat="43.1429312" lon="12.8902117"><ele>790.0</ele><time>2026-04-25T11:49:44.533Z</time></trkpt><trkpt lat="43.1429265" lon="12.890109"><ele>790.0</ele><time>2026-04-25T11:49:46.536Z</time></trkpt><trkpt lat="43.1429292" lon="12.8899868"><ele>790.0</ele><time>2026-04-25T11:49:48.544Z</time></trkpt><trkpt lat="43.1429473" lon="12.8898501"><ele>790.0</ele><time>2026-04-25T11:49:50.536Z</time></trkpt><trkpt lat="43.1429515" lon="12.8896948"><ele>786.2</ele><time>2026-04-25T11:49:52.555Z</time></trkpt><trkpt lat="43.1429323" lon="12.8895416"><ele>782.4</ele><time>2026-04-25T11:49:54.534Z</time></trkpt><trkpt lat="43.1429166" lon="12.8894041"><ele>778.5999999999999</ele><time>2026-04-25T11:49:56.557Z</time></trkpt><trkpt lat="43.1428972" lon="12.889286"><ele>774.8</ele><time>2026-04-25T11:49:58.555Z</time></trkpt><trkpt lat="43.1428936" lon="12.889159"><ele>771.0</ele><time>2026-04-25T11:50:00.54Z</time></trkpt><trkpt lat="43.1428776" lon="12.8890304"><ele>768.8333333333334</ele><time>2026-04-25T11:50:02.539Z</time></trkpt><trkpt lat="43.1428642" lon="12.8889017"><ele>766.6666666666666</ele><time>2026-04-25T11:50:04.54Z</time></trkpt><trkpt lat="43.1428564" lon="12.8888113"><ele>764.5</ele><time>2026-04-25T11:50:05.544Z</time></trkpt><trkpt lat="43.1428447" lon="12.8887233"><ele>762.3333333333333</ele><time>2026-04-25T11:50:06.534Z</time></trkpt><trkpt lat="43.1428434" lon="12.8886297"><ele>760.1666666666666</ele><time>2026-04-25T11:50:07.541Z</time></trkpt><trkpt lat="43.1428488" lon="12.8884434"><ele>758.0</ele><time>2026-04-25T11:50:09.565Z</time></trkpt><trkpt lat="43.1428484" lon="12.888356"><ele>756.0</ele><time>2026-04-25T11:50:10.556Z</time></trkpt><trkpt lat="43.1428563" lon="12.8881843"><ele>754.0</ele><time>2026-04-25T11:50:12.557Z</time></trkpt><trkpt lat="43.1428621" lon="12.8880855"><ele>752.0</ele><time>2026-04-25T11:50:13.538Z</time></trkpt><trkpt lat="43.142864" lon="12.887987"><ele>750.0</ele><time>2026-04-25T11:50:14.54Z</time></trkpt><trkpt lat="43.1428617" lon="12.8878867"><ele>748.0</ele><time>2026-04-25T11:50:15.551Z</time></trkpt><trkpt lat="43.1428562" lon="12.8877846"><ele>746.0</ele><time>2026-04-25T11:50:16.545Z</time></trkpt><trkpt lat="43.1428497" lon="12.8876812"><ele>744.0</ele><time>2026-04-25T11:50:17.534Z</time></trkpt><trkpt lat="43.1428395" lon="12.8875847"><ele>742.0</ele><time>2026-04-25T11:50:18.566Z</time></trkpt><trkpt lat="43.1428327" lon="12.8874843"><ele>740.0</ele><time>2026-04-25T11:50:19.535Z</time></trkpt><trkpt lat="43.1428216" lon="12.8873666"><ele>738.0</ele><time>2026-04-25T11:50:20.536Z</time></trkpt><trkpt lat="43.1428032" lon="12.8872508"><ele>736.0</ele><time>2026-04-25T11:50:21.559Z</time></trkpt><trkpt lat="43.1427831" lon="12.8871328"><ele>734.0</ele><time>2026-04-25T11:50:22.537Z</time></trkpt><trkpt lat="43.1427575" lon="12.8870131"><ele>734.0</ele><time>2026-04-25T11:50:23.535Z</time></trkpt><trkpt lat="43.1427397" lon="12.8869049"><ele>734.0</ele><time>2026-04-25T11:50:24.55Z</time></trkpt><trkpt lat="43.1427162" lon="12.886804"><ele>734.0</ele><time>2026-04-25T11:50:25.536Z</time></trkpt><trkpt lat="43.1427129" lon="12.8867131"><ele>734.0</ele><time>2026-04-25T11:50:26.532Z</time></trkpt><trkpt lat="43.1426862" lon="12.8865496"><ele>734.0</ele><time>2026-04-25T11:50:28.539Z</time></trkpt><trkpt lat="43.1426736" lon="12.8864494"><ele>734.0</ele><time>2026-04-25T11:50:29.536Z</time></trkpt><trkpt lat="43.1426604" lon="12.8863472"><ele>733.5</ele><time>2026-04-25T11:50:30.546Z</time></trkpt><trkpt lat="43.1426386" lon="12.8862608"><ele>733.0</ele><time>2026-04-25T11:50:31.538Z</time></trkpt><trkpt lat="43.142609" lon="12.8861815"><ele>732.5</ele><time>2026-04-25T11:50:32.542Z</time></trkpt><trkpt lat="43.1425649" lon="12.8861046"><ele>732.0</ele><time>2026-04-25T11:50:34.546Z</time></trkpt><trkpt lat="43.1425215" lon="12.885981"><ele>731.5</ele><time>2026-04-25T11:50:37.561Z</time></trkpt><trkpt lat="43.1424811" lon="12.8858489"><ele>731.0</ele><time>2026-04-25T11:50:39.56Z</time></trkpt><trkpt lat="43.1424447" lon="12.8856925"><ele>731.0</ele><time>2026-04-25T11:50:41.563Z</time></trkpt><trkpt lat="43.1424294" lon="12.885576"><ele>731.0</ele><time>2026-04-25T11:50:43.54Z</time></trkpt><trkpt lat="43.1424503" lon="12.8854417"><ele>731.0</ele><time>2026-04-25T11:50:46.549Z</time></trkpt><trkpt lat="43.1424868" lon="12.8853154"><ele>731.0</ele><time>2026-04-25T11:50:48.542Z</time></trkpt><trkpt lat="43.1425283" lon="12.8851931"><ele>731.0</ele><time>2026-04-25T11:50:50.559Z</time></trkpt><trkpt lat="43.1425479" lon="12.8850649"><ele>728.3333333333333</ele><time>2026-04-25T11:50:52.549Z</time></trkpt><trkpt lat="43.1425663" lon="12.8849699"><ele>725.6666666666666</ele><time>2026-04-25T11:50:54.532Z</time></trkpt><trkpt lat="43.1426179" lon="12.8848692"><ele>723.0</ele><time>2026-04-25T11:50:56.534Z</time></trkpt><trkpt lat="43.1426793" lon="12.8847659"><ele>720.3333333333334</ele><time>2026-04-25T11:50:58.558Z</time></trkpt><trkpt lat="43.1427237" lon="12.8847033"><ele>717.6666666666667</ele><time>2026-04-25T11:50:59.559Z</time></trkpt><trkpt lat="43.1427969" lon="12.8845628"><ele>715.0</ele><time>2026-04-25T11:51:01.54Z</time></trkpt><trkpt lat="43.1428685" lon="12.8844438"><ele>715.0</ele><time>2026-04-25T11:51:03.539Z</time></trkpt><trkpt lat="43.142929" lon="12.88439"><ele>715.0</ele><time>2026-04-25T11:51:05.559Z</time></trkpt><trkpt lat="43.1429833" lon="12.8843244"><ele>715.0</ele><time>2026-04-25T11:51:07.559Z</time></trkpt><trkpt lat="43.1430335" lon="12.8842489"><ele>715.0</ele><time>2026-04-25T11:51:10.536Z</time></trkpt><trkpt lat="43.1430748" lon="12.8841753"><ele>715.0</ele><time>2026-04-25T11:51:14.553Z</time></trkpt><trkpt lat="43.1431443" lon="12.8840797"><ele>715.0</ele><time>2026-04-25T11:51:16.544Z</time></trkpt><trkpt lat="43.143224" lon="12.8839956"><ele>715.0</ele><time>2026-04-25T11:51:17.531Z</time></trkpt><trkpt lat="43.1433103" lon="12.8839218"><ele>715.0</ele><time>2026-04-25T11:51:18.533Z</time></trkpt><trkpt lat="43.1433856" lon="12.8838483"><ele>715.0</ele><time>2026-04-25T11:51:19.524Z</time></trkpt><trkpt lat="43.1434467" lon="12.8837901"><ele>715.0</ele><time>2026-04-25T11:51:20.541Z</time></trkpt><trkpt lat="43.1435006" lon="12.8837444"><ele>715.0</ele><time>2026-04-25T11:51:21.54Z</time></trkpt><trkpt lat="43.1435647" lon="12.8836896"><ele>715.0</ele><time>2026-04-25T11:51:23.527Z</time></trkpt><trkpt lat="43.1436238" lon="12.8836347"><ele>715.0</ele><time>2026-04-25T11:51:25.534Z</time></trkpt><trkpt lat="43.1437013" lon="12.8835811"><ele>715.0</ele><time>2026-04-25T11:51:28.539Z</time></trkpt><trkpt lat="43.1437701" lon="12.8835228"><ele>715.0</ele><time>2026-04-25T11:51:32.536Z</time></trkpt><trkpt lat="43.1436477" lon="12.883555"><ele>715.0</ele><time>2026-04-25T11:51:44.557Z</time></trkpt><trkpt lat="43.1435554" lon="12.8835917"><ele>715.0</ele><time>2026-04-25T11:51:45.56Z</time></trkpt><trkpt lat="43.1434705" lon="12.8836114"><ele>715.0</ele><time>2026-04-25T11:51:46.554Z</time></trkpt><trkpt lat="43.1433866" lon="12.8836347"><ele>715.0</ele><time>2026-04-25T11:51:47.557Z</time></trkpt><trkpt lat="43.143304" lon="12.8836684"><ele>715.0</ele><time>2026-04-25T11:51:48.554Z</time></trkpt><trkpt lat="43.1432216" lon="12.8837018"><ele>715.0</ele><time>2026-04-25T11:51:49.564Z</time></trkpt><trkpt lat="43.1431295" lon="12.8837349"><ele>715.0</ele><time>2026-04-25T11:51:50.548Z</time></trkpt><trkpt lat="43.1430298" lon="12.8837763"><ele>710.4</ele><time>2026-04-25T11:51:51.565Z</time></trkpt><trkpt lat="43.1429375" lon="12.8838031"><ele>705.8</ele><time>2026-04-25T11:51:52.557Z</time></trkpt><trkpt lat="43.1428377" lon="12.8838297"><ele>701.2</ele><time>2026-04-25T11:51:53.558Z</time></trkpt><trkpt lat="43.1427447" lon="12.8838532"><ele>696.6</ele><time>2026-04-25T11:51:54.558Z</time></trkpt><trkpt lat="43.1426532" lon="12.8838906"><ele>692.0</ele><time>2026-04-25T11:51:55.557Z</time></trkpt><trkpt lat="43.1425556" lon="12.8839248"><ele>692.0</ele><time>2026-04-25T11:51:56.553Z</time></trkpt><trkpt lat="43.142455" lon="12.883967"><ele>692.0</ele><time>2026-04-25T11:51:57.56Z</time></trkpt><trkpt lat="43.1423764" lon="12.8840163"><ele>692.0</ele><time>2026-04-25T11:51:58.552Z</time></trkpt><trkpt lat="43.1422996" lon="12.8840579"><ele>692.0</ele><time>2026-04-25T11:51:59.553Z</time></trkpt><trkpt lat="43.14218" lon="12.8841139"><ele>692.0</ele><time>2026-04-25T11:52:01.537Z</time></trkpt><trkpt lat="43.1421175" lon="12.8841398"><ele>691.0</ele><time>2026-04-25T11:52:02.56Z</time></trkpt><trkpt lat="43.1420219" lon="12.8841801"><ele>690.0</ele><time>2026-04-25T11:52:04.563Z</time></trkpt><trkpt lat="43.1419443" lon="12.8842583"><ele>689.0</ele><time>2026-04-25T11:52:06.565Z</time></trkpt><trkpt lat="43.1418973" lon="12.8843796"><ele>688.0</ele><time>2026-04-25T11:52:08.557Z</time></trkpt><trkpt lat="43.1418798" lon="12.8845433"><ele>687.0</ele><time>2026-04-25T11:52:10.558Z</time></trkpt><trkpt lat="43.1418599" lon="12.884626"><ele>687.0</ele><time>2026-04-25T11:52:11.55Z</time></trkpt><trkpt lat="43.1418136" lon="12.8847032"><ele>687.0</ele><time>2026-04-25T11:52:12.562Z</time></trkpt><trkpt lat="43.1417131" lon="12.8847786"><ele>687.0</ele><time>2026-04-25T11:52:14.563Z</time></trkpt><trkpt lat="43.1416461" lon="12.8847926"><ele>687.0</ele><time>2026-04-25T11:52:15.554Z</time></trkpt><trkpt lat="43.1415834" lon="12.8848028"><ele>687.0</ele><time>2026-04-25T11:52:16.567Z</time></trkpt><trkpt lat="43.141474" lon="12.8847554"><ele>687.0</ele><time>2026-04-25T11:52:18.563Z</time></trkpt><trkpt lat="43.1413667" lon="12.8846575"><ele>686.5</ele><time>2026-04-25T11:52:20.567Z</time></trkpt><trkpt lat="43.1413187" lon="12.8845784"><ele>686.0</ele><time>2026-04-25T11:52:21.551Z</time></trkpt><trkpt lat="43.1412677" lon="12.8844837"><ele>685.5</ele><time>2026-04-25T11:52:22.568Z</time></trkpt><trkpt lat="43.1412417" lon="12.8843767"><ele>685.0</ele><time>2026-04-25T11:52:23.556Z</time></trkpt><trkpt lat="43.1412249" lon="12.8842685"><ele>684.5</ele><time>2026-04-25T11:52:24.558Z</time></trkpt><trkpt lat="43.1412039" lon="12.8841593"><ele>684.0</ele><time>2026-04-25T11:52:25.549Z</time></trkpt><trkpt lat="43.141196" lon="12.8840576"><ele>683.9999999999999</ele><time>2026-04-25T11:52:26.533Z</time></trkpt><trkpt lat="43.1411993" lon="12.8839508"><ele>684.0</ele><time>2026-04-25T11:52:27.556Z</time></trkpt><trkpt lat="43.1412055" lon="12.8838509"><ele>684.0</ele><time>2026-04-25T11:52:28.534Z</time></trkpt><trkpt lat="43.1412145" lon="12.883756"><ele>684.0</ele><time>2026-04-25T11:52:29.539Z</time></trkpt><trkpt lat="43.1412377" lon="12.8836493"><ele>684.0</ele><time>2026-04-25T11:52:30.534Z</time></trkpt><trkpt lat="43.1412515" lon="12.8835527"><ele>683.9999999999999</ele><time>2026-04-25T11:52:31.545Z</time></trkpt><trkpt lat="43.1412712" lon="12.8834595"><ele>684.0</ele><time>2026-04-25T11:52:32.539Z</time></trkpt><trkpt lat="43.1412664" lon="12.8832916"><ele>679.2</ele><time>2026-04-25T11:52:34.56Z</time></trkpt><trkpt lat="43.1412165" lon="12.8831547"><ele>674.4000000000001</ele><time>2026-04-25T11:52:36.558Z</time></trkpt><trkpt lat="43.141149" lon="12.8830267"><ele>669.6</ele><time>2026-04-25T11:52:38.54Z</time></trkpt><trkpt lat="43.1410975" lon="12.8829658"><ele>664.8</ele><time>2026-04-25T11:52:39.544Z</time></trkpt><trkpt lat="43.141045" lon="12.8828914"><ele>660.0</ele><time>2026-04-25T11:52:40.562Z</time></trkpt><trkpt lat="43.1409909" lon="12.8828065"><ele>660.0</ele><time>2026-04-25T11:52:41.559Z</time></trkpt><trkpt lat="43.140942" lon="12.8827044"><ele>660.0</ele><time>2026-04-25T11:52:42.556Z</time></trkpt><trkpt lat="43.1409093" lon="12.8825812"><ele>660.0</ele><time>2026-04-25T11:52:43.538Z</time></trkpt><trkpt lat="43.1408627" lon="12.8824669"><ele>660.0</ele><time>2026-04-25T11:52:44.529Z</time></trkpt><trkpt lat="43.1408235" lon="12.8823594"><ele>660.0</ele><time>2026-04-25T11:52:45.525Z</time></trkpt><trkpt lat="43.1407641" lon="12.8822611"><ele>660.5</ele><time>2026-04-25T11:52:46.553Z</time></trkpt><trkpt lat="43.1406808" lon="12.8821621"><ele>661.0</ele><time>2026-04-25T11:52:47.546Z</time></trkpt><trkpt lat="43.1405701" lon="12.8820627"><ele>661.5</ele><time>2026-04-25T11:52:48.547Z</time></trkpt><trkpt lat="43.1404634" lon="12.8819727"><ele>662.0</ele><time>2026-04-25T11:52:49.545Z</time></trkpt><trkpt lat="43.1403531" lon="12.8818789"><ele>662.0</ele><time>2026-04-25T11:52:50.558Z</time></trkpt><trkpt lat="43.1402539" lon="12.8817941"><ele>662.0</ele><time>2026-04-25T11:52:51.557Z</time></trkpt><trkpt lat="43.1401462" lon="12.8816944"><ele>662.0</ele><time>2026-04-25T11:52:52.563Z</time></trkpt><trkpt lat="43.1400342" lon="12.8816006"><ele>662.0</ele><time>2026-04-25T11:52:53.556Z</time></trkpt><trkpt lat="43.1399204" lon="12.881517"><ele>659.2</ele><time>2026-04-25T11:52:54.557Z</time></trkpt><trkpt lat="43.1398143" lon="12.8814342"><ele>656.4000000000001</ele><time>2026-04-25T11:52:55.552Z</time></trkpt><trkpt lat="43.1397086" lon="12.8813666"><ele>653.5999999999999</ele><time>2026-04-25T11:52:56.557Z</time></trkpt><trkpt lat="43.1396127" lon="12.8812988"><ele>650.8</ele><time>2026-04-25T11:52:57.55Z</time></trkpt><trkpt lat="43.1395276" lon="12.8812472"><ele>648.0</ele><time>2026-04-25T11:52:58.556Z</time></trkpt><trkpt lat="43.1394587" lon="12.8811871"><ele>648.0</ele><time>2026-04-25T11:52:59.544Z</time></trkpt><trkpt lat="43.1393933" lon="12.8811405"><ele>648.0</ele><time>2026-04-25T11:53:00.552Z</time></trkpt><trkpt lat="43.1393491" lon="12.8810705"><ele>648.0</ele><time>2026-04-25T11:53:01.544Z</time></trkpt><trkpt lat="43.1393017" lon="12.8810056"><ele>648.0</ele><time>2026-04-25T11:53:02.553Z</time></trkpt><trkpt lat="43.1392685" lon="12.8809151"><ele>648.0</ele><time>2026-04-25T11:53:03.55Z</time></trkpt><trkpt lat="43.1392411" lon="12.8808355"><ele>648.0</ele><time>2026-04-25T11:53:04.553Z</time></trkpt><trkpt lat="43.1391917" lon="12.8807031"><ele>648.0</ele><time>2026-04-25T11:53:06.545Z</time></trkpt><trkpt lat="43.1391437" lon="12.8806303"><ele>648.0</ele><time>2026-04-25T11:53:08.544Z</time></trkpt><trkpt lat="43.1390901" lon="12.8805558"><ele>648.0</ele><time>2026-04-25T11:53:35.528Z</time></trkpt><trkpt lat="43.1390374" lon="12.8804931"><ele>648.0</ele><time>2026-04-25T11:54:16.55Z</time></trkpt><trkpt lat="43.1389775" lon="12.8805243"><ele>648.0</ele><time>2026-04-25T11:54:59.554Z</time></trkpt><trkpt lat="43.1389834" lon="12.880709"><ele>648.0</ele><time>2026-04-25T11:55:01.557Z</time></trkpt><trkpt lat="43.1389628" lon="12.8808476"><ele>645.8</ele><time>2026-04-25T11:55:02.562Z</time></trkpt><trkpt lat="43.1389344" lon="12.8809829"><ele>643.5999999999999</ele><time>2026-04-25T11:55:03.563Z</time></trkpt><trkpt lat="43.1388887" lon="12.8811113"><ele>641.4000000000001</ele><time>2026-04-25T11:55:04.554Z</time></trkpt><trkpt lat="43.1388306" lon="12.8812356"><ele>639.2</ele><time>2026-04-25T11:55:05.565Z</time></trkpt><trkpt lat="43.138759" lon="12.8813586"><ele>637.0</ele><time>2026-04-25T11:55:06.56Z</time></trkpt><trkpt lat="43.138667" lon="12.8814817"><ele>637.0</ele><time>2026-04-25T11:55:07.559Z</time></trkpt><trkpt lat="43.1385798" lon="12.8815915"><ele>637.0</ele><time>2026-04-25T11:55:08.557Z</time></trkpt><trkpt lat="43.1384972" lon="12.8817124"><ele>637.0</ele><time>2026-04-25T11:55:09.556Z</time></trkpt><trkpt lat="43.1384102" lon="12.8818319"><ele>637.0</ele><time>2026-04-25T11:55:10.552Z</time></trkpt><trkpt lat="43.1383244" lon="12.8819554"><ele>638.75</ele><time>2026-04-25T11:55:11.563Z</time></trkpt><trkpt lat="43.1382348" lon="12.8820757"><ele>640.5</ele><time>2026-04-25T11:55:12.553Z</time></trkpt><trkpt lat="43.1381535" lon="12.8821952"><ele>642.25</ele><time>2026-04-25T11:55:13.564Z</time></trkpt><trkpt lat="43.1380546" lon="12.88232"><ele>644.0</ele><time>2026-04-25T11:55:14.548Z</time></trkpt><trkpt lat="43.1379557" lon="12.8824437"><ele>644.0</ele><time>2026-04-25T11:55:15.543Z</time></trkpt><trkpt lat="43.1378641" lon="12.8825384"><ele>644.0</ele><time>2026-04-25T11:55:16.551Z</time></trkpt><trkpt lat="43.137734" lon="12.8826161"><ele>644.0</ele><time>2026-04-25T11:55:17.553Z</time></trkpt><trkpt lat="43.1376039" lon="12.8826812"><ele>644.0</ele><time>2026-04-25T11:55:18.555Z</time></trkpt><trkpt lat="43.137477" lon="12.8827257"><ele>645.5</ele><time>2026-04-25T11:55:19.541Z</time></trkpt><trkpt lat="43.137338" lon="12.8827773"><ele>647.0</ele><time>2026-04-25T11:55:20.552Z</time></trkpt><trkpt lat="43.1372083" lon="12.8828491"><ele>648.5</ele><time>2026-04-25T11:55:21.549Z</time></trkpt><trkpt lat="43.1370722" lon="12.8829428"><ele>650.0</ele><time>2026-04-25T11:55:22.556Z</time></trkpt><trkpt lat="43.1369442" lon="12.8830122"><ele>650.0</ele><time>2026-04-25T11:55:23.549Z</time></trkpt><trkpt lat="43.1368168" lon="12.883093"><ele>650.0</ele><time>2026-04-25T11:55:24.553Z</time></trkpt><trkpt lat="43.1366875" lon="12.8831434"><ele>650.0</ele><time>2026-04-25T11:55:25.547Z</time></trkpt><trkpt lat="43.1365408" lon="12.8831917"><ele>650.0</ele><time>2026-04-25T11:55:26.549Z</time></trkpt><trkpt lat="43.1363999" lon="12.8832319"><ele>649.5</ele><time>2026-04-25T11:55:27.552Z</time></trkpt><trkpt lat="43.136242" lon="12.8832508"><ele>649.0</ele><time>2026-04-25T11:55:28.55Z</time></trkpt><trkpt lat="43.136108" lon="12.883249"><ele>648.5</ele><time>2026-04-25T11:55:29.554Z</time></trkpt><trkpt lat="43.1359674" lon="12.8832645"><ele>648.0</ele><time>2026-04-25T11:55:30.548Z</time></trkpt><trkpt lat="43.1358188" lon="12.8832812"><ele>647.25</ele><time>2026-04-25T11:55:31.549Z</time></trkpt><trkpt lat="43.1356722" lon="12.8832884"><ele>646.5</ele><time>2026-04-25T11:55:32.546Z</time></trkpt><trkpt lat="43.1355256" lon="12.8832949"><ele>645.75</ele><time>2026-04-25T11:55:33.542Z</time></trkpt><trkpt lat="43.1354002" lon="12.8833011"><ele>645.0</ele><time>2026-04-25T11:55:34.541Z</time></trkpt><trkpt lat="43.1352747" lon="12.8833153"><ele>645.0</ele><time>2026-04-25T11:55:35.546Z</time></trkpt><trkpt lat="43.1351346" lon="12.8833406"><ele>645.0</ele><time>2026-04-25T11:55:36.548Z</time></trkpt><trkpt lat="43.1349952" lon="12.8833799"><ele>645.0</ele><time>2026-04-25T11:55:37.552Z</time></trkpt><trkpt lat="43.1348654" lon="12.8834233"><ele>645.0</ele><time>2026-04-25T11:55:38.547Z</time></trkpt><trkpt lat="43.1347405" lon="12.8834782"><ele>647.25</ele><time>2026-04-25T11:55:39.549Z</time></trkpt><trkpt lat="43.1346263" lon="12.883548"><ele>649.5</ele><time>2026-04-25T11:55:40.542Z</time></trkpt><trkpt lat="43.1345038" lon="12.8836329"><ele>651.75</ele><time>2026-04-25T11:55:41.537Z</time></trkpt><trkpt lat="43.1343965" lon="12.88372"><ele>654.0</ele><time>2026-04-25T11:55:42.544Z</time></trkpt><trkpt lat="43.1342996" lon="12.8837973"><ele>654.0</ele><time>2026-04-25T11:55:43.552Z</time></trkpt><trkpt lat="43.1341927" lon="12.8838859"><ele>654.0</ele><time>2026-04-25T11:55:44.55Z</time></trkpt><trkpt lat="43.1340953" lon="12.8839717"><ele>654.0</ele><time>2026-04-25T11:55:45.554Z</time></trkpt><trkpt lat="43.1340006" lon="12.8840583"><ele>654.0</ele><time>2026-04-25T11:55:46.554Z</time></trkpt><trkpt lat="43.1339039" lon="12.8841513"><ele>654.2</ele><time>2026-04-25T11:55:47.553Z</time></trkpt><trkpt lat="43.1338195" lon="12.8842395"><ele>654.4000000000001</ele><time>2026-04-25T11:55:48.555Z</time></trkpt><trkpt lat="43.133734" lon="12.8843492"><ele>654.6</ele><time>2026-04-25T11:55:49.55Z</time></trkpt><trkpt lat="43.1336578" lon="12.8844542"><ele>654.8</ele><time>2026-04-25T11:55:50.551Z</time></trkpt><trkpt lat="43.1335888" lon="12.8845632"><ele>655.0</ele><time>2026-04-25T11:55:51.549Z</time></trkpt><trkpt lat="43.1335105" lon="12.8846559"><ele>655.0</ele><time>2026-04-25T11:55:52.546Z</time></trkpt><trkpt lat="43.1334622" lon="12.884734"><ele>655.0</ele><time>2026-04-25T11:55:53.544Z</time></trkpt><trkpt lat="43.1334044" lon="12.8847919"><ele>655.0</ele><time>2026-04-25T11:55:54.544Z</time></trkpt><trkpt lat="43.1333345" lon="12.8848405"><ele>655.0</ele><time>2026-04-25T11:55:55.538Z</time></trkpt><trkpt lat="43.1332443" lon="12.8848805"><ele>655.0</ele><time>2026-04-25T11:55:56.541Z</time></trkpt><trkpt lat="43.1331599" lon="12.8849119"><ele>655.0</ele><time>2026-04-25T11:55:57.542Z</time></trkpt><trkpt lat="43.1330778" lon="12.8849513"><ele>655.0</ele><time>2026-04-25T11:55:58.544Z</time></trkpt><trkpt lat="43.1329773" lon="12.8849914"><ele>655.0</ele><time>2026-04-25T11:55:59.549Z</time></trkpt><trkpt lat="43.1328896" lon="12.8850505"><ele>655.0</ele><time>2026-04-25T11:56:00.539Z</time></trkpt><trkpt lat="43.1328001" lon="12.8851299"><ele>655.0</ele><time>2026-04-25T11:56:01.547Z</time></trkpt><trkpt lat="43.1327155" lon="12.885213"><ele>655.0</ele><time>2026-04-25T11:56:02.54Z</time></trkpt><trkpt lat="43.1326272" lon="12.8853072"><ele>656.2</ele><time>2026-04-25T11:56:03.547Z</time></trkpt><trkpt lat="43.1325339" lon="12.885378"><ele>657.4</ele><time>2026-04-25T11:56:04.539Z</time></trkpt><trkpt lat="43.1324298" lon="12.8854349"><ele>658.5999999999999</ele><time>2026-04-25T11:56:05.543Z</time></trkpt><trkpt lat="43.1323352" lon="12.8854867"><ele>659.8</ele><time>2026-04-25T11:56:06.531Z</time></trkpt><trkpt lat="43.1322373" lon="12.8855488"><ele>661.0</ele><time>2026-04-25T11:56:07.541Z</time></trkpt><trkpt lat="43.1321354" lon="12.8855711"><ele>661.0</ele><time>2026-04-25T11:56:08.532Z</time></trkpt><trkpt lat="43.1320424" lon="12.8855839"><ele>661.0</ele><time>2026-04-25T11:56:09.544Z</time></trkpt><trkpt lat="43.1319428" lon="12.8856018"><ele>661.0</ele><time>2026-04-25T11:56:10.541Z</time></trkpt><trkpt lat="43.1318451" lon="12.8856339"><ele>661.0</ele><time>2026-04-25T11:56:11.539Z</time></trkpt><trkpt lat="43.1317657" lon="12.8856926"><ele>661.0</ele><time>2026-04-25T11:56:12.554Z</time></trkpt><trkpt lat="43.1316832" lon="12.8857864"><ele>661.0</ele><time>2026-04-25T11:56:13.55Z</time></trkpt><trkpt lat="43.1316043" lon="12.8858969"><ele>661.0</ele><time>2026-04-25T11:56:14.55Z</time></trkpt><trkpt lat="43.1315333" lon="12.8860239"><ele>661.0</ele><time>2026-04-25T11:56:15.542Z</time></trkpt><trkpt lat="43.1314505" lon="12.88614"><ele>661.0</ele><time>2026-04-25T11:56:16.546Z</time></trkpt><trkpt lat="43.1313762" lon="12.8862604"><ele>662.5999999999999</ele><time>2026-04-25T11:56:17.546Z</time></trkpt><trkpt lat="43.1312971" lon="12.8863656"><ele>664.2</ele><time>2026-04-25T11:56:18.547Z</time></trkpt><trkpt lat="43.1312345" lon="12.8864759"><ele>665.8</ele><time>2026-04-25T11:56:19.541Z</time></trkpt><trkpt lat="43.1311404" lon="12.8865656"><ele>667.4000000000001</ele><time>2026-04-25T11:56:20.55Z</time></trkpt><trkpt lat="43.131048" lon="12.886631"><ele>669.0</ele><time>2026-04-25T11:56:21.537Z</time></trkpt><trkpt lat="43.1309273" lon="12.8866656"><ele>669.0</ele><time>2026-04-25T11:56:22.535Z</time></trkpt><trkpt lat="43.1308442" lon="12.8866908"><ele>669.0</ele><time>2026-04-25T11:56:23.53Z</time></trkpt><trkpt lat="43.1307455" lon="12.8867193"><ele>669.0</ele><time>2026-04-25T11:56:24.541Z</time></trkpt><trkpt lat="43.1306617" lon="12.8867592"><ele>669.0</ele><time>2026-04-25T11:56:25.542Z</time></trkpt><trkpt lat="43.1305856" lon="12.8868176"><ele>669.0</ele><time>2026-04-25T11:56:26.535Z</time></trkpt><trkpt lat="43.1305283" lon="12.8869015"><ele>669.0</ele><time>2026-04-25T11:56:27.534Z</time></trkpt><trkpt lat="43.1304605" lon="12.8870058"><ele>668.8000000000001</ele><time>2026-04-25T11:56:28.541Z</time></trkpt><trkpt lat="43.1303734" lon="12.8871042"><ele>668.6</ele><time>2026-04-25T11:56:29.547Z</time></trkpt><trkpt lat="43.1302929" lon="12.8872004"><ele>668.4</ele><time>2026-04-25T11:56:30.545Z</time></trkpt><trkpt lat="43.1302293" lon="12.8872723"><ele>668.2</ele><time>2026-04-25T11:56:31.537Z</time></trkpt><trkpt lat="43.1301664" lon="12.8873238"><ele>668.0</ele><time>2026-04-25T11:56:32.543Z</time></trkpt><trkpt lat="43.1300554" lon="12.8873315"><ele>668.0</ele><time>2026-04-25T11:56:34.547Z</time></trkpt><trkpt lat="43.1299645" lon="12.8872378"><ele>668.0</ele><time>2026-04-25T11:56:36.552Z</time></trkpt><trkpt lat="43.129915" lon="12.8871059"><ele>668.0</ele><time>2026-04-25T11:56:38.561Z</time></trkpt><trkpt lat="43.1298976" lon="12.8870215"><ele>668.0</ele><time>2026-04-25T11:56:39.551Z</time></trkpt><trkpt lat="43.1298945" lon="12.8869326"><ele>668.0</ele><time>2026-04-25T11:56:40.552Z</time></trkpt><trkpt lat="43.1299531" lon="12.8867731"><ele>668.8</ele><time>2026-04-25T11:56:42.55Z</time></trkpt><trkpt lat="43.1300078" lon="12.8866863"><ele>669.5999999999999</ele><time>2026-04-25T11:56:43.56Z</time></trkpt><trkpt lat="43.1300701" lon="12.886596"><ele>670.4000000000001</ele><time>2026-04-25T11:56:44.561Z</time></trkpt><trkpt lat="43.1301368" lon="12.8865063"><ele>671.2</ele><time>2026-04-25T11:56:45.555Z</time></trkpt><trkpt lat="43.1302075" lon="12.8864077"><ele>672.0</ele><time>2026-04-25T11:56:46.565Z</time></trkpt><trkpt lat="43.1302731" lon="12.8862972"><ele>672.0</ele><time>2026-04-25T11:56:47.562Z</time></trkpt><trkpt lat="43.1303439" lon="12.8861764"><ele>672.0</ele><time>2026-04-25T11:56:48.567Z</time></trkpt><trkpt lat="43.1304168" lon="12.8860509"><ele>672.0</ele><time>2026-04-25T11:56:49.555Z</time></trkpt><trkpt lat="43.1304891" lon="12.8859429"><ele>672.0</ele><time>2026-04-25T11:56:50.553Z</time></trkpt><trkpt lat="43.1305695" lon="12.8858464"><ele>672.0</ele><time>2026-04-25T11:56:51.552Z</time></trkpt><trkpt lat="43.1306501" lon="12.885753"><ele>672.25</ele><time>2026-04-25T11:56:52.565Z</time></trkpt><trkpt lat="43.1307442" lon="12.8856602"><ele>672.5</ele><time>2026-04-25T11:56:53.553Z</time></trkpt><trkpt lat="43.1308271" lon="12.8855491"><ele>672.75</ele><time>2026-04-25T11:56:54.583Z</time></trkpt><trkpt lat="43.1309018" lon="12.8854324"><ele>673.0</ele><time>2026-04-25T11:56:55.557Z</time></trkpt><trkpt lat="43.1309715" lon="12.8853047"><ele>673.0</ele><time>2026-04-25T11:56:56.563Z</time></trkpt><trkpt lat="43.1310419" lon="12.8851571"><ele>673.0</ele><time>2026-04-25T11:56:57.558Z</time></trkpt><trkpt lat="43.1311112" lon="12.8849995"><ele>673.0</ele><time>2026-04-25T11:56:58.559Z</time></trkpt><trkpt lat="43.1311774" lon="12.8848495"><ele>673.0</ele><time>2026-04-25T11:56:59.549Z</time></trkpt><trkpt lat="43.1312391" lon="12.884717"><ele>672.0</ele><time>2026-04-25T11:57:00.559Z</time></trkpt><trkpt lat="43.1313051" lon="12.8846074"><ele>671.0</ele><time>2026-04-25T11:57:01.546Z</time></trkpt><trkpt lat="43.131393" lon="12.88452"><ele>670.0</ele><time>2026-04-25T11:57:02.545Z</time></trkpt><trkpt lat="43.1315065" lon="12.8844475"><ele>669.0</ele><time>2026-04-25T11:57:03.542Z</time></trkpt><trkpt lat="43.1316207" lon="12.8843811"><ele>669.0</ele><time>2026-04-25T11:57:04.553Z</time></trkpt><trkpt lat="43.1317334" lon="12.8843152"><ele>669.0</ele><time>2026-04-25T11:57:05.554Z</time></trkpt><trkpt lat="43.1318326" lon="12.8842434"><ele>669.0</ele><time>2026-04-25T11:57:06.553Z</time></trkpt><trkpt lat="43.1319197" lon="12.8841471"><ele>669.0</ele><time>2026-04-25T11:57:07.55Z</time></trkpt><trkpt lat="43.1320074" lon="12.8840321"><ele>677.75</ele><time>2026-04-25T11:57:08.558Z</time></trkpt><trkpt lat="43.1320912" lon="12.8839107"><ele>686.5</ele><time>2026-04-25T11:57:09.56Z</time></trkpt><trkpt lat="43.1321789" lon="12.8837772"><ele>695.25</ele><time>2026-04-25T11:57:10.554Z</time></trkpt><trkpt lat="43.1322683" lon="12.8836479"><ele>704.0</ele><time>2026-04-25T11:57:11.546Z</time></trkpt><trkpt lat="43.1323744" lon="12.8835342"><ele>704.25</ele><time>2026-04-25T11:57:12.548Z</time></trkpt><trkpt lat="43.1324862" lon="12.8834604"><ele>704.5</ele><time>2026-04-25T11:57:13.543Z</time></trkpt><trkpt lat="43.1326257" lon="12.8834075"><ele>704.75</ele><time>2026-04-25T11:57:14.542Z</time></trkpt><trkpt lat="43.1327219" lon="12.883319"><ele>705.0</ele><time>2026-04-25T11:57:15.548Z</time></trkpt><trkpt lat="43.1327852" lon="12.8832286"><ele>705.0</ele><time>2026-04-25T11:57:16.534Z</time></trkpt><trkpt lat="43.1328665" lon="12.883138"><ele>705.0</ele><time>2026-04-25T11:57:17.539Z</time></trkpt><trkpt lat="43.1329666" lon="12.8830507"><ele>705.0</ele><time>2026-04-25T11:57:18.54Z</time></trkpt><trkpt lat="43.13304" lon="12.8828895"><ele>705.0</ele><time>2026-04-25T11:57:19.536Z</time></trkpt><trkpt lat="43.1331383" lon="12.8827548"><ele>705.5</ele><time>2026-04-25T11:57:20.538Z</time></trkpt><trkpt lat="43.1332275" lon="12.8826132"><ele>706.0</ele><time>2026-04-25T11:57:21.541Z</time></trkpt><trkpt lat="43.133299" lon="12.8824519"><ele>706.5</ele><time>2026-04-25T11:57:22.537Z</time></trkpt><trkpt lat="43.1333758" lon="12.882264"><ele>707.0</ele><time>2026-04-25T11:57:23.556Z</time></trkpt><trkpt lat="43.1334773" lon="12.8821592"><ele>707.0</ele><time>2026-04-25T11:57:24.544Z</time></trkpt><trkpt lat="43.1335177" lon="12.8820671"><ele>707.0</ele><time>2026-04-25T11:57:25.547Z</time></trkpt><trkpt lat="43.1335786" lon="12.8819532"><ele>707.0</ele><time>2026-04-25T11:57:26.532Z</time></trkpt><trkpt lat="43.1336757" lon="12.8818777"><ele>707.0</ele><time>2026-04-25T11:57:27.535Z</time></trkpt><trkpt lat="43.1336903" lon="12.8817594"><ele>707.0</ele><time>2026-04-25T11:57:28.537Z</time></trkpt><trkpt lat="43.1337054" lon="12.8816075"><ele>710.2</ele><time>2026-04-25T11:57:29.538Z</time></trkpt><trkpt lat="43.1337161" lon="12.8814879"><ele>713.4000000000001</ele><time>2026-04-25T11:57:30.545Z</time></trkpt><trkpt lat="43.1338479" lon="12.8814487"><ele>716.5999999999999</ele><time>2026-04-25T11:57:32.543Z</time></trkpt><trkpt lat="43.1339443" lon="12.8814617"><ele>719.8</ele><time>2026-04-25T11:57:33.545Z</time></trkpt><trkpt lat="43.1340395" lon="12.881513"><ele>723.0</ele><time>2026-04-25T11:57:34.544Z</time></trkpt><trkpt lat="43.1341338" lon="12.8815341"><ele>723.0</ele><time>2026-04-25T11:57:35.543Z</time></trkpt><trkpt lat="43.1342402" lon="12.8815805"><ele>723.0</ele><time>2026-04-25T11:57:36.552Z</time></trkpt><trkpt lat="43.1343578" lon="12.8815649"><ele>723.0</ele><time>2026-04-25T11:57:37.543Z</time></trkpt><trkpt lat="43.1344765" lon="12.8815349"><ele>723.0</ele><time>2026-04-25T11:57:38.551Z</time></trkpt><trkpt lat="43.1345951" lon="12.881478"><ele>723.0</ele><time>2026-04-25T11:57:39.548Z</time></trkpt><trkpt lat="43.1347056" lon="12.8814168"><ele>723.0</ele><time>2026-04-25T11:57:40.541Z</time></trkpt><trkpt lat="43.1348213" lon="12.8813299"><ele>723.0</ele><time>2026-04-25T11:57:41.548Z</time></trkpt><trkpt lat="43.134929" lon="12.8812455"><ele>723.0</ele><time>2026-04-25T11:57:42.553Z</time></trkpt><trkpt lat="43.1350353" lon="12.8811427"><ele>718.25</ele><time>2026-04-25T11:57:43.552Z</time></trkpt><trkpt lat="43.1351427" lon="12.8810458"><ele>713.5</ele><time>2026-04-25T11:57:44.551Z</time></trkpt><trkpt lat="43.1352403" lon="12.8809843"><ele>708.75</ele><time>2026-04-25T11:57:45.548Z</time></trkpt><trkpt lat="43.1353439" lon="12.8809638"><ele>704.0</ele><time>2026-04-25T11:57:46.553Z</time></trkpt><trkpt lat="43.1354588" lon="12.8809374"><ele>713.0</ele><time>2026-04-25T11:57:47.552Z</time></trkpt><trkpt lat="43.135575" lon="12.8809186"><ele>722.0</ele><time>2026-04-25T11:57:48.558Z</time></trkpt><trkpt lat="43.1357029" lon="12.8809004"><ele>731.0</ele><time>2026-04-25T11:57:49.556Z</time></trkpt><trkpt lat="43.1358346" lon="12.8808789"><ele>740.0</ele><time>2026-04-25T11:57:50.558Z</time></trkpt><trkpt lat="43.1359512" lon="12.8808542"><ele>740.0</ele><time>2026-04-25T11:57:51.559Z</time></trkpt><trkpt lat="43.1360582" lon="12.8808168"><ele>740.0</ele><time>2026-04-25T11:57:52.551Z</time></trkpt><trkpt lat="43.1361569" lon="12.8807615"><ele>740.0</ele><time>2026-04-25T11:57:53.559Z</time></trkpt><trkpt lat="43.136249" lon="12.8806687"><ele>740.0</ele><time>2026-04-25T11:57:54.554Z</time></trkpt><trkpt lat="43.1363326" lon="12.8805788"><ele>740.0</ele><time>2026-04-25T11:57:55.559Z</time></trkpt><trkpt lat="43.1364228" lon="12.8804884"><ele>740.0</ele><time>2026-04-25T11:57:56.548Z</time></trkpt><trkpt lat="43.1365137" lon="12.8803975"><ele>740.0</ele><time>2026-04-25T11:57:57.549Z</time></trkpt><trkpt lat="43.136606" lon="12.8803039"><ele>740.0</ele><time>2026-04-25T11:57:58.552Z</time></trkpt><trkpt lat="43.1366947" lon="12.8802196"><ele>740.0</ele><time>2026-04-25T11:57:59.55Z</time></trkpt><trkpt lat="43.1367826" lon="12.8801252"><ele>740.0</ele><time>2026-04-25T11:58:00.546Z</time></trkpt><trkpt lat="43.1368565" lon="12.8800078"><ele>742.8</ele><time>2026-04-25T11:58:01.559Z</time></trkpt><trkpt lat="43.1369153" lon="12.8798945"><ele>745.6</ele><time>2026-04-25T11:58:02.545Z</time></trkpt><trkpt lat="43.1369444" lon="12.8797575"><ele>748.4000000000001</ele><time>2026-04-25T11:58:03.56Z</time></trkpt><trkpt lat="43.1369477" lon="12.8796193"><ele>751.2</ele><time>2026-04-25T11:58:04.557Z</time></trkpt><trkpt lat="43.1369204" lon="12.8794596"><ele>754.0</ele><time>2026-04-25T11:58:05.549Z</time></trkpt><trkpt lat="43.1368928" lon="12.8793059"><ele>757.0</ele><time>2026-04-25T11:58:06.55Z</time></trkpt><trkpt lat="43.1368598" lon="12.879158"><ele>760.0</ele><time>2026-04-25T11:58:07.552Z</time></trkpt><trkpt lat="43.1368334" lon="12.8790106"><ele>763.0</ele><time>2026-04-25T11:58:08.547Z</time></trkpt><trkpt lat="43.1367998" lon="12.8788579"><ele>766.0</ele><time>2026-04-25T11:58:09.553Z</time></trkpt><trkpt lat="43.1367767" lon="12.878693"><ele>766.0</ele><time>2026-04-25T11:58:10.547Z</time></trkpt><trkpt lat="43.1367371" lon="12.8785428"><ele>766.0</ele><time>2026-04-25T11:58:11.549Z</time></trkpt><trkpt lat="43.1367092" lon="12.8783826"><ele>766.0</ele><time>2026-04-25T11:58:12.551Z</time></trkpt><trkpt lat="43.1366753" lon="12.8782254"><ele>766.0</ele><time>2026-04-25T11:58:13.553Z</time></trkpt><trkpt lat="43.1366338" lon="12.8780768"><ele>766.5</ele><time>2026-04-25T11:58:14.553Z</time></trkpt><trkpt lat="43.1366008" lon="12.8779153"><ele>767.0</ele><time>2026-04-25T11:58:15.549Z</time></trkpt><trkpt lat="43.1365788" lon="12.8777519"><ele>767.5</ele><time>2026-04-25T11:58:16.553Z</time></trkpt><trkpt lat="43.1365643" lon="12.8776002"><ele>768.0</ele><time>2026-04-25T11:58:17.56Z</time></trkpt><trkpt lat="43.136565" lon="12.8774471"><ele>770.25</ele><time>2026-04-25T11:58:18.55Z</time></trkpt><trkpt lat="43.1365803" lon="12.8773032"><ele>772.5</ele><time>2026-04-25T11:58:19.562Z</time></trkpt><trkpt lat="43.1366202" lon="12.8771583"><ele>774.75</ele><time>2026-04-25T11:58:20.552Z</time></trkpt><trkpt lat="43.1366888" lon="12.8770118"><ele>777.0</ele><time>2026-04-25T11:58:21.555Z</time></trkpt><trkpt lat="43.1367522" lon="12.8768712"><ele>781.0</ele><time>2026-04-25T11:58:22.551Z</time></trkpt><trkpt lat="43.1368243" lon="12.8767372"><ele>785.0</ele><time>2026-04-25T11:58:23.563Z</time></trkpt><trkpt lat="43.1368987" lon="12.8765994"><ele>789.0</ele><time>2026-04-25T11:58:24.537Z</time></trkpt><trkpt lat="43.1369688" lon="12.8764663"><ele>793.0</ele><time>2026-04-25T11:58:25.541Z</time></trkpt><trkpt lat="43.1370374" lon="12.8763322"><ele>793.0</ele><time>2026-04-25T11:58:26.537Z</time></trkpt><trkpt lat="43.137108" lon="12.8762233"><ele>793.0</ele><time>2026-04-25T11:58:27.534Z</time></trkpt><trkpt lat="43.1371653" lon="12.8761244"><ele>793.0</ele><time>2026-04-25T11:58:28.53Z</time></trkpt><trkpt lat="43.1372079" lon="12.8760164"><ele>793.0</ele><time>2026-04-25T11:58:29.509Z</time></trkpt><trkpt lat="43.1372373" lon="12.8758889"><ele>793.0</ele><time>2026-04-25T11:58:30.513Z</time></trkpt><trkpt lat="43.1372633" lon="12.8757377"><ele>794.4</ele><time>2026-04-25T11:58:31.512Z</time></trkpt><trkpt lat="43.1372298" lon="12.8756004"><ele>795.8</ele><time>2026-04-25T11:58:32.524Z</time></trkpt><trkpt lat="43.137197" lon="12.8754862"><ele>797.2</ele><time>2026-04-25T11:58:33.518Z</time></trkpt><trkpt lat="43.137192" lon="12.8753906"><ele>798.6</ele><time>2026-04-25T11:58:34.522Z</time></trkpt><trkpt lat="43.1371743" lon="12.8752122"><ele>800.0</ele><time>2026-04-25T11:58:36.518Z</time></trkpt><trkpt lat="43.1372482" lon="12.8751088"><ele>799.2</ele><time>2026-04-25T11:58:38.53Z</time></trkpt><trkpt lat="43.1373235" lon="12.8750546"><ele>798.4</ele><time>2026-04-25T11:58:39.534Z</time></trkpt><trkpt lat="43.1373994" lon="12.8749885"><ele>797.5999999999999</ele><time>2026-04-25T11:58:40.534Z</time></trkpt><trkpt lat="43.137478" lon="12.8749165"><ele>796.8</ele><time>2026-04-25T11:58:41.538Z</time></trkpt><trkpt lat="43.1375571" lon="12.8748178"><ele>796.0</ele><time>2026-04-25T11:58:42.534Z</time></trkpt><trkpt lat="43.1376346" lon="12.8747109"><ele>796.0</ele><time>2026-04-25T11:58:43.538Z</time></trkpt><trkpt lat="43.1377198" lon="12.8746174"><ele>796.0</ele><time>2026-04-25T11:58:44.534Z</time></trkpt><trkpt lat="43.1378177" lon="12.8745198"><ele>796.0</ele><time>2026-04-25T11:58:45.54Z</time></trkpt><trkpt lat="43.1379403" lon="12.8744269"><ele>796.0</ele><time>2026-04-25T11:58:46.539Z</time></trkpt><trkpt lat="43.1380508" lon="12.8743288"><ele>797.0</ele><time>2026-04-25T11:58:47.536Z</time></trkpt><trkpt lat="43.1381633" lon="12.8742483"><ele>798.0</ele><time>2026-04-25T11:58:48.54Z</time></trkpt><trkpt lat="43.1382792" lon="12.8741719"><ele>799.0</ele><time>2026-04-25T11:58:49.537Z</time></trkpt><trkpt lat="43.1383541" lon="12.8741208"><ele>800.0</ele><time>2026-04-25T11:58:50.537Z</time></trkpt><trkpt lat="43.1384013" lon="12.8740604"><ele>801.0</ele><time>2026-04-25T11:58:51.543Z</time></trkpt><trkpt lat="43.1383849" lon="12.8739385"><ele>801.0</ele><time>2026-04-25T11:58:53.541Z</time></trkpt><trkpt lat="43.1382852" lon="12.8739407"><ele>801.0</ele><time>2026-04-25T11:58:56.538Z</time></trkpt><trkpt lat="43.1381704" lon="12.8740166"><ele>801.0</ele><time>2026-04-25T11:58:57.543Z</time></trkpt><trkpt lat="43.1380542" lon="12.8740439"><ele>801.0</ele><time>2026-04-25T11:58:58.537Z</time></trkpt><trkpt lat="43.1379351" lon="12.8740781"><ele>803.0</ele><time>2026-04-25T11:58:59.545Z</time></trkpt><trkpt lat="43.1378068" lon="12.8741015"><ele>805.0</ele><time>2026-04-25T11:59:00.548Z</time></trkpt><trkpt lat="43.1376699" lon="12.8741"><ele>807.0</ele><time>2026-04-25T11:59:01.545Z</time></trkpt><trkpt lat="43.1375471" lon="12.8740879"><ele>809.0</ele><time>2026-04-25T11:59:02.55Z</time></trkpt><trkpt lat="43.1374459" lon="12.8740665"><ele>811.0</ele><time>2026-04-25T11:59:03.552Z</time></trkpt><trkpt lat="43.1373411" lon="12.8740358"><ele>813.0</ele><time>2026-04-25T11:59:04.542Z</time></trkpt><trkpt lat="43.1372498" lon="12.8739795"><ele>815.0</ele><time>2026-04-25T11:59:05.54Z</time></trkpt><trkpt lat="43.1371776" lon="12.8738856"><ele>817.0</ele><time>2026-04-25T11:59:06.542Z</time></trkpt><trkpt lat="43.1371035" lon="12.8737881"><ele>819.0</ele><time>2026-04-25T11:59:07.538Z</time></trkpt><trkpt lat="43.1370303" lon="12.873678"><ele>819.0</ele><time>2026-04-25T11:59:08.544Z</time></trkpt><trkpt lat="43.1369454" lon="12.8735848"><ele>819.0</ele><time>2026-04-25T11:59:09.54Z</time></trkpt><trkpt lat="43.1368543" lon="12.8734987"><ele>819.0</ele><time>2026-04-25T11:59:10.548Z</time></trkpt><trkpt lat="43.1367642" lon="12.8734193"><ele>819.0</ele><time>2026-04-25T11:59:11.543Z</time></trkpt><trkpt lat="43.1366664" lon="12.8733421"><ele>819.0</ele><time>2026-04-25T11:59:12.54Z</time></trkpt><trkpt lat="43.1365706" lon="12.8732669"><ele>823.5</ele><time>2026-04-25T11:59:13.542Z</time></trkpt><trkpt lat="43.1364676" lon="12.8731774"><ele>828.0</ele><time>2026-04-25T11:59:14.543Z</time></trkpt><trkpt lat="43.1363993" lon="12.8730612"><ele>832.5</ele><time>2026-04-25T11:59:15.536Z</time></trkpt><trkpt lat="43.1363207" lon="12.8729349"><ele>837.0</ele><time>2026-04-25T11:59:16.544Z</time></trkpt><trkpt lat="43.1362442" lon="12.8728059"><ele>837.0</ele><time>2026-04-25T11:59:17.536Z</time></trkpt><trkpt lat="43.136175" lon="12.8726763"><ele>837.0</ele><time>2026-04-25T11:59:18.545Z</time></trkpt><trkpt lat="43.1361014" lon="12.872559"><ele>837.0</ele><time>2026-04-25T11:59:19.534Z</time></trkpt><trkpt lat="43.1360329" lon="12.8724361"><ele>837.0</ele><time>2026-04-25T11:59:20.542Z</time></trkpt><trkpt lat="43.1359829" lon="12.8723068"><ele>836.5</ele><time>2026-04-25T11:59:21.549Z</time></trkpt><trkpt lat="43.1359382" lon="12.872166"><ele>836.0</ele><time>2026-04-25T11:59:22.535Z</time></trkpt><trkpt lat="43.1359036" lon="12.8720068"><ele>835.5</ele><time>2026-04-25T11:59:23.542Z</time></trkpt><trkpt lat="43.1358761" lon="12.8718448"><ele>835.0</ele><time>2026-04-25T11:59:24.537Z</time></trkpt><trkpt lat="43.1358507" lon="12.8716858"><ele>835.0</ele><time>2026-04-25T11:59:25.538Z</time></trkpt><trkpt lat="43.1358296" lon="12.8715159"><ele>835.0</ele><time>2026-04-25T11:59:26.537Z</time></trkpt><trkpt lat="43.1358007" lon="12.8713516"><ele>835.0</ele><time>2026-04-25T11:59:27.54Z</time></trkpt><trkpt lat="43.135767" lon="12.8711883"><ele>835.0</ele><time>2026-04-25T11:59:28.537Z</time></trkpt><trkpt lat="43.1357364" lon="12.8710224"><ele>842.0</ele><time>2026-04-25T11:59:29.541Z</time></trkpt><trkpt lat="43.1357079" lon="12.8708522"><ele>849.0</ele><time>2026-04-25T11:59:30.532Z</time></trkpt><trkpt lat="43.1356802" lon="12.8706781"><ele>856.0</ele><time>2026-04-25T11:59:31.54Z</time></trkpt><trkpt lat="43.1356558" lon="12.8705098"><ele>863.0</ele><time>2026-04-25T11:59:32.533Z</time></trkpt><trkpt lat="43.1356209" lon="12.8703567"><ele>863.0</ele><time>2026-04-25T11:59:33.537Z</time></trkpt><trkpt lat="43.135597" lon="12.8702009"><ele>863.0</ele><time>2026-04-25T11:59:34.536Z</time></trkpt><trkpt lat="43.1355535" lon="12.8700351"><ele>863.0</ele><time>2026-04-25T11:59:35.542Z</time></trkpt><trkpt lat="43.1355087" lon="12.8698575"><ele>863.0</ele><time>2026-04-25T11:59:36.539Z</time></trkpt><trkpt lat="43.1354662" lon="12.8696864"><ele>862.75</ele><time>2026-04-25T11:59:37.542Z</time></trkpt><trkpt lat="43.1354214" lon="12.8695162"><ele>862.5</ele><time>2026-04-25T11:59:38.54Z</time></trkpt><trkpt lat="43.1353837" lon="12.8693481"><ele>862.25</ele><time>2026-04-25T11:59:39.555Z</time></trkpt><trkpt lat="43.1353339" lon="12.8692077"><ele>862.0</ele><time>2026-04-25T11:59:40.547Z</time></trkpt><trkpt lat="43.1352562" lon="12.8690754"><ele>860.0</ele><time>2026-04-25T11:59:41.548Z</time></trkpt><trkpt lat="43.1351848" lon="12.8689366"><ele>858.0</ele><time>2026-04-25T11:59:42.545Z</time></trkpt><trkpt lat="43.1351156" lon="12.8687979"><ele>856.0</ele><time>2026-04-25T11:59:43.546Z</time></trkpt><trkpt lat="43.1350414" lon="12.8686538"><ele>854.0</ele><time>2026-04-25T11:59:44.551Z</time></trkpt><trkpt lat="43.1349696" lon="12.8685006"><ele>850.75</ele><time>2026-04-25T11:59:45.551Z</time></trkpt><trkpt lat="43.1348949" lon="12.8683458"><ele>847.5</ele><time>2026-04-25T11:59:46.555Z</time></trkpt><trkpt lat="43.1348194" lon="12.8681899"><ele>844.25</ele><time>2026-04-25T11:59:47.547Z</time></trkpt><trkpt lat="43.1347429" lon="12.8680376"><ele>841.0</ele><time>2026-04-25T11:59:48.554Z</time></trkpt><trkpt lat="43.1346592" lon="12.8679038"><ele>843.0</ele><time>2026-04-25T11:59:49.545Z</time></trkpt><trkpt lat="43.1345642" lon="12.8677579"><ele>845.0</ele><time>2026-04-25T11:59:50.539Z</time></trkpt><trkpt lat="43.1344498" lon="12.8676271"><ele>847.0</ele><time>2026-04-25T11:59:51.544Z</time></trkpt><trkpt lat="43.1343472" lon="12.8674842"><ele>849.0</ele><time>2026-04-25T11:59:52.551Z</time></trkpt><trkpt lat="43.1342488" lon="12.8673507"><ele>849.0</ele><time>2026-04-25T11:59:53.55Z</time></trkpt><trkpt lat="43.1341019" lon="12.867176"><ele>849.0</ele><time>2026-04-25T11:59:54.542Z</time></trkpt><trkpt lat="43.13399" lon="12.8670187"><ele>849.0</ele><time>2026-04-25T11:59:55.534Z</time></trkpt><trkpt lat="43.1338451" lon="12.8668043"><ele>852.0</ele><time>2026-04-25T11:59:56.529Z</time></trkpt><trkpt lat="43.1336897" lon="12.8665956"><ele>855.0</ele><time>2026-04-25T11:59:57.534Z</time></trkpt><trkpt lat="43.1335329" lon="12.8663955"><ele>858.0</ele><time>2026-04-25T11:59:58.53Z</time></trkpt><trkpt lat="43.1334166" lon="12.866172"><ele>858.0</ele><time>2026-04-25T11:59:59.53Z</time></trkpt><trkpt lat="43.1332986" lon="12.8660047"><ele>858.0</ele><time>2026-04-25T12:00:00.529Z</time></trkpt><trkpt lat="43.1331472" lon="12.8658213"><ele>858.0</ele><time>2026-04-25T12:00:01.525Z</time></trkpt><trkpt lat="43.1330103" lon="12.8656398"><ele>859.3333333333333</ele><time>2026-04-25T12:00:02.521Z</time></trkpt><trkpt lat="43.1328852" lon="12.8654218"><ele>860.6666666666666</ele><time>2026-04-25T12:00:03.527Z</time></trkpt><trkpt lat="43.1327494" lon="12.8652127"><ele>862.0</ele><time>2026-04-25T12:00:04.534Z</time></trkpt><trkpt lat="43.1326403" lon="12.8650408"><ele>865.0</ele><time>2026-04-25T12:00:05.527Z</time></trkpt><trkpt lat="43.1325321" lon="12.8648983"><ele>868.0</ele><time>2026-04-25T12:00:06.542Z</time></trkpt><trkpt lat="43.1324223" lon="12.864753"><ele>871.0</ele><time>2026-04-25T12:00:07.537Z</time></trkpt><trkpt lat="43.1323158" lon="12.8646041"><ele>871.0</ele><time>2026-04-25T12:00:08.539Z</time></trkpt><trkpt lat="43.1322376" lon="12.8644682"><ele>871.0</ele><time>2026-04-25T12:00:09.527Z</time></trkpt><trkpt lat="43.13212" lon="12.8643372"><ele>871.0</ele><time>2026-04-25T12:00:10.53Z</time></trkpt><trkpt lat="43.1320474" lon="12.8641993"><ele>871.0</ele><time>2026-04-25T12:00:11.528Z</time></trkpt><trkpt lat="43.1319929" lon="12.8640809"><ele>867.5999999999999</ele><time>2026-04-25T12:00:12.531Z</time></trkpt><trkpt lat="43.1319608" lon="12.8640017"><ele>864.1999999999999</ele><time>2026-04-25T12:00:13.529Z</time></trkpt><trkpt lat="43.131908" lon="12.8639082"><ele>860.8000000000001</ele><time>2026-04-25T12:00:14.532Z</time></trkpt><trkpt lat="43.1318502" lon="12.8637426"><ele>857.4000000000001</ele><time>2026-04-25T12:00:15.527Z</time></trkpt><trkpt lat="43.1318135" lon="12.8635713"><ele>854.0</ele><time>2026-04-25T12:00:16.538Z</time></trkpt><trkpt lat="43.1317903" lon="12.8634528"><ele>852.6</ele><time>2026-04-25T12:00:17.527Z</time></trkpt><trkpt lat="43.1317464" lon="12.8633416"><ele>851.2</ele><time>2026-04-25T12:00:18.532Z</time></trkpt><trkpt lat="43.1317064" lon="12.8631988"><ele>849.8000000000001</ele><time>2026-04-25T12:00:19.53Z</time></trkpt><trkpt lat="43.131685" lon="12.8630657"><ele>848.4000000000001</ele><time>2026-04-25T12:00:20.524Z</time></trkpt><trkpt lat="43.1316643" lon="12.8629337"><ele>847.0</ele><time>2026-04-25T12:00:21.527Z</time></trkpt><trkpt lat="43.1316458" lon="12.8628089"><ele>846.9999999999999</ele><time>2026-04-25T12:00:22.528Z</time></trkpt><trkpt lat="43.1316492" lon="12.8626972"><ele>847.0</ele><time>2026-04-25T12:00:23.534Z</time></trkpt><trkpt lat="43.1316423" lon="12.8626039"><ele>847.0</ele><time>2026-04-25T12:00:24.529Z</time></trkpt><trkpt lat="43.1316005" lon="12.8624595"><ele>847.0</ele><time>2026-04-25T12:00:26.527Z</time></trkpt><trkpt lat="43.1315584" lon="12.8623843"><ele>846.9999999999999</ele><time>2026-04-25T12:00:27.533Z</time></trkpt><trkpt lat="43.1314966" lon="12.8623312"><ele>847.0</ele><time>2026-04-25T12:00:28.537Z</time></trkpt><trkpt lat="43.131411" lon="12.8622839"><ele>847.75</ele><time>2026-04-25T12:00:29.536Z</time></trkpt><trkpt lat="43.1312919" lon="12.8622201"><ele>848.5</ele><time>2026-04-25T12:00:30.545Z</time></trkpt><trkpt lat="43.1311692" lon="12.8621697"><ele>849.25</ele><time>2026-04-25T12:00:31.536Z</time></trkpt><trkpt lat="43.1310357" lon="12.8621071"><ele>850.0</ele><time>2026-04-25T12:00:32.534Z</time></trkpt><trkpt lat="43.1309015" lon="12.8620454"><ele>850.0</ele><time>2026-04-25T12:00:33.529Z</time></trkpt><trkpt lat="43.1307751" lon="12.8619857"><ele>850.0</ele><time>2026-04-25T12:00:34.537Z</time></trkpt><trkpt lat="43.1306678" lon="12.8619185"><ele>850.0</ele><time>2026-04-25T12:00:35.537Z</time></trkpt><trkpt lat="43.130551" lon="12.8618492"><ele>850.0</ele><time>2026-04-25T12:00:36.535Z</time></trkpt><trkpt lat="43.1304551" lon="12.8617641"><ele>847.5</ele><time>2026-04-25T12:00:37.53Z</time></trkpt><trkpt lat="43.1303506" lon="12.8616875"><ele>845.0</ele><time>2026-04-25T12:00:38.529Z</time></trkpt><trkpt lat="43.1302618" lon="12.8615934"><ele>842.5</ele><time>2026-04-25T12:00:39.534Z</time></trkpt><trkpt lat="43.1301423" lon="12.8615144"><ele>840.0</ele><time>2026-04-25T12:00:40.531Z</time></trkpt><trkpt lat="43.130016" lon="12.8614416"><ele>840.0</ele><time>2026-04-25T12:00:41.536Z</time></trkpt><trkpt lat="43.1298922" lon="12.8613871"><ele>840.0</ele><time>2026-04-25T12:00:42.53Z</time></trkpt><trkpt lat="43.1297687" lon="12.861334"><ele>840.0</ele><time>2026-04-25T12:00:43.537Z</time></trkpt><trkpt lat="43.1296441" lon="12.8612913"><ele>840.0</ele><time>2026-04-25T12:00:44.53Z</time></trkpt><trkpt lat="43.1295287" lon="12.8612415"><ele>840.5</ele><time>2026-04-25T12:00:45.534Z</time></trkpt><trkpt lat="43.1293986" lon="12.8612041"><ele>841.0</ele><time>2026-04-25T12:00:46.531Z</time></trkpt><trkpt lat="43.1292757" lon="12.8611839"><ele>841.5</ele><time>2026-04-25T12:00:47.532Z</time></trkpt><trkpt lat="43.129152" lon="12.8611761"><ele>842.0</ele><time>2026-04-25T12:00:48.53Z</time></trkpt><trkpt lat="43.1290364" lon="12.8611568"><ele>842.75</ele><time>2026-04-25T12:00:49.523Z</time></trkpt><trkpt lat="43.1289214" lon="12.861118"><ele>843.5</ele><time>2026-04-25T12:00:50.531Z</time></trkpt><trkpt lat="43.1287988" lon="12.8610658"><ele>844.25</ele><time>2026-04-25T12:00:51.531Z</time></trkpt><trkpt lat="43.1286615" lon="12.8610219"><ele>845.0</ele><time>2026-04-25T12:00:52.528Z</time></trkpt><trkpt lat="43.1285308" lon="12.8609968"><ele>845.0</ele><time>2026-04-25T12:00:53.527Z</time></trkpt><trkpt lat="43.128389" lon="12.8609892"><ele>845.0</ele><time>2026-04-25T12:00:54.529Z</time></trkpt><trkpt lat="43.1282421" lon="12.8609749"><ele>845.0</ele><time>2026-04-25T12:00:55.53Z</time></trkpt><trkpt lat="43.1281089" lon="12.8609539"><ele>845.0</ele><time>2026-04-25T12:00:56.531Z</time></trkpt><trkpt lat="43.1279889" lon="12.860931"><ele>839.0</ele><time>2026-04-25T12:00:57.53Z</time></trkpt><trkpt lat="43.1278878" lon="12.8608916"><ele>833.0</ele><time>2026-04-25T12:00:58.532Z</time></trkpt><trkpt lat="43.1277778" lon="12.8608781"><ele>827.0</ele><time>2026-04-25T12:00:59.526Z</time></trkpt><trkpt lat="43.1276727" lon="12.8608603"><ele>821.0</ele><time>2026-04-25T12:01:00.526Z</time></trkpt><trkpt lat="43.1275805" lon="12.8608195"><ele>815.0</ele><time>2026-04-25T12:01:01.527Z</time></trkpt><trkpt lat="43.1274829" lon="12.860767"><ele>815.0000000000001</ele><time>2026-04-25T12:01:02.531Z</time></trkpt><trkpt lat="43.1274032" lon="12.8606909"><ele>815.0</ele><time>2026-04-25T12:01:03.525Z</time></trkpt><trkpt lat="43.1273469" lon="12.8605781"><ele>815.0</ele><time>2026-04-25T12:01:04.525Z</time></trkpt><trkpt lat="43.1272801" lon="12.8604742"><ele>815.0</ele><time>2026-04-25T12:01:05.518Z</time></trkpt><trkpt lat="43.1272253" lon="12.8603969"><ele>815.0000000000001</ele><time>2026-04-25T12:01:06.528Z</time></trkpt><trkpt lat="43.1271685" lon="12.8603465"><ele>815.0</ele><time>2026-04-25T12:01:07.524Z</time></trkpt><trkpt lat="43.1271019" lon="12.8603163"><ele>814.8333333333334</ele><time>2026-04-25T12:01:08.535Z</time></trkpt><trkpt lat="43.1270237" lon="12.8603166"><ele>814.6666666666667</ele><time>2026-04-25T12:01:09.519Z</time></trkpt><trkpt lat="43.1269373" lon="12.8603321"><ele>814.5</ele><time>2026-04-25T12:01:10.53Z</time></trkpt><trkpt lat="43.1268734" lon="12.8603843"><ele>814.3333333333333</ele><time>2026-04-25T12:01:11.522Z</time></trkpt><trkpt lat="43.1267848" lon="12.8604364"><ele>814.1666666666666</ele><time>2026-04-25T12:01:12.528Z</time></trkpt><trkpt lat="43.1267248" lon="12.8605153"><ele>814.0</ele><time>2026-04-25T12:01:13.527Z</time></trkpt><trkpt lat="43.1266498" lon="12.8605992"><ele>815.6</ele><time>2026-04-25T12:01:14.525Z</time></trkpt><trkpt lat="43.1265597" lon="12.8606823"><ele>817.2</ele><time>2026-04-25T12:01:15.524Z</time></trkpt><trkpt lat="43.1264752" lon="12.8607444"><ele>818.8000000000001</ele><time>2026-04-25T12:01:16.535Z</time></trkpt><trkpt lat="43.1263784" lon="12.8608078"><ele>820.4000000000001</ele><time>2026-04-25T12:01:17.525Z</time></trkpt><trkpt lat="43.1262873" lon="12.8608636"><ele>822.0</ele><time>2026-04-25T12:01:18.527Z</time></trkpt><trkpt lat="43.1261975" lon="12.8609058"><ele>822.0</ele><time>2026-04-25T12:01:19.521Z</time></trkpt><trkpt lat="43.1260948" lon="12.8609338"><ele>822.0</ele><time>2026-04-25T12:01:20.53Z</time></trkpt><trkpt lat="43.1260226" lon="12.8609324"><ele>822.0</ele><time>2026-04-25T12:01:21.524Z</time></trkpt><trkpt lat="43.1259371" lon="12.8608018"><ele>822.0</ele><time>2026-04-25T12:01:23.521Z</time></trkpt><trkpt lat="43.1258909" lon="12.8607056"><ele>822.0</ele><time>2026-04-25T12:01:24.521Z</time></trkpt><trkpt lat="43.1258556" lon="12.8605968"><ele>822.0</ele><time>2026-04-25T12:01:25.529Z</time></trkpt><trkpt lat="43.1258499" lon="12.860434"><ele>822.0</ele><time>2026-04-25T12:01:27.53Z</time></trkpt><trkpt lat="43.125891" lon="12.8603653"><ele>822.0</ele><time>2026-04-25T12:01:28.531Z</time></trkpt><trkpt lat="43.1259378" lon="12.8602736"><ele>822.0</ele><time>2026-04-25T12:01:29.527Z</time></trkpt><trkpt lat="43.1259809" lon="12.8601669"><ele>822.0</ele><time>2026-04-25T12:01:30.519Z</time></trkpt><trkpt lat="43.1259459" lon="12.8600622"><ele>822.0</ele><time>2026-04-25T12:01:31.53Z</time></trkpt><trkpt lat="43.1258921" lon="12.8599759"><ele>821.0</ele><time>2026-04-25T12:01:32.53Z</time></trkpt><trkpt lat="43.1258147" lon="12.8598931"><ele>820.0</ele><time>2026-04-25T12:01:33.526Z</time></trkpt><trkpt lat="43.1257759" lon="12.8598171"><ele>819.0</ele><time>2026-04-25T12:01:34.526Z</time></trkpt><trkpt lat="43.125668" lon="12.859739"><ele>818.0</ele><time>2026-04-25T12:01:35.526Z</time></trkpt><trkpt lat="43.1255737" lon="12.8596627"><ele>817.0</ele><time>2026-04-25T12:01:36.525Z</time></trkpt><trkpt lat="43.1254656" lon="12.8595821"><ele>817.4285714285713</ele><time>2026-04-25T12:01:37.52Z</time></trkpt><trkpt lat="43.1254058" lon="12.8595007"><ele>817.8571428571429</ele><time>2026-04-25T12:01:38.532Z</time></trkpt><trkpt lat="43.1253629" lon="12.8594258"><ele>818.2857142857142</ele><time>2026-04-25T12:01:39.526Z</time></trkpt><trkpt lat="43.1253315" lon="12.859345"><ele>818.7142857142857</ele><time>2026-04-25T12:01:40.529Z</time></trkpt><trkpt lat="43.1253023" lon="12.859268"><ele>819.1428571428571</ele><time>2026-04-25T12:01:41.523Z</time></trkpt><trkpt lat="43.1252672" lon="12.8591707"><ele>819.5714285714286</ele><time>2026-04-25T12:01:42.522Z</time></trkpt><trkpt lat="43.1252491" lon="12.859078"><ele>820.0</ele><time>2026-04-25T12:01:43.521Z</time></trkpt><trkpt lat="43.1252398" lon="12.8589647"><ele>820.0</ele><time>2026-04-25T12:01:45.529Z</time></trkpt><trkpt lat="43.1252736" lon="12.8590399"><ele>820.0</ele><time>2026-04-25T12:01:53.53Z</time></trkpt><trkpt lat="43.1253438" lon="12.8589908"><ele>820.0</ele><time>2026-04-25T12:01:58.517Z</time></trkpt><trkpt lat="43.1253257" lon="12.8588969"><ele>820.0</ele><time>2026-04-25T12:02:02.517Z</time></trkpt><trkpt lat="43.125277" lon="12.8589549"><ele>820.0</ele><time>2026-04-25T12:02:17.527Z</time></trkpt><trkpt lat="43.1253019" lon="12.8590652"><ele>820.0</ele><time>2026-04-25T12:02:29.541Z</time></trkpt><trkpt lat="43.125257" lon="12.8589967"><ele>820.0</ele><time>2026-04-25T12:03:12.517Z</time></trkpt><trkpt lat="43.1252034" lon="12.8590736"><ele>820.0</ele><time>2026-04-25T12:03:17.515Z</time></trkpt><trkpt lat="43.1252342" lon="12.8589562"><ele>820.0</ele><time>2026-04-25T12:03:36.53Z</time></trkpt><trkpt lat="43.1251775" lon="12.85886"><ele>820.0</ele><time>2026-04-25T12:03:38.527Z</time></trkpt><trkpt lat="43.125256" lon="12.8590436"><ele>820.0</ele><time>2026-04-25T12:03:39.529Z</time></trkpt><trkpt lat="43.1253356" lon="12.8591128"><ele>820.0</ele><time>2026-04-25T12:03:40.536Z</time></trkpt><trkpt lat="43.1252694" lon="12.8591057"><ele>820.0</ele><time>2026-04-25T12:03:41.539Z</time></trkpt><trkpt lat="43.1253416" lon="12.8591583"><ele>820.0</ele><time>2026-04-25T12:03:44.53Z</time></trkpt><trkpt lat="43.1254391" lon="12.8592503"><ele>820.0</ele><time>2026-04-25T12:03:49.536Z</time></trkpt><trkpt lat="43.1254942" lon="12.8593069"><ele>820.0</ele><time>2026-04-25T12:03:52.543Z</time></trkpt><trkpt lat="43.1255683" lon="12.8594001"><ele>820.0</ele><time>2026-04-25T12:03:57.537Z</time></trkpt><trkpt lat="43.1254823" lon="12.8593111"><ele>820.0</ele><time>2026-04-25T12:04:11.569Z</time></trkpt><trkpt lat="43.1254392" lon="12.8592164"><ele>820.0</ele><time>2026-04-25T12:04:12.57Z</time></trkpt><trkpt lat="43.1255079" lon="12.8592755"><ele>820.0</ele><time>2026-04-25T12:04:39.566Z</time></trkpt><trkpt lat="43.1255643" lon="12.8593335"><ele>820.0</ele><time>2026-04-25T12:04:43.576Z</time></trkpt><trkpt lat="43.1254815" lon="12.8592078"><ele>820.0</ele><time>2026-04-25T12:04:45.564Z</time></trkpt><trkpt lat="43.1254128" lon="12.8591015"><ele>820.0</ele><time>2026-04-25T12:04:50.566Z</time></trkpt><trkpt lat="43.1253591" lon="12.8590534"><ele>820.0</ele><time>2026-04-25T12:04:51.566Z</time></trkpt><trkpt lat="43.1252972" lon="12.8589901"><ele>820.0</ele><time>2026-04-25T12:04:53.565Z</time></trkpt><trkpt lat="43.1252397" lon="12.8589496"><ele>820.0</ele><time>2026-04-25T12:04:56.568Z</time></trkpt><trkpt lat="43.1251781" lon="12.8590141"><ele>820.0</ele><time>2026-04-25T12:05:14.56Z</time></trkpt><trkpt lat="43.1251178" lon="12.8590389"><ele>820.0</ele><time>2026-04-25T12:05:20.561Z</time></trkpt><trkpt lat="43.1250876" lon="12.8591254"><ele>820.0</ele><time>2026-04-25T12:05:28.554Z</time></trkpt><trkpt lat="43.1251448" lon="12.8590827"><ele>820.0</ele><time>2026-04-25T12:05:37.578Z</time></trkpt><trkpt lat="43.1251603" lon="12.8589984"><ele>820.0</ele><time>2026-04-25T12:06:16.591Z</time></trkpt><trkpt lat="43.1251108" lon="12.8589383"><ele>820.0</ele><time>2026-04-25T12:06:32.56Z</time></trkpt><trkpt lat="43.1251853" lon="12.858932"><ele>820.0</ele><time>2026-04-25T12:06:37.542Z</time></trkpt><trkpt lat="43.1253806" lon="12.8589472"><ele>820.0</ele><time>2026-04-25T12:06:48.554Z</time></trkpt><trkpt lat="43.1252905" lon="12.8589181"><ele>819.9999999999999</ele><time>2026-04-25T12:06:59.547Z</time></trkpt><trkpt lat="43.1252324" lon="12.8590004"><ele>820.0</ele><time>2026-04-25T12:07:20.56Z</time></trkpt><trkpt lat="43.1251524" lon="12.8589875"><ele>820.0</ele><time>2026-04-25T12:08:21.567Z</time></trkpt><trkpt lat="43.1252247" lon="12.8589723"><ele>820.0</ele><time>2026-04-25T12:09:26.561Z</time></trkpt><trkpt lat="43.1252993" lon="12.8589495"><ele>819.9999999999999</ele><time>2026-04-25T12:09:30.581Z</time></trkpt><trkpt lat="43.1253296" lon="12.8588717"><ele>820.0</ele><time>2026-04-25T12:09:55.563Z</time></trkpt><trkpt lat="43.1252589" lon="12.858833"><ele>819.9999999999999</ele><time>2026-04-25T12:10:02.523Z</time></trkpt><trkpt lat="43.1252376" lon="12.8589162"><ele>820.0</ele><time>2026-04-25T12:10:04.545Z</time></trkpt><trkpt lat="43.1253232" lon="12.8589323"><ele>820.0</ele><time>2026-04-25T12:10:11.54Z</time></trkpt><trkpt lat="43.1252504" lon="12.8589512"><ele>820.0</ele><time>2026-04-25T12:10:19.552Z</time></trkpt><trkpt lat="43.125307" lon="12.8589129"><ele>819.9999999999999</ele><time>2026-04-25T12:10:24.578Z</time></trkpt><trkpt lat="43.1253867" lon="12.8589055"><ele>820.0</ele><time>2026-04-25T12:10:27.558Z</time></trkpt><trkpt lat="43.1254694" lon="12.8589561"><ele>820.0</ele><time>2026-04-25T12:10:30.55Z</time></trkpt><trkpt lat="43.1255886" lon="12.8589751"><ele>820.0</ele><time>2026-04-25T12:10:32.566Z</time></trkpt><trkpt lat="43.1257021" lon="12.8589791"><ele>820.0</ele><time>2026-04-25T12:10:33.577Z</time></trkpt><trkpt lat="43.1258333" lon="12.8589447"><ele>820.0</ele><time>2026-04-25T12:10:34.549Z</time></trkpt><trkpt lat="43.1259647" lon="12.8588943"><ele>817.5</ele><time>2026-04-25T12:10:35.547Z</time></trkpt><trkpt lat="43.1260975" lon="12.858855"><ele>815.0</ele><time>2026-04-25T12:10:36.552Z</time></trkpt><trkpt lat="43.1262303" lon="12.8588163"><ele>812.5</ele><time>2026-04-25T12:10:37.547Z</time></trkpt><trkpt lat="43.1263573" lon="12.8587765"><ele>810.0</ele><time>2026-04-25T12:10:38.549Z</time></trkpt><trkpt lat="43.1264723" lon="12.8587366"><ele>810.2</ele><time>2026-04-25T12:10:39.546Z</time></trkpt><trkpt lat="43.1265716" lon="12.8586979"><ele>810.4</ele><time>2026-04-25T12:10:40.536Z</time></trkpt><trkpt lat="43.1266595" lon="12.8586485"><ele>810.5999999999999</ele><time>2026-04-25T12:10:41.544Z</time></trkpt><trkpt lat="43.1267362" lon="12.8585734"><ele>810.8</ele><time>2026-04-25T12:10:42.545Z</time></trkpt><trkpt lat="43.1267962" lon="12.8584552"><ele>811.0</ele><time>2026-04-25T12:10:43.543Z</time></trkpt><trkpt lat="43.1268354" lon="12.8583106"><ele>811.0</ele><time>2026-04-25T12:10:44.536Z</time></trkpt><trkpt lat="43.1268631" lon="12.8581584"><ele>811.0</ele><time>2026-04-25T12:10:45.532Z</time></trkpt><trkpt lat="43.1268826" lon="12.857994"><ele>811.0</ele><time>2026-04-25T12:10:46.545Z</time></trkpt><trkpt lat="43.1269328" lon="12.8578424"><ele>811.0</ele><time>2026-04-25T12:10:47.564Z</time></trkpt><trkpt lat="43.1270119" lon="12.85771"><ele>814.3333333333333</ele><time>2026-04-25T12:10:48.569Z</time></trkpt><trkpt lat="43.1271193" lon="12.8575747"><ele>817.6666666666667</ele><time>2026-04-25T12:10:49.555Z</time></trkpt><trkpt lat="43.127239" lon="12.857448"><ele>821.0</ele><time>2026-04-25T12:10:50.543Z</time></trkpt><trkpt lat="43.1273621" lon="12.8573089"><ele>820.0</ele><time>2026-04-25T12:10:51.557Z</time></trkpt><trkpt lat="43.1274862" lon="12.8571479"><ele>819.0</ele><time>2026-04-25T12:10:52.563Z</time></trkpt><trkpt lat="43.1275874" lon="12.8569936"><ele>818.0</ele><time>2026-04-25T12:10:53.56Z</time></trkpt><trkpt lat="43.1276587" lon="12.8568664"><ele>817.0</ele><time>2026-04-25T12:10:54.569Z</time></trkpt><trkpt lat="43.127731" lon="12.8567095"><ele>817.0</ele><time>2026-04-25T12:10:55.557Z</time></trkpt><trkpt lat="43.1278046" lon="12.8565456"><ele>817.0</ele><time>2026-04-25T12:10:56.542Z</time></trkpt><trkpt lat="43.1278319" lon="12.8563201"><ele>817.0</ele><time>2026-04-25T12:10:57.528Z</time></trkpt><trkpt lat="43.1278369" lon="12.8560889"><ele>818.3333333333333</ele><time>2026-04-25T12:10:58.532Z</time></trkpt><trkpt lat="43.1278472" lon="12.8558838"><ele>819.6666666666667</ele><time>2026-04-25T12:10:59.534Z</time></trkpt><trkpt lat="43.1278533" lon="12.8556617"><ele>821.0</ele><time>2026-04-25T12:11:00.53Z</time></trkpt><trkpt lat="43.1278509" lon="12.8554285"><ele>821.0</ele><time>2026-04-25T12:11:01.53Z</time></trkpt><trkpt lat="43.1278399" lon="12.8552401"><ele>821.0</ele><time>2026-04-25T12:11:02.527Z</time></trkpt><trkpt lat="43.1278145" lon="12.8550506"><ele>821.0</ele><time>2026-04-25T12:11:03.532Z</time></trkpt><trkpt lat="43.1278262" lon="12.8548677"><ele>821.0</ele><time>2026-04-25T12:11:04.524Z</time></trkpt><trkpt lat="43.1278708" lon="12.8546715"><ele>822.1999999999999</ele><time>2026-04-25T12:11:05.533Z</time></trkpt><trkpt lat="43.1279084" lon="12.8545103"><ele>823.4</ele><time>2026-04-25T12:11:06.526Z</time></trkpt><trkpt lat="43.1279485" lon="12.854388"><ele>824.6</ele><time>2026-04-25T12:11:07.526Z</time></trkpt><trkpt lat="43.1280293" lon="12.8542627"><ele>825.8</ele><time>2026-04-25T12:11:08.52Z</time></trkpt><trkpt lat="43.1280947" lon="12.8541827"><ele>827.0</ele><time>2026-04-25T12:11:09.517Z</time></trkpt><trkpt lat="43.1282101" lon="12.8541618"><ele>822.2</ele><time>2026-04-25T12:11:10.52Z</time></trkpt><trkpt lat="43.1282919" lon="12.8541228"><ele>817.4000000000001</ele><time>2026-04-25T12:11:11.519Z</time></trkpt><trkpt lat="43.1283677" lon="12.8541165"><ele>812.5999999999999</ele><time>2026-04-25T12:11:12.529Z</time></trkpt><trkpt lat="43.1284562" lon="12.8541579"><ele>807.8</ele><time>2026-04-25T12:11:13.523Z</time></trkpt><trkpt lat="43.1285385" lon="12.8542236"><ele>803.0</ele><time>2026-04-25T12:11:14.53Z</time></trkpt><trkpt lat="43.1286468" lon="12.8543372"><ele>796.6666666666667</ele><time>2026-04-25T12:11:15.534Z</time></trkpt><trkpt lat="43.1287656" lon="12.8544256"><ele>790.3333333333333</ele><time>2026-04-25T12:11:16.534Z</time></trkpt><trkpt lat="43.1289084" lon="12.8545301"><ele>784.0</ele><time>2026-04-25T12:11:17.54Z</time></trkpt><trkpt lat="43.1290631" lon="12.854647"><ele>781.5</ele><time>2026-04-25T12:11:18.534Z</time></trkpt><trkpt lat="43.1292986" lon="12.8547669"><ele>779.0</ele><time>2026-04-25T12:11:19.538Z</time></trkpt><trkpt lat="43.1294991" lon="12.8549513"><ele>779.0</ele><time>2026-04-25T12:11:20.529Z</time></trkpt><trkpt lat="43.1297018" lon="12.8550899"><ele>779.0</ele><time>2026-04-25T12:11:21.53Z</time></trkpt><trkpt lat="43.1298832" lon="12.8552482"><ele>779.0</ele><time>2026-04-25T12:11:22.536Z</time></trkpt><trkpt lat="43.130019" lon="12.8553563"><ele>774.5</ele><time>2026-04-25T12:11:23.539Z</time></trkpt><trkpt lat="43.1301262" lon="12.8554851"><ele>770.0</ele><time>2026-04-25T12:11:24.541Z</time></trkpt><trkpt lat="43.1302254" lon="12.8556147"><ele>765.5</ele><time>2026-04-25T12:11:25.539Z</time></trkpt><trkpt lat="43.1303558" lon="12.8556599"><ele>761.0</ele><time>2026-04-25T12:11:26.544Z</time></trkpt><trkpt lat="43.1304989" lon="12.8557003"><ele>761.0</ele><time>2026-04-25T12:11:27.543Z</time></trkpt><trkpt lat="43.130667" lon="12.8557177"><ele>761.0</ele><time>2026-04-25T12:11:28.542Z</time></trkpt><trkpt lat="43.1308179" lon="12.8557235"><ele>761.0</ele><time>2026-04-25T12:11:29.54Z</time></trkpt><trkpt lat="43.130989" lon="12.8557381"><ele>763.6666666666666</ele><time>2026-04-25T12:11:30.542Z</time></trkpt><trkpt lat="43.1311548" lon="12.8557375"><ele>766.3333333333333</ele><time>2026-04-25T12:11:31.545Z</time></trkpt><trkpt lat="43.1313222" lon="12.8557102"><ele>769.0</ele><time>2026-04-25T12:11:32.546Z</time></trkpt><trkpt lat="43.1314671" lon="12.855683"><ele>766.0</ele><time>2026-04-25T12:11:33.546Z</time></trkpt><trkpt lat="43.1316162" lon="12.8556253"><ele>763.0</ele><time>2026-04-25T12:11:34.541Z</time></trkpt><trkpt lat="43.1317561" lon="12.8555984"><ele>760.0</ele><time>2026-04-25T12:11:35.539Z</time></trkpt><trkpt lat="43.131902" lon="12.8555886"><ele>757.0</ele><time>2026-04-25T12:11:36.539Z</time></trkpt><trkpt lat="43.1320534" lon="12.8555876"><ele>757.0</ele><time>2026-04-25T12:11:37.542Z</time></trkpt><trkpt lat="43.1321702" lon="12.8555864"><ele>757.0</ele><time>2026-04-25T12:11:38.541Z</time></trkpt><trkpt lat="43.1322933" lon="12.8555357"><ele>757.0</ele><time>2026-04-25T12:11:39.545Z</time></trkpt><trkpt lat="43.1324226" lon="12.8554634"><ele>757.0</ele><time>2026-04-25T12:11:40.538Z</time></trkpt><trkpt lat="43.1325234" lon="12.8553482"><ele>751.6666666666667</ele><time>2026-04-25T12:11:41.545Z</time></trkpt><trkpt lat="43.1326347" lon="12.8552026"><ele>746.3333333333334</ele><time>2026-04-25T12:11:42.543Z</time></trkpt><trkpt lat="43.1327519" lon="12.8550594"><ele>741.0</ele><time>2026-04-25T12:11:43.541Z</time></trkpt><trkpt lat="43.1328624" lon="12.8549356"><ele>743.25</ele><time>2026-04-25T12:11:44.544Z</time></trkpt><trkpt lat="43.1330037" lon="12.8548644"><ele>745.5</ele><time>2026-04-25T12:11:45.542Z</time></trkpt><trkpt lat="43.133166" lon="12.8548586"><ele>747.75</ele><time>2026-04-25T12:11:46.537Z</time></trkpt><trkpt lat="43.13329" lon="12.8548553"><ele>750.0</ele><time>2026-04-25T12:11:47.538Z</time></trkpt><trkpt lat="43.1334131" lon="12.85483"><ele>750.0</ele><time>2026-04-25T12:11:48.538Z</time></trkpt><trkpt lat="43.1335267" lon="12.8547796"><ele>750.0</ele><time>2026-04-25T12:11:49.54Z</time></trkpt><trkpt lat="43.1336047" lon="12.8546641"><ele>750.0</ele><time>2026-04-25T12:11:50.545Z</time></trkpt><trkpt lat="43.1336611" lon="12.8545395"><ele>750.0</ele><time>2026-04-25T12:11:51.538Z</time></trkpt><trkpt lat="43.1337068" lon="12.8543784"><ele>757.6666666666667</ele><time>2026-04-25T12:11:52.549Z</time></trkpt><trkpt lat="43.1337339" lon="12.8541859"><ele>765.3333333333334</ele><time>2026-04-25T12:11:53.536Z</time></trkpt><trkpt lat="43.1337647" lon="12.8539665"><ele>773.0</ele><time>2026-04-25T12:11:54.549Z</time></trkpt><trkpt lat="43.1337931" lon="12.8537507"><ele>773.0</ele><time>2026-04-25T12:11:55.538Z</time></trkpt><trkpt lat="43.1338275" lon="12.8535309"><ele>773.0</ele><time>2026-04-25T12:11:56.536Z</time></trkpt><trkpt lat="43.1338417" lon="12.8533448"><ele>773.0</ele><time>2026-04-25T12:11:57.531Z</time></trkpt><trkpt lat="43.1339879" lon="12.8531888"><ele>764.0</ele><time>2026-04-25T12:11:58.528Z</time></trkpt><trkpt lat="43.1340657" lon="12.853078"><ele>755.0</ele><time>2026-04-25T12:11:59.524Z</time></trkpt><trkpt lat="43.134183" lon="12.8529505"><ele>746.0</ele><time>2026-04-25T12:12:00.53Z</time></trkpt><trkpt lat="43.1343111" lon="12.852836"><ele>737.0</ele><time>2026-04-25T12:12:01.532Z</time></trkpt><trkpt lat="43.1344566" lon="12.8527865"><ele>737.0</ele><time>2026-04-25T12:12:02.527Z</time></trkpt><trkpt lat="43.1346121" lon="12.8527495"><ele>737.0</ele><time>2026-04-25T12:12:03.538Z</time></trkpt><trkpt lat="43.1347658" lon="12.8527289"><ele>737.0</ele><time>2026-04-25T12:12:04.535Z</time></trkpt><trkpt lat="43.1349047" lon="12.8527065"><ele>737.25</ele><time>2026-04-25T12:12:05.527Z</time></trkpt><trkpt lat="43.1349959" lon="12.8526397"><ele>737.5</ele><time>2026-04-25T12:12:06.533Z</time></trkpt><trkpt lat="43.135086" lon="12.8525746"><ele>737.75</ele><time>2026-04-25T12:12:07.535Z</time></trkpt><trkpt lat="43.1352053" lon="12.8524432"><ele>738.0</ele><time>2026-04-25T12:12:08.545Z</time></trkpt><trkpt lat="43.1352898" lon="12.8522969"><ele>738.0</ele><time>2026-04-25T12:12:09.531Z</time></trkpt><trkpt lat="43.1353775" lon="12.8521445"><ele>738.0</ele><time>2026-04-25T12:12:10.537Z</time></trkpt><trkpt lat="43.1354545" lon="12.8520091"><ele>738.0</ele><time>2026-04-25T12:12:11.537Z</time></trkpt><trkpt lat="43.1355358" lon="12.8519249"><ele>738.0</ele><time>2026-04-25T12:12:12.547Z</time></trkpt><trkpt lat="43.1356391" lon="12.8518955"><ele>736.5</ele><time>2026-04-25T12:12:13.55Z</time></trkpt><trkpt lat="43.1357494" lon="12.8518968"><ele>735.0</ele><time>2026-04-25T12:12:14.547Z</time></trkpt><trkpt lat="43.1358473" lon="12.8519001"><ele>733.5</ele><time>2026-04-25T12:12:15.55Z</time></trkpt><trkpt lat="43.1359264" lon="12.8518774"><ele>732.0</ele><time>2026-04-25T12:12:16.559Z</time></trkpt><trkpt lat="43.1359937" lon="12.8518436"><ele>730.5</ele><time>2026-04-25T12:12:17.555Z</time></trkpt><trkpt lat="43.1360592" lon="12.8517934"><ele>729.0</ele><time>2026-04-25T12:12:18.546Z</time></trkpt><trkpt lat="43.1360859" lon="12.8516748"><ele>729.0</ele><time>2026-04-25T12:12:19.545Z</time></trkpt><trkpt lat="43.1361048" lon="12.8515247"><ele>729.0</ele><time>2026-04-25T12:12:20.546Z</time></trkpt><trkpt lat="43.1361127" lon="12.851356"><ele>729.0</ele><time>2026-04-25T12:12:21.553Z</time></trkpt><trkpt lat="43.1360639" lon="12.8511623"><ele>729.0</ele><time>2026-04-25T12:12:22.545Z</time></trkpt><trkpt lat="43.1360383" lon="12.8509654"><ele>726.6666666666666</ele><time>2026-04-25T12:12:23.537Z</time></trkpt><trkpt lat="43.1359977" lon="12.8507872"><ele>724.3333333333333</ele><time>2026-04-25T12:12:24.531Z</time></trkpt><trkpt lat="43.1359418" lon="12.8505953"><ele>722.0</ele><time>2026-04-25T12:12:25.528Z</time></trkpt><trkpt lat="43.1358315" lon="12.8504223"><ele>731.3333333333333</ele><time>2026-04-25T12:12:26.53Z</time></trkpt><trkpt lat="43.1356836" lon="12.8502636"><ele>740.6666666666666</ele><time>2026-04-25T12:12:27.531Z</time></trkpt><trkpt lat="43.1355684" lon="12.850073"><ele>750.0</ele><time>2026-04-25T12:12:28.53Z</time></trkpt><trkpt lat="43.1354669" lon="12.8498547"><ele>750.0</ele><time>2026-04-25T12:12:29.53Z</time></trkpt><trkpt lat="43.1354243" lon="12.8495954"><ele>750.0</ele><time>2026-04-25T12:12:30.532Z</time></trkpt><trkpt lat="43.1353827" lon="12.8493652"><ele>750.0</ele><time>2026-04-25T12:12:31.536Z</time></trkpt><trkpt lat="43.13548" lon="12.8491576"><ele>745.0</ele><time>2026-04-25T12:12:32.526Z</time></trkpt><trkpt lat="43.1356376" lon="12.8489883"><ele>740.0</ele><time>2026-04-25T12:12:33.537Z</time></trkpt><trkpt lat="43.135824" lon="12.8488153"><ele>735.0</ele><time>2026-04-25T12:12:34.532Z</time></trkpt><trkpt lat="43.1360927" lon="12.8485976"><ele>715.6666666666666</ele><time>2026-04-25T12:12:35.53Z</time></trkpt><trkpt lat="43.1362599" lon="12.8483923"><ele>696.3333333333333</ele><time>2026-04-25T12:12:36.534Z</time></trkpt><trkpt lat="43.1363314" lon="12.8482587"><ele>677.0</ele><time>2026-04-25T12:12:37.531Z</time></trkpt><trkpt lat="43.1361043" lon="12.8481177"><ele>677.0</ele><time>2026-04-25T12:12:38.52Z</time></trkpt><trkpt lat="43.1358942" lon="12.8480526"><ele>677.0</ele><time>2026-04-25T12:12:39.526Z</time></trkpt><trkpt lat="43.1356626" lon="12.8479701"><ele>694.0</ele><time>2026-04-25T12:12:40.528Z</time></trkpt><trkpt lat="43.1353311" lon="12.8478756"><ele>711.0</ele><time>2026-04-25T12:12:41.526Z</time></trkpt><trkpt lat="43.1350509" lon="12.8477904"><ele>704.0</ele><time>2026-04-25T12:12:42.521Z</time></trkpt><trkpt lat="43.1346833" lon="12.847677"><ele>697.0</ele><time>2026-04-25T12:12:43.532Z</time></trkpt><trkpt lat="43.1343251" lon="12.8475405"><ele>697.0</ele><time>2026-04-25T12:12:44.532Z</time></trkpt><trkpt lat="43.1341051" lon="12.8474144"><ele>697.0</ele><time>2026-04-25T12:12:45.53Z</time></trkpt><trkpt lat="43.133901" lon="12.8473241"><ele>703.0</ele><time>2026-04-25T12:12:46.532Z</time></trkpt><trkpt lat="43.1336966" lon="12.847201"><ele>709.0</ele><time>2026-04-25T12:12:47.531Z</time></trkpt><trkpt lat="43.1335312" lon="12.8470814"><ele>715.0</ele><time>2026-04-25T12:12:48.53Z</time></trkpt><trkpt lat="43.1333456" lon="12.846936"><ele>710.6666666666667</ele><time>2026-04-25T12:12:49.537Z</time></trkpt><trkpt lat="43.1331818" lon="12.846791"><ele>706.3333333333334</ele><time>2026-04-25T12:12:50.529Z</time></trkpt><trkpt lat="43.1330095" lon="12.8466649"><ele>702.0</ele><time>2026-04-25T12:12:51.531Z</time></trkpt><trkpt lat="43.1328307" lon="12.8465389"><ele>702.0</ele><time>2026-04-25T12:12:52.529Z</time></trkpt><trkpt lat="43.1326737" lon="12.8464113"><ele>702.0</ele><time>2026-04-25T12:12:53.531Z</time></trkpt><trkpt lat="43.1324755" lon="12.8462945"><ele>702.0</ele><time>2026-04-25T12:12:54.526Z</time></trkpt><trkpt lat="43.1322648" lon="12.8461773"><ele>697.3333333333334</ele><time>2026-04-25T12:12:55.532Z</time></trkpt><trkpt lat="43.1320729" lon="12.8460637"><ele>692.6666666666667</ele><time>2026-04-25T12:12:56.528Z</time></trkpt><trkpt lat="43.1318991" lon="12.845959"><ele>688.0</ele><time>2026-04-25T12:12:57.537Z</time></trkpt><trkpt lat="43.1317273" lon="12.8458726"><ele>688.0</ele><time>2026-04-25T12:12:58.53Z</time></trkpt><trkpt lat="43.1315989" lon="12.8457961"><ele>688.0</ele><time>2026-04-25T12:12:59.533Z</time></trkpt><trkpt lat="43.1314686" lon="12.8457189"><ele>688.0</ele><time>2026-04-25T12:13:00.528Z</time></trkpt><trkpt lat="43.1313439" lon="12.845654"><ele>688.0</ele><time>2026-04-25T12:13:01.53Z</time></trkpt><trkpt lat="43.1311512" lon="12.8455906"><ele>687.4</ele><time>2026-04-25T12:13:02.529Z</time></trkpt><trkpt lat="43.1310653" lon="12.8454809"><ele>686.8</ele><time>2026-04-25T12:13:03.536Z</time></trkpt><trkpt lat="43.1310719" lon="12.8453326"><ele>686.2</ele><time>2026-04-25T12:13:04.525Z</time></trkpt><trkpt lat="43.1310664" lon="12.8452195"><ele>685.6</ele><time>2026-04-25T12:13:05.528Z</time></trkpt><trkpt lat="43.1310731" lon="12.8451254"><ele>685.0</ele><time>2026-04-25T12:13:06.527Z</time></trkpt><trkpt lat="43.1310738" lon="12.8450258"><ele>685.0</ele><time>2026-04-25T12:13:07.522Z</time></trkpt><trkpt lat="43.1311763" lon="12.8448176"><ele>685.0</ele><time>2026-04-25T12:13:08.51Z</time></trkpt><trkpt lat="43.131352" lon="12.8447067"><ele>685.0</ele><time>2026-04-25T12:13:09.519Z</time></trkpt><trkpt lat="43.1315077" lon="12.8446338"><ele>682.25</ele><time>2026-04-25T12:13:10.519Z</time></trkpt><trkpt lat="43.1316571" lon="12.8446385"><ele>679.5</ele><time>2026-04-25T12:13:11.524Z</time></trkpt><trkpt lat="43.1318006" lon="12.8446554"><ele>676.75</ele><time>2026-04-25T12:13:12.526Z</time></trkpt><trkpt lat="43.1319268" lon="12.8446832"><ele>674.0</ele><time>2026-04-25T12:13:13.527Z</time></trkpt><trkpt lat="43.1320877" lon="12.8447039"><ele>674.0</ele><time>2026-04-25T12:13:14.523Z</time></trkpt><trkpt lat="43.1322358" lon="12.8447464"><ele>674.0</ele><time>2026-04-25T12:13:15.52Z</time></trkpt><trkpt lat="43.1323766" lon="12.8447332"><ele>674.0</ele><time>2026-04-25T12:13:16.523Z</time></trkpt><trkpt lat="43.1324752" lon="12.8447111"><ele>674.0</ele><time>2026-04-25T12:13:17.52Z</time></trkpt><trkpt lat="43.1325516" lon="12.8447104"><ele>672.0</ele><time>2026-04-25T12:13:18.516Z</time></trkpt><trkpt lat="43.1326862" lon="12.8446408"><ele>670.0</ele><time>2026-04-25T12:13:19.52Z</time></trkpt><trkpt lat="43.1328582" lon="12.8446187"><ele>668.0</ele><time>2026-04-25T12:13:20.515Z</time></trkpt><trkpt lat="43.1330231" lon="12.84463"><ele>668.0</ele><time>2026-04-25T12:13:21.518Z</time></trkpt><trkpt lat="43.1331783" lon="12.8445984"><ele>668.0</ele><time>2026-04-25T12:13:22.52Z</time></trkpt><trkpt lat="43.1333406" lon="12.8446892"><ele>668.0</ele><time>2026-04-25T12:13:23.515Z</time></trkpt><trkpt lat="43.1334617" lon="12.8446986"><ele>667.6666666666666</ele><time>2026-04-25T12:13:24.516Z</time></trkpt><trkpt lat="43.1336053" lon="12.8447184"><ele>667.3333333333334</ele><time>2026-04-25T12:13:25.518Z</time></trkpt><trkpt lat="43.1337685" lon="12.8447973"><ele>667.0</ele><time>2026-04-25T12:13:26.518Z</time></trkpt><trkpt lat="43.1339449" lon="12.8449482"><ele>671.0</ele><time>2026-04-25T12:13:27.518Z</time></trkpt><trkpt lat="43.1341261" lon="12.8450796"><ele>675.0</ele><time>2026-04-25T12:13:28.521Z</time></trkpt><trkpt lat="43.1344241" lon="12.8451923"><ele>658.5</ele><time>2026-04-25T12:13:29.519Z</time></trkpt><trkpt lat="43.1346421" lon="12.8453041"><ele>642.0</ele><time>2026-04-25T12:13:30.52Z</time></trkpt><trkpt lat="43.1349372" lon="12.8454012"><ele>641.0</ele><time>2026-04-25T12:13:31.525Z</time></trkpt><trkpt lat="43.1351757" lon="12.8454489"><ele>640.0</ele><time>2026-04-25T12:13:32.522Z</time></trkpt><trkpt lat="43.1354817" lon="12.8454948"><ele>639.0</ele><time>2026-04-25T12:13:33.531Z</time></trkpt><trkpt lat="43.1357632" lon="12.8455445"><ele>638.0</ele><time>2026-04-25T12:13:34.523Z</time></trkpt><trkpt lat="43.1360672" lon="12.8455834"><ele>638.0</ele><time>2026-04-25T12:13:35.526Z</time></trkpt><trkpt lat="43.1363504" lon="12.8455859"><ele>638.0</ele><time>2026-04-25T12:13:36.521Z</time></trkpt><trkpt lat="43.136589" lon="12.8456787"><ele>640.6666666666666</ele><time>2026-04-25T12:13:37.525Z</time></trkpt><trkpt lat="43.1368153" lon="12.8457706"><ele>643.3333333333334</ele><time>2026-04-25T12:13:38.52Z</time></trkpt><trkpt lat="43.13702" lon="12.845815"><ele>646.0</ele><time>2026-04-25T12:13:39.524Z</time></trkpt><trkpt lat="43.1372048" lon="12.8458211"><ele>645.3333333333334</ele><time>2026-04-25T12:13:40.521Z</time></trkpt><trkpt lat="43.1373925" lon="12.8458106"><ele>644.6666666666666</ele><time>2026-04-25T12:13:41.524Z</time></trkpt><trkpt lat="43.137568" lon="12.845814"><ele>644.0</ele><time>2026-04-25T12:13:42.526Z</time></trkpt><trkpt lat="43.1377039" lon="12.8458577"><ele>644.0</ele><time>2026-04-25T12:13:43.526Z</time></trkpt><trkpt lat="43.1378268" lon="12.8458875"><ele>644.0</ele><time>2026-04-25T12:13:44.528Z</time></trkpt><trkpt lat="43.13796" lon="12.8459738"><ele>644.0</ele><time>2026-04-25T12:13:45.532Z</time></trkpt><trkpt lat="43.1381116" lon="12.8460592"><ele>644.0</ele><time>2026-04-25T12:13:46.536Z</time></trkpt><trkpt lat="43.1382928" lon="12.8461654"><ele>633.3333333333333</ele><time>2026-04-25T12:13:47.53Z</time></trkpt><trkpt lat="43.1385006" lon="12.8462514"><ele>622.6666666666666</ele><time>2026-04-25T12:13:48.533Z</time></trkpt><trkpt lat="43.1386696" lon="12.846355"><ele>612.0</ele><time>2026-04-25T12:13:49.535Z</time></trkpt><trkpt lat="43.1387985" lon="12.8464392"><ele>612.0</ele><time>2026-04-25T12:13:50.531Z</time></trkpt><trkpt lat="43.1389197" lon="12.8465067"><ele>612.0</ele><time>2026-04-25T12:13:51.531Z</time></trkpt><trkpt lat="43.1390567" lon="12.8465371"><ele>612.0</ele><time>2026-04-25T12:13:52.525Z</time></trkpt><trkpt lat="43.1392183" lon="12.8465427"><ele>612.0</ele><time>2026-04-25T12:13:53.536Z</time></trkpt><trkpt lat="43.1392789" lon="12.846459"><ele>612.0</ele><time>2026-04-25T12:13:54.54Z</time></trkpt><trkpt lat="43.1393022" lon="12.846349"><ele>612.0</ele><time>2026-04-25T12:13:55.536Z</time></trkpt><trkpt lat="43.1393894" lon="12.8462363"><ele>612.0</ele><time>2026-04-25T12:13:56.538Z</time></trkpt><trkpt lat="43.1395174" lon="12.8461138"><ele>612.0</ele><time>2026-04-25T12:13:57.537Z</time></trkpt><trkpt lat="43.1396603" lon="12.8459924"><ele>613.6666666666666</ele><time>2026-04-25T12:13:58.536Z</time></trkpt><trkpt lat="43.1397894" lon="12.8458377"><ele>615.3333333333333</ele><time>2026-04-25T12:13:59.53Z</time></trkpt><trkpt lat="43.1399258" lon="12.8456489"><ele>617.0</ele><time>2026-04-25T12:14:00.536Z</time></trkpt><trkpt lat="43.1400402" lon="12.8454882"><ele>617.0</ele><time>2026-04-25T12:14:01.535Z</time></trkpt><trkpt lat="43.1401402" lon="12.8453908"><ele>617.0</ele><time>2026-04-25T12:14:02.541Z</time></trkpt><trkpt lat="43.1402216" lon="12.8453499"><ele>617.0</ele><time>2026-04-25T12:14:03.541Z</time></trkpt><trkpt lat="43.1403137" lon="12.845351"><ele>617.0</ele><time>2026-04-25T12:14:04.539Z</time></trkpt><trkpt lat="43.1403969" lon="12.845367"><ele>617.0</ele><time>2026-04-25T12:14:05.541Z</time></trkpt><trkpt lat="43.1404932" lon="12.8454218"><ele>617.0</ele><time>2026-04-25T12:14:06.539Z</time></trkpt><trkpt lat="43.1405779" lon="12.845467"><ele>617.0</ele><time>2026-04-25T12:14:07.551Z</time></trkpt><trkpt lat="43.1406279" lon="12.8455867"><ele>617.0</ele><time>2026-04-25T12:14:08.548Z</time></trkpt><trkpt lat="43.1406437" lon="12.8457342"><ele>617.0</ele><time>2026-04-25T12:14:09.554Z</time></trkpt><trkpt lat="43.1406474" lon="12.8459272"><ele>617.0</ele><time>2026-04-25T12:14:10.54Z</time></trkpt><trkpt lat="43.1406391" lon="12.8461339"><ele>613.3333333333333</ele><time>2026-04-25T12:14:11.544Z</time></trkpt><trkpt lat="43.1406332" lon="12.8463472"><ele>609.6666666666666</ele><time>2026-04-25T12:14:12.549Z</time></trkpt><trkpt lat="43.1406215" lon="12.8465755"><ele>606.0</ele><time>2026-04-25T12:14:13.542Z</time></trkpt><trkpt lat="43.1406107" lon="12.8468035"><ele>604.75</ele><time>2026-04-25T12:14:14.548Z</time></trkpt><trkpt lat="43.1405881" lon="12.8470121"><ele>603.5</ele><time>2026-04-25T12:14:15.542Z</time></trkpt><trkpt lat="43.1405776" lon="12.8472078"><ele>602.25</ele><time>2026-04-25T12:14:16.541Z</time></trkpt><trkpt lat="43.1405425" lon="12.8473725"><ele>601.0</ele><time>2026-04-25T12:14:17.547Z</time></trkpt><trkpt lat="43.1404459" lon="12.8474994"><ele>600.4</ele><time>2026-04-25T12:14:18.545Z</time></trkpt><trkpt lat="43.140366" lon="12.8476363"><ele>599.8</ele><time>2026-04-25T12:14:19.549Z</time></trkpt><trkpt lat="43.1403065" lon="12.8477464"><ele>599.1999999999999</ele><time>2026-04-25T12:14:20.539Z</time></trkpt><trkpt lat="43.1402524" lon="12.8478767"><ele>598.6</ele><time>2026-04-25T12:14:21.548Z</time></trkpt><trkpt lat="43.1402264" lon="12.8480134"><ele>598.0</ele><time>2026-04-25T12:14:22.547Z</time></trkpt><trkpt lat="43.1402078" lon="12.848155"><ele>598.0</ele><time>2026-04-25T12:14:23.545Z</time></trkpt><trkpt lat="43.1402425" lon="12.8483045"><ele>598.0</ele><time>2026-04-25T12:14:24.555Z</time></trkpt><trkpt lat="43.1403646" lon="12.8484185"><ele>598.0</ele><time>2026-04-25T12:14:25.537Z</time></trkpt><trkpt lat="43.1404805" lon="12.8485132"><ele>598.0</ele><time>2026-04-25T12:14:26.542Z</time></trkpt><trkpt lat="43.1405921" lon="12.8486274"><ele>597.0</ele><time>2026-04-25T12:14:27.543Z</time></trkpt><trkpt lat="43.1407163" lon="12.8487437"><ele>596.0</ele><time>2026-04-25T12:14:28.547Z</time></trkpt><trkpt lat="43.1408456" lon="12.8488799"><ele>595.0</ele><time>2026-04-25T12:14:29.551Z</time></trkpt><trkpt lat="43.1409772" lon="12.8490367"><ele>595.0</ele><time>2026-04-25T12:14:30.544Z</time></trkpt><trkpt lat="43.1410908" lon="12.8492173"><ele>595.0</ele><time>2026-04-25T12:14:31.539Z</time></trkpt><trkpt lat="43.1411806" lon="12.8493869"><ele>595.0</ele><time>2026-04-25T12:14:32.539Z</time></trkpt><trkpt lat="43.1412719" lon="12.8495899"><ele>592.3333333333334</ele><time>2026-04-25T12:14:33.538Z</time></trkpt><trkpt lat="43.1413885" lon="12.849791"><ele>589.6666666666666</ele><time>2026-04-25T12:14:34.542Z</time></trkpt><trkpt lat="43.1414749" lon="12.8499964"><ele>587.0</ele><time>2026-04-25T12:14:35.545Z</time></trkpt><trkpt lat="43.141574" lon="12.8501847"><ele>587.0</ele><time>2026-04-25T12:14:36.548Z</time></trkpt><trkpt lat="43.1416536" lon="12.8503585"><ele>587.0</ele><time>2026-04-25T12:14:37.551Z</time></trkpt><trkpt lat="43.1417503" lon="12.8505424"><ele>587.0</ele><time>2026-04-25T12:14:38.549Z</time></trkpt><trkpt lat="43.1418571" lon="12.8507057"><ele>587.0</ele><time>2026-04-25T12:14:39.543Z</time></trkpt><trkpt lat="43.1419764" lon="12.8508666"><ele>587.0</ele><time>2026-04-25T12:14:40.553Z</time></trkpt><trkpt lat="43.1421024" lon="12.851018"><ele>587.0</ele><time>2026-04-25T12:14:41.551Z</time></trkpt><trkpt lat="43.1422527" lon="12.8511546"><ele>585.6666666666666</ele><time>2026-04-25T12:14:42.547Z</time></trkpt><trkpt lat="43.1423865" lon="12.8513143"><ele>584.3333333333334</ele><time>2026-04-25T12:14:43.544Z</time></trkpt><trkpt lat="43.1425081" lon="12.8514764"><ele>583.0</ele><time>2026-04-25T12:14:44.539Z</time></trkpt><trkpt lat="43.1426278" lon="12.8516229"><ele>583.0</ele><time>2026-04-25T12:14:45.547Z</time></trkpt><trkpt lat="43.1427686" lon="12.851782"><ele>583.0</ele><time>2026-04-25T12:14:46.541Z</time></trkpt><trkpt lat="43.1429216" lon="12.8518862"><ele>583.0</ele><time>2026-04-25T12:14:47.542Z</time></trkpt><trkpt lat="43.1430802" lon="12.8520178"><ele>581.3333333333334</ele><time>2026-04-25T12:14:48.55Z</time></trkpt><trkpt lat="43.143242" lon="12.852137"><ele>579.6666666666666</ele><time>2026-04-25T12:14:49.541Z</time></trkpt><trkpt lat="43.1434143" lon="12.8522551"><ele>578.0</ele><time>2026-04-25T12:14:50.548Z</time></trkpt><trkpt lat="43.1435982" lon="12.8523536"><ele>578.0</ele><time>2026-04-25T12:14:51.539Z</time></trkpt><trkpt lat="43.1438082" lon="12.8524922"><ele>578.0</ele><time>2026-04-25T12:14:52.543Z</time></trkpt><trkpt lat="43.1440101" lon="12.8526249"><ele>574.0</ele><time>2026-04-25T12:14:53.548Z</time></trkpt><trkpt lat="43.1441918" lon="12.8527629"><ele>570.0</ele><time>2026-04-25T12:14:54.546Z</time></trkpt><trkpt lat="43.1443177" lon="12.8528924"><ele>566.0</ele><time>2026-04-25T12:14:55.549Z</time></trkpt><trkpt lat="43.1444567" lon="12.8530012"><ele>566.0</ele><time>2026-04-25T12:14:56.545Z</time></trkpt><trkpt lat="43.1445813" lon="12.8531027"><ele>566.0</ele><time>2026-04-25T12:14:57.546Z</time></trkpt><trkpt lat="43.1447132" lon="12.8532395"><ele>566.0</ele><time>2026-04-25T12:14:58.542Z</time></trkpt><trkpt lat="43.1448485" lon="12.8533729"><ele>562.6666666666666</ele><time>2026-04-25T12:14:59.543Z</time></trkpt><trkpt lat="43.1449868" lon="12.8534577"><ele>559.3333333333334</ele><time>2026-04-25T12:15:00.533Z</time></trkpt><trkpt lat="43.1451476" lon="12.8535068"><ele>556.0</ele><time>2026-04-25T12:15:01.533Z</time></trkpt><trkpt lat="43.1453051" lon="12.8535653"><ele>556.0</ele><time>2026-04-25T12:15:02.526Z</time></trkpt><trkpt lat="43.1454265" lon="12.8536384"><ele>556.0</ele><time>2026-04-25T12:15:03.532Z</time></trkpt><trkpt lat="43.1455619" lon="12.8537226"><ele>556.0</ele><time>2026-04-25T12:15:04.526Z</time></trkpt><trkpt lat="43.1457078" lon="12.8538352"><ele>556.0</ele><time>2026-04-25T12:15:05.528Z</time></trkpt><trkpt lat="43.14585" lon="12.8539573"><ele>556.6666666666667</ele><time>2026-04-25T12:15:06.528Z</time></trkpt><trkpt lat="43.1460063" lon="12.8540998"><ele>557.3333333333334</ele><time>2026-04-25T12:15:07.529Z</time></trkpt><trkpt lat="43.1461308" lon="12.8541985"><ele>558.0</ele><time>2026-04-25T12:15:08.526Z</time></trkpt><trkpt lat="43.1462154" lon="12.8543188"><ele>556.5</ele><time>2026-04-25T12:15:09.524Z</time></trkpt><trkpt lat="43.1462984" lon="12.8544431"><ele>555.0</ele><time>2026-04-25T12:15:10.521Z</time></trkpt><trkpt lat="43.1463716" lon="12.8545569"><ele>553.5</ele><time>2026-04-25T12:15:11.529Z</time></trkpt><trkpt lat="43.1464117" lon="12.8547303"><ele>552.0</ele><time>2026-04-25T12:15:12.521Z</time></trkpt><trkpt lat="43.1464674" lon="12.8549196"><ele>552.6666666666666</ele><time>2026-04-25T12:15:13.519Z</time></trkpt><trkpt lat="43.1465209" lon="12.8551299"><ele>553.3333333333333</ele><time>2026-04-25T12:15:14.52Z</time></trkpt><trkpt lat="43.146561" lon="12.8553854"><ele>554.0</ele><time>2026-04-25T12:15:15.526Z</time></trkpt><trkpt lat="43.1465945" lon="12.8555601"><ele>552.0</ele><time>2026-04-25T12:15:16.522Z</time></trkpt><trkpt lat="43.1466515" lon="12.855671"><ele>550.0</ele><time>2026-04-25T12:15:17.532Z</time></trkpt><trkpt lat="43.1466894" lon="12.8557671"><ele>548.0</ele><time>2026-04-25T12:15:18.525Z</time></trkpt><trkpt lat="43.1468398" lon="12.8557798"><ele>546.0</ele><time>2026-04-25T12:15:20.518Z</time></trkpt><trkpt lat="43.1472219" lon="12.8558288"><ele>546.0</ele><time>2026-04-25T12:15:21.514Z</time></trkpt><trkpt lat="43.1474795" lon="12.8557873"><ele>546.0</ele><time>2026-04-25T12:15:22.51Z</time></trkpt><trkpt lat="43.147782" lon="12.8557295"><ele>546.0</ele><time>2026-04-25T12:15:23.519Z</time></trkpt><trkpt lat="43.147868" lon="12.8558219"><ele>546.0</ele><time>2026-04-25T12:15:24.518Z</time></trkpt><trkpt lat="43.1479877" lon="12.8559525"><ele>546.0</ele><time>2026-04-25T12:15:25.521Z</time></trkpt><trkpt lat="43.1481335" lon="12.8560576"><ele>546.0</ele><time>2026-04-25T12:15:26.519Z</time></trkpt><trkpt lat="43.1482487" lon="12.8561751"><ele>545.3333333333334</ele><time>2026-04-25T12:15:27.524Z</time></trkpt><trkpt lat="43.1483826" lon="12.856279"><ele>544.6666666666667</ele><time>2026-04-25T12:15:28.516Z</time></trkpt><trkpt lat="43.1485271" lon="12.8563725"><ele>544.0</ele><time>2026-04-25T12:15:29.52Z</time></trkpt><trkpt lat="43.14865" lon="12.8564856"><ele>544.0</ele><time>2026-04-25T12:15:30.522Z</time></trkpt><trkpt lat="43.1488793" lon="12.8565905"><ele>544.0</ele><time>2026-04-25T12:15:31.514Z</time></trkpt><trkpt lat="43.1489704" lon="12.8567087"><ele>544.0</ele><time>2026-04-25T12:15:32.527Z</time></trkpt><trkpt lat="43.1490168" lon="12.856778"><ele>544.0</ele><time>2026-04-25T12:15:33.515Z</time></trkpt><trkpt lat="43.1491029" lon="12.856828"><ele>545.0</ele><time>2026-04-25T12:15:34.526Z</time></trkpt><trkpt lat="43.1491942" lon="12.8568604"><ele>546.0</ele><time>2026-04-25T12:15:35.523Z</time></trkpt><trkpt lat="43.1493456" lon="12.8569174"><ele>547.0</ele><time>2026-04-25T12:15:36.531Z</time></trkpt><trkpt lat="43.1495066" lon="12.8569975"><ele>548.0</ele><time>2026-04-25T12:15:37.516Z</time></trkpt><trkpt lat="43.1496808" lon="12.8570735"><ele>548.0</ele><time>2026-04-25T12:15:38.52Z</time></trkpt><trkpt lat="43.1498401" lon="12.8571128"><ele>548.0</ele><time>2026-04-25T12:15:39.517Z</time></trkpt><trkpt lat="43.1500153" lon="12.8571337"><ele>548.0</ele><time>2026-04-25T12:15:40.523Z</time></trkpt><trkpt lat="43.1501778" lon="12.857107"><ele>546.6666666666666</ele><time>2026-04-25T12:15:41.515Z</time></trkpt><trkpt lat="43.150329" lon="12.857108"><ele>545.3333333333334</ele><time>2026-04-25T12:15:42.524Z</time></trkpt><trkpt lat="43.1505035" lon="12.8570729"><ele>544.0</ele><time>2026-04-25T12:15:43.518Z</time></trkpt><trkpt lat="43.1506611" lon="12.8570219"><ele>542.6666666666667</ele><time>2026-04-25T12:15:44.525Z</time></trkpt><trkpt lat="43.1508074" lon="12.856954"><ele>541.3333333333334</ele><time>2026-04-25T12:15:45.52Z</time></trkpt><trkpt lat="43.1509653" lon="12.8568665"><ele>540.0</ele><time>2026-04-25T12:15:46.523Z</time></trkpt><trkpt lat="43.1511169" lon="12.8567923"><ele>542.3333333333334</ele><time>2026-04-25T12:15:47.518Z</time></trkpt><trkpt lat="43.1512788" lon="12.8567189"><ele>544.6666666666667</ele><time>2026-04-25T12:15:48.521Z</time></trkpt><trkpt lat="43.15147" lon="12.8566429"><ele>547.0</ele><time>2026-04-25T12:15:49.519Z</time></trkpt><trkpt lat="43.1516507" lon="12.8565912"><ele>547.0</ele><time>2026-04-25T12:15:50.526Z</time></trkpt><trkpt lat="43.1518379" lon="12.8565194"><ele>547.0</ele><time>2026-04-25T12:15:51.519Z</time></trkpt><trkpt lat="43.1520147" lon="12.856482"><ele>547.0</ele><time>2026-04-25T12:15:52.523Z</time></trkpt><trkpt lat="43.1521303" lon="12.856454"><ele>547.0</ele><time>2026-04-25T12:15:53.522Z</time></trkpt><trkpt lat="43.1522534" lon="12.8564758"><ele>547.0</ele><time>2026-04-25T12:15:54.519Z</time></trkpt><trkpt lat="43.1523943" lon="12.8565292"><ele>547.0</ele><time>2026-04-25T12:15:55.521Z</time></trkpt><trkpt lat="43.152511" lon="12.8566293"><ele>547.0</ele><time>2026-04-25T12:15:56.519Z</time></trkpt><trkpt lat="43.152624" lon="12.8567806"><ele>545.0</ele><time>2026-04-25T12:15:57.513Z</time></trkpt><trkpt lat="43.1527552" lon="12.8568644"><ele>543.0</ele><time>2026-04-25T12:15:58.513Z</time></trkpt><trkpt lat="43.1529175" lon="12.8569783"><ele>541.0</ele><time>2026-04-25T12:15:59.518Z</time></trkpt><trkpt lat="43.1530522" lon="12.8570703"><ele>539.3333333333334</ele><time>2026-04-25T12:16:00.518Z</time></trkpt><trkpt lat="43.1532129" lon="12.8571121"><ele>537.6666666666666</ele><time>2026-04-25T12:16:01.519Z</time></trkpt><trkpt lat="43.1533725" lon="12.8571306"><ele>536.0</ele><time>2026-04-25T12:16:02.518Z</time></trkpt><trkpt lat="43.153555" lon="12.8571335"><ele>536.0</ele><time>2026-04-25T12:16:03.518Z</time></trkpt><trkpt lat="43.1537337" lon="12.8571816"><ele>536.0</ele><time>2026-04-25T12:16:04.517Z</time></trkpt><trkpt lat="43.1539215" lon="12.8572597"><ele>536.0</ele><time>2026-04-25T12:16:05.521Z</time></trkpt><trkpt lat="43.1540721" lon="12.8573388"><ele>536.6666666666666</ele><time>2026-04-25T12:16:06.519Z</time></trkpt><trkpt lat="43.1542137" lon="12.8574106"><ele>537.3333333333334</ele><time>2026-04-25T12:16:07.52Z</time></trkpt><trkpt lat="43.1543369" lon="12.8575201"><ele>538.0</ele><time>2026-04-25T12:16:08.518Z</time></trkpt><trkpt lat="43.1544956" lon="12.8576503"><ele>538.0</ele><time>2026-04-25T12:16:09.521Z</time></trkpt><trkpt lat="43.1546478" lon="12.8577905"><ele>538.0</ele><time>2026-04-25T12:16:10.511Z</time></trkpt><trkpt lat="43.154811" lon="12.857939"><ele>538.0</ele><time>2026-04-25T12:16:11.514Z</time></trkpt><trkpt lat="43.1549568" lon="12.8580257"><ele>538.6666666666667</ele><time>2026-04-25T12:16:12.519Z</time></trkpt><trkpt lat="43.1551249" lon="12.8581124"><ele>539.3333333333334</ele><time>2026-04-25T12:16:13.526Z</time></trkpt><trkpt lat="43.1553232" lon="12.8583011"><ele>540.0</ele><time>2026-04-25T12:16:14.526Z</time></trkpt><trkpt lat="43.1554298" lon="12.8585163"><ele>540.0</ele><time>2026-04-25T12:16:15.53Z</time></trkpt><trkpt lat="43.1555602" lon="12.8586499"><ele>540.0</ele><time>2026-04-25T12:16:16.525Z</time></trkpt><trkpt lat="43.1557381" lon="12.8588032"><ele>540.0</ele><time>2026-04-25T12:16:17.526Z</time></trkpt><trkpt lat="43.1559017" lon="12.8589626"><ele>538.3333333333334</ele><time>2026-04-25T12:16:18.528Z</time></trkpt><trkpt lat="43.1560585" lon="12.859109"><ele>536.6666666666667</ele><time>2026-04-25T12:16:19.533Z</time></trkpt><trkpt lat="43.1562058" lon="12.8592114"><ele>535.0</ele><time>2026-04-25T12:16:20.531Z</time></trkpt><trkpt lat="43.156353" lon="12.8593323"><ele>535.25</ele><time>2026-04-25T12:16:21.53Z</time></trkpt><trkpt lat="43.1565009" lon="12.8594407"><ele>535.5</ele><time>2026-04-25T12:16:22.53Z</time></trkpt><trkpt lat="43.1566154" lon="12.8595432"><ele>535.75</ele><time>2026-04-25T12:16:23.53Z</time></trkpt><trkpt lat="43.1567041" lon="12.8596208"><ele>536.0</ele><time>2026-04-25T12:16:24.528Z</time></trkpt><trkpt lat="43.1568217" lon="12.859742"><ele>536.0</ele><time>2026-04-25T12:16:25.528Z</time></trkpt><trkpt lat="43.1568269" lon="12.859903"><ele>536.0</ele><time>2026-04-25T12:16:26.528Z</time></trkpt><trkpt lat="43.1567992" lon="12.8600696"><ele>536.0</ele><time>2026-04-25T12:16:27.531Z</time></trkpt><trkpt lat="43.1567664" lon="12.8602494"><ele>536.0</ele><time>2026-04-25T12:16:28.535Z</time></trkpt><trkpt lat="43.156742" lon="12.8603937"><ele>535.2</ele><time>2026-04-25T12:16:29.532Z</time></trkpt><trkpt lat="43.1567232" lon="12.860536"><ele>534.4000000000001</ele><time>2026-04-25T12:16:30.531Z</time></trkpt><trkpt lat="43.1567356" lon="12.8606774"><ele>533.6</ele><time>2026-04-25T12:16:31.528Z</time></trkpt><trkpt lat="43.156771" lon="12.8608189"><ele>532.8000000000001</ele><time>2026-04-25T12:16:32.525Z</time></trkpt><trkpt lat="43.1568277" lon="12.8609398"><ele>532.0</ele><time>2026-04-25T12:16:33.545Z</time></trkpt><trkpt lat="43.1568917" lon="12.8610666"><ele>531.75</ele><time>2026-04-25T12:16:34.524Z</time></trkpt><trkpt lat="43.1569209" lon="12.8612031"><ele>531.5</ele><time>2026-04-25T12:16:35.526Z</time></trkpt><trkpt lat="43.1569675" lon="12.8613326"><ele>531.25</ele><time>2026-04-25T12:16:36.518Z</time></trkpt><trkpt lat="43.156927" lon="12.8614974"><ele>531.0</ele><time>2026-04-25T12:16:37.514Z</time></trkpt><trkpt lat="43.1568866" lon="12.8616536"><ele>531.0</ele><time>2026-04-25T12:16:38.515Z</time></trkpt><trkpt lat="43.1567822" lon="12.8615845"><ele>531.0</ele><time>2026-04-25T12:16:43.533Z</time></trkpt><trkpt lat="43.156578" lon="12.8614873"><ele>531.0</ele><time>2026-04-25T12:16:44.523Z</time></trkpt><trkpt lat="43.1564241" lon="12.8613669"><ele>530.75</ele><time>2026-04-25T12:16:45.518Z</time></trkpt><trkpt lat="43.1563298" lon="12.8612767"><ele>530.5</ele><time>2026-04-25T12:16:46.517Z</time></trkpt><trkpt lat="43.156291" lon="12.8611857"><ele>530.25</ele><time>2026-04-25T12:16:49.522Z</time></trkpt><trkpt lat="43.1563382" lon="12.8610739"><ele>530.0</ele><time>2026-04-25T12:16:51.521Z</time></trkpt><trkpt lat="43.1603855" lon="12.8621386"><ele>530.0</ele><time>2026-04-25T12:17:00.513Z</time></trkpt><trkpt lat="43.1605824" lon="12.8622303"><ele>530.0</ele><time>2026-04-25T12:17:01.52Z</time></trkpt><trkpt lat="43.1609541" lon="12.8627257"><ele>531.0</ele><time>2026-04-25T12:17:02.528Z</time></trkpt><trkpt lat="43.1609291" lon="12.8628075"><ele>532.0</ele><time>2026-04-25T12:17:03.522Z</time></trkpt><trkpt lat="43.1613837" lon="12.8631571"><ele>532.0</ele><time>2026-04-25T12:17:04.514Z</time></trkpt><trkpt lat="43.1614409" lon="12.8633537"><ele>532.0</ele><time>2026-04-25T12:17:05.509Z</time></trkpt><trkpt lat="43.1613126" lon="12.8634747"><ele>532.0</ele><time>2026-04-25T12:17:06.512Z</time></trkpt><trkpt lat="43.1612076" lon="12.8637733"><ele>529.5</ele><time>2026-04-25T12:17:07.507Z</time></trkpt><trkpt lat="43.1609119" lon="12.8639123"><ele>527.0</ele><time>2026-04-25T12:17:09.507Z</time></trkpt><trkpt lat="43.1615383" lon="12.8641402"><ele>527.0</ele><time>2026-04-25T12:17:10.514Z</time></trkpt><trkpt lat="43.1617034" lon="12.8643278"><ele>527.0</ele><time>2026-04-25T12:17:11.517Z</time></trkpt><trkpt lat="43.1618434" lon="12.8644465"><ele>527.0</ele><time>2026-04-25T12:17:12.515Z</time></trkpt><trkpt lat="43.1616614" lon="12.8645019"><ele>527.0</ele><time>2026-04-25T12:17:13.525Z</time></trkpt><trkpt lat="43.161574" lon="12.86458"><ele>527.0</ele><time>2026-04-25T12:17:14.527Z</time></trkpt><trkpt lat="43.1616568" lon="12.8646153"><ele>527.0</ele><time>2026-04-25T12:17:15.517Z</time></trkpt><trkpt lat="43.1619245" lon="12.8646967"><ele>527.0</ele><time>2026-04-25T12:17:16.53Z</time></trkpt><trkpt lat="43.1621312" lon="12.8647548"><ele>527.0</ele><time>2026-04-25T12:17:17.532Z</time></trkpt><trkpt lat="43.1624182" lon="12.864859"><ele>527.6666666666666</ele><time>2026-04-25T12:17:18.53Z</time></trkpt><trkpt lat="43.1626441" lon="12.8649369"><ele>528.3333333333334</ele><time>2026-04-25T12:17:19.53Z</time></trkpt><trkpt lat="43.1627933" lon="12.8650004"><ele>529.0</ele><time>2026-04-25T12:17:20.534Z</time></trkpt><trkpt lat="43.1628961" lon="12.8650609"><ele>527.6666666666667</ele><time>2026-04-25T12:17:21.525Z</time></trkpt><trkpt lat="43.1630273" lon="12.8652122"><ele>526.3333333333334</ele><time>2026-04-25T12:17:23.527Z</time></trkpt><trkpt lat="43.1631413" lon="12.8653859"><ele>525.0</ele><time>2026-04-25T12:17:24.523Z</time></trkpt><trkpt lat="43.1632652" lon="12.865596"><ele>525.0</ele><time>2026-04-25T12:17:25.532Z</time></trkpt><trkpt lat="43.1633806" lon="12.8657722"><ele>525.0</ele><time>2026-04-25T12:17:26.527Z</time></trkpt><trkpt lat="43.1635344" lon="12.865804"><ele>525.0</ele><time>2026-04-25T12:17:27.528Z</time></trkpt><trkpt lat="43.1637005" lon="12.865841"><ele>525.0</ele><time>2026-04-25T12:17:28.535Z</time></trkpt><trkpt lat="43.1639201" lon="12.8658764"><ele>525.0</ele><time>2026-04-25T12:17:29.529Z</time></trkpt><trkpt lat="43.1640889" lon="12.865976"><ele>525.0</ele><time>2026-04-25T12:17:30.529Z</time></trkpt><trkpt lat="43.1642458" lon="12.8660401"><ele>528.0</ele><time>2026-04-25T12:17:31.522Z</time></trkpt><trkpt lat="43.1644149" lon="12.8660701"><ele>531.0</ele><time>2026-04-25T12:17:32.533Z</time></trkpt><trkpt lat="43.1645931" lon="12.8660848"><ele>534.0</ele><time>2026-04-25T12:17:33.529Z</time></trkpt><trkpt lat="43.164793" lon="12.8661198"><ele>530.0</ele><time>2026-04-25T12:17:34.538Z</time></trkpt><trkpt lat="43.1649886" lon="12.8661338"><ele>526.0</ele><time>2026-04-25T12:17:35.526Z</time></trkpt><trkpt lat="43.1651533" lon="12.8661821"><ele>522.0</ele><time>2026-04-25T12:17:36.529Z</time></trkpt><trkpt lat="43.1653263" lon="12.866254"><ele>522.0</ele><time>2026-04-25T12:17:37.531Z</time></trkpt><trkpt lat="43.1654771" lon="12.866336"><ele>522.0</ele><time>2026-04-25T12:17:38.537Z</time></trkpt><trkpt lat="43.165598" lon="12.8663909"><ele>522.0</ele><time>2026-04-25T12:17:39.532Z</time></trkpt><trkpt lat="43.1656849" lon="12.866414"><ele>522.0</ele><time>2026-04-25T12:17:40.539Z</time></trkpt><trkpt lat="43.1658115" lon="12.8664714"><ele>521.6666666666666</ele><time>2026-04-25T12:17:41.526Z</time></trkpt><trkpt lat="43.1659023" lon="12.8665932"><ele>521.3333333333333</ele><time>2026-04-25T12:17:42.529Z</time></trkpt><trkpt lat="43.1659742" lon="12.8668162"><ele>521.0</ele><time>2026-04-25T12:17:43.527Z</time></trkpt><trkpt lat="43.1660672" lon="12.8670018"><ele>522.0</ele><time>2026-04-25T12:17:44.525Z</time></trkpt><trkpt lat="43.166119" lon="12.8671835"><ele>523.0</ele><time>2026-04-25T12:17:45.523Z</time></trkpt><trkpt lat="43.1661923" lon="12.8673546"><ele>524.0</ele><time>2026-04-25T12:17:46.524Z</time></trkpt><trkpt lat="43.1662371" lon="12.8675397"><ele>525.0</ele><time>2026-04-25T12:17:47.524Z</time></trkpt><trkpt lat="43.1662796" lon="12.8676666"><ele>523.4</ele><time>2026-04-25T12:17:48.53Z</time></trkpt><trkpt lat="43.166331" lon="12.8677891"><ele>521.8</ele><time>2026-04-25T12:17:49.525Z</time></trkpt><trkpt lat="43.1663949" lon="12.8678977"><ele>520.2</ele><time>2026-04-25T12:17:50.531Z</time></trkpt><trkpt lat="43.1664736" lon="12.8679712"><ele>518.6</ele><time>2026-04-25T12:17:51.528Z</time></trkpt><trkpt lat="43.1665802" lon="12.8680232"><ele>517.0</ele><time>2026-04-25T12:17:52.538Z</time></trkpt><trkpt lat="43.1667472" lon="12.8680296"><ele>517.0</ele><time>2026-04-25T12:17:53.53Z</time></trkpt><trkpt lat="43.1669305" lon="12.8680469"><ele>517.0</ele><time>2026-04-25T12:17:54.524Z</time></trkpt><trkpt lat="43.1670536" lon="12.8680459"><ele>517.0</ele><time>2026-04-25T12:17:55.529Z</time></trkpt><trkpt lat="43.1671634" lon="12.8680635"><ele>517.0</ele><time>2026-04-25T12:17:56.525Z</time></trkpt><trkpt lat="43.1672576" lon="12.8681051"><ele>517.0</ele><time>2026-04-25T12:17:57.526Z</time></trkpt><trkpt lat="43.1673734" lon="12.8681915"><ele>517.0</ele><time>2026-04-25T12:17:58.522Z</time></trkpt><trkpt lat="43.1674619" lon="12.8682869"><ele>517.0</ele><time>2026-04-25T12:17:59.521Z</time></trkpt><trkpt lat="43.16759" lon="12.8684172"><ele>517.0</ele><time>2026-04-25T12:18:00.521Z</time></trkpt><trkpt lat="43.167719" lon="12.8684998"><ele>516.75</ele><time>2026-04-25T12:18:01.519Z</time></trkpt><trkpt lat="43.1678078" lon="12.8686055"><ele>516.5</ele><time>2026-04-25T12:18:02.518Z</time></trkpt><trkpt lat="43.1678458" lon="12.8687326"><ele>516.25</ele><time>2026-04-25T12:18:03.519Z</time></trkpt><trkpt lat="43.1679069" lon="12.8688478"><ele>516.0</ele><time>2026-04-25T12:18:04.525Z</time></trkpt><trkpt lat="43.1679713" lon="12.8690461"><ele>517.6666666666666</ele><time>2026-04-25T12:18:05.542Z</time></trkpt><trkpt lat="43.1680146" lon="12.8693109"><ele>519.3333333333333</ele><time>2026-04-25T12:18:06.528Z</time></trkpt><trkpt lat="43.1681184" lon="12.8694722"><ele>521.0</ele><time>2026-04-25T12:18:07.527Z</time></trkpt><trkpt lat="43.1683307" lon="12.8696393"><ele>512.5</ele><time>2026-04-25T12:18:08.527Z</time></trkpt><trkpt lat="43.1685784" lon="12.8697639"><ele>504.0</ele><time>2026-04-25T12:18:09.523Z</time></trkpt><trkpt lat="43.1687931" lon="12.8698759"><ele>504.0</ele><time>2026-04-25T12:18:10.529Z</time></trkpt><trkpt lat="43.1689333" lon="12.8699846"><ele>504.0</ele><time>2026-04-25T12:18:11.525Z</time></trkpt><trkpt lat="43.1690684" lon="12.8701204"><ele>504.0</ele><time>2026-04-25T12:18:12.53Z</time></trkpt><trkpt lat="43.1691657" lon="12.8703024"><ele>503.0</ele><time>2026-04-25T12:18:13.526Z</time></trkpt><trkpt lat="43.1692867" lon="12.8704742"><ele>502.0</ele><time>2026-04-25T12:18:14.53Z</time></trkpt><trkpt lat="43.1693866" lon="12.8706797"><ele>501.0</ele><time>2026-04-25T12:18:15.53Z</time></trkpt><trkpt lat="43.1694848" lon="12.8708458"><ele>500.66666666666663</ele><time>2026-04-25T12:18:16.534Z</time></trkpt><trkpt lat="43.1695646" lon="12.8709988"><ele>500.3333333333333</ele><time>2026-04-25T12:18:17.535Z</time></trkpt><trkpt lat="43.1696849" lon="12.8711632"><ele>500.0</ele><time>2026-04-25T12:18:18.538Z</time></trkpt><trkpt lat="43.1698495" lon="12.8713728"><ele>500.0</ele><time>2026-04-25T12:18:19.539Z</time></trkpt><trkpt lat="43.1700131" lon="12.8715628"><ele>500.0</ele><time>2026-04-25T12:18:20.54Z</time></trkpt><trkpt lat="43.170183" lon="12.8717573"><ele>500.0</ele><time>2026-04-25T12:18:21.537Z</time></trkpt><trkpt lat="43.1703674" lon="12.8719642"><ele>500.0</ele><time>2026-04-25T12:18:22.54Z</time></trkpt><trkpt lat="43.1705148" lon="12.872143"><ele>500.0</ele><time>2026-04-25T12:18:23.537Z</time></trkpt><trkpt lat="43.1706813" lon="12.8723564"><ele>500.0</ele><time>2026-04-25T12:18:24.541Z</time></trkpt><trkpt lat="43.1708379" lon="12.872546"><ele>498.66666666666663</ele><time>2026-04-25T12:18:25.536Z</time></trkpt><trkpt lat="43.1710212" lon="12.8727031"><ele>497.33333333333337</ele><time>2026-04-25T12:18:26.533Z</time></trkpt><trkpt lat="43.1711264" lon="12.8728455"><ele>496.0</ele><time>2026-04-25T12:18:27.537Z</time></trkpt><trkpt lat="43.1712956" lon="12.8730461"><ele>496.0</ele><time>2026-04-25T12:18:28.54Z</time></trkpt><trkpt lat="43.1714464" lon="12.8732408"><ele>496.0</ele><time>2026-04-25T12:18:29.539Z</time></trkpt><trkpt lat="43.1715688" lon="12.8734058"><ele>496.0</ele><time>2026-04-25T12:18:30.535Z</time></trkpt><trkpt lat="43.1716883" lon="12.8735479"><ele>496.0</ele><time>2026-04-25T12:18:31.539Z</time></trkpt><trkpt lat="43.1718" lon="12.8737252"><ele>496.0</ele><time>2026-04-25T12:18:32.542Z</time></trkpt><trkpt lat="43.1718877" lon="12.8739108"><ele>496.0</ele><time>2026-04-25T12:18:33.535Z</time></trkpt><trkpt lat="43.1719891" lon="12.8741309"><ele>499.6666666666667</ele><time>2026-04-25T12:18:34.536Z</time></trkpt><trkpt lat="43.1720872" lon="12.8743741"><ele>503.33333333333337</ele><time>2026-04-25T12:18:35.543Z</time></trkpt><trkpt lat="43.172183" lon="12.874575"><ele>507.0</ele><time>2026-04-25T12:18:36.537Z</time></trkpt><trkpt lat="43.1722774" lon="12.8747449"><ele>507.0</ele><time>2026-04-25T12:18:37.539Z</time></trkpt><trkpt lat="43.1723483" lon="12.8749186"><ele>507.0</ele><time>2026-04-25T12:18:38.528Z</time></trkpt><trkpt lat="43.1724105" lon="12.8750717"><ele>507.0</ele><time>2026-04-25T12:18:39.533Z</time></trkpt><trkpt lat="43.172483" lon="12.8752144"><ele>507.0</ele><time>2026-04-25T12:18:40.531Z</time></trkpt><trkpt lat="43.1725651" lon="12.8753449"><ele>506.75</ele><time>2026-04-25T12:18:41.531Z</time></trkpt><trkpt lat="43.1726758" lon="12.8754498"><ele>506.5</ele><time>2026-04-25T12:18:42.531Z</time></trkpt><trkpt lat="43.1728137" lon="12.8755405"><ele>506.25</ele><time>2026-04-25T12:18:43.529Z</time></trkpt><trkpt lat="43.1729494" lon="12.8756344"><ele>506.0</ele><time>2026-04-25T12:18:44.528Z</time></trkpt><trkpt lat="43.1731161" lon="12.8757021"><ele>503.5</ele><time>2026-04-25T12:18:45.529Z</time></trkpt><trkpt lat="43.1732478" lon="12.8757549"><ele>501.0</ele><time>2026-04-25T12:18:46.533Z</time></trkpt><trkpt lat="43.1733754" lon="12.8758038"><ele>498.5</ele><time>2026-04-25T12:18:47.533Z</time></trkpt><trkpt lat="43.1735275" lon="12.8758326"><ele>496.0</ele><time>2026-04-25T12:18:48.537Z</time></trkpt><trkpt lat="43.1736402" lon="12.8758433"><ele>496.0</ele><time>2026-04-25T12:18:49.535Z</time></trkpt><trkpt lat="43.1737376" lon="12.8758362"><ele>496.0</ele><time>2026-04-25T12:18:50.534Z</time></trkpt><trkpt lat="43.1738652" lon="12.8758208"><ele>496.0</ele><time>2026-04-25T12:18:51.532Z</time></trkpt><trkpt lat="43.1739872" lon="12.8757735"><ele>496.0</ele><time>2026-04-25T12:18:52.535Z</time></trkpt><trkpt lat="43.174094" lon="12.8756598"><ele>499.33333333333337</ele><time>2026-04-25T12:18:53.539Z</time></trkpt><trkpt lat="43.1742079" lon="12.8755215"><ele>502.66666666666663</ele><time>2026-04-25T12:18:54.534Z</time></trkpt><trkpt lat="43.1743249" lon="12.8753432"><ele>506.0</ele><time>2026-04-25T12:18:55.535Z</time></trkpt><trkpt lat="43.174396" lon="12.8751797"><ele>503.3333333333333</ele><time>2026-04-25T12:18:56.527Z</time></trkpt><trkpt lat="43.174455" lon="12.8749877"><ele>500.66666666666663</ele><time>2026-04-25T12:18:57.528Z</time></trkpt><trkpt lat="43.1744931" lon="12.8747918"><ele>498.0</ele><time>2026-04-25T12:18:58.533Z</time></trkpt><trkpt lat="43.1745781" lon="12.8746148"><ele>498.0</ele><time>2026-04-25T12:18:59.531Z</time></trkpt><trkpt lat="43.1746592" lon="12.8744827"><ele>498.0</ele><time>2026-04-25T12:19:00.526Z</time></trkpt><trkpt lat="43.1747602" lon="12.8743704"><ele>498.0</ele><time>2026-04-25T12:19:01.528Z</time></trkpt><trkpt lat="43.1748759" lon="12.8742565"><ele>498.0</ele><time>2026-04-25T12:19:02.53Z</time></trkpt><trkpt lat="43.1750379" lon="12.8741494"><ele>498.0</ele><time>2026-04-25T12:19:03.535Z</time></trkpt><trkpt lat="43.1752054" lon="12.8740574"><ele>498.0</ele><time>2026-04-25T12:19:04.535Z</time></trkpt><trkpt lat="43.1753768" lon="12.8739499"><ele>498.0</ele><time>2026-04-25T12:19:05.534Z</time></trkpt><trkpt lat="43.1755725" lon="12.8738381"><ele>500.33333333333337</ele><time>2026-04-25T12:19:06.54Z</time></trkpt><trkpt lat="43.1757596" lon="12.8737173"><ele>502.6666666666667</ele><time>2026-04-25T12:19:07.531Z</time></trkpt><trkpt lat="43.1759308" lon="12.8736061"><ele>505.0</ele><time>2026-04-25T12:19:08.532Z</time></trkpt><trkpt lat="43.1761044" lon="12.8734935"><ele>502.33333333333337</ele><time>2026-04-25T12:19:09.529Z</time></trkpt><trkpt lat="43.1762832" lon="12.8733761"><ele>499.66666666666663</ele><time>2026-04-25T12:19:10.535Z</time></trkpt><trkpt lat="43.17645" lon="12.8732522"><ele>497.0</ele><time>2026-04-25T12:19:11.525Z</time></trkpt><trkpt lat="43.1766048" lon="12.8731602"><ele>497.0</ele><time>2026-04-25T12:19:12.54Z</time></trkpt><trkpt lat="43.1767608" lon="12.873068"><ele>497.0</ele><time>2026-04-25T12:19:13.535Z</time></trkpt><trkpt lat="43.1769033" lon="12.8729588"><ele>497.0</ele><time>2026-04-25T12:19:14.539Z</time></trkpt><trkpt lat="43.1770261" lon="12.8728588"><ele>497.0</ele><time>2026-04-25T12:19:15.54Z</time></trkpt><trkpt lat="43.1771693" lon="12.8727802"><ele>497.0</ele><time>2026-04-25T12:19:16.535Z</time></trkpt><trkpt lat="43.1773098" lon="12.8727478"><ele>497.0</ele><time>2026-04-25T12:19:17.536Z</time></trkpt><trkpt lat="43.1774673" lon="12.8727194"><ele>499.0</ele><time>2026-04-25T12:19:18.528Z</time></trkpt><trkpt lat="43.1776487" lon="12.8727412"><ele>501.0</ele><time>2026-04-25T12:19:19.53Z</time></trkpt><trkpt lat="43.1778101" lon="12.8727695"><ele>503.0</ele><time>2026-04-25T12:19:20.526Z</time></trkpt><trkpt lat="43.1779944" lon="12.8728412"><ele>503.0</ele><time>2026-04-25T12:19:21.53Z</time></trkpt><trkpt lat="43.1781652" lon="12.8729073"><ele>503.0</ele><time>2026-04-25T12:19:22.534Z</time></trkpt><trkpt lat="43.1783503" lon="12.8729389"><ele>503.0</ele><time>2026-04-25T12:19:23.534Z</time></trkpt><trkpt lat="43.1785098" lon="12.8730343"><ele>502.0</ele><time>2026-04-25T12:19:24.527Z</time></trkpt><trkpt lat="43.1786937" lon="12.8730576"><ele>501.0</ele><time>2026-04-25T12:19:25.537Z</time></trkpt><trkpt lat="43.1788432" lon="12.873144"><ele>500.0</ele><time>2026-04-25T12:19:26.523Z</time></trkpt><trkpt lat="43.1789183" lon="12.8731768"><ele>499.0</ele><time>2026-04-25T12:19:27.52Z</time></trkpt><trkpt lat="43.1790636" lon="12.8731671"><ele>497.0</ele><time>2026-04-25T12:19:28.527Z</time></trkpt><trkpt lat="43.1791745" lon="12.8731226"><ele>495.0</ele><time>2026-04-25T12:19:29.525Z</time></trkpt><trkpt lat="43.1792842" lon="12.8730957"><ele>493.0</ele><time>2026-04-25T12:19:30.525Z</time></trkpt><trkpt lat="43.1794102" lon="12.8731059"><ele>491.0</ele><time>2026-04-25T12:19:31.523Z</time></trkpt><trkpt lat="43.179529" lon="12.8731492"><ele>491.0</ele><time>2026-04-25T12:19:32.527Z</time></trkpt><trkpt lat="43.1796407" lon="12.873226"><ele>491.0</ele><time>2026-04-25T12:19:33.522Z</time></trkpt><trkpt lat="43.1797686" lon="12.8733413"><ele>491.0</ele><time>2026-04-25T12:19:34.527Z</time></trkpt><trkpt lat="43.1799183" lon="12.8734789"><ele>490.66666666666663</ele><time>2026-04-25T12:19:35.523Z</time></trkpt><trkpt lat="43.1800658" lon="12.8736021"><ele>490.33333333333337</ele><time>2026-04-25T12:19:36.527Z</time></trkpt><trkpt lat="43.180199" lon="12.8737363"><ele>490.0</ele><time>2026-04-25T12:19:37.526Z</time></trkpt><trkpt lat="43.1803107" lon="12.8738948"><ele>490.0</ele><time>2026-04-25T12:19:38.521Z</time></trkpt><trkpt lat="43.1804112" lon="12.8740572"><ele>490.0</ele><time>2026-04-25T12:19:39.518Z</time></trkpt><trkpt lat="43.1805113" lon="12.8742118"><ele>490.0</ele><time>2026-04-25T12:19:40.521Z</time></trkpt><trkpt lat="43.1805928" lon="12.8744031"><ele>490.6666666666667</ele><time>2026-04-25T12:19:41.518Z</time></trkpt><trkpt lat="43.1806751" lon="12.8745989"><ele>491.33333333333337</ele><time>2026-04-25T12:19:42.518Z</time></trkpt><trkpt lat="43.1807815" lon="12.8747701"><ele>492.0</ele><time>2026-04-25T12:19:43.518Z</time></trkpt><trkpt lat="43.1808724" lon="12.8749274"><ele>492.0</ele><time>2026-04-25T12:19:44.518Z</time></trkpt><trkpt lat="43.1809728" lon="12.8750488"><ele>492.0</ele><time>2026-04-25T12:19:45.512Z</time></trkpt><trkpt lat="43.181099" lon="12.8751938"><ele>492.0</ele><time>2026-04-25T12:19:46.511Z</time></trkpt><trkpt lat="43.1812448" lon="12.8753141"><ele>490.66666666666663</ele><time>2026-04-25T12:19:47.514Z</time></trkpt><trkpt lat="43.1813975" lon="12.8754284"><ele>489.3333333333333</ele><time>2026-04-25T12:19:48.516Z</time></trkpt><trkpt lat="43.1815267" lon="12.8755568"><ele>488.0</ele><time>2026-04-25T12:19:49.509Z</time></trkpt><trkpt lat="43.1816334" lon="12.8756806"><ele>488.25</ele><time>2026-04-25T12:19:50.521Z</time></trkpt><trkpt lat="43.1817169" lon="12.8758091"><ele>488.5</ele><time>2026-04-25T12:19:51.512Z</time></trkpt><trkpt lat="43.1817994" lon="12.8759488"><ele>488.75</ele><time>2026-04-25T12:19:52.519Z</time></trkpt><trkpt lat="43.1818669" lon="12.8761177"><ele>489.0</ele><time>2026-04-25T12:19:53.512Z</time></trkpt><trkpt lat="43.1819083" lon="12.8763124"><ele>489.0</ele><time>2026-04-25T12:19:54.511Z</time></trkpt><trkpt lat="43.1819455" lon="12.876487"><ele>489.0</ele><time>2026-04-25T12:19:55.51Z</time></trkpt><trkpt lat="43.1819372" lon="12.8766765"><ele>489.0</ele><time>2026-04-25T12:19:56.52Z</time></trkpt><trkpt lat="43.1819251" lon="12.8768515"><ele>489.0</ele><time>2026-04-25T12:19:57.519Z</time></trkpt><trkpt lat="43.1818768" lon="12.8770332"><ele>489.0</ele><time>2026-04-25T12:19:58.525Z</time></trkpt><trkpt lat="43.1818278" lon="12.8772458"><ele>489.0</ele><time>2026-04-25T12:19:59.519Z</time></trkpt><trkpt lat="43.1817906" lon="12.8774388"><ele>489.0</ele><time>2026-04-25T12:20:00.522Z</time></trkpt><trkpt lat="43.1817462" lon="12.8776015"><ele>489.0</ele><time>2026-04-25T12:20:01.513Z</time></trkpt><trkpt lat="43.1817213" lon="12.8777514"><ele>487.75</ele><time>2026-04-25T12:20:02.521Z</time></trkpt><trkpt lat="43.1817071" lon="12.8779195"><ele>486.5</ele><time>2026-04-25T12:20:03.519Z</time></trkpt><trkpt lat="43.1817082" lon="12.8781195"><ele>485.25</ele><time>2026-04-25T12:20:04.517Z</time></trkpt><trkpt lat="43.1818302" lon="12.8782388"><ele>484.0</ele><time>2026-04-25T12:20:05.515Z</time></trkpt><trkpt lat="43.1819692" lon="12.8783512"><ele>485.33333333333337</ele><time>2026-04-25T12:20:06.521Z</time></trkpt><trkpt lat="43.1821137" lon="12.8784407"><ele>486.66666666666663</ele><time>2026-04-25T12:20:07.521Z</time></trkpt><trkpt lat="43.1822629" lon="12.8785364"><ele>488.0</ele><time>2026-04-25T12:20:08.527Z</time></trkpt><trkpt lat="43.1824379" lon="12.8786284"><ele>485.0</ele><time>2026-04-25T12:20:09.518Z</time></trkpt><trkpt lat="43.182539" lon="12.8787308"><ele>482.0</ele><time>2026-04-25T12:20:10.515Z</time></trkpt><trkpt lat="43.1826688" lon="12.8788501"><ele>479.0</ele><time>2026-04-25T12:20:11.517Z</time></trkpt><trkpt lat="43.1828669" lon="12.8789761"><ele>479.0</ele><time>2026-04-25T12:20:12.515Z</time></trkpt><trkpt lat="43.1829813" lon="12.8791287"><ele>479.0</ele><time>2026-04-25T12:20:13.519Z</time></trkpt><trkpt lat="43.1831154" lon="12.8792575"><ele>479.0</ele><time>2026-04-25T12:20:14.523Z</time></trkpt><trkpt lat="43.1832654" lon="12.8793694"><ele>479.0</ele><time>2026-04-25T12:20:15.521Z</time></trkpt><trkpt lat="43.1834172" lon="12.87947"><ele>479.0</ele><time>2026-04-25T12:20:16.523Z</time></trkpt><trkpt lat="43.1835655" lon="12.8796054"><ele>479.0</ele><time>2026-04-25T12:20:17.523Z</time></trkpt><trkpt lat="43.1836873" lon="12.8797408"><ele>479.0</ele><time>2026-04-25T12:20:18.522Z</time></trkpt><trkpt lat="43.1838239" lon="12.8798831"><ele>479.0</ele><time>2026-04-25T12:20:19.524Z</time></trkpt><trkpt lat="43.1839401" lon="12.8800337"><ele>479.0</ele><time>2026-04-25T12:20:20.523Z</time></trkpt><trkpt lat="43.1840789" lon="12.8802159"><ele>479.3333333333333</ele><time>2026-04-25T12:20:21.522Z</time></trkpt><trkpt lat="43.1842064" lon="12.8803688"><ele>479.66666666666663</ele><time>2026-04-25T12:20:22.524Z</time></trkpt><trkpt lat="43.1843495" lon="12.8805193"><ele>480.0</ele><time>2026-04-25T12:20:23.521Z</time></trkpt><trkpt lat="43.1844855" lon="12.8806794"><ele>480.0</ele><time>2026-04-25T12:20:24.522Z</time></trkpt><trkpt lat="43.1846017" lon="12.8808664"><ele>480.0</ele><time>2026-04-25T12:20:25.518Z</time></trkpt><trkpt lat="43.1847105" lon="12.8810584"><ele>480.0</ele><time>2026-04-25T12:20:26.525Z</time></trkpt><trkpt lat="43.1847928" lon="12.8812677"><ele>481.0</ele><time>2026-04-25T12:20:27.521Z</time></trkpt><trkpt lat="43.1848571" lon="12.8814724"><ele>482.0</ele><time>2026-04-25T12:20:28.518Z</time></trkpt><trkpt lat="43.1849126" lon="12.8816417"><ele>483.0</ele><time>2026-04-25T12:20:29.513Z</time></trkpt><trkpt lat="43.1849554" lon="12.8817827"><ele>484.0</ele><time>2026-04-25T12:20:30.516Z</time></trkpt><trkpt lat="43.1849563" lon="12.882024"><ele>484.0</ele><time>2026-04-25T12:20:31.52Z</time></trkpt><trkpt lat="43.1849794" lon="12.8821532"><ele>484.0</ele><time>2026-04-25T12:20:32.523Z</time></trkpt><trkpt lat="43.1849672" lon="12.8823317"><ele>484.0</ele><time>2026-04-25T12:20:33.519Z</time></trkpt><trkpt lat="43.1849702" lon="12.8825279"><ele>484.0</ele><time>2026-04-25T12:20:34.525Z</time></trkpt><trkpt lat="43.1849619" lon="12.8827259"><ele>484.25</ele><time>2026-04-25T12:20:35.517Z</time></trkpt><trkpt lat="43.1849413" lon="12.8829106"><ele>484.5</ele><time>2026-04-25T12:20:36.52Z</time></trkpt><trkpt lat="43.1849203" lon="12.8830861"><ele>484.75</ele><time>2026-04-25T12:20:37.514Z</time></trkpt><trkpt lat="43.1848911" lon="12.8832442"><ele>485.0</ele><time>2026-04-25T12:20:38.519Z</time></trkpt><trkpt lat="43.1848253" lon="12.8834389"><ele>485.75</ele><time>2026-04-25T12:20:39.517Z</time></trkpt><trkpt lat="43.1847558" lon="12.8835961"><ele>486.5</ele><time>2026-04-25T12:20:40.521Z</time></trkpt><trkpt lat="43.1846907" lon="12.8837522"><ele>487.25</ele><time>2026-04-25T12:20:41.514Z</time></trkpt><trkpt lat="43.1846495" lon="12.8838911"><ele>488.0</ele><time>2026-04-25T12:20:42.513Z</time></trkpt><trkpt lat="43.1846311" lon="12.8840592"><ele>488.0</ele><time>2026-04-25T12:20:43.51Z</time></trkpt><trkpt lat="43.1846071" lon="12.8842321"><ele>488.0</ele><time>2026-04-25T12:20:44.518Z</time></trkpt><trkpt lat="43.1846724" lon="12.8844209"><ele>488.0</ele><time>2026-04-25T12:20:45.517Z</time></trkpt><trkpt lat="43.1846981" lon="12.8846113"><ele>488.0</ele><time>2026-04-25T12:20:46.518Z</time></trkpt><trkpt lat="43.1848279" lon="12.8847765"><ele>489.0</ele><time>2026-04-25T12:20:47.515Z</time></trkpt><trkpt lat="43.1849285" lon="12.8849921"><ele>490.0</ele><time>2026-04-25T12:20:48.515Z</time></trkpt><trkpt lat="43.1850159" lon="12.8852312"><ele>491.0</ele><time>2026-04-25T12:20:49.513Z</time></trkpt><trkpt lat="43.1851252" lon="12.8854974"><ele>488.0</ele><time>2026-04-25T12:20:50.519Z</time></trkpt><trkpt lat="43.1852115" lon="12.8857656"><ele>485.0</ele><time>2026-04-25T12:20:51.516Z</time></trkpt><trkpt lat="43.1852936" lon="12.8860307"><ele>482.0</ele><time>2026-04-25T12:20:52.523Z</time></trkpt><trkpt lat="43.1854012" lon="12.8863053"><ele>481.66666666666663</ele><time>2026-04-25T12:20:53.52Z</time></trkpt><trkpt lat="43.1854705" lon="12.8865751"><ele>481.33333333333337</ele><time>2026-04-25T12:20:54.516Z</time></trkpt><trkpt lat="43.1855608" lon="12.8868151"><ele>481.0</ele><time>2026-04-25T12:20:55.515Z</time></trkpt><trkpt lat="43.1856096" lon="12.887076"><ele>482.33333333333337</ele><time>2026-04-25T12:20:56.518Z</time></trkpt><trkpt lat="43.1856916" lon="12.8872646"><ele>483.66666666666663</ele><time>2026-04-25T12:20:57.522Z</time></trkpt><trkpt lat="43.1857434" lon="12.8874876"><ele>485.0</ele><time>2026-04-25T12:20:58.516Z</time></trkpt><trkpt lat="43.1858121" lon="12.8877149"><ele>485.0</ele><time>2026-04-25T12:20:59.518Z</time></trkpt><trkpt lat="43.1858451" lon="12.8879537"><ele>485.0</ele><time>2026-04-25T12:21:00.513Z</time></trkpt><trkpt lat="43.1858544" lon="12.8881449"><ele>485.0</ele><time>2026-04-25T12:21:01.523Z</time></trkpt><trkpt lat="43.1858591" lon="12.8883222"><ele>485.0</ele><time>2026-04-25T12:21:02.52Z</time></trkpt><trkpt lat="43.1858501" lon="12.888458"><ele>484.75</ele><time>2026-04-25T12:21:03.523Z</time></trkpt><trkpt lat="43.1858669" lon="12.8886186"><ele>484.5</ele><time>2026-04-25T12:21:04.513Z</time></trkpt><trkpt lat="43.1859127" lon="12.8887385"><ele>484.25</ele><time>2026-04-25T12:21:05.526Z</time></trkpt><trkpt lat="43.1860066" lon="12.8888579"><ele>484.0</ele><time>2026-04-25T12:21:06.518Z</time></trkpt><trkpt lat="43.1861332" lon="12.8889365"><ele>484.0</ele><time>2026-04-25T12:21:07.518Z</time></trkpt><trkpt lat="43.1862763" lon="12.8889651"><ele>484.0</ele><time>2026-04-25T12:21:08.514Z</time></trkpt><trkpt lat="43.1863882" lon="12.8890361"><ele>484.0</ele><time>2026-04-25T12:21:09.522Z</time></trkpt><trkpt lat="43.1864847" lon="12.8891026"><ele>484.0</ele><time>2026-04-25T12:21:10.519Z</time></trkpt><trkpt lat="43.1865915" lon="12.8891491"><ele>483.5</ele><time>2026-04-25T12:21:11.519Z</time></trkpt><trkpt lat="43.1867067" lon="12.889122"><ele>483.0</ele><time>2026-04-25T12:21:12.515Z</time></trkpt><trkpt lat="43.186835" lon="12.8890776"><ele>482.5</ele><time>2026-04-25T12:21:13.512Z</time></trkpt><trkpt lat="43.1869694" lon="12.8890299"><ele>482.0</ele><time>2026-04-25T12:21:14.518Z</time></trkpt><trkpt lat="43.1871158" lon="12.8889314"><ele>482.0</ele><time>2026-04-25T12:21:15.514Z</time></trkpt><trkpt lat="43.1872655" lon="12.8888467"><ele>482.0</ele><time>2026-04-25T12:21:16.523Z</time></trkpt><trkpt lat="43.1874085" lon="12.8887703"><ele>482.0</ele><time>2026-04-25T12:21:17.511Z</time></trkpt><trkpt lat="43.187538" lon="12.888727"><ele>482.0</ele><time>2026-04-25T12:21:18.517Z</time></trkpt><trkpt lat="43.1876742" lon="12.8888145"><ele>480.0</ele><time>2026-04-25T12:21:19.515Z</time></trkpt><trkpt lat="43.1877937" lon="12.8889223"><ele>478.0</ele><time>2026-04-25T12:21:20.521Z</time></trkpt><trkpt lat="43.1879386" lon="12.8890409"><ele>476.0</ele><time>2026-04-25T12:21:21.515Z</time></trkpt><trkpt lat="43.1880909" lon="12.8891387"><ele>475.66666666666663</ele><time>2026-04-25T12:21:22.518Z</time></trkpt><trkpt lat="43.1882413" lon="12.8892884"><ele>475.33333333333337</ele><time>2026-04-25T12:21:23.515Z</time></trkpt><trkpt lat="43.1883811" lon="12.8895055"><ele>475.0</ele><time>2026-04-25T12:21:24.519Z</time></trkpt><trkpt lat="43.1885401" lon="12.8897037"><ele>475.0</ele><time>2026-04-25T12:21:25.516Z</time></trkpt><trkpt lat="43.188657" lon="12.8899029"><ele>475.0</ele><time>2026-04-25T12:21:26.521Z</time></trkpt><trkpt lat="43.1887742" lon="12.8901346"><ele>475.0</ele><time>2026-04-25T12:21:27.514Z</time></trkpt><trkpt lat="43.1888861" lon="12.8903396"><ele>477.0</ele><time>2026-04-25T12:21:28.522Z</time></trkpt><trkpt lat="43.1889878" lon="12.8905612"><ele>479.0</ele><time>2026-04-25T12:21:29.513Z</time></trkpt><trkpt lat="43.1890836" lon="12.8907166"><ele>481.0</ele><time>2026-04-25T12:21:30.515Z</time></trkpt><trkpt lat="43.1892085" lon="12.8908749"><ele>479.0</ele><time>2026-04-25T12:21:31.514Z</time></trkpt><trkpt lat="43.189358" lon="12.8910645"><ele>477.0</ele><time>2026-04-25T12:21:32.52Z</time></trkpt><trkpt lat="43.1895217" lon="12.8912604"><ele>475.0</ele><time>2026-04-25T12:21:33.521Z</time></trkpt><trkpt lat="43.1896578" lon="12.8914152"><ele>475.0</ele><time>2026-04-25T12:21:34.519Z</time></trkpt><trkpt lat="43.1897687" lon="12.8915462"><ele>475.0</ele><time>2026-04-25T12:21:35.517Z</time></trkpt><trkpt lat="43.1898671" lon="12.8917066"><ele>475.0</ele><time>2026-04-25T12:21:36.513Z</time></trkpt><trkpt lat="43.1899463" lon="12.8918834"><ele>476.33333333333337</ele><time>2026-04-25T12:21:37.516Z</time></trkpt><trkpt lat="43.19002" lon="12.8921162"><ele>477.66666666666663</ele><time>2026-04-25T12:21:38.513Z</time></trkpt><trkpt lat="43.1900953" lon="12.8923651"><ele>479.0</ele><time>2026-04-25T12:21:39.517Z</time></trkpt><trkpt lat="43.1901642" lon="12.892625"><ele>479.0</ele><time>2026-04-25T12:21:40.513Z</time></trkpt><trkpt lat="43.1902411" lon="12.8928697"><ele>479.0</ele><time>2026-04-25T12:21:41.522Z</time></trkpt><trkpt lat="43.1903059" lon="12.8931086"><ele>479.0</ele><time>2026-04-25T12:21:42.514Z</time></trkpt><trkpt lat="43.1903579" lon="12.8933415"><ele>480.3333333333333</ele><time>2026-04-25T12:21:43.518Z</time></trkpt><trkpt lat="43.1904075" lon="12.8935485"><ele>481.66666666666663</ele><time>2026-04-25T12:21:44.512Z</time></trkpt><trkpt lat="43.1904726" lon="12.8937355"><ele>483.0</ele><time>2026-04-25T12:21:45.514Z</time></trkpt><trkpt lat="43.1905105" lon="12.8939483"><ele>483.0</ele><time>2026-04-25T12:21:46.514Z</time></trkpt><trkpt lat="43.1905504" lon="12.8940856"><ele>482.99999999999994</ele><time>2026-04-25T12:21:47.52Z</time></trkpt><trkpt lat="43.1905847" lon="12.8942339"><ele>482.99999999999994</ele><time>2026-04-25T12:21:48.511Z</time></trkpt><trkpt lat="43.1906355" lon="12.8943673"><ele>483.0</ele><time>2026-04-25T12:21:49.517Z</time></trkpt><trkpt lat="43.1907095" lon="12.8944716"><ele>483.0</ele><time>2026-04-25T12:21:50.519Z</time></trkpt><trkpt lat="43.1907989" lon="12.8945475"><ele>480.75</ele><time>2026-04-25T12:21:51.517Z</time></trkpt><trkpt lat="43.1909406" lon="12.8946233"><ele>478.5</ele><time>2026-04-25T12:21:52.517Z</time></trkpt><trkpt lat="43.1910633" lon="12.8947117"><ele>476.25</ele><time>2026-04-25T12:21:53.511Z</time></trkpt><trkpt lat="43.1911188" lon="12.894855"><ele>474.0</ele><time>2026-04-25T12:21:54.505Z</time></trkpt><trkpt lat="43.1911424" lon="12.8949693"><ele>474.0</ele><time>2026-04-25T12:21:55.504Z</time></trkpt><trkpt lat="43.1911407" lon="12.8950806"><ele>474.0</ele><time>2026-04-25T12:21:56.515Z</time></trkpt><trkpt lat="43.191151" lon="12.8951877"><ele>474.0</ele><time>2026-04-25T12:21:57.507Z</time></trkpt><trkpt lat="43.1911917" lon="12.8952748"><ele>474.0</ele><time>2026-04-25T12:21:58.513Z</time></trkpt><trkpt lat="43.1912358" lon="12.8953615"><ele>474.0</ele><time>2026-04-25T12:21:59.515Z</time></trkpt><trkpt lat="43.1912662" lon="12.8954391"><ele>474.0</ele><time>2026-04-25T12:22:00.521Z</time></trkpt><trkpt lat="43.1913011" lon="12.8956276"><ele>475.79999999999995</ele><time>2026-04-25T12:22:02.516Z</time></trkpt><trkpt lat="43.1913332" lon="12.8957255"><ele>477.59999999999997</ele><time>2026-04-25T12:22:03.516Z</time></trkpt><trkpt lat="43.1913879" lon="12.8958485"><ele>479.4</ele><time>2026-04-25T12:22:04.521Z</time></trkpt><trkpt lat="43.1914265" lon="12.8959596"><ele>481.2</ele><time>2026-04-25T12:22:05.519Z</time></trkpt><trkpt lat="43.1914397" lon="12.8960653"><ele>483.0</ele><time>2026-04-25T12:22:06.515Z</time></trkpt><trkpt lat="43.1914982" lon="12.8961884"><ele>482.4</ele><time>2026-04-25T12:22:10.52Z</time></trkpt><trkpt lat="43.1915984" lon="12.8962358"><ele>481.79999999999995</ele><time>2026-04-25T12:22:12.52Z</time></trkpt><trkpt lat="43.191651" lon="12.8962948"><ele>481.2</ele><time>2026-04-25T12:22:13.517Z</time></trkpt><trkpt lat="43.191714" lon="12.8963094"><ele>480.6</ele><time>2026-04-25T12:22:14.52Z</time></trkpt><trkpt lat="43.1917858" lon="12.8963282"><ele>480.0</ele><time>2026-04-25T12:22:15.505Z</time></trkpt><trkpt lat="43.1919235" lon="12.8965528"><ele>482.5</ele><time>2026-04-25T12:22:16.503Z</time></trkpt><trkpt lat="43.1919992" lon="12.8967644"><ele>485.0</ele><time>2026-04-25T12:22:17.51Z</time></trkpt><trkpt lat="43.1921936" lon="12.897147"><ele>485.0</ele><time>2026-04-25T12:22:18.519Z</time></trkpt><trkpt lat="43.1923203" lon="12.8974383"><ele>485.0</ele><time>2026-04-25T12:22:19.519Z</time></trkpt><trkpt lat="43.1923151" lon="12.8976783"><ele>485.0</ele><time>2026-04-25T12:22:20.521Z</time></trkpt><trkpt lat="43.1923188" lon="12.897904"><ele>482.0</ele><time>2026-04-25T12:22:21.5Z</time></trkpt><trkpt lat="43.192341" lon="12.8981213"><ele>479.0</ele><time>2026-04-25T12:22:22.508Z</time></trkpt><trkpt lat="43.192493" lon="12.8986055"><ele>479.0</ele><time>2026-04-25T12:22:23.509Z</time></trkpt><trkpt lat="43.1925476" lon="12.8988068"><ele>479.0</ele><time>2026-04-25T12:22:24.502Z</time></trkpt><trkpt lat="43.1929151" lon="12.8991708"><ele>476.0</ele><time>2026-04-25T12:22:25.511Z</time></trkpt><trkpt lat="43.1931246" lon="12.8995008"><ele>473.0</ele><time>2026-04-25T12:22:26.508Z</time></trkpt><trkpt lat="43.1933201" lon="12.8998057"><ele>483.0</ele><time>2026-04-25T12:22:27.519Z</time></trkpt><trkpt lat="43.1936355" lon="12.900219"><ele>493.0</ele><time>2026-04-25T12:22:28.522Z</time></trkpt><trkpt lat="43.1939421" lon="12.9006555"><ele>483.5</ele><time>2026-04-25T12:22:29.521Z</time></trkpt><trkpt lat="43.1940825" lon="12.9009191"><ele>474.0</ele><time>2026-04-25T12:22:30.517Z</time></trkpt><trkpt lat="43.194203" lon="12.9012502"><ele>474.0</ele><time>2026-04-25T12:22:31.5Z</time></trkpt><trkpt lat="43.1943277" lon="12.9016709"><ele>474.0</ele><time>2026-04-25T12:22:32.511Z</time></trkpt><trkpt lat="43.1944331" lon="12.9021377"><ele>474.0</ele><time>2026-04-25T12:22:33.523Z</time></trkpt><trkpt lat="43.1944741" lon="12.9024328"><ele>474.0</ele><time>2026-04-25T12:22:34.524Z</time></trkpt><trkpt lat="43.1945044" lon="12.9026755"><ele>474.0</ele><time>2026-04-25T12:22:35.524Z</time></trkpt><trkpt lat="43.1945355" lon="12.9029088"><ele>472.75</ele><time>2026-04-25T12:22:36.52Z</time></trkpt><trkpt lat="43.1945287" lon="12.9031146"><ele>471.5</ele><time>2026-04-25T12:22:37.527Z</time></trkpt><trkpt lat="43.1945376" lon="12.9033094"><ele>470.25</ele><time>2026-04-25T12:22:38.527Z</time></trkpt><trkpt lat="43.1945191" lon="12.9034816"><ele>469.0</ele><time>2026-04-25T12:22:39.525Z</time></trkpt><trkpt lat="43.1944757" lon="12.9037327"><ele>468.6666666666667</ele><time>2026-04-25T12:22:40.52Z</time></trkpt><trkpt lat="43.1944609" lon="12.9039596"><ele>468.33333333333337</ele><time>2026-04-25T12:22:41.518Z</time></trkpt><trkpt lat="43.1944387" lon="12.904159"><ele>468.0</ele><time>2026-04-25T12:22:42.525Z</time></trkpt><trkpt lat="43.1944079" lon="12.9043552"><ele>468.0</ele><time>2026-04-25T12:22:43.526Z</time></trkpt><trkpt lat="43.1943779" lon="12.9045773"><ele>468.0</ele><time>2026-04-25T12:22:44.529Z</time></trkpt><trkpt lat="43.1943609" lon="12.9047861"><ele>468.0</ele><time>2026-04-25T12:22:45.528Z</time></trkpt><trkpt lat="43.1943434" lon="12.9049872"><ele>467.25</ele><time>2026-04-25T12:22:46.524Z</time></trkpt><trkpt lat="43.1943506" lon="12.9051844"><ele>466.5</ele><time>2026-04-25T12:22:47.529Z</time></trkpt><trkpt lat="43.1943297" lon="12.9053477"><ele>465.75</ele><time>2026-04-25T12:22:48.529Z</time></trkpt><trkpt lat="43.1943081" lon="12.9054966"><ele>465.0</ele><time>2026-04-25T12:22:49.527Z</time></trkpt><trkpt lat="43.1943349" lon="12.9056495"><ele>465.0</ele><time>2026-04-25T12:22:50.529Z</time></trkpt><trkpt lat="43.1943386" lon="12.9058215"><ele>465.0</ele><time>2026-04-25T12:22:51.522Z</time></trkpt><trkpt lat="43.1943799" lon="12.9059555"><ele>465.0</ele><time>2026-04-25T12:22:52.524Z</time></trkpt><trkpt lat="43.1943567" lon="12.9060628"><ele>465.0</ele><time>2026-04-25T12:22:53.521Z</time></trkpt><trkpt lat="43.1943777" lon="12.9061735"><ele>465.0</ele><time>2026-04-25T12:22:54.52Z</time></trkpt><trkpt lat="43.1945056" lon="12.9063113"><ele>464.8</ele><time>2026-04-25T12:22:55.52Z</time></trkpt><trkpt lat="43.1945408" lon="12.9064327"><ele>464.6</ele><time>2026-04-25T12:22:56.513Z</time></trkpt><trkpt lat="43.194543" lon="12.9065513"><ele>464.4</ele><time>2026-04-25T12:22:57.522Z</time></trkpt><trkpt lat="43.1945989" lon="12.9067004"><ele>464.2</ele><time>2026-04-25T12:22:58.535Z</time></trkpt><trkpt lat="43.1946302" lon="12.9068107"><ele>464.0</ele><time>2026-04-25T12:22:59.519Z</time></trkpt><trkpt lat="43.194734" lon="12.9069644"><ele>464.0</ele><time>2026-04-25T12:23:00.524Z</time></trkpt><trkpt lat="43.194785" lon="12.9070652"><ele>464.0</ele><time>2026-04-25T12:23:01.516Z</time></trkpt><trkpt lat="43.1949437" lon="12.907262"><ele>464.0</ele><time>2026-04-25T12:23:02.529Z</time></trkpt><trkpt lat="43.1950391" lon="12.9074041"><ele>464.0</ele><time>2026-04-25T12:23:03.515Z</time></trkpt><trkpt lat="43.1952468" lon="12.9075799"><ele>463.3333333333333</ele><time>2026-04-25T12:23:04.522Z</time></trkpt><trkpt lat="43.1953723" lon="12.9077292"><ele>462.66666666666663</ele><time>2026-04-25T12:23:05.516Z</time></trkpt><trkpt lat="43.1955596" lon="12.9078764"><ele>462.0</ele><time>2026-04-25T12:23:06.528Z</time></trkpt><trkpt lat="43.1957297" lon="12.9080254"><ele>462.25</ele><time>2026-04-25T12:23:07.528Z</time></trkpt><trkpt lat="43.1958517" lon="12.9081616"><ele>462.5</ele><time>2026-04-25T12:23:08.528Z</time></trkpt><trkpt lat="43.195909" lon="12.9083202"><ele>462.75</ele><time>2026-04-25T12:23:09.522Z</time></trkpt><trkpt lat="43.1959136" lon="12.9084968"><ele>463.0</ele><time>2026-04-25T12:23:10.527Z</time></trkpt><trkpt lat="43.1958883" lon="12.9086784"><ele>463.0</ele><time>2026-04-25T12:23:11.527Z</time></trkpt><trkpt lat="43.1958307" lon="12.9088882"><ele>463.0</ele><time>2026-04-25T12:23:12.533Z</time></trkpt><trkpt lat="43.1957825" lon="12.9091555"><ele>463.0</ele><time>2026-04-25T12:23:13.531Z</time></trkpt><trkpt lat="43.1957467" lon="12.909402"><ele>462.6666666666667</ele><time>2026-04-25T12:23:14.534Z</time></trkpt><trkpt lat="43.1957148" lon="12.9096084"><ele>462.33333333333337</ele><time>2026-04-25T12:23:15.526Z</time></trkpt><trkpt lat="43.1956582" lon="12.9098091"><ele>462.0</ele><time>2026-04-25T12:23:16.532Z</time></trkpt><trkpt lat="43.1955812" lon="12.9099857"><ele>465.33333333333337</ele><time>2026-04-25T12:23:17.526Z</time></trkpt><trkpt lat="43.195462" lon="12.9101422"><ele>468.6666666666667</ele><time>2026-04-25T12:23:18.535Z</time></trkpt><trkpt lat="43.1953371" lon="12.9102919"><ele>472.0</ele><time>2026-04-25T12:23:19.529Z</time></trkpt><trkpt lat="43.1951964" lon="12.9104034"><ele>472.0</ele><time>2026-04-25T12:23:20.53Z</time></trkpt><trkpt lat="43.195061" lon="12.910559"><ele>472.0</ele><time>2026-04-25T12:23:21.525Z</time></trkpt><trkpt lat="43.1949064" lon="12.9107376"><ele>472.0</ele><time>2026-04-25T12:23:22.525Z</time></trkpt><trkpt lat="43.1947623" lon="12.9108658"><ele>470.6666666666667</ele><time>2026-04-25T12:23:23.529Z</time></trkpt><trkpt lat="43.1946224" lon="12.9109825"><ele>469.33333333333337</ele><time>2026-04-25T12:23:24.523Z</time></trkpt><trkpt lat="43.1944973" lon="12.9111252"><ele>468.0</ele><time>2026-04-25T12:23:25.532Z</time></trkpt><trkpt lat="43.194369" lon="12.9112585"><ele>468.0</ele><time>2026-04-25T12:23:26.527Z</time></trkpt><trkpt lat="43.1942439" lon="12.9113986"><ele>468.0</ele><time>2026-04-25T12:23:27.528Z</time></trkpt><trkpt lat="43.1941306" lon="12.9115286"><ele>468.0</ele><time>2026-04-25T12:23:28.524Z</time></trkpt><trkpt lat="43.1939872" lon="12.91166"><ele>468.0</ele><time>2026-04-25T12:23:29.529Z</time></trkpt><trkpt lat="43.193849" lon="12.9117781"><ele>468.0</ele><time>2026-04-25T12:23:30.523Z</time></trkpt><trkpt lat="43.19369" lon="12.9118796"><ele>468.0</ele><time>2026-04-25T12:23:31.526Z</time></trkpt><trkpt lat="43.1935585" lon="12.9119263"><ele>468.0</ele><time>2026-04-25T12:23:32.532Z</time></trkpt><trkpt lat="43.1934154" lon="12.9120452"><ele>468.0</ele><time>2026-04-25T12:23:33.532Z</time></trkpt><trkpt lat="43.1932711" lon="12.9121403"><ele>468.0</ele><time>2026-04-25T12:23:34.531Z</time></trkpt><trkpt lat="43.1931254" lon="12.912247"><ele>466.66666666666663</ele><time>2026-04-25T12:23:35.523Z</time></trkpt><trkpt lat="43.1929988" lon="12.9124111"><ele>465.3333333333333</ele><time>2026-04-25T12:23:36.53Z</time></trkpt><trkpt lat="43.1928881" lon="12.912565"><ele>464.0</ele><time>2026-04-25T12:23:37.532Z</time></trkpt><trkpt lat="43.1927423" lon="12.9127127"><ele>464.0</ele><time>2026-04-25T12:23:38.527Z</time></trkpt><trkpt lat="43.1926078" lon="12.9128738"><ele>464.0</ele><time>2026-04-25T12:23:39.538Z</time></trkpt><trkpt lat="43.1924797" lon="12.9130352"><ele>464.0</ele><time>2026-04-25T12:23:40.532Z</time></trkpt><trkpt lat="43.1923508" lon="12.9132009"><ele>463.3333333333333</ele><time>2026-04-25T12:23:41.533Z</time></trkpt><trkpt lat="43.1922028" lon="12.913357"><ele>462.66666666666663</ele><time>2026-04-25T12:23:42.531Z</time></trkpt><trkpt lat="43.1920655" lon="12.913514"><ele>462.0</ele><time>2026-04-25T12:23:43.533Z</time></trkpt><trkpt lat="43.1919255" lon="12.9136627"><ele>462.0</ele><time>2026-04-25T12:23:44.533Z</time></trkpt><trkpt lat="43.1917826" lon="12.9138357"><ele>462.0</ele><time>2026-04-25T12:23:45.539Z</time></trkpt><trkpt lat="43.1916475" lon="12.9139968"><ele>462.0</ele><time>2026-04-25T12:23:46.534Z</time></trkpt><trkpt lat="43.1915136" lon="12.9141392"><ele>463.33333333333337</ele><time>2026-04-25T12:23:47.535Z</time></trkpt><trkpt lat="43.1913796" lon="12.9142962"><ele>464.6666666666667</ele><time>2026-04-25T12:23:48.53Z</time></trkpt><trkpt lat="43.1912417" lon="12.9144156"><ele>466.0</ele><time>2026-04-25T12:23:49.535Z</time></trkpt><trkpt lat="43.1911194" lon="12.9145552"><ele>466.0</ele><time>2026-04-25T12:23:50.533Z</time></trkpt><trkpt lat="43.1909822" lon="12.9146783"><ele>466.0</ele><time>2026-04-25T12:23:51.533Z</time></trkpt><trkpt lat="43.1908384" lon="12.9148047"><ele>466.0</ele><time>2026-04-25T12:23:52.531Z</time></trkpt><trkpt lat="43.1906873" lon="12.9149275"><ele>465.33333333333337</ele><time>2026-04-25T12:23:53.528Z</time></trkpt><trkpt lat="43.1905498" lon="12.9150304"><ele>464.66666666666663</ele><time>2026-04-25T12:23:54.533Z</time></trkpt><trkpt lat="43.1904075" lon="12.9151264"><ele>464.0</ele><time>2026-04-25T12:23:55.532Z</time></trkpt><trkpt lat="43.1902566" lon="12.9152223"><ele>468.5</ele><time>2026-04-25T12:23:56.53Z</time></trkpt><trkpt lat="43.1901239" lon="12.9153099"><ele>473.0</ele><time>2026-04-25T12:23:57.533Z</time></trkpt><trkpt lat="43.1900023" lon="12.9153519"><ele>477.5</ele><time>2026-04-25T12:23:58.53Z</time></trkpt><trkpt lat="43.1898723" lon="12.9154141"><ele>482.0</ele><time>2026-04-25T12:23:59.532Z</time></trkpt><trkpt lat="43.1897338" lon="12.91546"><ele>482.0</ele><time>2026-04-25T12:24:00.523Z</time></trkpt><trkpt lat="43.1896101" lon="12.9154506"><ele>482.0</ele><time>2026-04-25T12:24:01.526Z</time></trkpt><trkpt lat="43.1894843" lon="12.9154236"><ele>482.0</ele><time>2026-04-25T12:24:02.526Z</time></trkpt><trkpt lat="43.1893175" lon="12.9153791"><ele>482.0</ele><time>2026-04-25T12:24:03.524Z</time></trkpt><trkpt lat="43.1891604" lon="12.9153646"><ele>482.0</ele><time>2026-04-25T12:24:04.527Z</time></trkpt><trkpt lat="43.1890134" lon="12.915374"><ele>482.0</ele><time>2026-04-25T12:24:05.521Z</time></trkpt><trkpt lat="43.1888275" lon="12.9153977"><ele>482.0</ele><time>2026-04-25T12:24:06.524Z</time></trkpt><trkpt lat="43.1886696" lon="12.9154111"><ele>479.66666666666663</ele><time>2026-04-25T12:24:07.514Z</time></trkpt><trkpt lat="43.188519" lon="12.9154563"><ele>477.33333333333337</ele><time>2026-04-25T12:24:08.525Z</time></trkpt><trkpt lat="43.1883742" lon="12.9154905"><ele>475.0</ele><time>2026-04-25T12:24:09.529Z</time></trkpt><trkpt lat="43.1882253" lon="12.9155351"><ele>472.33333333333337</ele><time>2026-04-25T12:24:10.533Z</time></trkpt><trkpt lat="43.1880664" lon="12.9155832"><ele>469.66666666666663</ele><time>2026-04-25T12:24:11.533Z</time></trkpt><trkpt lat="43.1879239" lon="12.9156276"><ele>467.0</ele><time>2026-04-25T12:24:12.53Z</time></trkpt><trkpt lat="43.187762" lon="12.9156528"><ele>467.0</ele><time>2026-04-25T12:24:13.532Z</time></trkpt><trkpt lat="43.1876369" lon="12.9156682"><ele>467.0</ele><time>2026-04-25T12:24:14.525Z</time></trkpt><trkpt lat="43.1874849" lon="12.9157109"><ele>467.0</ele><time>2026-04-25T12:24:15.532Z</time></trkpt><trkpt lat="43.1873332" lon="12.9157698"><ele>467.0</ele><time>2026-04-25T12:24:16.536Z</time></trkpt><trkpt lat="43.1871926" lon="12.915853"><ele>466.5</ele><time>2026-04-25T12:24:17.522Z</time></trkpt><trkpt lat="43.1870618" lon="12.9159414"><ele>466.0</ele><time>2026-04-25T12:24:18.534Z</time></trkpt><trkpt lat="43.1869454" lon="12.9160892"><ele>465.5</ele><time>2026-04-25T12:24:19.525Z</time></trkpt><trkpt lat="43.1868509" lon="12.9162325"><ele>465.0</ele><time>2026-04-25T12:24:20.535Z</time></trkpt><trkpt lat="43.1867441" lon="12.9164103"><ele>465.0</ele><time>2026-04-25T12:24:21.525Z</time></trkpt><trkpt lat="43.1866408" lon="12.9165666"><ele>465.0</ele><time>2026-04-25T12:24:22.526Z</time></trkpt><trkpt lat="43.1865553" lon="12.9167108"><ele>465.0</ele><time>2026-04-25T12:24:23.52Z</time></trkpt><trkpt lat="43.1864454" lon="12.9168342"><ele>465.0</ele><time>2026-04-25T12:24:24.53Z</time></trkpt><trkpt lat="43.1863085" lon="12.9169683"><ele>463.66666666666663</ele><time>2026-04-25T12:24:25.526Z</time></trkpt><trkpt lat="43.1862118" lon="12.917143"><ele>462.3333333333333</ele><time>2026-04-25T12:24:26.525Z</time></trkpt><trkpt lat="43.1861083" lon="12.9172861"><ele>461.0</ele><time>2026-04-25T12:24:27.523Z</time></trkpt><trkpt lat="43.1859957" lon="12.9174287"><ele>463.66666666666663</ele><time>2026-04-25T12:24:28.527Z</time></trkpt><trkpt lat="43.1858999" lon="12.9175941"><ele>466.33333333333337</ele><time>2026-04-25T12:24:29.522Z</time></trkpt><trkpt lat="43.1858064" lon="12.9177685"><ele>469.0</ele><time>2026-04-25T12:24:30.527Z</time></trkpt><trkpt lat="43.1857152" lon="12.9179505"><ele>465.6666666666667</ele><time>2026-04-25T12:24:31.526Z</time></trkpt><trkpt lat="43.1856264" lon="12.918139"><ele>462.33333333333337</ele><time>2026-04-25T12:24:32.53Z</time></trkpt><trkpt lat="43.1855412" lon="12.9183305"><ele>459.0</ele><time>2026-04-25T12:24:33.524Z</time></trkpt><trkpt lat="43.1854305" lon="12.9185287"><ele>459.0</ele><time>2026-04-25T12:24:34.529Z</time></trkpt><trkpt lat="43.18535" lon="12.9187228"><ele>459.0</ele><time>2026-04-25T12:24:35.525Z</time></trkpt><trkpt lat="43.1852683" lon="12.9189252"><ele>459.0</ele><time>2026-04-25T12:24:36.524Z</time></trkpt><trkpt lat="43.1852268" lon="12.9191291"><ele>460.0</ele><time>2026-04-25T12:24:37.523Z</time></trkpt><trkpt lat="43.18519" lon="12.9193337"><ele>461.0</ele><time>2026-04-25T12:24:38.523Z</time></trkpt><trkpt lat="43.1851509" lon="12.9195366"><ele>462.0</ele><time>2026-04-25T12:24:39.521Z</time></trkpt><trkpt lat="43.1851598" lon="12.9197659"><ele>462.0</ele><time>2026-04-25T12:24:40.528Z</time></trkpt><trkpt lat="43.1851811" lon="12.9200035"><ele>462.0</ele><time>2026-04-25T12:24:41.529Z</time></trkpt><trkpt lat="43.1851701" lon="12.9202086"><ele>462.0</ele><time>2026-04-25T12:24:42.531Z</time></trkpt><trkpt lat="43.1851372" lon="12.9204338"><ele>463.66666666666663</ele><time>2026-04-25T12:24:43.535Z</time></trkpt><trkpt lat="43.1850979" lon="12.9206307"><ele>465.3333333333333</ele><time>2026-04-25T12:24:44.534Z</time></trkpt><trkpt lat="43.1849896" lon="12.9208249"><ele>467.0</ele><time>2026-04-25T12:24:45.529Z</time></trkpt><trkpt lat="43.1848966" lon="12.9210085"><ele>464.0</ele><time>2026-04-25T12:24:46.531Z</time></trkpt><trkpt lat="43.1848218" lon="12.9211928"><ele>461.0</ele><time>2026-04-25T12:24:47.526Z</time></trkpt><trkpt lat="43.184758" lon="12.9213875"><ele>458.0</ele><time>2026-04-25T12:24:48.53Z</time></trkpt><trkpt lat="43.1846926" lon="12.9215707"><ele>458.5</ele><time>2026-04-25T12:24:49.531Z</time></trkpt><trkpt lat="43.1846268" lon="12.9217363"><ele>459.0</ele><time>2026-04-25T12:24:50.535Z</time></trkpt><trkpt lat="43.1845413" lon="12.9219121"><ele>459.5</ele><time>2026-04-25T12:24:51.528Z</time></trkpt><trkpt lat="43.1844917" lon="12.9220829"><ele>460.0</ele><time>2026-04-25T12:24:52.534Z</time></trkpt><trkpt lat="43.1844075" lon="12.9222391"><ele>460.0</ele><time>2026-04-25T12:24:53.527Z</time></trkpt><trkpt lat="43.1843498" lon="12.9224005"><ele>460.0</ele><time>2026-04-25T12:24:54.529Z</time></trkpt><trkpt lat="43.1842978" lon="12.9225692"><ele>460.0</ele><time>2026-04-25T12:24:55.526Z</time></trkpt><trkpt lat="43.1842385" lon="12.9227221"><ele>460.0</ele><time>2026-04-25T12:24:56.52Z</time></trkpt><trkpt lat="43.1841799" lon="12.9229082"><ele>460.0</ele><time>2026-04-25T12:24:57.524Z</time></trkpt><trkpt lat="43.1841813" lon="12.9231141"><ele>460.0</ele><time>2026-04-25T12:24:58.525Z</time></trkpt><trkpt lat="43.1841453" lon="12.923288"><ele>460.0</ele><time>2026-04-25T12:24:59.535Z</time></trkpt><trkpt lat="43.1841152" lon="12.9234686"><ele>460.0</ele><time>2026-04-25T12:25:00.537Z</time></trkpt><trkpt lat="43.1840594" lon="12.9236265"><ele>460.75</ele><time>2026-04-25T12:25:01.533Z</time></trkpt><trkpt lat="43.1840451" lon="12.9238114"><ele>461.5</ele><time>2026-04-25T12:25:02.533Z</time></trkpt><trkpt lat="43.1840122" lon="12.9239786"><ele>462.25</ele><time>2026-04-25T12:25:03.529Z</time></trkpt><trkpt lat="43.1839511" lon="12.9241385"><ele>463.0</ele><time>2026-04-25T12:25:04.527Z</time></trkpt><trkpt lat="43.1839332" lon="12.924306"><ele>461.0</ele><time>2026-04-25T12:25:05.53Z</time></trkpt><trkpt lat="43.1839049" lon="12.9244777"><ele>459.0</ele><time>2026-04-25T12:25:06.524Z</time></trkpt><trkpt lat="43.183932" lon="12.9246659"><ele>457.0</ele><time>2026-04-25T12:25:07.526Z</time></trkpt><trkpt lat="43.1839215" lon="12.9248685"><ele>455.0</ele><time>2026-04-25T12:25:08.523Z</time></trkpt><trkpt lat="43.1839123" lon="12.9250803"><ele>454.66666666666663</ele><time>2026-04-25T12:25:09.527Z</time></trkpt><trkpt lat="43.1839177" lon="12.9252713"><ele>454.33333333333337</ele><time>2026-04-25T12:25:10.529Z</time></trkpt><trkpt lat="43.1839482" lon="12.9254937"><ele>454.0</ele><time>2026-04-25T12:25:11.529Z</time></trkpt><trkpt lat="43.1839824" lon="12.9257202"><ele>453.6666666666667</ele><time>2026-04-25T12:25:12.533Z</time></trkpt><trkpt lat="43.184009" lon="12.9259493"><ele>453.33333333333337</ele><time>2026-04-25T12:25:13.538Z</time></trkpt><trkpt lat="43.1840302" lon="12.9261625"><ele>453.0</ele><time>2026-04-25T12:25:14.537Z</time></trkpt><trkpt lat="43.1840382" lon="12.9263927"><ele>452.33333333333337</ele><time>2026-04-25T12:25:15.537Z</time></trkpt><trkpt lat="43.1840446" lon="12.926628"><ele>451.6666666666667</ele><time>2026-04-25T12:25:16.534Z</time></trkpt><trkpt lat="43.184087" lon="12.9268541"><ele>451.0</ele><time>2026-04-25T12:25:17.544Z</time></trkpt><trkpt lat="43.1841255" lon="12.9270799"><ele>451.0</ele><time>2026-04-25T12:25:18.523Z</time></trkpt><trkpt lat="43.1841421" lon="12.9272886"><ele>451.0</ele><time>2026-04-25T12:25:19.523Z</time></trkpt><trkpt lat="43.1841739" lon="12.9275886"><ele>451.0</ele><time>2026-04-25T12:25:20.529Z</time></trkpt><trkpt lat="43.1841927" lon="12.9278629"><ele>451.0</ele><time>2026-04-25T12:25:21.527Z</time></trkpt><trkpt lat="43.184235" lon="12.9281002"><ele>451.0</ele><time>2026-04-25T12:25:22.543Z</time></trkpt><trkpt lat="43.1842432" lon="12.9283485"><ele>451.0</ele><time>2026-04-25T12:25:23.525Z</time></trkpt><trkpt lat="43.1843028" lon="12.9286034"><ele>451.0</ele><time>2026-04-25T12:25:24.528Z</time></trkpt><trkpt lat="43.1843402" lon="12.9288405"><ele>451.0</ele><time>2026-04-25T12:25:25.52Z</time></trkpt><trkpt lat="43.1843482" lon="12.9290916"><ele>451.0</ele><time>2026-04-25T12:25:26.527Z</time></trkpt><trkpt lat="43.1843982" lon="12.929332"><ele>451.33333333333337</ele><time>2026-04-25T12:25:27.524Z</time></trkpt><trkpt lat="43.1844139" lon="12.929592"><ele>451.66666666666663</ele><time>2026-04-25T12:25:28.532Z</time></trkpt><trkpt lat="43.1844391" lon="12.9298497"><ele>452.0</ele><time>2026-04-25T12:25:29.527Z</time></trkpt><trkpt lat="43.1844644" lon="12.9300872"><ele>452.0</ele><time>2026-04-25T12:25:30.53Z</time></trkpt><trkpt lat="43.1845043" lon="12.9303382"><ele>452.0</ele><time>2026-04-25T12:25:31.527Z</time></trkpt><trkpt lat="43.1845347" lon="12.9305808"><ele>452.0</ele><time>2026-04-25T12:25:32.529Z</time></trkpt><trkpt lat="43.184548" lon="12.9308299"><ele>451.3333333333333</ele><time>2026-04-25T12:25:33.527Z</time></trkpt><trkpt lat="43.1845633" lon="12.9310618"><ele>450.66666666666663</ele><time>2026-04-25T12:25:34.524Z</time></trkpt><trkpt lat="43.1845963" lon="12.931289"><ele>450.0</ele><time>2026-04-25T12:25:35.531Z</time></trkpt><trkpt lat="43.1846501" lon="12.9315146"><ele>450.0</ele><time>2026-04-25T12:25:36.526Z</time></trkpt><trkpt lat="43.1846928" lon="12.931751"><ele>450.0</ele><time>2026-04-25T12:25:37.528Z</time></trkpt><trkpt lat="43.1847355" lon="12.9319668"><ele>450.0</ele><time>2026-04-25T12:25:38.523Z</time></trkpt><trkpt lat="43.1847491" lon="12.9321822"><ele>450.0</ele><time>2026-04-25T12:25:39.524Z</time></trkpt><trkpt lat="43.1847577" lon="12.9323916"><ele>450.0</ele><time>2026-04-25T12:25:40.523Z</time></trkpt><trkpt lat="43.1847751" lon="12.9325691"><ele>450.0</ele><time>2026-04-25T12:25:41.528Z</time></trkpt><trkpt lat="43.1847931" lon="12.9327867"><ele>450.0</ele><time>2026-04-25T12:25:42.521Z</time></trkpt><trkpt lat="43.1848102" lon="12.9329748"><ele>450.2</ele><time>2026-04-25T12:25:43.529Z</time></trkpt><trkpt lat="43.1848253" lon="12.9331286"><ele>450.4</ele><time>2026-04-25T12:25:44.522Z</time></trkpt><trkpt lat="43.1848212" lon="12.9332501"><ele>450.6</ele><time>2026-04-25T12:25:45.524Z</time></trkpt><trkpt lat="43.184815" lon="12.9333715"><ele>450.8</ele><time>2026-04-25T12:25:46.516Z</time></trkpt><trkpt lat="43.184853" lon="12.9334667"><ele>451.0</ele><time>2026-04-25T12:25:47.523Z</time></trkpt><trkpt lat="43.1849288" lon="12.9335381"><ele>450.6</ele><time>2026-04-25T12:25:48.525Z</time></trkpt><trkpt lat="43.1850405" lon="12.9335815"><ele>450.20000000000005</ele><time>2026-04-25T12:25:50.521Z</time></trkpt><trkpt lat="43.1851132" lon="12.9335721"><ele>449.79999999999995</ele><time>2026-04-25T12:25:51.526Z</time></trkpt><trkpt lat="43.1852108" lon="12.9335372"><ele>449.4</ele><time>2026-04-25T12:25:52.529Z</time></trkpt><trkpt lat="43.1853275" lon="12.9334762"><ele>449.0</ele><time>2026-04-25T12:25:53.523Z</time></trkpt><trkpt lat="43.185454" lon="12.9334047"><ele>448.66666666666663</ele><time>2026-04-25T12:25:54.532Z</time></trkpt><trkpt lat="43.1855957" lon="12.9333338"><ele>448.33333333333337</ele><time>2026-04-25T12:25:55.52Z</time></trkpt><trkpt lat="43.1857297" lon="12.9332425"><ele>448.0</ele><time>2026-04-25T12:25:56.525Z</time></trkpt><trkpt lat="43.1858722" lon="12.9331644"><ele>448.5</ele><time>2026-04-25T12:25:57.523Z</time></trkpt><trkpt lat="43.1860201" lon="12.9331302"><ele>449.0</ele><time>2026-04-25T12:25:58.532Z</time></trkpt><trkpt lat="43.1861569" lon="12.9330816"><ele>449.5</ele><time>2026-04-25T12:25:59.526Z</time></trkpt><trkpt lat="43.1862952" lon="12.9330233"><ele>450.0</ele><time>2026-04-25T12:26:00.523Z</time></trkpt><trkpt lat="43.1864232" lon="12.9329855"><ele>450.2</ele><time>2026-04-25T12:26:01.523Z</time></trkpt><trkpt lat="43.1865577" lon="12.9329726"><ele>450.4</ele><time>2026-04-25T12:26:02.523Z</time></trkpt><trkpt lat="43.1866665" lon="12.932931"><ele>450.6</ele><time>2026-04-25T12:26:03.52Z</time></trkpt><trkpt lat="43.1867411" lon="12.9329101"><ele>450.8</ele><time>2026-04-25T12:26:04.526Z</time></trkpt><trkpt lat="43.1868062" lon="12.9328874"><ele>451.0</ele><time>2026-04-25T12:26:05.522Z</time></trkpt><trkpt lat="43.1869182" lon="12.9328528"><ele>451.00000000000006</ele><time>2026-04-25T12:26:07.519Z</time></trkpt><trkpt lat="43.186977" lon="12.9328116"><ele>451.0</ele><time>2026-04-25T12:26:10.528Z</time></trkpt><trkpt lat="43.1869945" lon="12.9327235"><ele>451.0</ele><time>2026-04-25T12:26:11.519Z</time></trkpt><trkpt lat="43.1870151" lon="12.9326151"><ele>451.0</ele><time>2026-04-25T12:26:12.525Z</time></trkpt><trkpt lat="43.1870433" lon="12.9324889"><ele>451.00000000000006</ele><time>2026-04-25T12:26:13.521Z</time></trkpt><trkpt lat="43.1870928" lon="12.9323672"><ele>451.0</ele><time>2026-04-25T12:26:14.521Z</time></trkpt><trkpt lat="43.1871409" lon="12.9322405"><ele>451.00000000000006</ele><time>2026-04-25T12:26:15.515Z</time></trkpt><trkpt lat="43.1871916" lon="12.9321464"><ele>451.0</ele><time>2026-04-25T12:26:16.523Z</time></trkpt><trkpt lat="43.1872533" lon="12.9320685"><ele>451.0</ele><time>2026-04-25T12:26:17.514Z</time></trkpt><trkpt lat="43.1873299" lon="12.9320223"><ele>451.0</ele><time>2026-04-25T12:26:18.517Z</time></trkpt><trkpt lat="43.18743" lon="12.9320502"><ele>451.00000000000006</ele><time>2026-04-25T12:26:20.524Z</time></trkpt><trkpt lat="43.1874766" lon="12.9321198"><ele>451.0</ele><time>2026-04-25T12:26:21.524Z</time></trkpt><trkpt lat="43.187535" lon="12.9321964"><ele>451.33333333333337</ele><time>2026-04-25T12:26:22.513Z</time></trkpt><trkpt lat="43.1875865" lon="12.9322664"><ele>451.6666666666667</ele><time>2026-04-25T12:26:23.52Z</time></trkpt><trkpt lat="43.1876441" lon="12.9324218"><ele>452.0</ele><time>2026-04-25T12:26:25.517Z</time></trkpt><trkpt lat="43.1876369" lon="12.9325242"><ele>452.33333333333337</ele><time>2026-04-25T12:26:26.521Z</time></trkpt><trkpt lat="43.1876536" lon="12.9326241"><ele>452.6666666666667</ele><time>2026-04-25T12:26:27.524Z</time></trkpt><trkpt lat="43.18766" lon="12.9327476"><ele>453.0</ele><time>2026-04-25T12:26:28.522Z</time></trkpt><trkpt lat="43.1876768" lon="12.9328675"><ele>452.0</ele><time>2026-04-25T12:26:29.527Z</time></trkpt><trkpt lat="43.1876993" lon="12.932957"><ele>450.99999999999994</ele><time>2026-04-25T12:26:31.52Z</time></trkpt><trkpt lat="43.1877862" lon="12.9329935"><ele>449.99999999999994</ele><time>2026-04-25T12:26:33.522Z</time></trkpt><trkpt lat="43.1879094" lon="12.9329774"><ele>449.0</ele><time>2026-04-25T12:26:34.525Z</time></trkpt><trkpt lat="43.188016" lon="12.932964"><ele>448.0</ele><time>2026-04-25T12:26:35.53Z</time></trkpt><trkpt lat="43.1881368" lon="12.9329566"><ele>449.0</ele><time>2026-04-25T12:26:36.523Z</time></trkpt><trkpt lat="43.1882588" lon="12.9329616"><ele>450.0</ele><time>2026-04-25T12:26:37.529Z</time></trkpt><trkpt lat="43.188382" lon="12.9329486"><ele>451.0</ele><time>2026-04-25T12:26:38.517Z</time></trkpt><trkpt lat="43.1885169" lon="12.9329346"><ele>452.0</ele><time>2026-04-25T12:26:39.519Z</time></trkpt><trkpt lat="43.1886616" lon="12.9329304"><ele>452.0</ele><time>2026-04-25T12:26:40.521Z</time></trkpt><trkpt lat="43.1888079" lon="12.9329281"><ele>452.0</ele><time>2026-04-25T12:26:41.523Z</time></trkpt><trkpt lat="43.1889505" lon="12.93292"><ele>452.0</ele><time>2026-04-25T12:26:42.524Z</time></trkpt><trkpt lat="43.1891053" lon="12.9329381"><ele>452.0</ele><time>2026-04-25T12:26:43.524Z</time></trkpt><trkpt lat="43.1892988" lon="12.9329401"><ele>452.0</ele><time>2026-04-25T12:26:44.525Z</time></trkpt><trkpt lat="43.1894727" lon="12.9329465"><ele>452.0</ele><time>2026-04-25T12:26:45.523Z</time></trkpt><trkpt lat="43.1896133" lon="12.9329617"><ele>452.0</ele><time>2026-04-25T12:26:46.525Z</time></trkpt><trkpt lat="43.1897602" lon="12.9329707"><ele>452.20000000000005</ele><time>2026-04-25T12:26:47.52Z</time></trkpt><trkpt lat="43.1898905" lon="12.9329949"><ele>452.40000000000003</ele><time>2026-04-25T12:26:48.526Z</time></trkpt><trkpt lat="43.1900149" lon="12.9329862"><ele>452.59999999999997</ele><time>2026-04-25T12:26:49.519Z</time></trkpt><trkpt lat="43.1901143" lon="12.9329857"><ele>452.79999999999995</ele><time>2026-04-25T12:26:50.526Z</time></trkpt><trkpt lat="43.1902017" lon="12.9329437"><ele>453.0</ele><time>2026-04-25T12:26:51.518Z</time></trkpt><trkpt lat="43.1902829" lon="12.9328808"><ele>453.0</ele><time>2026-04-25T12:26:52.517Z</time></trkpt><trkpt lat="43.1903447" lon="12.9327799"><ele>453.0</ele><time>2026-04-25T12:26:53.519Z</time></trkpt><trkpt lat="43.1904042" lon="12.9326867"><ele>453.0</ele><time>2026-04-25T12:26:54.512Z</time></trkpt><trkpt lat="43.1904431" lon="12.9326147"><ele>453.0</ele><time>2026-04-25T12:26:55.519Z</time></trkpt><trkpt lat="43.1905052" lon="12.9325858"><ele>453.0</ele><time>2026-04-25T12:26:57.522Z</time></trkpt><trkpt lat="43.1905458" lon="12.9327184"><ele>453.0</ele><time>2026-04-25T12:26:59.522Z</time></trkpt><trkpt lat="43.1905846" lon="12.9328235"><ele>453.0</ele><time>2026-04-25T12:27:00.519Z</time></trkpt><trkpt lat="43.1906264" lon="12.9329029"><ele>452.99999999999994</ele><time>2026-04-25T12:27:01.523Z</time></trkpt><trkpt lat="43.1907147" lon="12.9330131"><ele>452.99999999999994</ele><time>2026-04-25T12:27:03.523Z</time></trkpt><trkpt lat="43.1907821" lon="12.9329975"><ele>453.0</ele><time>2026-04-25T12:27:04.514Z</time></trkpt><trkpt lat="43.1908763" lon="12.9329608"><ele>453.0</ele><time>2026-04-25T12:27:05.518Z</time></trkpt><trkpt lat="43.1909652" lon="12.932891"><ele>454.0</ele><time>2026-04-25T12:27:06.515Z</time></trkpt><trkpt lat="43.1910778" lon="12.9328514"><ele>455.0</ele><time>2026-04-25T12:27:07.518Z</time></trkpt><trkpt lat="43.1911998" lon="12.9328136"><ele>456.0</ele><time>2026-04-25T12:27:08.516Z</time></trkpt><trkpt lat="43.1913328" lon="12.9327821"><ele>457.0</ele><time>2026-04-25T12:27:09.518Z</time></trkpt><trkpt lat="43.19147" lon="12.9327244"><ele>457.33333333333337</ele><time>2026-04-25T12:27:10.514Z</time></trkpt><trkpt lat="43.1916206" lon="12.9326613"><ele>457.66666666666663</ele><time>2026-04-25T12:27:11.52Z</time></trkpt><trkpt lat="43.1917803" lon="12.932582"><ele>458.0</ele><time>2026-04-25T12:27:12.514Z</time></trkpt><trkpt lat="43.1919314" lon="12.9324862"><ele>458.0</ele><time>2026-04-25T12:27:13.523Z</time></trkpt><trkpt lat="43.1920713" lon="12.9323851"><ele>458.0</ele><time>2026-04-25T12:27:14.519Z</time></trkpt><trkpt lat="43.1921982" lon="12.9323023"><ele>458.0</ele><time>2026-04-25T12:27:15.521Z</time></trkpt><trkpt lat="43.1923209" lon="12.932257"><ele>458.0</ele><time>2026-04-25T12:27:16.526Z</time></trkpt><trkpt lat="43.1924572" lon="12.9322469"><ele>458.75</ele><time>2026-04-25T12:27:17.522Z</time></trkpt><trkpt lat="43.1925703" lon="12.9323203"><ele>459.5</ele><time>2026-04-25T12:27:18.521Z</time></trkpt><trkpt lat="43.1927064" lon="12.9324034"><ele>460.25</ele><time>2026-04-25T12:27:19.517Z</time></trkpt><trkpt lat="43.192827" lon="12.9324818"><ele>461.0</ele><time>2026-04-25T12:27:20.516Z</time></trkpt><trkpt lat="43.1929586" lon="12.9325761"><ele>464.3333333333333</ele><time>2026-04-25T12:27:21.52Z</time></trkpt><trkpt lat="43.1931344" lon="12.9326523"><ele>467.66666666666663</ele><time>2026-04-25T12:27:22.521Z</time></trkpt><trkpt lat="43.193309" lon="12.9327041"><ele>471.0</ele><time>2026-04-25T12:27:23.515Z</time></trkpt><trkpt lat="43.1935227" lon="12.932737"><ele>472.33333333333337</ele><time>2026-04-25T12:27:24.511Z</time></trkpt><trkpt lat="43.1937002" lon="12.9327088"><ele>473.6666666666667</ele><time>2026-04-25T12:27:25.515Z</time></trkpt><trkpt lat="43.1938585" lon="12.9326786"><ele>475.0</ele><time>2026-04-25T12:27:26.518Z</time></trkpt><trkpt lat="43.1940468" lon="12.9326509"><ele>475.6666666666667</ele><time>2026-04-25T12:27:27.515Z</time></trkpt><trkpt lat="43.1942269" lon="12.9326339"><ele>476.33333333333337</ele><time>2026-04-25T12:27:28.521Z</time></trkpt><trkpt lat="43.1944017" lon="12.932617"><ele>477.0</ele><time>2026-04-25T12:27:29.516Z</time></trkpt><trkpt lat="43.1945859" lon="12.9325846"><ele>475.33333333333337</ele><time>2026-04-25T12:27:30.514Z</time></trkpt><trkpt lat="43.1947406" lon="12.9325081"><ele>473.6666666666667</ele><time>2026-04-25T12:27:31.507Z</time></trkpt><trkpt lat="43.1949255" lon="12.9324191"><ele>472.0</ele><time>2026-04-25T12:27:32.517Z</time></trkpt><trkpt lat="43.1950866" lon="12.9322928"><ele>472.0</ele><time>2026-04-25T12:27:33.517Z</time></trkpt><trkpt lat="43.1952416" lon="12.9321954"><ele>472.0</ele><time>2026-04-25T12:27:34.518Z</time></trkpt><trkpt lat="43.1954184" lon="12.9320859"><ele>472.0</ele><time>2026-04-25T12:27:35.518Z</time></trkpt><trkpt lat="43.1955887" lon="12.9320225"><ele>477.0</ele><time>2026-04-25T12:27:36.515Z</time></trkpt><trkpt lat="43.19576" lon="12.9319759"><ele>482.0</ele><time>2026-04-25T12:27:37.513Z</time></trkpt><trkpt lat="43.1959538" lon="12.9319729"><ele>487.0</ele><time>2026-04-25T12:27:38.511Z</time></trkpt><trkpt lat="43.1961424" lon="12.9319167"><ele>487.0</ele><time>2026-04-25T12:27:39.519Z</time></trkpt><trkpt lat="43.1963063" lon="12.9318275"><ele>487.0</ele><time>2026-04-25T12:27:40.516Z</time></trkpt><trkpt lat="43.1964617" lon="12.9317406"><ele>487.0</ele><time>2026-04-25T12:27:41.513Z</time></trkpt><trkpt lat="43.19661" lon="12.931619"><ele>486.6666666666667</ele><time>2026-04-25T12:27:42.513Z</time></trkpt><trkpt lat="43.1967522" lon="12.9315026"><ele>486.33333333333337</ele><time>2026-04-25T12:27:43.515Z</time></trkpt><trkpt lat="43.1969077" lon="12.9314641"><ele>486.0</ele><time>2026-04-25T12:27:44.52Z</time></trkpt><trkpt lat="43.1970532" lon="12.9314119"><ele>486.0</ele><time>2026-04-25T12:27:45.508Z</time></trkpt><trkpt lat="43.1972" lon="12.9313735"><ele>486.0</ele><time>2026-04-25T12:27:46.515Z</time></trkpt><trkpt lat="43.1973414" lon="12.9313391"><ele>486.0</ele><time>2026-04-25T12:27:47.509Z</time></trkpt><trkpt lat="43.1974946" lon="12.9312899"><ele>491.66666666666663</ele><time>2026-04-25T12:27:48.515Z</time></trkpt><trkpt lat="43.197665" lon="12.9311941"><ele>497.3333333333333</ele><time>2026-04-25T12:27:49.51Z</time></trkpt><trkpt lat="43.197826" lon="12.9311292"><ele>503.0</ele><time>2026-04-25T12:27:50.515Z</time></trkpt><trkpt lat="43.1979843" lon="12.9310492"><ele>503.0</ele><time>2026-04-25T12:27:51.509Z</time></trkpt><trkpt lat="43.1981372" lon="12.9309904"><ele>503.0</ele><time>2026-04-25T12:27:52.518Z</time></trkpt><trkpt lat="43.1982737" lon="12.9308856"><ele>503.0</ele><time>2026-04-25T12:27:53.507Z</time></trkpt><trkpt lat="43.1983759" lon="12.9307328"><ele>503.3333333333333</ele><time>2026-04-25T12:27:54.508Z</time></trkpt><trkpt lat="43.1984636" lon="12.9305473"><ele>503.66666666666663</ele><time>2026-04-25T12:27:55.505Z</time></trkpt><trkpt lat="43.1985225" lon="12.9303454"><ele>504.0</ele><time>2026-04-25T12:27:56.512Z</time></trkpt><trkpt lat="43.1985933" lon="12.9301562"><ele>500.33333333333337</ele><time>2026-04-25T12:27:57.506Z</time></trkpt><trkpt lat="43.1986858" lon="12.9299845"><ele>496.6666666666667</ele><time>2026-04-25T12:27:58.511Z</time></trkpt><trkpt lat="43.1988101" lon="12.9298239"><ele>493.0</ele><time>2026-04-25T12:27:59.507Z</time></trkpt><trkpt lat="43.1989764" lon="12.9296898"><ele>495.6666666666667</ele><time>2026-04-25T12:28:00.509Z</time></trkpt><trkpt lat="43.1991274" lon="12.9295587"><ele>498.33333333333337</ele><time>2026-04-25T12:28:01.508Z</time></trkpt><trkpt lat="43.1992553" lon="12.9294138"><ele>501.0</ele><time>2026-04-25T12:28:02.51Z</time></trkpt><trkpt lat="43.1993583" lon="12.9292825"><ele>501.0</ele><time>2026-04-25T12:28:03.512Z</time></trkpt><trkpt lat="43.199433" lon="12.9291899"><ele>501.0</ele><time>2026-04-25T12:28:04.516Z</time></trkpt><trkpt lat="43.1995278" lon="12.9290469"><ele>501.0</ele><time>2026-04-25T12:28:05.51Z</time></trkpt><trkpt lat="43.1996759" lon="12.9289065"><ele>501.0</ele><time>2026-04-25T12:28:06.509Z</time></trkpt><trkpt lat="43.1998368" lon="12.928733"><ele>501.66666666666663</ele><time>2026-04-25T12:28:07.514Z</time></trkpt><trkpt lat="43.1999951" lon="12.9285647"><ele>502.3333333333333</ele><time>2026-04-25T12:28:08.507Z</time></trkpt><trkpt lat="43.2001045" lon="12.9284279"><ele>503.0</ele><time>2026-04-25T12:28:09.52Z</time></trkpt><trkpt lat="43.2002235" lon="12.9282929"><ele>503.2</ele><time>2026-04-25T12:28:10.514Z</time></trkpt><trkpt lat="43.2003145" lon="12.9282235"><ele>503.4</ele><time>2026-04-25T12:28:11.513Z</time></trkpt><trkpt lat="43.2004035" lon="12.928168"><ele>503.59999999999997</ele><time>2026-04-25T12:28:12.515Z</time></trkpt><trkpt lat="43.2004976" lon="12.928132"><ele>503.79999999999995</ele><time>2026-04-25T12:28:13.511Z</time></trkpt><trkpt lat="43.2005928" lon="12.9280893"><ele>504.0</ele><time>2026-04-25T12:28:14.515Z</time></trkpt><trkpt lat="43.2007601" lon="12.9281407"><ele>505.66666666666663</ele><time>2026-04-25T12:28:16.518Z</time></trkpt><trkpt lat="43.2008731" lon="12.9282343"><ele>507.3333333333333</ele><time>2026-04-25T12:28:17.524Z</time></trkpt><trkpt lat="43.2010602" lon="12.9282521"><ele>509.0</ele><time>2026-04-25T12:28:18.511Z</time></trkpt><trkpt lat="43.201225" lon="12.9283339"><ele>511.0</ele><time>2026-04-25T12:28:19.513Z</time></trkpt><trkpt lat="43.2013938" lon="12.9284535"><ele>513.0</ele><time>2026-04-25T12:28:20.512Z</time></trkpt><trkpt lat="43.201571" lon="12.9285985"><ele>515.0</ele><time>2026-04-25T12:28:21.508Z</time></trkpt><trkpt lat="43.2017586" lon="12.9286949"><ele>517.6666666666666</ele><time>2026-04-25T12:28:22.522Z</time></trkpt><trkpt lat="43.2019311" lon="12.9287508"><ele>520.3333333333334</ele><time>2026-04-25T12:28:23.514Z</time></trkpt><trkpt lat="43.2021087" lon="12.9287801"><ele>523.0</ele><time>2026-04-25T12:28:24.518Z</time></trkpt><trkpt lat="43.2022979" lon="12.9288023"><ele>524.6666666666667</ele><time>2026-04-25T12:28:25.515Z</time></trkpt><trkpt lat="43.2024936" lon="12.9288214"><ele>526.3333333333334</ele><time>2026-04-25T12:28:26.52Z</time></trkpt><trkpt lat="43.2026714" lon="12.9288564"><ele>528.0</ele><time>2026-04-25T12:28:27.512Z</time></trkpt><trkpt lat="43.2028445" lon="12.9288959"><ele>528.0</ele><time>2026-04-25T12:28:28.523Z</time></trkpt><trkpt lat="43.2030028" lon="12.9289515"><ele>528.0</ele><time>2026-04-25T12:28:29.513Z</time></trkpt><trkpt lat="43.2031251" lon="12.9289525"><ele>528.0</ele><time>2026-04-25T12:28:30.517Z</time></trkpt><trkpt lat="43.2031972" lon="12.928989"><ele>528.0</ele><time>2026-04-25T12:28:31.517Z</time></trkpt><trkpt lat="43.2032524" lon="12.9290454"><ele>528.0</ele><time>2026-04-25T12:28:32.518Z</time></trkpt><trkpt lat="43.2032811" lon="12.9291562"><ele>532.0</ele><time>2026-04-25T12:28:33.515Z</time></trkpt><trkpt lat="43.2033764" lon="12.9292664"><ele>536.0</ele><time>2026-04-25T12:28:34.516Z</time></trkpt><trkpt lat="43.2034488" lon="12.9293797"><ele>540.0</ele><time>2026-04-25T12:28:35.513Z</time></trkpt><trkpt lat="43.2035197" lon="12.9295225"><ele>544.0</ele><time>2026-04-25T12:28:36.518Z</time></trkpt><trkpt lat="43.2035783" lon="12.9297017"><ele>544.0</ele><time>2026-04-25T12:28:37.515Z</time></trkpt><trkpt lat="43.2036104" lon="12.9299047"><ele>544.0</ele><time>2026-04-25T12:28:38.516Z</time></trkpt><trkpt lat="43.2036538" lon="12.9301064"><ele>544.0</ele><time>2026-04-25T12:28:39.51Z</time></trkpt><trkpt lat="43.2036836" lon="12.930343"><ele>546.2</ele><time>2026-04-25T12:28:40.518Z</time></trkpt><trkpt lat="43.2037303" lon="12.9305865"><ele>548.4</ele><time>2026-04-25T12:28:41.514Z</time></trkpt><trkpt lat="43.2037386" lon="12.930719"><ele>550.6</ele><time>2026-04-25T12:28:42.519Z</time></trkpt><trkpt lat="43.2037533" lon="12.9308242"><ele>552.8</ele><time>2026-04-25T12:28:43.512Z</time></trkpt><trkpt lat="43.2037168" lon="12.9309221"><ele>555.0</ele><time>2026-04-25T12:28:44.513Z</time></trkpt><trkpt lat="43.2035963" lon="12.9310218"><ele>558.5</ele><time>2026-04-25T12:28:46.517Z</time></trkpt><trkpt lat="43.2034916" lon="12.9310441"><ele>562.0</ele><time>2026-04-25T12:28:47.506Z</time></trkpt><trkpt lat="43.2033898" lon="12.9310433"><ele>565.5</ele><time>2026-04-25T12:28:48.511Z</time></trkpt><trkpt lat="43.2032889" lon="12.9310101"><ele>569.0</ele><time>2026-04-25T12:28:49.509Z</time></trkpt><trkpt lat="43.2031582" lon="12.9309209"><ele>566.6666666666666</ele><time>2026-04-25T12:28:50.515Z</time></trkpt><trkpt lat="43.2030433" lon="12.9307648"><ele>564.3333333333334</ele><time>2026-04-25T12:28:51.514Z</time></trkpt><trkpt lat="43.2029472" lon="12.9305996"><ele>562.0</ele><time>2026-04-25T12:28:52.514Z</time></trkpt><trkpt lat="43.20284" lon="12.9304815"><ele>562.0</ele><time>2026-04-25T12:28:53.508Z</time></trkpt><trkpt lat="43.2027604" lon="12.9303754"><ele>562.0</ele><time>2026-04-25T12:28:54.52Z</time></trkpt><trkpt lat="43.2026901" lon="12.9303613"><ele>562.0</ele><time>2026-04-25T12:28:55.507Z</time></trkpt><trkpt lat="43.2025848" lon="12.9303793"><ele>562.0</ele><time>2026-04-25T12:28:56.511Z</time></trkpt><trkpt lat="43.2023946" lon="12.9304132"><ele>564.0</ele><time>2026-04-25T12:28:57.512Z</time></trkpt><trkpt lat="43.2022203" lon="12.9304402"><ele>566.0</ele><time>2026-04-25T12:28:58.521Z</time></trkpt><trkpt lat="43.2020538" lon="12.930448"><ele>568.0</ele><time>2026-04-25T12:28:59.519Z</time></trkpt><trkpt lat="43.2018573" lon="12.9304477"><ele>568.0</ele><time>2026-04-25T12:29:00.517Z</time></trkpt><trkpt lat="43.2016616" lon="12.9304883"><ele>568.0</ele><time>2026-04-25T12:29:01.518Z</time></trkpt><trkpt lat="43.2015021" lon="12.9304915"><ele>568.0</ele><time>2026-04-25T12:29:02.512Z</time></trkpt><trkpt lat="43.2013505" lon="12.9305582"><ele>567.25</ele><time>2026-04-25T12:29:03.513Z</time></trkpt><trkpt lat="43.201247" lon="12.9306246"><ele>566.5</ele><time>2026-04-25T12:29:04.511Z</time></trkpt><trkpt lat="43.2011013" lon="12.9306596"><ele>565.75</ele><time>2026-04-25T12:29:05.515Z</time></trkpt><trkpt lat="43.2009732" lon="12.9307689"><ele>565.0</ele><time>2026-04-25T12:29:06.513Z</time></trkpt><trkpt lat="43.2008119" lon="12.9308367"><ele>569.6666666666667</ele><time>2026-04-25T12:29:07.515Z</time></trkpt><trkpt lat="43.2005777" lon="12.9309253"><ele>574.3333333333334</ele><time>2026-04-25T12:29:08.508Z</time></trkpt><trkpt lat="43.2004018" lon="12.9310648"><ele>579.0</ele><time>2026-04-25T12:29:09.518Z</time></trkpt><trkpt lat="43.2001618" lon="12.9311805"><ele>579.0</ele><time>2026-04-25T12:29:10.514Z</time></trkpt><trkpt lat="43.2000057" lon="12.9313372"><ele>579.0</ele><time>2026-04-25T12:29:11.518Z</time></trkpt><trkpt lat="43.1998433" lon="12.9315008"><ele>579.0</ele><time>2026-04-25T12:29:12.514Z</time></trkpt><trkpt lat="43.1997395" lon="12.9316729"><ele>579.3333333333334</ele><time>2026-04-25T12:29:13.517Z</time></trkpt><trkpt lat="43.1995929" lon="12.9318196"><ele>579.6666666666667</ele><time>2026-04-25T12:29:14.513Z</time></trkpt><trkpt lat="43.199488" lon="12.9319831"><ele>580.0</ele><time>2026-04-25T12:29:15.519Z</time></trkpt><trkpt lat="43.1993147" lon="12.9321599"><ele>580.0</ele><time>2026-04-25T12:29:16.514Z</time></trkpt><trkpt lat="43.1992104" lon="12.9323664"><ele>580.0</ele><time>2026-04-25T12:29:17.514Z</time></trkpt><trkpt lat="43.1990831" lon="12.9325523"><ele>580.0</ele><time>2026-04-25T12:29:18.511Z</time></trkpt><trkpt lat="43.1989462" lon="12.9327422"><ele>581.3333333333334</ele><time>2026-04-25T12:29:19.51Z</time></trkpt><trkpt lat="43.1988271" lon="12.9329352"><ele>582.6666666666666</ele><time>2026-04-25T12:29:20.513Z</time></trkpt><trkpt lat="43.1986987" lon="12.9331097"><ele>584.0</ele><time>2026-04-25T12:29:21.511Z</time></trkpt><trkpt lat="43.1985704" lon="12.9332801"><ele>584.0</ele><time>2026-04-25T12:29:22.509Z</time></trkpt><trkpt lat="43.1983839" lon="12.9334505"><ele>584.0</ele><time>2026-04-25T12:29:23.513Z</time></trkpt><trkpt lat="43.1982081" lon="12.933605"><ele>584.0</ele><time>2026-04-25T12:29:24.515Z</time></trkpt><trkpt lat="43.1980593" lon="12.9337301"><ele>584.0</ele><time>2026-04-25T12:29:25.511Z</time></trkpt><trkpt lat="43.1979356" lon="12.9338619"><ele>584.0</ele><time>2026-04-25T12:29:26.51Z</time></trkpt><trkpt lat="43.1978038" lon="12.9339722"><ele>584.0</ele><time>2026-04-25T12:29:27.51Z</time></trkpt><trkpt lat="43.197682" lon="12.9340708"><ele>584.0</ele><time>2026-04-25T12:29:28.513Z</time></trkpt><trkpt lat="43.1975889" lon="12.9341399"><ele>584.0</ele><time>2026-04-25T12:29:29.51Z</time></trkpt><trkpt lat="43.1975352" lon="12.9342164"><ele>584.0</ele><time>2026-04-25T12:29:31.507Z</time></trkpt><trkpt lat="43.1975024" lon="12.9343482"><ele>584.0</ele><time>2026-04-25T12:29:33.511Z</time></trkpt><trkpt lat="43.197558" lon="12.934394"><ele>584.0</ele><time>2026-04-25T12:29:34.514Z</time></trkpt><trkpt lat="43.1976281" lon="12.9343827"><ele>584.0</ele><time>2026-04-25T12:29:35.509Z</time></trkpt><trkpt lat="43.1977047" lon="12.9343663"><ele>584.0</ele><time>2026-04-25T12:29:36.514Z</time></trkpt><trkpt lat="43.197775" lon="12.9343101"><ele>584.0</ele><time>2026-04-25T12:29:37.508Z</time></trkpt><trkpt lat="43.1978465" lon="12.9342341"><ele>584.0</ele><time>2026-04-25T12:29:38.514Z</time></trkpt><trkpt lat="43.197925" lon="12.9341267"><ele>584.0</ele><time>2026-04-25T12:29:39.512Z</time></trkpt><trkpt lat="43.1980192" lon="12.9340519"><ele>584.0</ele><time>2026-04-25T12:29:40.515Z</time></trkpt><trkpt lat="43.1981242" lon="12.9339777"><ele>594.6666666666666</ele><time>2026-04-25T12:29:41.513Z</time></trkpt><trkpt lat="43.1982452" lon="12.9339136"><ele>605.3333333333334</ele><time>2026-04-25T12:29:42.517Z</time></trkpt><trkpt lat="43.1983895" lon="12.9338675"><ele>616.0</ele><time>2026-04-25T12:29:43.518Z</time></trkpt><trkpt lat="43.1985635" lon="12.9338177"><ele>616.0</ele><time>2026-04-25T12:29:44.519Z</time></trkpt><trkpt lat="43.1987563" lon="12.9337621"><ele>616.0</ele><time>2026-04-25T12:29:45.521Z</time></trkpt><trkpt lat="43.1988999" lon="12.9337015"><ele>616.0</ele><time>2026-04-25T12:29:46.519Z</time></trkpt><trkpt lat="43.1990635" lon="12.9336696"><ele>623.6666666666667</ele><time>2026-04-25T12:29:47.518Z</time></trkpt><trkpt lat="43.1992179" lon="12.9335768"><ele>631.3333333333334</ele><time>2026-04-25T12:29:48.517Z</time></trkpt><trkpt lat="43.1993898" lon="12.9335018"><ele>639.0</ele><time>2026-04-25T12:29:49.518Z</time></trkpt><trkpt lat="43.1995639" lon="12.9334099"><ele>636.0</ele><time>2026-04-25T12:29:50.524Z</time></trkpt><trkpt lat="43.1997183" lon="12.9333188"><ele>633.0</ele><time>2026-04-25T12:29:51.519Z</time></trkpt><trkpt lat="43.199869" lon="12.9332143"><ele>630.0</ele><time>2026-04-25T12:29:52.521Z</time></trkpt><trkpt lat="43.200025" lon="12.9330955"><ele>630.0</ele><time>2026-04-25T12:29:53.513Z</time></trkpt><trkpt lat="43.2001545" lon="12.932993"><ele>630.0</ele><time>2026-04-25T12:29:54.513Z</time></trkpt><trkpt lat="43.2002985" lon="12.9329139"><ele>630.0</ele><time>2026-04-25T12:29:55.518Z</time></trkpt><trkpt lat="43.2004349" lon="12.9328493"><ele>630.0</ele><time>2026-04-25T12:29:56.514Z</time></trkpt><trkpt lat="43.2005791" lon="12.9327755"><ele>633.75</ele><time>2026-04-25T12:29:57.516Z</time></trkpt><trkpt lat="43.2007489" lon="12.9327939"><ele>637.5</ele><time>2026-04-25T12:29:58.513Z</time></trkpt><trkpt lat="43.2008976" lon="12.9327758"><ele>641.25</ele><time>2026-04-25T12:29:59.518Z</time></trkpt><trkpt lat="43.2010082" lon="12.9327964"><ele>645.0</ele><time>2026-04-25T12:30:00.515Z</time></trkpt><trkpt lat="43.2011078" lon="12.9328405"><ele>645.0</ele><time>2026-04-25T12:30:01.52Z</time></trkpt><trkpt lat="43.2011928" lon="12.9328961"><ele>645.0</ele><time>2026-04-25T12:30:02.511Z</time></trkpt><trkpt lat="43.2012779" lon="12.9329359"><ele>645.0</ele><time>2026-04-25T12:30:03.518Z</time></trkpt><trkpt lat="43.2013736" lon="12.9330398"><ele>645.0</ele><time>2026-04-25T12:30:04.528Z</time></trkpt><trkpt lat="43.2014722" lon="12.9331829"><ele>642.3333333333334</ele><time>2026-04-25T12:30:05.52Z</time></trkpt><trkpt lat="43.2015925" lon="12.9333288"><ele>639.6666666666667</ele><time>2026-04-25T12:30:06.523Z</time></trkpt><trkpt lat="43.2016992" lon="12.9335015"><ele>637.0</ele><time>2026-04-25T12:30:07.516Z</time></trkpt><trkpt lat="43.2017467" lon="12.9336999"><ele>641.75</ele><time>2026-04-25T12:30:08.52Z</time></trkpt><trkpt lat="43.2018033" lon="12.9338889"><ele>646.5</ele><time>2026-04-25T12:30:09.513Z</time></trkpt><trkpt lat="43.201837" lon="12.9340928"><ele>651.25</ele><time>2026-04-25T12:30:10.513Z</time></trkpt><trkpt lat="43.2018684" lon="12.9342604"><ele>656.0</ele><time>2026-04-25T12:30:11.516Z</time></trkpt><trkpt lat="43.2018721" lon="12.9344055"><ele>658.0</ele><time>2026-04-25T12:30:12.512Z</time></trkpt><trkpt lat="43.2019057" lon="12.93452"><ele>660.0</ele><time>2026-04-25T12:30:13.517Z</time></trkpt><trkpt lat="43.2020078" lon="12.9346097"><ele>662.0</ele><time>2026-04-25T12:30:14.516Z</time></trkpt><trkpt lat="43.2021118" lon="12.9347128"><ele>664.0</ele><time>2026-04-25T12:30:15.526Z</time></trkpt><trkpt lat="43.2021703" lon="12.934815"><ele>666.0</ele><time>2026-04-25T12:30:16.517Z</time></trkpt><trkpt lat="43.2020498" lon="12.9349561"><ele>668.0</ele><time>2026-04-25T12:30:17.519Z</time></trkpt><trkpt lat="43.2019144" lon="12.9351366"><ele>670.0</ele><time>2026-04-25T12:30:18.522Z</time></trkpt><trkpt lat="43.2018063" lon="12.93531"><ele>672.0</ele><time>2026-04-25T12:30:19.515Z</time></trkpt><trkpt lat="43.2017256" lon="12.9354897"><ele>672.0</ele><time>2026-04-25T12:30:20.519Z</time></trkpt><trkpt lat="43.2016415" lon="12.9356332"><ele>672.0</ele><time>2026-04-25T12:30:21.519Z</time></trkpt><trkpt lat="43.2015634" lon="12.9357581"><ele>672.0</ele><time>2026-04-25T12:30:22.517Z</time></trkpt><trkpt lat="43.201534" lon="12.9358701"><ele>672.0</ele><time>2026-04-25T12:30:23.518Z</time></trkpt><trkpt lat="43.2015366" lon="12.9359956"><ele>672.0</ele><time>2026-04-25T12:30:24.519Z</time></trkpt><trkpt lat="43.2015572" lon="12.9361205"><ele>676.0</ele><time>2026-04-25T12:30:25.522Z</time></trkpt><trkpt lat="43.2015952" lon="12.9362424"><ele>680.0</ele><time>2026-04-25T12:30:26.514Z</time></trkpt><trkpt lat="43.2016642" lon="12.936386"><ele>684.0</ele><time>2026-04-25T12:30:27.512Z</time></trkpt><trkpt lat="43.2017449" lon="12.9365427"><ele>688.0</ele><time>2026-04-25T12:30:28.523Z</time></trkpt><trkpt lat="43.2018248" lon="12.9367333"><ele>696.3333333333334</ele><time>2026-04-25T12:30:29.519Z</time></trkpt><trkpt lat="43.2019286" lon="12.9369222"><ele>704.6666666666666</ele><time>2026-04-25T12:30:30.514Z</time></trkpt><trkpt lat="43.2020299" lon="12.9371098"><ele>713.0</ele><time>2026-04-25T12:30:31.519Z</time></trkpt><trkpt lat="43.2021413" lon="12.937276"><ele>713.0</ele><time>2026-04-25T12:30:32.522Z</time></trkpt><trkpt lat="43.2022903" lon="12.937444"><ele>713.0</ele><time>2026-04-25T12:30:33.519Z</time></trkpt><trkpt lat="43.2024176" lon="12.9375741"><ele>713.0</ele><time>2026-04-25T12:30:34.524Z</time></trkpt><trkpt lat="43.2025573" lon="12.9377102"><ele>711.0</ele><time>2026-04-25T12:30:35.516Z</time></trkpt><trkpt lat="43.2027534" lon="12.9378471"><ele>709.0</ele><time>2026-04-25T12:30:36.519Z</time></trkpt><trkpt lat="43.2028822" lon="12.9379435"><ele>707.0</ele><time>2026-04-25T12:30:37.522Z</time></trkpt><trkpt lat="43.2030439" lon="12.938074"><ele>702.0</ele><time>2026-04-25T12:30:38.517Z</time></trkpt><trkpt lat="43.2032122" lon="12.9381731"><ele>697.0</ele><time>2026-04-25T12:30:39.519Z</time></trkpt><trkpt lat="43.203334" lon="12.9382516"><ele>692.0</ele><time>2026-04-25T12:30:40.521Z</time></trkpt><trkpt lat="43.2034887" lon="12.9383185"><ele>692.0</ele><time>2026-04-25T12:30:41.517Z</time></trkpt><trkpt lat="43.2036201" lon="12.9382957"><ele>692.0</ele><time>2026-04-25T12:30:42.519Z</time></trkpt><trkpt lat="43.203774" lon="12.9383288"><ele>692.0</ele><time>2026-04-25T12:30:43.517Z</time></trkpt><trkpt lat="43.2038739" lon="12.9383042"><ele>692.0</ele><time>2026-04-25T12:30:44.518Z</time></trkpt><trkpt lat="43.2039622" lon="12.9382258"><ele>696.0</ele><time>2026-04-25T12:30:45.524Z</time></trkpt><trkpt lat="43.204113" lon="12.9382318"><ele>700.0</ele><time>2026-04-25T12:30:47.518Z</time></trkpt><trkpt lat="43.2042307" lon="12.9382333"><ele>704.0</ele><time>2026-04-25T12:30:48.534Z</time></trkpt><trkpt lat="43.204325" lon="12.9382153"><ele>708.0</ele><time>2026-04-25T12:30:49.529Z</time></trkpt><trkpt lat="43.204438" lon="12.9381951"><ele>708.0</ele><time>2026-04-25T12:30:50.521Z</time></trkpt><trkpt lat="43.2045381" lon="12.9381217"><ele>708.0</ele><time>2026-04-25T12:30:51.524Z</time></trkpt><trkpt lat="43.2046414" lon="12.9380642"><ele>708.0</ele><time>2026-04-25T12:30:52.519Z</time></trkpt><trkpt lat="43.2047514" lon="12.9380077"><ele>708.0</ele><time>2026-04-25T12:30:53.515Z</time></trkpt><trkpt lat="43.2048618" lon="12.9378841"><ele>714.0</ele><time>2026-04-25T12:30:54.525Z</time></trkpt><trkpt lat="43.2049872" lon="12.9377886"><ele>720.0</ele><time>2026-04-25T12:30:55.51Z</time></trkpt><trkpt lat="43.2051181" lon="12.9376384"><ele>726.0</ele><time>2026-04-25T12:30:56.52Z</time></trkpt><trkpt lat="43.2052552" lon="12.9375109"><ele>726.0</ele><time>2026-04-25T12:30:57.519Z</time></trkpt><trkpt lat="43.2053969" lon="12.9373643"><ele>726.0</ele><time>2026-04-25T12:30:58.521Z</time></trkpt><trkpt lat="43.2055385" lon="12.9372862"><ele>726.0</ele><time>2026-04-25T12:30:59.515Z</time></trkpt><trkpt lat="43.2056905" lon="12.9371663"><ele>726.0</ele><time>2026-04-25T12:31:00.522Z</time></trkpt><trkpt lat="43.2057334" lon="12.9368301"><ele>726.0</ele><time>2026-04-25T12:31:01.529Z</time></trkpt><trkpt lat="43.2057274" lon="12.9366255"><ele>726.0</ele><time>2026-04-25T12:31:02.524Z</time></trkpt><trkpt lat="43.2057757" lon="12.9364835"><ele>726.0</ele><time>2026-04-25T12:31:03.519Z</time></trkpt><trkpt lat="43.205833" lon="12.9363908"><ele>726.0</ele><time>2026-04-25T12:31:04.524Z</time></trkpt><trkpt lat="43.2058366" lon="12.9362229"><ele>726.0</ele><time>2026-04-25T12:31:05.523Z</time></trkpt><trkpt lat="43.2057735" lon="12.9361075"><ele>726.0</ele><time>2026-04-25T12:31:06.523Z</time></trkpt><trkpt lat="43.2057459" lon="12.9359643"><ele>726.0</ele><time>2026-04-25T12:31:07.521Z</time></trkpt><trkpt lat="43.2057394" lon="12.9358173"><ele>721.75</ele><time>2026-04-25T12:31:08.526Z</time></trkpt><trkpt lat="43.2057697" lon="12.9356678"><ele>717.5</ele><time>2026-04-25T12:31:09.52Z</time></trkpt><trkpt lat="43.2058427" lon="12.9355424"><ele>713.25</ele><time>2026-04-25T12:31:10.528Z</time></trkpt><trkpt lat="43.2059473" lon="12.9354451"><ele>709.0</ele><time>2026-04-25T12:31:11.521Z</time></trkpt><trkpt lat="43.2060666" lon="12.9353522"><ele>709.0</ele><time>2026-04-25T12:31:12.529Z</time></trkpt><trkpt lat="43.2061946" lon="12.9352941"><ele>709.0</ele><time>2026-04-25T12:31:13.521Z</time></trkpt><trkpt lat="43.206317" lon="12.9352446"><ele>709.0</ele><time>2026-04-25T12:31:14.519Z</time></trkpt><trkpt lat="43.2064541" lon="12.9351992"><ele>709.0</ele><time>2026-04-25T12:31:15.517Z</time></trkpt><trkpt lat="43.2065993" lon="12.935183"><ele>719.6666666666667</ele><time>2026-04-25T12:31:16.525Z</time></trkpt><trkpt lat="43.2067795" lon="12.9351716"><ele>730.3333333333334</ele><time>2026-04-25T12:31:17.518Z</time></trkpt><trkpt lat="43.2069562" lon="12.9351707"><ele>741.0</ele><time>2026-04-25T12:31:18.522Z</time></trkpt><trkpt lat="43.2071396" lon="12.9351871"><ele>741.0</ele><time>2026-04-25T12:31:19.519Z</time></trkpt><trkpt lat="43.2073229" lon="12.9352212"><ele>741.0</ele><time>2026-04-25T12:31:20.518Z</time></trkpt><trkpt lat="43.2074508" lon="12.935237"><ele>741.0</ele><time>2026-04-25T12:31:21.521Z</time></trkpt><trkpt lat="43.2075685" lon="12.9352425"><ele>741.0</ele><time>2026-04-25T12:31:22.516Z</time></trkpt><trkpt lat="43.2076767" lon="12.9352208"><ele>742.8</ele><time>2026-04-25T12:31:23.521Z</time></trkpt><trkpt lat="43.207829" lon="12.9351785"><ele>744.5999999999999</ele><time>2026-04-25T12:31:24.515Z</time></trkpt><trkpt lat="43.2079117" lon="12.9351862"><ele>746.4</ele><time>2026-04-25T12:31:25.517Z</time></trkpt><trkpt lat="43.2079963" lon="12.9351686"><ele>748.2</ele><time>2026-04-25T12:31:27.519Z</time></trkpt><trkpt lat="43.2079321" lon="12.9351566"><ele>750.0</ele><time>2026-04-25T12:31:42.513Z</time></trkpt><trkpt lat="43.207951" lon="12.9352579"><ele>750.0</ele><time>2026-04-25T12:31:49.533Z</time></trkpt><trkpt lat="43.2079966" lon="12.935185"><ele>750.0</ele><time>2026-04-25T12:31:55.511Z</time></trkpt><trkpt lat="43.2080439" lon="12.9352602"><ele>750.0</ele><time>2026-04-25T12:31:57.509Z</time></trkpt><trkpt lat="43.2080413" lon="12.9353493"><ele>750.0</ele><time>2026-04-25T12:31:58.513Z</time></trkpt><trkpt lat="43.2079926" lon="12.9354399"><ele>750.0</ele><time>2026-04-25T12:32:00.518Z</time></trkpt><trkpt lat="43.2079207" lon="12.9353305"><ele>750.0</ele><time>2026-04-25T12:32:03.522Z</time></trkpt><trkpt lat="43.2078405" lon="12.9353133"><ele>750.0</ele><time>2026-04-25T12:32:13.528Z</time></trkpt><trkpt lat="43.2075154" lon="12.9353221"><ele>750.0</ele><time>2026-04-25T12:32:16.519Z</time></trkpt><trkpt lat="43.2072933" lon="12.9353346"><ele>747.75</ele><time>2026-04-25T12:32:17.523Z</time></trkpt><trkpt lat="43.2070825" lon="12.9352833"><ele>745.5</ele><time>2026-04-25T12:32:18.514Z</time></trkpt><trkpt lat="43.2070758" lon="12.9350921"><ele>743.25</ele><time>2026-04-25T12:32:19.517Z</time></trkpt><trkpt lat="43.2070353" lon="12.9350046"><ele>741.0</ele><time>2026-04-25T12:32:20.514Z</time></trkpt><trkpt lat="43.2069757" lon="12.934884"><ele>740.6666666666666</ele><time>2026-04-25T12:32:21.51Z</time></trkpt><trkpt lat="43.2069532" lon="12.9347437"><ele>740.3333333333333</ele><time>2026-04-25T12:32:22.514Z</time></trkpt><trkpt lat="43.2072218" lon="12.9347921"><ele>740.0</ele><time>2026-04-25T12:32:24.515Z</time></trkpt><trkpt lat="43.20736" lon="12.9349037"><ele>740.0</ele><time>2026-04-25T12:32:26.515Z</time></trkpt><trkpt lat="43.2074304" lon="12.9349671"><ele>740.0</ele><time>2026-04-25T12:32:27.517Z</time></trkpt><trkpt lat="43.2074631" lon="12.9350567"><ele>740.0</ele><time>2026-04-25T12:32:32.531Z</time></trkpt><trkpt lat="43.2075011" lon="12.9351445"><ele>740.0</ele><time>2026-04-25T12:32:36.511Z</time></trkpt><trkpt lat="43.2076125" lon="12.9351465"><ele>740.0</ele><time>2026-04-25T12:32:41.523Z</time></trkpt><trkpt lat="43.2077039" lon="12.9350961"><ele>740.0</ele><time>2026-04-25T12:32:42.529Z</time></trkpt><trkpt lat="43.2077767" lon="12.9350957"><ele>740.0</ele><time>2026-04-25T12:32:50.53Z</time></trkpt><trkpt lat="43.2078507" lon="12.9350606"><ele>740.0</ele><time>2026-04-25T12:32:54.521Z</time></trkpt><trkpt lat="43.2079158" lon="12.9350142"><ele>740.0</ele><time>2026-04-25T12:32:57.514Z</time></trkpt><trkpt lat="43.2080041" lon="12.9351496"><ele>740.0</ele><time>2026-04-25T12:33:06.533Z</time></trkpt><trkpt lat="43.2079674" lon="12.9352353"><ele>740.0</ele><time>2026-04-25T12:33:28.513Z</time></trkpt><trkpt lat="43.2079064" lon="12.9351596"><ele>740.0</ele><time>2026-04-25T12:34:05.544Z</time></trkpt><trkpt lat="43.2080529" lon="12.9351652"><ele>740.0</ele><time>2026-04-25T12:34:18.536Z</time></trkpt><trkpt lat="43.2080182" lon="12.9350893"><ele>740.0</ele><time>2026-04-25T12:35:57.51Z</time></trkpt><trkpt lat="43.2080494" lon="12.9349091"><ele>740.0</ele><time>2026-04-25T12:35:59.518Z</time></trkpt><trkpt lat="43.2080899" lon="12.934783"><ele>740.0</ele><time>2026-04-25T12:36:01.52Z</time></trkpt><trkpt lat="43.2081114" lon="12.9349623"><ele>740.0</ele><time>2026-04-25T12:36:03.526Z</time></trkpt><trkpt lat="43.2081932" lon="12.9350833"><ele>741.5</ele><time>2026-04-25T12:36:05.526Z</time></trkpt><trkpt lat="43.2082338" lon="12.9351861"><ele>743.0</ele><time>2026-04-25T12:36:07.52Z</time></trkpt><trkpt lat="43.208249" lon="12.9352886"><ele>744.5</ele><time>2026-04-25T12:36:10.519Z</time></trkpt><trkpt lat="43.2082898" lon="12.9353796"><ele>746.0</ele><time>2026-04-25T12:36:14.524Z</time></trkpt><trkpt lat="43.2082103" lon="12.9353551"><ele>747.5</ele><time>2026-04-25T12:36:28.524Z</time></trkpt><trkpt lat="43.208145" lon="12.9353919"><ele>749.0</ele><time>2026-04-25T12:36:31.535Z</time></trkpt><trkpt lat="43.2080793" lon="12.9354385"><ele>749.1428571428571</ele><time>2026-04-25T12:36:35.528Z</time></trkpt><trkpt lat="43.2080115" lon="12.9354334"><ele>749.2857142857142</ele><time>2026-04-25T12:37:03.529Z</time></trkpt><trkpt lat="43.2079678" lon="12.9353537"><ele>749.4285714285714</ele><time>2026-04-25T12:37:47.542Z</time></trkpt><trkpt lat="43.2079744" lon="12.9352415"><ele>749.5714285714286</ele><time>2026-04-25T12:38:04.516Z</time></trkpt><trkpt lat="43.2079726" lon="12.9351535"><ele>749.7142857142857</ele><time>2026-04-25T12:38:15.527Z</time></trkpt><trkpt lat="43.2079734" lon="12.9352534"><ele>749.8571428571429</ele><time>2026-04-25T12:38:20.533Z</time></trkpt><trkpt lat="43.2079942" lon="12.9351635"><ele>750.0</ele><time>2026-04-25T12:39:41.535Z</time></trkpt><trkpt lat="43.2080757" lon="12.9351518"><ele>750.0</ele><time>2026-04-25T12:40:05.54Z</time></trkpt><trkpt lat="43.2079956" lon="12.9351654"><ele>750.0</ele><time>2026-04-25T12:40:54.518Z</time></trkpt><trkpt lat="43.208105" lon="12.9351885"><ele>750.0</ele><time>2026-04-25T12:41:16.517Z</time></trkpt><trkpt lat="43.2081787" lon="12.9352039"><ele>750.0</ele><time>2026-04-25T12:41:17.526Z</time></trkpt><trkpt lat="43.2082829" lon="12.9352313"><ele>750.0</ele><time>2026-04-25T12:41:18.52Z</time></trkpt><trkpt lat="43.2084177" lon="12.935242"><ele>749.75</ele><time>2026-04-25T12:41:19.514Z</time></trkpt><trkpt lat="43.2085497" lon="12.9352539"><ele>749.5</ele><time>2026-04-25T12:41:20.521Z</time></trkpt><trkpt lat="43.2086611" lon="12.9352632"><ele>749.25</ele><time>2026-04-25T12:41:21.522Z</time></trkpt><trkpt lat="43.2087658" lon="12.9352709"><ele>749.0</ele><time>2026-04-25T12:41:22.522Z</time></trkpt><trkpt lat="43.2088655" lon="12.9353029"><ele>747.0</ele><time>2026-04-25T12:41:23.521Z</time></trkpt><trkpt lat="43.2090059" lon="12.9353472"><ele>745.0</ele><time>2026-04-25T12:41:24.518Z</time></trkpt><trkpt lat="43.209157" lon="12.9353794"><ele>743.0</ele><time>2026-04-25T12:41:25.518Z</time></trkpt><trkpt lat="43.2092956" lon="12.9354229"><ele>741.0</ele><time>2026-04-25T12:41:26.521Z</time></trkpt><trkpt lat="43.2094715" lon="12.9354716"><ele>741.0</ele><time>2026-04-25T12:41:27.518Z</time></trkpt><trkpt lat="43.2096503" lon="12.9355355"><ele>741.0</ele><time>2026-04-25T12:41:28.521Z</time></trkpt><trkpt lat="43.2098347" lon="12.9356128"><ele>741.0</ele><time>2026-04-25T12:41:29.515Z</time></trkpt><trkpt lat="43.2100514" lon="12.9356835"><ele>742.25</ele><time>2026-04-25T12:41:30.519Z</time></trkpt><trkpt lat="43.2101878" lon="12.9357529"><ele>743.5</ele><time>2026-04-25T12:41:31.517Z</time></trkpt><trkpt lat="43.2102657" lon="12.935784"><ele>744.75</ele><time>2026-04-25T12:41:32.519Z</time></trkpt><trkpt lat="43.2104103" lon="12.9358436"><ele>746.0</ele><time>2026-04-25T12:41:33.519Z</time></trkpt><trkpt lat="43.2105407" lon="12.9359251"><ele>736.3333333333333</ele><time>2026-04-25T12:41:34.516Z</time></trkpt><trkpt lat="43.2106974" lon="12.9360163"><ele>726.6666666666666</ele><time>2026-04-25T12:41:35.519Z</time></trkpt><trkpt lat="43.2108468" lon="12.9361054"><ele>717.0</ele><time>2026-04-25T12:41:36.52Z</time></trkpt><trkpt lat="43.2110092" lon="12.9362011"><ele>717.0</ele><time>2026-04-25T12:41:37.52Z</time></trkpt><trkpt lat="43.2111219" lon="12.9362795"><ele>717.0</ele><time>2026-04-25T12:41:38.52Z</time></trkpt><trkpt lat="43.2112693" lon="12.9363533"><ele>717.0</ele><time>2026-04-25T12:41:39.524Z</time></trkpt><trkpt lat="43.2113363" lon="12.9364457"><ele>717.0</ele><time>2026-04-25T12:41:40.527Z</time></trkpt><trkpt lat="43.2113898" lon="12.9365054"><ele>717.0</ele><time>2026-04-25T12:41:41.519Z</time></trkpt><trkpt lat="43.2114171" lon="12.9365889"><ele>720.0</ele><time>2026-04-25T12:41:42.524Z</time></trkpt><trkpt lat="43.2114362" lon="12.9367229"><ele>723.0</ele><time>2026-04-25T12:41:43.522Z</time></trkpt><trkpt lat="43.2114589" lon="12.9368786"><ele>726.0</ele><time>2026-04-25T12:41:44.53Z</time></trkpt><trkpt lat="43.2114408" lon="12.9370786"><ele>729.0</ele><time>2026-04-25T12:41:45.517Z</time></trkpt><trkpt lat="43.2114504" lon="12.9372652"><ele>729.0</ele><time>2026-04-25T12:41:46.526Z</time></trkpt><trkpt lat="43.2114482" lon="12.9374837"><ele>729.0</ele><time>2026-04-25T12:41:47.525Z</time></trkpt><trkpt lat="43.2114584" lon="12.9377434"><ele>729.0</ele><time>2026-04-25T12:41:48.524Z</time></trkpt><trkpt lat="43.2114636" lon="12.9380004"><ele>728.0</ele><time>2026-04-25T12:41:49.519Z</time></trkpt><trkpt lat="43.2114149" lon="12.9382743"><ele>727.0</ele><time>2026-04-25T12:41:50.515Z</time></trkpt><trkpt lat="43.2114548" lon="12.938516"><ele>726.0</ele><time>2026-04-25T12:41:51.524Z</time></trkpt><trkpt lat="43.2114455" lon="12.9387603"><ele>724.0</ele><time>2026-04-25T12:41:52.522Z</time></trkpt><trkpt lat="43.2113408" lon="12.9390156"><ele>722.0</ele><time>2026-04-25T12:41:53.52Z</time></trkpt><trkpt lat="43.2112588" lon="12.9392522"><ele>720.0</ele><time>2026-04-25T12:41:54.515Z</time></trkpt><trkpt lat="43.2110914" lon="12.9395158"><ele>719.25</ele><time>2026-04-25T12:41:55.514Z</time></trkpt><trkpt lat="43.2110402" lon="12.9397561"><ele>718.5</ele><time>2026-04-25T12:41:56.513Z</time></trkpt><trkpt lat="43.2110645" lon="12.9399517"><ele>717.75</ele><time>2026-04-25T12:41:57.515Z</time></trkpt><trkpt lat="43.2110795" lon="12.9400834"><ele>717.0</ele><time>2026-04-25T12:41:58.516Z</time></trkpt><trkpt lat="43.2110842" lon="12.9402064"><ele>718.5</ele><time>2026-04-25T12:41:59.521Z</time></trkpt><trkpt lat="43.2111164" lon="12.9403155"><ele>720.0</ele><time>2026-04-25T12:42:00.516Z</time></trkpt><trkpt lat="43.2112096" lon="12.9404021"><ele>721.5</ele><time>2026-04-25T12:42:01.514Z</time></trkpt><trkpt lat="43.2113684" lon="12.9404567"><ele>723.0</ele><time>2026-04-25T12:42:02.516Z</time></trkpt><trkpt lat="43.2114959" lon="12.9405021"><ele>716.0</ele><time>2026-04-25T12:42:03.522Z</time></trkpt><trkpt lat="43.2116418" lon="12.9405203"><ele>709.0</ele><time>2026-04-25T12:42:04.525Z</time></trkpt><trkpt lat="43.211751" lon="12.9405208"><ele>702.0</ele><time>2026-04-25T12:42:05.519Z</time></trkpt><trkpt lat="43.2118489" lon="12.9404746"><ele>695.0</ele><time>2026-04-25T12:42:06.516Z</time></trkpt><trkpt lat="43.2119414" lon="12.9404164"><ele>695.0</ele><time>2026-04-25T12:42:07.526Z</time></trkpt><trkpt lat="43.2120206" lon="12.9403284"><ele>695.0</ele><time>2026-04-25T12:42:08.524Z</time></trkpt><trkpt lat="43.2120954" lon="12.9402145"><ele>695.0</ele><time>2026-04-25T12:42:09.521Z</time></trkpt><trkpt lat="43.2121765" lon="12.9400475"><ele>695.0</ele><time>2026-04-25T12:42:10.523Z</time></trkpt><trkpt lat="43.2122689" lon="12.9398514"><ele>692.0</ele><time>2026-04-25T12:42:11.521Z</time></trkpt><trkpt lat="43.2123466" lon="12.939622"><ele>689.0</ele><time>2026-04-25T12:42:12.522Z</time></trkpt><trkpt lat="43.2124009" lon="12.9393598"><ele>686.0</ele><time>2026-04-25T12:42:13.522Z</time></trkpt><trkpt lat="43.212444" lon="12.9390985"><ele>686.0</ele><time>2026-04-25T12:42:14.521Z</time></trkpt><trkpt lat="43.2125074" lon="12.9388387"><ele>686.0</ele><time>2026-04-25T12:42:15.516Z</time></trkpt><trkpt lat="43.2125275" lon="12.93857"><ele>686.0</ele><time>2026-04-25T12:42:16.527Z</time></trkpt><trkpt lat="43.2126013" lon="12.9383453"><ele>680.6666666666666</ele><time>2026-04-25T12:42:17.528Z</time></trkpt><trkpt lat="43.2127086" lon="12.9381297"><ele>675.3333333333334</ele><time>2026-04-25T12:42:18.519Z</time></trkpt><trkpt lat="43.2128046" lon="12.9379062"><ele>670.0</ele><time>2026-04-25T12:42:19.525Z</time></trkpt><trkpt lat="43.2129116" lon="12.9376986"><ele>672.3333333333334</ele><time>2026-04-25T12:42:20.527Z</time></trkpt><trkpt lat="43.2130325" lon="12.9374873"><ele>674.6666666666666</ele><time>2026-04-25T12:42:21.528Z</time></trkpt><trkpt lat="43.2131365" lon="12.9372827"><ele>677.0</ele><time>2026-04-25T12:42:22.534Z</time></trkpt><trkpt lat="43.213214" lon="12.9370431"><ele>677.0</ele><time>2026-04-25T12:42:23.534Z</time></trkpt><trkpt lat="43.21329" lon="12.9368347"><ele>677.0</ele><time>2026-04-25T12:42:24.534Z</time></trkpt><trkpt lat="43.2133887" lon="12.9366376"><ele>677.0</ele><time>2026-04-25T12:42:25.528Z</time></trkpt><trkpt lat="43.2134741" lon="12.9364146"><ele>672.25</ele><time>2026-04-25T12:42:26.529Z</time></trkpt><trkpt lat="43.2135487" lon="12.9362391"><ele>667.5</ele><time>2026-04-25T12:42:27.529Z</time></trkpt><trkpt lat="43.2135988" lon="12.936064"><ele>662.75</ele><time>2026-04-25T12:42:28.528Z</time></trkpt><trkpt lat="43.2136595" lon="12.9359404"><ele>658.0</ele><time>2026-04-25T12:42:29.522Z</time></trkpt><trkpt lat="43.2137356" lon="12.9358364"><ele>657.0</ele><time>2026-04-25T12:42:30.518Z</time></trkpt><trkpt lat="43.2138152" lon="12.9357396"><ele>656.0</ele><time>2026-04-25T12:42:31.519Z</time></trkpt><trkpt lat="43.2139324" lon="12.9356742"><ele>655.0</ele><time>2026-04-25T12:42:32.524Z</time></trkpt><trkpt lat="43.2140677" lon="12.9356172"><ele>654.0</ele><time>2026-04-25T12:42:33.522Z</time></trkpt><trkpt lat="43.2142303" lon="12.9355812"><ele>654.0</ele><time>2026-04-25T12:42:34.524Z</time></trkpt><trkpt lat="43.2143842" lon="12.9355361"><ele>654.0</ele><time>2026-04-25T12:42:35.523Z</time></trkpt><trkpt lat="43.2145577" lon="12.9355231"><ele>654.0</ele><time>2026-04-25T12:42:36.528Z</time></trkpt><trkpt lat="43.2147425" lon="12.9355533"><ele>653.0</ele><time>2026-04-25T12:42:37.525Z</time></trkpt><trkpt lat="43.2149285" lon="12.9355882"><ele>652.0</ele><time>2026-04-25T12:42:38.518Z</time></trkpt><trkpt lat="43.2151134" lon="12.9355932"><ele>651.0</ele><time>2026-04-25T12:42:39.513Z</time></trkpt><trkpt lat="43.2153139" lon="12.9356016"><ele>651.0</ele><time>2026-04-25T12:42:40.512Z</time></trkpt><trkpt lat="43.2155319" lon="12.935602"><ele>651.0</ele><time>2026-04-25T12:42:41.52Z</time></trkpt><trkpt lat="43.2157603" lon="12.9355781"><ele>651.0</ele><time>2026-04-25T12:42:42.516Z</time></trkpt><trkpt lat="43.2159854" lon="12.9355703"><ele>648.6666666666666</ele><time>2026-04-25T12:42:43.515Z</time></trkpt><trkpt lat="43.2161717" lon="12.9355575"><ele>646.3333333333333</ele><time>2026-04-25T12:42:44.515Z</time></trkpt><trkpt lat="43.2163376" lon="12.935515"><ele>644.0</ele><time>2026-04-25T12:42:45.52Z</time></trkpt><trkpt lat="43.2165162" lon="12.9355092"><ele>643.6666666666666</ele><time>2026-04-25T12:42:46.519Z</time></trkpt><trkpt lat="43.2167132" lon="12.9354998"><ele>643.3333333333334</ele><time>2026-04-25T12:42:47.514Z</time></trkpt><trkpt lat="43.2168656" lon="12.9354869"><ele>643.0</ele><time>2026-04-25T12:42:48.529Z</time></trkpt><trkpt lat="43.2170108" lon="12.9354544"><ele>643.0</ele><time>2026-04-25T12:42:49.51Z</time></trkpt><trkpt lat="43.2171831" lon="12.9354392"><ele>643.0</ele><time>2026-04-25T12:42:50.518Z</time></trkpt><trkpt lat="43.2173401" lon="12.9354297"><ele>643.0</ele><time>2026-04-25T12:42:51.518Z</time></trkpt><trkpt lat="43.2174888" lon="12.9354483"><ele>641.3333333333334</ele><time>2026-04-25T12:42:52.516Z</time></trkpt><trkpt lat="43.2176353" lon="12.9354483"><ele>639.6666666666666</ele><time>2026-04-25T12:42:53.517Z</time></trkpt><trkpt lat="43.2177956" lon="12.9354023"><ele>638.0</ele><time>2026-04-25T12:42:54.517Z</time></trkpt><trkpt lat="43.2179659" lon="12.9352922"><ele>639.6666666666666</ele><time>2026-04-25T12:42:55.515Z</time></trkpt><trkpt lat="43.2181675" lon="12.9352454"><ele>641.3333333333334</ele><time>2026-04-25T12:42:56.515Z</time></trkpt><trkpt lat="43.2183164" lon="12.9351485"><ele>643.0</ele><time>2026-04-25T12:42:57.523Z</time></trkpt><trkpt lat="43.2184168" lon="12.9350332"><ele>630.6666666666667</ele><time>2026-04-25T12:42:58.543Z</time></trkpt><trkpt lat="43.2185508" lon="12.9348789"><ele>618.3333333333334</ele><time>2026-04-25T12:42:59.544Z</time></trkpt><trkpt lat="43.2187042" lon="12.9347043"><ele>606.0</ele><time>2026-04-25T12:43:00.543Z</time></trkpt><trkpt lat="43.2188347" lon="12.9345542"><ele>606.0</ele><time>2026-04-25T12:43:01.521Z</time></trkpt><trkpt lat="43.2189575" lon="12.9344175"><ele>606.0</ele><time>2026-04-25T12:43:02.521Z</time></trkpt><trkpt lat="43.2190907" lon="12.9342601"><ele>606.0</ele><time>2026-04-25T12:43:03.514Z</time></trkpt><trkpt lat="43.2192174" lon="12.9341075"><ele>603.0</ele><time>2026-04-25T12:43:04.517Z</time></trkpt><trkpt lat="43.2193515" lon="12.9339508"><ele>600.0</ele><time>2026-04-25T12:43:05.513Z</time></trkpt><trkpt lat="43.2195036" lon="12.9338232"><ele>597.0</ele><time>2026-04-25T12:43:06.52Z</time></trkpt><trkpt lat="43.2196223" lon="12.9336958"><ele>597.0</ele><time>2026-04-25T12:43:07.517Z</time></trkpt><trkpt lat="43.2197534" lon="12.9335851"><ele>597.0</ele><time>2026-04-25T12:43:08.521Z</time></trkpt><trkpt lat="43.2198364" lon="12.9334651"><ele>597.0</ele><time>2026-04-25T12:43:09.519Z</time></trkpt><trkpt lat="43.2199741" lon="12.9333832"><ele>597.0</ele><time>2026-04-25T12:43:10.518Z</time></trkpt><trkpt lat="43.2200877" lon="12.9333248"><ele>594.5</ele><time>2026-04-25T12:43:11.516Z</time></trkpt><trkpt lat="43.2201941" lon="12.9332649"><ele>592.0</ele><time>2026-04-25T12:43:12.515Z</time></trkpt><trkpt lat="43.2202526" lon="12.9331545"><ele>589.5</ele><time>2026-04-25T12:43:13.52Z</time></trkpt><trkpt lat="43.2202829" lon="12.9329814"><ele>587.0</ele><time>2026-04-25T12:43:14.522Z</time></trkpt><trkpt lat="43.2203095" lon="12.9328206"><ele>587.0</ele><time>2026-04-25T12:43:15.526Z</time></trkpt><trkpt lat="43.2203394" lon="12.9326778"><ele>587.0</ele><time>2026-04-25T12:43:16.528Z</time></trkpt><trkpt lat="43.2203493" lon="12.9325118"><ele>587.0</ele><time>2026-04-25T12:43:17.523Z</time></trkpt><trkpt lat="43.2203899" lon="12.9323524"><ele>587.0</ele><time>2026-04-25T12:43:18.536Z</time></trkpt><trkpt lat="43.2204031" lon="12.9321871"><ele>586.0</ele><time>2026-04-25T12:43:19.519Z</time></trkpt><trkpt lat="43.2204109" lon="12.9320134"><ele>585.0</ele><time>2026-04-25T12:43:20.528Z</time></trkpt><trkpt lat="43.2204649" lon="12.9318173"><ele>584.0</ele><time>2026-04-25T12:43:21.527Z</time></trkpt><trkpt lat="43.2205482" lon="12.9316983"><ele>583.0</ele><time>2026-04-25T12:43:22.528Z</time></trkpt><trkpt lat="43.2206455" lon="12.9315917"><ele>578.6666666666667</ele><time>2026-04-25T12:43:23.525Z</time></trkpt><trkpt lat="43.2207724" lon="12.931492"><ele>574.3333333333334</ele><time>2026-04-25T12:43:24.536Z</time></trkpt><trkpt lat="43.220921" lon="12.931393"><ele>570.0</ele><time>2026-04-25T12:43:25.527Z</time></trkpt><trkpt lat="43.2210726" lon="12.931339"><ele>570.0</ele><time>2026-04-25T12:43:26.525Z</time></trkpt><trkpt lat="43.2212256" lon="12.9312745"><ele>570.0</ele><time>2026-04-25T12:43:27.525Z</time></trkpt><trkpt lat="43.2213959" lon="12.9312063"><ele>570.0</ele><time>2026-04-25T12:43:28.523Z</time></trkpt><trkpt lat="43.2215204" lon="12.9311535"><ele>571.25</ele><time>2026-04-25T12:43:29.524Z</time></trkpt><trkpt lat="43.2216379" lon="12.9310361"><ele>572.5</ele><time>2026-04-25T12:43:30.52Z</time></trkpt><trkpt lat="43.2216902" lon="12.9308813"><ele>573.75</ele><time>2026-04-25T12:43:31.522Z</time></trkpt><trkpt lat="43.2217438" lon="12.9307169"><ele>575.0</ele><time>2026-04-25T12:43:32.521Z</time></trkpt><trkpt lat="43.2217894" lon="12.930604"><ele>571.6</ele><time>2026-04-25T12:43:33.517Z</time></trkpt><trkpt lat="43.2218489" lon="12.9305323"><ele>568.2</ele><time>2026-04-25T12:43:34.534Z</time></trkpt><trkpt lat="43.2219222" lon="12.9304868"><ele>564.8</ele><time>2026-04-25T12:43:35.529Z</time></trkpt><trkpt lat="43.2220037" lon="12.9304682"><ele>561.4</ele><time>2026-04-25T12:43:36.525Z</time></trkpt><trkpt lat="43.2220907" lon="12.9304693"><ele>558.0</ele><time>2026-04-25T12:43:37.53Z</time></trkpt><trkpt lat="43.2222197" lon="12.9305251"><ele>557.25</ele><time>2026-04-25T12:43:38.526Z</time></trkpt><trkpt lat="43.2223408" lon="12.9306198"><ele>556.5</ele><time>2026-04-25T12:43:39.518Z</time></trkpt><trkpt lat="43.222425" lon="12.9306675"><ele>555.75</ele><time>2026-04-25T12:43:40.52Z</time></trkpt><trkpt lat="43.2225382" lon="12.9307116"><ele>555.0</ele><time>2026-04-25T12:43:41.524Z</time></trkpt><trkpt lat="43.2226608" lon="12.9307494"><ele>555.0</ele><time>2026-04-25T12:43:42.521Z</time></trkpt><trkpt lat="43.2228022" lon="12.9307522"><ele>555.0</ele><time>2026-04-25T12:43:43.521Z</time></trkpt><trkpt lat="43.2229662" lon="12.930712"><ele>555.0</ele><time>2026-04-25T12:43:44.523Z</time></trkpt><trkpt lat="43.2231535" lon="12.9306441"><ele>554.0</ele><time>2026-04-25T12:43:45.523Z</time></trkpt><trkpt lat="43.223313" lon="12.9305914"><ele>553.0</ele><time>2026-04-25T12:43:46.526Z</time></trkpt><trkpt lat="43.2234798" lon="12.9305632"><ele>552.0</ele><time>2026-04-25T12:43:47.521Z</time></trkpt><trkpt lat="43.2236731" lon="12.9305576"><ele>552.0</ele><time>2026-04-25T12:43:48.524Z</time></trkpt><trkpt lat="43.2238962" lon="12.9305895"><ele>552.0</ele><time>2026-04-25T12:43:49.52Z</time></trkpt><trkpt lat="43.2240631" lon="12.9306375"><ele>552.0</ele><time>2026-04-25T12:43:50.53Z</time></trkpt><trkpt lat="43.2242609" lon="12.9306727"><ele>550.0</ele><time>2026-04-25T12:43:51.519Z</time></trkpt><trkpt lat="43.2243799" lon="12.9306084"><ele>548.0</ele><time>2026-04-25T12:43:52.512Z</time></trkpt><trkpt lat="43.2245403" lon="12.9305465"><ele>546.0</ele><time>2026-04-25T12:43:53.515Z</time></trkpt><trkpt lat="43.2247033" lon="12.9305829"><ele>543.6666666666666</ele><time>2026-04-25T12:43:54.52Z</time></trkpt><trkpt lat="43.2248497" lon="12.930668"><ele>541.3333333333333</ele><time>2026-04-25T12:43:55.517Z</time></trkpt><trkpt lat="43.2249813" lon="12.9308244"><ele>539.0</ele><time>2026-04-25T12:43:56.524Z</time></trkpt><trkpt lat="43.2251103" lon="12.9309748"><ele>539.0</ele><time>2026-04-25T12:43:57.52Z</time></trkpt><trkpt lat="43.2252501" lon="12.9311262"><ele>539.0</ele><time>2026-04-25T12:43:58.521Z</time></trkpt><trkpt lat="43.2253818" lon="12.9313028"><ele>539.0</ele><time>2026-04-25T12:43:59.518Z</time></trkpt><trkpt lat="43.225493" lon="12.931492"><ele>539.0</ele><time>2026-04-25T12:44:00.523Z</time></trkpt><trkpt lat="43.2255878" lon="12.93168"><ele>539.0</ele><time>2026-04-25T12:44:01.515Z</time></trkpt><trkpt lat="43.2256864" lon="12.9318737"><ele>539.0</ele><time>2026-04-25T12:44:02.526Z</time></trkpt><trkpt lat="43.2257999" lon="12.9321407"><ele>538.0</ele><time>2026-04-25T12:44:03.521Z</time></trkpt><trkpt lat="43.2258599" lon="12.9323331"><ele>537.0</ele><time>2026-04-25T12:44:04.522Z</time></trkpt><trkpt lat="43.2259457" lon="12.932535"><ele>536.0</ele><time>2026-04-25T12:44:05.519Z</time></trkpt><trkpt lat="43.2260497" lon="12.9327756"><ele>536.0</ele><time>2026-04-25T12:44:06.527Z</time></trkpt><trkpt lat="43.2261168" lon="12.9330136"><ele>536.0</ele><time>2026-04-25T12:44:07.518Z</time></trkpt><trkpt lat="43.2262003" lon="12.9332362"><ele>536.0</ele><time>2026-04-25T12:44:08.53Z</time></trkpt><trkpt lat="43.2262758" lon="12.9334363"><ele>535.75</ele><time>2026-04-25T12:44:09.526Z</time></trkpt><trkpt lat="43.2263801" lon="12.9336061"><ele>535.5</ele><time>2026-04-25T12:44:10.524Z</time></trkpt><trkpt lat="43.2264598" lon="12.933793"><ele>535.25</ele><time>2026-04-25T12:44:11.514Z</time></trkpt><trkpt lat="43.2264911" lon="12.933944"><ele>535.0</ele><time>2026-04-25T12:44:12.521Z</time></trkpt><trkpt lat="43.2264683" lon="12.9341262"><ele>534.75</ele><time>2026-04-25T12:44:13.521Z</time></trkpt><trkpt lat="43.2264895" lon="12.9342739"><ele>534.5</ele><time>2026-04-25T12:44:14.521Z</time></trkpt><trkpt lat="43.2265633" lon="12.9344254"><ele>534.25</ele><time>2026-04-25T12:44:15.522Z</time></trkpt><trkpt lat="43.2266721" lon="12.9345406"><ele>534.0</ele><time>2026-04-25T12:44:16.518Z</time></trkpt><trkpt lat="43.2267933" lon="12.9345945"><ele>534.0</ele><time>2026-04-25T12:44:17.519Z</time></trkpt><trkpt lat="43.2269345" lon="12.9346661"><ele>534.0</ele><time>2026-04-25T12:44:18.523Z</time></trkpt><trkpt lat="43.227085" lon="12.9347455"><ele>534.0</ele><time>2026-04-25T12:44:19.521Z</time></trkpt><trkpt lat="43.2272529" lon="12.9348331"><ele>533.0</ele><time>2026-04-25T12:44:20.533Z</time></trkpt><trkpt lat="43.2273974" lon="12.9348964"><ele>532.0</ele><time>2026-04-25T12:44:21.528Z</time></trkpt><trkpt lat="43.2275346" lon="12.9350219"><ele>531.0</ele><time>2026-04-25T12:44:22.527Z</time></trkpt><trkpt lat="43.2276842" lon="12.9351812"><ele>533.0</ele><time>2026-04-25T12:44:23.515Z</time></trkpt><trkpt lat="43.2278255" lon="12.9353456"><ele>535.0</ele><time>2026-04-25T12:44:24.525Z</time></trkpt><trkpt lat="43.2279776" lon="12.9355579"><ele>537.0</ele><time>2026-04-25T12:44:25.522Z</time></trkpt><trkpt lat="43.2281259" lon="12.9357322"><ele>537.0</ele><time>2026-04-25T12:44:26.528Z</time></trkpt><trkpt lat="43.2282622" lon="12.9359155"><ele>537.0</ele><time>2026-04-25T12:44:27.527Z</time></trkpt><trkpt lat="43.2284245" lon="12.9360686"><ele>537.0</ele><time>2026-04-25T12:44:28.524Z</time></trkpt><trkpt lat="43.2285892" lon="12.9361943"><ele>537.0</ele><time>2026-04-25T12:44:29.528Z</time></trkpt><trkpt lat="43.2287838" lon="12.9362996"><ele>537.0</ele><time>2026-04-25T12:44:30.525Z</time></trkpt><trkpt lat="43.2289582" lon="12.9364388"><ele>537.0</ele><time>2026-04-25T12:44:31.52Z</time></trkpt><trkpt lat="43.2291076" lon="12.9365734"><ele>535.6666666666666</ele><time>2026-04-25T12:44:32.531Z</time></trkpt><trkpt lat="43.2292507" lon="12.9366564"><ele>534.3333333333333</ele><time>2026-04-25T12:44:33.53Z</time></trkpt><trkpt lat="43.2293276" lon="12.9368136"><ele>533.0</ele><time>2026-04-25T12:44:34.527Z</time></trkpt><trkpt lat="43.2294127" lon="12.9370165"><ele>530.6666666666666</ele><time>2026-04-25T12:44:35.529Z</time></trkpt><trkpt lat="43.2294962" lon="12.9372207"><ele>528.3333333333334</ele><time>2026-04-25T12:44:36.528Z</time></trkpt><trkpt lat="43.2296132" lon="12.9374394"><ele>526.0</ele><time>2026-04-25T12:44:37.528Z</time></trkpt><trkpt lat="43.2296961" lon="12.9376811"><ele>525.0</ele><time>2026-04-25T12:44:38.526Z</time></trkpt><trkpt lat="43.2297932" lon="12.9378975"><ele>524.0</ele><time>2026-04-25T12:44:39.526Z</time></trkpt><trkpt lat="43.2299143" lon="12.9381029"><ele>523.0</ele><time>2026-04-25T12:44:40.529Z</time></trkpt><trkpt lat="43.2300346" lon="12.9383036"><ele>520.6666666666667</ele><time>2026-04-25T12:44:41.524Z</time></trkpt><trkpt lat="43.2301244" lon="12.9384805"><ele>518.3333333333334</ele><time>2026-04-25T12:44:42.529Z</time></trkpt><trkpt lat="43.230237" lon="12.9386744"><ele>516.0</ele><time>2026-04-25T12:44:43.523Z</time></trkpt><trkpt lat="43.2303026" lon="12.9389091"><ele>516.0</ele><time>2026-04-25T12:44:44.523Z</time></trkpt><trkpt lat="43.2304244" lon="12.9391739"><ele>516.0</ele><time>2026-04-25T12:44:45.523Z</time></trkpt><trkpt lat="43.2304679" lon="12.9393963"><ele>516.0</ele><time>2026-04-25T12:44:46.521Z</time></trkpt><trkpt lat="43.2305147" lon="12.9396145"><ele>518.3333333333334</ele><time>2026-04-25T12:44:47.52Z</time></trkpt><trkpt lat="43.2305606" lon="12.9398406"><ele>520.6666666666667</ele><time>2026-04-25T12:44:48.53Z</time></trkpt><trkpt lat="43.2305738" lon="12.9400444"><ele>523.0</ele><time>2026-04-25T12:44:49.521Z</time></trkpt><trkpt lat="43.2305997" lon="12.9402555"><ele>522.6666666666667</ele><time>2026-04-25T12:44:50.524Z</time></trkpt><trkpt lat="43.2306529" lon="12.9405269"><ele>522.3333333333334</ele><time>2026-04-25T12:44:51.514Z</time></trkpt><trkpt lat="43.2306803" lon="12.9407596"><ele>522.0</ele><time>2026-04-25T12:44:52.517Z</time></trkpt><trkpt lat="43.2307159" lon="12.9409949"><ele>522.0</ele><time>2026-04-25T12:44:53.515Z</time></trkpt><trkpt lat="43.2307353" lon="12.9412366"><ele>522.0</ele><time>2026-04-25T12:44:54.524Z</time></trkpt><trkpt lat="43.2307801" lon="12.9414731"><ele>522.0</ele><time>2026-04-25T12:44:55.517Z</time></trkpt><trkpt lat="43.2308341" lon="12.9416884"><ele>520.4</ele><time>2026-04-25T12:44:56.523Z</time></trkpt><trkpt lat="43.2308567" lon="12.9418579"><ele>518.8000000000001</ele><time>2026-04-25T12:44:57.515Z</time></trkpt><trkpt lat="43.2308942" lon="12.9420217"><ele>517.2</ele><time>2026-04-25T12:44:58.52Z</time></trkpt><trkpt lat="43.2308326" lon="12.9420917"><ele>515.6</ele><time>2026-04-25T12:44:59.523Z</time></trkpt><trkpt lat="43.2308894" lon="12.9421673"><ele>514.0</ele><time>2026-04-25T12:45:02.516Z</time></trkpt><trkpt lat="43.2309989" lon="12.9423101"><ele>514.0</ele><time>2026-04-25T12:45:03.524Z</time></trkpt><trkpt lat="43.2311196" lon="12.9424142"><ele>514.0</ele><time>2026-04-25T12:45:04.513Z</time></trkpt><trkpt lat="43.2312159" lon="12.9425199"><ele>514.0</ele><time>2026-04-25T12:45:05.516Z</time></trkpt><trkpt lat="43.2312887" lon="12.9426683"><ele>514.0</ele><time>2026-04-25T12:45:06.523Z</time></trkpt><trkpt lat="43.2313575" lon="12.9428513"><ele>515.5</ele><time>2026-04-25T12:45:07.521Z</time></trkpt><trkpt lat="43.2314539" lon="12.9430725"><ele>517.0</ele><time>2026-04-25T12:45:08.521Z</time></trkpt><trkpt lat="43.2316213" lon="12.9433691"><ele>513.0</ele><time>2026-04-25T12:45:09.515Z</time></trkpt><trkpt lat="43.2317893" lon="12.9436707"><ele>509.0</ele><time>2026-04-25T12:45:10.518Z</time></trkpt><trkpt lat="43.2319352" lon="12.9439584"><ele>509.0</ele><time>2026-04-25T12:45:11.511Z</time></trkpt><trkpt lat="43.2320769" lon="12.9441598"><ele>509.0</ele><time>2026-04-25T12:45:12.515Z</time></trkpt><trkpt lat="43.2322175" lon="12.9443416"><ele>509.0</ele><time>2026-04-25T12:45:13.52Z</time></trkpt><trkpt lat="43.2323551" lon="12.9444932"><ele>506.75</ele><time>2026-04-25T12:45:14.521Z</time></trkpt><trkpt lat="43.2324941" lon="12.9445922"><ele>504.5</ele><time>2026-04-25T12:45:15.52Z</time></trkpt><trkpt lat="43.23265" lon="12.9446652"><ele>502.25</ele><time>2026-04-25T12:45:16.514Z</time></trkpt><trkpt lat="43.2327588" lon="12.9447316"><ele>500.0</ele><time>2026-04-25T12:45:17.523Z</time></trkpt><trkpt lat="43.2328875" lon="12.9448753"><ele>500.0</ele><time>2026-04-25T12:45:18.515Z</time></trkpt><trkpt lat="43.2329136" lon="12.9449858"><ele>500.0</ele><time>2026-04-25T12:45:19.508Z</time></trkpt><trkpt lat="43.2328977" lon="12.9451307"><ele>500.0</ele><time>2026-04-25T12:45:20.513Z</time></trkpt><trkpt lat="43.2329084" lon="12.9452749"><ele>500.0</ele><time>2026-04-25T12:45:21.517Z</time></trkpt><trkpt lat="43.2329148" lon="12.9454563"><ele>500.0</ele><time>2026-04-25T12:45:22.523Z</time></trkpt><trkpt lat="43.2329229" lon="12.9456455"><ele>499.66666666666663</ele><time>2026-04-25T12:45:23.514Z</time></trkpt><trkpt lat="43.2328918" lon="12.9458107"><ele>499.33333333333337</ele><time>2026-04-25T12:45:24.516Z</time></trkpt><trkpt lat="43.2328896" lon="12.9460502"><ele>499.0</ele><time>2026-04-25T12:45:25.52Z</time></trkpt><trkpt lat="43.2329467" lon="12.9463012"><ele>499.0</ele><time>2026-04-25T12:45:26.521Z</time></trkpt><trkpt lat="43.2330848" lon="12.9466444"><ele>499.0</ele><time>2026-04-25T12:45:27.52Z</time></trkpt><trkpt lat="43.2331664" lon="12.9469742"><ele>496.6666666666667</ele><time>2026-04-25T12:45:28.519Z</time></trkpt><trkpt lat="43.2332064" lon="12.9472319"><ele>494.33333333333337</ele><time>2026-04-25T12:45:29.518Z</time></trkpt><trkpt lat="43.2332574" lon="12.9475104"><ele>492.0</ele><time>2026-04-25T12:45:30.523Z</time></trkpt><trkpt lat="43.2333214" lon="12.9477545"><ele>491.0</ele><time>2026-04-25T12:45:31.515Z</time></trkpt><trkpt lat="43.2333264" lon="12.9480012"><ele>490.0</ele><time>2026-04-25T12:45:32.515Z</time></trkpt><trkpt lat="43.2333261" lon="12.9482182"><ele>489.0</ele><time>2026-04-25T12:45:33.519Z</time></trkpt><trkpt lat="43.2333324" lon="12.9483851"><ele>488.66666666666663</ele><time>2026-04-25T12:45:34.521Z</time></trkpt><trkpt lat="43.2334311" lon="12.9485662"><ele>488.3333333333333</ele><time>2026-04-25T12:45:35.519Z</time></trkpt><trkpt lat="43.2335457" lon="12.9487881"><ele>488.0</ele><time>2026-04-25T12:45:36.525Z</time></trkpt><trkpt lat="43.2336608" lon="12.9490389"><ele>490.3333333333333</ele><time>2026-04-25T12:45:37.515Z</time></trkpt><trkpt lat="43.2337474" lon="12.9492877"><ele>492.66666666666663</ele><time>2026-04-25T12:45:38.519Z</time></trkpt><trkpt lat="43.2337897" lon="12.9494994"><ele>495.0</ele><time>2026-04-25T12:45:39.517Z</time></trkpt><trkpt lat="43.2338261" lon="12.949623"><ele>495.0</ele><time>2026-04-25T12:45:40.521Z</time></trkpt><trkpt lat="43.2338457" lon="12.9497673"><ele>495.0</ele><time>2026-04-25T12:45:41.525Z</time></trkpt><trkpt lat="43.2338069" lon="12.9498968"><ele>495.0</ele><time>2026-04-25T12:45:42.522Z</time></trkpt><trkpt lat="43.2337501" lon="12.9500183"><ele>495.0</ele><time>2026-04-25T12:45:43.53Z</time></trkpt><trkpt lat="43.2336841" lon="12.9501294"><ele>495.0</ele><time>2026-04-25T12:45:44.518Z</time></trkpt><trkpt lat="43.2336205" lon="12.9502454"><ele>496.0</ele><time>2026-04-25T12:45:45.519Z</time></trkpt><trkpt lat="43.2335724" lon="12.9503501"><ele>497.0</ele><time>2026-04-25T12:45:46.524Z</time></trkpt><trkpt lat="43.2335641" lon="12.9504564"><ele>498.0</ele><time>2026-04-25T12:45:47.522Z</time></trkpt><trkpt lat="43.2335679" lon="12.9505668"><ele>499.0</ele><time>2026-04-25T12:45:48.527Z</time></trkpt><trkpt lat="43.2335858" lon="12.9506689"><ele>500.0</ele><time>2026-04-25T12:45:49.518Z</time></trkpt><trkpt lat="43.2336158" lon="12.9507886"><ele>501.0</ele><time>2026-04-25T12:45:50.52Z</time></trkpt><trkpt lat="43.2337021" lon="12.9510004"><ele>503.33333333333337</ele><time>2026-04-25T12:45:51.521Z</time></trkpt><trkpt lat="43.2337764" lon="12.951178"><ele>505.6666666666667</ele><time>2026-04-25T12:45:52.527Z</time></trkpt><trkpt lat="43.2338721" lon="12.9513498"><ele>508.0</ele><time>2026-04-25T12:45:53.528Z</time></trkpt><trkpt lat="43.2339876" lon="12.9515041"><ele>497.6666666666667</ele><time>2026-04-25T12:45:54.532Z</time></trkpt><trkpt lat="43.2341305" lon="12.9516488"><ele>487.33333333333337</ele><time>2026-04-25T12:45:55.524Z</time></trkpt><trkpt lat="43.2343287" lon="12.9517289"><ele>477.0</ele><time>2026-04-25T12:45:56.527Z</time></trkpt><trkpt lat="43.2344961" lon="12.9517767"><ele>477.0</ele><time>2026-04-25T12:45:57.528Z</time></trkpt><trkpt lat="43.2346482" lon="12.951805"><ele>477.0</ele><time>2026-04-25T12:45:58.528Z</time></trkpt><trkpt lat="43.2347517" lon="12.9518377"><ele>477.0</ele><time>2026-04-25T12:45:59.522Z</time></trkpt><trkpt lat="43.2348482" lon="12.9518721"><ele>477.0</ele><time>2026-04-25T12:46:00.517Z</time></trkpt><trkpt lat="43.2349502" lon="12.951918"><ele>476.5</ele><time>2026-04-25T12:46:01.517Z</time></trkpt><trkpt lat="43.2350303" lon="12.9520336"><ele>476.0</ele><time>2026-04-25T12:46:02.515Z</time></trkpt><trkpt lat="43.2351402" lon="12.9521642"><ele>475.5</ele><time>2026-04-25T12:46:03.515Z</time></trkpt><trkpt lat="43.2352445" lon="12.9522742"><ele>475.0</ele><time>2026-04-25T12:46:04.512Z</time></trkpt><trkpt lat="43.2353424" lon="12.9524928"><ele>472.33333333333337</ele><time>2026-04-25T12:46:05.52Z</time></trkpt><trkpt lat="43.2354347" lon="12.9527013"><ele>469.66666666666663</ele><time>2026-04-25T12:46:06.513Z</time></trkpt><trkpt lat="43.2354971" lon="12.9530276"><ele>467.0</ele><time>2026-04-25T12:46:07.514Z</time></trkpt><trkpt lat="43.2355417" lon="12.9533084"><ele>465.0</ele><time>2026-04-25T12:46:08.512Z</time></trkpt><trkpt lat="43.2355359" lon="12.9535931"><ele>463.0</ele><time>2026-04-25T12:46:09.513Z</time></trkpt><trkpt lat="43.2354873" lon="12.9538306"><ele>461.0</ele><time>2026-04-25T12:46:10.515Z</time></trkpt><trkpt lat="43.2354435" lon="12.9540576"><ele>460.0</ele><time>2026-04-25T12:46:11.514Z</time></trkpt><trkpt lat="43.23542" lon="12.9543073"><ele>459.0</ele><time>2026-04-25T12:46:12.514Z</time></trkpt><trkpt lat="43.2354149" lon="12.9545607"><ele>458.0</ele><time>2026-04-25T12:46:13.515Z</time></trkpt><trkpt lat="43.2354299" lon="12.9548421"><ele>457.66666666666663</ele><time>2026-04-25T12:46:14.517Z</time></trkpt><trkpt lat="43.2354996" lon="12.9550596"><ele>457.33333333333337</ele><time>2026-04-25T12:46:15.518Z</time></trkpt><trkpt lat="43.2355223" lon="12.9552946"><ele>457.0</ele><time>2026-04-25T12:46:16.517Z</time></trkpt><trkpt lat="43.2355157" lon="12.9555257"><ele>457.0</ele><time>2026-04-25T12:46:17.517Z</time></trkpt><trkpt lat="43.2355455" lon="12.9557169"><ele>457.0</ele><time>2026-04-25T12:46:18.511Z</time></trkpt><trkpt lat="43.2356186" lon="12.9559129"><ele>457.0</ele><time>2026-04-25T12:46:19.515Z</time></trkpt><trkpt lat="43.2356794" lon="12.956103"><ele>457.5</ele><time>2026-04-25T12:46:20.509Z</time></trkpt><trkpt lat="43.2357195" lon="12.9562972"><ele>458.0</ele><time>2026-04-25T12:46:21.523Z</time></trkpt><trkpt lat="43.235733" lon="12.9564571"><ele>458.5</ele><time>2026-04-25T12:46:22.521Z</time></trkpt><trkpt lat="43.2357328" lon="12.9565656"><ele>459.0</ele><time>2026-04-25T12:46:23.518Z</time></trkpt><trkpt lat="43.2358174" lon="12.956673"><ele>457.25</ele><time>2026-04-25T12:46:24.515Z</time></trkpt><trkpt lat="43.2358897" lon="12.9567505"><ele>455.5</ele><time>2026-04-25T12:46:25.515Z</time></trkpt><trkpt lat="43.2359796" lon="12.9568443"><ele>453.75</ele><time>2026-04-25T12:46:26.515Z</time></trkpt><trkpt lat="43.236105" lon="12.9568961"><ele>452.0</ele><time>2026-04-25T12:46:27.518Z</time></trkpt><trkpt lat="43.2362234" lon="12.9569231"><ele>452.0</ele><time>2026-04-25T12:46:28.516Z</time></trkpt><trkpt lat="43.2363581" lon="12.956963"><ele>452.0</ele><time>2026-04-25T12:46:29.521Z</time></trkpt><trkpt lat="43.236535" lon="12.9570584"><ele>452.0</ele><time>2026-04-25T12:46:30.521Z</time></trkpt><trkpt lat="43.2366952" lon="12.9571239"><ele>454.66666666666663</ele><time>2026-04-25T12:46:31.52Z</time></trkpt><trkpt lat="43.2368933" lon="12.9572354"><ele>457.33333333333337</ele><time>2026-04-25T12:46:32.517Z</time></trkpt><trkpt lat="43.2370658" lon="12.9573268"><ele>460.0</ele><time>2026-04-25T12:46:33.517Z</time></trkpt><trkpt lat="43.2372266" lon="12.9574367"><ele>459.0</ele><time>2026-04-25T12:46:34.519Z</time></trkpt><trkpt lat="43.2373708" lon="12.9575551"><ele>458.0</ele><time>2026-04-25T12:46:35.522Z</time></trkpt><trkpt lat="43.2375489" lon="12.9577027"><ele>457.0</ele><time>2026-04-25T12:46:36.518Z</time></trkpt><trkpt lat="43.2377213" lon="12.9578936"><ele>457.0</ele><time>2026-04-25T12:46:37.523Z</time></trkpt><trkpt lat="43.2378859" lon="12.9580244"><ele>457.0</ele><time>2026-04-25T12:46:38.525Z</time></trkpt><trkpt lat="43.2380376" lon="12.9581602"><ele>457.0</ele><time>2026-04-25T12:46:39.527Z</time></trkpt><trkpt lat="43.2381812" lon="12.9582473"><ele>454.6666666666667</ele><time>2026-04-25T12:46:40.536Z</time></trkpt><trkpt lat="43.2383397" lon="12.9583391"><ele>452.33333333333337</ele><time>2026-04-25T12:46:41.524Z</time></trkpt><trkpt lat="43.23852" lon="12.9584062"><ele>450.0</ele><time>2026-04-25T12:46:42.526Z</time></trkpt><trkpt lat="43.2386924" lon="12.9585167"><ele>450.0</ele><time>2026-04-25T12:46:43.528Z</time></trkpt><trkpt lat="43.2388715" lon="12.958641"><ele>450.0</ele><time>2026-04-25T12:46:44.53Z</time></trkpt><trkpt lat="43.2390322" lon="12.9587597"><ele>450.0</ele><time>2026-04-25T12:46:45.531Z</time></trkpt><trkpt lat="43.2391545" lon="12.9588643"><ele>448.66666666666663</ele><time>2026-04-25T12:46:46.525Z</time></trkpt><trkpt lat="43.2393074" lon="12.9590101"><ele>447.3333333333333</ele><time>2026-04-25T12:46:47.531Z</time></trkpt><trkpt lat="43.2394333" lon="12.9591244"><ele>446.0</ele><time>2026-04-25T12:46:48.525Z</time></trkpt><trkpt lat="43.2395203" lon="12.9592684"><ele>446.0</ele><time>2026-04-25T12:46:49.53Z</time></trkpt><trkpt lat="43.2396382" lon="12.9594424"><ele>446.0</ele><time>2026-04-25T12:46:50.524Z</time></trkpt><trkpt lat="43.2397814" lon="12.9595931"><ele>446.0</ele><time>2026-04-25T12:46:51.521Z</time></trkpt><trkpt lat="43.2398939" lon="12.9597357"><ele>448.0</ele><time>2026-04-25T12:46:52.535Z</time></trkpt><trkpt lat="43.2399641" lon="12.9598357"><ele>450.0</ele><time>2026-04-25T12:46:53.525Z</time></trkpt><trkpt lat="43.2400559" lon="12.9599131"><ele>452.0</ele><time>2026-04-25T12:46:54.544Z</time></trkpt><trkpt lat="43.2401601" lon="12.9599239"><ele>454.0</ele><time>2026-04-25T12:46:55.526Z</time></trkpt><trkpt lat="43.2402608" lon="12.9598958"><ele>456.0</ele><time>2026-04-25T12:46:56.527Z</time></trkpt><trkpt lat="43.2403698" lon="12.9598408"><ele>456.0</ele><time>2026-04-25T12:46:57.532Z</time></trkpt><trkpt lat="43.2404931" lon="12.959762"><ele>456.0</ele><time>2026-04-25T12:46:58.522Z</time></trkpt><trkpt lat="43.2405501" lon="12.9596307"><ele>456.0</ele><time>2026-04-25T12:46:59.524Z</time></trkpt><trkpt lat="43.2406177" lon="12.9594079"><ele>456.0</ele><time>2026-04-25T12:47:00.526Z</time></trkpt><trkpt lat="43.2406831" lon="12.9592431"><ele>458.25</ele><time>2026-04-25T12:47:01.528Z</time></trkpt><trkpt lat="43.2407712" lon="12.9590964"><ele>460.5</ele><time>2026-04-25T12:47:02.527Z</time></trkpt><trkpt lat="43.2408936" lon="12.9589772"><ele>462.75</ele><time>2026-04-25T12:47:03.529Z</time></trkpt><trkpt lat="43.2409974" lon="12.9588833"><ele>465.0</ele><time>2026-04-25T12:47:04.53Z</time></trkpt><trkpt lat="43.2410956" lon="12.9588267"><ele>465.0</ele><time>2026-04-25T12:47:05.528Z</time></trkpt><trkpt lat="43.2412109" lon="12.9588088"><ele>465.0</ele><time>2026-04-25T12:47:06.529Z</time></trkpt><trkpt lat="43.2413441" lon="12.9588303"><ele>465.0</ele><time>2026-04-25T12:47:07.527Z</time></trkpt><trkpt lat="43.2414909" lon="12.9588664"><ele>465.0</ele><time>2026-04-25T12:47:08.525Z</time></trkpt><trkpt lat="43.2416177" lon="12.9588831"><ele>463.75</ele><time>2026-04-25T12:47:09.526Z</time></trkpt><trkpt lat="43.2417451" lon="12.9588703"><ele>462.5</ele><time>2026-04-25T12:47:10.527Z</time></trkpt><trkpt lat="43.2418689" lon="12.9588464"><ele>461.25</ele><time>2026-04-25T12:47:11.526Z</time></trkpt><trkpt lat="43.2419925" lon="12.9587757"><ele>460.0</ele><time>2026-04-25T12:47:12.532Z</time></trkpt><trkpt lat="43.2421152" lon="12.9586548"><ele>460.0</ele><time>2026-04-25T12:47:13.522Z</time></trkpt><trkpt lat="43.2422439" lon="12.9585268"><ele>460.0</ele><time>2026-04-25T12:47:14.519Z</time></trkpt><trkpt lat="43.2424084" lon="12.9584281"><ele>460.0</ele><time>2026-04-25T12:47:15.523Z</time></trkpt><trkpt lat="43.2424945" lon="12.9583747"><ele>460.0</ele><time>2026-04-25T12:47:16.524Z</time></trkpt><trkpt lat="43.2425644" lon="12.9583576"><ele>458.75</ele><time>2026-04-25T12:47:17.53Z</time></trkpt><trkpt lat="43.2426461" lon="12.9583252"><ele>457.5</ele><time>2026-04-25T12:47:18.521Z</time></trkpt><trkpt lat="43.2427832" lon="12.9583844"><ele>456.25</ele><time>2026-04-25T12:47:20.516Z</time></trkpt><trkpt lat="43.242888" lon="12.9584578"><ele>455.0</ele><time>2026-04-25T12:47:21.521Z</time></trkpt><trkpt lat="43.2430055" lon="12.9585522"><ele>453.5</ele><time>2026-04-25T12:47:22.521Z</time></trkpt><trkpt lat="43.2431384" lon="12.9586453"><ele>452.0</ele><time>2026-04-25T12:47:23.523Z</time></trkpt><trkpt lat="43.2432674" lon="12.9587009"><ele>450.5</ele><time>2026-04-25T12:47:24.524Z</time></trkpt><trkpt lat="43.2434093" lon="12.9587312"><ele>449.0</ele><time>2026-04-25T12:47:25.517Z</time></trkpt><trkpt lat="43.2435492" lon="12.9588043"><ele>449.0</ele><time>2026-04-25T12:47:26.526Z</time></trkpt><trkpt lat="43.2437412" lon="12.9588756"><ele>449.0</ele><time>2026-04-25T12:47:27.521Z</time></trkpt><trkpt lat="43.2439151" lon="12.9589034"><ele>449.0</ele><time>2026-04-25T12:47:28.524Z</time></trkpt><trkpt lat="43.2440733" lon="12.9588785"><ele>447.0</ele><time>2026-04-25T12:47:29.516Z</time></trkpt><trkpt lat="43.2442478" lon="12.9588249"><ele>445.0</ele><time>2026-04-25T12:47:30.52Z</time></trkpt><trkpt lat="43.2444414" lon="12.9587599"><ele>443.0</ele><time>2026-04-25T12:47:31.514Z</time></trkpt><trkpt lat="43.244581" lon="12.9587116"><ele>443.0</ele><time>2026-04-25T12:47:32.515Z</time></trkpt><trkpt lat="43.2447421" lon="12.9587092"><ele>443.0</ele><time>2026-04-25T12:47:33.515Z</time></trkpt><trkpt lat="43.244888" lon="12.958768"><ele>443.0</ele><time>2026-04-25T12:47:35.512Z</time></trkpt><trkpt lat="43.2450052" lon="12.9588189"><ele>443.0</ele><time>2026-04-25T12:47:36.518Z</time></trkpt><trkpt lat="43.2451765" lon="12.9589113"><ele>441.0</ele><time>2026-04-25T12:47:37.523Z</time></trkpt><trkpt lat="43.2453199" lon="12.9590391"><ele>439.0</ele><time>2026-04-25T12:47:38.528Z</time></trkpt><trkpt lat="43.2454552" lon="12.9592057"><ele>437.0</ele><time>2026-04-25T12:47:39.524Z</time></trkpt><trkpt lat="43.2456099" lon="12.9593847"><ele>435.0</ele><time>2026-04-25T12:47:40.526Z</time></trkpt><trkpt lat="43.2457579" lon="12.9595771"><ele>433.0</ele><time>2026-04-25T12:47:41.525Z</time></trkpt><trkpt lat="43.2459115" lon="12.9597596"><ele>431.0</ele><time>2026-04-25T12:47:42.53Z</time></trkpt><trkpt lat="43.2461222" lon="12.9599553"><ele>431.0</ele><time>2026-04-25T12:47:43.522Z</time></trkpt><trkpt lat="43.2463226" lon="12.960148"><ele>431.0</ele><time>2026-04-25T12:47:44.52Z</time></trkpt><trkpt lat="43.2465416" lon="12.9603501"><ele>428.5</ele><time>2026-04-25T12:47:45.517Z</time></trkpt><trkpt lat="43.246753" lon="12.960551"><ele>426.0</ele><time>2026-04-25T12:47:46.518Z</time></trkpt><trkpt lat="43.2469614" lon="12.9607546"><ele>425.0</ele><time>2026-04-25T12:47:47.529Z</time></trkpt><trkpt lat="43.2471826" lon="12.9609613"><ele>424.0</ele><time>2026-04-25T12:47:48.527Z</time></trkpt><trkpt lat="43.2473935" lon="12.9611746"><ele>423.6666666666667</ele><time>2026-04-25T12:47:49.53Z</time></trkpt><trkpt lat="43.247585" lon="12.961365"><ele>423.33333333333337</ele><time>2026-04-25T12:47:50.529Z</time></trkpt><trkpt lat="43.2477519" lon="12.9615385"><ele>423.0</ele><time>2026-04-25T12:47:51.531Z</time></trkpt><trkpt lat="43.247947" lon="12.9617294"><ele>420.5</ele><time>2026-04-25T12:47:52.525Z</time></trkpt><trkpt lat="43.2481307" lon="12.96192"><ele>418.0</ele><time>2026-04-25T12:47:53.531Z</time></trkpt><trkpt lat="43.2483103" lon="12.9621033"><ele>418.0</ele><time>2026-04-25T12:47:54.522Z</time></trkpt><trkpt lat="43.2484956" lon="12.9622937"><ele>418.0</ele><time>2026-04-25T12:47:55.53Z</time></trkpt><trkpt lat="43.2486756" lon="12.9624824"><ele>418.0</ele><time>2026-04-25T12:47:56.52Z</time></trkpt><trkpt lat="43.2488369" lon="12.9626871"><ele>418.0</ele><time>2026-04-25T12:47:57.531Z</time></trkpt><trkpt lat="43.2489778" lon="12.962888"><ele>418.0</ele><time>2026-04-25T12:47:58.524Z</time></trkpt><trkpt lat="43.2491145" lon="12.9631077"><ele>417.5</ele><time>2026-04-25T12:47:59.531Z</time></trkpt><trkpt lat="43.2492791" lon="12.9633432"><ele>417.0</ele><time>2026-04-25T12:48:00.525Z</time></trkpt><trkpt lat="43.2494331" lon="12.9635935"><ele>416.0</ele><time>2026-04-25T12:48:01.533Z</time></trkpt><trkpt lat="43.2495714" lon="12.9638511"><ele>415.0</ele><time>2026-04-25T12:48:02.522Z</time></trkpt><trkpt lat="43.2496869" lon="12.9641166"><ele>414.33333333333337</ele><time>2026-04-25T12:48:03.524Z</time></trkpt><trkpt lat="43.2498192" lon="12.9643673"><ele>413.66666666666663</ele><time>2026-04-25T12:48:04.521Z</time></trkpt><trkpt lat="43.2499299" lon="12.9646235"><ele>413.0</ele><time>2026-04-25T12:48:05.528Z</time></trkpt><trkpt lat="43.2500283" lon="12.9648619"><ele>413.3333333333333</ele><time>2026-04-25T12:48:06.521Z</time></trkpt><trkpt lat="43.250107" lon="12.9650855"><ele>413.66666666666663</ele><time>2026-04-25T12:48:07.527Z</time></trkpt><trkpt lat="43.2501811" lon="12.9652984"><ele>414.0</ele><time>2026-04-25T12:48:08.52Z</time></trkpt><trkpt lat="43.2502494" lon="12.9655329"><ele>414.0</ele><time>2026-04-25T12:48:09.529Z</time></trkpt><trkpt lat="43.2503291" lon="12.9657937"><ele>414.0</ele><time>2026-04-25T12:48:10.527Z</time></trkpt><trkpt lat="43.250385" lon="12.9660206"><ele>414.0</ele><time>2026-04-25T12:48:11.53Z</time></trkpt><trkpt lat="43.2504452" lon="12.9662556"><ele>412.33333333333337</ele><time>2026-04-25T12:48:12.53Z</time></trkpt><trkpt lat="43.250491" lon="12.9664847"><ele>410.6666666666667</ele><time>2026-04-25T12:48:13.527Z</time></trkpt><trkpt lat="43.2505634" lon="12.9667145"><ele>409.0</ele><time>2026-04-25T12:48:14.521Z</time></trkpt><trkpt lat="43.2506154" lon="12.9669303"><ele>409.33333333333337</ele><time>2026-04-25T12:48:15.528Z</time></trkpt><trkpt lat="43.2506784" lon="12.96715"><ele>409.66666666666663</ele><time>2026-04-25T12:48:16.528Z</time></trkpt><trkpt lat="43.2507292" lon="12.9673557"><ele>410.0</ele><time>2026-04-25T12:48:17.528Z</time></trkpt><trkpt lat="43.250763" lon="12.9675408"><ele>410.5</ele><time>2026-04-25T12:48:18.531Z</time></trkpt><trkpt lat="43.250799" lon="12.9677264"><ele>411.0</ele><time>2026-04-25T12:48:19.53Z</time></trkpt><trkpt lat="43.2508296" lon="12.9679312"><ele>411.5</ele><time>2026-04-25T12:48:20.523Z</time></trkpt><trkpt lat="43.2508286" lon="12.9681031"><ele>412.0</ele><time>2026-04-25T12:48:21.534Z</time></trkpt><trkpt lat="43.2508159" lon="12.9683132"><ele>412.5</ele><time>2026-04-25T12:48:22.522Z</time></trkpt><trkpt lat="43.2507947" lon="12.968498"><ele>413.0</ele><time>2026-04-25T12:48:23.526Z</time></trkpt><trkpt lat="43.2507654" lon="12.9686873"><ele>413.5</ele><time>2026-04-25T12:48:24.526Z</time></trkpt><trkpt lat="43.2507254" lon="12.9688911"><ele>414.0</ele><time>2026-04-25T12:48:25.524Z</time></trkpt><trkpt lat="43.2506501" lon="12.9690677"><ele>412.0</ele><time>2026-04-25T12:48:26.523Z</time></trkpt><trkpt lat="43.2505679" lon="12.9692847"><ele>410.0</ele><time>2026-04-25T12:48:27.526Z</time></trkpt><trkpt lat="43.2504712" lon="12.9695026"><ele>408.0</ele><time>2026-04-25T12:48:28.52Z</time></trkpt><trkpt lat="43.2503848" lon="12.9697305"><ele>408.0</ele><time>2026-04-25T12:48:29.524Z</time></trkpt><trkpt lat="43.2502943" lon="12.9699524"><ele>408.0</ele><time>2026-04-25T12:48:30.515Z</time></trkpt><trkpt lat="43.2502087" lon="12.9701802"><ele>408.0</ele><time>2026-04-25T12:48:31.518Z</time></trkpt><trkpt lat="43.2501203" lon="12.9704096"><ele>408.0</ele><time>2026-04-25T12:48:32.516Z</time></trkpt><trkpt lat="43.2500387" lon="12.9706173"><ele>408.0</ele><time>2026-04-25T12:48:33.525Z</time></trkpt><trkpt lat="43.2499531" lon="12.9708467"><ele>408.0</ele><time>2026-04-25T12:48:34.521Z</time></trkpt><trkpt lat="43.2498818" lon="12.9710707"><ele>408.0</ele><time>2026-04-25T12:48:35.52Z</time></trkpt><trkpt lat="43.2497835" lon="12.9712987"><ele>408.0</ele><time>2026-04-25T12:48:36.522Z</time></trkpt><trkpt lat="43.2496846" lon="12.9715273"><ele>408.0</ele><time>2026-04-25T12:48:37.519Z</time></trkpt><trkpt lat="43.2495859" lon="12.9717427"><ele>408.0</ele><time>2026-04-25T12:48:38.517Z</time></trkpt><trkpt lat="43.249488" lon="12.9719837"><ele>408.0</ele><time>2026-04-25T12:48:39.529Z</time></trkpt><trkpt lat="43.2493878" lon="12.9722274"><ele>408.0</ele><time>2026-04-25T12:48:40.523Z</time></trkpt><trkpt lat="43.2492992" lon="12.9724754"><ele>408.0</ele><time>2026-04-25T12:48:41.522Z</time></trkpt><trkpt lat="43.2492153" lon="12.9727108"><ele>408.0</ele><time>2026-04-25T12:48:42.519Z</time></trkpt><trkpt lat="43.2491133" lon="12.9729268"><ele>408.0</ele><time>2026-04-25T12:48:43.52Z</time></trkpt><trkpt lat="43.2490128" lon="12.973144"><ele>404.66666666666663</ele><time>2026-04-25T12:48:44.525Z</time></trkpt><trkpt lat="43.2489502" lon="12.9733931"><ele>401.3333333333333</ele><time>2026-04-25T12:48:45.523Z</time></trkpt><trkpt lat="43.2488645" lon="12.9736313"><ele>398.0</ele><time>2026-04-25T12:48:46.524Z</time></trkpt><trkpt lat="43.2487613" lon="12.9738576"><ele>398.0</ele><time>2026-04-25T12:48:47.523Z</time></trkpt><trkpt lat="43.24867" lon="12.974073"><ele>398.0</ele><time>2026-04-25T12:48:48.521Z</time></trkpt><trkpt lat="43.2485989" lon="12.9743014"><ele>398.0</ele><time>2026-04-25T12:48:49.519Z</time></trkpt><trkpt lat="43.2485107" lon="12.9745097"><ele>398.0</ele><time>2026-04-25T12:48:50.522Z</time></trkpt><trkpt lat="43.24842" lon="12.974734"><ele>398.0</ele><time>2026-04-25T12:48:51.526Z</time></trkpt><trkpt lat="43.2483087" lon="12.9749768"><ele>398.0</ele><time>2026-04-25T12:48:52.516Z</time></trkpt><trkpt lat="43.2482238" lon="12.9752067"><ele>398.0</ele><time>2026-04-25T12:48:53.526Z</time></trkpt><trkpt lat="43.2481441" lon="12.9754455"><ele>398.0</ele><time>2026-04-25T12:48:54.523Z</time></trkpt><trkpt lat="43.2480621" lon="12.9756578"><ele>398.0</ele><time>2026-04-25T12:48:55.523Z</time></trkpt><trkpt lat="43.2479968" lon="12.9758546"><ele>397.66666666666663</ele><time>2026-04-25T12:48:56.525Z</time></trkpt><trkpt lat="43.2479436" lon="12.9760327"><ele>397.33333333333337</ele><time>2026-04-25T12:48:57.524Z</time></trkpt><trkpt lat="43.2478891" lon="12.9762122"><ele>397.0</ele><time>2026-04-25T12:48:58.529Z</time></trkpt><trkpt lat="43.2478147" lon="12.9764334"><ele>397.0</ele><time>2026-04-25T12:48:59.52Z</time></trkpt><trkpt lat="43.2477255" lon="12.9766301"><ele>397.0</ele><time>2026-04-25T12:49:00.521Z</time></trkpt><trkpt lat="43.2476986" lon="12.9768377"><ele>397.0</ele><time>2026-04-25T12:49:01.519Z</time></trkpt><trkpt lat="43.2476473" lon="12.9770017"><ele>396.5</ele><time>2026-04-25T12:49:02.516Z</time></trkpt><trkpt lat="43.2476508" lon="12.9771996"><ele>396.0</ele><time>2026-04-25T12:49:03.515Z</time></trkpt><trkpt lat="43.2476498" lon="12.9773607"><ele>395.5</ele><time>2026-04-25T12:49:04.527Z</time></trkpt><trkpt lat="43.2476548" lon="12.9775187"><ele>395.0</ele><time>2026-04-25T12:49:05.517Z</time></trkpt><trkpt lat="43.2476504" lon="12.9776987"><ele>393.75</ele><time>2026-04-25T12:49:06.526Z</time></trkpt><trkpt lat="43.2476486" lon="12.9778965"><ele>392.5</ele><time>2026-04-25T12:49:07.518Z</time></trkpt><trkpt lat="43.2476519" lon="12.9780761"><ele>391.25</ele><time>2026-04-25T12:49:08.526Z</time></trkpt><trkpt lat="43.247654" lon="12.9782661"><ele>390.0</ele><time>2026-04-25T12:49:09.517Z</time></trkpt><trkpt lat="43.2476564" lon="12.9784751"><ele>387.6666666666667</ele><time>2026-04-25T12:49:10.525Z</time></trkpt><trkpt lat="43.2476594" lon="12.9786804"><ele>385.33333333333337</ele><time>2026-04-25T12:49:11.521Z</time></trkpt><trkpt lat="43.2476647" lon="12.9788969"><ele>383.0</ele><time>2026-04-25T12:49:12.522Z</time></trkpt><trkpt lat="43.2476646" lon="12.9791124"><ele>382.6666666666667</ele><time>2026-04-25T12:49:13.519Z</time></trkpt><trkpt lat="43.2476704" lon="12.9793318"><ele>382.3333333333333</ele><time>2026-04-25T12:49:14.522Z</time></trkpt><trkpt lat="43.2476574" lon="12.9795567"><ele>382.0</ele><time>2026-04-25T12:49:15.524Z</time></trkpt><trkpt lat="43.2476598" lon="12.9797855"><ele>382.0</ele><time>2026-04-25T12:49:16.518Z</time></trkpt><trkpt lat="43.2476461" lon="12.9799858"><ele>382.0</ele><time>2026-04-25T12:49:17.52Z</time></trkpt><trkpt lat="43.2476243" lon="12.9801655"><ele>382.0</ele><time>2026-04-25T12:49:18.513Z</time></trkpt><trkpt lat="43.2476332" lon="12.9803788"><ele>382.0</ele><time>2026-04-25T12:49:19.518Z</time></trkpt><trkpt lat="43.2476374" lon="12.9805793"><ele>383.0</ele><time>2026-04-25T12:49:20.514Z</time></trkpt><trkpt lat="43.2476129" lon="12.9807846"><ele>384.0</ele><time>2026-04-25T12:49:21.526Z</time></trkpt><trkpt lat="43.2474677" lon="12.9809886"><ele>385.0</ele><time>2026-04-25T12:49:22.512Z</time></trkpt><trkpt lat="43.24739" lon="12.981153"><ele>385.25</ele><time>2026-04-25T12:49:23.522Z</time></trkpt><trkpt lat="43.2473142" lon="12.9813229"><ele>385.5</ele><time>2026-04-25T12:49:24.518Z</time></trkpt><trkpt lat="43.2472933" lon="12.981534"><ele>385.75</ele><time>2026-04-25T12:49:25.515Z</time></trkpt><trkpt lat="43.2472569" lon="12.9817061"><ele>386.0</ele><time>2026-04-25T12:49:26.518Z</time></trkpt><trkpt lat="43.2472523" lon="12.9818932"><ele>384.3333333333333</ele><time>2026-04-25T12:49:27.52Z</time></trkpt><trkpt lat="43.2472386" lon="12.9820875"><ele>382.66666666666663</ele><time>2026-04-25T12:49:28.53Z</time></trkpt><trkpt lat="43.2472664" lon="12.9823079"><ele>381.0</ele><time>2026-04-25T12:49:29.513Z</time></trkpt><trkpt lat="43.247362" lon="12.9825701"><ele>381.0</ele><time>2026-04-25T12:49:30.521Z</time></trkpt><trkpt lat="43.2473892" lon="12.9828074"><ele>381.0</ele><time>2026-04-25T12:49:31.512Z</time></trkpt><trkpt lat="43.2473876" lon="12.9830409"><ele>381.0</ele><time>2026-04-25T12:49:32.513Z</time></trkpt><trkpt lat="43.2473381" lon="12.9832804"><ele>381.3333333333333</ele><time>2026-04-25T12:49:33.511Z</time></trkpt><trkpt lat="43.2472947" lon="12.9835224"><ele>381.66666666666663</ele><time>2026-04-25T12:49:34.522Z</time></trkpt><trkpt lat="43.2472529" lon="12.9837545"><ele>382.0</ele><time>2026-04-25T12:49:35.509Z</time></trkpt><trkpt lat="43.2471941" lon="12.983966"><ele>380.3333333333333</ele><time>2026-04-25T12:49:36.515Z</time></trkpt><trkpt lat="43.2471248" lon="12.9841792"><ele>378.6666666666667</ele><time>2026-04-25T12:49:37.515Z</time></trkpt><trkpt lat="43.2470449" lon="12.9844167"><ele>377.0</ele><time>2026-04-25T12:49:38.529Z</time></trkpt><trkpt lat="43.2469253" lon="12.9846276"><ele>377.0</ele><time>2026-04-25T12:49:39.519Z</time></trkpt><trkpt lat="43.2467937" lon="12.9848237"><ele>377.0</ele><time>2026-04-25T12:49:40.522Z</time></trkpt><trkpt lat="43.2467117" lon="12.9850536"><ele>377.0</ele><time>2026-04-25T12:49:41.511Z</time></trkpt><trkpt lat="43.246652" lon="12.9852673"><ele>376.6666666666667</ele><time>2026-04-25T12:49:42.52Z</time></trkpt><trkpt lat="43.246618" lon="12.9854735"><ele>376.3333333333333</ele><time>2026-04-25T12:49:43.512Z</time></trkpt><trkpt lat="43.2466159" lon="12.9857022"><ele>376.0</ele><time>2026-04-25T12:49:44.517Z</time></trkpt><trkpt lat="43.2466207" lon="12.9859092"><ele>375.0</ele><time>2026-04-25T12:49:45.516Z</time></trkpt><trkpt lat="43.2466265" lon="12.9861057"><ele>374.0</ele><time>2026-04-25T12:49:46.518Z</time></trkpt><trkpt lat="43.2466439" lon="12.9863241"><ele>373.0</ele><time>2026-04-25T12:49:47.509Z</time></trkpt><trkpt lat="43.2466558" lon="12.9865524"><ele>373.66666666666663</ele><time>2026-04-25T12:49:48.515Z</time></trkpt><trkpt lat="43.2466489" lon="12.9867974"><ele>374.3333333333333</ele><time>2026-04-25T12:49:49.51Z</time></trkpt><trkpt lat="43.2466476" lon="12.9870351"><ele>375.0</ele><time>2026-04-25T12:49:50.512Z</time></trkpt><trkpt lat="43.2466596" lon="12.9872854"><ele>376.3333333333333</ele><time>2026-04-25T12:49:51.52Z</time></trkpt><trkpt lat="43.2466846" lon="12.9875344"><ele>377.66666666666663</ele><time>2026-04-25T12:49:52.51Z</time></trkpt><trkpt lat="43.2467024" lon="12.987788"><ele>379.0</ele><time>2026-04-25T12:49:53.513Z</time></trkpt><trkpt lat="43.2467124" lon="12.9879887"><ele>379.0</ele><time>2026-04-25T12:49:54.516Z</time></trkpt><trkpt lat="43.246718" lon="12.98819"><ele>379.0</ele><time>2026-04-25T12:49:55.514Z</time></trkpt><trkpt lat="43.2467166" lon="12.9883776"><ele>379.0</ele><time>2026-04-25T12:49:56.509Z</time></trkpt><trkpt lat="43.2466972" lon="12.9885671"><ele>379.0</ele><time>2026-04-25T12:49:57.512Z</time></trkpt><trkpt lat="43.2466699" lon="12.9887173"><ele>379.0</ele><time>2026-04-25T12:49:58.512Z</time></trkpt><trkpt lat="43.2465588" lon="12.9888238"><ele>379.0</ele><time>2026-04-25T12:49:59.514Z</time></trkpt><trkpt lat="43.2463925" lon="12.9889202"><ele>379.0</ele><time>2026-04-25T12:50:00.512Z</time></trkpt><trkpt lat="43.2462606" lon="12.9890133"><ele>379.75</ele><time>2026-04-25T12:50:01.502Z</time></trkpt><trkpt lat="43.2461746" lon="12.9891286"><ele>380.5</ele><time>2026-04-25T12:50:02.503Z</time></trkpt><trkpt lat="43.2460615" lon="12.9892063"><ele>381.25</ele><time>2026-04-25T12:50:03.509Z</time></trkpt><trkpt lat="43.2459059" lon="12.9893088"><ele>382.0</ele><time>2026-04-25T12:50:04.512Z</time></trkpt><trkpt lat="43.2457481" lon="12.9894079"><ele>382.5</ele><time>2026-04-25T12:50:05.51Z</time></trkpt><trkpt lat="43.2455889" lon="12.9895042"><ele>383.0</ele><time>2026-04-25T12:50:06.509Z</time></trkpt><trkpt lat="43.2454569" lon="12.9895825"><ele>383.5</ele><time>2026-04-25T12:50:07.509Z</time></trkpt><trkpt lat="43.2453541" lon="12.9896581"><ele>384.0</ele><time>2026-04-25T12:50:08.514Z</time></trkpt><trkpt lat="43.2452539" lon="12.9896834"><ele>384.0</ele><time>2026-04-25T12:50:09.522Z</time></trkpt><trkpt lat="43.245121" lon="12.9896719"><ele>384.0</ele><time>2026-04-25T12:50:11.522Z</time></trkpt><trkpt lat="43.2450368" lon="12.9896723"><ele>384.0</ele><time>2026-04-25T12:50:12.514Z</time></trkpt><trkpt lat="43.2449719" lon="12.9897071"><ele>384.0</ele><time>2026-04-25T12:50:13.52Z</time></trkpt><trkpt lat="43.2448974" lon="12.9897807"><ele>384.0</ele><time>2026-04-25T12:50:14.515Z</time></trkpt><trkpt lat="43.2448016" lon="12.9899024"><ele>383.25</ele><time>2026-04-25T12:50:15.512Z</time></trkpt><trkpt lat="43.2447322" lon="12.9900221"><ele>382.5</ele><time>2026-04-25T12:50:16.515Z</time></trkpt><trkpt lat="43.2446799" lon="12.9901446"><ele>381.75</ele><time>2026-04-25T12:50:17.513Z</time></trkpt><trkpt lat="43.2446222" lon="12.9902747"><ele>381.0</ele><time>2026-04-25T12:50:18.519Z</time></trkpt><trkpt lat="43.2445221" lon="12.9903832"><ele>381.0</ele><time>2026-04-25T12:50:19.512Z</time></trkpt><trkpt lat="43.2443964" lon="12.9904744"><ele>381.0</ele><time>2026-04-25T12:50:20.521Z</time></trkpt><trkpt lat="43.2442606" lon="12.9905755"><ele>381.0</ele><time>2026-04-25T12:50:21.52Z</time></trkpt><trkpt lat="43.2441106" lon="12.9907061"><ele>381.0</ele><time>2026-04-25T12:50:22.522Z</time></trkpt><trkpt lat="43.2439679" lon="12.9908383"><ele>381.0</ele><time>2026-04-25T12:50:23.516Z</time></trkpt><trkpt lat="43.2438617" lon="12.9909659"><ele>381.0</ele><time>2026-04-25T12:50:24.515Z</time></trkpt><trkpt lat="43.2437118" lon="12.9910704"><ele>381.6666666666667</ele><time>2026-04-25T12:50:25.518Z</time></trkpt><trkpt lat="43.2434908" lon="12.991162"><ele>382.33333333333337</ele><time>2026-04-25T12:50:26.511Z</time></trkpt><trkpt lat="43.2433104" lon="12.9912772"><ele>383.0</ele><time>2026-04-25T12:50:27.518Z</time></trkpt><trkpt lat="43.2431361" lon="12.9913928"><ele>384.0</ele><time>2026-04-25T12:50:28.515Z</time></trkpt><trkpt lat="43.242967" lon="12.9915417"><ele>385.0</ele><time>2026-04-25T12:50:29.523Z</time></trkpt><trkpt lat="43.2428164" lon="12.9916528"><ele>386.0</ele><time>2026-04-25T12:50:30.519Z</time></trkpt><trkpt lat="43.2426707" lon="12.9917587"><ele>386.0</ele><time>2026-04-25T12:50:31.518Z</time></trkpt><trkpt lat="43.2425164" lon="12.9918851"><ele>386.0</ele><time>2026-04-25T12:50:32.518Z</time></trkpt><trkpt lat="43.2423531" lon="12.9920314"><ele>386.0</ele><time>2026-04-25T12:50:33.519Z</time></trkpt><trkpt lat="43.2422061" lon="12.9921461"><ele>386.0</ele><time>2026-04-25T12:50:34.518Z</time></trkpt><trkpt lat="43.2420566" lon="12.9922654"><ele>386.0</ele><time>2026-04-25T12:50:35.519Z</time></trkpt><trkpt lat="43.2419147" lon="12.9923908"><ele>386.0</ele><time>2026-04-25T12:50:36.516Z</time></trkpt><trkpt lat="43.2417771" lon="12.9925254"><ele>387.0</ele><time>2026-04-25T12:50:37.523Z</time></trkpt><trkpt lat="43.2416831" lon="12.9926674"><ele>388.0</ele><time>2026-04-25T12:50:38.52Z</time></trkpt><trkpt lat="43.2415984" lon="12.9928078"><ele>389.0</ele><time>2026-04-25T12:50:39.524Z</time></trkpt><trkpt lat="43.2415439" lon="12.9929465"><ele>390.0</ele><time>2026-04-25T12:50:40.513Z</time></trkpt><trkpt lat="43.2415207" lon="12.9930885"><ele>390.0</ele><time>2026-04-25T12:50:41.518Z</time></trkpt><trkpt lat="43.241514" lon="12.9932425"><ele>390.0</ele><time>2026-04-25T12:50:42.513Z</time></trkpt><trkpt lat="43.2415555" lon="12.9933538"><ele>390.0</ele><time>2026-04-25T12:50:43.517Z</time></trkpt><trkpt lat="43.2416812" lon="12.9934266"><ele>390.0</ele><time>2026-04-25T12:50:44.519Z</time></trkpt><trkpt lat="43.2417603" lon="12.9934917"><ele>390.0</ele><time>2026-04-25T12:50:45.52Z</time></trkpt><trkpt lat="43.2418623" lon="12.9935524"><ele>392.66666666666663</ele><time>2026-04-25T12:50:46.519Z</time></trkpt><trkpt lat="43.2419851" lon="12.9936547"><ele>395.3333333333333</ele><time>2026-04-25T12:50:47.514Z</time></trkpt><trkpt lat="43.242125" lon="12.9937501"><ele>398.0</ele><time>2026-04-25T12:50:48.518Z</time></trkpt><trkpt lat="43.2422532" lon="12.9938569"><ele>393.3333333333333</ele><time>2026-04-25T12:50:49.51Z</time></trkpt><trkpt lat="43.2423851" lon="12.9939773"><ele>388.66666666666663</ele><time>2026-04-25T12:50:50.509Z</time></trkpt><trkpt lat="43.2425337" lon="12.9941664"><ele>384.0</ele><time>2026-04-25T12:50:51.515Z</time></trkpt><trkpt lat="43.242675" lon="12.994399"><ele>384.0</ele><time>2026-04-25T12:50:52.505Z</time></trkpt><trkpt lat="43.2428158" lon="12.9946367"><ele>384.0</ele><time>2026-04-25T12:50:53.521Z</time></trkpt><trkpt lat="43.2429411" lon="12.994876"><ele>384.0</ele><time>2026-04-25T12:50:54.514Z</time></trkpt><trkpt lat="43.2430723" lon="12.9951182"><ele>381.0</ele><time>2026-04-25T12:50:55.52Z</time></trkpt><trkpt lat="43.2432028" lon="12.9953951"><ele>378.0</ele><time>2026-04-25T12:50:56.516Z</time></trkpt><trkpt lat="43.2433083" lon="12.9956649"><ele>377.6666666666667</ele><time>2026-04-25T12:50:57.521Z</time></trkpt><trkpt lat="43.2434005" lon="12.995922"><ele>377.33333333333337</ele><time>2026-04-25T12:50:58.516Z</time></trkpt><trkpt lat="43.2434972" lon="12.9961523"><ele>377.0</ele><time>2026-04-25T12:50:59.517Z</time></trkpt><trkpt lat="43.2436003" lon="12.9963875"><ele>377.0</ele><time>2026-04-25T12:51:00.521Z</time></trkpt><trkpt lat="43.243686" lon="12.9966172"><ele>377.0</ele><time>2026-04-25T12:51:01.522Z</time></trkpt><trkpt lat="43.2437839" lon="12.9968244"><ele>377.0</ele><time>2026-04-25T12:51:02.517Z</time></trkpt><trkpt lat="43.2438711" lon="12.9970233"><ele>376.33333333333337</ele><time>2026-04-25T12:51:03.518Z</time></trkpt><trkpt lat="43.2439516" lon="12.997245"><ele>375.6666666666667</ele><time>2026-04-25T12:51:04.518Z</time></trkpt><trkpt lat="43.2440203" lon="12.9974341"><ele>375.0</ele><time>2026-04-25T12:51:05.516Z</time></trkpt><trkpt lat="43.2441059" lon="12.9976144"><ele>374.5</ele><time>2026-04-25T12:51:06.521Z</time></trkpt><trkpt lat="43.2441962" lon="12.9977944"><ele>374.0</ele><time>2026-04-25T12:51:07.524Z</time></trkpt><trkpt lat="43.2442624" lon="12.9979461"><ele>373.5</ele><time>2026-04-25T12:51:08.512Z</time></trkpt><trkpt lat="43.2443335" lon="12.9981211"><ele>373.0</ele><time>2026-04-25T12:51:09.509Z</time></trkpt><trkpt lat="43.244408" lon="12.9983035"><ele>372.75</ele><time>2026-04-25T12:51:10.512Z</time></trkpt><trkpt lat="43.2444941" lon="12.9984914"><ele>372.5</ele><time>2026-04-25T12:51:11.519Z</time></trkpt><trkpt lat="43.2445558" lon="12.9986444"><ele>372.25</ele><time>2026-04-25T12:51:12.52Z</time></trkpt><trkpt lat="43.2446218" lon="12.9987876"><ele>372.0</ele><time>2026-04-25T12:51:13.526Z</time></trkpt><trkpt lat="43.2446715" lon="12.9989159"><ele>372.0</ele><time>2026-04-25T12:51:14.525Z</time></trkpt><trkpt lat="43.2447543" lon="12.9990492"><ele>372.0</ele><time>2026-04-25T12:51:15.528Z</time></trkpt><trkpt lat="43.2447823" lon="12.99914"><ele>372.0</ele><time>2026-04-25T12:51:16.521Z</time></trkpt><trkpt lat="43.2448301" lon="12.9993125"><ele>372.0</ele><time>2026-04-25T12:51:18.52Z</time></trkpt><trkpt lat="43.2448371" lon="12.9994439"><ele>372.0</ele><time>2026-04-25T12:51:24.507Z</time></trkpt><trkpt lat="43.2448711" lon="12.999567"><ele>372.25</ele><time>2026-04-25T12:51:26.512Z</time></trkpt><trkpt lat="43.2449446" lon="12.9996545"><ele>372.5</ele><time>2026-04-25T12:51:27.513Z</time></trkpt><trkpt lat="43.2450279" lon="12.999747"><ele>372.75</ele><time>2026-04-25T12:51:28.505Z</time></trkpt><trkpt lat="43.2450975" lon="12.9998789"><ele>373.0</ele><time>2026-04-25T12:51:29.518Z</time></trkpt><trkpt lat="43.2451693" lon="13.0000344"><ele>373.0</ele><time>2026-04-25T12:51:30.511Z</time></trkpt><trkpt lat="43.245238" lon="13.0002039"><ele>373.0</ele><time>2026-04-25T12:51:31.516Z</time></trkpt><trkpt lat="43.2453278" lon="13.0003763"><ele>373.0</ele><time>2026-04-25T12:51:32.516Z</time></trkpt><trkpt lat="43.2453785" lon="13.0005282"><ele>373.0</ele><time>2026-04-25T12:51:33.508Z</time></trkpt><trkpt lat="43.2454691" lon="13.0007418"><ele>372.66666666666663</ele><time>2026-04-25T12:51:34.516Z</time></trkpt><trkpt lat="43.2455558" lon="13.0009487"><ele>372.3333333333333</ele><time>2026-04-25T12:51:35.519Z</time></trkpt><trkpt lat="43.2456467" lon="13.0011569"><ele>372.0</ele><time>2026-04-25T12:51:36.515Z</time></trkpt><trkpt lat="43.2457429" lon="13.0013636"><ele>371.6666666666667</ele><time>2026-04-25T12:51:37.519Z</time></trkpt><trkpt lat="43.2458462" lon="13.0015973"><ele>371.33333333333337</ele><time>2026-04-25T12:51:38.516Z</time></trkpt><trkpt lat="43.2459495" lon="13.0018164"><ele>371.0</ele><time>2026-04-25T12:51:39.522Z</time></trkpt><trkpt lat="43.2460616" lon="13.0020167"><ele>370.6666666666667</ele><time>2026-04-25T12:51:40.513Z</time></trkpt><trkpt lat="43.2461597" lon="13.0022012"><ele>370.3333333333333</ele><time>2026-04-25T12:51:41.519Z</time></trkpt><trkpt lat="43.2462323" lon="13.0024009"><ele>370.0</ele><time>2026-04-25T12:51:42.515Z</time></trkpt><trkpt lat="43.2463152" lon="13.0025859"><ele>370.0</ele><time>2026-04-25T12:51:43.518Z</time></trkpt><trkpt lat="43.2464081" lon="13.0028015"><ele>370.0</ele><time>2026-04-25T12:51:44.515Z</time></trkpt><trkpt lat="43.246501" lon="13.0030076"><ele>370.0</ele><time>2026-04-25T12:51:45.522Z</time></trkpt><trkpt lat="43.246599" lon="13.0032245"><ele>369.66666666666663</ele><time>2026-04-25T12:51:46.518Z</time></trkpt><trkpt lat="43.2466876" lon="13.0034048"><ele>369.3333333333333</ele><time>2026-04-25T12:51:47.52Z</time></trkpt><trkpt lat="43.2467796" lon="13.0035915"><ele>369.0</ele><time>2026-04-25T12:51:48.519Z</time></trkpt><trkpt lat="43.2468489" lon="13.0037664"><ele>369.0</ele><time>2026-04-25T12:51:49.522Z</time></trkpt><trkpt lat="43.2469253" lon="13.0039586"><ele>369.0</ele><time>2026-04-25T12:51:50.52Z</time></trkpt><trkpt lat="43.247002" lon="13.0041443"><ele>369.0</ele><time>2026-04-25T12:51:51.522Z</time></trkpt><trkpt lat="43.2470889" lon="13.0043138"><ele>368.6</ele><time>2026-04-25T12:51:52.52Z</time></trkpt><trkpt lat="43.2471576" lon="13.0044537"><ele>368.2</ele><time>2026-04-25T12:51:53.52Z</time></trkpt><trkpt lat="43.2472095" lon="13.0045783"><ele>367.8</ele><time>2026-04-25T12:51:54.519Z</time></trkpt><trkpt lat="43.2472602" lon="13.0046594"><ele>367.40000000000003</ele><time>2026-04-25T12:51:55.523Z</time></trkpt><trkpt lat="43.2472606" lon="13.004773"><ele>367.0</ele><time>2026-04-25T12:51:56.516Z</time></trkpt><trkpt lat="43.2472741" lon="13.004912"><ele>366.75</ele><time>2026-04-25T12:51:57.521Z</time></trkpt><trkpt lat="43.2472659" lon="13.005074"><ele>366.5</ele><time>2026-04-25T12:51:58.515Z</time></trkpt><trkpt lat="43.2472514" lon="13.0052396"><ele>366.25</ele><time>2026-04-25T12:51:59.521Z</time></trkpt><trkpt lat="43.247239" lon="13.0054374"><ele>366.0</ele><time>2026-04-25T12:52:00.516Z</time></trkpt><trkpt lat="43.2472524" lon="13.0056607"><ele>365.3333333333333</ele><time>2026-04-25T12:52:01.52Z</time></trkpt><trkpt lat="43.2472538" lon="13.0058809"><ele>364.66666666666663</ele><time>2026-04-25T12:52:02.517Z</time></trkpt><trkpt lat="43.2472415" lon="13.0061054"><ele>364.0</ele><time>2026-04-25T12:52:03.512Z</time></trkpt><trkpt lat="43.2472018" lon="13.0063431"><ele>364.0</ele><time>2026-04-25T12:52:04.516Z</time></trkpt><trkpt lat="43.2471568" lon="13.0065766"><ele>364.0</ele><time>2026-04-25T12:52:05.511Z</time></trkpt><trkpt lat="43.2471688" lon="13.006806"><ele>364.0</ele><time>2026-04-25T12:52:06.519Z</time></trkpt><trkpt lat="43.247189" lon="13.0069816"><ele>364.3333333333333</ele><time>2026-04-25T12:52:07.506Z</time></trkpt><trkpt lat="43.2472074" lon="13.0071812"><ele>364.6666666666667</ele><time>2026-04-25T12:52:08.516Z</time></trkpt><trkpt lat="43.2472459" lon="13.0073745"><ele>365.0</ele><time>2026-04-25T12:52:09.513Z</time></trkpt><trkpt lat="43.2472903" lon="13.0075848"><ele>364.6666666666667</ele><time>2026-04-25T12:52:10.519Z</time></trkpt><trkpt lat="43.2473399" lon="13.0077895"><ele>364.3333333333333</ele><time>2026-04-25T12:52:11.515Z</time></trkpt><trkpt lat="43.2473933" lon="13.0079813"><ele>364.0</ele><time>2026-04-25T12:52:12.515Z</time></trkpt><trkpt lat="43.2474392" lon="13.0081704"><ele>364.0</ele><time>2026-04-25T12:52:13.514Z</time></trkpt><trkpt lat="43.2474787" lon="13.0083675"><ele>364.0</ele><time>2026-04-25T12:52:14.516Z</time></trkpt><trkpt lat="43.2475323" lon="13.0085687"><ele>364.0</ele><time>2026-04-25T12:52:15.517Z</time></trkpt><trkpt lat="43.247589" lon="13.008785"><ele>364.0</ele><time>2026-04-25T12:52:16.508Z</time></trkpt><trkpt lat="43.247647" lon="13.0089897"><ele>364.0</ele><time>2026-04-25T12:52:17.514Z</time></trkpt><trkpt lat="43.2477021" lon="13.009181"><ele>364.0</ele><time>2026-04-25T12:52:18.511Z</time></trkpt><trkpt lat="43.2477409" lon="13.0093656"><ele>364.0</ele><time>2026-04-25T12:52:19.512Z</time></trkpt><trkpt lat="43.2477886" lon="13.0095541"><ele>364.0</ele><time>2026-04-25T12:52:20.51Z</time></trkpt><trkpt lat="43.2478595" lon="13.0097531"><ele>364.0</ele><time>2026-04-25T12:52:21.518Z</time></trkpt><trkpt lat="43.2479276" lon="13.0099274"><ele>364.4</ele><time>2026-04-25T12:52:22.521Z</time></trkpt><trkpt lat="43.2479752" lon="13.0100744"><ele>364.79999999999995</ele><time>2026-04-25T12:52:23.519Z</time></trkpt><trkpt lat="43.2480227" lon="13.0101958"><ele>365.20000000000005</ele><time>2026-04-25T12:52:24.519Z</time></trkpt><trkpt lat="43.2480706" lon="13.0102896"><ele>365.6</ele><time>2026-04-25T12:52:25.507Z</time></trkpt><trkpt lat="43.248095" lon="13.0104253"><ele>366.0</ele><time>2026-04-25T12:52:27.514Z</time></trkpt><trkpt lat="43.2481378" lon="13.01056"><ele>364.75</ele><time>2026-04-25T12:52:29.515Z</time></trkpt><trkpt lat="43.2482401" lon="13.0105642"><ele>363.5</ele><time>2026-04-25T12:52:31.509Z</time></trkpt><trkpt lat="43.2483215" lon="13.0105269"><ele>362.25</ele><time>2026-04-25T12:52:32.516Z</time></trkpt><trkpt lat="43.2484378" lon="13.010479"><ele>361.0</ele><time>2026-04-25T12:52:33.517Z</time></trkpt><trkpt lat="43.2485807" lon="13.0104245"><ele>361.0</ele><time>2026-04-25T12:52:34.524Z</time></trkpt><trkpt lat="43.2487102" lon="13.0103405"><ele>361.0</ele><time>2026-04-25T12:52:35.515Z</time></trkpt><trkpt lat="43.2488485" lon="13.0102645"><ele>361.0</ele><time>2026-04-25T12:52:36.516Z</time></trkpt><trkpt lat="43.2490095" lon="13.0101864"><ele>361.0</ele><time>2026-04-25T12:52:37.513Z</time></trkpt><trkpt lat="43.2491753" lon="13.0101141"><ele>361.0</ele><time>2026-04-25T12:52:38.517Z</time></trkpt><trkpt lat="43.2493447" lon="13.0100399"><ele>361.0</ele><time>2026-04-25T12:52:39.514Z</time></trkpt><trkpt lat="43.2495154" lon="13.0099509"><ele>361.0</ele><time>2026-04-25T12:52:40.52Z</time></trkpt><trkpt lat="43.2496675" lon="13.0098664"><ele>361.0</ele><time>2026-04-25T12:52:41.514Z</time></trkpt><trkpt lat="43.2497832" lon="13.0098123"><ele>361.0</ele><time>2026-04-25T12:52:42.521Z</time></trkpt><trkpt lat="43.2499093" lon="13.0097622"><ele>361.0</ele><time>2026-04-25T12:52:43.516Z</time></trkpt><trkpt lat="43.250044" lon="13.0097126"><ele>361.0</ele><time>2026-04-25T12:52:44.518Z</time></trkpt><trkpt lat="43.2501823" lon="13.0096592"><ele>361.0</ele><time>2026-04-25T12:52:45.512Z</time></trkpt><trkpt lat="43.2502776" lon="13.0096152"><ele>361.0</ele><time>2026-04-25T12:52:46.517Z</time></trkpt><trkpt lat="43.2503426" lon="13.0095633"><ele>361.0</ele><time>2026-04-25T12:52:47.517Z</time></trkpt><trkpt lat="43.2504541" lon="13.009493"><ele>361.0</ele><time>2026-04-25T12:52:48.517Z</time></trkpt><trkpt lat="43.2505546" lon="13.0094071"><ele>360.75</ele><time>2026-04-25T12:52:49.519Z</time></trkpt><trkpt lat="43.2506881" lon="13.0093595"><ele>360.5</ele><time>2026-04-25T12:52:50.514Z</time></trkpt><trkpt lat="43.2508122" lon="13.0093073"><ele>360.25</ele><time>2026-04-25T12:52:51.522Z</time></trkpt><trkpt lat="43.2509169" lon="13.0092666"><ele>360.0</ele><time>2026-04-25T12:52:52.518Z</time></trkpt><trkpt lat="43.2510245" lon="13.0092436"><ele>360.0</ele><time>2026-04-25T12:52:53.526Z</time></trkpt><trkpt lat="43.2511379" lon="13.0092188"><ele>360.0</ele><time>2026-04-25T12:52:54.514Z</time></trkpt><trkpt lat="43.2512479" lon="13.0092267"><ele>360.0</ele><time>2026-04-25T12:52:55.517Z</time></trkpt><trkpt lat="43.2513649" lon="13.0092308"><ele>360.0</ele><time>2026-04-25T12:52:56.514Z</time></trkpt><trkpt lat="43.2514939" lon="13.0092499"><ele>359.5</ele><time>2026-04-25T12:52:57.517Z</time></trkpt><trkpt lat="43.251623" lon="13.009271"><ele>359.0</ele><time>2026-04-25T12:52:58.516Z</time></trkpt><trkpt lat="43.2517351" lon="13.009257"><ele>358.5</ele><time>2026-04-25T12:52:59.527Z</time></trkpt><trkpt lat="43.2518745" lon="13.0092628"><ele>358.0</ele><time>2026-04-25T12:53:00.524Z</time></trkpt><trkpt lat="43.2520004" lon="13.0092657"><ele>358.0</ele><time>2026-04-25T12:53:01.53Z</time></trkpt><trkpt lat="43.2521363" lon="13.0092691"><ele>358.0</ele><time>2026-04-25T12:53:02.517Z</time></trkpt><trkpt lat="43.2522681" lon="13.0092632"><ele>358.0</ele><time>2026-04-25T12:53:03.525Z</time></trkpt><trkpt lat="43.2523876" lon="13.0093"><ele>358.0</ele><time>2026-04-25T12:53:04.518Z</time></trkpt><trkpt lat="43.2525267" lon="13.0093063"><ele>357.5</ele><time>2026-04-25T12:53:05.52Z</time></trkpt><trkpt lat="43.2526691" lon="13.0093146"><ele>357.0</ele><time>2026-04-25T12:53:06.515Z</time></trkpt><trkpt lat="43.2527711" lon="13.009345"><ele>356.5</ele><time>2026-04-25T12:53:07.516Z</time></trkpt><trkpt lat="43.2529059" lon="13.0093571"><ele>356.0</ele><time>2026-04-25T12:53:08.517Z</time></trkpt><trkpt lat="43.2530314" lon="13.0093833"><ele>355.5</ele><time>2026-04-25T12:53:09.506Z</time></trkpt><trkpt lat="43.253126" lon="13.0094053"><ele>355.0</ele><time>2026-04-25T12:53:10.514Z</time></trkpt><trkpt lat="43.2532169" lon="13.0094164"><ele>354.5</ele><time>2026-04-25T12:53:11.51Z</time></trkpt><trkpt lat="43.253281" lon="13.009441"><ele>354.0</ele><time>2026-04-25T12:53:12.511Z</time></trkpt><trkpt lat="43.2533508" lon="13.0094735"><ele>353.5</ele><time>2026-04-25T12:53:13.515Z</time></trkpt><trkpt lat="43.2534132" lon="13.0095054"><ele>353.0</ele><time>2026-04-25T12:53:14.519Z</time></trkpt><trkpt lat="43.2534869" lon="13.0095327"><ele>353.0</ele><time>2026-04-25T12:53:15.512Z</time></trkpt><trkpt lat="43.2535855" lon="13.0095793"><ele>353.0</ele><time>2026-04-25T12:53:17.513Z</time></trkpt><trkpt lat="43.2536587" lon="13.0096238"><ele>353.0</ele><time>2026-04-25T12:53:19.511Z</time></trkpt><trkpt lat="43.2537398" lon="13.0096631"><ele>353.0</ele><time>2026-04-25T12:53:23.507Z</time></trkpt><trkpt lat="43.2538399" lon="13.0097628"><ele>353.0</ele><time>2026-04-25T12:53:25.516Z</time></trkpt><trkpt lat="43.2539247" lon="13.0097974"><ele>353.25</ele><time>2026-04-25T12:53:26.508Z</time></trkpt><trkpt lat="43.2540468" lon="13.0098323"><ele>353.5</ele><time>2026-04-25T12:53:27.519Z</time></trkpt><trkpt lat="43.2541925" lon="13.0098259"><ele>353.75</ele><time>2026-04-25T12:53:28.514Z</time></trkpt><trkpt lat="43.2543686" lon="13.0098089"><ele>354.0</ele><time>2026-04-25T12:53:29.518Z</time></trkpt><trkpt lat="43.2545684" lon="13.00977"><ele>354.0</ele><time>2026-04-25T12:53:30.514Z</time></trkpt><trkpt lat="43.2547667" lon="13.009735"><ele>354.0</ele><time>2026-04-25T12:53:31.517Z</time></trkpt><trkpt lat="43.2549294" lon="13.0097076"><ele>354.0</ele><time>2026-04-25T12:53:32.514Z</time></trkpt><trkpt lat="43.2550676" lon="13.0096993"><ele>354.0</ele><time>2026-04-25T12:53:33.51Z</time></trkpt><trkpt lat="43.2551948" lon="13.0097248"><ele>354.0</ele><time>2026-04-25T12:53:34.519Z</time></trkpt><trkpt lat="43.2553115" lon="13.0097584"><ele>354.0</ele><time>2026-04-25T12:53:35.515Z</time></trkpt><trkpt lat="43.2554382" lon="13.0098533"><ele>354.0</ele><time>2026-04-25T12:53:36.52Z</time></trkpt><trkpt lat="43.2555826" lon="13.0099721"><ele>352.0</ele><time>2026-04-25T12:53:37.513Z</time></trkpt><trkpt lat="43.2557245" lon="13.0101102"><ele>350.0</ele><time>2026-04-25T12:53:38.522Z</time></trkpt><trkpt lat="43.2558732" lon="13.0102717"><ele>348.0</ele><time>2026-04-25T12:53:39.513Z</time></trkpt><trkpt lat="43.2560119" lon="13.010435"><ele>348.0</ele><time>2026-04-25T12:53:40.524Z</time></trkpt><trkpt lat="43.2561654" lon="13.0106045"><ele>348.0</ele><time>2026-04-25T12:53:41.515Z</time></trkpt><trkpt lat="43.256304" lon="13.0107626"><ele>348.0</ele><time>2026-04-25T12:53:42.521Z</time></trkpt><trkpt lat="43.2564416" lon="13.0108998"><ele>347.0</ele><time>2026-04-25T12:53:43.513Z</time></trkpt><trkpt lat="43.2565639" lon="13.0110312"><ele>346.0</ele><time>2026-04-25T12:53:44.513Z</time></trkpt><trkpt lat="43.2566969" lon="13.0111752"><ele>345.0</ele><time>2026-04-25T12:53:45.516Z</time></trkpt><trkpt lat="43.2568167" lon="13.0112963"><ele>345.0</ele><time>2026-04-25T12:53:46.512Z</time></trkpt><trkpt lat="43.2569363" lon="13.0114149"><ele>345.0</ele><time>2026-04-25T12:53:47.519Z</time></trkpt><trkpt lat="43.257063" lon="13.0115236"><ele>345.0</ele><time>2026-04-25T12:53:48.515Z</time></trkpt><trkpt lat="43.2571816" lon="13.0116226"><ele>345.0</ele><time>2026-04-25T12:53:49.518Z</time></trkpt><trkpt lat="43.2572932" lon="13.0117176"><ele>344.2</ele><time>2026-04-25T12:53:50.516Z</time></trkpt><trkpt lat="43.2573926" lon="13.0117972"><ele>343.4</ele><time>2026-04-25T12:53:51.513Z</time></trkpt><trkpt lat="43.2574798" lon="13.0118472"><ele>342.6</ele><time>2026-04-25T12:53:52.522Z</time></trkpt><trkpt lat="43.2575712" lon="13.0118927"><ele>341.8</ele><time>2026-04-25T12:53:53.511Z</time></trkpt><trkpt lat="43.257684" lon="13.0119254"><ele>341.0</ele><time>2026-04-25T12:53:54.513Z</time></trkpt><trkpt lat="43.2578156" lon="13.0119471"><ele>341.0</ele><time>2026-04-25T12:53:55.518Z</time></trkpt><trkpt lat="43.257937" lon="13.0119454"><ele>341.0</ele><time>2026-04-25T12:53:56.515Z</time></trkpt><trkpt lat="43.2580505" lon="13.0119416"><ele>341.0</ele><time>2026-04-25T12:53:57.51Z</time></trkpt><trkpt lat="43.2581716" lon="13.0119273"><ele>341.0</ele><time>2026-04-25T12:53:58.515Z</time></trkpt><trkpt lat="43.2582919" lon="13.0119216"><ele>341.0</ele><time>2026-04-25T12:53:59.523Z</time></trkpt><trkpt lat="43.2584092" lon="13.0119229"><ele>341.0</ele><time>2026-04-25T12:54:00.519Z</time></trkpt><trkpt lat="43.258531" lon="13.0119278"><ele>341.0</ele><time>2026-04-25T12:54:01.52Z</time></trkpt><trkpt lat="43.2586507" lon="13.0119466"><ele>341.0</ele><time>2026-04-25T12:54:02.521Z</time></trkpt><trkpt lat="43.2587607" lon="13.0119887"><ele>341.0</ele><time>2026-04-25T12:54:03.532Z</time></trkpt><trkpt lat="43.2588673" lon="13.012052"><ele>341.0</ele><time>2026-04-25T12:54:04.54Z</time></trkpt><trkpt lat="43.2589536" lon="13.0121261"><ele>341.0</ele><time>2026-04-25T12:54:05.539Z</time></trkpt><trkpt lat="43.2590636" lon="13.0122033"><ele>341.0</ele><time>2026-04-25T12:54:06.539Z</time></trkpt><trkpt lat="43.259179" lon="13.0122775"><ele>340.6</ele><time>2026-04-25T12:54:07.538Z</time></trkpt><trkpt lat="43.2592875" lon="13.0123452"><ele>340.20000000000005</ele><time>2026-04-25T12:54:08.537Z</time></trkpt><trkpt lat="43.2593866" lon="13.0123958"><ele>339.79999999999995</ele><time>2026-04-25T12:54:09.54Z</time></trkpt><trkpt lat="43.2594702" lon="13.0124463"><ele>339.4</ele><time>2026-04-25T12:54:10.538Z</time></trkpt><trkpt lat="43.2595486" lon="13.0125001"><ele>339.0</ele><time>2026-04-25T12:54:11.542Z</time></trkpt><trkpt lat="43.2596331" lon="13.0125504"><ele>339.0</ele><time>2026-04-25T12:54:12.54Z</time></trkpt><trkpt lat="43.2597188" lon="13.0126121"><ele>339.0</ele><time>2026-04-25T12:54:13.534Z</time></trkpt><trkpt lat="43.2598079" lon="13.0126693"><ele>339.0</ele><time>2026-04-25T12:54:14.53Z</time></trkpt><trkpt lat="43.2598877" lon="13.0127322"><ele>339.0</ele><time>2026-04-25T12:54:15.528Z</time></trkpt><trkpt lat="43.25996" lon="13.012775"><ele>339.0</ele><time>2026-04-25T12:54:16.525Z</time></trkpt><trkpt lat="43.2600221" lon="13.0128265"><ele>339.0</ele><time>2026-04-25T12:54:17.525Z</time></trkpt><trkpt lat="43.2600716" lon="13.0128939"><ele>339.6</ele><time>2026-04-25T12:54:18.528Z</time></trkpt><trkpt lat="43.2601154" lon="13.0129788"><ele>340.2</ele><time>2026-04-25T12:54:19.526Z</time></trkpt><trkpt lat="43.2601812" lon="13.0130723"><ele>340.8</ele><time>2026-04-25T12:54:20.529Z</time></trkpt><trkpt lat="43.2602502" lon="13.0131844"><ele>341.40000000000003</ele><time>2026-04-25T12:54:21.532Z</time></trkpt><trkpt lat="43.2603325" lon="13.0132886"><ele>342.0</ele><time>2026-04-25T12:54:22.534Z</time></trkpt><trkpt lat="43.2604447" lon="13.013378"><ele>342.75</ele><time>2026-04-25T12:54:23.531Z</time></trkpt><trkpt lat="43.2605677" lon="13.0134359"><ele>343.5</ele><time>2026-04-25T12:54:24.529Z</time></trkpt><trkpt lat="43.2606867" lon="13.0134854"><ele>344.25</ele><time>2026-04-25T12:54:25.537Z</time></trkpt><trkpt lat="43.2607867" lon="13.0135703"><ele>345.0</ele><time>2026-04-25T12:54:26.535Z</time></trkpt><trkpt lat="43.2608652" lon="13.0136887"><ele>345.5</ele><time>2026-04-25T12:54:27.533Z</time></trkpt><trkpt lat="43.2609133" lon="13.0138443"><ele>346.0</ele><time>2026-04-25T12:54:28.542Z</time></trkpt><trkpt lat="43.2609357" lon="13.014042"><ele>346.5</ele><time>2026-04-25T12:54:29.541Z</time></trkpt><trkpt lat="43.2609716" lon="13.0142452"><ele>347.0</ele><time>2026-04-25T12:54:30.527Z</time></trkpt><trkpt lat="43.2610162" lon="13.0144536"><ele>347.0</ele><time>2026-04-25T12:54:31.531Z</time></trkpt><trkpt lat="43.2610962" lon="13.0146324"><ele>347.0</ele><time>2026-04-25T12:54:32.534Z</time></trkpt><trkpt lat="43.2611849" lon="13.014813"><ele>347.0</ele><time>2026-04-25T12:54:33.533Z</time></trkpt><trkpt lat="43.2612433" lon="13.014992"><ele>347.0</ele><time>2026-04-25T12:54:34.545Z</time></trkpt><trkpt lat="43.2612861" lon="13.0151772"><ele>347.0</ele><time>2026-04-25T12:54:35.549Z</time></trkpt><trkpt lat="43.2612811" lon="13.0153594"><ele>347.0</ele><time>2026-04-25T12:54:36.531Z</time></trkpt><trkpt lat="43.2613125" lon="13.0155349"><ele>347.0</ele><time>2026-04-25T12:54:37.529Z</time></trkpt><trkpt lat="43.2613187" lon="13.0157634"><ele>347.6666666666667</ele><time>2026-04-25T12:54:38.536Z</time></trkpt><trkpt lat="43.2612972" lon="13.0159864"><ele>348.3333333333333</ele><time>2026-04-25T12:54:39.529Z</time></trkpt><trkpt lat="43.261257" lon="13.0162064"><ele>349.0</ele><time>2026-04-25T12:54:40.532Z</time></trkpt><trkpt lat="43.2612417" lon="13.0164273"><ele>349.0</ele><time>2026-04-25T12:54:41.521Z</time></trkpt><trkpt lat="43.2612316" lon="13.0166327"><ele>349.0</ele><time>2026-04-25T12:54:42.53Z</time></trkpt><trkpt lat="43.2612197" lon="13.0168373"><ele>349.0</ele><time>2026-04-25T12:54:43.526Z</time></trkpt><trkpt lat="43.2612207" lon="13.0170428"><ele>349.0</ele><time>2026-04-25T12:54:44.531Z</time></trkpt><trkpt lat="43.2612276" lon="13.0172504"><ele>350.3333333333333</ele><time>2026-04-25T12:54:45.536Z</time></trkpt><trkpt lat="43.2612425" lon="13.0174649"><ele>351.6666666666667</ele><time>2026-04-25T12:54:46.54Z</time></trkpt><trkpt lat="43.2612463" lon="13.0176663"><ele>353.0</ele><time>2026-04-25T12:54:47.526Z</time></trkpt><trkpt lat="43.2612519" lon="13.0178852"><ele>353.0</ele><time>2026-04-25T12:54:48.533Z</time></trkpt><trkpt lat="43.2612499" lon="13.0181033"><ele>353.0</ele><time>2026-04-25T12:54:49.534Z</time></trkpt><trkpt lat="43.2612585" lon="13.0183218"><ele>353.0</ele><time>2026-04-25T12:54:50.532Z</time></trkpt><trkpt lat="43.2612347" lon="13.0185324"><ele>353.33333333333337</ele><time>2026-04-25T12:54:51.522Z</time></trkpt><trkpt lat="43.2611868" lon="13.0187415"><ele>353.6666666666667</ele><time>2026-04-25T12:54:52.53Z</time></trkpt><trkpt lat="43.261136" lon="13.018982"><ele>354.0</ele><time>2026-04-25T12:54:53.523Z</time></trkpt><trkpt lat="43.2611417" lon="13.0191698"><ele>355.3333333333333</ele><time>2026-04-25T12:54:54.526Z</time></trkpt><trkpt lat="43.2610923" lon="13.0194386"><ele>356.66666666666663</ele><time>2026-04-25T12:54:55.53Z</time></trkpt><trkpt lat="43.2610668" lon="13.0196958"><ele>358.0</ele><time>2026-04-25T12:54:56.526Z</time></trkpt><trkpt lat="43.2610287" lon="13.0199487"><ele>359.0</ele><time>2026-04-25T12:54:57.533Z</time></trkpt><trkpt lat="43.2610069" lon="13.0201905"><ele>360.0</ele><time>2026-04-25T12:54:58.533Z</time></trkpt><trkpt lat="43.2609846" lon="13.0204346"><ele>361.0</ele><time>2026-04-25T12:54:59.535Z</time></trkpt><trkpt lat="43.2609624" lon="13.0206626"><ele>361.66666666666663</ele><time>2026-04-25T12:55:00.53Z</time></trkpt><trkpt lat="43.2609527" lon="13.0209011"><ele>362.3333333333333</ele><time>2026-04-25T12:55:01.537Z</time></trkpt><trkpt lat="43.260952" lon="13.0211451"><ele>363.0</ele><time>2026-04-25T12:55:02.533Z</time></trkpt><trkpt lat="43.2609309" lon="13.0213929"><ele>365.3333333333333</ele><time>2026-04-25T12:55:03.533Z</time></trkpt><trkpt lat="43.2609253" lon="13.0216538"><ele>367.66666666666663</ele><time>2026-04-25T12:55:04.532Z</time></trkpt><trkpt lat="43.2609184" lon="13.0219123"><ele>370.0</ele><time>2026-04-25T12:55:05.532Z</time></trkpt><trkpt lat="43.2608966" lon="13.0221741"><ele>370.0</ele><time>2026-04-25T12:55:06.526Z</time></trkpt><trkpt lat="43.2608703" lon="13.0224405"><ele>370.0</ele><time>2026-04-25T12:55:07.523Z</time></trkpt><trkpt lat="43.2608364" lon="13.0227043"><ele>370.0</ele><time>2026-04-25T12:55:08.521Z</time></trkpt><trkpt lat="43.260809" lon="13.0229581"><ele>370.0</ele><time>2026-04-25T12:55:09.531Z</time></trkpt><trkpt lat="43.2607566" lon="13.0232176"><ele>370.0</ele><time>2026-04-25T12:55:10.526Z</time></trkpt><trkpt lat="43.260711" lon="13.0234612"><ele>370.0</ele><time>2026-04-25T12:55:11.531Z</time></trkpt><trkpt lat="43.2606616" lon="13.0237194"><ele>370.3333333333333</ele><time>2026-04-25T12:55:12.529Z</time></trkpt><trkpt lat="43.2606301" lon="13.0239652"><ele>370.6666666666667</ele><time>2026-04-25T12:55:13.534Z</time></trkpt><trkpt lat="43.2606083" lon="13.0242011"><ele>371.0</ele><time>2026-04-25T12:55:14.523Z</time></trkpt><trkpt lat="43.2605822" lon="13.0244182"><ele>370.6666666666667</ele><time>2026-04-25T12:55:15.525Z</time></trkpt><trkpt lat="43.2605321" lon="13.0246744"><ele>370.3333333333333</ele><time>2026-04-25T12:55:16.526Z</time></trkpt><trkpt lat="43.260495" lon="13.0249408"><ele>370.0</ele><time>2026-04-25T12:55:17.523Z</time></trkpt><trkpt lat="43.2604531" lon="13.0251889"><ele>370.0</ele><time>2026-04-25T12:55:18.524Z</time></trkpt><trkpt lat="43.2604254" lon="13.0254455"><ele>370.0</ele><time>2026-04-25T12:55:19.538Z</time></trkpt><trkpt lat="43.2603923" lon="13.0256718"><ele>370.0</ele><time>2026-04-25T12:55:20.524Z</time></trkpt><trkpt lat="43.2603515" lon="13.0258874"><ele>370.66666666666663</ele><time>2026-04-25T12:55:21.53Z</time></trkpt><trkpt lat="43.2603431" lon="13.0261437"><ele>371.3333333333333</ele><time>2026-04-25T12:55:22.533Z</time></trkpt><trkpt lat="43.26035" lon="13.0264016"><ele>372.0</ele><time>2026-04-25T12:55:23.536Z</time></trkpt><trkpt lat="43.2603354" lon="13.0266266"><ele>372.6666666666667</ele><time>2026-04-25T12:55:24.529Z</time></trkpt><trkpt lat="43.2603331" lon="13.0268436"><ele>373.33333333333337</ele><time>2026-04-25T12:55:25.526Z</time></trkpt><trkpt lat="43.2603031" lon="13.027062"><ele>374.0</ele><time>2026-04-25T12:55:26.52Z</time></trkpt><trkpt lat="43.2602665" lon="13.0272908"><ele>375.33333333333337</ele><time>2026-04-25T12:55:27.528Z</time></trkpt><trkpt lat="43.2602289" lon="13.0275294"><ele>376.6666666666667</ele><time>2026-04-25T12:55:28.519Z</time></trkpt><trkpt lat="43.2601825" lon="13.0277587"><ele>378.0</ele><time>2026-04-25T12:55:29.529Z</time></trkpt><trkpt lat="43.260142" lon="13.0280119"><ele>378.0</ele><time>2026-04-25T12:55:30.523Z</time></trkpt><trkpt lat="43.2601078" lon="13.0282583"><ele>378.0</ele><time>2026-04-25T12:55:31.525Z</time></trkpt><trkpt lat="43.2600647" lon="13.0285093"><ele>378.0</ele><time>2026-04-25T12:55:32.52Z</time></trkpt><trkpt lat="43.2600168" lon="13.0287651"><ele>378.3333333333333</ele><time>2026-04-25T12:55:33.533Z</time></trkpt><trkpt lat="43.2599771" lon="13.0290094"><ele>378.66666666666663</ele><time>2026-04-25T12:55:34.524Z</time></trkpt><trkpt lat="43.2599624" lon="13.0292539"><ele>379.0</ele><time>2026-04-25T12:55:35.533Z</time></trkpt><trkpt lat="43.2599512" lon="13.0294621"><ele>380.66666666666663</ele><time>2026-04-25T12:55:36.532Z</time></trkpt><trkpt lat="43.2599359" lon="13.0296856"><ele>382.3333333333333</ele><time>2026-04-25T12:55:37.546Z</time></trkpt><trkpt lat="43.259919" lon="13.029956"><ele>384.0</ele><time>2026-04-25T12:55:38.529Z</time></trkpt><trkpt lat="43.259906" lon="13.0302233"><ele>384.33333333333337</ele><time>2026-04-25T12:55:39.531Z</time></trkpt><trkpt lat="43.2598973" lon="13.0304947"><ele>384.6666666666667</ele><time>2026-04-25T12:55:40.531Z</time></trkpt><trkpt lat="43.2598881" lon="13.0307691"><ele>385.0</ele><time>2026-04-25T12:55:41.537Z</time></trkpt><trkpt lat="43.2598975" lon="13.0310544"><ele>385.6666666666667</ele><time>2026-04-25T12:55:42.537Z</time></trkpt><trkpt lat="43.2598821" lon="13.031323"><ele>386.33333333333337</ele><time>2026-04-25T12:55:43.533Z</time></trkpt><trkpt lat="43.259858" lon="13.0315922"><ele>387.0</ele><time>2026-04-25T12:55:44.54Z</time></trkpt><trkpt lat="43.2598543" lon="13.0318337"><ele>388.66666666666663</ele><time>2026-04-25T12:55:45.529Z</time></trkpt><trkpt lat="43.2598782" lon="13.0320848"><ele>390.3333333333333</ele><time>2026-04-25T12:55:46.541Z</time></trkpt><trkpt lat="43.2598741" lon="13.0323422"><ele>392.0</ele><time>2026-04-25T12:55:47.535Z</time></trkpt><trkpt lat="43.2598616" lon="13.0326012"><ele>392.0</ele><time>2026-04-25T12:55:48.539Z</time></trkpt><trkpt lat="43.259852" lon="13.0328545"><ele>392.0</ele><time>2026-04-25T12:55:49.531Z</time></trkpt><trkpt lat="43.2598526" lon="13.033114"><ele>392.0</ele><time>2026-04-25T12:55:50.537Z</time></trkpt><trkpt lat="43.2598702" lon="13.0333596"><ele>392.3333333333333</ele><time>2026-04-25T12:55:51.538Z</time></trkpt><trkpt lat="43.2599017" lon="13.0335905"><ele>392.66666666666663</ele><time>2026-04-25T12:55:52.537Z</time></trkpt><trkpt lat="43.2599259" lon="13.0338071"><ele>393.0</ele><time>2026-04-25T12:55:53.542Z</time></trkpt><trkpt lat="43.2599463" lon="13.0340227"><ele>393.75</ele><time>2026-04-25T12:55:54.526Z</time></trkpt><trkpt lat="43.2599669" lon="13.0342241"><ele>394.5</ele><time>2026-04-25T12:55:55.529Z</time></trkpt><trkpt lat="43.2600025" lon="13.0344104"><ele>395.25</ele><time>2026-04-25T12:55:56.526Z</time></trkpt><trkpt lat="43.2600506" lon="13.0345868"><ele>396.0</ele><time>2026-04-25T12:55:57.525Z</time></trkpt><trkpt lat="43.2601066" lon="13.034763"><ele>396.0</ele><time>2026-04-25T12:55:58.532Z</time></trkpt><trkpt lat="43.2601773" lon="13.0349275"><ele>396.0</ele><time>2026-04-25T12:55:59.536Z</time></trkpt><trkpt lat="43.2602575" lon="13.035095"><ele>396.0</ele><time>2026-04-25T12:56:00.534Z</time></trkpt><trkpt lat="43.2603681" lon="13.0352865"><ele>395.33333333333337</ele><time>2026-04-25T12:56:01.534Z</time></trkpt><trkpt lat="43.2604687" lon="13.0355088"><ele>394.6666666666667</ele><time>2026-04-25T12:56:02.537Z</time></trkpt><trkpt lat="43.2605786" lon="13.0357506"><ele>394.0</ele><time>2026-04-25T12:56:03.532Z</time></trkpt><trkpt lat="43.2606631" lon="13.0359637"><ele>396.0</ele><time>2026-04-25T12:56:04.514Z</time></trkpt><trkpt lat="43.2607264" lon="13.0361576"><ele>398.0</ele><time>2026-04-25T12:56:05.521Z</time></trkpt><trkpt lat="43.2608253" lon="13.0363913"><ele>400.0</ele><time>2026-04-25T12:56:06.507Z</time></trkpt><trkpt lat="43.2609128" lon="13.0365791"><ele>399.0</ele><time>2026-04-25T12:56:07.523Z</time></trkpt><trkpt lat="43.2610369" lon="13.0367575"><ele>398.0</ele><time>2026-04-25T12:56:08.529Z</time></trkpt><trkpt lat="43.2611479" lon="13.03691"><ele>397.0</ele><time>2026-04-25T12:56:09.521Z</time></trkpt><trkpt lat="43.2612536" lon="13.0370923"><ele>397.0</ele><time>2026-04-25T12:56:10.525Z</time></trkpt><trkpt lat="43.2613339" lon="13.0372737"><ele>397.0</ele><time>2026-04-25T12:56:11.521Z</time></trkpt><trkpt lat="43.2614089" lon="13.0374684"><ele>397.0</ele><time>2026-04-25T12:56:12.527Z</time></trkpt><trkpt lat="43.2614587" lon="13.0376669"><ele>399.0</ele><time>2026-04-25T12:56:13.524Z</time></trkpt><trkpt lat="43.2615341" lon="13.0378854"><ele>401.0</ele><time>2026-04-25T12:56:14.513Z</time></trkpt><trkpt lat="43.2615407" lon="13.0380536"><ele>403.0</ele><time>2026-04-25T12:56:15.512Z</time></trkpt><trkpt lat="43.2616" lon="13.0382236"><ele>405.0</ele><time>2026-04-25T12:56:16.517Z</time></trkpt><trkpt lat="43.26168" lon="13.0383833"><ele>405.0</ele><time>2026-04-25T12:56:17.52Z</time></trkpt><trkpt lat="43.2617778" lon="13.0385411"><ele>405.0</ele><time>2026-04-25T12:56:18.519Z</time></trkpt><trkpt lat="43.261849" lon="13.0387119"><ele>405.0</ele><time>2026-04-25T12:56:19.52Z</time></trkpt><trkpt lat="43.2619281" lon="13.0388859"><ele>405.0</ele><time>2026-04-25T12:56:20.519Z</time></trkpt><trkpt lat="43.2620259" lon="13.0390921"><ele>404.0</ele><time>2026-04-25T12:56:21.534Z</time></trkpt><trkpt lat="43.2620556" lon="13.0393054"><ele>403.0</ele><time>2026-04-25T12:56:22.525Z</time></trkpt><trkpt lat="43.2621105" lon="13.0395307"><ele>402.0</ele><time>2026-04-25T12:56:23.521Z</time></trkpt><trkpt lat="43.2621787" lon="13.0397258"><ele>402.0</ele><time>2026-04-25T12:56:24.518Z</time></trkpt><trkpt lat="43.2622273" lon="13.0398797"><ele>402.0</ele><time>2026-04-25T12:56:25.529Z</time></trkpt><trkpt lat="43.2623127" lon="13.0400646"><ele>402.0</ele><time>2026-04-25T12:56:26.528Z</time></trkpt><trkpt lat="43.2623674" lon="13.0402841"><ele>407.33333333333337</ele><time>2026-04-25T12:56:27.536Z</time></trkpt><trkpt lat="43.2624185" lon="13.0405153"><ele>412.6666666666667</ele><time>2026-04-25T12:56:28.525Z</time></trkpt><trkpt lat="43.2624543" lon="13.0407334"><ele>418.0</ele><time>2026-04-25T12:56:29.524Z</time></trkpt><trkpt lat="43.2624786" lon="13.0409326"><ele>418.0</ele><time>2026-04-25T12:56:30.53Z</time></trkpt><trkpt lat="43.2625098" lon="13.0411436"><ele>418.0</ele><time>2026-04-25T12:56:31.534Z</time></trkpt><trkpt lat="43.2625293" lon="13.0413572"><ele>418.0</ele><time>2026-04-25T12:56:32.535Z</time></trkpt><trkpt lat="43.262573" lon="13.0415742"><ele>417.75</ele><time>2026-04-25T12:56:33.527Z</time></trkpt><trkpt lat="43.2626304" lon="13.0417609"><ele>417.5</ele><time>2026-04-25T12:56:34.527Z</time></trkpt><trkpt lat="43.262683" lon="13.0419545"><ele>417.25</ele><time>2026-04-25T12:56:35.535Z</time></trkpt><trkpt lat="43.2627573" lon="13.0421209"><ele>417.0</ele><time>2026-04-25T12:56:36.527Z</time></trkpt><trkpt lat="43.2628061" lon="13.0422669"><ele>417.0</ele><time>2026-04-25T12:56:37.536Z</time></trkpt><trkpt lat="43.2629138" lon="13.0424145"><ele>417.0</ele><time>2026-04-25T12:56:38.522Z</time></trkpt><trkpt lat="43.263025" lon="13.04255"><ele>417.0</ele><time>2026-04-25T12:56:39.523Z</time></trkpt><trkpt lat="43.2631815" lon="13.0426757"><ele>422.66666666666663</ele><time>2026-04-25T12:56:40.517Z</time></trkpt><trkpt lat="43.2633349" lon="13.0428229"><ele>428.3333333333333</ele><time>2026-04-25T12:56:41.524Z</time></trkpt><trkpt lat="43.2634828" lon="13.0429312"><ele>434.0</ele><time>2026-04-25T12:56:42.517Z</time></trkpt><trkpt lat="43.2636205" lon="13.0430921"><ele>434.0</ele><time>2026-04-25T12:56:43.522Z</time></trkpt><trkpt lat="43.2637468" lon="13.0432886"><ele>434.0</ele><time>2026-04-25T12:56:44.512Z</time></trkpt><trkpt lat="43.263859" lon="13.0434701"><ele>434.0</ele><time>2026-04-25T12:56:45.513Z</time></trkpt><trkpt lat="43.2639419" lon="13.0436321"><ele>434.25</ele><time>2026-04-25T12:56:46.511Z</time></trkpt><trkpt lat="43.2639996" lon="13.04376"><ele>434.5</ele><time>2026-04-25T12:56:47.509Z</time></trkpt><trkpt lat="43.2640462" lon="13.0439235"><ele>434.75</ele><time>2026-04-25T12:56:48.504Z</time></trkpt><trkpt lat="43.2641467" lon="13.0440837"><ele>435.0</ele><time>2026-04-25T12:56:49.522Z</time></trkpt><trkpt lat="43.2642617" lon="13.0442035"><ele>431.33333333333337</ele><time>2026-04-25T12:56:50.518Z</time></trkpt><trkpt lat="43.2644062" lon="13.0442433"><ele>427.6666666666667</ele><time>2026-04-25T12:56:51.51Z</time></trkpt><trkpt lat="43.2645616" lon="13.0442905"><ele>424.0</ele><time>2026-04-25T12:56:52.516Z</time></trkpt><trkpt lat="43.2647675" lon="13.0443675"><ele>425.75</ele><time>2026-04-25T12:56:53.513Z</time></trkpt><trkpt lat="43.2648883" lon="13.0444916"><ele>427.5</ele><time>2026-04-25T12:56:54.51Z</time></trkpt><trkpt lat="43.2649498" lon="13.0446019"><ele>429.25</ele><time>2026-04-25T12:56:55.509Z</time></trkpt><trkpt lat="43.2649537" lon="13.0446984"><ele>431.0</ele><time>2026-04-25T12:56:56.513Z</time></trkpt><trkpt lat="43.2650202" lon="13.0448485"><ele>431.0</ele><time>2026-04-25T12:56:58.519Z</time></trkpt><trkpt lat="43.2651314" lon="13.0448789"><ele>431.0</ele><time>2026-04-25T12:56:59.524Z</time></trkpt><trkpt lat="43.2652059" lon="13.0449473"><ele>431.0</ele><time>2026-04-25T12:57:00.516Z</time></trkpt><trkpt lat="43.2653094" lon="13.0449817"><ele>431.0</ele><time>2026-04-25T12:57:01.514Z</time></trkpt><trkpt lat="43.2654856" lon="13.0449886"><ele>431.66666666666663</ele><time>2026-04-25T12:57:02.525Z</time></trkpt><trkpt lat="43.2656019" lon="13.0451006"><ele>432.33333333333337</ele><time>2026-04-25T12:57:03.52Z</time></trkpt><trkpt lat="43.2657272" lon="13.0452096"><ele>433.0</ele><time>2026-04-25T12:57:04.517Z</time></trkpt><trkpt lat="43.2660095" lon="13.0452697"><ele>433.0</ele><time>2026-04-25T12:57:05.529Z</time></trkpt><trkpt lat="43.2662723" lon="13.0453326"><ele>433.0</ele><time>2026-04-25T12:57:06.525Z</time></trkpt><trkpt lat="43.2665092" lon="13.0453799"><ele>435.0</ele><time>2026-04-25T12:57:07.528Z</time></trkpt><trkpt lat="43.2666857" lon="13.045385"><ele>437.0</ele><time>2026-04-25T12:57:08.525Z</time></trkpt><trkpt lat="43.2668335" lon="13.0454031"><ele>439.0</ele><time>2026-04-25T12:57:09.524Z</time></trkpt><trkpt lat="43.2669657" lon="13.0454593"><ele>439.0</ele><time>2026-04-25T12:57:10.527Z</time></trkpt><trkpt lat="43.2670879" lon="13.045525"><ele>439.0</ele><time>2026-04-25T12:57:11.525Z</time></trkpt><trkpt lat="43.2671982" lon="13.0455792"><ele>439.0</ele><time>2026-04-25T12:57:12.522Z</time></trkpt><trkpt lat="43.2673159" lon="13.0456435"><ele>439.0</ele><time>2026-04-25T12:57:13.522Z</time></trkpt><trkpt lat="43.2674202" lon="13.0456915"><ele>440.25</ele><time>2026-04-25T12:57:14.533Z</time></trkpt><trkpt lat="43.2675303" lon="13.0457532"><ele>441.5</ele><time>2026-04-25T12:57:15.52Z</time></trkpt><trkpt lat="43.2676438" lon="13.0458226"><ele>442.75</ele><time>2026-04-25T12:57:16.529Z</time></trkpt><trkpt lat="43.2677621" lon="13.0458854"><ele>444.0</ele><time>2026-04-25T12:57:17.528Z</time></trkpt><trkpt lat="43.267877" lon="13.0459607"><ele>444.0</ele><time>2026-04-25T12:57:18.525Z</time></trkpt><trkpt lat="43.2679942" lon="13.0460308"><ele>444.0</ele><time>2026-04-25T12:57:19.525Z</time></trkpt><trkpt lat="43.2681223" lon="13.0460934"><ele>444.0</ele><time>2026-04-25T12:57:20.52Z</time></trkpt><trkpt lat="43.2682447" lon="13.046167"><ele>444.0</ele><time>2026-04-25T12:57:21.518Z</time></trkpt><trkpt lat="43.268358" lon="13.046249"><ele>447.2</ele><time>2026-04-25T12:57:22.512Z</time></trkpt><trkpt lat="43.2684441" lon="13.0463163"><ele>450.4</ele><time>2026-04-25T12:57:23.518Z</time></trkpt><trkpt lat="43.2685106" lon="13.0463811"><ele>453.6</ele><time>2026-04-25T12:57:24.515Z</time></trkpt><trkpt lat="43.2685932" lon="13.0464345"><ele>456.8</ele><time>2026-04-25T12:57:25.515Z</time></trkpt><trkpt lat="43.2686894" lon="13.0464857"><ele>460.0</ele><time>2026-04-25T12:57:26.522Z</time></trkpt><trkpt lat="43.2687948" lon="13.0465182"><ele>460.0</ele><time>2026-04-25T12:57:27.523Z</time></trkpt><trkpt lat="43.2688779" lon="13.0465807"><ele>460.0</ele><time>2026-04-25T12:57:28.528Z</time></trkpt><trkpt lat="43.2689494" lon="13.0467038"><ele>460.0</ele><time>2026-04-25T12:57:29.525Z</time></trkpt><trkpt lat="43.2689983" lon="13.0468225"><ele>460.0</ele><time>2026-04-25T12:57:30.522Z</time></trkpt><trkpt lat="43.2690323" lon="13.046931"><ele>460.0</ele><time>2026-04-25T12:57:31.518Z</time></trkpt><trkpt lat="43.2690686" lon="13.0470306"><ele>461.8</ele><time>2026-04-25T12:57:32.523Z</time></trkpt><trkpt lat="43.2691494" lon="13.0471824"><ele>463.6</ele><time>2026-04-25T12:57:34.533Z</time></trkpt><trkpt lat="43.2692186" lon="13.0472298"><ele>465.4</ele><time>2026-04-25T12:57:35.522Z</time></trkpt><trkpt lat="43.2693208" lon="13.0472216"><ele>467.2</ele><time>2026-04-25T12:57:36.53Z</time></trkpt><trkpt lat="43.2694126" lon="13.0472367"><ele>469.0</ele><time>2026-04-25T12:57:37.518Z</time></trkpt><trkpt lat="43.2695119" lon="13.0472363"><ele>469.00000000000006</ele><time>2026-04-25T12:57:38.521Z</time></trkpt><trkpt lat="43.2695758" lon="13.0472728"><ele>469.0</ele><time>2026-04-25T12:57:39.526Z</time></trkpt><trkpt lat="43.2696269" lon="13.0473286"><ele>469.0</ele><time>2026-04-25T12:57:40.53Z</time></trkpt><trkpt lat="43.2696655" lon="13.0474093"><ele>469.0</ele><time>2026-04-25T12:57:41.518Z</time></trkpt><trkpt lat="43.2697017" lon="13.0475944"><ele>469.00000000000006</ele><time>2026-04-25T12:57:43.525Z</time></trkpt><trkpt lat="43.2697075" lon="13.0477331"><ele>469.0</ele><time>2026-04-25T12:57:45.528Z</time></trkpt><trkpt lat="43.2697618" lon="13.0478695"><ele>469.2</ele><time>2026-04-25T12:57:47.53Z</time></trkpt><trkpt lat="43.2698027" lon="13.0479402"><ele>469.4</ele><time>2026-04-25T12:57:48.534Z</time></trkpt><trkpt lat="43.2698739" lon="13.0480335"><ele>469.6</ele><time>2026-04-25T12:57:49.533Z</time></trkpt><trkpt lat="43.2699575" lon="13.0481142"><ele>469.8</ele><time>2026-04-25T12:57:50.538Z</time></trkpt><trkpt lat="43.2700422" lon="13.048192"><ele>470.0</ele><time>2026-04-25T12:57:51.529Z</time></trkpt><trkpt lat="43.2701181" lon="13.0482524"><ele>470.0</ele><time>2026-04-25T12:57:52.532Z</time></trkpt><trkpt lat="43.2701932" lon="13.0482884"><ele>470.0</ele><time>2026-04-25T12:57:53.535Z</time></trkpt><trkpt lat="43.2702809" lon="13.0483403"><ele>470.0</ele><time>2026-04-25T12:57:54.53Z</time></trkpt><trkpt lat="43.2703874" lon="13.0483942"><ele>470.0</ele><time>2026-04-25T12:57:55.532Z</time></trkpt><trkpt lat="43.2705001" lon="13.0484361"><ele>470.0</ele><time>2026-04-25T12:57:56.533Z</time></trkpt><trkpt lat="43.2706091" lon="13.0484977"><ele>469.25</ele><time>2026-04-25T12:57:57.538Z</time></trkpt><trkpt lat="43.2707216" lon="13.048532"><ele>468.5</ele><time>2026-04-25T12:57:58.535Z</time></trkpt><trkpt lat="43.2708512" lon="13.048551"><ele>467.75</ele><time>2026-04-25T12:57:59.533Z</time></trkpt><trkpt lat="43.2709812" lon="13.0485727"><ele>467.0</ele><time>2026-04-25T12:58:00.536Z</time></trkpt><trkpt lat="43.2711233" lon="13.0485711"><ele>467.0</ele><time>2026-04-25T12:58:01.529Z</time></trkpt><trkpt lat="43.271281" lon="13.0485907"><ele>467.0</ele><time>2026-04-25T12:58:02.537Z</time></trkpt><trkpt lat="43.2714589" lon="13.0486238"><ele>467.0</ele><time>2026-04-25T12:58:03.531Z</time></trkpt><trkpt lat="43.2716421" lon="13.0486373"><ele>470.66666666666663</ele><time>2026-04-25T12:58:04.529Z</time></trkpt><trkpt lat="43.2718163" lon="13.0486669"><ele>474.33333333333337</ele><time>2026-04-25T12:58:05.536Z</time></trkpt><trkpt lat="43.2719659" lon="13.0487073"><ele>478.0</ele><time>2026-04-25T12:58:06.536Z</time></trkpt><trkpt lat="43.2721128" lon="13.0487103"><ele>480.25</ele><time>2026-04-25T12:58:07.529Z</time></trkpt><trkpt lat="43.2722741" lon="13.0487346"><ele>482.5</ele><time>2026-04-25T12:58:08.535Z</time></trkpt><trkpt lat="43.2723981" lon="13.0487338"><ele>484.75</ele><time>2026-04-25T12:58:09.532Z</time></trkpt><trkpt lat="43.2725444" lon="13.0487405"><ele>487.0</ele><time>2026-04-25T12:58:10.534Z</time></trkpt><trkpt lat="43.2726746" lon="13.0487647"><ele>487.0</ele><time>2026-04-25T12:58:11.536Z</time></trkpt><trkpt lat="43.2728029" lon="13.048788"><ele>487.0</ele><time>2026-04-25T12:58:12.539Z</time></trkpt><trkpt lat="43.272934" lon="13.0488114"><ele>487.0</ele><time>2026-04-25T12:58:13.533Z</time></trkpt><trkpt lat="43.2730552" lon="13.0488225"><ele>487.0</ele><time>2026-04-25T12:58:14.544Z</time></trkpt><trkpt lat="43.273192" lon="13.0488287"><ele>488.25</ele><time>2026-04-25T12:58:15.537Z</time></trkpt><trkpt lat="43.2732954" lon="13.0488152"><ele>489.5</ele><time>2026-04-25T12:58:16.532Z</time></trkpt><trkpt lat="43.2733593" lon="13.0486441"><ele>490.75</ele><time>2026-04-25T12:58:18.523Z</time></trkpt><trkpt lat="43.2733363" lon="13.0485095"><ele>492.0</ele><time>2026-04-25T12:58:19.525Z</time></trkpt><trkpt lat="43.2733151" lon="13.0483489"><ele>493.75</ele><time>2026-04-25T12:58:20.52Z</time></trkpt><trkpt lat="43.2732821" lon="13.0481814"><ele>495.5</ele><time>2026-04-25T12:58:21.528Z</time></trkpt><trkpt lat="43.273259" lon="13.0479836"><ele>497.25</ele><time>2026-04-25T12:58:22.527Z</time></trkpt><trkpt lat="43.2732351" lon="13.0477932"><ele>499.0</ele><time>2026-04-25T12:58:23.528Z</time></trkpt><trkpt lat="43.2732219" lon="13.0476055"><ele>500.4</ele><time>2026-04-25T12:58:24.532Z</time></trkpt><trkpt lat="43.2731976" lon="13.0474508"><ele>501.79999999999995</ele><time>2026-04-25T12:58:25.532Z</time></trkpt><trkpt lat="43.2731926" lon="13.0473002"><ele>503.20000000000005</ele><time>2026-04-25T12:58:26.531Z</time></trkpt><trkpt lat="43.2731969" lon="13.0471689"><ele>504.6</ele><time>2026-04-25T12:58:27.538Z</time></trkpt><trkpt lat="43.2732193" lon="13.0470748"><ele>506.0</ele><time>2026-04-25T12:58:28.533Z</time></trkpt><trkpt lat="43.2732929" lon="13.0470125"><ele>506.0</ele><time>2026-04-25T12:58:29.537Z</time></trkpt><trkpt lat="43.273408" lon="13.0469813"><ele>506.0</ele><time>2026-04-25T12:58:30.527Z</time></trkpt><trkpt lat="43.2735387" lon="13.0469662"><ele>506.0</ele><time>2026-04-25T12:58:31.532Z</time></trkpt><trkpt lat="43.2736634" lon="13.0469407"><ele>506.0</ele><time>2026-04-25T12:58:32.527Z</time></trkpt><trkpt lat="43.2737772" lon="13.0468768"><ele>506.0</ele><time>2026-04-25T12:58:33.526Z</time></trkpt><trkpt lat="43.2738811" lon="13.0467842"><ele>506.0</ele><time>2026-04-25T12:58:34.522Z</time></trkpt><trkpt lat="43.2739764" lon="13.046663"><ele>506.0</ele><time>2026-04-25T12:58:35.525Z</time></trkpt><trkpt lat="43.2740624" lon="13.0465338"><ele>506.0</ele><time>2026-04-25T12:58:36.529Z</time></trkpt><trkpt lat="43.2741405" lon="13.0464403"><ele>509.0</ele><time>2026-04-25T12:58:37.521Z</time></trkpt><trkpt lat="43.2742294" lon="13.046387"><ele>512.0</ele><time>2026-04-25T12:58:38.53Z</time></trkpt><trkpt lat="43.2743512" lon="13.0463891"><ele>515.0</ele><time>2026-04-25T12:58:39.526Z</time></trkpt><trkpt lat="43.2744873" lon="13.0464207"><ele>518.0</ele><time>2026-04-25T12:58:40.522Z</time></trkpt><trkpt lat="43.2746256" lon="13.0464806"><ele>518.0</ele><time>2026-04-25T12:58:41.526Z</time></trkpt><trkpt lat="43.2747649" lon="13.0465432"><ele>518.0</ele><time>2026-04-25T12:58:42.534Z</time></trkpt><trkpt lat="43.2749143" lon="13.0466448"><ele>518.0</ele><time>2026-04-25T12:58:43.536Z</time></trkpt><trkpt lat="43.2750036" lon="13.0467349"><ele>518.0</ele><time>2026-04-25T12:58:44.534Z</time></trkpt><trkpt lat="43.275108" lon="13.0468761"><ele>518.5</ele><time>2026-04-25T12:58:45.534Z</time></trkpt><trkpt lat="43.2752076" lon="13.0470348"><ele>519.0</ele><time>2026-04-25T12:58:46.536Z</time></trkpt><trkpt lat="43.2752913" lon="13.0471909"><ele>519.5</ele><time>2026-04-25T12:58:47.539Z</time></trkpt><trkpt lat="43.2754085" lon="13.0473221"><ele>520.0</ele><time>2026-04-25T12:58:48.538Z</time></trkpt><trkpt lat="43.2755193" lon="13.0474438"><ele>523.0</ele><time>2026-04-25T12:58:49.53Z</time></trkpt><trkpt lat="43.2756619" lon="13.0475677"><ele>526.0</ele><time>2026-04-25T12:58:50.526Z</time></trkpt><trkpt lat="43.2758022" lon="13.0476848"><ele>529.0</ele><time>2026-04-25T12:58:51.538Z</time></trkpt><trkpt lat="43.2759451" lon="13.0477779"><ele>529.0</ele><time>2026-04-25T12:58:52.534Z</time></trkpt><trkpt lat="43.2760911" lon="13.0479087"><ele>529.0</ele><time>2026-04-25T12:58:53.547Z</time></trkpt><trkpt lat="43.2762059" lon="13.0480239"><ele>529.0</ele><time>2026-04-25T12:58:54.525Z</time></trkpt><trkpt lat="43.2763772" lon="13.0480704"><ele>528.3333333333334</ele><time>2026-04-25T12:58:55.535Z</time></trkpt><trkpt lat="43.2765368" lon="13.0481165"><ele>527.6666666666666</ele><time>2026-04-25T12:58:56.539Z</time></trkpt><trkpt lat="43.2767051" lon="13.0481622"><ele>527.0</ele><time>2026-04-25T12:58:57.535Z</time></trkpt><trkpt lat="43.276869" lon="13.0481677"><ele>527.0</ele><time>2026-04-25T12:58:58.531Z</time></trkpt><trkpt lat="43.2770443" lon="13.0481898"><ele>527.0</ele><time>2026-04-25T12:58:59.515Z</time></trkpt><trkpt lat="43.2772163" lon="13.0481922"><ele>527.0</ele><time>2026-04-25T12:59:00.525Z</time></trkpt><trkpt lat="43.277372" lon="13.048196"><ele>527.25</ele><time>2026-04-25T12:59:01.523Z</time></trkpt><trkpt lat="43.2775142" lon="13.0481923"><ele>527.5</ele><time>2026-04-25T12:59:02.526Z</time></trkpt><trkpt lat="43.2776321" lon="13.0481988"><ele>527.75</ele><time>2026-04-25T12:59:03.524Z</time></trkpt><trkpt lat="43.2777085" lon="13.0482083"><ele>528.0</ele><time>2026-04-25T12:59:04.522Z</time></trkpt><trkpt lat="43.2777777" lon="13.0483531"><ele>531.1999999999999</ele><time>2026-04-25T12:59:06.527Z</time></trkpt><trkpt lat="43.2777806" lon="13.0484571"><ele>534.4</ele><time>2026-04-25T12:59:07.525Z</time></trkpt><trkpt lat="43.2777371" lon="13.0485442"><ele>537.5999999999999</ele><time>2026-04-25T12:59:08.531Z</time></trkpt><trkpt lat="43.277685" lon="13.0486344"><ele>540.8</ele><time>2026-04-25T12:59:09.524Z</time></trkpt><trkpt lat="43.2776141" lon="13.0487329"><ele>544.0</ele><time>2026-04-25T12:59:10.532Z</time></trkpt><trkpt lat="43.2775354" lon="13.0488524"><ele>544.0</ele><time>2026-04-25T12:59:11.526Z</time></trkpt><trkpt lat="43.2774675" lon="13.0490165"><ele>544.0</ele><time>2026-04-25T12:59:12.535Z</time></trkpt><trkpt lat="43.2774142" lon="13.0492043"><ele>544.0</ele><time>2026-04-25T12:59:13.531Z</time></trkpt><trkpt lat="43.2773564" lon="13.0493999"><ele>544.0</ele><time>2026-04-25T12:59:14.52Z</time></trkpt><trkpt lat="43.2772729" lon="13.0496049"><ele>544.5</ele><time>2026-04-25T12:59:15.519Z</time></trkpt><trkpt lat="43.2772209" lon="13.0497798"><ele>545.0</ele><time>2026-04-25T12:59:16.529Z</time></trkpt><trkpt lat="43.2771728" lon="13.0499395"><ele>545.5</ele><time>2026-04-25T12:59:17.528Z</time></trkpt><trkpt lat="43.2771051" lon="13.0500945"><ele>546.0</ele><time>2026-04-25T12:59:18.531Z</time></trkpt><trkpt lat="43.277026" lon="13.0502337"><ele>546.0</ele><time>2026-04-25T12:59:19.526Z</time></trkpt><trkpt lat="43.2769951" lon="13.0503481"><ele>546.0</ele><time>2026-04-25T12:59:20.532Z</time></trkpt><trkpt lat="43.2769762" lon="13.0504607"><ele>546.0</ele><time>2026-04-25T12:59:21.526Z</time></trkpt><trkpt lat="43.2770085" lon="13.0505626"><ele>546.0</ele><time>2026-04-25T12:59:22.54Z</time></trkpt><trkpt lat="43.2770543" lon="13.0506266"><ele>546.0</ele><time>2026-04-25T12:59:23.524Z</time></trkpt><trkpt lat="43.2771329" lon="13.0506733"><ele>546.0</ele><time>2026-04-25T12:59:24.532Z</time></trkpt><trkpt lat="43.2772177" lon="13.0506782"><ele>548.8</ele><time>2026-04-25T12:59:25.529Z</time></trkpt><trkpt lat="43.2773224" lon="13.0506529"><ele>551.6</ele><time>2026-04-25T12:59:26.533Z</time></trkpt><trkpt lat="43.2774327" lon="13.050601"><ele>554.4</ele><time>2026-04-25T12:59:27.526Z</time></trkpt><trkpt lat="43.2775355" lon="13.050584"><ele>557.2</ele><time>2026-04-25T12:59:28.529Z</time></trkpt><trkpt lat="43.2776388" lon="13.0506112"><ele>560.0</ele><time>2026-04-25T12:59:29.529Z</time></trkpt><trkpt lat="43.2777403" lon="13.0506545"><ele>560.0</ele><time>2026-04-25T12:59:30.534Z</time></trkpt><trkpt lat="43.2778273" lon="13.0507439"><ele>560.0</ele><time>2026-04-25T12:59:31.531Z</time></trkpt><trkpt lat="43.2779157" lon="13.0508621"><ele>560.0</ele><time>2026-04-25T12:59:32.527Z</time></trkpt><trkpt lat="43.2780243" lon="13.0510131"><ele>560.0</ele><time>2026-04-25T12:59:33.528Z</time></trkpt><trkpt lat="43.2781559" lon="13.0511579"><ele>559.3333333333333</ele><time>2026-04-25T12:59:34.525Z</time></trkpt><trkpt lat="43.2783126" lon="13.0513037"><ele>558.6666666666666</ele><time>2026-04-25T12:59:35.531Z</time></trkpt><trkpt lat="43.2784316" lon="13.0514389"><ele>558.0</ele><time>2026-04-25T12:59:36.534Z</time></trkpt><trkpt lat="43.278558" lon="13.0515144"><ele>558.0</ele><time>2026-04-25T12:59:37.529Z</time></trkpt><trkpt lat="43.2786865" lon="13.0515901"><ele>558.0</ele><time>2026-04-25T12:59:38.53Z</time></trkpt><trkpt lat="43.2788169" lon="13.0516341"><ele>558.0</ele><time>2026-04-25T12:59:39.53Z</time></trkpt><trkpt lat="43.2789357" lon="13.05166"><ele>558.0</ele><time>2026-04-25T12:59:40.523Z</time></trkpt><trkpt lat="43.279058" lon="13.0516604"><ele>558.1999999999999</ele><time>2026-04-25T12:59:41.524Z</time></trkpt><trkpt lat="43.2791493" lon="13.0516296"><ele>558.4</ele><time>2026-04-25T12:59:42.524Z</time></trkpt><trkpt lat="43.2792238" lon="13.0515525"><ele>558.5999999999999</ele><time>2026-04-25T12:59:43.521Z</time></trkpt><trkpt lat="43.2792877" lon="13.0514171"><ele>558.8</ele><time>2026-04-25T12:59:44.526Z</time></trkpt><trkpt lat="43.2793278" lon="13.0512783"><ele>559.0</ele><time>2026-04-25T12:59:45.522Z</time></trkpt><trkpt lat="43.2793684" lon="13.0511383"><ele>559.0</ele><time>2026-04-25T12:59:46.526Z</time></trkpt><trkpt lat="43.279419" lon="13.0510303"><ele>559.0</ele><time>2026-04-25T12:59:47.522Z</time></trkpt><trkpt lat="43.279503" lon="13.050947"><ele>559.0</ele><time>2026-04-25T12:59:48.52Z</time></trkpt><trkpt lat="43.2796246" lon="13.0509037"><ele>559.0</ele><time>2026-04-25T12:59:49.519Z</time></trkpt><trkpt lat="43.2797675" lon="13.0508594"><ele>555.5</ele><time>2026-04-25T12:59:50.527Z</time></trkpt><trkpt lat="43.279915" lon="13.0507952"><ele>552.0</ele><time>2026-04-25T12:59:51.525Z</time></trkpt><trkpt lat="43.2800775" lon="13.0507382"><ele>548.5</ele><time>2026-04-25T12:59:52.523Z</time></trkpt><trkpt lat="43.2801922" lon="13.05069"><ele>545.0</ele><time>2026-04-25T12:59:53.524Z</time></trkpt><trkpt lat="43.2802847" lon="13.0506549"><ele>545.0</ele><time>2026-04-25T12:59:54.539Z</time></trkpt><trkpt lat="43.2803685" lon="13.0506363"><ele>545.0</ele><time>2026-04-25T12:59:55.529Z</time></trkpt><trkpt lat="43.2804575" lon="13.050683"><ele>545.0</ele><time>2026-04-25T12:59:56.501Z</time></trkpt><trkpt lat="43.2805396" lon="13.0507499"><ele>545.0</ele><time>2026-04-25T12:59:57.498Z</time></trkpt><trkpt lat="43.2806503" lon="13.050837"><ele>545.0</ele><time>2026-04-25T12:59:58.5Z</time></trkpt><trkpt lat="43.2807426" lon="13.0509638"><ele>553.25</ele><time>2026-04-25T12:59:59.499Z</time></trkpt><trkpt lat="43.2808264" lon="13.0510894"><ele>561.5</ele><time>2026-04-25T13:00:00.497Z</time></trkpt><trkpt lat="43.2809079" lon="13.051218"><ele>569.75</ele><time>2026-04-25T13:00:01.502Z</time></trkpt><trkpt lat="43.2809914" lon="13.051333"><ele>578.0</ele><time>2026-04-25T13:00:02.503Z</time></trkpt><trkpt lat="43.2810812" lon="13.0514166"><ele>578.0</ele><time>2026-04-25T13:00:03.497Z</time></trkpt><trkpt lat="43.2811924" lon="13.051455"><ele>578.0</ele><time>2026-04-25T13:00:04.494Z</time></trkpt><trkpt lat="43.2813245" lon="13.0514825"><ele>578.0</ele><time>2026-04-25T13:00:05.489Z</time></trkpt><trkpt lat="43.2814616" lon="13.0514652"><ele>578.0</ele><time>2026-04-25T13:00:06.489Z</time></trkpt><trkpt lat="43.281629" lon="13.0514197"><ele>578.0</ele><time>2026-04-25T13:00:07.486Z</time></trkpt><trkpt lat="43.2817945" lon="13.0513532"><ele>578.0</ele><time>2026-04-25T13:00:08.49Z</time></trkpt><trkpt lat="43.2819354" lon="13.0512684"><ele>578.0</ele><time>2026-04-25T13:00:09.487Z</time></trkpt><trkpt lat="43.2820914" lon="13.0512279"><ele>578.0</ele><time>2026-04-25T13:00:10.5Z</time></trkpt><trkpt lat="43.2821982" lon="13.0511504"><ele>578.0</ele><time>2026-04-25T13:00:11.5Z</time></trkpt><trkpt lat="43.2822902" lon="13.0510573"><ele>578.0</ele><time>2026-04-25T13:00:12.502Z</time></trkpt><trkpt lat="43.2823828" lon="13.0509848"><ele>578.0</ele><time>2026-04-25T13:00:13.508Z</time></trkpt><trkpt lat="43.282432" lon="13.0508934"><ele>578.0</ele><time>2026-04-25T13:00:14.506Z</time></trkpt><trkpt lat="43.2824701" lon="13.0507783"><ele>580.8333333333333</ele><time>2026-04-25T13:00:15.51Z</time></trkpt><trkpt lat="43.2824729" lon="13.0506757"><ele>583.6666666666666</ele><time>2026-04-25T13:00:16.502Z</time></trkpt><trkpt lat="43.2824363" lon="13.0505366"><ele>586.5</ele><time>2026-04-25T13:00:17.502Z</time></trkpt><trkpt lat="43.2823951" lon="13.0504068"><ele>589.3333333333334</ele><time>2026-04-25T13:00:18.511Z</time></trkpt><trkpt lat="43.2823898" lon="13.0503146"><ele>592.1666666666667</ele><time>2026-04-25T13:00:19.511Z</time></trkpt><trkpt lat="43.2824144" lon="13.0502174"><ele>595.0</ele><time>2026-04-25T13:00:20.512Z</time></trkpt><trkpt lat="43.282485" lon="13.0501217"><ele>595.0</ele><time>2026-04-25T13:00:21.511Z</time></trkpt><trkpt lat="43.2825824" lon="13.0500318"><ele>595.0</ele><time>2026-04-25T13:00:22.513Z</time></trkpt><trkpt lat="43.2827077" lon="13.049941"><ele>595.0</ele><time>2026-04-25T13:00:23.519Z</time></trkpt><trkpt lat="43.2828386" lon="13.0498501"><ele>595.0</ele><time>2026-04-25T13:00:24.519Z</time></trkpt><trkpt lat="43.2829686" lon="13.0497543"><ele>589.75</ele><time>2026-04-25T13:00:25.52Z</time></trkpt><trkpt lat="43.2830921" lon="13.0496595"><ele>584.5</ele><time>2026-04-25T13:00:26.512Z</time></trkpt><trkpt lat="43.2831652" lon="13.0495252"><ele>579.25</ele><time>2026-04-25T13:00:27.512Z</time></trkpt><trkpt lat="43.2832234" lon="13.0493718"><ele>574.0</ele><time>2026-04-25T13:00:28.513Z</time></trkpt><trkpt lat="43.2832606" lon="13.0492159"><ele>580.75</ele><time>2026-04-25T13:00:29.508Z</time></trkpt><trkpt lat="43.2832995" lon="13.0490804"><ele>587.5</ele><time>2026-04-25T13:00:30.511Z</time></trkpt><trkpt lat="43.2833852" lon="13.048943"><ele>594.25</ele><time>2026-04-25T13:00:31.514Z</time></trkpt><trkpt lat="43.2834874" lon="13.0488015"><ele>601.0</ele><time>2026-04-25T13:00:32.516Z</time></trkpt><trkpt lat="43.2835956" lon="13.0486871"><ele>601.0</ele><time>2026-04-25T13:00:33.513Z</time></trkpt><trkpt lat="43.2837125" lon="13.0485592"><ele>601.0</ele><time>2026-04-25T13:00:34.514Z</time></trkpt><trkpt lat="43.283843" lon="13.0484201"><ele>601.0</ele><time>2026-04-25T13:00:35.515Z</time></trkpt><trkpt lat="43.2839679" lon="13.048289"><ele>606.3333333333334</ele><time>2026-04-25T13:00:36.514Z</time></trkpt><trkpt lat="43.2841097" lon="13.0481509"><ele>611.6666666666666</ele><time>2026-04-25T13:00:37.516Z</time></trkpt><trkpt lat="43.2842606" lon="13.0480241"><ele>617.0</ele><time>2026-04-25T13:00:38.518Z</time></trkpt><trkpt lat="43.2843944" lon="13.047888"><ele>617.0</ele><time>2026-04-25T13:00:39.513Z</time></trkpt><trkpt lat="43.2845304" lon="13.0477813"><ele>617.0</ele><time>2026-04-25T13:00:40.518Z</time></trkpt><trkpt lat="43.2846716" lon="13.047674"><ele>617.0</ele><time>2026-04-25T13:00:41.517Z</time></trkpt><trkpt lat="43.2848317" lon="13.0475606"><ele>616.6666666666666</ele><time>2026-04-25T13:00:42.515Z</time></trkpt><trkpt lat="43.2850005" lon="13.0474379"><ele>616.3333333333334</ele><time>2026-04-25T13:00:43.513Z</time></trkpt><trkpt lat="43.2851831" lon="13.0473365"><ele>616.0</ele><time>2026-04-25T13:00:44.512Z</time></trkpt><trkpt lat="43.2853757" lon="13.0472442"><ele>616.0</ele><time>2026-04-25T13:00:45.511Z</time></trkpt><trkpt lat="43.2855646" lon="13.0471614"><ele>616.0</ele><time>2026-04-25T13:00:46.508Z</time></trkpt><trkpt lat="43.2857214" lon="13.0470928"><ele>616.0</ele><time>2026-04-25T13:00:47.51Z</time></trkpt><trkpt lat="43.2858472" lon="13.0470337"><ele>620.6666666666667</ele><time>2026-04-25T13:00:48.514Z</time></trkpt><trkpt lat="43.2859971" lon="13.0469962"><ele>625.3333333333334</ele><time>2026-04-25T13:00:49.51Z</time></trkpt><trkpt lat="43.2861472" lon="13.0469815"><ele>630.0</ele><time>2026-04-25T13:00:50.517Z</time></trkpt><trkpt lat="43.2863022" lon="13.0469765"><ele>631.0</ele><time>2026-04-25T13:00:51.507Z</time></trkpt><trkpt lat="43.2864508" lon="13.0469545"><ele>632.0</ele><time>2026-04-25T13:00:52.511Z</time></trkpt><trkpt lat="43.2865645" lon="13.046933"><ele>633.0</ele><time>2026-04-25T13:00:53.509Z</time></trkpt><trkpt lat="43.2866655" lon="13.0469232"><ele>634.0</ele><time>2026-04-25T13:00:54.507Z</time></trkpt><trkpt lat="43.2867482" lon="13.0469842"><ele>634.0</ele><time>2026-04-25T13:00:55.512Z</time></trkpt><trkpt lat="43.2868351" lon="13.0471197"><ele>634.0</ele><time>2026-04-25T13:00:56.5Z</time></trkpt><trkpt lat="43.2869634" lon="13.0472677"><ele>634.0</ele><time>2026-04-25T13:00:57.5Z</time></trkpt><trkpt lat="43.2870651" lon="13.0473637"><ele>634.0</ele><time>2026-04-25T13:00:58.5Z</time></trkpt><trkpt lat="43.2871215" lon="13.0474861"><ele>636.8</ele><time>2026-04-25T13:00:59.499Z</time></trkpt><trkpt lat="43.287144" lon="13.0475716"><ele>639.5999999999999</ele><time>2026-04-25T13:01:00.496Z</time></trkpt><trkpt lat="43.2871933" lon="13.047649"><ele>642.4</ele><time>2026-04-25T13:01:01.483Z</time></trkpt><trkpt lat="43.2873086" lon="13.0476239"><ele>645.1999999999999</ele><time>2026-04-25T13:01:02.492Z</time></trkpt><trkpt lat="43.287442" lon="13.047556"><ele>648.0</ele><time>2026-04-25T13:01:03.497Z</time></trkpt><trkpt lat="43.287554" lon="13.0474412"><ele>648.0</ele><time>2026-04-25T13:01:04.499Z</time></trkpt><trkpt lat="43.287629" lon="13.0472812"><ele>648.0</ele><time>2026-04-25T13:01:05.497Z</time></trkpt><trkpt lat="43.2876942" lon="13.0471204"><ele>648.0</ele><time>2026-04-25T13:01:06.503Z</time></trkpt><trkpt lat="43.2877799" lon="13.0469783"><ele>648.0</ele><time>2026-04-25T13:01:07.506Z</time></trkpt><trkpt lat="43.2878792" lon="13.0468569"><ele>648.0</ele><time>2026-04-25T13:01:08.502Z</time></trkpt><trkpt lat="43.2880158" lon="13.0467512"><ele>648.0</ele><time>2026-04-25T13:01:09.496Z</time></trkpt><trkpt lat="43.2881501" lon="13.0466422"><ele>648.0</ele><time>2026-04-25T13:01:10.507Z</time></trkpt><trkpt lat="43.2882726" lon="13.0465689"><ele>648.0</ele><time>2026-04-25T13:01:11.504Z</time></trkpt><trkpt lat="43.2884001" lon="13.0465364"><ele>647.25</ele><time>2026-04-25T13:01:12.507Z</time></trkpt><trkpt lat="43.2885212" lon="13.0464925"><ele>646.5</ele><time>2026-04-25T13:01:13.507Z</time></trkpt><trkpt lat="43.2886563" lon="13.0464678"><ele>645.75</ele><time>2026-04-25T13:01:14.506Z</time></trkpt><trkpt lat="43.2887935" lon="13.046474"><ele>645.0</ele><time>2026-04-25T13:01:15.504Z</time></trkpt><trkpt lat="43.2889105" lon="13.0464876"><ele>649.8</ele><time>2026-04-25T13:01:16.502Z</time></trkpt><trkpt lat="43.2889963" lon="13.0464576"><ele>654.6</ele><time>2026-04-25T13:01:17.497Z</time></trkpt><trkpt lat="43.2890724" lon="13.0464095"><ele>659.4000000000001</ele><time>2026-04-25T13:01:18.503Z</time></trkpt><trkpt lat="43.2891536" lon="13.0463273"><ele>664.2</ele><time>2026-04-25T13:01:19.498Z</time></trkpt><trkpt lat="43.2892773" lon="13.0462065"><ele>669.0</ele><time>2026-04-25T13:01:20.507Z</time></trkpt><trkpt lat="43.2894055" lon="13.0461151"><ele>669.0</ele><time>2026-04-25T13:01:21.503Z</time></trkpt><trkpt lat="43.2895306" lon="13.0460669"><ele>669.0</ele><time>2026-04-25T13:01:22.507Z</time></trkpt><trkpt lat="43.2896553" lon="13.0460397"><ele>669.0</ele><time>2026-04-25T13:01:23.507Z</time></trkpt><trkpt lat="43.2897751" lon="13.0460225"><ele>669.0</ele><time>2026-04-25T13:01:24.511Z</time></trkpt><trkpt lat="43.2898954" lon="13.0460083"><ele>673.25</ele><time>2026-04-25T13:01:25.513Z</time></trkpt><trkpt lat="43.2900172" lon="13.0460057"><ele>677.5</ele><time>2026-04-25T13:01:26.51Z</time></trkpt><trkpt lat="43.2901482" lon="13.045997"><ele>681.75</ele><time>2026-04-25T13:01:27.508Z</time></trkpt><trkpt lat="43.2902742" lon="13.0459818"><ele>686.0</ele><time>2026-04-25T13:01:28.507Z</time></trkpt><trkpt lat="43.2904119" lon="13.0459854"><ele>686.0</ele><time>2026-04-25T13:01:29.506Z</time></trkpt><trkpt lat="43.2905476" lon="13.0460153"><ele>686.0</ele><time>2026-04-25T13:01:30.5Z</time></trkpt><trkpt lat="43.2906911" lon="13.0460996"><ele>686.0</ele><time>2026-04-25T13:01:31.494Z</time></trkpt><trkpt lat="43.2908454" lon="13.0462145"><ele>687.5</ele><time>2026-04-25T13:01:32.502Z</time></trkpt><trkpt lat="43.2909724" lon="13.0463247"><ele>689.0</ele><time>2026-04-25T13:01:33.493Z</time></trkpt><trkpt lat="43.2910645" lon="13.0464209"><ele>690.5</ele><time>2026-04-25T13:01:34.482Z</time></trkpt><trkpt lat="43.2911424" lon="13.0465481"><ele>692.0</ele><time>2026-04-25T13:01:35.481Z</time></trkpt><trkpt lat="43.2912223" lon="13.0466856"><ele>694.0</ele><time>2026-04-25T13:01:36.497Z</time></trkpt><trkpt lat="43.2913306" lon="13.0467829"><ele>696.0</ele><time>2026-04-25T13:01:37.493Z</time></trkpt><trkpt lat="43.2914614" lon="13.0468811"><ele>698.0</ele><time>2026-04-25T13:01:38.494Z</time></trkpt><trkpt lat="43.2915677" lon="13.0469957"><ele>700.0</ele><time>2026-04-25T13:01:39.487Z</time></trkpt><trkpt lat="43.2916735" lon="13.0471054"><ele>700.0</ele><time>2026-04-25T13:01:40.487Z</time></trkpt><trkpt lat="43.291807" lon="13.0472222"><ele>700.0</ele><time>2026-04-25T13:01:41.498Z</time></trkpt><trkpt lat="43.2919506" lon="13.0473507"><ele>700.0</ele><time>2026-04-25T13:01:42.497Z</time></trkpt><trkpt lat="43.2920852" lon="13.0474424"><ele>707.2</ele><time>2026-04-25T13:01:43.5Z</time></trkpt><trkpt lat="43.29218" lon="13.0475282"><ele>714.4</ele><time>2026-04-25T13:01:44.493Z</time></trkpt><trkpt lat="43.2922926" lon="13.0475719"><ele>721.5999999999999</ele><time>2026-04-25T13:01:45.499Z</time></trkpt><trkpt lat="43.2923459" lon="13.0476243"><ele>728.8</ele><time>2026-04-25T13:01:46.492Z</time></trkpt><trkpt lat="43.2924152" lon="13.0476391"><ele>736.0</ele><time>2026-04-25T13:01:47.491Z</time></trkpt><trkpt lat="43.2924932" lon="13.0475649"><ele>736.0</ele><time>2026-04-25T13:01:48.496Z</time></trkpt><trkpt lat="43.2925863" lon="13.0474658"><ele>736.0</ele><time>2026-04-25T13:01:49.503Z</time></trkpt><trkpt lat="43.2926426" lon="13.047362"><ele>736.0</ele><time>2026-04-25T13:01:50.5Z</time></trkpt><trkpt lat="43.292726" lon="13.0472253"><ele>736.0</ele><time>2026-04-25T13:01:51.509Z</time></trkpt><trkpt lat="43.2928217" lon="13.0470509"><ele>732.6666666666667</ele><time>2026-04-25T13:01:52.51Z</time></trkpt><trkpt lat="43.2929337" lon="13.0468814"><ele>729.3333333333334</ele><time>2026-04-25T13:01:53.519Z</time></trkpt><trkpt lat="43.2930499" lon="13.0467185"><ele>726.0</ele><time>2026-04-25T13:01:54.505Z</time></trkpt><trkpt lat="43.2931368" lon="13.046525"><ele>726.0</ele><time>2026-04-25T13:01:55.504Z</time></trkpt><trkpt lat="43.29326" lon="13.0463583"><ele>726.0</ele><time>2026-04-25T13:01:56.498Z</time></trkpt><trkpt lat="43.2933467" lon="13.0461893"><ele>726.0</ele><time>2026-04-25T13:01:57.501Z</time></trkpt><trkpt lat="43.2934373" lon="13.046014"><ele>726.0</ele><time>2026-04-25T13:01:58.499Z</time></trkpt><trkpt lat="43.2935017" lon="13.0458709"><ele>726.0</ele><time>2026-04-25T13:01:59.501Z</time></trkpt><trkpt lat="43.2935539" lon="13.0457182"><ele>726.0</ele><time>2026-04-25T13:02:00.498Z</time></trkpt><trkpt lat="43.2936434" lon="13.0455823"><ele>726.0</ele><time>2026-04-25T13:02:01.5Z</time></trkpt><trkpt lat="43.2937719" lon="13.0454928"><ele>730.25</ele><time>2026-04-25T13:02:02.498Z</time></trkpt><trkpt lat="43.2938827" lon="13.0453877"><ele>734.5</ele><time>2026-04-25T13:02:03.498Z</time></trkpt><trkpt lat="43.2940128" lon="13.0453208"><ele>738.75</ele><time>2026-04-25T13:02:04.495Z</time></trkpt><trkpt lat="43.2941303" lon="13.0452311"><ele>743.0</ele><time>2026-04-25T13:02:05.498Z</time></trkpt><trkpt lat="43.2942446" lon="13.0451675"><ele>743.0</ele><time>2026-04-25T13:02:06.498Z</time></trkpt><trkpt lat="43.2944032" lon="13.0451251"><ele>743.0</ele><time>2026-04-25T13:02:07.502Z</time></trkpt><trkpt lat="43.2945885" lon="13.0451045"><ele>743.0</ele><time>2026-04-25T13:02:08.499Z</time></trkpt><trkpt lat="43.2947527" lon="13.0450581"><ele>741.0</ele><time>2026-04-25T13:02:09.499Z</time></trkpt><trkpt lat="43.2949143" lon="13.0450156"><ele>739.0</ele><time>2026-04-25T13:02:10.494Z</time></trkpt><trkpt lat="43.2950833" lon="13.0449226"><ele>737.0</ele><time>2026-04-25T13:02:11.496Z</time></trkpt><trkpt lat="43.2952212" lon="13.0448014"><ele>737.0</ele><time>2026-04-25T13:02:12.496Z</time></trkpt><trkpt lat="43.2953724" lon="13.0446999"><ele>737.0</ele><time>2026-04-25T13:02:13.495Z</time></trkpt><trkpt lat="43.2955475" lon="13.044649"><ele>737.0</ele><time>2026-04-25T13:02:14.497Z</time></trkpt><trkpt lat="43.2957033" lon="13.0445862"><ele>745.0</ele><time>2026-04-25T13:02:15.495Z</time></trkpt><trkpt lat="43.2958636" lon="13.0445226"><ele>753.0</ele><time>2026-04-25T13:02:16.518Z</time></trkpt><trkpt lat="43.2960134" lon="13.0444488"><ele>761.0</ele><time>2026-04-25T13:02:17.495Z</time></trkpt><trkpt lat="43.2961859" lon="13.044396"><ele>761.0</ele><time>2026-04-25T13:02:18.493Z</time></trkpt><trkpt lat="43.2963198" lon="13.0443391"><ele>761.0</ele><time>2026-04-25T13:02:19.492Z</time></trkpt><trkpt lat="43.2964668" lon="13.0443138"><ele>761.0</ele><time>2026-04-25T13:02:20.505Z</time></trkpt><trkpt lat="43.2966516" lon="13.0443088"><ele>765.75</ele><time>2026-04-25T13:02:21.504Z</time></trkpt><trkpt lat="43.296801" lon="13.0443045"><ele>770.5</ele><time>2026-04-25T13:02:22.5Z</time></trkpt><trkpt lat="43.2969385" lon="13.0443002"><ele>775.25</ele><time>2026-04-25T13:02:23.501Z</time></trkpt><trkpt lat="43.2970504" lon="13.0442926"><ele>780.0</ele><time>2026-04-25T13:02:24.504Z</time></trkpt><trkpt lat="43.2971668" lon="13.0442891"><ele>780.0</ele><time>2026-04-25T13:02:25.508Z</time></trkpt><trkpt lat="43.297249" lon="13.0443026"><ele>780.0</ele><time>2026-04-25T13:02:26.509Z</time></trkpt><trkpt lat="43.2973156" lon="13.0443295"><ele>780.0</ele><time>2026-04-25T13:02:27.508Z</time></trkpt><trkpt lat="43.2973749" lon="13.0443713"><ele>780.0</ele><time>2026-04-25T13:02:28.509Z</time></trkpt><trkpt lat="43.2974056" lon="13.0444756"><ele>780.0</ele><time>2026-04-25T13:02:30.505Z</time></trkpt><trkpt lat="43.2973126" lon="13.0445333"><ele>780.0</ele><time>2026-04-25T13:02:32.502Z</time></trkpt><trkpt lat="43.2972077" lon="13.044563"><ele>780.0</ele><time>2026-04-25T13:02:34.502Z</time></trkpt><trkpt lat="43.2970576" lon="13.0444553"><ele>780.0</ele><time>2026-04-25T13:02:36.509Z</time></trkpt><trkpt lat="43.2969155" lon="13.0444621"><ele>780.0</ele><time>2026-04-25T13:02:37.505Z</time></trkpt><trkpt lat="43.2967769" lon="13.0445222"><ele>780.0</ele><time>2026-04-25T13:02:38.502Z</time></trkpt><trkpt lat="43.2966516" lon="13.0445935"><ele>780.0</ele><time>2026-04-25T13:02:39.5Z</time></trkpt><trkpt lat="43.2965037" lon="13.0447432"><ele>780.0</ele><time>2026-04-25T13:02:40.504Z</time></trkpt><trkpt lat="43.2963597" lon="13.0449168"><ele>783.0</ele><time>2026-04-25T13:02:41.503Z</time></trkpt><trkpt lat="43.2962199" lon="13.0451331"><ele>786.0</ele><time>2026-04-25T13:02:42.504Z</time></trkpt><trkpt lat="43.2961133" lon="13.0453204"><ele>789.0</ele><time>2026-04-25T13:02:43.506Z</time></trkpt><trkpt lat="43.2960098" lon="13.0454971"><ele>789.0</ele><time>2026-04-25T13:02:44.507Z</time></trkpt><trkpt lat="43.2959209" lon="13.0456758"><ele>789.0</ele><time>2026-04-25T13:02:45.506Z</time></trkpt><trkpt lat="43.2958266" lon="13.0458316"><ele>789.0</ele><time>2026-04-25T13:02:46.499Z</time></trkpt><trkpt lat="43.295725" lon="13.0459765"><ele>789.3333333333333</ele><time>2026-04-25T13:02:47.526Z</time></trkpt><trkpt lat="43.2955884" lon="13.0461115"><ele>789.6666666666666</ele><time>2026-04-25T13:02:48.506Z</time></trkpt><trkpt lat="43.2954589" lon="13.0462441"><ele>790.0</ele><time>2026-04-25T13:02:49.512Z</time></trkpt><trkpt lat="43.2953281" lon="13.0463779"><ele>790.0</ele><time>2026-04-25T13:02:50.508Z</time></trkpt><trkpt lat="43.2951949" lon="13.0465264"><ele>790.0</ele><time>2026-04-25T13:02:51.507Z</time></trkpt><trkpt lat="43.2950581" lon="13.0466507"><ele>790.0</ele><time>2026-04-25T13:02:52.512Z</time></trkpt><trkpt lat="43.2949422" lon="13.0467774"><ele>790.25</ele><time>2026-04-25T13:02:53.502Z</time></trkpt><trkpt lat="43.2948278" lon="13.0468971"><ele>790.5</ele><time>2026-04-25T13:02:54.504Z</time></trkpt><trkpt lat="43.294735" lon="13.0470315"><ele>790.75</ele><time>2026-04-25T13:02:55.507Z</time></trkpt><trkpt lat="43.2946356" lon="13.0471363"><ele>791.0</ele><time>2026-04-25T13:02:56.501Z</time></trkpt><trkpt lat="43.2945518" lon="13.0472393"><ele>791.0000000000001</ele><time>2026-04-25T13:02:57.503Z</time></trkpt><trkpt lat="43.2944878" lon="13.0473409"><ele>791.0</ele><time>2026-04-25T13:02:58.493Z</time></trkpt><trkpt lat="43.2944573" lon="13.0474314"><ele>791.0</ele><time>2026-04-25T13:02:59.503Z</time></trkpt><trkpt lat="43.2944196" lon="13.0475098"><ele>791.0</ele><time>2026-04-25T13:03:00.5Z</time></trkpt><trkpt lat="43.2944625" lon="13.0476059"><ele>791.0000000000001</ele><time>2026-04-25T13:03:02.502Z</time></trkpt><trkpt lat="43.2945376" lon="13.0476097"><ele>791.0</ele><time>2026-04-25T13:03:03.503Z</time></trkpt><trkpt lat="43.294606" lon="13.0475715"><ele>791.0</ele><time>2026-04-25T13:03:04.501Z</time></trkpt><trkpt lat="43.2946718" lon="13.0474975"><ele>791.0</ele><time>2026-04-25T13:03:05.495Z</time></trkpt><trkpt lat="43.2947398" lon="13.047375"><ele>791.0</ele><time>2026-04-25T13:03:06.503Z</time></trkpt><trkpt lat="43.2948169" lon="13.0472642"><ele>791.0</ele><time>2026-04-25T13:03:07.507Z</time></trkpt><trkpt lat="43.2949046" lon="13.0471683"><ele>791.0</ele><time>2026-04-25T13:03:08.506Z</time></trkpt><trkpt lat="43.2950105" lon="13.0470919"><ele>799.3333333333334</ele><time>2026-04-25T13:03:09.503Z</time></trkpt><trkpt lat="43.2951439" lon="13.0470342"><ele>807.6666666666667</ele><time>2026-04-25T13:03:10.504Z</time></trkpt><trkpt lat="43.2952926" lon="13.0469878"><ele>816.0</ele><time>2026-04-25T13:03:11.529Z</time></trkpt><trkpt lat="43.2954676" lon="13.046956"><ele>821.0</ele><time>2026-04-25T13:03:12.531Z</time></trkpt><trkpt lat="43.2956119" lon="13.0468922"><ele>826.0</ele><time>2026-04-25T13:03:13.538Z</time></trkpt><trkpt lat="43.2957705" lon="13.0468356"><ele>831.0</ele><time>2026-04-25T13:03:14.54Z</time></trkpt><trkpt lat="43.2959291" lon="13.0467861"><ele>831.0</ele><time>2026-04-25T13:03:15.547Z</time></trkpt><trkpt lat="43.2960932" lon="13.0467378"><ele>831.0</ele><time>2026-04-25T13:03:16.545Z</time></trkpt><trkpt lat="43.2962593" lon="13.0466963"><ele>831.0</ele><time>2026-04-25T13:03:17.544Z</time></trkpt><trkpt lat="43.2964165" lon="13.0466485"><ele>830.0</ele><time>2026-04-25T13:03:18.545Z</time></trkpt><trkpt lat="43.2965698" lon="13.0465967"><ele>829.0</ele><time>2026-04-25T13:03:19.539Z</time></trkpt><trkpt lat="43.2967205" lon="13.0465701"><ele>828.0</ele><time>2026-04-25T13:03:20.54Z</time></trkpt><trkpt lat="43.2968432" lon="13.0465483"><ele>827.0</ele><time>2026-04-25T13:03:21.536Z</time></trkpt><trkpt lat="43.2969714" lon="13.0465118"><ele>827.0</ele><time>2026-04-25T13:03:22.54Z</time></trkpt><trkpt lat="43.2971131" lon="13.0465071"><ele>827.0</ele><time>2026-04-25T13:03:23.544Z</time></trkpt><trkpt lat="43.2972387" lon="13.0465148"><ele>827.0</ele><time>2026-04-25T13:03:24.537Z</time></trkpt><trkpt lat="43.297376" lon="13.0465526"><ele>827.0</ele><time>2026-04-25T13:03:25.539Z</time></trkpt><trkpt lat="43.2975018" lon="13.0466676"><ele>834.0</ele><time>2026-04-25T13:03:26.537Z</time></trkpt><trkpt lat="43.2976326" lon="13.0467641"><ele>841.0</ele><time>2026-04-25T13:03:27.535Z</time></trkpt><trkpt lat="43.2977773" lon="13.0468932"><ele>848.0</ele><time>2026-04-25T13:03:28.533Z</time></trkpt><trkpt lat="43.2978905" lon="13.0470302"><ele>848.0</ele><time>2026-04-25T13:03:29.54Z</time></trkpt><trkpt lat="43.2979859" lon="13.0471785"><ele>848.0</ele><time>2026-04-25T13:03:30.526Z</time></trkpt><trkpt lat="43.2980754" lon="13.0473165"><ele>848.0</ele><time>2026-04-25T13:03:31.536Z</time></trkpt><trkpt lat="43.2981824" lon="13.04746"><ele>848.0</ele><time>2026-04-25T13:03:32.531Z</time></trkpt><trkpt lat="43.2982705" lon="13.0476112"><ele>851.3333333333334</ele><time>2026-04-25T13:03:33.536Z</time></trkpt><trkpt lat="43.2983207" lon="13.047785"><ele>854.6666666666667</ele><time>2026-04-25T13:03:34.529Z</time></trkpt><trkpt lat="43.2983943" lon="13.0479708"><ele>858.0</ele><time>2026-04-25T13:03:35.533Z</time></trkpt><trkpt lat="43.2984969" lon="13.0481673"><ele>862.6666666666667</ele><time>2026-04-25T13:03:36.527Z</time></trkpt><trkpt lat="43.298569" lon="13.0483871"><ele>867.3333333333334</ele><time>2026-04-25T13:03:37.528Z</time></trkpt><trkpt lat="43.2986159" lon="13.0486004"><ele>872.0</ele><time>2026-04-25T13:03:38.523Z</time></trkpt><trkpt lat="43.298704" lon="13.0487736"><ele>872.0</ele><time>2026-04-25T13:03:39.507Z</time></trkpt><trkpt lat="43.2987776" lon="13.0489402"><ele>872.0</ele><time>2026-04-25T13:03:40.511Z</time></trkpt><trkpt lat="43.2988389" lon="13.0491098"><ele>872.0</ele><time>2026-04-25T13:03:41.508Z</time></trkpt><trkpt lat="43.2988912" lon="13.0492875"><ele>872.0</ele><time>2026-04-25T13:03:42.527Z</time></trkpt><trkpt lat="43.2989336" lon="13.0494656"><ele>872.0</ele><time>2026-04-25T13:03:43.529Z</time></trkpt><trkpt lat="43.2989708" lon="13.0496508"><ele>872.0</ele><time>2026-04-25T13:03:44.523Z</time></trkpt><trkpt lat="43.2990287" lon="13.0498154"><ele>872.0</ele><time>2026-04-25T13:03:45.538Z</time></trkpt><trkpt lat="43.2991083" lon="13.0499758"><ele>872.0</ele><time>2026-04-25T13:03:46.527Z</time></trkpt><trkpt lat="43.2991133" lon="13.0501386"><ele>872.0</ele><time>2026-04-25T13:03:47.502Z</time></trkpt><trkpt lat="43.2991398" lon="13.0503034"><ele>872.0</ele><time>2026-04-25T13:03:48.502Z</time></trkpt><trkpt lat="43.2991772" lon="13.0504267"><ele>872.0</ele><time>2026-04-25T13:03:49.507Z</time></trkpt><trkpt lat="43.2991641" lon="13.0505742"><ele>872.0</ele><time>2026-04-25T13:03:50.5Z</time></trkpt><trkpt lat="43.2992364" lon="13.0507127"><ele>873.6</ele><time>2026-04-25T13:03:51.506Z</time></trkpt><trkpt lat="43.299289" lon="13.0508514"><ele>875.2</ele><time>2026-04-25T13:03:52.495Z</time></trkpt><trkpt lat="43.2992839" lon="13.0510175"><ele>876.8</ele><time>2026-04-25T13:03:53.496Z</time></trkpt><trkpt lat="43.299268" lon="13.0511309"><ele>878.4</ele><time>2026-04-25T13:03:54.492Z</time></trkpt><trkpt lat="43.2992757" lon="13.0512213"><ele>880.0</ele><time>2026-04-25T13:03:55.488Z</time></trkpt><trkpt lat="43.2993077" lon="13.051342"><ele>880.0</ele><time>2026-04-25T13:03:56.492Z</time></trkpt><trkpt lat="43.2993804" lon="13.0514762"><ele>880.0</ele><time>2026-04-25T13:03:57.487Z</time></trkpt><trkpt lat="43.2994628" lon="13.0515817"><ele>880.0</ele><time>2026-04-25T13:03:58.493Z</time></trkpt><trkpt lat="43.2995764" lon="13.0516802"><ele>880.0</ele><time>2026-04-25T13:03:59.489Z</time></trkpt><trkpt lat="43.2996934" lon="13.0517569"><ele>878.25</ele><time>2026-04-25T13:04:00.525Z</time></trkpt><trkpt lat="43.2998123" lon="13.0518124"><ele>876.5</ele><time>2026-04-25T13:04:01.492Z</time></trkpt><trkpt lat="43.2999323" lon="13.0518506"><ele>874.75</ele><time>2026-04-25T13:04:02.527Z</time></trkpt><trkpt lat="43.30004" lon="13.0518687"><ele>873.0</ele><time>2026-04-25T13:04:03.523Z</time></trkpt><trkpt lat="43.3001449" lon="13.0518971"><ele>873.0</ele><time>2026-04-25T13:04:04.522Z</time></trkpt><trkpt lat="43.3002475" lon="13.0519328"><ele>873.0</ele><time>2026-04-25T13:04:05.523Z</time></trkpt><trkpt lat="43.3003303" lon="13.0520024"><ele>873.0</ele><time>2026-04-25T13:04:06.526Z</time></trkpt><trkpt lat="43.3003928" lon="13.0521069"><ele>873.0</ele><time>2026-04-25T13:04:07.518Z</time></trkpt><trkpt lat="43.3004481" lon="13.0522291"><ele>873.0</ele><time>2026-04-25T13:04:08.521Z</time></trkpt><trkpt lat="43.3004808" lon="13.0523707"><ele>872.75</ele><time>2026-04-25T13:04:09.499Z</time></trkpt><trkpt lat="43.3005417" lon="13.0525266"><ele>872.5</ele><time>2026-04-25T13:04:10.503Z</time></trkpt><trkpt lat="43.3005764" lon="13.0526794"><ele>872.25</ele><time>2026-04-25T13:04:11.495Z</time></trkpt><trkpt lat="43.300637" lon="13.0528627"><ele>872.0</ele><time>2026-04-25T13:04:12.523Z</time></trkpt><trkpt lat="43.300679" lon="13.0530386"><ele>876.0</ele><time>2026-04-25T13:04:13.513Z</time></trkpt><trkpt lat="43.3007581" lon="13.0532297"><ele>880.0</ele><time>2026-04-25T13:04:14.498Z</time></trkpt><trkpt lat="43.3008326" lon="13.0533691"><ele>884.0</ele><time>2026-04-25T13:04:15.49Z</time></trkpt><trkpt lat="43.3009322" lon="13.0535039"><ele>888.0</ele><time>2026-04-25T13:04:16.495Z</time></trkpt><trkpt lat="43.3010579" lon="13.0536101"><ele>888.0</ele><time>2026-04-25T13:04:17.524Z</time></trkpt><trkpt lat="43.3012068" lon="13.0536855"><ele>888.0</ele><time>2026-04-25T13:04:18.521Z</time></trkpt><trkpt lat="43.3013257" lon="13.053739"><ele>888.0</ele><time>2026-04-25T13:04:19.524Z</time></trkpt><trkpt lat="43.3014198" lon="13.053773"><ele>888.0</ele><time>2026-04-25T13:04:20.524Z</time></trkpt><trkpt lat="43.3015043" lon="13.0537756"><ele>890.6666666666666</ele><time>2026-04-25T13:04:21.533Z</time></trkpt><trkpt lat="43.3015613" lon="13.053738"><ele>893.3333333333333</ele><time>2026-04-25T13:04:22.531Z</time></trkpt><trkpt lat="43.301609" lon="13.0536594"><ele>896.0</ele><time>2026-04-25T13:04:23.532Z</time></trkpt><trkpt lat="43.3016402" lon="13.0535513"><ele>898.6666666666666</ele><time>2026-04-25T13:04:24.516Z</time></trkpt><trkpt lat="43.3016287" lon="13.053449"><ele>901.3333333333333</ele><time>2026-04-25T13:04:25.528Z</time></trkpt><trkpt lat="43.301549" lon="13.0533418"><ele>904.0</ele><time>2026-04-25T13:04:26.525Z</time></trkpt><trkpt lat="43.3014367" lon="13.0532574"><ele>900.5</ele><time>2026-04-25T13:04:27.523Z</time></trkpt><trkpt lat="43.3013419" lon="13.0531574"><ele>897.0</ele><time>2026-04-25T13:04:28.516Z</time></trkpt><trkpt lat="43.3012613" lon="13.0530536"><ele>893.5</ele><time>2026-04-25T13:04:29.52Z</time></trkpt><trkpt lat="43.3012033" lon="13.0529243"><ele>890.0</ele><time>2026-04-25T13:04:30.526Z</time></trkpt><trkpt lat="43.3011642" lon="13.0527728"><ele>890.0</ele><time>2026-04-25T13:04:31.527Z</time></trkpt><trkpt lat="43.3011516" lon="13.052613"><ele>890.0</ele><time>2026-04-25T13:04:32.525Z</time></trkpt><trkpt lat="43.3011726" lon="13.0524613"><ele>890.0</ele><time>2026-04-25T13:04:33.521Z</time></trkpt><trkpt lat="43.3012337" lon="13.0523139"><ele>890.0</ele><time>2026-04-25T13:04:34.499Z</time></trkpt><trkpt lat="43.3013114" lon="13.0522184"><ele>888.4</ele><time>2026-04-25T13:04:35.495Z</time></trkpt><trkpt lat="43.3013854" lon="13.0521539"><ele>886.8</ele><time>2026-04-25T13:04:36.499Z</time></trkpt><trkpt lat="43.3014932" lon="13.0521482"><ele>885.2</ele><time>2026-04-25T13:04:37.494Z</time></trkpt><trkpt lat="43.3016204" lon="13.0521761"><ele>883.6</ele><time>2026-04-25T13:04:38.504Z</time></trkpt><trkpt lat="43.3017368" lon="13.0522334"><ele>882.0</ele><time>2026-04-25T13:04:39.494Z</time></trkpt><trkpt lat="43.3018571" lon="13.0523214"><ele>886.0</ele><time>2026-04-25T13:04:40.497Z</time></trkpt><trkpt lat="43.3019956" lon="13.0524076"><ele>890.0</ele><time>2026-04-25T13:04:41.518Z</time></trkpt><trkpt lat="43.3021323" lon="13.052492"><ele>894.0</ele><time>2026-04-25T13:04:42.522Z</time></trkpt><trkpt lat="43.3022558" lon="13.0525887"><ele>898.0</ele><time>2026-04-25T13:04:43.525Z</time></trkpt><trkpt lat="43.3023773" lon="13.05271"><ele>906.3333333333333</ele><time>2026-04-25T13:04:44.524Z</time></trkpt><trkpt lat="43.3025026" lon="13.0528341"><ele>914.6666666666667</ele><time>2026-04-25T13:04:45.519Z</time></trkpt><trkpt lat="43.302627" lon="13.0529721"><ele>923.0</ele><time>2026-04-25T13:04:46.523Z</time></trkpt><trkpt lat="43.3027007" lon="13.0531317"><ele>923.0</ele><time>2026-04-25T13:04:47.518Z</time></trkpt><trkpt lat="43.3027816" lon="13.0532437"><ele>923.0</ele><time>2026-04-25T13:04:48.506Z</time></trkpt><trkpt lat="43.3029079" lon="13.0533389"><ele>923.0</ele><time>2026-04-25T13:04:49.52Z</time></trkpt><trkpt lat="43.3030411" lon="13.053383"><ele>923.0</ele><time>2026-04-25T13:04:50.516Z</time></trkpt><trkpt lat="43.3031888" lon="13.0534114"><ele>928.6666666666667</ele><time>2026-04-25T13:04:51.511Z</time></trkpt><trkpt lat="43.3033707" lon="13.0534675"><ele>934.3333333333333</ele><time>2026-04-25T13:04:52.486Z</time></trkpt><trkpt lat="43.3035327" lon="13.0535203"><ele>940.0</ele><time>2026-04-25T13:04:53.508Z</time></trkpt><trkpt lat="43.3037113" lon="13.0535995"><ele>940.0</ele><time>2026-04-25T13:04:54.489Z</time></trkpt><trkpt lat="43.3038477" lon="13.0535936"><ele>940.0</ele><time>2026-04-25T13:04:55.518Z</time></trkpt><trkpt lat="43.3039939" lon="13.0536475"><ele>940.0</ele><time>2026-04-25T13:04:56.503Z</time></trkpt><trkpt lat="43.3041388" lon="13.0537922"><ele>942.0</ele><time>2026-04-25T13:04:57.5Z</time></trkpt><trkpt lat="43.3042766" lon="13.0539463"><ele>944.0</ele><time>2026-04-25T13:04:58.501Z</time></trkpt><trkpt lat="43.3043873" lon="13.0540847"><ele>946.0</ele><time>2026-04-25T13:04:59.504Z</time></trkpt><trkpt lat="43.3044964" lon="13.0542357"><ele>946.0</ele><time>2026-04-25T13:05:00.498Z</time></trkpt><trkpt lat="43.3046038" lon="13.0543805"><ele>946.0</ele><time>2026-04-25T13:05:01.497Z</time></trkpt><trkpt lat="43.3047194" lon="13.0545356"><ele>946.0</ele><time>2026-04-25T13:05:02.501Z</time></trkpt><trkpt lat="43.3048109" lon="13.0546923"><ele>954.6666666666666</ele><time>2026-04-25T13:05:03.499Z</time></trkpt><trkpt lat="43.3049055" lon="13.0548531"><ele>963.3333333333333</ele><time>2026-04-25T13:05:04.52Z</time></trkpt><trkpt lat="43.3049771" lon="13.0550489"><ele>972.0</ele><time>2026-04-25T13:05:05.523Z</time></trkpt><trkpt lat="43.3050456" lon="13.0552928"><ele>972.0</ele><time>2026-04-25T13:05:06.495Z</time></trkpt><trkpt lat="43.3051155" lon="13.0555364"><ele>972.0</ele><time>2026-04-25T13:05:07.52Z</time></trkpt><trkpt lat="43.3051967" lon="13.0557893"><ele>972.0</ele><time>2026-04-25T13:05:08.502Z</time></trkpt><trkpt lat="43.3053028" lon="13.0560316"><ele>965.0</ele><time>2026-04-25T13:05:09.503Z</time></trkpt><trkpt lat="43.3054551" lon="13.0561704"><ele>958.0</ele><time>2026-04-25T13:05:10.503Z</time></trkpt><trkpt lat="43.3055934" lon="13.0563306"><ele>951.0</ele><time>2026-04-25T13:05:11.505Z</time></trkpt><trkpt lat="43.3057251" lon="13.0564953"><ele>959.0</ele><time>2026-04-25T13:05:12.505Z</time></trkpt><trkpt lat="43.3058369" lon="13.0567551"><ele>967.0</ele><time>2026-04-25T13:05:13.497Z</time></trkpt><trkpt lat="43.3059417" lon="13.0569373"><ele>975.0</ele><time>2026-04-25T13:05:14.494Z</time></trkpt><trkpt lat="43.3060224" lon="13.0572141"><ele>975.0</ele><time>2026-04-25T13:05:15.497Z</time></trkpt><trkpt lat="43.3061528" lon="13.0574519"><ele>975.0</ele><time>2026-04-25T13:05:16.498Z</time></trkpt><trkpt lat="43.306255" lon="13.0576157"><ele>975.0</ele><time>2026-04-25T13:05:17.495Z</time></trkpt><trkpt lat="43.3063675" lon="13.0577207"><ele>981.0</ele><time>2026-04-25T13:05:18.494Z</time></trkpt><trkpt lat="43.3064682" lon="13.0577915"><ele>987.0</ele><time>2026-04-25T13:05:19.49Z</time></trkpt><trkpt lat="43.3065962" lon="13.0578759"><ele>993.0</ele><time>2026-04-25T13:05:20.491Z</time></trkpt><trkpt lat="43.3067705" lon="13.0579488"><ele>999.0</ele><time>2026-04-25T13:05:21.514Z</time></trkpt><trkpt lat="43.3069112" lon="13.0580183"><ele>999.0</ele><time>2026-04-25T13:05:22.514Z</time></trkpt><trkpt lat="43.3070537" lon="13.0580738"><ele>999.0</ele><time>2026-04-25T13:05:23.517Z</time></trkpt><trkpt lat="43.3072116" lon="13.058107"><ele>999.0</ele><time>2026-04-25T13:05:24.518Z</time></trkpt><trkpt lat="43.3073741" lon="13.058136"><ele>997.6666666666667</ele><time>2026-04-25T13:05:25.515Z</time></trkpt><trkpt lat="43.30754" lon="13.0581875"><ele>996.3333333333334</ele><time>2026-04-25T13:05:26.521Z</time></trkpt><trkpt lat="43.3077201" lon="13.0582405"><ele>995.0</ele><time>2026-04-25T13:05:27.519Z</time></trkpt><trkpt lat="43.3079209" lon="13.0583122"><ele>1003.3333333333334</ele><time>2026-04-25T13:05:28.522Z</time></trkpt><trkpt lat="43.3081031" lon="13.0583621"><ele>1011.6666666666667</ele><time>2026-04-25T13:05:29.523Z</time></trkpt><trkpt lat="43.3082872" lon="13.0584125"><ele>1020.0</ele><time>2026-04-25T13:05:30.545Z</time></trkpt><trkpt lat="43.3084915" lon="13.0584506"><ele>1020.0</ele><time>2026-04-25T13:05:31.522Z</time></trkpt><trkpt lat="43.3086775" lon="13.0584961"><ele>1020.0</ele><time>2026-04-25T13:05:32.52Z</time></trkpt><trkpt lat="43.3088695" lon="13.0585391"><ele>1020.0</ele><time>2026-04-25T13:05:33.517Z</time></trkpt><trkpt lat="43.3090758" lon="13.0586064"><ele>1030.6666666666667</ele><time>2026-04-25T13:05:34.519Z</time></trkpt><trkpt lat="43.3092423" lon="13.058685"><ele>1041.3333333333335</ele><time>2026-04-25T13:05:35.519Z</time></trkpt><trkpt lat="43.30941" lon="13.0587671"><ele>1052.0</ele><time>2026-04-25T13:05:36.518Z</time></trkpt><trkpt lat="43.3095674" lon="13.0588704"><ele>1052.0</ele><time>2026-04-25T13:05:37.523Z</time></trkpt><trkpt lat="43.3097086" lon="13.0589826"><ele>1052.0</ele><time>2026-04-25T13:05:38.522Z</time></trkpt><trkpt lat="43.3098517" lon="13.0591067"><ele>1052.0</ele><time>2026-04-25T13:05:39.528Z</time></trkpt><trkpt lat="43.3099963" lon="13.0592143"><ele>1045.6666666666667</ele><time>2026-04-25T13:05:40.521Z</time></trkpt><trkpt lat="43.3101559" lon="13.0593135"><ele>1039.3333333333333</ele><time>2026-04-25T13:05:41.531Z</time></trkpt><trkpt lat="43.3103306" lon="13.0593859"><ele>1033.0</ele><time>2026-04-25T13:05:42.519Z</time></trkpt><trkpt lat="43.310486" lon="13.0594409"><ele>1041.6666666666665</ele><time>2026-04-25T13:05:43.515Z</time></trkpt><trkpt lat="43.31066" lon="13.0595029"><ele>1050.3333333333333</ele><time>2026-04-25T13:05:44.517Z</time></trkpt><trkpt lat="43.3108601" lon="13.0595536"><ele>1059.0</ele><time>2026-04-25T13:05:45.517Z</time></trkpt><trkpt lat="43.3110565" lon="13.0595724"><ele>1059.0</ele><time>2026-04-25T13:05:46.52Z</time></trkpt><trkpt lat="43.3112764" lon="13.0596328"><ele>1059.0</ele><time>2026-04-25T13:05:47.514Z</time></trkpt><trkpt lat="43.311495" lon="13.0597342"><ele>1065.3333333333333</ele><time>2026-04-25T13:05:48.518Z</time></trkpt><trkpt lat="43.3116806" lon="13.0597038"><ele>1071.6666666666665</ele><time>2026-04-25T13:05:49.514Z</time></trkpt><trkpt lat="43.3118793" lon="13.0597138"><ele>1078.0</ele><time>2026-04-25T13:05:50.516Z</time></trkpt><trkpt lat="43.3120653" lon="13.0597366"><ele>1078.0</ele><time>2026-04-25T13:05:51.518Z</time></trkpt><trkpt lat="43.3121975" lon="13.0597696"><ele>1078.0</ele><time>2026-04-25T13:05:52.518Z</time></trkpt><trkpt lat="43.3123372" lon="13.0597539"><ele>1078.0</ele><time>2026-04-25T13:05:53.518Z</time></trkpt><trkpt lat="43.3124509" lon="13.0597805"><ele>1078.0</ele><time>2026-04-25T13:05:54.52Z</time></trkpt><trkpt lat="43.3125388" lon="13.0598201"><ele>1080.6</ele><time>2026-04-25T13:05:55.52Z</time></trkpt><trkpt lat="43.3126295" lon="13.0598507"><ele>1083.1999999999998</ele><time>2026-04-25T13:05:56.517Z</time></trkpt><trkpt lat="43.3126851" lon="13.0599051"><ele>1085.8</ele><time>2026-04-25T13:05:57.521Z</time></trkpt><trkpt lat="43.3127407" lon="13.0599618"><ele>1088.3999999999999</ele><time>2026-04-25T13:05:58.517Z</time></trkpt><trkpt lat="43.3127319" lon="13.0601478"><ele>1091.0</ele><time>2026-04-25T13:06:00.509Z</time></trkpt><trkpt lat="43.3126604" lon="13.0603352"><ele>1082.0</ele><time>2026-04-25T13:06:01.514Z</time></trkpt><trkpt lat="43.3125758" lon="13.0605315"><ele>1073.0</ele><time>2026-04-25T13:06:02.513Z</time></trkpt><trkpt lat="43.3124876" lon="13.060703"><ele>1064.0</ele><time>2026-04-25T13:06:03.493Z</time></trkpt><trkpt lat="43.312375" lon="13.060818"><ele>1064.0</ele><time>2026-04-25T13:06:04.502Z</time></trkpt><trkpt lat="43.3122475" lon="13.0609339"><ele>1064.0</ele><time>2026-04-25T13:06:05.5Z</time></trkpt><trkpt lat="43.3121378" lon="13.0610268"><ele>1064.0</ele><time>2026-04-25T13:06:06.502Z</time></trkpt><trkpt lat="43.3120864" lon="13.061113"><ele>1064.0</ele><time>2026-04-25T13:06:07.501Z</time></trkpt><trkpt lat="43.3120385" lon="13.0612594"><ele>1050.6666666666667</ele><time>2026-04-25T13:06:08.506Z</time></trkpt><trkpt lat="43.3120178" lon="13.0614518"><ele>1037.3333333333333</ele><time>2026-04-25T13:06:09.507Z</time></trkpt><trkpt lat="43.3120328" lon="13.0616744"><ele>1024.0</ele><time>2026-04-25T13:06:10.508Z</time></trkpt><trkpt lat="43.3120051" lon="13.0618838"><ele>1024.0</ele><time>2026-04-25T13:06:11.499Z</time></trkpt><trkpt lat="43.3119159" lon="13.0620523"><ele>1024.0</ele><time>2026-04-25T13:06:12.504Z</time></trkpt><trkpt lat="43.3119087" lon="13.0622401"><ele>1024.0</ele><time>2026-04-25T13:06:13.51Z</time></trkpt><trkpt lat="43.3119396" lon="13.0624289"><ele>1024.0</ele><time>2026-04-25T13:06:14.528Z</time></trkpt><trkpt lat="43.312002" lon="13.0626543"><ele>1029.0</ele><time>2026-04-25T13:06:15.514Z</time></trkpt><trkpt lat="43.3120277" lon="13.0628829"><ele>1034.0</ele><time>2026-04-25T13:06:16.512Z</time></trkpt><trkpt lat="43.3120646" lon="13.0631128"><ele>1039.0</ele><time>2026-04-25T13:06:17.508Z</time></trkpt><trkpt lat="43.312075" lon="13.0633329"><ele>1042.0</ele><time>2026-04-25T13:06:18.512Z</time></trkpt><trkpt lat="43.3121108" lon="13.0635751"><ele>1045.0</ele><time>2026-04-25T13:06:19.511Z</time></trkpt><trkpt lat="43.3121064" lon="13.0638017"><ele>1048.0</ele><time>2026-04-25T13:06:20.514Z</time></trkpt><trkpt lat="43.3121181" lon="13.0640117"><ele>1050.0</ele><time>2026-04-25T13:06:21.516Z</time></trkpt><trkpt lat="43.312128" lon="13.0642387"><ele>1052.0</ele><time>2026-04-25T13:06:22.514Z</time></trkpt><trkpt lat="43.3121809" lon="13.0644671"><ele>1054.0</ele><time>2026-04-25T13:06:23.539Z</time></trkpt><trkpt lat="43.3122564" lon="13.064703"><ele>1066.6666666666665</ele><time>2026-04-25T13:06:24.54Z</time></trkpt><trkpt lat="43.3123075" lon="13.0649168"><ele>1079.3333333333333</ele><time>2026-04-25T13:06:25.536Z</time></trkpt><trkpt lat="43.3123267" lon="13.0651279"><ele>1092.0</ele><time>2026-04-25T13:06:26.514Z</time></trkpt><trkpt lat="43.312356" lon="13.0653134"><ele>1092.8</ele><time>2026-04-25T13:06:27.508Z</time></trkpt><trkpt lat="43.3123369" lon="13.0654495"><ele>1093.6</ele><time>2026-04-25T13:06:28.511Z</time></trkpt><trkpt lat="43.312325" lon="13.0655677"><ele>1094.3999999999999</ele><time>2026-04-25T13:06:29.536Z</time></trkpt><trkpt lat="43.3122591" lon="13.0656738"><ele>1095.2</ele><time>2026-04-25T13:06:30.532Z</time></trkpt><trkpt lat="43.3121572" lon="13.0657473"><ele>1096.0</ele><time>2026-04-25T13:06:31.528Z</time></trkpt><trkpt lat="43.3120276" lon="13.0658252"><ele>1094.0</ele><time>2026-04-25T13:06:32.503Z</time></trkpt><trkpt lat="43.3119227" lon="13.0659115"><ele>1092.0</ele><time>2026-04-25T13:06:33.515Z</time></trkpt><trkpt lat="43.3118013" lon="13.0659616"><ele>1090.0</ele><time>2026-04-25T13:06:34.501Z</time></trkpt><trkpt lat="43.3116384" lon="13.0660022"><ele>1088.0</ele><time>2026-04-25T13:06:35.502Z</time></trkpt><trkpt lat="43.3114971" lon="13.0660326"><ele>1088.0</ele><time>2026-04-25T13:06:36.497Z</time></trkpt><trkpt lat="43.3114307" lon="13.0661497"><ele>1088.0</ele><time>2026-04-25T13:06:37.489Z</time></trkpt><trkpt lat="43.3113555" lon="13.0663829"><ele>1088.0</ele><time>2026-04-25T13:06:38.491Z</time></trkpt><trkpt lat="43.3112971" lon="13.0665691"><ele>1088.0</ele><time>2026-04-25T13:06:39.504Z</time></trkpt><trkpt lat="43.3112412" lon="13.0666917"><ele>1090.5</ele><time>2026-04-25T13:06:40.497Z</time></trkpt><trkpt lat="43.3111299" lon="13.0667452"><ele>1093.0</ele><time>2026-04-25T13:06:41.501Z</time></trkpt><trkpt lat="43.3110041" lon="13.0667194"><ele>1095.5</ele><time>2026-04-25T13:06:42.503Z</time></trkpt><trkpt lat="43.3108386" lon="13.0666838"><ele>1098.0</ele><time>2026-04-25T13:06:43.505Z</time></trkpt><trkpt lat="43.3106869" lon="13.0666557"><ele>1098.3333333333333</ele><time>2026-04-25T13:06:44.524Z</time></trkpt><trkpt lat="43.3105066" lon="13.0666314"><ele>1098.6666666666665</ele><time>2026-04-25T13:06:45.533Z</time></trkpt><trkpt lat="43.3103554" lon="13.0665836"><ele>1099.0</ele><time>2026-04-25T13:06:46.535Z</time></trkpt><trkpt lat="43.3102438" lon="13.0665484"><ele>1099.0</ele><time>2026-04-25T13:06:47.532Z</time></trkpt><trkpt lat="43.3101547" lon="13.0665018"><ele>1099.0</ele><time>2026-04-25T13:06:48.531Z</time></trkpt><trkpt lat="43.3100673" lon="13.0664662"><ele>1099.0</ele><time>2026-04-25T13:06:49.53Z</time></trkpt><trkpt lat="43.3099979" lon="13.0664996"><ele>1099.0</ele><time>2026-04-25T13:06:50.528Z</time></trkpt><trkpt lat="43.3099372" lon="13.0665618"><ele>1099.0</ele><time>2026-04-25T13:06:51.53Z</time></trkpt><trkpt lat="43.3099316" lon="13.0666591"><ele>1099.0</ele><time>2026-04-25T13:06:52.529Z</time></trkpt><trkpt lat="43.3099872" lon="13.0667937"><ele>1099.0</ele><time>2026-04-25T13:06:54.527Z</time></trkpt><trkpt lat="43.310052" lon="13.0668498"><ele>1099.0</ele><time>2026-04-25T13:06:55.527Z</time></trkpt><trkpt lat="43.3101271" lon="13.0668894"><ele>1099.0</ele><time>2026-04-25T13:06:56.531Z</time></trkpt><trkpt lat="43.3102383" lon="13.0669187"><ele>1099.0</ele><time>2026-04-25T13:06:57.53Z</time></trkpt><trkpt lat="43.3103614" lon="13.0668955"><ele>1099.0</ele><time>2026-04-25T13:06:58.534Z</time></trkpt><trkpt lat="43.3104971" lon="13.0668827"><ele>1098.75</ele><time>2026-04-25T13:06:59.534Z</time></trkpt><trkpt lat="43.3106272" lon="13.0669054"><ele>1098.5</ele><time>2026-04-25T13:07:00.499Z</time></trkpt><trkpt lat="43.3107382" lon="13.0669236"><ele>1098.25</ele><time>2026-04-25T13:07:01.513Z</time></trkpt><trkpt lat="43.310912" lon="13.0669787"><ele>1098.0</ele><time>2026-04-25T13:07:02.505Z</time></trkpt><trkpt lat="43.311105" lon="13.067071"><ele>1098.0</ele><time>2026-04-25T13:07:03.512Z</time></trkpt><trkpt lat="43.31128" lon="13.0671612"><ele>1098.0</ele><time>2026-04-25T13:07:04.526Z</time></trkpt><trkpt lat="43.3114041" lon="13.0672289"><ele>1098.0</ele><time>2026-04-25T13:07:05.533Z</time></trkpt><trkpt lat="43.3115351" lon="13.0672847"><ele>1099.75</ele><time>2026-04-25T13:07:06.539Z</time></trkpt><trkpt lat="43.3116584" lon="13.0672922"><ele>1101.5</ele><time>2026-04-25T13:07:07.533Z</time></trkpt><trkpt lat="43.3117992" lon="13.067282"><ele>1103.25</ele><time>2026-04-25T13:07:08.539Z</time></trkpt><trkpt lat="43.3119537" lon="13.067264"><ele>1105.0</ele><time>2026-04-25T13:07:09.531Z</time></trkpt><trkpt lat="43.3121144" lon="13.0672225"><ele>1111.3333333333333</ele><time>2026-04-25T13:07:10.519Z</time></trkpt><trkpt lat="43.3122818" lon="13.0671704"><ele>1117.6666666666667</ele><time>2026-04-25T13:07:11.526Z</time></trkpt><trkpt lat="43.312455" lon="13.0670645"><ele>1124.0</ele><time>2026-04-25T13:07:12.524Z</time></trkpt><trkpt lat="43.3126049" lon="13.0669394"><ele>1124.0</ele><time>2026-04-25T13:07:13.537Z</time></trkpt><trkpt lat="43.3127537" lon="13.0668152"><ele>1124.0</ele><time>2026-04-25T13:07:14.535Z</time></trkpt><trkpt lat="43.3129012" lon="13.0667357"><ele>1124.0</ele><time>2026-04-25T13:07:15.524Z</time></trkpt><trkpt lat="43.3130314" lon="13.0666404"><ele>1126.3333333333335</ele><time>2026-04-25T13:07:16.51Z</time></trkpt><trkpt lat="43.3131748" lon="13.0665694"><ele>1128.6666666666667</ele><time>2026-04-25T13:07:17.512Z</time></trkpt><trkpt lat="43.3133509" lon="13.0665517"><ele>1131.0</ele><time>2026-04-25T13:07:18.508Z</time></trkpt><trkpt lat="43.3135079" lon="13.0665311"><ele>1131.0</ele><time>2026-04-25T13:07:19.539Z</time></trkpt><trkpt lat="43.3136311" lon="13.0664846"><ele>1131.0</ele><time>2026-04-25T13:07:20.537Z</time></trkpt><trkpt lat="43.3137342" lon="13.06642"><ele>1131.0</ele><time>2026-04-25T13:07:21.538Z</time></trkpt><trkpt lat="43.3138099" lon="13.0663101"><ele>1131.0</ele><time>2026-04-25T13:07:22.532Z</time></trkpt><trkpt lat="43.3138734" lon="13.0662105"><ele>1131.0</ele><time>2026-04-25T13:07:23.53Z</time></trkpt><trkpt lat="43.3139293" lon="13.0660211"><ele>1138.0</ele><time>2026-04-25T13:07:24.53Z</time></trkpt><trkpt lat="43.3139527" lon="13.065816"><ele>1145.0</ele><time>2026-04-25T13:07:25.53Z</time></trkpt><trkpt lat="43.3140039" lon="13.0656267"><ele>1152.0</ele><time>2026-04-25T13:07:26.539Z</time></trkpt><trkpt lat="43.3140836" lon="13.0654136"><ele>1152.0</ele><time>2026-04-25T13:07:27.542Z</time></trkpt><trkpt lat="43.3142051" lon="13.0652211"><ele>1152.0</ele><time>2026-04-25T13:07:28.532Z</time></trkpt><trkpt lat="43.3142999" lon="13.0650008"><ele>1152.0</ele><time>2026-04-25T13:07:29.538Z</time></trkpt><trkpt lat="43.3143921" lon="13.0647763"><ele>1151.0</ele><time>2026-04-25T13:07:30.534Z</time></trkpt><trkpt lat="43.3144617" lon="13.0645637"><ele>1150.0</ele><time>2026-04-25T13:07:31.53Z</time></trkpt><trkpt lat="43.3145462" lon="13.0643482"><ele>1149.0</ele><time>2026-04-25T13:07:32.553Z</time></trkpt><trkpt lat="43.3146119" lon="13.0641144"><ele>1148.3333333333333</ele><time>2026-04-25T13:07:33.534Z</time></trkpt><trkpt lat="43.3146728" lon="13.0638877"><ele>1147.6666666666665</ele><time>2026-04-25T13:07:34.54Z</time></trkpt><trkpt lat="43.3147253" lon="13.0636577"><ele>1147.0</ele><time>2026-04-25T13:07:35.528Z</time></trkpt><trkpt lat="43.3147647" lon="13.0634258"><ele>1156.6666666666665</ele><time>2026-04-25T13:07:36.534Z</time></trkpt><trkpt lat="43.3148133" lon="13.0631737"><ele>1166.3333333333333</ele><time>2026-04-25T13:07:37.538Z</time></trkpt><trkpt lat="43.3148574" lon="13.0629388"><ele>1176.0</ele><time>2026-04-25T13:07:38.535Z</time></trkpt><trkpt lat="43.3148958" lon="13.0627295"><ele>1176.0</ele><time>2026-04-25T13:07:39.533Z</time></trkpt><trkpt lat="43.3149168" lon="13.0626358"><ele>1176.0</ele><time>2026-04-25T13:07:40.536Z</time></trkpt><trkpt lat="43.3148711" lon="13.0623697"><ele>1176.0</ele><time>2026-04-25T13:07:41.53Z</time></trkpt><trkpt lat="43.3148961" lon="13.0621066"><ele>1176.3333333333333</ele><time>2026-04-25T13:07:42.531Z</time></trkpt><trkpt lat="43.3148678" lon="13.0618164"><ele>1176.6666666666665</ele><time>2026-04-25T13:07:43.522Z</time></trkpt><trkpt lat="43.3148088" lon="13.0616098"><ele>1177.0</ele><time>2026-04-25T13:07:44.536Z</time></trkpt><trkpt lat="43.3147661" lon="13.0614066"><ele>1177.0</ele><time>2026-04-25T13:07:45.534Z</time></trkpt><trkpt lat="43.3147369" lon="13.061235"><ele>1177.0</ele><time>2026-04-25T13:07:46.533Z</time></trkpt><trkpt lat="43.3147549" lon="13.0610885"><ele>1177.0</ele><time>2026-04-25T13:07:47.536Z</time></trkpt><trkpt lat="43.3147522" lon="13.0609799"><ele>1177.0</ele><time>2026-04-25T13:07:48.534Z</time></trkpt><trkpt lat="43.3147646" lon="13.0608872"><ele>1177.0</ele><time>2026-04-25T13:07:49.536Z</time></trkpt><trkpt lat="43.3148269" lon="13.0607359"><ele>1177.0</ele><time>2026-04-25T13:07:51.517Z</time></trkpt><trkpt lat="43.314898" lon="13.0607065"><ele>1177.0</ele><time>2026-04-25T13:07:52.519Z</time></trkpt><trkpt lat="43.3149862" lon="13.0607329"><ele>1177.0</ele><time>2026-04-25T13:07:53.519Z</time></trkpt><trkpt lat="43.3150878" lon="13.0607937"><ele>1177.0</ele><time>2026-04-25T13:07:54.509Z</time></trkpt><trkpt lat="43.3151977" lon="13.0608876"><ele>1177.0</ele><time>2026-04-25T13:07:55.514Z</time></trkpt><trkpt lat="43.3153091" lon="13.0609841"><ele>1177.0</ele><time>2026-04-25T13:07:56.537Z</time></trkpt><trkpt lat="43.3154186" lon="13.0610701"><ele>1177.0</ele><time>2026-04-25T13:07:57.506Z</time></trkpt><trkpt lat="43.3155179" lon="13.0611656"><ele>1177.0</ele><time>2026-04-25T13:07:58.51Z</time></trkpt><trkpt lat="43.3156157" lon="13.0612649"><ele>1177.0</ele><time>2026-04-25T13:07:59.535Z</time></trkpt><trkpt lat="43.3157134" lon="13.0613732"><ele>1179.5</ele><time>2026-04-25T13:08:00.517Z</time></trkpt><trkpt lat="43.3158077" lon="13.0614697"><ele>1182.0</ele><time>2026-04-25T13:08:01.521Z</time></trkpt><trkpt lat="43.3159034" lon="13.0615698"><ele>1184.5</ele><time>2026-04-25T13:08:02.515Z</time></trkpt><trkpt lat="43.315992" lon="13.061662"><ele>1187.0</ele><time>2026-04-25T13:08:03.52Z</time></trkpt><trkpt lat="43.3160803" lon="13.0617434"><ele>1188.0</ele><time>2026-04-25T13:08:04.51Z</time></trkpt><trkpt lat="43.3161892" lon="13.0618045"><ele>1189.0</ele><time>2026-04-25T13:08:05.508Z</time></trkpt><trkpt lat="43.31629" lon="13.0618462"><ele>1190.0</ele><time>2026-04-25T13:08:06.505Z</time></trkpt><trkpt lat="43.3163889" lon="13.0618709"><ele>1191.0</ele><time>2026-04-25T13:08:07.535Z</time></trkpt><trkpt lat="43.3164851" lon="13.0618622"><ele>1192.0</ele><time>2026-04-25T13:08:08.531Z</time></trkpt><trkpt lat="43.3165867" lon="13.0618281"><ele>1192.2</ele><time>2026-04-25T13:08:09.538Z</time></trkpt><trkpt lat="43.3166853" lon="13.061768"><ele>1192.4</ele><time>2026-04-25T13:08:10.531Z</time></trkpt><trkpt lat="43.3167894" lon="13.0617283"><ele>1192.6</ele><time>2026-04-25T13:08:11.535Z</time></trkpt><trkpt lat="43.3169061" lon="13.0616784"><ele>1192.8</ele><time>2026-04-25T13:08:12.53Z</time></trkpt><trkpt lat="43.3170068" lon="13.0616253"><ele>1193.0</ele><time>2026-04-25T13:08:13.535Z</time></trkpt><trkpt lat="43.3171036" lon="13.0615663"><ele>1193.0</ele><time>2026-04-25T13:08:14.532Z</time></trkpt><trkpt lat="43.3172081" lon="13.0615065"><ele>1193.0</ele><time>2026-04-25T13:08:15.521Z</time></trkpt><trkpt lat="43.3173087" lon="13.0614469"><ele>1193.0</ele><time>2026-04-25T13:08:16.534Z</time></trkpt><trkpt lat="43.3174055" lon="13.0613967"><ele>1193.0</ele><time>2026-04-25T13:08:17.537Z</time></trkpt><trkpt lat="43.3175029" lon="13.0613592"><ele>1193.0</ele><time>2026-04-25T13:08:18.535Z</time></trkpt><trkpt lat="43.3176012" lon="13.0613101"><ele>1194.6</ele><time>2026-04-25T13:08:19.533Z</time></trkpt><trkpt lat="43.3176847" lon="13.0612655"><ele>1196.1999999999998</ele><time>2026-04-25T13:08:20.528Z</time></trkpt><trkpt lat="43.317768" lon="13.0611963"><ele>1197.8</ele><time>2026-04-25T13:08:21.545Z</time></trkpt><trkpt lat="43.317852" lon="13.0611243"><ele>1199.3999999999999</ele><time>2026-04-25T13:08:22.525Z</time></trkpt><trkpt lat="43.3179139" lon="13.0610377"><ele>1201.0</ele><time>2026-04-25T13:08:23.537Z</time></trkpt><trkpt lat="43.3179651" lon="13.0609395"><ele>1201.0</ele><time>2026-04-25T13:08:24.537Z</time></trkpt><trkpt lat="43.3179992" lon="13.0608076"><ele>1201.0</ele><time>2026-04-25T13:08:25.534Z</time></trkpt><trkpt lat="43.3180307" lon="13.0606614"><ele>1201.0</ele><time>2026-04-25T13:08:26.54Z</time></trkpt><trkpt lat="43.3180534" lon="13.0604947"><ele>1201.0</ele><time>2026-04-25T13:08:27.535Z</time></trkpt><trkpt lat="43.3180535" lon="13.0603207"><ele>1200.25</ele><time>2026-04-25T13:08:28.54Z</time></trkpt><trkpt lat="43.3180441" lon="13.0601354"><ele>1199.5</ele><time>2026-04-25T13:08:29.541Z</time></trkpt><trkpt lat="43.3180336" lon="13.0599525"><ele>1198.75</ele><time>2026-04-25T13:08:30.541Z</time></trkpt><trkpt lat="43.3180312" lon="13.0597731"><ele>1198.0</ele><time>2026-04-25T13:08:31.542Z</time></trkpt><trkpt lat="43.3180337" lon="13.0595781"><ele>1197.8</ele><time>2026-04-25T13:08:32.536Z</time></trkpt><trkpt lat="43.3180463" lon="13.0594209"><ele>1197.6</ele><time>2026-04-25T13:08:33.543Z</time></trkpt><trkpt lat="43.3180723" lon="13.0592894"><ele>1197.4</ele><time>2026-04-25T13:08:34.537Z</time></trkpt><trkpt lat="43.3180884" lon="13.0591638"><ele>1197.2</ele><time>2026-04-25T13:08:35.537Z</time></trkpt><trkpt lat="43.3181302" lon="13.0590694"><ele>1197.0</ele><time>2026-04-25T13:08:36.534Z</time></trkpt><trkpt lat="43.3181635" lon="13.058971"><ele>1199.0</ele><time>2026-04-25T13:08:37.537Z</time></trkpt><trkpt lat="43.318205" lon="13.0588637"><ele>1201.0</ele><time>2026-04-25T13:08:38.531Z</time></trkpt><trkpt lat="43.3182348" lon="13.0587536"><ele>1203.0</ele><time>2026-04-25T13:08:39.532Z</time></trkpt><trkpt lat="43.3182877" lon="13.0586421"><ele>1205.0</ele><time>2026-04-25T13:08:40.524Z</time></trkpt><trkpt lat="43.3183509" lon="13.0585556"><ele>1207.0</ele><time>2026-04-25T13:08:41.522Z</time></trkpt><trkpt lat="43.3184189" lon="13.0584703"><ele>1207.0</ele><time>2026-04-25T13:08:42.527Z</time></trkpt><trkpt lat="43.3184965" lon="13.0583881"><ele>1207.0</ele><time>2026-04-25T13:08:43.531Z</time></trkpt><trkpt lat="43.3185656" lon="13.0583142"><ele>1207.0</ele><time>2026-04-25T13:08:44.532Z</time></trkpt><trkpt lat="43.3186285" lon="13.0582472"><ele>1207.0</ele><time>2026-04-25T13:08:45.526Z</time></trkpt><trkpt lat="43.3186939" lon="13.0581922"><ele>1207.0</ele><time>2026-04-25T13:08:46.527Z</time></trkpt><trkpt lat="43.3187523" lon="13.058126"><ele>1207.0</ele><time>2026-04-25T13:08:47.526Z</time></trkpt><trkpt lat="43.3188117" lon="13.0580499"><ele>1206.6666666666665</ele><time>2026-04-25T13:08:48.536Z</time></trkpt><trkpt lat="43.3188655" lon="13.0579901"><ele>1206.3333333333333</ele><time>2026-04-25T13:08:49.531Z</time></trkpt><trkpt lat="43.3189232" lon="13.0579455"><ele>1206.0</ele><time>2026-04-25T13:08:50.541Z</time></trkpt><trkpt lat="43.3189958" lon="13.0579148"><ele>1205.6666666666667</ele><time>2026-04-25T13:08:51.537Z</time></trkpt><trkpt lat="43.3190683" lon="13.0579107"><ele>1205.3333333333335</ele><time>2026-04-25T13:08:52.543Z</time></trkpt><trkpt lat="43.3191415" lon="13.0579282"><ele>1205.0</ele><time>2026-04-25T13:08:53.545Z</time></trkpt><trkpt lat="43.3192252" lon="13.0579869"><ele>1206.5</ele><time>2026-04-25T13:08:54.538Z</time></trkpt><trkpt lat="43.3193092" lon="13.0580573"><ele>1208.0</ele><time>2026-04-25T13:08:55.528Z</time></trkpt><trkpt lat="43.3193778" lon="13.0581368"><ele>1209.5</ele><time>2026-04-25T13:08:56.532Z</time></trkpt><trkpt lat="43.3194363" lon="13.0582139"><ele>1211.0</ele><time>2026-04-25T13:08:57.535Z</time></trkpt><trkpt lat="43.3194875" lon="13.0582833"><ele>1212.5</ele><time>2026-04-25T13:08:58.546Z</time></trkpt><trkpt lat="43.3195418" lon="13.0583462"><ele>1214.0</ele><time>2026-04-25T13:08:59.547Z</time></trkpt><trkpt lat="43.3196027" lon="13.0584176"><ele>1214.0</ele><time>2026-04-25T13:09:00.542Z</time></trkpt><trkpt lat="43.3196712" lon="13.0584973"><ele>1214.0</ele><time>2026-04-25T13:09:01.537Z</time></trkpt><trkpt lat="43.3197392" lon="13.0585662"><ele>1214.0</ele><time>2026-04-25T13:09:02.533Z</time></trkpt><trkpt lat="43.3197992" lon="13.0586261"><ele>1214.0</ele><time>2026-04-25T13:09:03.519Z</time></trkpt><trkpt lat="43.3198674" lon="13.058701"><ele>1214.0</ele><time>2026-04-25T13:09:04.519Z</time></trkpt><trkpt lat="43.3199278" lon="13.0587787"><ele>1214.0</ele><time>2026-04-25T13:09:05.52Z</time></trkpt><trkpt lat="43.3199725" lon="13.0588411"><ele>1213.6666666666667</ele><time>2026-04-25T13:09:06.518Z</time></trkpt><trkpt lat="43.3200295" lon="13.0589098"><ele>1213.3333333333335</ele><time>2026-04-25T13:09:07.515Z</time></trkpt><trkpt lat="43.3200864" lon="13.0589828"><ele>1213.0</ele><time>2026-04-25T13:09:08.514Z</time></trkpt><trkpt lat="43.3201468" lon="13.0590532"><ele>1212.6666666666667</ele><time>2026-04-25T13:09:09.514Z</time></trkpt><trkpt lat="43.3202093" lon="13.0591158"><ele>1212.3333333333333</ele><time>2026-04-25T13:09:10.518Z</time></trkpt><trkpt lat="43.3202716" lon="13.0591642"><ele>1212.0</ele><time>2026-04-25T13:09:11.512Z</time></trkpt><trkpt lat="43.3203556" lon="13.0592249"><ele>1212.0</ele><time>2026-04-25T13:09:12.54Z</time></trkpt><trkpt lat="43.320444" lon="13.0592846"><ele>1212.0</ele><time>2026-04-25T13:09:13.541Z</time></trkpt><trkpt lat="43.3205376" lon="13.0593457"><ele>1212.0</ele><time>2026-04-25T13:09:14.539Z</time></trkpt><trkpt lat="43.3206406" lon="13.0594093"><ele>1212.0</ele><time>2026-04-25T13:09:15.537Z</time></trkpt><trkpt lat="43.3207628" lon="13.0594757"><ele>1212.0</ele><time>2026-04-25T13:09:16.544Z</time></trkpt><trkpt lat="43.3209016" lon="13.0595786"><ele>1209.0</ele><time>2026-04-25T13:09:17.533Z</time></trkpt><trkpt lat="43.3210399" lon="13.0597183"><ele>1206.0</ele><time>2026-04-25T13:09:18.508Z</time></trkpt><trkpt lat="43.3211924" lon="13.059843"><ele>1203.0</ele><time>2026-04-25T13:09:19.53Z</time></trkpt><trkpt lat="43.321364" lon="13.0599847"><ele>1207.0</ele><time>2026-04-25T13:09:20.532Z</time></trkpt><trkpt lat="43.3215387" lon="13.0601472"><ele>1211.0</ele><time>2026-04-25T13:09:21.53Z</time></trkpt><trkpt lat="43.321711" lon="13.0603074"><ele>1215.0</ele><time>2026-04-25T13:09:22.539Z</time></trkpt><trkpt lat="43.3218903" lon="13.0604555"><ele>1215.0</ele><time>2026-04-25T13:09:23.54Z</time></trkpt><trkpt lat="43.3220413" lon="13.0606254"><ele>1215.0</ele><time>2026-04-25T13:09:24.539Z</time></trkpt><trkpt lat="43.3221781" lon="13.0607888"><ele>1215.0</ele><time>2026-04-25T13:09:25.535Z</time></trkpt><trkpt lat="43.3223349" lon="13.0609608"><ele>1214.3333333333333</ele><time>2026-04-25T13:09:26.531Z</time></trkpt><trkpt lat="43.3224614" lon="13.0611097"><ele>1213.6666666666665</ele><time>2026-04-25T13:09:27.514Z</time></trkpt><trkpt lat="43.3225849" lon="13.0612426"><ele>1213.0</ele><time>2026-04-25T13:09:28.538Z</time></trkpt><trkpt lat="43.3227118" lon="13.0613684"><ele>1213.0</ele><time>2026-04-25T13:09:29.538Z</time></trkpt><trkpt lat="43.3228453" lon="13.0614904"><ele>1213.0</ele><time>2026-04-25T13:09:30.535Z</time></trkpt><trkpt lat="43.3230018" lon="13.0616342"><ele>1213.0</ele><time>2026-04-25T13:09:31.539Z</time></trkpt><trkpt lat="43.3231279" lon="13.061751"><ele>1210.25</ele><time>2026-04-25T13:09:32.537Z</time></trkpt><trkpt lat="43.3232537" lon="13.0618585"><ele>1207.5</ele><time>2026-04-25T13:09:33.541Z</time></trkpt><trkpt lat="43.3233706" lon="13.0619333"><ele>1204.75</ele><time>2026-04-25T13:09:34.536Z</time></trkpt><trkpt lat="43.3235006" lon="13.0619905"><ele>1202.0</ele><time>2026-04-25T13:09:35.539Z</time></trkpt><trkpt lat="43.3236421" lon="13.0620157"><ele>1202.0</ele><time>2026-04-25T13:09:36.528Z</time></trkpt><trkpt lat="43.3238152" lon="13.0620062"><ele>1202.0</ele><time>2026-04-25T13:09:37.53Z</time></trkpt><trkpt lat="43.3239861" lon="13.06201"><ele>1202.0</ele><time>2026-04-25T13:09:38.534Z</time></trkpt><trkpt lat="43.3241113" lon="13.0619955"><ele>1201.75</ele><time>2026-04-25T13:09:39.536Z</time></trkpt><trkpt lat="43.3242457" lon="13.0620097"><ele>1201.5</ele><time>2026-04-25T13:09:40.537Z</time></trkpt><trkpt lat="43.3243556" lon="13.0619953"><ele>1201.25</ele><time>2026-04-25T13:09:41.532Z</time></trkpt><trkpt lat="43.3244559" lon="13.0619576"><ele>1201.0</ele><time>2026-04-25T13:09:42.538Z</time></trkpt><trkpt lat="43.32456" lon="13.0619124"><ele>1201.0</ele><time>2026-04-25T13:09:43.535Z</time></trkpt><trkpt lat="43.3246489" lon="13.0618372"><ele>1201.0</ele><time>2026-04-25T13:09:44.531Z</time></trkpt><trkpt lat="43.3247237" lon="13.0617247"><ele>1201.0</ele><time>2026-04-25T13:09:45.534Z</time></trkpt><trkpt lat="43.324784" lon="13.0616106"><ele>1201.0</ele><time>2026-04-25T13:09:46.537Z</time></trkpt><trkpt lat="43.3248461" lon="13.0614663"><ele>1201.0</ele><time>2026-04-25T13:09:47.534Z</time></trkpt><trkpt lat="43.3249014" lon="13.0613061"><ele>1198.75</ele><time>2026-04-25T13:09:48.54Z</time></trkpt><trkpt lat="43.3249549" lon="13.0611499"><ele>1196.5</ele><time>2026-04-25T13:09:49.542Z</time></trkpt><trkpt lat="43.3250045" lon="13.0609721"><ele>1194.25</ele><time>2026-04-25T13:09:50.53Z</time></trkpt><trkpt lat="43.3250643" lon="13.0607855"><ele>1192.0</ele><time>2026-04-25T13:09:51.545Z</time></trkpt><trkpt lat="43.3251343" lon="13.0605931"><ele>1191.6666666666665</ele><time>2026-04-25T13:09:52.541Z</time></trkpt><trkpt lat="43.3251991" lon="13.0603955"><ele>1191.3333333333333</ele><time>2026-04-25T13:09:53.542Z</time></trkpt><trkpt lat="43.3252619" lon="13.0601756"><ele>1191.0</ele><time>2026-04-25T13:09:54.535Z</time></trkpt><trkpt lat="43.3253427" lon="13.0599743"><ele>1190.3333333333333</ele><time>2026-04-25T13:09:55.545Z</time></trkpt><trkpt lat="43.3254131" lon="13.0597483"><ele>1189.6666666666665</ele><time>2026-04-25T13:09:56.551Z</time></trkpt><trkpt lat="43.3254754" lon="13.0595268"><ele>1189.0</ele><time>2026-04-25T13:09:57.542Z</time></trkpt><trkpt lat="43.3255274" lon="13.0593306"><ele>1189.25</ele><time>2026-04-25T13:09:58.552Z</time></trkpt><trkpt lat="43.3255631" lon="13.0591315"><ele>1189.5</ele><time>2026-04-25T13:09:59.547Z</time></trkpt><trkpt lat="43.325587" lon="13.0589535"><ele>1189.75</ele><time>2026-04-25T13:10:00.547Z</time></trkpt><trkpt lat="43.325609" lon="13.0587508"><ele>1190.0</ele><time>2026-04-25T13:10:01.546Z</time></trkpt><trkpt lat="43.3256374" lon="13.0585554"><ele>1188.3333333333335</ele><time>2026-04-25T13:10:02.541Z</time></trkpt><trkpt lat="43.325665" lon="13.0583379"><ele>1186.6666666666667</ele><time>2026-04-25T13:10:03.535Z</time></trkpt><trkpt lat="43.3256811" lon="13.0581155"><ele>1185.0</ele><time>2026-04-25T13:10:04.542Z</time></trkpt><trkpt lat="43.3257106" lon="13.0578891"><ele>1183.0</ele><time>2026-04-25T13:10:05.551Z</time></trkpt><trkpt lat="43.3257313" lon="13.0576527"><ele>1181.0</ele><time>2026-04-25T13:10:06.545Z</time></trkpt><trkpt lat="43.3257576" lon="13.0574111"><ele>1179.0</ele><time>2026-04-25T13:10:07.545Z</time></trkpt><trkpt lat="43.3257883" lon="13.0571871"><ele>1177.3333333333333</ele><time>2026-04-25T13:10:08.547Z</time></trkpt><trkpt lat="43.3258141" lon="13.0569496"><ele>1175.6666666666665</ele><time>2026-04-25T13:10:09.541Z</time></trkpt><trkpt lat="43.325853" lon="13.0567177"><ele>1174.0</ele><time>2026-04-25T13:10:10.546Z</time></trkpt><trkpt lat="43.3258745" lon="13.0564803"><ele>1172.3333333333333</ele><time>2026-04-25T13:10:11.542Z</time></trkpt><trkpt lat="43.3258925" lon="13.056256"><ele>1170.6666666666667</ele><time>2026-04-25T13:10:12.544Z</time></trkpt><trkpt lat="43.3259218" lon="13.0560105"><ele>1169.0</ele><time>2026-04-25T13:10:13.546Z</time></trkpt><trkpt lat="43.3259744" lon="13.0557707"><ele>1166.0</ele><time>2026-04-25T13:10:14.542Z</time></trkpt><trkpt lat="43.3260172" lon="13.0555351"><ele>1163.0</ele><time>2026-04-25T13:10:15.539Z</time></trkpt><trkpt lat="43.3260561" lon="13.0552843"><ele>1160.0</ele><time>2026-04-25T13:10:16.534Z</time></trkpt><trkpt lat="43.3261006" lon="13.0550553"><ele>1157.0</ele><time>2026-04-25T13:10:17.542Z</time></trkpt><trkpt lat="43.3261441" lon="13.0547892"><ele>1154.0</ele><time>2026-04-25T13:10:18.539Z</time></trkpt><trkpt lat="43.3261908" lon="13.054537"><ele>1151.0</ele><time>2026-04-25T13:10:19.545Z</time></trkpt><trkpt lat="43.3262252" lon="13.0542932"><ele>1148.5</ele><time>2026-04-25T13:10:20.542Z</time></trkpt><trkpt lat="43.3262587" lon="13.0540783"><ele>1146.0</ele><time>2026-04-25T13:10:21.543Z</time></trkpt><trkpt lat="43.3262859" lon="13.0538936"><ele>1143.5</ele><time>2026-04-25T13:10:22.545Z</time></trkpt><trkpt lat="43.3263388" lon="13.0537138"><ele>1141.0</ele><time>2026-04-25T13:10:23.547Z</time></trkpt><trkpt lat="43.3263896" lon="13.0535666"><ele>1145.75</ele><time>2026-04-25T13:10:24.543Z</time></trkpt><trkpt lat="43.3264486" lon="13.0534238"><ele>1150.5</ele><time>2026-04-25T13:10:25.54Z</time></trkpt><trkpt lat="43.3265063" lon="13.0532984"><ele>1155.25</ele><time>2026-04-25T13:10:26.539Z</time></trkpt><trkpt lat="43.3265933" lon="13.0531855"><ele>1160.0</ele><time>2026-04-25T13:10:27.541Z</time></trkpt><trkpt lat="43.3267061" lon="13.0531281"><ele>1150.75</ele><time>2026-04-25T13:10:28.516Z</time></trkpt><trkpt lat="43.3268341" lon="13.0530664"><ele>1141.5</ele><time>2026-04-25T13:10:29.514Z</time></trkpt><trkpt lat="43.3269674" lon="13.0530449"><ele>1132.25</ele><time>2026-04-25T13:10:30.505Z</time></trkpt><trkpt lat="43.3270964" lon="13.0529978"><ele>1123.0</ele><time>2026-04-25T13:10:31.51Z</time></trkpt><trkpt lat="43.3272338" lon="13.0529846"><ele>1123.0</ele><time>2026-04-25T13:10:32.509Z</time></trkpt><trkpt lat="43.3273599" lon="13.0529671"><ele>1123.0</ele><time>2026-04-25T13:10:33.503Z</time></trkpt><trkpt lat="43.3275088" lon="13.0529789"><ele>1123.0</ele><time>2026-04-25T13:10:34.497Z</time></trkpt><trkpt lat="43.3276482" lon="13.0530188"><ele>1123.0</ele><time>2026-04-25T13:10:35.502Z</time></trkpt><trkpt lat="43.3277791" lon="13.053079"><ele>1123.0</ele><time>2026-04-25T13:10:36.499Z</time></trkpt><trkpt lat="43.3278962" lon="13.0531581"><ele>1123.0</ele><time>2026-04-25T13:10:37.499Z</time></trkpt><trkpt lat="43.3280129" lon="13.053246"><ele>1123.0</ele><time>2026-04-25T13:10:38.497Z</time></trkpt><trkpt lat="43.3281181" lon="13.0533156"><ele>1123.0</ele><time>2026-04-25T13:10:39.497Z</time></trkpt><trkpt lat="43.3282294" lon="13.0534076"><ele>1128.4</ele><time>2026-04-25T13:10:40.501Z</time></trkpt><trkpt lat="43.328284" lon="13.0535234"><ele>1133.8</ele><time>2026-04-25T13:10:41.498Z</time></trkpt><trkpt lat="43.3283555" lon="13.0535991"><ele>1139.2</ele><time>2026-04-25T13:10:42.516Z</time></trkpt><trkpt lat="43.32846" lon="13.0537035"><ele>1144.6</ele><time>2026-04-25T13:10:44.505Z</time></trkpt><trkpt lat="43.3285614" lon="13.053734"><ele>1150.0</ele><time>2026-04-25T13:10:45.503Z</time></trkpt><trkpt lat="43.3286672" lon="13.0537867"><ele>1150.0</ele><time>2026-04-25T13:10:46.507Z</time></trkpt><trkpt lat="43.3287749" lon="13.0538133"><ele>1150.0</ele><time>2026-04-25T13:10:47.496Z</time></trkpt><trkpt lat="43.3288673" lon="13.0538188"><ele>1150.0</ele><time>2026-04-25T13:10:48.494Z</time></trkpt><trkpt lat="43.328911" lon="13.0537469"><ele>1150.0</ele><time>2026-04-25T13:10:49.506Z</time></trkpt><trkpt lat="43.3289734" lon="13.0536086"><ele>1150.0</ele><time>2026-04-25T13:10:50.502Z</time></trkpt><trkpt lat="43.329029" lon="13.0534499"><ele>1148.75</ele><time>2026-04-25T13:10:51.513Z</time></trkpt><trkpt lat="43.3290785" lon="13.0532831"><ele>1147.5</ele><time>2026-04-25T13:10:52.513Z</time></trkpt><trkpt lat="43.3291384" lon="13.0531063"><ele>1146.25</ele><time>2026-04-25T13:10:53.519Z</time></trkpt><trkpt lat="43.3291998" lon="13.0529331"><ele>1145.0</ele><time>2026-04-25T13:10:54.511Z</time></trkpt><trkpt lat="43.3293141" lon="13.052801"><ele>1145.0</ele><time>2026-04-25T13:10:55.511Z</time></trkpt><trkpt lat="43.3293911" lon="13.05264"><ele>1145.0</ele><time>2026-04-25T13:10:56.513Z</time></trkpt><trkpt lat="43.3295003" lon="13.0525565"><ele>1145.0</ele><time>2026-04-25T13:10:57.511Z</time></trkpt><trkpt lat="43.3295779" lon="13.0524407"><ele>1145.0</ele><time>2026-04-25T13:10:58.51Z</time></trkpt><trkpt lat="43.3296706" lon="13.052325"><ele>1140.2</ele><time>2026-04-25T13:10:59.514Z</time></trkpt><trkpt lat="43.3297766" lon="13.0522737"><ele>1135.4</ele><time>2026-04-25T13:11:00.51Z</time></trkpt><trkpt lat="43.3298906" lon="13.0522608"><ele>1130.6</ele><time>2026-04-25T13:11:01.506Z</time></trkpt><trkpt lat="43.3299864" lon="13.0522618"><ele>1125.8</ele><time>2026-04-25T13:11:02.501Z</time></trkpt><trkpt lat="43.3300635" lon="13.0522862"><ele>1121.0</ele><time>2026-04-25T13:11:03.508Z</time></trkpt><trkpt lat="43.3301485" lon="13.0523233"><ele>1121.0</ele><time>2026-04-25T13:11:04.5Z</time></trkpt><trkpt lat="43.3302577" lon="13.0523846"><ele>1121.0</ele><time>2026-04-25T13:11:05.499Z</time></trkpt><trkpt lat="43.3303801" lon="13.0524592"><ele>1121.0</ele><time>2026-04-25T13:11:06.501Z</time></trkpt><trkpt lat="43.3305296" lon="13.0524951"><ele>1121.0</ele><time>2026-04-25T13:11:07.497Z</time></trkpt><trkpt lat="43.3306801" lon="13.0525295"><ele>1124.3333333333335</ele><time>2026-04-25T13:11:08.505Z</time></trkpt><trkpt lat="43.3308311" lon="13.0525392"><ele>1127.6666666666667</ele><time>2026-04-25T13:11:09.509Z</time></trkpt><trkpt lat="43.3310018" lon="13.0525077"><ele>1131.0</ele><time>2026-04-25T13:11:10.509Z</time></trkpt><trkpt lat="43.3311619" lon="13.052434"><ele>1123.0</ele><time>2026-04-25T13:11:11.512Z</time></trkpt><trkpt lat="43.3312918" lon="13.0523613"><ele>1115.0</ele><time>2026-04-25T13:11:12.507Z</time></trkpt><trkpt lat="43.3314413" lon="13.0523041"><ele>1107.0</ele><time>2026-04-25T13:11:13.509Z</time></trkpt><trkpt lat="43.3315928" lon="13.0522553"><ele>1106.75</ele><time>2026-04-25T13:11:14.508Z</time></trkpt><trkpt lat="43.3317176" lon="13.0521946"><ele>1106.5</ele><time>2026-04-25T13:11:15.506Z</time></trkpt><trkpt lat="43.3318309" lon="13.0521552"><ele>1106.25</ele><time>2026-04-25T13:11:16.505Z</time></trkpt><trkpt lat="43.3319514" lon="13.0520905"><ele>1106.0</ele><time>2026-04-25T13:11:17.505Z</time></trkpt><trkpt lat="43.3320773" lon="13.0521034"><ele>1106.0</ele><time>2026-04-25T13:11:18.506Z</time></trkpt><trkpt lat="43.3321969" lon="13.0521149"><ele>1106.0</ele><time>2026-04-25T13:11:19.509Z</time></trkpt><trkpt lat="43.3323313" lon="13.0521727"><ele>1106.0</ele><time>2026-04-25T13:11:20.508Z</time></trkpt><trkpt lat="43.3324626" lon="13.0522304"><ele>1106.0</ele><time>2026-04-25T13:11:21.518Z</time></trkpt><trkpt lat="43.3325957" lon="13.0522922"><ele>1104.5</ele><time>2026-04-25T13:11:22.508Z</time></trkpt><trkpt lat="43.3327276" lon="13.0523376"><ele>1103.0</ele><time>2026-04-25T13:11:23.506Z</time></trkpt><trkpt lat="43.3328568" lon="13.0524006"><ele>1101.5</ele><time>2026-04-25T13:11:24.504Z</time></trkpt><trkpt lat="43.3329996" lon="13.0524888"><ele>1100.0</ele><time>2026-04-25T13:11:25.503Z</time></trkpt><trkpt lat="43.3331311" lon="13.0525926"><ele>1098.6666666666667</ele><time>2026-04-25T13:11:26.497Z</time></trkpt><trkpt lat="43.3332724" lon="13.0526976"><ele>1097.3333333333333</ele><time>2026-04-25T13:11:27.498Z</time></trkpt><trkpt lat="43.3334124" lon="13.0527868"><ele>1096.0</ele><time>2026-04-25T13:11:28.498Z</time></trkpt><trkpt lat="43.3335376" lon="13.0528769"><ele>1096.0</ele><time>2026-04-25T13:11:29.501Z</time></trkpt><trkpt lat="43.3336747" lon="13.0530182"><ele>1096.0</ele><time>2026-04-25T13:11:30.493Z</time></trkpt><trkpt lat="43.3337982" lon="13.0531623"><ele>1096.0</ele><time>2026-04-25T13:11:31.491Z</time></trkpt><trkpt lat="43.3339241" lon="13.0533385"><ele>1092.6666666666665</ele><time>2026-04-25T13:11:32.49Z</time></trkpt><trkpt lat="43.3340498" lon="13.0535314"><ele>1089.3333333333333</ele><time>2026-04-25T13:11:33.493Z</time></trkpt><trkpt lat="43.3341789" lon="13.0537278"><ele>1086.0</ele><time>2026-04-25T13:11:34.498Z</time></trkpt><trkpt lat="43.33434" lon="13.0538998"><ele>1086.0</ele><time>2026-04-25T13:11:35.492Z</time></trkpt><trkpt lat="43.3344822" lon="13.0540734"><ele>1086.0</ele><time>2026-04-25T13:11:36.492Z</time></trkpt><trkpt lat="43.3346318" lon="13.054236"><ele>1086.0</ele><time>2026-04-25T13:11:37.494Z</time></trkpt><trkpt lat="43.3348145" lon="13.0543873"><ele>1081.0</ele><time>2026-04-25T13:11:38.496Z</time></trkpt><trkpt lat="43.3349611" lon="13.0545248"><ele>1076.0</ele><time>2026-04-25T13:11:39.501Z</time></trkpt><trkpt lat="43.3350934" lon="13.0546433"><ele>1071.0</ele><time>2026-04-25T13:11:40.493Z</time></trkpt><trkpt lat="43.3351976" lon="13.0547337"><ele>1071.0</ele><time>2026-04-25T13:11:41.495Z</time></trkpt><trkpt lat="43.3353195" lon="13.0548478"><ele>1071.0</ele><time>2026-04-25T13:11:42.5Z</time></trkpt><trkpt lat="43.3354626" lon="13.0549729"><ele>1071.0</ele><time>2026-04-25T13:11:43.5Z</time></trkpt><trkpt lat="43.3356302" lon="13.0551086"><ele>1069.0</ele><time>2026-04-25T13:11:44.504Z</time></trkpt><trkpt lat="43.3357821" lon="13.0552475"><ele>1067.0</ele><time>2026-04-25T13:11:45.501Z</time></trkpt><trkpt lat="43.33594" lon="13.0554173"><ele>1065.0</ele><time>2026-04-25T13:11:46.499Z</time></trkpt><trkpt lat="43.3361" lon="13.0555778"><ele>1065.0</ele><time>2026-04-25T13:11:47.505Z</time></trkpt><trkpt lat="43.3362365" lon="13.0557529"><ele>1065.0</ele><time>2026-04-25T13:11:48.503Z</time></trkpt><trkpt lat="43.3363768" lon="13.0559351"><ele>1065.0</ele><time>2026-04-25T13:11:49.506Z</time></trkpt><trkpt lat="43.3365251" lon="13.0560864"><ele>1062.0</ele><time>2026-04-25T13:11:50.501Z</time></trkpt><trkpt lat="43.336683" lon="13.0562585"><ele>1059.0</ele><time>2026-04-25T13:11:51.5Z</time></trkpt><trkpt lat="43.3368042" lon="13.056421"><ele>1056.0</ele><time>2026-04-25T13:11:52.497Z</time></trkpt><trkpt lat="43.3369624" lon="13.0565788"><ele>1050.6666666666667</ele><time>2026-04-25T13:11:53.508Z</time></trkpt><trkpt lat="43.3370996" lon="13.0567235"><ele>1045.3333333333335</ele><time>2026-04-25T13:11:54.512Z</time></trkpt><trkpt lat="43.3372169" lon="13.0568815"><ele>1040.0</ele><time>2026-04-25T13:11:55.51Z</time></trkpt><trkpt lat="43.3373657" lon="13.0570261"><ele>1040.0</ele><time>2026-04-25T13:11:56.502Z</time></trkpt><trkpt lat="43.3374919" lon="13.0571943"><ele>1040.0</ele><time>2026-04-25T13:11:57.51Z</time></trkpt><trkpt lat="43.3376261" lon="13.0573673"><ele>1040.0</ele><time>2026-04-25T13:11:58.509Z</time></trkpt><trkpt lat="43.3377779" lon="13.0575517"><ele>1044.3333333333335</ele><time>2026-04-25T13:11:59.516Z</time></trkpt><trkpt lat="43.3379012" lon="13.0577381"><ele>1048.6666666666667</ele><time>2026-04-25T13:12:00.508Z</time></trkpt><trkpt lat="43.3380275" lon="13.0579055"><ele>1053.0</ele><time>2026-04-25T13:12:01.514Z</time></trkpt><trkpt lat="43.3381371" lon="13.0580922"><ele>1046.0</ele><time>2026-04-25T13:12:02.517Z</time></trkpt><trkpt lat="43.3382529" lon="13.058272"><ele>1039.0</ele><time>2026-04-25T13:12:03.52Z</time></trkpt><trkpt lat="43.3383548" lon="13.0584376"><ele>1032.0</ele><time>2026-04-25T13:12:04.516Z</time></trkpt><trkpt lat="43.3384563" lon="13.0586156"><ele>1032.0</ele><time>2026-04-25T13:12:05.515Z</time></trkpt><trkpt lat="43.338544" lon="13.0588171"><ele>1032.0</ele><time>2026-04-25T13:12:06.517Z</time></trkpt><trkpt lat="43.33861" lon="13.0589902"><ele>1032.0</ele><time>2026-04-25T13:12:07.517Z</time></trkpt><trkpt lat="43.3386999" lon="13.0591889"><ele>1035.0</ele><time>2026-04-25T13:12:08.511Z</time></trkpt><trkpt lat="43.3387897" lon="13.0593998"><ele>1038.0</ele><time>2026-04-25T13:12:09.509Z</time></trkpt><trkpt lat="43.3388524" lon="13.0596393"><ele>1041.0</ele><time>2026-04-25T13:12:10.504Z</time></trkpt><trkpt lat="43.3389114" lon="13.0598731"><ele>1032.3333333333333</ele><time>2026-04-25T13:12:11.511Z</time></trkpt><trkpt lat="43.3389277" lon="13.0601046"><ele>1023.6666666666666</ele><time>2026-04-25T13:12:12.51Z</time></trkpt><trkpt lat="43.338932" lon="13.0603277"><ele>1015.0</ele><time>2026-04-25T13:12:13.507Z</time></trkpt><trkpt lat="43.3390141" lon="13.0605599"><ele>1015.0</ele><time>2026-04-25T13:12:14.505Z</time></trkpt><trkpt lat="43.3390516" lon="13.0607177"><ele>1015.0</ele><time>2026-04-25T13:12:15.509Z</time></trkpt><trkpt lat="43.3390844" lon="13.0608831"><ele>1015.0</ele><time>2026-04-25T13:12:16.51Z</time></trkpt><trkpt lat="43.3390767" lon="13.0610647"><ele>1015.0</ele><time>2026-04-25T13:12:17.51Z</time></trkpt><trkpt lat="43.339081" lon="13.0612629"><ele>1015.0</ele><time>2026-04-25T13:12:18.512Z</time></trkpt><trkpt lat="43.3390835" lon="13.061465"><ele>1015.0</ele><time>2026-04-25T13:12:19.506Z</time></trkpt><trkpt lat="43.3391112" lon="13.0617033"><ele>1015.0</ele><time>2026-04-25T13:12:20.504Z</time></trkpt><trkpt lat="43.3391556" lon="13.0619584"><ele>1013.6666666666666</ele><time>2026-04-25T13:12:21.512Z</time></trkpt><trkpt lat="43.3391665" lon="13.0621635"><ele>1012.3333333333333</ele><time>2026-04-25T13:12:22.519Z</time></trkpt><trkpt lat="43.3391571" lon="13.062381"><ele>1011.0</ele><time>2026-04-25T13:12:23.51Z</time></trkpt><trkpt lat="43.3391378" lon="13.0625811"><ele>1007.6666666666667</ele><time>2026-04-25T13:12:24.508Z</time></trkpt><trkpt lat="43.3391201" lon="13.0627949"><ele>1004.3333333333334</ele><time>2026-04-25T13:12:25.516Z</time></trkpt><trkpt lat="43.339117" lon="13.0630089"><ele>1001.0</ele><time>2026-04-25T13:12:26.52Z</time></trkpt><trkpt lat="43.3390912" lon="13.0632028"><ele>997.6666666666667</ele><time>2026-04-25T13:12:27.518Z</time></trkpt><trkpt lat="43.339075" lon="13.0634218"><ele>994.3333333333333</ele><time>2026-04-25T13:12:28.522Z</time></trkpt><trkpt lat="43.3390618" lon="13.0636597"><ele>991.0</ele><time>2026-04-25T13:12:29.519Z</time></trkpt><trkpt lat="43.339067" lon="13.0638874"><ele>991.0</ele><time>2026-04-25T13:12:30.518Z</time></trkpt><trkpt lat="43.3390576" lon="13.0640789"><ele>991.0</ele><time>2026-04-25T13:12:31.523Z</time></trkpt><trkpt lat="43.3389996" lon="13.0642509"><ele>991.0</ele><time>2026-04-25T13:12:32.514Z</time></trkpt><trkpt lat="43.3389214" lon="13.0644037"><ele>991.0</ele><time>2026-04-25T13:12:33.517Z</time></trkpt><trkpt lat="43.3388474" lon="13.0645407"><ele>990.75</ele><time>2026-04-25T13:12:34.514Z</time></trkpt><trkpt lat="43.3387635" lon="13.0646856"><ele>990.5</ele><time>2026-04-25T13:12:35.507Z</time></trkpt><trkpt lat="43.3386687" lon="13.0648207"><ele>990.25</ele><time>2026-04-25T13:12:36.513Z</time></trkpt><trkpt lat="43.3385785" lon="13.06496"><ele>990.0</ele><time>2026-04-25T13:12:37.52Z</time></trkpt><trkpt lat="43.3384924" lon="13.0650966"><ele>990.0</ele><time>2026-04-25T13:12:38.521Z</time></trkpt><trkpt lat="43.3384095" lon="13.0652336"><ele>990.0</ele><time>2026-04-25T13:12:39.514Z</time></trkpt><trkpt lat="43.3383352" lon="13.0653684"><ele>990.0</ele><time>2026-04-25T13:12:40.524Z</time></trkpt><trkpt lat="43.3382923" lon="13.0654955"><ele>990.0</ele><time>2026-04-25T13:12:41.522Z</time></trkpt><trkpt lat="43.3382245" lon="13.0655934"><ele>990.0</ele><time>2026-04-25T13:12:42.516Z</time></trkpt><trkpt lat="43.3381722" lon="13.0657123"><ele>990.0</ele><time>2026-04-25T13:12:43.514Z</time></trkpt><trkpt lat="43.3381469" lon="13.0658006"><ele>990.0</ele><time>2026-04-25T13:12:44.512Z</time></trkpt><trkpt lat="43.3381659" lon="13.065902"><ele>990.0</ele><time>2026-04-25T13:12:46.515Z</time></trkpt><trkpt lat="43.3382051" lon="13.065989"><ele>990.0</ele><time>2026-04-25T13:13:30.529Z</time></trkpt><trkpt lat="43.338292" lon="13.0660181"><ele>990.0</ele><time>2026-04-25T13:13:32.514Z</time></trkpt><trkpt lat="43.3383766" lon="13.0659862"><ele>990.0</ele><time>2026-04-25T13:13:33.513Z</time></trkpt><trkpt lat="43.338487" lon="13.0659129"><ele>990.0</ele><time>2026-04-25T13:13:34.503Z</time></trkpt><trkpt lat="43.338578" lon="13.0658248"><ele>990.0</ele><time>2026-04-25T13:13:35.512Z</time></trkpt><trkpt lat="43.3386728" lon="13.0657067"><ele>990.0</ele><time>2026-04-25T13:13:36.507Z</time></trkpt><trkpt lat="43.3387885" lon="13.0655552"><ele>981.3333333333333</ele><time>2026-04-25T13:13:37.509Z</time></trkpt><trkpt lat="43.3389413" lon="13.0653148"><ele>972.6666666666666</ele><time>2026-04-25T13:13:38.509Z</time></trkpt><trkpt lat="43.3390483" lon="13.0651171"><ele>964.0</ele><time>2026-04-25T13:13:39.507Z</time></trkpt><trkpt lat="43.339179" lon="13.0649464"><ele>968.6666666666666</ele><time>2026-04-25T13:13:40.513Z</time></trkpt><trkpt lat="43.339326" lon="13.0647496"><ele>973.3333333333333</ele><time>2026-04-25T13:13:41.516Z</time></trkpt><trkpt lat="43.3394487" lon="13.0645722"><ele>978.0</ele><time>2026-04-25T13:13:42.515Z</time></trkpt><trkpt lat="43.3395416" lon="13.0643916"><ele>978.0</ele><time>2026-04-25T13:13:43.508Z</time></trkpt><trkpt lat="43.3396479" lon="13.0641997"><ele>978.0</ele><time>2026-04-25T13:13:44.508Z</time></trkpt><trkpt lat="43.3397608" lon="13.0640257"><ele>978.0</ele><time>2026-04-25T13:13:45.507Z</time></trkpt><trkpt lat="43.3398539" lon="13.0638556"><ele>977.0</ele><time>2026-04-25T13:13:46.504Z</time></trkpt><trkpt lat="43.3399549" lon="13.0637223"><ele>976.0</ele><time>2026-04-25T13:13:47.509Z</time></trkpt><trkpt lat="43.3400563" lon="13.0635665"><ele>975.0</ele><time>2026-04-25T13:13:48.511Z</time></trkpt><trkpt lat="43.3401402" lon="13.0633834"><ele>974.0</ele><time>2026-04-25T13:13:49.508Z</time></trkpt><trkpt lat="43.3401998" lon="13.0631905"><ele>974.0</ele><time>2026-04-25T13:13:50.51Z</time></trkpt><trkpt lat="43.3402516" lon="13.0629901"><ele>974.0</ele><time>2026-04-25T13:13:51.503Z</time></trkpt><trkpt lat="43.3402869" lon="13.0627492"><ele>974.0</ele><time>2026-04-25T13:13:52.501Z</time></trkpt><trkpt lat="43.3403507" lon="13.0625041"><ele>977.3333333333334</ele><time>2026-04-25T13:13:53.509Z</time></trkpt><trkpt lat="43.3404175" lon="13.0622655"><ele>980.6666666666667</ele><time>2026-04-25T13:13:54.504Z</time></trkpt><trkpt lat="43.3405511" lon="13.0620132"><ele>984.0</ele><time>2026-04-25T13:13:55.511Z</time></trkpt><trkpt lat="43.3406512" lon="13.0618089"><ele>981.0</ele><time>2026-04-25T13:13:56.508Z</time></trkpt><trkpt lat="43.3407128" lon="13.0616196"><ele>978.0</ele><time>2026-04-25T13:13:57.508Z</time></trkpt><trkpt lat="43.340754" lon="13.0614276"><ele>975.0</ele><time>2026-04-25T13:13:58.511Z</time></trkpt><trkpt lat="43.3408088" lon="13.0613079"><ele>972.0</ele><time>2026-04-25T13:13:59.508Z</time></trkpt><trkpt lat="43.3408486" lon="13.0611856"><ele>972.0</ele><time>2026-04-25T13:14:00.51Z</time></trkpt><trkpt lat="43.3408539" lon="13.0610541"><ele>972.0</ele><time>2026-04-25T13:14:01.501Z</time></trkpt><trkpt lat="43.3409196" lon="13.0609904"><ele>972.0</ele><time>2026-04-25T13:14:02.504Z</time></trkpt><trkpt lat="43.3409956" lon="13.0609019"><ele>972.0</ele><time>2026-04-25T13:14:03.511Z</time></trkpt><trkpt lat="43.3410897" lon="13.0608112"><ele>972.0</ele><time>2026-04-25T13:14:04.507Z</time></trkpt><trkpt lat="43.3411946" lon="13.0607309"><ele>973.5</ele><time>2026-04-25T13:14:05.509Z</time></trkpt><trkpt lat="43.341307" lon="13.0606597"><ele>975.0</ele><time>2026-04-25T13:14:06.508Z</time></trkpt><trkpt lat="43.3414172" lon="13.0605643"><ele>976.5</ele><time>2026-04-25T13:14:07.5Z</time></trkpt><trkpt lat="43.3415199" lon="13.060484"><ele>978.0</ele><time>2026-04-25T13:14:08.505Z</time></trkpt><trkpt lat="43.3416155" lon="13.0603939"><ele>974.2</ele><time>2026-04-25T13:14:09.508Z</time></trkpt><trkpt lat="43.3416967" lon="13.0603034"><ele>970.4</ele><time>2026-04-25T13:14:10.504Z</time></trkpt><trkpt lat="43.3417714" lon="13.0602201"><ele>966.6000000000001</ele><time>2026-04-25T13:14:11.513Z</time></trkpt><trkpt lat="43.3418609" lon="13.0601706"><ele>962.8000000000001</ele><time>2026-04-25T13:14:12.509Z</time></trkpt><trkpt lat="43.3419435" lon="13.0601437"><ele>959.0</ele><time>2026-04-25T13:14:13.514Z</time></trkpt><trkpt lat="43.3420371" lon="13.0601148"><ele>959.0</ele><time>2026-04-25T13:14:14.511Z</time></trkpt><trkpt lat="43.3421283" lon="13.0601029"><ele>959.0000000000001</ele><time>2026-04-25T13:14:15.513Z</time></trkpt><trkpt lat="43.3422167" lon="13.0601117"><ele>959.0000000000001</ele><time>2026-04-25T13:14:16.517Z</time></trkpt><trkpt lat="43.3423107" lon="13.0601466"><ele>959.0</ele><time>2026-04-25T13:14:17.525Z</time></trkpt><trkpt lat="43.3423954" lon="13.0602033"><ele>959.0</ele><time>2026-04-25T13:14:18.523Z</time></trkpt><trkpt lat="43.3424685" lon="13.0602607"><ele>956.0</ele><time>2026-04-25T13:14:19.522Z</time></trkpt><trkpt lat="43.3425365" lon="13.06032"><ele>953.0000000000001</ele><time>2026-04-25T13:14:20.524Z</time></trkpt><trkpt lat="43.3426063" lon="13.0603934"><ele>950.0000000000001</ele><time>2026-04-25T13:14:21.516Z</time></trkpt><trkpt lat="43.3426808" lon="13.0604609"><ele>947.0</ele><time>2026-04-25T13:14:22.515Z</time></trkpt><trkpt lat="43.3427622" lon="13.0605209"><ele>944.0</ele><time>2026-04-25T13:14:23.51Z</time></trkpt><trkpt lat="43.3428564" lon="13.0605785"><ele>944.0</ele><time>2026-04-25T13:14:24.514Z</time></trkpt><trkpt lat="43.3429505" lon="13.0606357"><ele>944.0000000000001</ele><time>2026-04-25T13:14:25.506Z</time></trkpt><trkpt lat="43.3430294" lon="13.0606944"><ele>944.0000000000001</ele><time>2026-04-25T13:14:26.509Z</time></trkpt><trkpt lat="43.3431028" lon="13.0607337"><ele>944.0</ele><time>2026-04-25T13:14:27.513Z</time></trkpt><trkpt lat="43.3432092" lon="13.0608228"><ele>944.0</ele><time>2026-04-25T13:14:28.507Z</time></trkpt><trkpt lat="43.3433244" lon="13.060845"><ele>942.6</ele><time>2026-04-25T13:14:29.515Z</time></trkpt><trkpt lat="43.3434352" lon="13.0608713"><ele>941.2</ele><time>2026-04-25T13:14:30.51Z</time></trkpt><trkpt lat="43.3435275" lon="13.0608621"><ele>939.8000000000001</ele><time>2026-04-25T13:14:31.508Z</time></trkpt><trkpt lat="43.3436296" lon="13.0608239"><ele>938.4000000000001</ele><time>2026-04-25T13:14:32.503Z</time></trkpt><trkpt lat="43.3437151" lon="13.0608034"><ele>937.0</ele><time>2026-04-25T13:14:33.518Z</time></trkpt><trkpt lat="43.3437785" lon="13.0607777"><ele>936.8</ele><time>2026-04-25T13:14:35.519Z</time></trkpt><trkpt lat="43.3437798" lon="13.0606723"><ele>936.6</ele><time>2026-04-25T13:14:37.514Z</time></trkpt><trkpt lat="43.3437262" lon="13.0605101"><ele>936.3999999999999</ele><time>2026-04-25T13:14:39.524Z</time></trkpt><trkpt lat="43.3436677" lon="13.0604083"><ele>936.1999999999999</ele><time>2026-04-25T13:14:40.524Z</time></trkpt><trkpt lat="43.3436132" lon="13.0602933"><ele>936.0</ele><time>2026-04-25T13:14:41.528Z</time></trkpt><trkpt lat="43.3435678" lon="13.0601761"><ele>936.0</ele><time>2026-04-25T13:14:42.528Z</time></trkpt><trkpt lat="43.343517" lon="13.060059"><ele>935.9999999999999</ele><time>2026-04-25T13:14:43.526Z</time></trkpt><trkpt lat="43.3434674" lon="13.0599434"><ele>935.9999999999999</ele><time>2026-04-25T13:14:44.529Z</time></trkpt><trkpt lat="43.3434237" lon="13.0598432"><ele>936.0</ele><time>2026-04-25T13:14:45.526Z</time></trkpt><trkpt lat="43.343374" lon="13.0597449"><ele>936.0</ele><time>2026-04-25T13:14:46.531Z</time></trkpt><trkpt lat="43.3433233" lon="13.0596472"><ele>937.0</ele><time>2026-04-25T13:14:47.53Z</time></trkpt><trkpt lat="43.3432726" lon="13.0595645"><ele>938.0</ele><time>2026-04-25T13:14:48.531Z</time></trkpt><trkpt lat="43.3432214" lon="13.0594871"><ele>939.0</ele><time>2026-04-25T13:14:49.533Z</time></trkpt><trkpt lat="43.3431777" lon="13.0594092"><ele>940.0</ele><time>2026-04-25T13:14:50.536Z</time></trkpt><trkpt lat="43.3431098" lon="13.0592827"><ele>941.0</ele><time>2026-04-25T13:14:52.534Z</time></trkpt><trkpt lat="43.3430572" lon="13.0591935"><ele>942.0</ele><time>2026-04-25T13:14:54.531Z</time></trkpt><trkpt lat="43.3430343" lon="13.0591004"><ele>944.0</ele><time>2026-04-25T13:14:57.544Z</time></trkpt><trkpt lat="43.3430973" lon="13.0590953"><ele>950.0</ele><time>2026-04-25T13:20:22.546Z</time></trkpt></trkseg><trkseg><trkpt lat="43.3430784" lon="13.0591175"><ele>942.0</ele><time>2026-04-25T13:30:35.54Z</time></trkpt><trkpt lat="43.3431278" lon="13.0592032"><ele>942.0</ele><time>2026-04-25T13:30:52.53Z</time></trkpt><trkpt lat="43.3431607" lon="13.0593074"><ele>942.0</ele><time>2026-04-25T13:30:54.538Z</time></trkpt><trkpt lat="43.3432022" lon="13.0594221"><ele>942.0</ele><time>2026-04-25T13:30:56.54Z</time></trkpt><trkpt lat="43.3432557" lon="13.0595425"><ele>942.0</ele><time>2026-04-25T13:30:58.539Z</time></trkpt><trkpt lat="43.3433203" lon="13.0596775"><ele>942.0</ele><time>2026-04-25T13:31:00.541Z</time></trkpt><trkpt lat="43.3433918" lon="13.0598078"><ele>942.0</ele><time>2026-04-25T13:31:02.539Z</time></trkpt><trkpt lat="43.3434319" lon="13.0598774"><ele>942.0</ele><time>2026-04-25T13:31:03.536Z</time></trkpt><trkpt lat="43.3434841" lon="13.0599925"><ele>942.0</ele><time>2026-04-25T13:31:05.529Z</time></trkpt><trkpt lat="43.3435271" lon="13.0601237"><ele>942.0</ele><time>2026-04-25T13:31:07.533Z</time></trkpt><trkpt lat="43.3435749" lon="13.0602695"><ele>941.0</ele><time>2026-04-25T13:31:09.53Z</time></trkpt><trkpt lat="43.3436258" lon="13.0604129"><ele>940.0</ele><time>2026-04-25T13:31:11.533Z</time></trkpt><trkpt lat="43.3436774" lon="13.0605779"><ele>939.0</ele><time>2026-04-25T13:31:13.532Z</time></trkpt><trkpt lat="43.3437227" lon="13.0606652"><ele>938.0</ele><time>2026-04-25T13:31:14.536Z</time></trkpt><trkpt lat="43.3437831" lon="13.0607315"><ele>937.0</ele><time>2026-04-25T13:31:15.532Z</time></trkpt><trkpt lat="43.3438549" lon="13.0607948"><ele>936.2</ele><time>2026-04-25T13:31:16.535Z</time></trkpt><trkpt lat="43.3439406" lon="13.0608629"><ele>935.4000000000001</ele><time>2026-04-25T13:31:17.533Z</time></trkpt><trkpt lat="43.3440258" lon="13.0609273"><ele>934.5999999999999</ele><time>2026-04-25T13:31:18.531Z</time></trkpt><trkpt lat="43.3441138" lon="13.0609933"><ele>933.8</ele><time>2026-04-25T13:31:19.546Z</time></trkpt><trkpt lat="43.3441938" lon="13.0610647"><ele>933.0</ele><time>2026-04-25T13:31:20.533Z</time></trkpt><trkpt lat="43.3442625" lon="13.0611347"><ele>933.0</ele><time>2026-04-25T13:31:21.548Z</time></trkpt><trkpt lat="43.3443383" lon="13.0612071"><ele>933.0</ele><time>2026-04-25T13:31:22.54Z</time></trkpt><trkpt lat="43.3444261" lon="13.0612896"><ele>933.0</ele><time>2026-04-25T13:31:23.547Z</time></trkpt><trkpt lat="43.3444939" lon="13.0613698"><ele>933.0</ele><time>2026-04-25T13:31:24.532Z</time></trkpt><trkpt lat="43.3445692" lon="13.0614531"><ele>933.0</ele><time>2026-04-25T13:31:25.538Z</time></trkpt><trkpt lat="43.3446412" lon="13.0615269"><ele>932.4</ele><time>2026-04-25T13:31:26.531Z</time></trkpt><trkpt lat="43.344725" lon="13.0616051"><ele>931.8</ele><time>2026-04-25T13:31:27.531Z</time></trkpt><trkpt lat="43.3447981" lon="13.0616889"><ele>931.2</ele><time>2026-04-25T13:31:28.525Z</time></trkpt><trkpt lat="43.3448672" lon="13.0618074"><ele>930.6</ele><time>2026-04-25T13:31:29.53Z</time></trkpt><trkpt lat="43.3449422" lon="13.0619329"><ele>930.0</ele><time>2026-04-25T13:31:30.524Z</time></trkpt><trkpt lat="43.3450208" lon="13.0620509"><ele>930.0</ele><time>2026-04-25T13:31:31.531Z</time></trkpt><trkpt lat="43.3451082" lon="13.0621778"><ele>930.0</ele><time>2026-04-25T13:31:32.529Z</time></trkpt><trkpt lat="43.3452048" lon="13.0622982"><ele>930.0</ele><time>2026-04-25T13:31:33.535Z</time></trkpt><trkpt lat="43.3453048" lon="13.0624222"><ele>930.0</ele><time>2026-04-25T13:31:34.523Z</time></trkpt><trkpt lat="43.3454102" lon="13.0625352"><ele>932.0</ele><time>2026-04-25T13:31:35.528Z</time></trkpt><trkpt lat="43.3455083" lon="13.0626593"><ele>934.0</ele><time>2026-04-25T13:31:36.526Z</time></trkpt><trkpt lat="43.3455968" lon="13.0628104"><ele>936.0</ele><time>2026-04-25T13:31:37.533Z</time></trkpt><trkpt lat="43.3456823" lon="13.0629491"><ele>938.0</ele><time>2026-04-25T13:31:38.531Z</time></trkpt><trkpt lat="43.3457825" lon="13.063081"><ele>938.0</ele><time>2026-04-25T13:31:39.532Z</time></trkpt><trkpt lat="43.3458689" lon="13.0632156"><ele>938.0</ele><time>2026-04-25T13:31:40.524Z</time></trkpt><trkpt lat="43.3459645" lon="13.0633497"><ele>938.0</ele><time>2026-04-25T13:31:41.526Z</time></trkpt><trkpt lat="43.3460422" lon="13.0634798"><ele>938.0</ele><time>2026-04-25T13:31:42.526Z</time></trkpt><trkpt lat="43.346115" lon="13.0635869"><ele>938.75</ele><time>2026-04-25T13:31:43.531Z</time></trkpt><trkpt lat="43.3462" lon="13.0636926"><ele>939.5</ele><time>2026-04-25T13:31:44.524Z</time></trkpt><trkpt lat="43.3463114" lon="13.0638023"><ele>940.25</ele><time>2026-04-25T13:31:45.53Z</time></trkpt><trkpt lat="43.3464099" lon="13.0639258"><ele>941.0</ele><time>2026-04-25T13:31:46.526Z</time></trkpt><trkpt lat="43.3465125" lon="13.0640474"><ele>936.75</ele><time>2026-04-25T13:31:47.53Z</time></trkpt><trkpt lat="43.3466065" lon="13.0641761"><ele>932.5</ele><time>2026-04-25T13:31:48.532Z</time></trkpt><trkpt lat="43.3467056" lon="13.0643173"><ele>928.25</ele><time>2026-04-25T13:31:49.529Z</time></trkpt><trkpt lat="43.3467937" lon="13.0644713"><ele>924.0</ele><time>2026-04-25T13:31:50.541Z</time></trkpt><trkpt lat="43.3468906" lon="13.0646168"><ele>924.0</ele><time>2026-04-25T13:31:51.53Z</time></trkpt><trkpt lat="43.3469801" lon="13.064779"><ele>924.0</ele><time>2026-04-25T13:31:52.537Z</time></trkpt><trkpt lat="43.3470672" lon="13.0649471"><ele>924.0</ele><time>2026-04-25T13:31:53.527Z</time></trkpt><trkpt lat="43.3471619" lon="13.0651256"><ele>925.6666666666667</ele><time>2026-04-25T13:31:54.528Z</time></trkpt><trkpt lat="43.3472525" lon="13.0653096"><ele>927.3333333333334</ele><time>2026-04-25T13:31:55.52Z</time></trkpt><trkpt lat="43.347335" lon="13.0654927"><ele>929.0</ele><time>2026-04-25T13:31:56.525Z</time></trkpt><trkpt lat="43.3474126" lon="13.0656775"><ele>924.0</ele><time>2026-04-25T13:31:57.526Z</time></trkpt><trkpt lat="43.3474774" lon="13.0658698"><ele>919.0</ele><time>2026-04-25T13:31:58.524Z</time></trkpt><trkpt lat="43.3475518" lon="13.0660296"><ele>914.0</ele><time>2026-04-25T13:31:59.523Z</time></trkpt><trkpt lat="43.3476341" lon="13.0662035"><ele>909.0</ele><time>2026-04-25T13:32:00.526Z</time></trkpt><trkpt lat="43.3477077" lon="13.0663509"><ele>909.0</ele><time>2026-04-25T13:32:01.526Z</time></trkpt><trkpt lat="43.3477706" lon="13.0664909"><ele>909.0</ele><time>2026-04-25T13:32:02.537Z</time></trkpt><trkpt lat="43.3478313" lon="13.0666384"><ele>909.0</ele><time>2026-04-25T13:32:03.53Z</time></trkpt><trkpt lat="43.3478982" lon="13.0668061"><ele>909.0</ele><time>2026-04-25T13:32:04.536Z</time></trkpt><trkpt lat="43.3479806" lon="13.0669767"><ele>909.0</ele><time>2026-04-25T13:32:05.528Z</time></trkpt><trkpt lat="43.34807" lon="13.0671419"><ele>909.0</ele><time>2026-04-25T13:32:06.542Z</time></trkpt><trkpt lat="43.3481602" lon="13.0672902"><ele>909.0</ele><time>2026-04-25T13:32:07.535Z</time></trkpt><trkpt lat="43.3482517" lon="13.0674484"><ele>909.0</ele><time>2026-04-25T13:32:08.53Z</time></trkpt><trkpt lat="43.3483399" lon="13.0675697"><ele>904.75</ele><time>2026-04-25T13:32:09.532Z</time></trkpt><trkpt lat="43.348427" lon="13.0677117"><ele>900.5</ele><time>2026-04-25T13:32:10.537Z</time></trkpt><trkpt lat="43.348516" lon="13.0678572"><ele>896.25</ele><time>2026-04-25T13:32:11.542Z</time></trkpt><trkpt lat="43.348589" lon="13.0679487"><ele>892.0</ele><time>2026-04-25T13:32:12.536Z</time></trkpt><trkpt lat="43.3486803" lon="13.0680069"><ele>891.9999999999999</ele><time>2026-04-25T13:32:13.532Z</time></trkpt><trkpt lat="43.3487468" lon="13.068058"><ele>892.0</ele><time>2026-04-25T13:32:14.528Z</time></trkpt><trkpt lat="43.3488421" lon="13.0681538"><ele>892.0</ele><time>2026-04-25T13:32:16.527Z</time></trkpt><trkpt lat="43.3489179" lon="13.0681968"><ele>892.0</ele><time>2026-04-25T13:32:18.53Z</time></trkpt><trkpt lat="43.3489146" lon="13.0680976"><ele>891.9999999999999</ele><time>2026-04-25T13:32:25.522Z</time></trkpt><trkpt lat="43.3488364" lon="13.0680132"><ele>892.0</ele><time>2026-04-25T13:32:28.531Z</time></trkpt><trkpt lat="43.3487864" lon="13.0679599"><ele>891.9999999999999</ele><time>2026-04-25T13:32:29.523Z</time></trkpt><trkpt lat="43.3487074" lon="13.0678261"><ele>892.0</ele><time>2026-04-25T13:32:31.522Z</time></trkpt><trkpt lat="43.3486748" lon="13.0677367"><ele>892.0</ele><time>2026-04-25T13:32:32.529Z</time></trkpt><trkpt lat="43.3486469" lon="13.0676464"><ele>892.0</ele><time>2026-04-25T13:32:33.521Z</time></trkpt><trkpt lat="43.348627" lon="13.0675378"><ele>891.9999999999999</ele><time>2026-04-25T13:32:34.529Z</time></trkpt><trkpt lat="43.3486151" lon="13.0674351"><ele>892.0</ele><time>2026-04-25T13:32:35.528Z</time></trkpt><trkpt lat="43.3486034" lon="13.0673351"><ele>894.8333333333333</ele><time>2026-04-25T13:32:36.531Z</time></trkpt><trkpt lat="43.3485869" lon="13.0672395"><ele>897.6666666666666</ele><time>2026-04-25T13:32:37.525Z</time></trkpt><trkpt lat="43.3485648" lon="13.0671249"><ele>900.5</ele><time>2026-04-25T13:32:38.538Z</time></trkpt><trkpt lat="43.3485482" lon="13.067021"><ele>903.3333333333333</ele><time>2026-04-25T13:32:39.528Z</time></trkpt><trkpt lat="43.348528" lon="13.0669123"><ele>906.1666666666666</ele><time>2026-04-25T13:32:40.53Z</time></trkpt><trkpt lat="43.3485064" lon="13.0667996"><ele>909.0</ele><time>2026-04-25T13:32:41.532Z</time></trkpt><trkpt lat="43.3484868" lon="13.0666934"><ele>911.6666666666666</ele><time>2026-04-25T13:32:42.527Z</time></trkpt><trkpt lat="43.3484744" lon="13.0665915"><ele>914.3333333333333</ele><time>2026-04-25T13:32:43.538Z</time></trkpt><trkpt lat="43.3484698" lon="13.0664941"><ele>917.0</ele><time>2026-04-25T13:32:44.527Z</time></trkpt><trkpt lat="43.3484896" lon="13.0663534"><ele>919.6666666666666</ele><time>2026-04-25T13:32:46.53Z</time></trkpt><trkpt lat="43.3485289" lon="13.06627"><ele>922.3333333333333</ele><time>2026-04-25T13:32:48.536Z</time></trkpt><trkpt lat="43.3485869" lon="13.0662261"><ele>925.0</ele><time>2026-04-25T13:32:50.537Z</time></trkpt><trkpt lat="43.3486627" lon="13.0662205"><ele>924.9999999999999</ele><time>2026-04-25T13:32:52.537Z</time></trkpt><trkpt lat="43.3487321" lon="13.0662392"><ele>925.0</ele><time>2026-04-25T13:32:54.529Z</time></trkpt><trkpt lat="43.3488071" lon="13.0662264"><ele>925.0</ele><time>2026-04-25T13:32:56.525Z</time></trkpt><trkpt lat="43.3489004" lon="13.0662126"><ele>925.0</ele><time>2026-04-25T13:32:58.532Z</time></trkpt><trkpt lat="43.3489799" lon="13.0661927"><ele>924.9999999999999</ele><time>2026-04-25T13:33:00.533Z</time></trkpt><trkpt lat="43.3490515" lon="13.0661617"><ele>925.0</ele><time>2026-04-25T13:33:02.533Z</time></trkpt><trkpt lat="43.3491437" lon="13.0661352"><ele>924.8333333333333</ele><time>2026-04-25T13:33:05.539Z</time></trkpt><trkpt lat="43.3492118" lon="13.0661204"><ele>924.6666666666666</ele><time>2026-04-25T13:33:07.541Z</time></trkpt><trkpt lat="43.3492843" lon="13.0661006"><ele>924.5</ele><time>2026-04-25T13:33:09.54Z</time></trkpt><trkpt lat="43.34935" lon="13.0660684"><ele>924.3333333333333</ele><time>2026-04-25T13:33:11.535Z</time></trkpt><trkpt lat="43.3494305" lon="13.0660509"><ele>924.1666666666666</ele><time>2026-04-25T13:33:13.542Z</time></trkpt><trkpt lat="43.3495335" lon="13.0660327"><ele>924.0</ele><time>2026-04-25T13:33:15.542Z</time></trkpt><trkpt lat="43.3496419" lon="13.0660123"><ele>923.0</ele><time>2026-04-25T13:33:17.534Z</time></trkpt><trkpt lat="43.3497494" lon="13.0659888"><ele>922.0000000000001</ele><time>2026-04-25T13:33:19.526Z</time></trkpt><trkpt lat="43.3498165" lon="13.0659773"><ele>921.0000000000001</ele><time>2026-04-25T13:33:20.532Z</time></trkpt><trkpt lat="43.3499098" lon="13.0659419"><ele>920.0</ele><time>2026-04-25T13:33:21.525Z</time></trkpt><trkpt lat="43.3500035" lon="13.0659061"><ele>919.0</ele><time>2026-04-25T13:33:22.522Z</time></trkpt><trkpt lat="43.3501128" lon="13.0658593"><ele>919.0</ele><time>2026-04-25T13:33:23.538Z</time></trkpt><trkpt lat="43.3502205" lon="13.0657995"><ele>919.0</ele><time>2026-04-25T13:33:24.522Z</time></trkpt><trkpt lat="43.3503282" lon="13.0657286"><ele>919.0</ele><time>2026-04-25T13:33:25.526Z</time></trkpt><trkpt lat="43.3504411" lon="13.0656642"><ele>919.0</ele><time>2026-04-25T13:33:26.52Z</time></trkpt><trkpt lat="43.3505481" lon="13.0655928"><ele>920.25</ele><time>2026-04-25T13:33:27.525Z</time></trkpt><trkpt lat="43.3506745" lon="13.0655168"><ele>921.5</ele><time>2026-04-25T13:33:28.528Z</time></trkpt><trkpt lat="43.3507955" lon="13.0654316"><ele>922.75</ele><time>2026-04-25T13:33:29.527Z</time></trkpt><trkpt lat="43.3509072" lon="13.065349"><ele>924.0</ele><time>2026-04-25T13:33:30.531Z</time></trkpt><trkpt lat="43.3510068" lon="13.0652815"><ele>924.0</ele><time>2026-04-25T13:33:31.52Z</time></trkpt><trkpt lat="43.3511076" lon="13.0652209"><ele>924.0</ele><time>2026-04-25T13:33:32.527Z</time></trkpt><trkpt lat="43.3512183" lon="13.0651595"><ele>924.0</ele><time>2026-04-25T13:33:33.527Z</time></trkpt><trkpt lat="43.3513379" lon="13.0650807"><ele>924.0</ele><time>2026-04-25T13:33:34.524Z</time></trkpt><trkpt lat="43.3514503" lon="13.064991"><ele>922.25</ele><time>2026-04-25T13:33:35.528Z</time></trkpt><trkpt lat="43.35156" lon="13.0648917"><ele>920.5</ele><time>2026-04-25T13:33:36.521Z</time></trkpt><trkpt lat="43.3516638" lon="13.0647895"><ele>918.75</ele><time>2026-04-25T13:33:37.528Z</time></trkpt><trkpt lat="43.3517564" lon="13.0646778"><ele>917.0</ele><time>2026-04-25T13:33:38.536Z</time></trkpt><trkpt lat="43.3518427" lon="13.0645534"><ele>917.0</ele><time>2026-04-25T13:33:39.533Z</time></trkpt><trkpt lat="43.3519217" lon="13.0644129"><ele>917.0</ele><time>2026-04-25T13:33:40.532Z</time></trkpt><trkpt lat="43.3519987" lon="13.0642649"><ele>917.0</ele><time>2026-04-25T13:33:41.533Z</time></trkpt><trkpt lat="43.3520616" lon="13.064102"><ele>917.0</ele><time>2026-04-25T13:33:42.536Z</time></trkpt><trkpt lat="43.3521192" lon="13.0639393"><ele>919.0</ele><time>2026-04-25T13:33:43.525Z</time></trkpt><trkpt lat="43.3521692" lon="13.0637557"><ele>921.0</ele><time>2026-04-25T13:33:44.539Z</time></trkpt><trkpt lat="43.3522204" lon="13.0635794"><ele>923.0</ele><time>2026-04-25T13:33:45.524Z</time></trkpt><trkpt lat="43.352267" lon="13.063404"><ele>925.0</ele><time>2026-04-25T13:33:46.535Z</time></trkpt><trkpt lat="43.3523142" lon="13.0632289"><ele>920.25</ele><time>2026-04-25T13:33:47.535Z</time></trkpt><trkpt lat="43.3523679" lon="13.0630483"><ele>915.5</ele><time>2026-04-25T13:33:48.531Z</time></trkpt><trkpt lat="43.3524135" lon="13.0628728"><ele>910.75</ele><time>2026-04-25T13:33:49.533Z</time></trkpt><trkpt lat="43.3524515" lon="13.0626973"><ele>906.0</ele><time>2026-04-25T13:33:50.536Z</time></trkpt><trkpt lat="43.3524974" lon="13.0625292"><ele>907.25</ele><time>2026-04-25T13:33:51.528Z</time></trkpt><trkpt lat="43.3525436" lon="13.0623402"><ele>908.5</ele><time>2026-04-25T13:33:52.532Z</time></trkpt><trkpt lat="43.3525891" lon="13.0621659"><ele>909.75</ele><time>2026-04-25T13:33:53.537Z</time></trkpt><trkpt lat="43.3526367" lon="13.061983"><ele>911.0</ele><time>2026-04-25T13:33:54.531Z</time></trkpt><trkpt lat="43.3526949" lon="13.0618041"><ele>911.75</ele><time>2026-04-25T13:33:55.537Z</time></trkpt><trkpt lat="43.3527448" lon="13.0616096"><ele>912.5</ele><time>2026-04-25T13:33:56.532Z</time></trkpt><trkpt lat="43.3528105" lon="13.0614304"><ele>913.25</ele><time>2026-04-25T13:33:57.539Z</time></trkpt><trkpt lat="43.3528586" lon="13.0612427"><ele>914.0</ele><time>2026-04-25T13:33:58.545Z</time></trkpt><trkpt lat="43.3529201" lon="13.0610618"><ele>914.0</ele><time>2026-04-25T13:33:59.538Z</time></trkpt><trkpt lat="43.3529778" lon="13.0608824"><ele>914.0</ele><time>2026-04-25T13:34:00.542Z</time></trkpt><trkpt lat="43.3530252" lon="13.0606888"><ele>914.0</ele><time>2026-04-25T13:34:01.536Z</time></trkpt><trkpt lat="43.3530766" lon="13.0604928"><ele>914.0</ele><time>2026-04-25T13:34:02.543Z</time></trkpt><trkpt lat="43.353116" lon="13.0603161"><ele>911.75</ele><time>2026-04-25T13:34:03.533Z</time></trkpt><trkpt lat="43.3531527" lon="13.0601336"><ele>909.5</ele><time>2026-04-25T13:34:04.54Z</time></trkpt><trkpt lat="43.3531925" lon="13.0599686"><ele>907.25</ele><time>2026-04-25T13:34:05.536Z</time></trkpt><trkpt lat="43.3532313" lon="13.0598365"><ele>905.0</ele><time>2026-04-25T13:34:06.535Z</time></trkpt><trkpt lat="43.3532877" lon="13.059708"><ele>905.0</ele><time>2026-04-25T13:34:07.525Z</time></trkpt><trkpt lat="43.3533634" lon="13.0596004"><ele>905.0</ele><time>2026-04-25T13:34:08.539Z</time></trkpt><trkpt lat="43.3534465" lon="13.0595019"><ele>905.0</ele><time>2026-04-25T13:34:09.531Z</time></trkpt><trkpt lat="43.3535364" lon="13.0593996"><ele>905.0</ele><time>2026-04-25T13:34:10.518Z</time></trkpt><trkpt lat="43.3536449" lon="13.059307"><ele>905.0</ele><time>2026-04-25T13:34:11.529Z</time></trkpt><trkpt lat="43.3537603" lon="13.059218"><ele>905.0</ele><time>2026-04-25T13:34:12.541Z</time></trkpt><trkpt lat="43.3538772" lon="13.0591234"><ele>905.0</ele><time>2026-04-25T13:34:13.535Z</time></trkpt><trkpt lat="43.3539952" lon="13.0590242"><ele>905.0</ele><time>2026-04-25T13:34:14.534Z</time></trkpt><trkpt lat="43.3541054" lon="13.0589117"><ele>902.25</ele><time>2026-04-25T13:34:15.533Z</time></trkpt><trkpt lat="43.3542067" lon="13.0587946"><ele>899.5</ele><time>2026-04-25T13:34:16.541Z</time></trkpt><trkpt lat="43.3543091" lon="13.0586837"><ele>896.75</ele><time>2026-04-25T13:34:17.532Z</time></trkpt><trkpt lat="43.3544224" lon="13.0585665"><ele>894.0</ele><time>2026-04-25T13:34:18.532Z</time></trkpt><trkpt lat="43.3545329" lon="13.0584601"><ele>894.0</ele><time>2026-04-25T13:34:19.529Z</time></trkpt><trkpt lat="43.3546423" lon="13.0583708"><ele>894.0</ele><time>2026-04-25T13:34:20.535Z</time></trkpt><trkpt lat="43.3547427" lon="13.05828"><ele>894.0</ele><time>2026-04-25T13:34:21.537Z</time></trkpt><trkpt lat="43.3548394" lon="13.058205"><ele>894.0</ele><time>2026-04-25T13:34:22.543Z</time></trkpt><trkpt lat="43.3549283" lon="13.0581253"><ele>891.2</ele><time>2026-04-25T13:34:23.544Z</time></trkpt><trkpt lat="43.3550196" lon="13.0580369"><ele>888.4000000000001</ele><time>2026-04-25T13:34:24.548Z</time></trkpt><trkpt lat="43.3550884" lon="13.0579706"><ele>885.6</ele><time>2026-04-25T13:34:25.539Z</time></trkpt><trkpt lat="43.3551816" lon="13.0578757"><ele>882.8</ele><time>2026-04-25T13:34:27.537Z</time></trkpt><trkpt lat="43.3552194" lon="13.0577333"><ele>880.0</ele><time>2026-04-25T13:34:29.547Z</time></trkpt><trkpt lat="43.3551771" lon="13.0575675"><ele>880.0</ele><time>2026-04-25T13:34:31.528Z</time></trkpt><trkpt lat="43.3551319" lon="13.0574843"><ele>880.0</ele><time>2026-04-25T13:34:32.531Z</time></trkpt><trkpt lat="43.3550789" lon="13.0573872"><ele>880.0</ele><time>2026-04-25T13:34:33.54Z</time></trkpt><trkpt lat="43.3550209" lon="13.0572695"><ele>880.0</ele><time>2026-04-25T13:34:34.532Z</time></trkpt><trkpt lat="43.3549369" lon="13.0571507"><ele>880.0</ele><time>2026-04-25T13:34:35.538Z</time></trkpt><trkpt lat="43.3548596" lon="13.057025"><ele>882.25</ele><time>2026-04-25T13:34:36.526Z</time></trkpt><trkpt lat="43.3547806" lon="13.056888"><ele>884.5</ele><time>2026-04-25T13:34:37.528Z</time></trkpt><trkpt lat="43.35471" lon="13.0567517"><ele>886.75</ele><time>2026-04-25T13:34:38.519Z</time></trkpt><trkpt lat="43.3546389" lon="13.056594"><ele>889.0</ele><time>2026-04-25T13:34:39.523Z</time></trkpt><trkpt lat="43.3545909" lon="13.0564453"><ele>889.0</ele><time>2026-04-25T13:34:40.527Z</time></trkpt><trkpt lat="43.3545253" lon="13.0562888"><ele>889.0</ele><time>2026-04-25T13:34:41.529Z</time></trkpt><trkpt lat="43.3544569" lon="13.0561496"><ele>889.0</ele><time>2026-04-25T13:34:42.534Z</time></trkpt><trkpt lat="43.3543853" lon="13.0560157"><ele>889.0</ele><time>2026-04-25T13:34:43.532Z</time></trkpt><trkpt lat="43.3543166" lon="13.0558949"><ele>883.5</ele><time>2026-04-25T13:34:44.526Z</time></trkpt><trkpt lat="43.3542472" lon="13.0557863"><ele>878.0</ele><time>2026-04-25T13:34:45.526Z</time></trkpt><trkpt lat="43.3541703" lon="13.0556691"><ele>872.5</ele><time>2026-04-25T13:34:46.524Z</time></trkpt><trkpt lat="43.3540886" lon="13.0555565"><ele>867.0</ele><time>2026-04-25T13:34:47.518Z</time></trkpt><trkpt lat="43.3540095" lon="13.0554355"><ele>867.0</ele><time>2026-04-25T13:34:48.524Z</time></trkpt><trkpt lat="43.3539323" lon="13.0553053"><ele>867.0</ele><time>2026-04-25T13:34:49.521Z</time></trkpt><trkpt lat="43.3538432" lon="13.0551545"><ele>867.0</ele><time>2026-04-25T13:34:50.53Z</time></trkpt><trkpt lat="43.3537659" lon="13.0550288"><ele>867.0</ele><time>2026-04-25T13:34:51.519Z</time></trkpt><trkpt lat="43.3536939" lon="13.0549131"><ele>866.8</ele><time>2026-04-25T13:34:52.527Z</time></trkpt><trkpt lat="43.3536439" lon="13.0547962"><ele>866.6</ele><time>2026-04-25T13:34:53.518Z</time></trkpt><trkpt lat="43.3535742" lon="13.0546908"><ele>866.3999999999999</ele><time>2026-04-25T13:34:54.52Z</time></trkpt><trkpt lat="43.3535003" lon="13.0545993"><ele>866.1999999999999</ele><time>2026-04-25T13:34:55.529Z</time></trkpt><trkpt lat="43.3534348" lon="13.0545"><ele>866.0</ele><time>2026-04-25T13:34:56.518Z</time></trkpt><trkpt lat="43.3533585" lon="13.0543884"><ele>866.0</ele><time>2026-04-25T13:34:57.519Z</time></trkpt><trkpt lat="43.3532872" lon="13.054288"><ele>865.9999999999999</ele><time>2026-04-25T13:34:58.517Z</time></trkpt><trkpt lat="43.3532069" lon="13.054228"><ele>865.9999999999999</ele><time>2026-04-25T13:34:59.516Z</time></trkpt><trkpt lat="43.3531182" lon="13.0541528"><ele>866.0</ele><time>2026-04-25T13:35:00.517Z</time></trkpt><trkpt lat="43.3530013" lon="13.0540793"><ele>866.0</ele><time>2026-04-25T13:35:01.518Z</time></trkpt><trkpt lat="43.3528713" lon="13.0539897"><ele>861.0</ele><time>2026-04-25T13:35:02.516Z</time></trkpt><trkpt lat="43.3527398" lon="13.0539502"><ele>856.0</ele><time>2026-04-25T13:35:03.51Z</time></trkpt><trkpt lat="43.3526063" lon="13.0539296"><ele>851.0</ele><time>2026-04-25T13:35:04.519Z</time></trkpt><trkpt lat="43.3524667" lon="13.0539053"><ele>846.0</ele><time>2026-04-25T13:35:05.518Z</time></trkpt><trkpt lat="43.3523304" lon="13.05389"><ele>846.0</ele><time>2026-04-25T13:35:06.523Z</time></trkpt><trkpt lat="43.3522087" lon="13.0538821"><ele>846.0</ele><time>2026-04-25T13:35:07.515Z</time></trkpt><trkpt lat="43.3520776" lon="13.0538575"><ele>846.0</ele><time>2026-04-25T13:35:08.513Z</time></trkpt><trkpt lat="43.3519665" lon="13.0538578"><ele>846.0</ele><time>2026-04-25T13:35:09.51Z</time></trkpt><trkpt lat="43.3518548" lon="13.0538732"><ele>847.1666666666666</ele><time>2026-04-25T13:35:10.519Z</time></trkpt><trkpt lat="43.3517491" lon="13.0538674"><ele>848.3333333333333</ele><time>2026-04-25T13:35:11.516Z</time></trkpt><trkpt lat="43.3516573" lon="13.0538147"><ele>849.5</ele><time>2026-04-25T13:35:12.525Z</time></trkpt><trkpt lat="43.3515994" lon="13.0537588"><ele>850.6666666666666</ele><time>2026-04-25T13:35:13.507Z</time></trkpt><trkpt lat="43.3515292" lon="13.0537058"><ele>851.8333333333333</ele><time>2026-04-25T13:35:14.517Z</time></trkpt><trkpt lat="43.3514688" lon="13.0536698"><ele>853.0</ele><time>2026-04-25T13:35:15.516Z</time></trkpt><trkpt lat="43.3513976" lon="13.0535785"><ele>850.5999999999999</ele><time>2026-04-25T13:35:16.523Z</time></trkpt><trkpt lat="43.3513365" lon="13.0534915"><ele>848.1999999999999</ele><time>2026-04-25T13:35:17.51Z</time></trkpt><trkpt lat="43.351254" lon="13.0533873"><ele>845.8</ele><time>2026-04-25T13:35:18.523Z</time></trkpt><trkpt lat="43.3511709" lon="13.0532742"><ele>843.4</ele><time>2026-04-25T13:35:19.515Z</time></trkpt><trkpt lat="43.3510745" lon="13.0531563"><ele>841.0</ele><time>2026-04-25T13:35:20.517Z</time></trkpt><trkpt lat="43.3509854" lon="13.0530529"><ele>841.0</ele><time>2026-04-25T13:35:21.517Z</time></trkpt><trkpt lat="43.3508904" lon="13.0529571"><ele>841.0</ele><time>2026-04-25T13:35:22.536Z</time></trkpt><trkpt lat="43.3507856" lon="13.0528526"><ele>841.0</ele><time>2026-04-25T13:35:23.526Z</time></trkpt><trkpt lat="43.3506878" lon="13.0527615"><ele>841.0</ele><time>2026-04-25T13:35:24.534Z</time></trkpt><trkpt lat="43.3505967" lon="13.0526798"><ele>842.8</ele><time>2026-04-25T13:35:25.528Z</time></trkpt><trkpt lat="43.3505009" lon="13.0526077"><ele>844.5999999999999</ele><time>2026-04-25T13:35:26.536Z</time></trkpt><trkpt lat="43.3503937" lon="13.052556"><ele>846.4</ele><time>2026-04-25T13:35:27.521Z</time></trkpt><trkpt lat="43.3502912" lon="13.052503"><ele>848.2</ele><time>2026-04-25T13:35:28.532Z</time></trkpt><trkpt lat="43.3501977" lon="13.052463"><ele>850.0</ele><time>2026-04-25T13:35:29.528Z</time></trkpt><trkpt lat="43.3501018" lon="13.0524224"><ele>847.0</ele><time>2026-04-25T13:35:30.537Z</time></trkpt><trkpt lat="43.3500092" lon="13.0523838"><ele>844.0</ele><time>2026-04-25T13:35:31.535Z</time></trkpt><trkpt lat="43.3499115" lon="13.0523483"><ele>841.0</ele><time>2026-04-25T13:35:32.535Z</time></trkpt><trkpt lat="43.3498114" lon="13.0523356"><ele>838.0</ele><time>2026-04-25T13:35:33.527Z</time></trkpt><trkpt lat="43.3497122" lon="13.0523375"><ele>835.0</ele><time>2026-04-25T13:35:34.529Z</time></trkpt><trkpt lat="43.3496166" lon="13.0523409"><ele>835.0</ele><time>2026-04-25T13:35:35.528Z</time></trkpt><trkpt lat="43.3495203" lon="13.0523543"><ele>835.0</ele><time>2026-04-25T13:35:36.531Z</time></trkpt><trkpt lat="43.3494222" lon="13.0523825"><ele>835.0</ele><time>2026-04-25T13:35:37.525Z</time></trkpt><trkpt lat="43.3493221" lon="13.0524177"><ele>835.0</ele><time>2026-04-25T13:35:38.528Z</time></trkpt><trkpt lat="43.3492149" lon="13.0524374"><ele>835.0</ele><time>2026-04-25T13:35:39.527Z</time></trkpt><trkpt lat="43.3491139" lon="13.052442"><ele>835.0</ele><time>2026-04-25T13:35:40.525Z</time></trkpt><trkpt lat="43.349002" lon="13.0524418"><ele>835.0</ele><time>2026-04-25T13:35:41.523Z</time></trkpt><trkpt lat="43.3488945" lon="13.0524341"><ele>835.0</ele><time>2026-04-25T13:35:42.522Z</time></trkpt><trkpt lat="43.3487874" lon="13.0524078"><ele>835.0</ele><time>2026-04-25T13:35:43.533Z</time></trkpt><trkpt lat="43.3486697" lon="13.0523827"><ele>835.0</ele><time>2026-04-25T13:35:44.523Z</time></trkpt><trkpt lat="43.3485905" lon="13.0523718"><ele>834.25</ele><time>2026-04-25T13:35:45.531Z</time></trkpt><trkpt lat="43.348476" lon="13.0523511"><ele>833.5</ele><time>2026-04-25T13:35:46.532Z</time></trkpt><trkpt lat="43.3483313" lon="13.0523197"><ele>832.75</ele><time>2026-04-25T13:35:47.531Z</time></trkpt><trkpt lat="43.3481962" lon="13.0522871"><ele>832.0</ele><time>2026-04-25T13:35:48.533Z</time></trkpt><trkpt lat="43.3480733" lon="13.0522504"><ele>832.25</ele><time>2026-04-25T13:35:49.537Z</time></trkpt><trkpt lat="43.3479562" lon="13.0522082"><ele>832.5</ele><time>2026-04-25T13:35:50.541Z</time></trkpt><trkpt lat="43.3478358" lon="13.0521864"><ele>832.75</ele><time>2026-04-25T13:35:51.539Z</time></trkpt><trkpt lat="43.3477181" lon="13.0521568"><ele>833.0</ele><time>2026-04-25T13:35:52.542Z</time></trkpt><trkpt lat="43.3475856" lon="13.0521179"><ele>833.0</ele><time>2026-04-25T13:35:53.537Z</time></trkpt><trkpt lat="43.3474486" lon="13.0520799"><ele>833.0</ele><time>2026-04-25T13:35:54.536Z</time></trkpt><trkpt lat="43.3473038" lon="13.0520432"><ele>833.0</ele><time>2026-04-25T13:35:55.532Z</time></trkpt><trkpt lat="43.3471694" lon="13.0520079"><ele>833.0</ele><time>2026-04-25T13:35:56.53Z</time></trkpt><trkpt lat="43.3470417" lon="13.0519686"><ele>835.3333333333334</ele><time>2026-04-25T13:35:57.534Z</time></trkpt><trkpt lat="43.3468965" lon="13.0519448"><ele>837.6666666666667</ele><time>2026-04-25T13:35:58.529Z</time></trkpt><trkpt lat="43.3467277" lon="13.0519128"><ele>840.0</ele><time>2026-04-25T13:35:59.534Z</time></trkpt><trkpt lat="43.3465738" lon="13.0518606"><ele>840.0</ele><time>2026-04-25T13:36:00.521Z</time></trkpt><trkpt lat="43.3464396" lon="13.0518402"><ele>840.0</ele><time>2026-04-25T13:36:01.53Z</time></trkpt><trkpt lat="43.3462913" lon="13.0518207"><ele>840.0</ele><time>2026-04-25T13:36:02.526Z</time></trkpt><trkpt lat="43.3461871" lon="13.0518125"><ele>840.0</ele><time>2026-04-25T13:36:03.532Z</time></trkpt><trkpt lat="43.3460317" lon="13.0517769"><ele>838.75</ele><time>2026-04-25T13:36:04.528Z</time></trkpt><trkpt lat="43.3459194" lon="13.0517522"><ele>837.5</ele><time>2026-04-25T13:36:05.538Z</time></trkpt><trkpt lat="43.3457786" lon="13.0517223"><ele>836.25</ele><time>2026-04-25T13:36:06.528Z</time></trkpt><trkpt lat="43.3456622" lon="13.0516862"><ele>835.0</ele><time>2026-04-25T13:36:07.526Z</time></trkpt><trkpt lat="43.3455279" lon="13.0516514"><ele>837.75</ele><time>2026-04-25T13:36:08.514Z</time></trkpt><trkpt lat="43.3453959" lon="13.0516411"><ele>840.5</ele><time>2026-04-25T13:36:09.521Z</time></trkpt><trkpt lat="43.3452679" lon="13.0515809"><ele>843.25</ele><time>2026-04-25T13:36:10.517Z</time></trkpt><trkpt lat="43.3451425" lon="13.0515337"><ele>846.0</ele><time>2026-04-25T13:36:11.516Z</time></trkpt><trkpt lat="43.3450295" lon="13.0515049"><ele>842.3333333333334</ele><time>2026-04-25T13:36:12.518Z</time></trkpt><trkpt lat="43.3449197" lon="13.0514699"><ele>838.6666666666667</ele><time>2026-04-25T13:36:13.514Z</time></trkpt><trkpt lat="43.3448227" lon="13.0514376"><ele>835.0</ele><time>2026-04-25T13:36:14.516Z</time></trkpt><trkpt lat="43.3447451" lon="13.0514108"><ele>831.3333333333334</ele><time>2026-04-25T13:36:15.52Z</time></trkpt><trkpt lat="43.3446794" lon="13.0514122"><ele>827.6666666666667</ele><time>2026-04-25T13:36:16.513Z</time></trkpt><trkpt lat="43.3446039" lon="13.0514"><ele>824.0</ele><time>2026-04-25T13:36:18.514Z</time></trkpt><trkpt lat="43.3445237" lon="13.0514005"><ele>824.0000000000001</ele><time>2026-04-25T13:36:21.517Z</time></trkpt><trkpt lat="43.3444534" lon="13.0513798"><ele>824.0</ele><time>2026-04-25T13:36:24.518Z</time></trkpt><trkpt lat="43.3443887" lon="13.0513481"><ele>824.0</ele><time>2026-04-25T13:36:26.521Z</time></trkpt><trkpt lat="43.3443129" lon="13.0513462"><ele>824.0</ele><time>2026-04-25T13:36:29.517Z</time></trkpt><trkpt lat="43.3442447" lon="13.0513142"><ele>824.0000000000001</ele><time>2026-04-25T13:36:32.519Z</time></trkpt><trkpt lat="43.3441471" lon="13.0512994"><ele>824.0</ele><time>2026-04-25T13:36:35.515Z</time></trkpt><trkpt lat="43.3440757" lon="13.0512716"><ele>824.0</ele><time>2026-04-25T13:36:37.514Z</time></trkpt><trkpt lat="43.343975" lon="13.0512211"><ele>824.0</ele><time>2026-04-25T13:36:39.508Z</time></trkpt><trkpt lat="43.3439096" lon="13.0511787"><ele>824.0</ele><time>2026-04-25T13:36:40.507Z</time></trkpt><trkpt lat="43.3438182" lon="13.0511276"><ele>824.0</ele><time>2026-04-25T13:36:41.509Z</time></trkpt><trkpt lat="43.3437197" lon="13.0510873"><ele>824.0</ele><time>2026-04-25T13:36:42.512Z</time></trkpt><trkpt lat="43.3436205" lon="13.0510304"><ele>821.6</ele><time>2026-04-25T13:36:43.51Z</time></trkpt><trkpt lat="43.3435212" lon="13.0509716"><ele>819.2</ele><time>2026-04-25T13:36:44.503Z</time></trkpt><trkpt lat="43.3434364" lon="13.0509131"><ele>816.8000000000001</ele><time>2026-04-25T13:36:45.505Z</time></trkpt><trkpt lat="43.3433615" lon="13.050847"><ele>814.4000000000001</ele><time>2026-04-25T13:36:46.5Z</time></trkpt><trkpt lat="43.3432938" lon="13.0507842"><ele>812.0</ele><time>2026-04-25T13:36:47.506Z</time></trkpt><trkpt lat="43.3432152" lon="13.0507458"><ele>812.0</ele><time>2026-04-25T13:36:48.503Z</time></trkpt><trkpt lat="43.3431221" lon="13.0506876"><ele>812.0</ele><time>2026-04-25T13:36:49.507Z</time></trkpt><trkpt lat="43.3430358" lon="13.0506353"><ele>812.0</ele><time>2026-04-25T13:36:50.505Z</time></trkpt><trkpt lat="43.3429363" lon="13.0505704"><ele>812.0</ele><time>2026-04-25T13:36:51.512Z</time></trkpt><trkpt lat="43.3428269" lon="13.0505071"><ele>812.0</ele><time>2026-04-25T13:36:52.512Z</time></trkpt><trkpt lat="43.3427072" lon="13.0504649"><ele>815.75</ele><time>2026-04-25T13:36:53.513Z</time></trkpt><trkpt lat="43.3425948" lon="13.0503716"><ele>819.5</ele><time>2026-04-25T13:36:54.515Z</time></trkpt><trkpt lat="43.3424889" lon="13.0503015"><ele>823.25</ele><time>2026-04-25T13:36:55.51Z</time></trkpt><trkpt lat="43.3423748" lon="13.0502371"><ele>827.0</ele><time>2026-04-25T13:36:56.512Z</time></trkpt><trkpt lat="43.3422627" lon="13.0501524"><ele>831.25</ele><time>2026-04-25T13:36:57.514Z</time></trkpt><trkpt lat="43.3421487" lon="13.0500805"><ele>835.5</ele><time>2026-04-25T13:36:58.513Z</time></trkpt><trkpt lat="43.3420356" lon="13.0499993"><ele>839.75</ele><time>2026-04-25T13:36:59.519Z</time></trkpt><trkpt lat="43.3419272" lon="13.0498986"><ele>844.0</ele><time>2026-04-25T13:37:00.512Z</time></trkpt><trkpt lat="43.3418199" lon="13.049804"><ele>834.25</ele><time>2026-04-25T13:37:01.519Z</time></trkpt><trkpt lat="43.3417112" lon="13.0497129"><ele>824.5</ele><time>2026-04-25T13:37:02.522Z</time></trkpt><trkpt lat="43.3416003" lon="13.0496356"><ele>814.75</ele><time>2026-04-25T13:37:03.523Z</time></trkpt><trkpt lat="43.3414898" lon="13.0495514"><ele>805.0</ele><time>2026-04-25T13:37:04.52Z</time></trkpt><trkpt lat="43.3413863" lon="13.0495027"><ele>807.5</ele><time>2026-04-25T13:37:05.52Z</time></trkpt><trkpt lat="43.3412848" lon="13.0494618"><ele>810.0</ele><time>2026-04-25T13:37:06.518Z</time></trkpt><trkpt lat="43.341169" lon="13.0494204"><ele>812.5</ele><time>2026-04-25T13:37:07.517Z</time></trkpt><trkpt lat="43.3410492" lon="13.0493737"><ele>815.0</ele><time>2026-04-25T13:37:08.519Z</time></trkpt><trkpt lat="43.3409258" lon="13.0493238"><ele>815.0</ele><time>2026-04-25T13:37:09.52Z</time></trkpt><trkpt lat="43.3408135" lon="13.0492919"><ele>815.0</ele><time>2026-04-25T13:37:10.519Z</time></trkpt><trkpt lat="43.3407156" lon="13.049246"><ele>815.0</ele><time>2026-04-25T13:37:11.515Z</time></trkpt><trkpt lat="43.3406103" lon="13.0492003"><ele>815.0</ele><time>2026-04-25T13:37:12.516Z</time></trkpt><trkpt lat="43.3405098" lon="13.0491603"><ele>815.0</ele><time>2026-04-25T13:37:13.516Z</time></trkpt><trkpt lat="43.3404202" lon="13.0491301"><ele>814.4</ele><time>2026-04-25T13:37:14.514Z</time></trkpt><trkpt lat="43.3403276" lon="13.0491199"><ele>813.8</ele><time>2026-04-25T13:37:15.517Z</time></trkpt><trkpt lat="43.3402325" lon="13.0491529"><ele>813.2</ele><time>2026-04-25T13:37:16.509Z</time></trkpt><trkpt lat="43.3401162" lon="13.0491974"><ele>812.6</ele><time>2026-04-25T13:37:17.513Z</time></trkpt><trkpt lat="43.3400015" lon="13.0492385"><ele>812.0</ele><time>2026-04-25T13:37:18.515Z</time></trkpt><trkpt lat="43.3398726" lon="13.0492743"><ele>812.0</ele><time>2026-04-25T13:37:19.513Z</time></trkpt><trkpt lat="43.3397414" lon="13.0492923"><ele>812.0</ele><time>2026-04-25T13:37:20.504Z</time></trkpt><trkpt lat="43.339614" lon="13.0492963"><ele>812.0</ele><time>2026-04-25T13:37:21.513Z</time></trkpt><trkpt lat="43.3394818" lon="13.0493053"><ele>812.0</ele><time>2026-04-25T13:37:22.51Z</time></trkpt><trkpt lat="43.33936" lon="13.049308"><ele>812.5</ele><time>2026-04-25T13:37:23.509Z</time></trkpt><trkpt lat="43.3392431" lon="13.0492851"><ele>813.0</ele><time>2026-04-25T13:37:24.507Z</time></trkpt><trkpt lat="43.3391246" lon="13.0492523"><ele>813.5</ele><time>2026-04-25T13:37:25.514Z</time></trkpt><trkpt lat="43.3390139" lon="13.0492515"><ele>814.0</ele><time>2026-04-25T13:37:26.507Z</time></trkpt><trkpt lat="43.3388939" lon="13.0492394"><ele>814.75</ele><time>2026-04-25T13:37:27.515Z</time></trkpt><trkpt lat="43.3387674" lon="13.0492184"><ele>815.5</ele><time>2026-04-25T13:37:28.508Z</time></trkpt><trkpt lat="43.338651" lon="13.0492129"><ele>816.25</ele><time>2026-04-25T13:37:29.516Z</time></trkpt><trkpt lat="43.3385312" lon="13.0492146"><ele>817.0</ele><time>2026-04-25T13:37:30.519Z</time></trkpt><trkpt lat="43.3384323" lon="13.0492068"><ele>817.0</ele><time>2026-04-25T13:37:31.512Z</time></trkpt><trkpt lat="43.3383339" lon="13.0491684"><ele>817.0</ele><time>2026-04-25T13:37:32.514Z</time></trkpt><trkpt lat="43.3382571" lon="13.0491474"><ele>817.0</ele><time>2026-04-25T13:37:33.515Z</time></trkpt><trkpt lat="43.3381852" lon="13.049096"><ele>817.0</ele><time>2026-04-25T13:37:34.51Z</time></trkpt><trkpt lat="43.3381108" lon="13.0490013"><ele>817.0</ele><time>2026-04-25T13:37:35.523Z</time></trkpt><trkpt lat="43.3380412" lon="13.0488731"><ele>818.0</ele><time>2026-04-25T13:37:36.507Z</time></trkpt><trkpt lat="43.3379864" lon="13.0487464"><ele>819.0</ele><time>2026-04-25T13:37:37.528Z</time></trkpt><trkpt lat="43.3379381" lon="13.0486018"><ele>820.0</ele><time>2026-04-25T13:37:38.517Z</time></trkpt><trkpt lat="43.3379041" lon="13.0484688"><ele>821.0</ele><time>2026-04-25T13:37:39.521Z</time></trkpt><trkpt lat="43.337905" lon="13.0483663"><ele>822.0</ele><time>2026-04-25T13:37:40.53Z</time></trkpt><trkpt lat="43.3379278" lon="13.0482572"><ele>821.4000000000001</ele><time>2026-04-25T13:37:41.521Z</time></trkpt><trkpt lat="43.337976" lon="13.048151"><ele>820.8000000000001</ele><time>2026-04-25T13:37:42.528Z</time></trkpt><trkpt lat="43.3380458" lon="13.0480514"><ele>820.2</ele><time>2026-04-25T13:37:43.52Z</time></trkpt><trkpt lat="43.3381414" lon="13.0479638"><ele>819.6</ele><time>2026-04-25T13:37:44.528Z</time></trkpt><trkpt lat="43.3382498" lon="13.0478966"><ele>819.0</ele><time>2026-04-25T13:37:45.519Z</time></trkpt><trkpt lat="43.3383936" lon="13.0478334"><ele>819.0</ele><time>2026-04-25T13:37:46.528Z</time></trkpt><trkpt lat="43.338527" lon="13.0477842"><ele>819.0</ele><time>2026-04-25T13:37:47.524Z</time></trkpt><trkpt lat="43.3386458" lon="13.0477374"><ele>819.0</ele><time>2026-04-25T13:37:48.525Z</time></trkpt><trkpt lat="43.3387555" lon="13.0476775"><ele>819.0</ele><time>2026-04-25T13:37:49.53Z</time></trkpt><trkpt lat="43.3388567" lon="13.0476125"><ele>819.75</ele><time>2026-04-25T13:37:50.529Z</time></trkpt><trkpt lat="43.3389689" lon="13.0475395"><ele>820.5</ele><time>2026-04-25T13:37:51.531Z</time></trkpt><trkpt lat="43.339085" lon="13.0474618"><ele>821.25</ele><time>2026-04-25T13:37:52.53Z</time></trkpt><trkpt lat="43.3391911" lon="13.0473883"><ele>822.0</ele><time>2026-04-25T13:37:53.527Z</time></trkpt><trkpt lat="43.3392964" lon="13.0473155"><ele>822.0</ele><time>2026-04-25T13:37:54.522Z</time></trkpt><trkpt lat="43.3393947" lon="13.0472409"><ele>822.0</ele><time>2026-04-25T13:37:55.536Z</time></trkpt><trkpt lat="43.3394956" lon="13.0471676"><ele>822.0</ele><time>2026-04-25T13:37:56.519Z</time></trkpt><trkpt lat="43.3396045" lon="13.0470903"><ele>822.0</ele><time>2026-04-25T13:37:57.522Z</time></trkpt><trkpt lat="43.3396981" lon="13.047018"><ele>817.6</ele><time>2026-04-25T13:37:58.52Z</time></trkpt><trkpt lat="43.3397949" lon="13.0469537"><ele>813.2</ele><time>2026-04-25T13:37:59.526Z</time></trkpt><trkpt lat="43.339894" lon="13.0468827"><ele>808.8</ele><time>2026-04-25T13:38:00.521Z</time></trkpt><trkpt lat="43.3399854" lon="13.0468045"><ele>804.4</ele><time>2026-04-25T13:38:01.543Z</time></trkpt><trkpt lat="43.3400789" lon="13.0467308"><ele>800.0</ele><time>2026-04-25T13:38:02.517Z</time></trkpt><trkpt lat="43.3401765" lon="13.046659"><ele>799.8</ele><time>2026-04-25T13:38:03.524Z</time></trkpt><trkpt lat="43.3402697" lon="13.0465975"><ele>799.6</ele><time>2026-04-25T13:38:04.515Z</time></trkpt><trkpt lat="43.3403543" lon="13.0465217"><ele>799.4000000000001</ele><time>2026-04-25T13:38:05.525Z</time></trkpt><trkpt lat="43.3404378" lon="13.0464693"><ele>799.2</ele><time>2026-04-25T13:38:06.52Z</time></trkpt><trkpt lat="43.3405204" lon="13.0464262"><ele>799.0</ele><time>2026-04-25T13:38:07.518Z</time></trkpt><trkpt lat="43.3405945" lon="13.0463989"><ele>798.9999999999999</ele><time>2026-04-25T13:38:08.521Z</time></trkpt><trkpt lat="43.3406642" lon="13.0463495"><ele>799.0</ele><time>2026-04-25T13:38:09.521Z</time></trkpt><trkpt lat="43.3407396" lon="13.0463017"><ele>799.0</ele><time>2026-04-25T13:38:10.525Z</time></trkpt><trkpt lat="43.3408079" lon="13.0462479"><ele>799.0</ele><time>2026-04-25T13:38:11.512Z</time></trkpt><trkpt lat="43.3408653" lon="13.0461906"><ele>798.9999999999999</ele><time>2026-04-25T13:38:12.523Z</time></trkpt><trkpt lat="43.3409397" lon="13.0461312"><ele>799.0</ele><time>2026-04-25T13:38:13.52Z</time></trkpt><trkpt lat="43.3410131" lon="13.0460694"><ele>798.9999999999999</ele><time>2026-04-25T13:38:14.523Z</time></trkpt><trkpt lat="43.3410722" lon="13.0460005"><ele>799.0</ele><time>2026-04-25T13:38:15.514Z</time></trkpt><trkpt lat="43.3411403" lon="13.0459315"><ele>799.0</ele><time>2026-04-25T13:38:16.517Z</time></trkpt><trkpt lat="43.3412071" lon="13.0458736"><ele>799.0</ele><time>2026-04-25T13:38:17.52Z</time></trkpt><trkpt lat="43.341292" lon="13.0458281"><ele>798.9999999999999</ele><time>2026-04-25T13:38:18.524Z</time></trkpt><trkpt lat="43.3413929" lon="13.0458016"><ele>799.0</ele><time>2026-04-25T13:38:19.519Z</time></trkpt><trkpt lat="43.3414839" lon="13.045776"><ele>800.8000000000001</ele><time>2026-04-25T13:38:20.526Z</time></trkpt><trkpt lat="43.3415816" lon="13.0457565"><ele>802.6</ele><time>2026-04-25T13:38:21.521Z</time></trkpt><trkpt lat="43.3416914" lon="13.0457582"><ele>804.4</ele><time>2026-04-25T13:38:22.53Z</time></trkpt><trkpt lat="43.341795" lon="13.0457616"><ele>806.2</ele><time>2026-04-25T13:38:23.527Z</time></trkpt><trkpt lat="43.3418959" lon="13.0457602"><ele>808.0</ele><time>2026-04-25T13:38:24.538Z</time></trkpt><trkpt lat="43.3419936" lon="13.0457538"><ele>807.9999999999999</ele><time>2026-04-25T13:38:25.526Z</time></trkpt><trkpt lat="43.3420996" lon="13.0457447"><ele>808.0</ele><time>2026-04-25T13:38:26.529Z</time></trkpt><trkpt lat="43.3421781" lon="13.04575"><ele>808.0</ele><time>2026-04-25T13:38:27.526Z</time></trkpt><trkpt lat="43.3422453" lon="13.0457313"><ele>808.0</ele><time>2026-04-25T13:38:28.519Z</time></trkpt><trkpt lat="43.3423104" lon="13.0456842"><ele>807.9999999999999</ele><time>2026-04-25T13:38:29.527Z</time></trkpt><trkpt lat="43.3423875" lon="13.0456101"><ele>808.0</ele><time>2026-04-25T13:38:30.525Z</time></trkpt><trkpt lat="43.3424553" lon="13.0455226"><ele>804.3333333333333</ele><time>2026-04-25T13:38:31.526Z</time></trkpt><trkpt lat="43.3425095" lon="13.0454246"><ele>800.6666666666666</ele><time>2026-04-25T13:38:32.518Z</time></trkpt><trkpt lat="43.3425721" lon="13.045328"><ele>797.0</ele><time>2026-04-25T13:38:33.525Z</time></trkpt><trkpt lat="43.3426334" lon="13.0452633"><ele>793.3333333333333</ele><time>2026-04-25T13:38:34.517Z</time></trkpt><trkpt lat="43.3427036" lon="13.0452415"><ele>789.6666666666666</ele><time>2026-04-25T13:38:35.522Z</time></trkpt><trkpt lat="43.3427919" lon="13.0452116"><ele>786.0</ele><time>2026-04-25T13:38:36.511Z</time></trkpt><trkpt lat="43.3428925" lon="13.0451971"><ele>786.0</ele><time>2026-04-25T13:38:37.519Z</time></trkpt><trkpt lat="43.3429873" lon="13.0452101"><ele>786.0</ele><time>2026-04-25T13:38:38.517Z</time></trkpt><trkpt lat="43.3430809" lon="13.0452248"><ele>786.0</ele><time>2026-04-25T13:38:39.526Z</time></trkpt><trkpt lat="43.343174" lon="13.0452348"><ele>786.0</ele><time>2026-04-25T13:38:40.518Z</time></trkpt><trkpt lat="43.343272" lon="13.045225"><ele>786.0</ele><time>2026-04-25T13:38:41.519Z</time></trkpt><trkpt lat="43.3433732" lon="13.0452013"><ele>784.5999999999999</ele><time>2026-04-25T13:38:42.512Z</time></trkpt><trkpt lat="43.3434763" lon="13.0451764"><ele>783.2</ele><time>2026-04-25T13:38:43.538Z</time></trkpt><trkpt lat="43.3435711" lon="13.0451713"><ele>781.8</ele><time>2026-04-25T13:38:44.527Z</time></trkpt><trkpt lat="43.3436687" lon="13.0451799"><ele>780.4000000000001</ele><time>2026-04-25T13:38:45.52Z</time></trkpt><trkpt lat="43.3437575" lon="13.0452373"><ele>779.0</ele><time>2026-04-25T13:38:46.522Z</time></trkpt><trkpt lat="43.3438541" lon="13.0453032"><ele>779.6666666666667</ele><time>2026-04-25T13:38:47.526Z</time></trkpt><trkpt lat="43.3439355" lon="13.0453581"><ele>780.3333333333334</ele><time>2026-04-25T13:38:48.525Z</time></trkpt><trkpt lat="43.3440185" lon="13.0454082"><ele>781.0</ele><time>2026-04-25T13:38:49.516Z</time></trkpt><trkpt lat="43.3441026" lon="13.0454261"><ele>781.6666666666667</ele><time>2026-04-25T13:38:50.521Z</time></trkpt><trkpt lat="43.3441862" lon="13.0454289"><ele>782.3333333333334</ele><time>2026-04-25T13:38:51.519Z</time></trkpt><trkpt lat="43.3442736" lon="13.0454065"><ele>783.0</ele><time>2026-04-25T13:38:52.518Z</time></trkpt><trkpt lat="43.3443763" lon="13.0453699"><ele>783.0</ele><time>2026-04-25T13:38:53.522Z</time></trkpt><trkpt lat="43.3444816" lon="13.0453375"><ele>783.0</ele><time>2026-04-25T13:38:54.523Z</time></trkpt><trkpt lat="43.3445869" lon="13.0453082"><ele>783.0</ele><time>2026-04-25T13:38:55.534Z</time></trkpt><trkpt lat="43.344693" lon="13.0452867"><ele>783.0</ele><time>2026-04-25T13:38:56.528Z</time></trkpt><trkpt lat="43.3448055" lon="13.045237"><ele>783.0</ele><time>2026-04-25T13:38:57.53Z</time></trkpt><trkpt lat="43.3449122" lon="13.0451766"><ele>782.0</ele><time>2026-04-25T13:38:58.521Z</time></trkpt><trkpt lat="43.3450239" lon="13.0451245"><ele>781.0</ele><time>2026-04-25T13:38:59.523Z</time></trkpt><trkpt lat="43.3451432" lon="13.0450832"><ele>780.0</ele><time>2026-04-25T13:39:00.521Z</time></trkpt><trkpt lat="43.3452631" lon="13.0450365"><ele>779.0</ele><time>2026-04-25T13:39:01.517Z</time></trkpt><trkpt lat="43.3453708" lon="13.0450119"><ele>779.0</ele><time>2026-04-25T13:39:02.522Z</time></trkpt><trkpt lat="43.3454735" lon="13.0450119"><ele>779.0</ele><time>2026-04-25T13:39:03.52Z</time></trkpt><trkpt lat="43.3455716" lon="13.0450207"><ele>779.0</ele><time>2026-04-25T13:39:04.519Z</time></trkpt><trkpt lat="43.3456626" lon="13.0450239"><ele>779.0</ele><time>2026-04-25T13:39:05.515Z</time></trkpt><trkpt lat="43.3457438" lon="13.0450092"><ele>779.0</ele><time>2026-04-25T13:39:06.515Z</time></trkpt><trkpt lat="43.3458254" lon="13.0449871"><ele>782.8333333333334</ele><time>2026-04-25T13:39:07.517Z</time></trkpt><trkpt lat="43.345899" lon="13.0449484"><ele>786.6666666666667</ele><time>2026-04-25T13:39:08.527Z</time></trkpt><trkpt lat="43.3459665" lon="13.044889"><ele>790.5</ele><time>2026-04-25T13:39:09.524Z</time></trkpt><trkpt lat="43.3460403" lon="13.0448291"><ele>794.3333333333333</ele><time>2026-04-25T13:39:10.517Z</time></trkpt><trkpt lat="43.346118" lon="13.0447519"><ele>798.1666666666666</ele><time>2026-04-25T13:39:11.522Z</time></trkpt><trkpt lat="43.346206" lon="13.0446671"><ele>802.0</ele><time>2026-04-25T13:39:12.524Z</time></trkpt><trkpt lat="43.3462795" lon="13.044598"><ele>801.9999999999999</ele><time>2026-04-25T13:39:13.518Z</time></trkpt><trkpt lat="43.3463418" lon="13.0445515"><ele>802.0</ele><time>2026-04-25T13:39:14.518Z</time></trkpt><trkpt lat="43.3464435" lon="13.044524"><ele>802.0</ele><time>2026-04-25T13:39:16.512Z</time></trkpt><trkpt lat="43.3465072" lon="13.04456"><ele>802.0</ele><time>2026-04-25T13:39:17.52Z</time></trkpt><trkpt lat="43.3465823" lon="13.044618"><ele>801.9999999999999</ele><time>2026-04-25T13:39:18.511Z</time></trkpt><trkpt lat="43.3466789" lon="13.0446715"><ele>802.0</ele><time>2026-04-25T13:39:19.512Z</time></trkpt><trkpt lat="43.3467864" lon="13.0447175"><ele>800.0</ele><time>2026-04-25T13:39:20.511Z</time></trkpt><trkpt lat="43.3468986" lon="13.0447298"><ele>798.0</ele><time>2026-04-25T13:39:21.517Z</time></trkpt><trkpt lat="43.3470161" lon="13.0447372"><ele>796.0</ele><time>2026-04-25T13:39:22.514Z</time></trkpt><trkpt lat="43.3471411" lon="13.0447607"><ele>794.0</ele><time>2026-04-25T13:39:23.517Z</time></trkpt><trkpt lat="43.347264" lon="13.0447627"><ele>793.4000000000001</ele><time>2026-04-25T13:39:24.518Z</time></trkpt><trkpt lat="43.3473883" lon="13.0447671"><ele>792.8</ele><time>2026-04-25T13:39:25.515Z</time></trkpt><trkpt lat="43.3475014" lon="13.0447792"><ele>792.2</ele><time>2026-04-25T13:39:26.517Z</time></trkpt><trkpt lat="43.3476076" lon="13.0447824"><ele>791.5999999999999</ele><time>2026-04-25T13:39:27.513Z</time></trkpt><trkpt lat="43.3477084" lon="13.0447799"><ele>791.0</ele><time>2026-04-25T13:39:28.518Z</time></trkpt><trkpt lat="43.3478067" lon="13.044786"><ele>791.0</ele><time>2026-04-25T13:39:29.512Z</time></trkpt><trkpt lat="43.3479085" lon="13.0448005"><ele>791.0</ele><time>2026-04-25T13:39:30.514Z</time></trkpt><trkpt lat="43.3480154" lon="13.0448092"><ele>791.0</ele><time>2026-04-25T13:39:31.518Z</time></trkpt><trkpt lat="43.3481229" lon="13.0448114"><ele>791.0</ele><time>2026-04-25T13:39:32.518Z</time></trkpt><trkpt lat="43.3482224" lon="13.0448157"><ele>791.0</ele><time>2026-04-25T13:39:33.525Z</time></trkpt><trkpt lat="43.3483252" lon="13.0448181"><ele>788.6666666666667</ele><time>2026-04-25T13:39:34.521Z</time></trkpt><trkpt lat="43.3484185" lon="13.0448179"><ele>786.3333333333334</ele><time>2026-04-25T13:39:35.519Z</time></trkpt><trkpt lat="43.3485082" lon="13.0448296"><ele>784.0</ele><time>2026-04-25T13:39:36.522Z</time></trkpt><trkpt lat="43.3485983" lon="13.044815"><ele>781.6666666666667</ele><time>2026-04-25T13:39:37.526Z</time></trkpt><trkpt lat="43.3486803" lon="13.044813"><ele>779.3333333333334</ele><time>2026-04-25T13:39:38.52Z</time></trkpt><trkpt lat="43.3487487" lon="13.0448008"><ele>777.0</ele><time>2026-04-25T13:39:39.524Z</time></trkpt><trkpt lat="43.3488065" lon="13.0447561"><ele>777.0</ele><time>2026-04-25T13:39:40.527Z</time></trkpt><trkpt lat="43.3488656" lon="13.0446947"><ele>777.0</ele><time>2026-04-25T13:39:41.526Z</time></trkpt><trkpt lat="43.3489045" lon="13.0445849"><ele>777.0</ele><time>2026-04-25T13:39:42.53Z</time></trkpt><trkpt lat="43.3489456" lon="13.0444734"><ele>777.0</ele><time>2026-04-25T13:39:43.523Z</time></trkpt><trkpt lat="43.3490029" lon="13.0443751"><ele>777.0</ele><time>2026-04-25T13:39:44.521Z</time></trkpt><trkpt lat="43.3490796" lon="13.0443153"><ele>777.0</ele><time>2026-04-25T13:39:45.524Z</time></trkpt><trkpt lat="43.3491557" lon="13.0442816"><ele>772.8</ele><time>2026-04-25T13:39:46.525Z</time></trkpt><trkpt lat="43.3492514" lon="13.044277"><ele>768.6</ele><time>2026-04-25T13:39:47.521Z</time></trkpt><trkpt lat="43.3493578" lon="13.0442925"><ele>764.4</ele><time>2026-04-25T13:39:48.529Z</time></trkpt><trkpt lat="43.3494562" lon="13.044326"><ele>760.1999999999999</ele><time>2026-04-25T13:39:49.522Z</time></trkpt><trkpt lat="43.3495503" lon="13.0443599"><ele>756.0</ele><time>2026-04-25T13:39:50.522Z</time></trkpt><trkpt lat="43.3496358" lon="13.0443777"><ele>753.0</ele><time>2026-04-25T13:39:51.518Z</time></trkpt><trkpt lat="43.3497234" lon="13.04439"><ele>750.0</ele><time>2026-04-25T13:39:52.522Z</time></trkpt><trkpt lat="43.3498057" lon="13.0444001"><ele>747.0</ele><time>2026-04-25T13:39:53.519Z</time></trkpt><trkpt lat="43.349899" lon="13.0444244"><ele>744.0</ele><time>2026-04-25T13:39:54.521Z</time></trkpt><trkpt lat="43.3499878" lon="13.044425"><ele>741.0</ele><time>2026-04-25T13:39:55.513Z</time></trkpt><trkpt lat="43.3500821" lon="13.0444001"><ele>741.0</ele><time>2026-04-25T13:39:56.527Z</time></trkpt><trkpt lat="43.3501779" lon="13.0443477"><ele>741.0</ele><time>2026-04-25T13:39:57.531Z</time></trkpt><trkpt lat="43.3502747" lon="13.0443084"><ele>741.0</ele><time>2026-04-25T13:39:58.53Z</time></trkpt><trkpt lat="43.3503658" lon="13.0442747"><ele>741.0</ele><time>2026-04-25T13:39:59.53Z</time></trkpt><trkpt lat="43.3504627" lon="13.0442281"><ele>741.0</ele><time>2026-04-25T13:40:00.53Z</time></trkpt><trkpt lat="43.3505475" lon="13.0441473"><ele>741.1999999999999</ele><time>2026-04-25T13:40:01.524Z</time></trkpt><trkpt lat="43.3506168" lon="13.0440627"><ele>741.4</ele><time>2026-04-25T13:40:02.527Z</time></trkpt><trkpt lat="43.3506833" lon="13.0439741"><ele>741.6</ele><time>2026-04-25T13:40:03.523Z</time></trkpt><trkpt lat="43.3507315" lon="13.0438929"><ele>741.8</ele><time>2026-04-25T13:40:04.521Z</time></trkpt><trkpt lat="43.3507901" lon="13.0437769"><ele>742.0</ele><time>2026-04-25T13:40:06.523Z</time></trkpt><trkpt lat="43.3508981" lon="13.0437724"><ele>742.0</ele><time>2026-04-25T13:40:08.532Z</time></trkpt><trkpt lat="43.3509768" lon="13.043903"><ele>742.0</ele><time>2026-04-25T13:40:10.519Z</time></trkpt><trkpt lat="43.3509923" lon="13.0440028"><ele>742.0</ele><time>2026-04-25T13:40:11.527Z</time></trkpt><trkpt lat="43.3509762" lon="13.0441472"><ele>742.0</ele><time>2026-04-25T13:40:13.529Z</time></trkpt><trkpt lat="43.3509147" lon="13.0443002"><ele>742.0</ele><time>2026-04-25T13:40:15.529Z</time></trkpt><trkpt lat="43.3508623" lon="13.0443901"><ele>741.8</ele><time>2026-04-25T13:40:16.53Z</time></trkpt><trkpt lat="43.3507982" lon="13.0444796"><ele>741.6</ele><time>2026-04-25T13:40:17.525Z</time></trkpt><trkpt lat="43.3507338" lon="13.0445586"><ele>741.4</ele><time>2026-04-25T13:40:18.528Z</time></trkpt><trkpt lat="43.3506573" lon="13.0446295"><ele>741.1999999999999</ele><time>2026-04-25T13:40:19.525Z</time></trkpt><trkpt lat="43.3505817" lon="13.0447042"><ele>741.0</ele><time>2026-04-25T13:40:20.528Z</time></trkpt><trkpt lat="43.3505216" lon="13.0447914"><ele>741.0</ele><time>2026-04-25T13:40:21.532Z</time></trkpt><trkpt lat="43.3504598" lon="13.044859"><ele>741.0</ele><time>2026-04-25T13:40:22.529Z</time></trkpt><trkpt lat="43.3503643" lon="13.0449188"><ele>741.0</ele><time>2026-04-25T13:40:24.529Z</time></trkpt><trkpt lat="43.3503176" lon="13.0450126"><ele>741.0</ele><time>2026-04-25T13:40:26.531Z</time></trkpt><trkpt lat="43.3503461" lon="13.0451034"><ele>741.0</ele><time>2026-04-25T13:40:28.528Z</time></trkpt><trkpt lat="43.3504186" lon="13.045171"><ele>741.0</ele><time>2026-04-25T13:40:30.528Z</time></trkpt><trkpt lat="43.3504898" lon="13.0451994"><ele>735.3333333333334</ele><time>2026-04-25T13:40:31.535Z</time></trkpt><trkpt lat="43.3505759" lon="13.0452116"><ele>729.6666666666666</ele><time>2026-04-25T13:40:32.528Z</time></trkpt><trkpt lat="43.3506645" lon="13.0452289"><ele>724.0</ele><time>2026-04-25T13:40:33.531Z</time></trkpt><trkpt lat="43.3507536" lon="13.0452467"><ele>718.3333333333333</ele><time>2026-04-25T13:40:34.533Z</time></trkpt><trkpt lat="43.3508409" lon="13.0452428"><ele>712.6666666666666</ele><time>2026-04-25T13:40:35.544Z</time></trkpt><trkpt lat="43.3509215" lon="13.0452335"><ele>707.0</ele><time>2026-04-25T13:40:36.531Z</time></trkpt><trkpt lat="43.3510093" lon="13.0452249"><ele>707.0</ele><time>2026-04-25T13:40:37.538Z</time></trkpt><trkpt lat="43.3510906" lon="13.0452032"><ele>707.0</ele><time>2026-04-25T13:40:38.529Z</time></trkpt><trkpt lat="43.3511744" lon="13.0451882"><ele>707.0</ele><time>2026-04-25T13:40:39.54Z</time></trkpt><trkpt lat="43.351254" lon="13.0451733"><ele>707.0</ele><time>2026-04-25T13:40:40.535Z</time></trkpt><trkpt lat="43.3513304" lon="13.0451544"><ele>707.0</ele><time>2026-04-25T13:40:41.537Z</time></trkpt><trkpt lat="43.3514017" lon="13.0451308"><ele>707.0</ele><time>2026-04-25T13:40:42.538Z</time></trkpt><trkpt lat="43.3514713" lon="13.0451032"><ele>706.0</ele><time>2026-04-25T13:40:43.538Z</time></trkpt><trkpt lat="43.3515506" lon="13.0450652"><ele>705.0</ele><time>2026-04-25T13:40:44.534Z</time></trkpt><trkpt lat="43.3516249" lon="13.0450242"><ele>704.0</ele><time>2026-04-25T13:40:45.533Z</time></trkpt><trkpt lat="43.3517014" lon="13.0449649"><ele>703.0</ele><time>2026-04-25T13:40:46.531Z</time></trkpt><trkpt lat="43.3517647" lon="13.0449163"><ele>702.0</ele><time>2026-04-25T13:40:47.536Z</time></trkpt><trkpt lat="43.3518434" lon="13.0448566"><ele>701.0</ele><time>2026-04-25T13:40:48.531Z</time></trkpt><trkpt lat="43.3519204" lon="13.0448132"><ele>701.6666666666666</ele><time>2026-04-25T13:40:49.537Z</time></trkpt><trkpt lat="43.3520017" lon="13.0447855"><ele>702.3333333333333</ele><time>2026-04-25T13:40:50.535Z</time></trkpt><trkpt lat="43.3520823" lon="13.0447754"><ele>703.0</ele><time>2026-04-25T13:40:51.536Z</time></trkpt><trkpt lat="43.3521716" lon="13.0447793"><ele>703.6666666666666</ele><time>2026-04-25T13:40:52.534Z</time></trkpt><trkpt lat="43.3522685" lon="13.0447921"><ele>704.3333333333334</ele><time>2026-04-25T13:40:53.538Z</time></trkpt><trkpt lat="43.3523576" lon="13.0448033"><ele>705.0</ele><time>2026-04-25T13:40:54.541Z</time></trkpt><trkpt lat="43.352448" lon="13.0448226"><ele>705.0</ele><time>2026-04-25T13:40:55.533Z</time></trkpt><trkpt lat="43.3525428" lon="13.044836"><ele>705.0</ele><time>2026-04-25T13:40:56.539Z</time></trkpt><trkpt lat="43.3526358" lon="13.044846"><ele>705.0</ele><time>2026-04-25T13:40:57.541Z</time></trkpt><trkpt lat="43.3527341" lon="13.044849"><ele>705.0</ele><time>2026-04-25T13:40:58.545Z</time></trkpt><trkpt lat="43.3528358" lon="13.0448577"><ele>705.0</ele><time>2026-04-25T13:40:59.541Z</time></trkpt><trkpt lat="43.3529364" lon="13.0448707"><ele>699.75</ele><time>2026-04-25T13:41:00.54Z</time></trkpt><trkpt lat="43.3530596" lon="13.0448857"><ele>694.5</ele><time>2026-04-25T13:41:01.544Z</time></trkpt><trkpt lat="43.3531804" lon="13.0448988"><ele>689.25</ele><time>2026-04-25T13:41:02.538Z</time></trkpt><trkpt lat="43.3533048" lon="13.0449248"><ele>684.0</ele><time>2026-04-25T13:41:03.545Z</time></trkpt><trkpt lat="43.3534211" lon="13.0449492"><ele>681.75</ele><time>2026-04-25T13:41:04.539Z</time></trkpt><trkpt lat="43.3535396" lon="13.0449626"><ele>679.5</ele><time>2026-04-25T13:41:05.542Z</time></trkpt><trkpt lat="43.3536567" lon="13.044984"><ele>677.25</ele><time>2026-04-25T13:41:06.546Z</time></trkpt><trkpt lat="43.3537757" lon="13.0450046"><ele>675.0</ele><time>2026-04-25T13:41:07.54Z</time></trkpt><trkpt lat="43.353887" lon="13.0450254"><ele>673.0</ele><time>2026-04-25T13:41:08.547Z</time></trkpt><trkpt lat="43.3540036" lon="13.0450512"><ele>671.0</ele><time>2026-04-25T13:41:09.539Z</time></trkpt><trkpt lat="43.3541181" lon="13.045073"><ele>669.0</ele><time>2026-04-25T13:41:10.544Z</time></trkpt><trkpt lat="43.354222" lon="13.0450883"><ele>667.0</ele><time>2026-04-25T13:41:11.544Z</time></trkpt><trkpt lat="43.3543309" lon="13.0451097"><ele>665.0</ele><time>2026-04-25T13:41:12.536Z</time></trkpt><trkpt lat="43.3544301" lon="13.0451187"><ele>665.0</ele><time>2026-04-25T13:41:13.543Z</time></trkpt><trkpt lat="43.3545351" lon="13.0451154"><ele>665.0</ele><time>2026-04-25T13:41:14.535Z</time></trkpt><trkpt lat="43.3546267" lon="13.0450936"><ele>665.0</ele><time>2026-04-25T13:41:15.54Z</time></trkpt><trkpt lat="43.3547027" lon="13.0450662"><ele>665.0</ele><time>2026-04-25T13:41:16.535Z</time></trkpt><trkpt lat="43.3548128" lon="13.0450748"><ele>665.0</ele><time>2026-04-25T13:41:18.548Z</time></trkpt><trkpt lat="43.3548731" lon="13.0451615"><ele>666.2</ele><time>2026-04-25T13:41:20.547Z</time></trkpt><trkpt lat="43.3549435" lon="13.0452534"><ele>667.4</ele><time>2026-04-25T13:41:22.546Z</time></trkpt><trkpt lat="43.3550067" lon="13.0453223"><ele>668.5999999999999</ele><time>2026-04-25T13:41:23.543Z</time></trkpt><trkpt lat="43.3550886" lon="13.0453988"><ele>669.8</ele><time>2026-04-25T13:41:24.545Z</time></trkpt><trkpt lat="43.3551707" lon="13.0454567"><ele>671.0</ele><time>2026-04-25T13:41:25.545Z</time></trkpt><trkpt lat="43.3552572" lon="13.0455149"><ele>671.0</ele><time>2026-04-25T13:41:26.541Z</time></trkpt><trkpt lat="43.3553481" lon="13.0455707"><ele>671.0</ele><time>2026-04-25T13:41:27.541Z</time></trkpt><trkpt lat="43.3554368" lon="13.0456404"><ele>671.0</ele><time>2026-04-25T13:41:28.539Z</time></trkpt><trkpt lat="43.3555225" lon="13.0457074"><ele>671.0</ele><time>2026-04-25T13:41:29.544Z</time></trkpt><trkpt lat="43.3556097" lon="13.0457637"><ele>671.0</ele><time>2026-04-25T13:41:30.537Z</time></trkpt><trkpt lat="43.3556971" lon="13.0458353"><ele>671.1999999999999</ele><time>2026-04-25T13:41:31.532Z</time></trkpt><trkpt lat="43.3557746" lon="13.045901"><ele>671.4</ele><time>2026-04-25T13:41:32.526Z</time></trkpt><trkpt lat="43.3558531" lon="13.0459708"><ele>671.6</ele><time>2026-04-25T13:41:33.529Z</time></trkpt><trkpt lat="43.3559413" lon="13.0460212"><ele>671.8</ele><time>2026-04-25T13:41:34.512Z</time></trkpt><trkpt lat="43.356023" lon="13.0460864"><ele>672.0</ele><time>2026-04-25T13:41:35.53Z</time></trkpt><trkpt lat="43.3561039" lon="13.0461534"><ele>672.0</ele><time>2026-04-25T13:41:36.522Z</time></trkpt><trkpt lat="43.356182" lon="13.0462243"><ele>672.0</ele><time>2026-04-25T13:41:37.53Z</time></trkpt><trkpt lat="43.3562663" lon="13.0463105"><ele>672.0</ele><time>2026-04-25T13:41:38.517Z</time></trkpt><trkpt lat="43.3563562" lon="13.0463892"><ele>672.0</ele><time>2026-04-25T13:41:39.515Z</time></trkpt><trkpt lat="43.3564324" lon="13.046471"><ele>672.0</ele><time>2026-04-25T13:41:40.523Z</time></trkpt><trkpt lat="43.3565017" lon="13.0465697"><ele>671.8</ele><time>2026-04-25T13:41:41.52Z</time></trkpt><trkpt lat="43.3565757" lon="13.0466558"><ele>671.6</ele><time>2026-04-25T13:41:42.524Z</time></trkpt><trkpt lat="43.3566588" lon="13.0467421"><ele>671.4</ele><time>2026-04-25T13:41:43.528Z</time></trkpt><trkpt lat="43.3567406" lon="13.0468213"><ele>671.1999999999999</ele><time>2026-04-25T13:41:44.518Z</time></trkpt><trkpt lat="43.3568254" lon="13.0469128"><ele>671.0</ele><time>2026-04-25T13:41:45.529Z</time></trkpt><trkpt lat="43.3569058" lon="13.0470134"><ele>671.0</ele><time>2026-04-25T13:41:46.523Z</time></trkpt><trkpt lat="43.3569787" lon="13.0470978"><ele>671.0</ele><time>2026-04-25T13:41:47.527Z</time></trkpt><trkpt lat="43.3570481" lon="13.047175"><ele>671.0</ele><time>2026-04-25T13:41:48.518Z</time></trkpt><trkpt lat="43.3571192" lon="13.0472284"><ele>671.0</ele><time>2026-04-25T13:41:49.524Z</time></trkpt><trkpt lat="43.3571957" lon="13.0472871"><ele>671.0</ele><time>2026-04-25T13:41:50.522Z</time></trkpt><trkpt lat="43.3572794" lon="13.047343"><ele>671.0</ele><time>2026-04-25T13:41:51.522Z</time></trkpt><trkpt lat="43.3573761" lon="13.0473969"><ele>669.5</ele><time>2026-04-25T13:41:52.527Z</time></trkpt><trkpt lat="43.3574767" lon="13.0474353"><ele>668.0</ele><time>2026-04-25T13:41:53.529Z</time></trkpt><trkpt lat="43.3575894" lon="13.0474957"><ele>666.5</ele><time>2026-04-25T13:41:54.527Z</time></trkpt><trkpt lat="43.3576996" lon="13.047556"><ele>665.0</ele><time>2026-04-25T13:41:55.537Z</time></trkpt><trkpt lat="43.3578067" lon="13.0476224"><ele>665.0</ele><time>2026-04-25T13:41:56.515Z</time></trkpt><trkpt lat="43.3579152" lon="13.0476901"><ele>665.0</ele><time>2026-04-25T13:41:57.512Z</time></trkpt><trkpt lat="43.3580211" lon="13.047752"><ele>665.0</ele><time>2026-04-25T13:41:58.519Z</time></trkpt><trkpt lat="43.3581367" lon="13.0478108"><ele>665.0</ele><time>2026-04-25T13:41:59.51Z</time></trkpt><trkpt lat="43.3582545" lon="13.0478632"><ele>669.0</ele><time>2026-04-25T13:42:00.523Z</time></trkpt><trkpt lat="43.3583753" lon="13.047943"><ele>673.0</ele><time>2026-04-25T13:42:01.509Z</time></trkpt><trkpt lat="43.3584868" lon="13.0479991"><ele>677.0</ele><time>2026-04-25T13:42:02.517Z</time></trkpt><trkpt lat="43.3586052" lon="13.0480581"><ele>681.0</ele><time>2026-04-25T13:42:03.513Z</time></trkpt><trkpt lat="43.3587209" lon="13.0481033"><ele>681.0</ele><time>2026-04-25T13:42:04.517Z</time></trkpt><trkpt lat="43.3588241" lon="13.0481453"><ele>681.0</ele><time>2026-04-25T13:42:05.515Z</time></trkpt><trkpt lat="43.3589287" lon="13.0481897"><ele>681.0</ele><time>2026-04-25T13:42:06.517Z</time></trkpt><trkpt lat="43.3590424" lon="13.0482153"><ele>681.0</ele><time>2026-04-25T13:42:07.517Z</time></trkpt><trkpt lat="43.3591541" lon="13.048228"><ele>681.0</ele><time>2026-04-25T13:42:08.525Z</time></trkpt><trkpt lat="43.3592586" lon="13.0482477"><ele>682.5</ele><time>2026-04-25T13:42:09.516Z</time></trkpt><trkpt lat="43.359349" lon="13.0482755"><ele>684.0</ele><time>2026-04-25T13:42:10.515Z</time></trkpt><trkpt lat="43.3594223" lon="13.0483196"><ele>685.5</ele><time>2026-04-25T13:42:11.525Z</time></trkpt><trkpt lat="43.3595005" lon="13.0483633"><ele>687.0</ele><time>2026-04-25T13:42:12.527Z</time></trkpt><trkpt lat="43.3595883" lon="13.0483808"><ele>688.5</ele><time>2026-04-25T13:42:13.531Z</time></trkpt><trkpt lat="43.3596728" lon="13.0483884"><ele>690.0</ele><time>2026-04-25T13:42:14.525Z</time></trkpt><trkpt lat="43.3597557" lon="13.0483901"><ele>689.4</ele><time>2026-04-25T13:42:15.526Z</time></trkpt><trkpt lat="43.3598523" lon="13.0483747"><ele>688.8</ele><time>2026-04-25T13:42:16.536Z</time></trkpt><trkpt lat="43.3599548" lon="13.0483398"><ele>688.2</ele><time>2026-04-25T13:42:17.529Z</time></trkpt><trkpt lat="43.3600537" lon="13.0482924"><ele>687.6</ele><time>2026-04-25T13:42:18.528Z</time></trkpt><trkpt lat="43.3601461" lon="13.0482487"><ele>687.0</ele><time>2026-04-25T13:42:19.524Z</time></trkpt><trkpt lat="43.3602427" lon="13.0482213"><ele>687.0</ele><time>2026-04-25T13:42:20.523Z</time></trkpt><trkpt lat="43.3603455" lon="13.0481989"><ele>687.0</ele><time>2026-04-25T13:42:21.531Z</time></trkpt><trkpt lat="43.3604463" lon="13.048184"><ele>687.0</ele><time>2026-04-25T13:42:22.528Z</time></trkpt><trkpt lat="43.3605512" lon="13.0482028"><ele>687.0</ele><time>2026-04-25T13:42:23.528Z</time></trkpt><trkpt lat="43.3606506" lon="13.0482481"><ele>687.0</ele><time>2026-04-25T13:42:24.526Z</time></trkpt><trkpt lat="43.3607457" lon="13.0483419"><ele>683.2</ele><time>2026-04-25T13:42:25.522Z</time></trkpt><trkpt lat="43.360844" lon="13.0484422"><ele>679.4000000000001</ele><time>2026-04-25T13:42:26.535Z</time></trkpt><trkpt lat="43.3609384" lon="13.0484953"><ele>675.5999999999999</ele><time>2026-04-25T13:42:27.529Z</time></trkpt><trkpt lat="43.3610413" lon="13.0485214"><ele>671.8</ele><time>2026-04-25T13:42:28.532Z</time></trkpt><trkpt lat="43.361153" lon="13.0485086"><ele>668.0</ele><time>2026-04-25T13:42:29.542Z</time></trkpt><trkpt lat="43.3612695" lon="13.0485016"><ele>670.4</ele><time>2026-04-25T13:42:30.542Z</time></trkpt><trkpt lat="43.3613767" lon="13.0485254"><ele>672.8</ele><time>2026-04-25T13:42:31.539Z</time></trkpt><trkpt lat="43.361469" lon="13.0485781"><ele>675.2</ele><time>2026-04-25T13:42:32.533Z</time></trkpt><trkpt lat="43.3615475" lon="13.048659"><ele>677.6</ele><time>2026-04-25T13:42:33.543Z</time></trkpt><trkpt lat="43.3616151" lon="13.0487455"><ele>680.0</ele><time>2026-04-25T13:42:34.54Z</time></trkpt><trkpt lat="43.3616929" lon="13.0488177"><ele>680.0</ele><time>2026-04-25T13:42:35.538Z</time></trkpt><trkpt lat="43.3617831" lon="13.0488677"><ele>680.0</ele><time>2026-04-25T13:42:36.545Z</time></trkpt><trkpt lat="43.3618853" lon="13.0489005"><ele>680.0</ele><time>2026-04-25T13:42:37.538Z</time></trkpt><trkpt lat="43.361991" lon="13.0489192"><ele>680.0</ele><time>2026-04-25T13:42:38.547Z</time></trkpt><trkpt lat="43.3620901" lon="13.0489229"><ele>680.0</ele><time>2026-04-25T13:42:39.552Z</time></trkpt><trkpt lat="43.3621874" lon="13.0489335"><ele>681.3333333333333</ele><time>2026-04-25T13:42:40.538Z</time></trkpt><trkpt lat="43.3622719" lon="13.0489197"><ele>682.6666666666666</ele><time>2026-04-25T13:42:41.542Z</time></trkpt><trkpt lat="43.3623525" lon="13.0488949"><ele>684.0</ele><time>2026-04-25T13:42:42.535Z</time></trkpt><trkpt lat="43.3624338" lon="13.0488635"><ele>685.3333333333334</ele><time>2026-04-25T13:42:43.541Z</time></trkpt><trkpt lat="43.362516" lon="13.0488366"><ele>686.6666666666667</ele><time>2026-04-25T13:42:44.532Z</time></trkpt><trkpt lat="43.3626038" lon="13.0488122"><ele>688.0</ele><time>2026-04-25T13:42:45.538Z</time></trkpt><trkpt lat="43.3626818" lon="13.0487951"><ele>688.0</ele><time>2026-04-25T13:42:46.537Z</time></trkpt><trkpt lat="43.3627664" lon="13.0487661"><ele>688.0</ele><time>2026-04-25T13:42:47.54Z</time></trkpt><trkpt lat="43.3628464" lon="13.0487367"><ele>688.0</ele><time>2026-04-25T13:42:48.523Z</time></trkpt><trkpt lat="43.3629263" lon="13.0487072"><ele>688.0</ele><time>2026-04-25T13:42:49.523Z</time></trkpt><trkpt lat="43.3630017" lon="13.0486771"><ele>688.0</ele><time>2026-04-25T13:42:50.522Z</time></trkpt><trkpt lat="43.3630769" lon="13.0486603"><ele>688.0</ele><time>2026-04-25T13:42:51.524Z</time></trkpt><trkpt lat="43.3631767" lon="13.0486752"><ele>687.2</ele><time>2026-04-25T13:42:52.519Z</time></trkpt><trkpt lat="43.3632803" lon="13.0485909"><ele>686.4</ele><time>2026-04-25T13:42:54.509Z</time></trkpt><trkpt lat="43.3633605" lon="13.0484323"><ele>685.6</ele><time>2026-04-25T13:42:56.521Z</time></trkpt><trkpt lat="43.3634353" lon="13.0483517"><ele>684.8000000000001</ele><time>2026-04-25T13:42:57.519Z</time></trkpt><trkpt lat="43.3635137" lon="13.0482829"><ele>684.0</ele><time>2026-04-25T13:42:58.522Z</time></trkpt><trkpt lat="43.3635983" lon="13.0482094"><ele>682.8000000000001</ele><time>2026-04-25T13:42:59.524Z</time></trkpt><trkpt lat="43.3636754" lon="13.0481207"><ele>681.6</ele><time>2026-04-25T13:43:00.529Z</time></trkpt><trkpt lat="43.3637565" lon="13.0480349"><ele>680.4</ele><time>2026-04-25T13:43:01.527Z</time></trkpt><trkpt lat="43.3638344" lon="13.0479494"><ele>679.2</ele><time>2026-04-25T13:43:02.531Z</time></trkpt><trkpt lat="43.3639003" lon="13.0478511"><ele>678.0</ele><time>2026-04-25T13:43:03.526Z</time></trkpt><trkpt lat="43.3639627" lon="13.0477511"><ele>678.0</ele><time>2026-04-25T13:43:04.526Z</time></trkpt><trkpt lat="43.364022" lon="13.0476462"><ele>678.0</ele><time>2026-04-25T13:43:05.531Z</time></trkpt><trkpt lat="43.3640863" lon="13.0475371"><ele>678.0</ele><time>2026-04-25T13:43:06.53Z</time></trkpt><trkpt lat="43.3641446" lon="13.047429"><ele>678.0</ele><time>2026-04-25T13:43:07.532Z</time></trkpt><trkpt lat="43.3641943" lon="13.0473307"><ele>678.0</ele><time>2026-04-25T13:43:08.53Z</time></trkpt><trkpt lat="43.3642491" lon="13.0472336"><ele>679.0</ele><time>2026-04-25T13:43:09.537Z</time></trkpt><trkpt lat="43.3643015" lon="13.0471475"><ele>680.0</ele><time>2026-04-25T13:43:10.537Z</time></trkpt><trkpt lat="43.3643424" lon="13.0470607"><ele>681.0</ele><time>2026-04-25T13:43:11.533Z</time></trkpt><trkpt lat="43.3643848" lon="13.0469725"><ele>682.0</ele><time>2026-04-25T13:43:12.53Z</time></trkpt><trkpt lat="43.3644291" lon="13.0468839"><ele>683.0</ele><time>2026-04-25T13:43:13.524Z</time></trkpt><trkpt lat="43.3644781" lon="13.0467927"><ele>684.0</ele><time>2026-04-25T13:43:14.535Z</time></trkpt><trkpt lat="43.3645286" lon="13.0467066"><ele>681.2</ele><time>2026-04-25T13:43:15.532Z</time></trkpt><trkpt lat="43.3645664" lon="13.0466141"><ele>678.4000000000001</ele><time>2026-04-25T13:43:16.535Z</time></trkpt><trkpt lat="43.3646107" lon="13.0464962"><ele>675.6</ele><time>2026-04-25T13:43:17.53Z</time></trkpt><trkpt lat="43.3646659" lon="13.0463863"><ele>672.8</ele><time>2026-04-25T13:43:18.532Z</time></trkpt><trkpt lat="43.3647218" lon="13.0462772"><ele>670.0</ele><time>2026-04-25T13:43:19.534Z</time></trkpt><trkpt lat="43.3647684" lon="13.0461618"><ele>670.0</ele><time>2026-04-25T13:43:20.535Z</time></trkpt><trkpt lat="43.3648223" lon="13.046045"><ele>670.0</ele><time>2026-04-25T13:43:21.536Z</time></trkpt><trkpt lat="43.3648843" lon="13.0459153"><ele>670.0</ele><time>2026-04-25T13:43:22.536Z</time></trkpt><trkpt lat="43.3649427" lon="13.0457913"><ele>670.0</ele><time>2026-04-25T13:43:23.539Z</time></trkpt><trkpt lat="43.3650084" lon="13.0456747"><ele>670.0</ele><time>2026-04-25T13:43:24.539Z</time></trkpt><trkpt lat="43.3650731" lon="13.0455653"><ele>674.75</ele><time>2026-04-25T13:43:25.539Z</time></trkpt><trkpt lat="43.3651403" lon="13.0454546"><ele>679.5</ele><time>2026-04-25T13:43:26.537Z</time></trkpt><trkpt lat="43.3652057" lon="13.0453382"><ele>684.25</ele><time>2026-04-25T13:43:27.533Z</time></trkpt><trkpt lat="43.3652821" lon="13.0452204"><ele>689.0</ele><time>2026-04-25T13:43:28.535Z</time></trkpt><trkpt lat="43.3653656" lon="13.0450939"><ele>689.0</ele><time>2026-04-25T13:43:29.541Z</time></trkpt><trkpt lat="43.3654481" lon="13.0449602"><ele>689.0</ele><time>2026-04-25T13:43:30.538Z</time></trkpt><trkpt lat="43.365535" lon="13.0448329"><ele>689.0</ele><time>2026-04-25T13:43:31.53Z</time></trkpt><trkpt lat="43.3656211" lon="13.0447084"><ele>689.0</ele><time>2026-04-25T13:43:32.54Z</time></trkpt><trkpt lat="43.3656944" lon="13.0445934"><ele>689.0</ele><time>2026-04-25T13:43:33.537Z</time></trkpt><trkpt lat="43.3657651" lon="13.0444655"><ele>689.0</ele><time>2026-04-25T13:43:34.538Z</time></trkpt><trkpt lat="43.3658281" lon="13.0443315"><ele>689.0</ele><time>2026-04-25T13:43:35.538Z</time></trkpt><trkpt lat="43.3658841" lon="13.0441736"><ele>689.0</ele><time>2026-04-25T13:43:36.533Z</time></trkpt><trkpt lat="43.3659266" lon="13.0440063"><ele>691.5</ele><time>2026-04-25T13:43:37.539Z</time></trkpt><trkpt lat="43.3659615" lon="13.0438435"><ele>694.0</ele><time>2026-04-25T13:43:38.545Z</time></trkpt><trkpt lat="43.3659937" lon="13.0436675"><ele>696.5</ele><time>2026-04-25T13:43:39.54Z</time></trkpt><trkpt lat="43.3660314" lon="13.0434998"><ele>699.0</ele><time>2026-04-25T13:43:40.552Z</time></trkpt><trkpt lat="43.3660656" lon="13.0433336"><ele>701.25</ele><time>2026-04-25T13:43:41.536Z</time></trkpt><trkpt lat="43.3660923" lon="13.0431631"><ele>703.5</ele><time>2026-04-25T13:43:42.534Z</time></trkpt><trkpt lat="43.3661355" lon="13.0429974"><ele>705.75</ele><time>2026-04-25T13:43:43.533Z</time></trkpt><trkpt lat="43.3661827" lon="13.0428318"><ele>708.0</ele><time>2026-04-25T13:43:44.535Z</time></trkpt><trkpt lat="43.3662265" lon="13.0426708"><ele>708.0</ele><time>2026-04-25T13:43:45.538Z</time></trkpt><trkpt lat="43.3662665" lon="13.0425101"><ele>708.0</ele><time>2026-04-25T13:43:46.536Z</time></trkpt><trkpt lat="43.3663017" lon="13.0423563"><ele>708.0</ele><time>2026-04-25T13:43:47.531Z</time></trkpt><trkpt lat="43.3663249" lon="13.0422001"><ele>708.0</ele><time>2026-04-25T13:43:48.539Z</time></trkpt><trkpt lat="43.3663392" lon="13.0420295"><ele>710.0</ele><time>2026-04-25T13:43:49.535Z</time></trkpt><trkpt lat="43.3663458" lon="13.0418547"><ele>712.0</ele><time>2026-04-25T13:43:50.534Z</time></trkpt><trkpt lat="43.3663476" lon="13.0416805"><ele>714.0</ele><time>2026-04-25T13:43:51.533Z</time></trkpt><trkpt lat="43.3663428" lon="13.041513"><ele>716.0</ele><time>2026-04-25T13:43:52.54Z</time></trkpt><trkpt lat="43.3663364" lon="13.0413493"><ele>717.0</ele><time>2026-04-25T13:43:53.537Z</time></trkpt><trkpt lat="43.3663238" lon="13.0411988"><ele>718.0</ele><time>2026-04-25T13:43:54.536Z</time></trkpt><trkpt lat="43.3663126" lon="13.0410716"><ele>719.0</ele><time>2026-04-25T13:43:55.533Z</time></trkpt><trkpt lat="43.3663095" lon="13.0409658"><ele>720.0</ele><time>2026-04-25T13:43:56.532Z</time></trkpt><trkpt lat="43.3663083" lon="13.0408664"><ele>721.0</ele><time>2026-04-25T13:43:57.524Z</time></trkpt><trkpt lat="43.3663265" lon="13.0407681"><ele>722.0</ele><time>2026-04-25T13:43:59.524Z</time></trkpt><trkpt lat="43.3663971" lon="13.0407703"><ele>722.8333333333333</ele><time>2026-04-25T13:44:01.517Z</time></trkpt><trkpt lat="43.3664582" lon="13.0409071"><ele>723.6666666666666</ele><time>2026-04-25T13:44:03.519Z</time></trkpt><trkpt lat="43.3664827" lon="13.0409982"><ele>724.5</ele><time>2026-04-25T13:44:04.516Z</time></trkpt><trkpt lat="43.3665113" lon="13.0410857"><ele>725.3333333333334</ele><time>2026-04-25T13:44:05.515Z</time></trkpt><trkpt lat="43.3665282" lon="13.0411832"><ele>726.1666666666667</ele><time>2026-04-25T13:44:06.513Z</time></trkpt><trkpt lat="43.3665516" lon="13.0412808"><ele>727.0</ele><time>2026-04-25T13:44:07.507Z</time></trkpt><trkpt lat="43.3665837" lon="13.0413996"><ele>727.0</ele><time>2026-04-25T13:44:08.519Z</time></trkpt><trkpt lat="43.3666084" lon="13.0415154"><ele>727.0</ele><time>2026-04-25T13:44:09.51Z</time></trkpt><trkpt lat="43.3666302" lon="13.0416389"><ele>727.0</ele><time>2026-04-25T13:44:10.512Z</time></trkpt><trkpt lat="43.3666534" lon="13.0417699"><ele>727.0</ele><time>2026-04-25T13:44:11.515Z</time></trkpt><trkpt lat="43.3666659" lon="13.041887"><ele>727.0</ele><time>2026-04-25T13:44:12.509Z</time></trkpt><trkpt lat="43.3666699" lon="13.0420167"><ele>725.3333333333334</ele><time>2026-04-25T13:44:13.519Z</time></trkpt><trkpt lat="43.3666772" lon="13.0421387"><ele>723.6666666666667</ele><time>2026-04-25T13:44:14.522Z</time></trkpt><trkpt lat="43.3666939" lon="13.0422382"><ele>722.0</ele><time>2026-04-25T13:44:15.525Z</time></trkpt><trkpt lat="43.3667319" lon="13.0423176"><ele>720.3333333333334</ele><time>2026-04-25T13:44:16.516Z</time></trkpt><trkpt lat="43.36678" lon="13.0423834"><ele>718.6666666666666</ele><time>2026-04-25T13:44:17.519Z</time></trkpt><trkpt lat="43.3668399" lon="13.0424251"><ele>717.0</ele><time>2026-04-25T13:44:18.524Z</time></trkpt><trkpt lat="43.3669227" lon="13.0424375"><ele>717.0</ele><time>2026-04-25T13:44:19.517Z</time></trkpt><trkpt lat="43.3670108" lon="13.0424261"><ele>717.0</ele><time>2026-04-25T13:44:20.519Z</time></trkpt><trkpt lat="43.3670883" lon="13.0424009"><ele>717.0</ele><time>2026-04-25T13:44:21.511Z</time></trkpt><trkpt lat="43.3671699" lon="13.0423718"><ele>717.0</ele><time>2026-04-25T13:44:22.513Z</time></trkpt><trkpt lat="43.367258" lon="13.0423346"><ele>717.0</ele><time>2026-04-25T13:44:23.514Z</time></trkpt><trkpt lat="43.3673536" lon="13.042285"><ele>717.0</ele><time>2026-04-25T13:44:24.517Z</time></trkpt><trkpt lat="43.3674573" lon="13.0422382"><ele>723.6</ele><time>2026-04-25T13:44:25.508Z</time></trkpt><trkpt lat="43.3675612" lon="13.0422107"><ele>730.2</ele><time>2026-04-25T13:44:26.51Z</time></trkpt><trkpt lat="43.3676765" lon="13.0421849"><ele>736.8</ele><time>2026-04-25T13:44:27.513Z</time></trkpt><trkpt lat="43.3677834" lon="13.0421712"><ele>743.4</ele><time>2026-04-25T13:44:28.514Z</time></trkpt><trkpt lat="43.3678826" lon="13.0421665"><ele>750.0</ele><time>2026-04-25T13:44:29.526Z</time></trkpt><trkpt lat="43.3679714" lon="13.0421908"><ele>748.5</ele><time>2026-04-25T13:44:30.524Z</time></trkpt><trkpt lat="43.3680482" lon="13.0422148"><ele>747.0</ele><time>2026-04-25T13:44:31.531Z</time></trkpt><trkpt lat="43.3681286" lon="13.0422564"><ele>745.5</ele><time>2026-04-25T13:44:32.531Z</time></trkpt><trkpt lat="43.3681971" lon="13.0423157"><ele>744.0</ele><time>2026-04-25T13:44:33.53Z</time></trkpt><trkpt lat="43.3682353" lon="13.0423948"><ele>742.5</ele><time>2026-04-25T13:44:34.531Z</time></trkpt><trkpt lat="43.3682697" lon="13.0424952"><ele>741.0</ele><time>2026-04-25T13:44:35.536Z</time></trkpt><trkpt lat="43.3682881" lon="13.0426106"><ele>738.0</ele><time>2026-04-25T13:44:36.527Z</time></trkpt><trkpt lat="43.3682952" lon="13.0427247"><ele>735.0</ele><time>2026-04-25T13:44:37.54Z</time></trkpt><trkpt lat="43.3682736" lon="13.0428493"><ele>732.0</ele><time>2026-04-25T13:44:38.537Z</time></trkpt><trkpt lat="43.3682373" lon="13.0429688"><ele>729.0</ele><time>2026-04-25T13:44:39.532Z</time></trkpt><trkpt lat="43.368191" lon="13.0430901"><ele>726.0</ele><time>2026-04-25T13:44:40.539Z</time></trkpt><trkpt lat="43.3681328" lon="13.043215"><ele>728.5</ele><time>2026-04-25T13:44:41.54Z</time></trkpt><trkpt lat="43.3680738" lon="13.0433361"><ele>731.0</ele><time>2026-04-25T13:44:42.532Z</time></trkpt><trkpt lat="43.3680133" lon="13.0434637"><ele>733.5</ele><time>2026-04-25T13:44:43.533Z</time></trkpt><trkpt lat="43.3679525" lon="13.0436046"><ele>736.0</ele><time>2026-04-25T13:44:44.524Z</time></trkpt><trkpt lat="43.3678972" lon="13.0437441"><ele>733.75</ele><time>2026-04-25T13:44:45.524Z</time></trkpt><trkpt lat="43.3678506" lon="13.0438972"><ele>731.5</ele><time>2026-04-25T13:44:46.528Z</time></trkpt><trkpt lat="43.3678084" lon="13.0440545"><ele>729.25</ele><time>2026-04-25T13:44:47.532Z</time></trkpt><trkpt lat="43.3677696" lon="13.0442054"><ele>727.0</ele><time>2026-04-25T13:44:48.534Z</time></trkpt><trkpt lat="43.3677393" lon="13.0443485"><ele>727.0</ele><time>2026-04-25T13:44:49.531Z</time></trkpt><trkpt lat="43.3677195" lon="13.044497"><ele>727.0</ele><time>2026-04-25T13:44:50.541Z</time></trkpt><trkpt lat="43.3677038" lon="13.044652"><ele>727.0</ele><time>2026-04-25T13:44:51.531Z</time></trkpt><trkpt lat="43.3676914" lon="13.0448322"><ele>727.0</ele><time>2026-04-25T13:44:52.539Z</time></trkpt><trkpt lat="43.367722" lon="13.0449967"><ele>727.0</ele><time>2026-04-25T13:44:53.527Z</time></trkpt><trkpt lat="43.3677506" lon="13.0451248"><ele>727.0</ele><time>2026-04-25T13:44:54.535Z</time></trkpt><trkpt lat="43.3677784" lon="13.0452396"><ele>727.0</ele><time>2026-04-25T13:44:55.524Z</time></trkpt><trkpt lat="43.3678237" lon="13.0453543"><ele>727.0</ele><time>2026-04-25T13:44:56.528Z</time></trkpt><trkpt lat="43.3678704" lon="13.045506"><ele>727.0</ele><time>2026-04-25T13:44:57.526Z</time></trkpt><trkpt lat="43.3679171" lon="13.0456689"><ele>726.5</ele><time>2026-04-25T13:44:58.525Z</time></trkpt><trkpt lat="43.3679627" lon="13.0458384"><ele>726.0</ele><time>2026-04-25T13:44:59.53Z</time></trkpt><trkpt lat="43.3680118" lon="13.046008"><ele>725.5</ele><time>2026-04-25T13:45:00.515Z</time></trkpt><trkpt lat="43.3680811" lon="13.0461533"><ele>725.0</ele><time>2026-04-25T13:45:01.509Z</time></trkpt><trkpt lat="43.3681748" lon="13.0462849"><ele>731.25</ele><time>2026-04-25T13:45:02.505Z</time></trkpt><trkpt lat="43.3682689" lon="13.0464243"><ele>737.5</ele><time>2026-04-25T13:45:03.497Z</time></trkpt><trkpt lat="43.3683517" lon="13.0465414"><ele>743.75</ele><time>2026-04-25T13:45:04.505Z</time></trkpt><trkpt lat="43.3684213" lon="13.0466681"><ele>750.0</ele><time>2026-04-25T13:45:05.502Z</time></trkpt><trkpt lat="43.3684794" lon="13.0468084"><ele>750.0</ele><time>2026-04-25T13:45:06.511Z</time></trkpt><trkpt lat="43.3685324" lon="13.0469754"><ele>750.0</ele><time>2026-04-25T13:45:07.504Z</time></trkpt><trkpt lat="43.3685875" lon="13.0471445"><ele>750.0</ele><time>2026-04-25T13:45:08.512Z</time></trkpt><trkpt lat="43.3686377" lon="13.0473269"><ele>750.0</ele><time>2026-04-25T13:45:09.504Z</time></trkpt><trkpt lat="43.3686951" lon="13.0474688"><ele>749.3333333333334</ele><time>2026-04-25T13:45:10.501Z</time></trkpt><trkpt lat="43.3687326" lon="13.0475935"><ele>748.6666666666666</ele><time>2026-04-25T13:45:11.512Z</time></trkpt><trkpt lat="43.3687463" lon="13.0477161"><ele>748.0</ele><time>2026-04-25T13:45:12.519Z</time></trkpt><trkpt lat="43.3687548" lon="13.0478526"><ele>747.3333333333333</ele><time>2026-04-25T13:45:13.519Z</time></trkpt><trkpt lat="43.3687231" lon="13.0479483"><ele>746.6666666666666</ele><time>2026-04-25T13:45:14.514Z</time></trkpt><trkpt lat="43.3687108" lon="13.0480556"><ele>746.0</ele><time>2026-04-25T13:45:15.517Z</time></trkpt><trkpt lat="43.3687191" lon="13.0481906"><ele>745.5999999999999</ele><time>2026-04-25T13:45:16.521Z</time></trkpt><trkpt lat="43.3687391" lon="13.048319"><ele>745.2</ele><time>2026-04-25T13:45:17.514Z</time></trkpt><trkpt lat="43.3687505" lon="13.048447"><ele>744.8</ele><time>2026-04-25T13:45:18.516Z</time></trkpt><trkpt lat="43.3688131" lon="13.048567"><ele>744.4000000000001</ele><time>2026-04-25T13:45:19.507Z</time></trkpt><trkpt lat="43.3688844" lon="13.0486727"><ele>744.0</ele><time>2026-04-25T13:45:20.511Z</time></trkpt><trkpt lat="43.3689554" lon="13.0487706"><ele>749.5</ele><time>2026-04-25T13:45:21.513Z</time></trkpt><trkpt lat="43.3690366" lon="13.048861"><ele>755.0</ele><time>2026-04-25T13:45:22.509Z</time></trkpt><trkpt lat="43.3691249" lon="13.0489636"><ele>760.5</ele><time>2026-04-25T13:45:23.519Z</time></trkpt><trkpt lat="43.369225" lon="13.0490709"><ele>766.0</ele><time>2026-04-25T13:45:24.52Z</time></trkpt><trkpt lat="43.3693332" lon="13.0491769"><ele>766.0</ele><time>2026-04-25T13:45:25.515Z</time></trkpt><trkpt lat="43.3694427" lon="13.049271"><ele>766.0</ele><time>2026-04-25T13:45:26.507Z</time></trkpt><trkpt lat="43.3695374" lon="13.0493569"><ele>766.0</ele><time>2026-04-25T13:45:27.515Z</time></trkpt><trkpt lat="43.3696155" lon="13.0494414"><ele>766.0</ele><time>2026-04-25T13:45:28.511Z</time></trkpt><trkpt lat="43.3696893" lon="13.049529"><ele>766.0</ele><time>2026-04-25T13:45:29.514Z</time></trkpt><trkpt lat="43.3697551" lon="13.0496399"><ele>768.75</ele><time>2026-04-25T13:45:30.52Z</time></trkpt><trkpt lat="43.3698363" lon="13.049787"><ele>771.5</ele><time>2026-04-25T13:45:31.512Z</time></trkpt><trkpt lat="43.3699195" lon="13.0499352"><ele>774.25</ele><time>2026-04-25T13:45:32.519Z</time></trkpt><trkpt lat="43.3700043" lon="13.0500822"><ele>777.0</ele><time>2026-04-25T13:45:33.519Z</time></trkpt><trkpt lat="43.3700863" lon="13.0502211"><ele>777.0</ele><time>2026-04-25T13:45:34.523Z</time></trkpt><trkpt lat="43.3701686" lon="13.0503479"><ele>777.0</ele><time>2026-04-25T13:45:35.524Z</time></trkpt><trkpt lat="43.3702495" lon="13.0504717"><ele>777.0</ele><time>2026-04-25T13:45:36.529Z</time></trkpt><trkpt lat="43.3703149" lon="13.0505986"><ele>777.0</ele><time>2026-04-25T13:45:37.53Z</time></trkpt><trkpt lat="43.3703694" lon="13.0507261"><ele>775.4000000000001</ele><time>2026-04-25T13:45:38.531Z</time></trkpt><trkpt lat="43.3704276" lon="13.050836"><ele>773.8000000000001</ele><time>2026-04-25T13:45:39.528Z</time></trkpt><trkpt lat="43.3704816" lon="13.0509248"><ele>772.2</ele><time>2026-04-25T13:45:40.53Z</time></trkpt><trkpt lat="43.3705484" lon="13.0510106"><ele>770.6</ele><time>2026-04-25T13:45:41.533Z</time></trkpt><trkpt lat="43.37062" lon="13.0510824"><ele>769.0</ele><time>2026-04-25T13:45:42.533Z</time></trkpt><trkpt lat="43.3706975" lon="13.0511384"><ele>773.4000000000001</ele><time>2026-04-25T13:45:43.533Z</time></trkpt><trkpt lat="43.3707797" lon="13.0511873"><ele>777.8</ele><time>2026-04-25T13:45:44.529Z</time></trkpt><trkpt lat="43.3708671" lon="13.0512206"><ele>782.2</ele><time>2026-04-25T13:45:45.52Z</time></trkpt><trkpt lat="43.3709569" lon="13.0512361"><ele>786.5999999999999</ele><time>2026-04-25T13:45:46.525Z</time></trkpt><trkpt lat="43.3710482" lon="13.0512395"><ele>791.0</ele><time>2026-04-25T13:45:47.518Z</time></trkpt><trkpt lat="43.371141" lon="13.0512308"><ele>791.0000000000001</ele><time>2026-04-25T13:45:48.531Z</time></trkpt><trkpt lat="43.3712229" lon="13.0512064"><ele>791.0</ele><time>2026-04-25T13:45:49.516Z</time></trkpt><trkpt lat="43.3712926" lon="13.0511589"><ele>791.0</ele><time>2026-04-25T13:45:50.517Z</time></trkpt><trkpt lat="43.3713477" lon="13.0510951"><ele>791.0</ele><time>2026-04-25T13:45:51.517Z</time></trkpt><trkpt lat="43.3713972" lon="13.0510009"><ele>791.0000000000001</ele><time>2026-04-25T13:45:52.522Z</time></trkpt><trkpt lat="43.3714392" lon="13.0508918"><ele>791.0</ele><time>2026-04-25T13:45:53.517Z</time></trkpt><trkpt lat="43.3714768" lon="13.0507663"><ele>793.1999999999999</ele><time>2026-04-25T13:45:54.531Z</time></trkpt><trkpt lat="43.3715128" lon="13.0506265"><ele>795.4</ele><time>2026-04-25T13:45:55.519Z</time></trkpt><trkpt lat="43.3715362" lon="13.0504862"><ele>797.6</ele><time>2026-04-25T13:45:56.52Z</time></trkpt><trkpt lat="43.3715678" lon="13.05036"><ele>799.8</ele><time>2026-04-25T13:45:57.517Z</time></trkpt><trkpt lat="43.3715868" lon="13.050273"><ele>802.0</ele><time>2026-04-25T13:45:58.514Z</time></trkpt><trkpt lat="43.3716169" lon="13.0501696"><ele>802.0</ele><time>2026-04-25T13:46:00.53Z</time></trkpt><trkpt lat="43.3715455" lon="13.0500899"><ele>802.0</ele><time>2026-04-25T13:46:29.522Z</time></trkpt><trkpt lat="43.3714521" lon="13.050056"><ele>802.0</ele><time>2026-04-25T13:46:31.512Z</time></trkpt><trkpt lat="43.3713525" lon="13.0500657"><ele>802.0</ele><time>2026-04-25T13:46:32.52Z</time></trkpt><trkpt lat="43.3712307" lon="13.050068"><ele>802.0</ele><time>2026-04-25T13:46:33.52Z</time></trkpt><trkpt lat="43.3711143" lon="13.0500545"><ele>801.5</ele><time>2026-04-25T13:46:34.514Z</time></trkpt><trkpt lat="43.3710037" lon="13.0500014"><ele>801.0</ele><time>2026-04-25T13:46:35.526Z</time></trkpt><trkpt lat="43.3708983" lon="13.0499038"><ele>800.5</ele><time>2026-04-25T13:46:36.524Z</time></trkpt><trkpt lat="43.3708049" lon="13.0497687"><ele>800.0</ele><time>2026-04-25T13:46:37.519Z</time></trkpt><trkpt lat="43.3707117" lon="13.0496192"><ele>799.0</ele><time>2026-04-25T13:46:38.518Z</time></trkpt><trkpt lat="43.3706123" lon="13.049464"><ele>798.0</ele><time>2026-04-25T13:46:39.524Z</time></trkpt><trkpt lat="43.3705186" lon="13.0492985"><ele>797.0</ele><time>2026-04-25T13:46:40.527Z</time></trkpt><trkpt lat="43.3704196" lon="13.0491287"><ele>804.3333333333334</ele><time>2026-04-25T13:46:41.529Z</time></trkpt><trkpt lat="43.370324" lon="13.0489417"><ele>811.6666666666667</ele><time>2026-04-25T13:46:42.522Z</time></trkpt><trkpt lat="43.3702394" lon="13.0487804"><ele>819.0</ele><time>2026-04-25T13:46:43.527Z</time></trkpt><trkpt lat="43.3701492" lon="13.0486183"><ele>819.0</ele><time>2026-04-25T13:46:44.526Z</time></trkpt><trkpt lat="43.3700649" lon="13.048476"><ele>819.0</ele><time>2026-04-25T13:46:45.525Z</time></trkpt><trkpt lat="43.3699849" lon="13.0483266"><ele>819.0</ele><time>2026-04-25T13:46:46.524Z</time></trkpt><trkpt lat="43.3699107" lon="13.0481904"><ele>819.0</ele><time>2026-04-25T13:46:47.52Z</time></trkpt><trkpt lat="43.369857" lon="13.0480653"><ele>823.75</ele><time>2026-04-25T13:46:48.518Z</time></trkpt><trkpt lat="43.3698356" lon="13.0479125"><ele>828.5</ele><time>2026-04-25T13:46:49.519Z</time></trkpt><trkpt lat="43.3698147" lon="13.0477718"><ele>833.25</ele><time>2026-04-25T13:46:50.526Z</time></trkpt><trkpt lat="43.36981" lon="13.0476103"><ele>838.0</ele><time>2026-04-25T13:46:51.528Z</time></trkpt><trkpt lat="43.3698132" lon="13.0474351"><ele>840.5</ele><time>2026-04-25T13:46:52.531Z</time></trkpt><trkpt lat="43.3698069" lon="13.0472503"><ele>843.0</ele><time>2026-04-25T13:46:53.527Z</time></trkpt><trkpt lat="43.3697967" lon="13.0470562"><ele>845.5</ele><time>2026-04-25T13:46:54.522Z</time></trkpt><trkpt lat="43.3697854" lon="13.0468601"><ele>848.0</ele><time>2026-04-25T13:46:55.524Z</time></trkpt><trkpt lat="43.3697664" lon="13.0466865"><ele>849.25</ele><time>2026-04-25T13:46:56.525Z</time></trkpt><trkpt lat="43.369748" lon="13.046516"><ele>850.5</ele><time>2026-04-25T13:46:57.517Z</time></trkpt><trkpt lat="43.3697448" lon="13.0463442"><ele>851.75</ele><time>2026-04-25T13:46:58.519Z</time></trkpt><trkpt lat="43.3697337" lon="13.0461716"><ele>853.0</ele><time>2026-04-25T13:46:59.515Z</time></trkpt><trkpt lat="43.369748" lon="13.0459714"><ele>849.6666666666666</ele><time>2026-04-25T13:47:00.517Z</time></trkpt><trkpt lat="43.3697451" lon="13.0457633"><ele>846.3333333333333</ele><time>2026-04-25T13:47:01.517Z</time></trkpt><trkpt lat="43.3697589" lon="13.0455726"><ele>843.0</ele><time>2026-04-25T13:47:02.515Z</time></trkpt><trkpt lat="43.369782" lon="13.0453552"><ele>843.0</ele><time>2026-04-25T13:47:03.508Z</time></trkpt><trkpt lat="43.3698304" lon="13.0451641"><ele>843.0</ele><time>2026-04-25T13:47:04.518Z</time></trkpt><trkpt lat="43.3698989" lon="13.0449856"><ele>843.0</ele><time>2026-04-25T13:47:05.52Z</time></trkpt><trkpt lat="43.3699831" lon="13.0448037"><ele>836.3333333333333</ele><time>2026-04-25T13:47:06.517Z</time></trkpt><trkpt lat="43.3700924" lon="13.0446275"><ele>829.6666666666666</ele><time>2026-04-25T13:47:07.52Z</time></trkpt><trkpt lat="43.3702283" lon="13.0444628"><ele>823.0</ele><time>2026-04-25T13:47:08.519Z</time></trkpt><trkpt lat="43.3703777" lon="13.0443255"><ele>828.6666666666666</ele><time>2026-04-25T13:47:09.521Z</time></trkpt><trkpt lat="43.37054" lon="13.0441895"><ele>834.3333333333333</ele><time>2026-04-25T13:47:10.515Z</time></trkpt><trkpt lat="43.3706897" lon="13.0440211"><ele>840.0</ele><time>2026-04-25T13:47:11.521Z</time></trkpt><trkpt lat="43.3708311" lon="13.0438393"><ele>840.0</ele><time>2026-04-25T13:47:12.512Z</time></trkpt><trkpt lat="43.3709545" lon="13.0436461"><ele>840.0</ele><time>2026-04-25T13:47:13.519Z</time></trkpt><trkpt lat="43.3710716" lon="13.0434386"><ele>840.0</ele><time>2026-04-25T13:47:14.51Z</time></trkpt><trkpt lat="43.3711728" lon="13.0432206"><ele>835.0</ele><time>2026-04-25T13:47:15.513Z</time></trkpt><trkpt lat="43.3712692" lon="13.0429955"><ele>830.0</ele><time>2026-04-25T13:47:16.511Z</time></trkpt><trkpt lat="43.3713637" lon="13.0427606"><ele>825.0</ele><time>2026-04-25T13:47:17.529Z</time></trkpt><trkpt lat="43.3714572" lon="13.0425188"><ele>839.0</ele><time>2026-04-25T13:47:18.518Z</time></trkpt><trkpt lat="43.3715371" lon="13.0422687"><ele>853.0</ele><time>2026-04-25T13:47:19.523Z</time></trkpt><trkpt lat="43.3716053" lon="13.0420099"><ele>867.0</ele><time>2026-04-25T13:47:20.503Z</time></trkpt><trkpt lat="43.3716725" lon="13.0417372"><ele>866.0</ele><time>2026-04-25T13:47:21.51Z</time></trkpt><trkpt lat="43.3717331" lon="13.0414443"><ele>865.0</ele><time>2026-04-25T13:47:22.509Z</time></trkpt><trkpt lat="43.3717831" lon="13.0411892"><ele>864.0</ele><time>2026-04-25T13:47:23.513Z</time></trkpt><trkpt lat="43.3718132" lon="13.0409338"><ele>865.3333333333333</ele><time>2026-04-25T13:47:24.508Z</time></trkpt><trkpt lat="43.3718456" lon="13.0406699"><ele>866.6666666666666</ele><time>2026-04-25T13:47:25.511Z</time></trkpt><trkpt lat="43.3718487" lon="13.0404088"><ele>868.0</ele><time>2026-04-25T13:47:26.509Z</time></trkpt><trkpt lat="43.3718394" lon="13.0401392"><ele>872.3333333333333</ele><time>2026-04-25T13:47:27.505Z</time></trkpt><trkpt lat="43.3718161" lon="13.039875"><ele>876.6666666666667</ele><time>2026-04-25T13:47:28.505Z</time></trkpt><trkpt lat="43.3718047" lon="13.0395854"><ele>881.0</ele><time>2026-04-25T13:47:29.512Z</time></trkpt><trkpt lat="43.3717702" lon="13.0393164"><ele>886.0</ele><time>2026-04-25T13:47:30.518Z</time></trkpt><trkpt lat="43.3717142" lon="13.0390353"><ele>891.0</ele><time>2026-04-25T13:47:31.526Z</time></trkpt><trkpt lat="43.3716534" lon="13.0387394"><ele>896.0</ele><time>2026-04-25T13:47:32.52Z</time></trkpt><trkpt lat="43.3715915" lon="13.038443"><ele>901.3333333333334</ele><time>2026-04-25T13:47:33.524Z</time></trkpt><trkpt lat="43.3715065" lon="13.0381481"><ele>906.6666666666667</ele><time>2026-04-25T13:47:34.522Z</time></trkpt><trkpt lat="43.3714519" lon="13.0378725"><ele>912.0</ele><time>2026-04-25T13:47:35.519Z</time></trkpt><trkpt lat="43.3713914" lon="13.0376391"><ele>908.6666666666667</ele><time>2026-04-25T13:47:36.515Z</time></trkpt><trkpt lat="43.3713136" lon="13.0374262"><ele>905.3333333333334</ele><time>2026-04-25T13:47:37.525Z</time></trkpt><trkpt lat="43.3712244" lon="13.0372523"><ele>902.0</ele><time>2026-04-25T13:47:38.52Z</time></trkpt><trkpt lat="43.3711425" lon="13.0370796"><ele>902.0</ele><time>2026-04-25T13:47:39.527Z</time></trkpt><trkpt lat="43.3710475" lon="13.0369083"><ele>902.0</ele><time>2026-04-25T13:47:40.517Z</time></trkpt><trkpt lat="43.3709177" lon="13.0367559"><ele>902.0</ele><time>2026-04-25T13:47:41.524Z</time></trkpt><trkpt lat="43.3708122" lon="13.036607"><ele>905.2</ele><time>2026-04-25T13:47:42.513Z</time></trkpt><trkpt lat="43.3707142" lon="13.0365116"><ele>908.4000000000001</ele><time>2026-04-25T13:47:43.519Z</time></trkpt><trkpt lat="43.3706566" lon="13.0364562"><ele>911.5999999999999</ele><time>2026-04-25T13:47:44.504Z</time></trkpt><trkpt lat="43.370564" lon="13.0364491"><ele>914.8</ele><time>2026-04-25T13:47:45.513Z</time></trkpt><trkpt lat="43.370451" lon="13.0364813"><ele>918.0</ele><time>2026-04-25T13:47:46.502Z</time></trkpt><trkpt lat="43.3703304" lon="13.0365266"><ele>918.0</ele><time>2026-04-25T13:47:47.519Z</time></trkpt><trkpt lat="43.3702033" lon="13.0365678"><ele>918.0</ele><time>2026-04-25T13:47:48.512Z</time></trkpt><trkpt lat="43.3700509" lon="13.0366254"><ele>918.0</ele><time>2026-04-25T13:47:49.52Z</time></trkpt><trkpt lat="43.3698749" lon="13.0366461"><ele>916.3333333333333</ele><time>2026-04-25T13:47:50.513Z</time></trkpt><trkpt lat="43.3696836" lon="13.0366231"><ele>914.6666666666666</ele><time>2026-04-25T13:47:51.516Z</time></trkpt><trkpt lat="43.3694919" lon="13.0365662"><ele>913.0</ele><time>2026-04-25T13:47:52.518Z</time></trkpt><trkpt lat="43.3693196" lon="13.0364871"><ele>913.0</ele><time>2026-04-25T13:47:53.521Z</time></trkpt><trkpt lat="43.3691436" lon="13.0364188"><ele>913.0</ele><time>2026-04-25T13:47:54.523Z</time></trkpt><trkpt lat="43.3689718" lon="13.0363273"><ele>913.0</ele><time>2026-04-25T13:47:55.522Z</time></trkpt><trkpt lat="43.3688073" lon="13.036198"><ele>912.25</ele><time>2026-04-25T13:47:56.522Z</time></trkpt><trkpt lat="43.368666" lon="13.0360846"><ele>911.5</ele><time>2026-04-25T13:47:57.523Z</time></trkpt><trkpt lat="43.3685715" lon="13.0359785"><ele>910.75</ele><time>2026-04-25T13:47:58.526Z</time></trkpt><trkpt lat="43.3684809" lon="13.0358381"><ele>910.0</ele><time>2026-04-25T13:47:59.517Z</time></trkpt><trkpt lat="43.3683864" lon="13.0356536"><ele>910.0</ele><time>2026-04-25T13:48:00.527Z</time></trkpt><trkpt lat="43.3683028" lon="13.0354352"><ele>910.0</ele><time>2026-04-25T13:48:01.519Z</time></trkpt><trkpt lat="43.3682345" lon="13.0351854"><ele>910.0</ele><time>2026-04-25T13:48:02.527Z</time></trkpt><trkpt lat="43.3681493" lon="13.0349481"><ele>914.0</ele><time>2026-04-25T13:48:03.521Z</time></trkpt><trkpt lat="43.3680683" lon="13.0347203"><ele>918.0</ele><time>2026-04-25T13:48:04.524Z</time></trkpt><trkpt lat="43.3679729" lon="13.0344915"><ele>922.0</ele><time>2026-04-25T13:48:05.521Z</time></trkpt><trkpt lat="43.367886" lon="13.0342652"><ele>919.3333333333333</ele><time>2026-04-25T13:48:06.526Z</time></trkpt><trkpt lat="43.3677959" lon="13.0340445"><ele>916.6666666666667</ele><time>2026-04-25T13:48:07.522Z</time></trkpt><trkpt lat="43.3677097" lon="13.0338359"><ele>914.0</ele><time>2026-04-25T13:48:08.524Z</time></trkpt><trkpt lat="43.3676095" lon="13.033624"><ele>914.0</ele><time>2026-04-25T13:48:09.521Z</time></trkpt><trkpt lat="43.3675236" lon="13.0334124"><ele>914.0</ele><time>2026-04-25T13:48:10.523Z</time></trkpt><trkpt lat="43.3674228" lon="13.0332235"><ele>914.0</ele><time>2026-04-25T13:48:11.522Z</time></trkpt><trkpt lat="43.3673372" lon="13.0330476"><ele>914.5</ele><time>2026-04-25T13:48:12.525Z</time></trkpt><trkpt lat="43.3672456" lon="13.0328987"><ele>915.0</ele><time>2026-04-25T13:48:13.523Z</time></trkpt><trkpt lat="43.3671768" lon="13.0327356"><ele>915.5</ele><time>2026-04-25T13:48:14.522Z</time></trkpt><trkpt lat="43.3671034" lon="13.0325863"><ele>916.0</ele><time>2026-04-25T13:48:15.526Z</time></trkpt><trkpt lat="43.367046" lon="13.0324349"><ele>917.5</ele><time>2026-04-25T13:48:16.524Z</time></trkpt><trkpt lat="43.366997" lon="13.0322752"><ele>919.0</ele><time>2026-04-25T13:48:17.523Z</time></trkpt><trkpt lat="43.3669539" lon="13.0321183"><ele>920.5</ele><time>2026-04-25T13:48:18.529Z</time></trkpt><trkpt lat="43.3669151" lon="13.0319641"><ele>922.0</ele><time>2026-04-25T13:48:19.522Z</time></trkpt><trkpt lat="43.3668618" lon="13.0317923"><ele>923.0</ele><time>2026-04-25T13:48:20.523Z</time></trkpt><trkpt lat="43.3668041" lon="13.0316053"><ele>924.0</ele><time>2026-04-25T13:48:21.521Z</time></trkpt><trkpt lat="43.3667426" lon="13.0313832"><ele>925.0</ele><time>2026-04-25T13:48:22.525Z</time></trkpt><trkpt lat="43.3666975" lon="13.0311337"><ele>925.0</ele><time>2026-04-25T13:48:23.523Z</time></trkpt><trkpt lat="43.366656" lon="13.0308774"><ele>925.0</ele><time>2026-04-25T13:48:24.528Z</time></trkpt><trkpt lat="43.3666001" lon="13.0306116"><ele>925.0</ele><time>2026-04-25T13:48:25.515Z</time></trkpt><trkpt lat="43.3665494" lon="13.0303555"><ele>925.3333333333333</ele><time>2026-04-25T13:48:26.521Z</time></trkpt><trkpt lat="43.3664891" lon="13.0300867"><ele>925.6666666666667</ele><time>2026-04-25T13:48:27.519Z</time></trkpt><trkpt lat="43.3664382" lon="13.0298396"><ele>926.0</ele><time>2026-04-25T13:48:28.527Z</time></trkpt><trkpt lat="43.3663761" lon="13.0296105"><ele>928.6666666666667</ele><time>2026-04-25T13:48:29.52Z</time></trkpt><trkpt lat="43.3662939" lon="13.0294005"><ele>931.3333333333333</ele><time>2026-04-25T13:48:30.516Z</time></trkpt><trkpt lat="43.3662472" lon="13.0291824"><ele>934.0</ele><time>2026-04-25T13:48:31.516Z</time></trkpt><trkpt lat="43.3661925" lon="13.0289761"><ele>934.3333333333333</ele><time>2026-04-25T13:48:32.518Z</time></trkpt><trkpt lat="43.3661486" lon="13.0287631"><ele>934.6666666666667</ele><time>2026-04-25T13:48:33.51Z</time></trkpt><trkpt lat="43.3661068" lon="13.0285444"><ele>935.0</ele><time>2026-04-25T13:48:34.512Z</time></trkpt><trkpt lat="43.3660421" lon="13.0283438"><ele>935.5</ele><time>2026-04-25T13:48:35.511Z</time></trkpt><trkpt lat="43.3660294" lon="13.0281352"><ele>936.0</ele><time>2026-04-25T13:48:36.513Z</time></trkpt><trkpt lat="43.3659665" lon="13.0279561"><ele>936.5</ele><time>2026-04-25T13:48:37.516Z</time></trkpt><trkpt lat="43.365923" lon="13.0277612"><ele>937.0</ele><time>2026-04-25T13:48:38.518Z</time></trkpt><trkpt lat="43.3658608" lon="13.0275768"><ele>936.25</ele><time>2026-04-25T13:48:39.511Z</time></trkpt><trkpt lat="43.3658075" lon="13.0273871"><ele>935.5</ele><time>2026-04-25T13:48:40.517Z</time></trkpt><trkpt lat="43.3657623" lon="13.0271943"><ele>934.75</ele><time>2026-04-25T13:48:41.518Z</time></trkpt><trkpt lat="43.3657043" lon="13.0270356"><ele>934.0</ele><time>2026-04-25T13:48:42.522Z</time></trkpt><trkpt lat="43.3656417" lon="13.0268819"><ele>934.0</ele><time>2026-04-25T13:48:43.512Z</time></trkpt><trkpt lat="43.3656048" lon="13.0266916"><ele>934.0</ele><time>2026-04-25T13:48:44.519Z</time></trkpt><trkpt lat="43.3655948" lon="13.0264907"><ele>934.0</ele><time>2026-04-25T13:48:45.504Z</time></trkpt><trkpt lat="43.3655469" lon="13.026293"><ele>934.0</ele><time>2026-04-25T13:48:46.506Z</time></trkpt><trkpt lat="43.3654988" lon="13.0261299"><ele>934.2</ele><time>2026-04-25T13:48:47.514Z</time></trkpt><trkpt lat="43.3654795" lon="13.026025"><ele>934.4000000000001</ele><time>2026-04-25T13:48:48.524Z</time></trkpt><trkpt lat="43.3654518" lon="13.0259339"><ele>934.6</ele><time>2026-04-25T13:48:49.527Z</time></trkpt><trkpt lat="43.3654467" lon="13.0258032"><ele>934.8</ele><time>2026-04-25T13:48:51.517Z</time></trkpt><trkpt lat="43.3654732" lon="13.0256204"><ele>935.0</ele><time>2026-04-25T13:48:53.518Z</time></trkpt><trkpt lat="43.3654951" lon="13.0255089"><ele>935.0</ele><time>2026-04-25T13:48:54.513Z</time></trkpt><trkpt lat="43.3655127" lon="13.0253914"><ele>935.0</ele><time>2026-04-25T13:48:55.517Z</time></trkpt><trkpt lat="43.3655445" lon="13.0252588"><ele>935.0</ele><time>2026-04-25T13:48:56.523Z</time></trkpt><trkpt lat="43.3655925" lon="13.025104"><ele>935.0</ele><time>2026-04-25T13:48:57.527Z</time></trkpt><trkpt lat="43.365646" lon="13.0249508"><ele>935.0</ele><time>2026-04-25T13:48:58.526Z</time></trkpt><trkpt lat="43.3657001" lon="13.0248117"><ele>935.4</ele><time>2026-04-25T13:48:59.525Z</time></trkpt><trkpt lat="43.3657591" lon="13.024674"><ele>935.8</ele><time>2026-04-25T13:49:00.514Z</time></trkpt><trkpt lat="43.3658189" lon="13.0245551"><ele>936.2</ele><time>2026-04-25T13:49:01.518Z</time></trkpt><trkpt lat="43.3658822" lon="13.0244524"><ele>936.6</ele><time>2026-04-25T13:49:02.515Z</time></trkpt><trkpt lat="43.3659597" lon="13.0243127"><ele>937.0</ele><time>2026-04-25T13:49:03.511Z</time></trkpt><trkpt lat="43.3660315" lon="13.0242019"><ele>937.6666666666666</ele><time>2026-04-25T13:49:04.514Z</time></trkpt><trkpt lat="43.3660944" lon="13.0241426"><ele>938.3333333333333</ele><time>2026-04-25T13:49:05.507Z</time></trkpt><trkpt lat="43.3661438" lon="13.0240464"><ele>939.0</ele><time>2026-04-25T13:49:06.509Z</time></trkpt><trkpt lat="43.3661969" lon="13.0239363"><ele>939.6666666666667</ele><time>2026-04-25T13:49:07.513Z</time></trkpt><trkpt lat="43.366236" lon="13.0238385"><ele>940.3333333333334</ele><time>2026-04-25T13:49:08.511Z</time></trkpt><trkpt lat="43.3662766" lon="13.0237374"><ele>941.0</ele><time>2026-04-25T13:49:09.52Z</time></trkpt><trkpt lat="43.3663155" lon="13.0236353"><ele>941.0000000000001</ele><time>2026-04-25T13:49:10.52Z</time></trkpt><trkpt lat="43.3663536" lon="13.0235309"><ele>941.0</ele><time>2026-04-25T13:49:11.517Z</time></trkpt><trkpt lat="43.366388" lon="13.0234209"><ele>941.0</ele><time>2026-04-25T13:49:12.503Z</time></trkpt><trkpt lat="43.3664237" lon="13.0233089"><ele>941.0</ele><time>2026-04-25T13:49:13.523Z</time></trkpt><trkpt lat="43.3664674" lon="13.0231944"><ele>941.0000000000001</ele><time>2026-04-25T13:49:14.519Z</time></trkpt><trkpt lat="43.3664913" lon="13.0230687"><ele>941.0</ele><time>2026-04-25T13:49:15.529Z</time></trkpt><trkpt lat="43.3665271" lon="13.0229422"><ele>942.5999999999999</ele><time>2026-04-25T13:49:16.514Z</time></trkpt><trkpt lat="43.3665579" lon="13.0228007"><ele>944.1999999999999</ele><time>2026-04-25T13:49:17.518Z</time></trkpt><trkpt lat="43.3665697" lon="13.022664"><ele>945.8000000000001</ele><time>2026-04-25T13:49:18.524Z</time></trkpt><trkpt lat="43.3665849" lon="13.0225264"><ele>947.4000000000001</ele><time>2026-04-25T13:49:19.524Z</time></trkpt><trkpt lat="43.3666086" lon="13.0223918"><ele>949.0</ele><time>2026-04-25T13:49:20.532Z</time></trkpt><trkpt lat="43.3666414" lon="13.0222713"><ele>949.4000000000001</ele><time>2026-04-25T13:49:21.523Z</time></trkpt><trkpt lat="43.3666748" lon="13.0221466"><ele>949.8000000000001</ele><time>2026-04-25T13:49:22.521Z</time></trkpt><trkpt lat="43.3667083" lon="13.0220078"><ele>950.1999999999999</ele><time>2026-04-25T13:49:23.521Z</time></trkpt><trkpt lat="43.366735" lon="13.0218706"><ele>950.5999999999999</ele><time>2026-04-25T13:49:24.521Z</time></trkpt><trkpt lat="43.3667595" lon="13.0217306"><ele>951.0</ele><time>2026-04-25T13:49:25.528Z</time></trkpt><trkpt lat="43.3667734" lon="13.0215711"><ele>951.0</ele><time>2026-04-25T13:49:26.521Z</time></trkpt><trkpt lat="43.3667861" lon="13.0214107"><ele>951.0</ele><time>2026-04-25T13:49:27.524Z</time></trkpt><trkpt lat="43.3668051" lon="13.0212459"><ele>951.0</ele><time>2026-04-25T13:49:28.522Z</time></trkpt><trkpt lat="43.3668188" lon="13.0210863"><ele>951.0</ele><time>2026-04-25T13:49:29.529Z</time></trkpt><trkpt lat="43.3668334" lon="13.0209308"><ele>949.75</ele><time>2026-04-25T13:49:30.521Z</time></trkpt><trkpt lat="43.3668511" lon="13.0207696"><ele>948.5</ele><time>2026-04-25T13:49:31.525Z</time></trkpt><trkpt lat="43.366877" lon="13.0206053"><ele>947.25</ele><time>2026-04-25T13:49:32.521Z</time></trkpt><trkpt lat="43.3669029" lon="13.0204453"><ele>946.0</ele><time>2026-04-25T13:49:33.525Z</time></trkpt><trkpt lat="43.3669321" lon="13.0202865"><ele>946.0</ele><time>2026-04-25T13:49:34.52Z</time></trkpt><trkpt lat="43.3669667" lon="13.0201312"><ele>946.0</ele><time>2026-04-25T13:49:35.525Z</time></trkpt><trkpt lat="43.3670103" lon="13.0199891"><ele>946.0</ele><time>2026-04-25T13:49:36.523Z</time></trkpt><trkpt lat="43.3670487" lon="13.0198392"><ele>946.0</ele><time>2026-04-25T13:49:37.524Z</time></trkpt><trkpt lat="43.3670834" lon="13.0196954"><ele>946.1999999999999</ele><time>2026-04-25T13:49:38.523Z</time></trkpt><trkpt lat="43.3671258" lon="13.0195629"><ele>946.3999999999999</ele><time>2026-04-25T13:49:39.528Z</time></trkpt><trkpt lat="43.3671687" lon="13.0194293"><ele>946.6</ele><time>2026-04-25T13:49:40.519Z</time></trkpt><trkpt lat="43.3672016" lon="13.0192941"><ele>946.8</ele><time>2026-04-25T13:49:41.519Z</time></trkpt><trkpt lat="43.3672282" lon="13.01918"><ele>947.0</ele><time>2026-04-25T13:49:42.515Z</time></trkpt><trkpt lat="43.3672527" lon="13.0190777"><ele>947.8571428571428</ele><time>2026-04-25T13:49:43.52Z</time></trkpt><trkpt lat="43.3672819" lon="13.018978"><ele>948.7142857142856</ele><time>2026-04-25T13:49:44.519Z</time></trkpt><trkpt lat="43.3672994" lon="13.0188843"><ele>949.5714285714286</ele><time>2026-04-25T13:49:45.517Z</time></trkpt><trkpt lat="43.3673283" lon="13.0187873"><ele>950.4285714285713</ele><time>2026-04-25T13:49:46.515Z</time></trkpt><trkpt lat="43.3673518" lon="13.0186944"><ele>951.2857142857142</ele><time>2026-04-25T13:49:47.516Z</time></trkpt><trkpt lat="43.3673784" lon="13.0186004"><ele>952.1428571428571</ele><time>2026-04-25T13:49:48.516Z</time></trkpt><trkpt lat="43.3674105" lon="13.0185102"><ele>953.0</ele><time>2026-04-25T13:49:49.519Z</time></trkpt><trkpt lat="43.367452" lon="13.0184209"><ele>953.0000000000001</ele><time>2026-04-25T13:49:50.517Z</time></trkpt><trkpt lat="43.3674975" lon="13.0183494"><ele>953.0</ele><time>2026-04-25T13:49:51.516Z</time></trkpt><trkpt lat="43.3675708" lon="13.0183077"><ele>953.0</ele><time>2026-04-25T13:49:52.521Z</time></trkpt><trkpt lat="43.3676538" lon="13.0182936"><ele>953.0</ele><time>2026-04-25T13:49:53.511Z</time></trkpt><trkpt lat="43.3677323" lon="13.0183001"><ele>953.0000000000001</ele><time>2026-04-25T13:49:54.509Z</time></trkpt><trkpt lat="43.3678276" lon="13.0183231"><ele>953.0</ele><time>2026-04-25T13:49:55.511Z</time></trkpt><trkpt lat="43.3679282" lon="13.0183559"><ele>953.0000000000001</ele><time>2026-04-25T13:49:56.513Z</time></trkpt><trkpt lat="43.3680228" lon="13.0183771"><ele>953.0</ele><time>2026-04-25T13:49:57.513Z</time></trkpt><trkpt lat="43.3681101" lon="13.0183938"><ele>953.0</ele><time>2026-04-25T13:49:58.514Z</time></trkpt><trkpt lat="43.3681884" lon="13.0184099"><ele>953.0</ele><time>2026-04-25T13:49:59.511Z</time></trkpt><trkpt lat="43.368271" lon="13.018435"><ele>953.0000000000001</ele><time>2026-04-25T13:50:00.507Z</time></trkpt><trkpt lat="43.3683507" lon="13.0184607"><ele>953.0</ele><time>2026-04-25T13:50:01.499Z</time></trkpt><trkpt lat="43.3684293" lon="13.0184918"><ele>952.8</ele><time>2026-04-25T13:50:02.514Z</time></trkpt><trkpt lat="43.3685282" lon="13.0185195"><ele>952.5999999999999</ele><time>2026-04-25T13:50:03.506Z</time></trkpt><trkpt lat="43.3686234" lon="13.0185408"><ele>952.4000000000001</ele><time>2026-04-25T13:50:04.506Z</time></trkpt><trkpt lat="43.3687142" lon="13.0185638"><ele>952.2</ele><time>2026-04-25T13:50:05.501Z</time></trkpt><trkpt lat="43.3687963" lon="13.0185884"><ele>952.0</ele><time>2026-04-25T13:50:06.504Z</time></trkpt><trkpt lat="43.3689148" lon="13.0186297"><ele>950.8333333333333</ele><time>2026-04-25T13:50:08.511Z</time></trkpt><trkpt lat="43.3689755" lon="13.0186565"><ele>949.6666666666666</ele><time>2026-04-25T13:50:09.511Z</time></trkpt><trkpt lat="43.3690401" lon="13.0187078"><ele>948.5</ele><time>2026-04-25T13:50:12.513Z</time></trkpt><trkpt lat="43.3691147" lon="13.0187241"><ele>947.3333333333333</ele><time>2026-04-25T13:50:14.515Z</time></trkpt><trkpt lat="43.3691836" lon="13.0187597"><ele>946.1666666666666</ele><time>2026-04-25T13:50:16.514Z</time></trkpt><trkpt lat="43.3692742" lon="13.0187863"><ele>945.0</ele><time>2026-04-25T13:50:18.51Z</time></trkpt><trkpt lat="43.3693678" lon="13.0188252"><ele>945.0</ele><time>2026-04-25T13:50:20.506Z</time></trkpt><trkpt lat="43.3694249" lon="13.0188693"><ele>945.0</ele><time>2026-04-25T13:50:21.513Z</time></trkpt><trkpt lat="43.3694962" lon="13.01893"><ele>945.0</ele><time>2026-04-25T13:50:22.516Z</time></trkpt><trkpt lat="43.3695747" lon="13.0189943"><ele>945.0</ele><time>2026-04-25T13:50:23.513Z</time></trkpt><trkpt lat="43.3696747" lon="13.019047"><ele>945.0</ele><time>2026-04-25T13:50:24.51Z</time></trkpt><trkpt lat="43.3697734" lon="13.0191135"><ele>945.2</ele><time>2026-04-25T13:50:25.511Z</time></trkpt><trkpt lat="43.369885" lon="13.0191742"><ele>945.4</ele><time>2026-04-25T13:50:26.518Z</time></trkpt><trkpt lat="43.3699795" lon="13.0192294"><ele>945.5999999999999</ele><time>2026-04-25T13:50:27.511Z</time></trkpt><trkpt lat="43.3700731" lon="13.0192951"><ele>945.8</ele><time>2026-04-25T13:50:28.521Z</time></trkpt><trkpt lat="43.3701584" lon="13.0193554"><ele>946.0</ele><time>2026-04-25T13:50:29.519Z</time></trkpt><trkpt lat="43.3702437" lon="13.0194091"><ele>945.9999999999999</ele><time>2026-04-25T13:50:30.518Z</time></trkpt><trkpt lat="43.3703235" lon="13.0194641"><ele>946.0</ele><time>2026-04-25T13:50:31.518Z</time></trkpt><trkpt lat="43.3704004" lon="13.0195096"><ele>946.0</ele><time>2026-04-25T13:50:32.516Z</time></trkpt><trkpt lat="43.3704727" lon="13.0195583"><ele>946.0</ele><time>2026-04-25T13:50:33.521Z</time></trkpt><trkpt lat="43.3705402" lon="13.0196025"><ele>945.9999999999999</ele><time>2026-04-25T13:50:34.516Z</time></trkpt><trkpt lat="43.3706156" lon="13.0196452"><ele>946.0</ele><time>2026-04-25T13:50:35.519Z</time></trkpt><trkpt lat="43.3706922" lon="13.0196909"><ele>943.5999999999999</ele><time>2026-04-25T13:50:36.517Z</time></trkpt><trkpt lat="43.3707692" lon="13.0197347"><ele>941.1999999999999</ele><time>2026-04-25T13:50:37.519Z</time></trkpt><trkpt lat="43.3708569" lon="13.0197787"><ele>938.8000000000001</ele><time>2026-04-25T13:50:38.517Z</time></trkpt><trkpt lat="43.3709633" lon="13.019826"><ele>936.4000000000001</ele><time>2026-04-25T13:50:39.521Z</time></trkpt><trkpt lat="43.3710759" lon="13.0198672"><ele>934.0</ele><time>2026-04-25T13:50:40.51Z</time></trkpt><trkpt lat="43.3711982" lon="13.0199117"><ele>934.0</ele><time>2026-04-25T13:50:41.518Z</time></trkpt><trkpt lat="43.3713172" lon="13.0199473"><ele>934.0</ele><time>2026-04-25T13:50:42.514Z</time></trkpt><trkpt lat="43.3714337" lon="13.0199885"><ele>934.0</ele><time>2026-04-25T13:50:43.519Z</time></trkpt><trkpt lat="43.3715451" lon="13.0200354"><ele>934.0</ele><time>2026-04-25T13:50:44.504Z</time></trkpt><trkpt lat="43.3716713" lon="13.020095"><ele>935.0</ele><time>2026-04-25T13:50:45.521Z</time></trkpt><trkpt lat="43.3717983" lon="13.0201243"><ele>936.0</ele><time>2026-04-25T13:50:46.516Z</time></trkpt><trkpt lat="43.3719161" lon="13.0201594"><ele>937.0</ele><time>2026-04-25T13:50:47.518Z</time></trkpt><trkpt lat="43.3720259" lon="13.0201948"><ele>938.0</ele><time>2026-04-25T13:50:48.517Z</time></trkpt><trkpt lat="43.3721391" lon="13.0202341"><ele>936.6666666666667</ele><time>2026-04-25T13:50:49.514Z</time></trkpt><trkpt lat="43.3722399" lon="13.0202745"><ele>935.3333333333334</ele><time>2026-04-25T13:50:50.519Z</time></trkpt><trkpt lat="43.3723197" lon="13.0203039"><ele>934.0</ele><time>2026-04-25T13:50:51.514Z</time></trkpt><trkpt lat="43.372387" lon="13.0203444"><ele>932.6666666666667</ele><time>2026-04-25T13:50:52.515Z</time></trkpt><trkpt lat="43.372469" lon="13.0204021"><ele>931.3333333333334</ele><time>2026-04-25T13:50:54.512Z</time></trkpt><trkpt lat="43.3725523" lon="13.0204591"><ele>930.0</ele><time>2026-04-25T13:50:56.517Z</time></trkpt><trkpt lat="43.3726309" lon="13.0205206"><ele>930.0</ele><time>2026-04-25T13:50:58.511Z</time></trkpt><trkpt lat="43.3727195" lon="13.020567"><ele>930.0</ele><time>2026-04-25T13:51:00.511Z</time></trkpt><trkpt lat="43.3728017" lon="13.0206118"><ele>930.0</ele><time>2026-04-25T13:51:02.516Z</time></trkpt><trkpt lat="43.3728886" lon="13.0206606"><ele>930.0</ele><time>2026-04-25T13:51:04.515Z</time></trkpt><trkpt lat="43.3729919" lon="13.0207164"><ele>930.0</ele><time>2026-04-25T13:51:06.516Z</time></trkpt><trkpt lat="43.3730593" lon="13.0207441"><ele>930.6</ele><time>2026-04-25T13:51:07.52Z</time></trkpt><trkpt lat="43.3731802" lon="13.0208"><ele>931.2</ele><time>2026-04-25T13:51:09.515Z</time></trkpt><trkpt lat="43.3732572" lon="13.0208422"><ele>931.8</ele><time>2026-04-25T13:51:10.516Z</time></trkpt><trkpt lat="43.3733398" lon="13.0208829"><ele>932.4</ele><time>2026-04-25T13:51:11.521Z</time></trkpt><trkpt lat="43.3734274" lon="13.0209035"><ele>933.0</ele><time>2026-04-25T13:51:12.516Z</time></trkpt><trkpt lat="43.3735226" lon="13.0209065"><ele>933.0</ele><time>2026-04-25T13:51:13.52Z</time></trkpt><trkpt lat="43.3736214" lon="13.0208902"><ele>933.0</ele><time>2026-04-25T13:51:14.514Z</time></trkpt><trkpt lat="43.3737134" lon="13.0208609"><ele>933.0</ele><time>2026-04-25T13:51:15.516Z</time></trkpt><trkpt lat="43.3738006" lon="13.0208105"><ele>933.0</ele><time>2026-04-25T13:51:16.51Z</time></trkpt><trkpt lat="43.3738779" lon="13.0207615"><ele>933.0</ele><time>2026-04-25T13:51:17.522Z</time></trkpt><trkpt lat="43.3739585" lon="13.0206918"><ele>933.2</ele><time>2026-04-25T13:51:18.511Z</time></trkpt><trkpt lat="43.3740373" lon="13.0205979"><ele>933.4</ele><time>2026-04-25T13:51:19.514Z</time></trkpt><trkpt lat="43.3740976" lon="13.0205037"><ele>933.6000000000001</ele><time>2026-04-25T13:51:20.511Z</time></trkpt><trkpt lat="43.3741419" lon="13.0203875"><ele>933.8000000000001</ele><time>2026-04-25T13:51:21.51Z</time></trkpt><trkpt lat="43.3741861" lon="13.0202903"><ele>934.0</ele><time>2026-04-25T13:51:22.502Z</time></trkpt><trkpt lat="43.3742167" lon="13.0201714"><ele>934.0</ele><time>2026-04-25T13:51:23.504Z</time></trkpt><trkpt lat="43.3742288" lon="13.0200412"><ele>934.0000000000001</ele><time>2026-04-25T13:51:24.513Z</time></trkpt><trkpt lat="43.3742589" lon="13.0199047"><ele>934.0000000000001</ele><time>2026-04-25T13:51:25.511Z</time></trkpt><trkpt lat="43.3742853" lon="13.019755"><ele>934.0</ele><time>2026-04-25T13:51:26.505Z</time></trkpt><trkpt lat="43.374308" lon="13.0196099"><ele>934.0</ele><time>2026-04-25T13:51:27.506Z</time></trkpt><trkpt lat="43.3743363" lon="13.0194701"><ele>932.6</ele><time>2026-04-25T13:51:28.501Z</time></trkpt><trkpt lat="43.3743681" lon="13.0193314"><ele>931.2</ele><time>2026-04-25T13:51:29.503Z</time></trkpt><trkpt lat="43.3744019" lon="13.0191991"><ele>929.8000000000001</ele><time>2026-04-25T13:51:30.498Z</time></trkpt><trkpt lat="43.3744318" lon="13.0190802"><ele>928.4000000000001</ele><time>2026-04-25T13:51:31.499Z</time></trkpt><trkpt lat="43.3744533" lon="13.0189493"><ele>927.0</ele><time>2026-04-25T13:51:32.495Z</time></trkpt><trkpt lat="43.3744582" lon="13.0188101"><ele>926.6</ele><time>2026-04-25T13:51:33.499Z</time></trkpt><trkpt lat="43.3744671" lon="13.0186628"><ele>926.2</ele><time>2026-04-25T13:51:34.499Z</time></trkpt><trkpt lat="43.3744617" lon="13.0185154"><ele>925.8</ele><time>2026-04-25T13:51:35.508Z</time></trkpt><trkpt lat="43.3744586" lon="13.0183514"><ele>925.4</ele><time>2026-04-25T13:51:36.506Z</time></trkpt><trkpt lat="43.374472" lon="13.0182001"><ele>925.0</ele><time>2026-04-25T13:51:37.505Z</time></trkpt><trkpt lat="43.3744943" lon="13.0180642"><ele>924.6</ele><time>2026-04-25T13:51:38.5Z</time></trkpt><trkpt lat="43.3744891" lon="13.0179163"><ele>924.2</ele><time>2026-04-25T13:51:39.494Z</time></trkpt><trkpt lat="43.3744814" lon="13.0177695"><ele>923.8</ele><time>2026-04-25T13:51:40.508Z</time></trkpt><trkpt lat="43.3744838" lon="13.017638"><ele>923.4</ele><time>2026-04-25T13:51:41.507Z</time></trkpt><trkpt lat="43.3745234" lon="13.017554"><ele>923.0</ele><time>2026-04-25T13:51:42.512Z</time></trkpt><trkpt lat="43.3745532" lon="13.0174613"><ele>922.5000000000001</ele><time>2026-04-25T13:51:43.503Z</time></trkpt><trkpt lat="43.3746093" lon="13.0174053"><ele>922.0</ele><time>2026-04-25T13:51:44.508Z</time></trkpt><trkpt lat="43.3746793" lon="13.017393"><ele>921.5</ele><time>2026-04-25T13:51:45.503Z</time></trkpt><trkpt lat="43.3747457" lon="13.017369"><ele>921.0</ele><time>2026-04-25T13:51:46.507Z</time></trkpt><trkpt lat="43.3748129" lon="13.0173521"><ele>920.5000000000001</ele><time>2026-04-25T13:51:47.509Z</time></trkpt><trkpt lat="43.3749115" lon="13.017377"><ele>920.0</ele><time>2026-04-25T13:51:49.508Z</time></trkpt><trkpt lat="43.3749844" lon="13.0173459"><ele>924.0000000000001</ele><time>2026-04-25T13:51:51.508Z</time></trkpt><trkpt lat="43.3750547" lon="13.017256"><ele>928.0</ele><time>2026-04-25T13:51:54.507Z</time></trkpt><trkpt lat="43.375087" lon="13.0171713"><ele>932.0</ele><time>2026-04-25T13:51:55.516Z</time></trkpt><trkpt lat="43.3751292" lon="13.0170706"><ele>936.0</ele><time>2026-04-25T13:51:56.508Z</time></trkpt><trkpt lat="43.3751613" lon="13.016957"><ele>940.0000000000001</ele><time>2026-04-25T13:51:57.508Z</time></trkpt><trkpt lat="43.375186" lon="13.0168561"><ele>944.0</ele><time>2026-04-25T13:51:58.507Z</time></trkpt><trkpt lat="43.3752211" lon="13.0167584"><ele>944.3333333333334</ele><time>2026-04-25T13:51:59.506Z</time></trkpt><trkpt lat="43.3752468" lon="13.0166296"><ele>944.6666666666667</ele><time>2026-04-25T13:52:00.508Z</time></trkpt><trkpt lat="43.3752801" lon="13.0165169"><ele>945.0</ele><time>2026-04-25T13:52:01.509Z</time></trkpt><trkpt lat="43.3753335" lon="13.0164431"><ele>945.3333333333333</ele><time>2026-04-25T13:52:02.504Z</time></trkpt><trkpt lat="43.3753786" lon="13.0163639"><ele>945.6666666666666</ele><time>2026-04-25T13:52:03.511Z</time></trkpt><trkpt lat="43.3754033" lon="13.0162768"><ele>946.0</ele><time>2026-04-25T13:52:04.499Z</time></trkpt><trkpt lat="43.3754267" lon="13.0161409"><ele>946.0</ele><time>2026-04-25T13:52:05.506Z</time></trkpt><trkpt lat="43.3754361" lon="13.0160083"><ele>945.9999999999999</ele><time>2026-04-25T13:52:06.493Z</time></trkpt><trkpt lat="43.3754325" lon="13.0158938"><ele>945.9999999999999</ele><time>2026-04-25T13:52:08.502Z</time></trkpt><trkpt lat="43.3754835" lon="13.0158033"><ele>946.0</ele><time>2026-04-25T13:52:10.497Z</time></trkpt><trkpt lat="43.375585" lon="13.0157184"><ele>946.0</ele><time>2026-04-25T13:52:12.508Z</time></trkpt><trkpt lat="43.3756315" lon="13.0156475"><ele>948.4</ele><time>2026-04-25T13:52:13.509Z</time></trkpt><trkpt lat="43.3757043" lon="13.0155268"><ele>950.8</ele><time>2026-04-25T13:52:15.512Z</time></trkpt><trkpt lat="43.3757411" lon="13.0154498"><ele>953.1999999999999</ele><time>2026-04-25T13:52:16.509Z</time></trkpt><trkpt lat="43.3757772" lon="13.0153771"><ele>955.5999999999999</ele><time>2026-04-25T13:52:17.51Z</time></trkpt><trkpt lat="43.3758273" lon="13.0152169"><ele>958.0</ele><time>2026-04-25T13:52:19.508Z</time></trkpt><trkpt lat="43.3758761" lon="13.015119"><ele>958.0</ele><time>2026-04-25T13:52:20.502Z</time></trkpt><trkpt lat="43.3759065" lon="13.0150268"><ele>958.0</ele><time>2026-04-25T13:52:21.496Z</time></trkpt><trkpt lat="43.37594" lon="13.0149487"><ele>958.0</ele><time>2026-04-25T13:52:22.489Z</time></trkpt><trkpt lat="43.3760031" lon="13.0148529"><ele>958.0</ele><time>2026-04-25T13:52:24.497Z</time></trkpt><trkpt lat="43.3759767" lon="13.0146793"><ele>958.0</ele><time>2026-04-25T13:52:26.499Z</time></trkpt><trkpt lat="43.3760507" lon="13.0146129"><ele>958.2</ele><time>2026-04-25T13:52:27.506Z</time></trkpt><trkpt lat="43.3761133" lon="13.0145043"><ele>958.4</ele><time>2026-04-25T13:52:28.5Z</time></trkpt><trkpt lat="43.3761622" lon="13.014392"><ele>958.6000000000001</ele><time>2026-04-25T13:52:29.506Z</time></trkpt><trkpt lat="43.3761802" lon="13.0142314"><ele>958.8000000000001</ele><time>2026-04-25T13:52:30.498Z</time></trkpt><trkpt lat="43.3761955" lon="13.014057"><ele>959.0</ele><time>2026-04-25T13:52:31.505Z</time></trkpt><trkpt lat="43.3762311" lon="13.0138947"><ele>959.6666666666667</ele><time>2026-04-25T13:52:32.496Z</time></trkpt><trkpt lat="43.376291" lon="13.0136927"><ele>960.3333333333333</ele><time>2026-04-25T13:52:33.497Z</time></trkpt><trkpt lat="43.3762965" lon="13.0134862"><ele>961.0</ele><time>2026-04-25T13:52:34.496Z</time></trkpt><trkpt lat="43.3762954" lon="13.0132632"><ele>961.5</ele><time>2026-04-25T13:52:35.514Z</time></trkpt><trkpt lat="43.3762906" lon="13.0130588"><ele>962.0</ele><time>2026-04-25T13:52:36.509Z</time></trkpt><trkpt lat="43.3762945" lon="13.0128952"><ele>962.5</ele><time>2026-04-25T13:52:37.512Z</time></trkpt><trkpt lat="43.3763038" lon="13.0127577"><ele>963.0</ele><time>2026-04-25T13:52:38.513Z</time></trkpt><trkpt lat="43.3763187" lon="13.012619"><ele>963.8</ele><time>2026-04-25T13:52:39.513Z</time></trkpt><trkpt lat="43.3763447" lon="13.0124759"><ele>964.5999999999999</ele><time>2026-04-25T13:52:40.509Z</time></trkpt><trkpt lat="43.3763578" lon="13.0123175"><ele>965.4000000000001</ele><time>2026-04-25T13:52:41.51Z</time></trkpt><trkpt lat="43.376373" lon="13.01217"><ele>966.2</ele><time>2026-04-25T13:52:42.5Z</time></trkpt><trkpt lat="43.376385" lon="13.0120305"><ele>967.0</ele><time>2026-04-25T13:52:43.516Z</time></trkpt><trkpt lat="43.3764237" lon="13.0118894"><ele>969.25</ele><time>2026-04-25T13:52:44.511Z</time></trkpt><trkpt lat="43.3764519" lon="13.0117275"><ele>971.5</ele><time>2026-04-25T13:52:45.511Z</time></trkpt><trkpt lat="43.3764414" lon="13.0115825"><ele>973.75</ele><time>2026-04-25T13:52:46.506Z</time></trkpt><trkpt lat="43.3764395" lon="13.0114212"><ele>976.0</ele><time>2026-04-25T13:52:47.509Z</time></trkpt><trkpt lat="43.3764354" lon="13.011272"><ele>975.8</ele><time>2026-04-25T13:52:48.504Z</time></trkpt><trkpt lat="43.376411" lon="13.0111502"><ele>975.5999999999999</ele><time>2026-04-25T13:52:49.51Z</time></trkpt><trkpt lat="43.3763822" lon="13.0109895"><ele>975.4</ele><time>2026-04-25T13:52:50.51Z</time></trkpt><trkpt lat="43.3763419" lon="13.0108496"><ele>975.2</ele><time>2026-04-25T13:52:51.509Z</time></trkpt><trkpt lat="43.3763028" lon="13.0107056"><ele>975.0</ele><time>2026-04-25T13:52:52.496Z</time></trkpt><trkpt lat="43.3762414" lon="13.0105884"><ele>975.0</ele><time>2026-04-25T13:52:53.501Z</time></trkpt><trkpt lat="43.3761737" lon="13.0104713"><ele>975.0</ele><time>2026-04-25T13:52:54.502Z</time></trkpt><trkpt lat="43.3761214" lon="13.0103285"><ele>975.0</ele><time>2026-04-25T13:52:55.504Z</time></trkpt><trkpt lat="43.3760786" lon="13.0101772"><ele>975.0</ele><time>2026-04-25T13:52:56.517Z</time></trkpt><trkpt lat="43.3760283" lon="13.010019"><ele>977.5</ele><time>2026-04-25T13:52:57.506Z</time></trkpt><trkpt lat="43.3759848" lon="13.0098548"><ele>980.0</ele><time>2026-04-25T13:52:58.508Z</time></trkpt><trkpt lat="43.3759387" lon="13.0097084"><ele>982.5</ele><time>2026-04-25T13:52:59.501Z</time></trkpt><trkpt lat="43.3758668" lon="13.009566"><ele>985.0</ele><time>2026-04-25T13:53:00.512Z</time></trkpt><trkpt lat="43.3757916" lon="13.0094388"><ele>985.0</ele><time>2026-04-25T13:53:01.508Z</time></trkpt><trkpt lat="43.3757539" lon="13.0092873"><ele>985.0</ele><time>2026-04-25T13:53:02.517Z</time></trkpt><trkpt lat="43.3757176" lon="13.0091368"><ele>985.0</ele><time>2026-04-25T13:53:03.506Z</time></trkpt><trkpt lat="43.3756765" lon="13.0089812"><ele>985.0</ele><time>2026-04-25T13:53:04.505Z</time></trkpt><trkpt lat="43.3756375" lon="13.0088503"><ele>986.2</ele><time>2026-04-25T13:53:05.509Z</time></trkpt><trkpt lat="43.3755988" lon="13.0087299"><ele>987.4</ele><time>2026-04-25T13:53:06.505Z</time></trkpt><trkpt lat="43.3755591" lon="13.0086298"><ele>988.5999999999999</ele><time>2026-04-25T13:53:07.517Z</time></trkpt><trkpt lat="43.375535" lon="13.0084983"><ele>989.8</ele><time>2026-04-25T13:53:08.513Z</time></trkpt><trkpt lat="43.3755179" lon="13.0083711"><ele>991.0</ele><time>2026-04-25T13:53:09.51Z</time></trkpt><trkpt lat="43.3755068" lon="13.0082398"><ele>988.8333333333333</ele><time>2026-04-25T13:53:10.508Z</time></trkpt><trkpt lat="43.3754865" lon="13.0081186"><ele>986.6666666666666</ele><time>2026-04-25T13:53:11.507Z</time></trkpt><trkpt lat="43.375467" lon="13.0079802"><ele>984.5</ele><time>2026-04-25T13:53:12.508Z</time></trkpt><trkpt lat="43.3754543" lon="13.0078688"><ele>982.3333333333333</ele><time>2026-04-25T13:53:13.511Z</time></trkpt><trkpt lat="43.3754439" lon="13.0077627"><ele>980.1666666666666</ele><time>2026-04-25T13:53:14.507Z</time></trkpt><trkpt lat="43.3754517" lon="13.0076633"><ele>978.0</ele><time>2026-04-25T13:53:15.505Z</time></trkpt><trkpt lat="43.3754683" lon="13.0075213"><ele>977.6666666666666</ele><time>2026-04-25T13:53:17.514Z</time></trkpt><trkpt lat="43.375517" lon="13.0074537"><ele>977.3333333333333</ele><time>2026-04-25T13:53:20.507Z</time></trkpt><trkpt lat="43.3755989" lon="13.0074926"><ele>977.0</ele><time>2026-04-25T13:53:22.503Z</time></trkpt><trkpt lat="43.3756758" lon="13.0075112"><ele>976.6666666666666</ele><time>2026-04-25T13:53:23.516Z</time></trkpt><trkpt lat="43.3757484" lon="13.0075535"><ele>976.3333333333333</ele><time>2026-04-25T13:53:24.507Z</time></trkpt><trkpt lat="43.3758335" lon="13.0076076"><ele>976.0</ele><time>2026-04-25T13:53:25.512Z</time></trkpt><trkpt lat="43.3759326" lon="13.0076497"><ele>977.9999999999999</ele><time>2026-04-25T13:53:26.508Z</time></trkpt><trkpt lat="43.3760016" lon="13.0077037"><ele>980.0</ele><time>2026-04-25T13:53:27.521Z</time></trkpt><trkpt lat="43.376072" lon="13.0077512"><ele>982.0</ele><time>2026-04-25T13:53:28.504Z</time></trkpt><trkpt lat="43.3761682" lon="13.0078031"><ele>984.0</ele><time>2026-04-25T13:53:29.512Z</time></trkpt><trkpt lat="43.3762598" lon="13.0078358"><ele>985.9999999999999</ele><time>2026-04-25T13:53:30.504Z</time></trkpt><trkpt lat="43.3763395" lon="13.0078544"><ele>988.0</ele><time>2026-04-25T13:53:31.505Z</time></trkpt><trkpt lat="43.3764106" lon="13.0078655"><ele>987.9999999999999</ele><time>2026-04-25T13:53:32.503Z</time></trkpt><trkpt lat="43.3764753" lon="13.0078765"><ele>988.0</ele><time>2026-04-25T13:53:33.51Z</time></trkpt><trkpt lat="43.3765958" lon="13.0079499"><ele>988.0</ele><time>2026-04-25T13:53:35.51Z</time></trkpt><trkpt lat="43.3766743" lon="13.0079649"><ele>988.0</ele><time>2026-04-25T13:53:36.496Z</time></trkpt><trkpt lat="43.3767449" lon="13.007985"><ele>987.9999999999999</ele><time>2026-04-25T13:53:37.5Z</time></trkpt><trkpt lat="43.3768232" lon="13.0080215"><ele>988.0</ele><time>2026-04-25T13:53:38.504Z</time></trkpt><trkpt lat="43.3769145" lon="13.0080319"><ele>988.0</ele><time>2026-04-25T13:53:39.499Z</time></trkpt><trkpt lat="43.376984" lon="13.0080508"><ele>988.0</ele><time>2026-04-25T13:53:40.505Z</time></trkpt><trkpt lat="43.3771138" lon="13.0080863"><ele>988.0</ele><time>2026-04-25T13:53:42.503Z</time></trkpt><trkpt lat="43.3771899" lon="13.0081196"><ele>988.0</ele><time>2026-04-25T13:53:43.503Z</time></trkpt><trkpt lat="43.3772733" lon="13.0081612"><ele>988.0</ele><time>2026-04-25T13:53:44.506Z</time></trkpt><trkpt lat="43.3773988" lon="13.0081823"><ele>988.0</ele><time>2026-04-25T13:53:45.506Z</time></trkpt><trkpt lat="43.3774812" lon="13.0082066"><ele>988.0</ele><time>2026-04-25T13:53:46.499Z</time></trkpt><trkpt lat="43.3775837" lon="13.0082322"><ele>988.0</ele><time>2026-04-25T13:53:47.504Z</time></trkpt><trkpt lat="43.3776978" lon="13.0082498"><ele>988.0</ele><time>2026-04-25T13:53:48.505Z</time></trkpt><trkpt lat="43.3777754" lon="13.008277"><ele>988.0</ele><time>2026-04-25T13:53:49.501Z</time></trkpt><trkpt lat="43.3778536" lon="13.008332"><ele>990.4</ele><time>2026-04-25T13:53:50.51Z</time></trkpt><trkpt lat="43.3779564" lon="13.0084024"><ele>992.8</ele><time>2026-04-25T13:53:52.509Z</time></trkpt><trkpt lat="43.3780219" lon="13.0084619"><ele>995.2</ele><time>2026-04-25T13:53:54.508Z</time></trkpt><trkpt lat="43.3780843" lon="13.0085178"><ele>997.6</ele><time>2026-04-25T13:53:56.511Z</time></trkpt><trkpt lat="43.3781768" lon="13.0085429"><ele>1000.0</ele><time>2026-04-25T13:53:58.521Z</time></trkpt><trkpt lat="43.3782632" lon="13.0086083"><ele>1000.6</ele><time>2026-04-25T13:54:00.515Z</time></trkpt><trkpt lat="43.3783228" lon="13.0086405"><ele>1001.2</ele><time>2026-04-25T13:54:01.512Z</time></trkpt><trkpt lat="43.3783862" lon="13.0086664"><ele>1001.8</ele><time>2026-04-25T13:54:02.507Z</time></trkpt><trkpt lat="43.3785025" lon="13.0087043"><ele>1002.4</ele><time>2026-04-25T13:54:04.509Z</time></trkpt><trkpt lat="43.3786196" lon="13.0087302"><ele>1003.0</ele><time>2026-04-25T13:54:06.5Z</time></trkpt><trkpt lat="43.3787439" lon="13.0087425"><ele>1003.0</ele><time>2026-04-25T13:54:08.491Z</time></trkpt><trkpt lat="43.3788382" lon="13.0086505"><ele>1003.0</ele><time>2026-04-25T13:54:10.491Z</time></trkpt><trkpt lat="43.3788968" lon="13.0085332"><ele>1003.0</ele><time>2026-04-25T13:54:12.505Z</time></trkpt><trkpt lat="43.3789454" lon="13.008417"><ele>1003.0</ele><time>2026-04-25T13:54:14.504Z</time></trkpt><trkpt lat="43.3790136" lon="13.0082866"><ele>1003.0</ele><time>2026-04-25T13:54:16.505Z</time></trkpt><trkpt lat="43.3790707" lon="13.0081903"><ele>1002.5999999999999</ele><time>2026-04-25T13:54:17.506Z</time></trkpt><trkpt lat="43.3791174" lon="13.0080896"><ele>1002.1999999999999</ele><time>2026-04-25T13:54:18.504Z</time></trkpt><trkpt lat="43.3791643" lon="13.007988"><ele>1001.8</ele><time>2026-04-25T13:54:19.512Z</time></trkpt><trkpt lat="43.3792376" lon="13.0078851"><ele>1001.4</ele><time>2026-04-25T13:54:20.503Z</time></trkpt><trkpt lat="43.3793292" lon="13.0077743"><ele>1001.0</ele><time>2026-04-25T13:54:21.501Z</time></trkpt><trkpt lat="43.3793946" lon="13.0076821"><ele>1001.0</ele><time>2026-04-25T13:54:22.498Z</time></trkpt><trkpt lat="43.3794471" lon="13.0075802"><ele>1000.9999999999999</ele><time>2026-04-25T13:54:23.504Z</time></trkpt><trkpt lat="43.379498" lon="13.0074675"><ele>1000.9999999999999</ele><time>2026-04-25T13:54:24.496Z</time></trkpt><trkpt lat="43.3795385" lon="13.007337"><ele>1001.0</ele><time>2026-04-25T13:54:25.498Z</time></trkpt><trkpt lat="43.3796022" lon="13.0072307"><ele>1001.0</ele><time>2026-04-25T13:54:26.501Z</time></trkpt><trkpt lat="43.379667" lon="13.0071777"><ele>1000.5999999999999</ele><time>2026-04-25T13:54:27.493Z</time></trkpt><trkpt lat="43.3797709" lon="13.0071005"><ele>1000.1999999999999</ele><time>2026-04-25T13:54:29.505Z</time></trkpt><trkpt lat="43.3798982" lon="13.0070674"><ele>999.8000000000001</ele><time>2026-04-25T13:54:31.509Z</time></trkpt><trkpt lat="43.3799711" lon="13.0070719"><ele>999.4000000000001</ele><time>2026-04-25T13:54:32.506Z</time></trkpt><trkpt lat="43.3800407" lon="13.0070805"><ele>999.0</ele><time>2026-04-25T13:54:33.509Z</time></trkpt><trkpt lat="43.3801181" lon="13.0070969"><ele>999.0</ele><time>2026-04-25T13:54:34.508Z</time></trkpt><trkpt lat="43.380187" lon="13.0071329"><ele>999.0000000000001</ele><time>2026-04-25T13:54:35.516Z</time></trkpt><trkpt lat="43.380251" lon="13.0071682"><ele>999.0</ele><time>2026-04-25T13:54:36.507Z</time></trkpt><trkpt lat="43.3803204" lon="13.0072123"><ele>999.0</ele><time>2026-04-25T13:54:37.505Z</time></trkpt><trkpt lat="43.3803841" lon="13.0072646"><ele>999.0000000000001</ele><time>2026-04-25T13:54:38.504Z</time></trkpt><trkpt lat="43.3804397" lon="13.0073204"><ele>999.0</ele><time>2026-04-25T13:54:39.507Z</time></trkpt><trkpt lat="43.380485" lon="13.0073828"><ele>999.0</ele><time>2026-04-25T13:54:40.508Z</time></trkpt><trkpt lat="43.380604" lon="13.007446"><ele>1000.3333333333334</ele><time>2026-04-25T13:54:42.498Z</time></trkpt><trkpt lat="43.3806753" lon="13.0074796"><ele>1001.6666666666667</ele><time>2026-04-25T13:54:43.493Z</time></trkpt><trkpt lat="43.3807397" lon="13.0075217"><ele>1003.0</ele><time>2026-04-25T13:54:44.505Z</time></trkpt><trkpt lat="43.3808119" lon="13.0075974"><ele>1004.3333333333334</ele><time>2026-04-25T13:54:46.5Z</time></trkpt><trkpt lat="43.3808876" lon="13.0076941"><ele>1005.6666666666667</ele><time>2026-04-25T13:54:49.495Z</time></trkpt><trkpt lat="43.3809445" lon="13.0077716"><ele>1007.0</ele><time>2026-04-25T13:54:50.503Z</time></trkpt><trkpt lat="43.3810294" lon="13.0078784"><ele>1007.0</ele><time>2026-04-25T13:54:52.498Z</time></trkpt><trkpt lat="43.3810809" lon="13.0079531"><ele>1007.0</ele><time>2026-04-25T13:54:53.497Z</time></trkpt><trkpt lat="43.3811805" lon="13.0080643"><ele>1007.0</ele><time>2026-04-25T13:54:55.498Z</time></trkpt><trkpt lat="43.3812562" lon="13.008139"><ele>1007.0</ele><time>2026-04-25T13:54:56.501Z</time></trkpt><trkpt lat="43.3813073" lon="13.0082017"><ele>1007.0</ele><time>2026-04-25T13:54:57.497Z</time></trkpt><trkpt lat="43.3813945" lon="13.0082829"><ele>1007.2</ele><time>2026-04-25T13:54:58.501Z</time></trkpt><trkpt lat="43.3814679" lon="13.0083568"><ele>1007.4000000000001</ele><time>2026-04-25T13:54:59.496Z</time></trkpt><trkpt lat="43.3815598" lon="13.0084327"><ele>1007.5999999999999</ele><time>2026-04-25T13:55:00.508Z</time></trkpt><trkpt lat="43.3816302" lon="13.0084895"><ele>1007.8</ele><time>2026-04-25T13:55:01.498Z</time></trkpt><trkpt lat="43.3817375" lon="13.0085406"><ele>1008.0</ele><time>2026-04-25T13:55:02.496Z</time></trkpt><trkpt lat="43.3818222" lon="13.0085882"><ele>1008.0</ele><time>2026-04-25T13:55:03.495Z</time></trkpt><trkpt lat="43.3819043" lon="13.0085894"><ele>1008.0</ele><time>2026-04-25T13:55:05.505Z</time></trkpt><trkpt lat="43.3819716" lon="13.0085796"><ele>1008.0</ele><time>2026-04-25T13:55:07.51Z</time></trkpt><trkpt lat="43.3820378" lon="13.0085835"><ele>1008.0</ele><time>2026-04-25T13:55:09.512Z</time></trkpt><trkpt lat="43.382115" lon="13.0085631"><ele>1008.0</ele><time>2026-04-25T13:55:11.512Z</time></trkpt><trkpt lat="43.3822138" lon="13.0085511"><ele>1008.0</ele><time>2026-04-25T13:55:13.51Z</time></trkpt><trkpt lat="43.3822993" lon="13.0085631"><ele>1007.6666666666666</ele><time>2026-04-25T13:55:15.513Z</time></trkpt><trkpt lat="43.382364" lon="13.0085249"><ele>1007.3333333333333</ele><time>2026-04-25T13:55:17.507Z</time></trkpt><trkpt lat="43.3823627" lon="13.0084183"><ele>1007.0</ele><time>2026-04-25T13:55:19.508Z</time></trkpt><trkpt lat="43.3822949" lon="13.0082895"><ele>1006.6666666666666</ele><time>2026-04-25T13:55:21.502Z</time></trkpt><trkpt lat="43.3822487" lon="13.0082304"><ele>1006.3333333333333</ele><time>2026-04-25T13:55:22.508Z</time></trkpt><trkpt lat="43.3822078" lon="13.0081561"><ele>1006.0</ele><time>2026-04-25T13:55:23.503Z</time></trkpt><trkpt lat="43.3821722" lon="13.0080642"><ele>1004.3333333333333</ele><time>2026-04-25T13:55:24.509Z</time></trkpt><trkpt lat="43.3821454" lon="13.0079574"><ele>1002.6666666666666</ele><time>2026-04-25T13:55:25.507Z</time></trkpt><trkpt lat="43.3821276" lon="13.0078643"><ele>1001.0</ele><time>2026-04-25T13:55:26.513Z</time></trkpt><trkpt lat="43.3821125" lon="13.0077749"><ele>999.3333333333333</ele><time>2026-04-25T13:55:27.508Z</time></trkpt><trkpt lat="43.3820663" lon="13.0075997"><ele>997.6666666666666</ele><time>2026-04-25T13:55:29.512Z</time></trkpt><trkpt lat="43.382038" lon="13.0074934"><ele>996.0</ele><time>2026-04-25T13:55:30.514Z</time></trkpt><trkpt lat="43.3820137" lon="13.0073815"><ele>995.1666666666666</ele><time>2026-04-25T13:55:31.513Z</time></trkpt><trkpt lat="43.3819949" lon="13.0072882"><ele>994.3333333333333</ele><time>2026-04-25T13:55:32.51Z</time></trkpt><trkpt lat="43.3819858" lon="13.007116"><ele>993.5</ele><time>2026-04-25T13:55:34.514Z</time></trkpt><trkpt lat="43.3819964" lon="13.007022"><ele>992.6666666666666</ele><time>2026-04-25T13:55:35.504Z</time></trkpt><trkpt lat="43.3819989" lon="13.0069078"><ele>991.8333333333333</ele><time>2026-04-25T13:55:36.512Z</time></trkpt><trkpt lat="43.3819927" lon="13.0067807"><ele>991.0</ele><time>2026-04-25T13:55:37.509Z</time></trkpt><trkpt lat="43.3819784" lon="13.0066503"><ele>990.9999999999999</ele><time>2026-04-25T13:55:38.51Z</time></trkpt><trkpt lat="43.3819727" lon="13.0065244"><ele>991.0</ele><time>2026-04-25T13:55:39.508Z</time></trkpt><trkpt lat="43.3819559" lon="13.0064145"><ele>991.0</ele><time>2026-04-25T13:55:40.506Z</time></trkpt><trkpt lat="43.3819265" lon="13.0062664"><ele>991.0</ele><time>2026-04-25T13:55:42.505Z</time></trkpt><trkpt lat="43.3819026" lon="13.0061821"><ele>990.9999999999999</ele><time>2026-04-25T13:55:43.503Z</time></trkpt><trkpt lat="43.3818784" lon="13.0060845"><ele>991.0</ele><time>2026-04-25T13:55:44.506Z</time></trkpt><trkpt lat="43.3818685" lon="13.0059946"><ele>990.9999999999999</ele><time>2026-04-25T13:55:45.511Z</time></trkpt><trkpt lat="43.3818543" lon="13.0059061"><ele>991.0</ele><time>2026-04-25T13:55:46.513Z</time></trkpt><trkpt lat="43.3818399" lon="13.0057886"><ele>991.0</ele><time>2026-04-25T13:55:47.509Z</time></trkpt><trkpt lat="43.3818202" lon="13.0056812"><ele>991.0</ele><time>2026-04-25T13:55:48.512Z</time></trkpt><trkpt lat="43.3817968" lon="13.0055783"><ele>990.9999999999999</ele><time>2026-04-25T13:55:49.516Z</time></trkpt><trkpt lat="43.3817716" lon="13.0054744"><ele>991.0</ele><time>2026-04-25T13:55:50.511Z</time></trkpt><trkpt lat="43.3817544" lon="13.0053759"><ele>991.4999999999999</ele><time>2026-04-25T13:55:51.516Z</time></trkpt><trkpt lat="43.3817328" lon="13.0052872"><ele>992.0</ele><time>2026-04-25T13:55:52.516Z</time></trkpt><trkpt lat="43.3817093" lon="13.0051962"><ele>992.5</ele><time>2026-04-25T13:55:53.521Z</time></trkpt><trkpt lat="43.381689" lon="13.0050993"><ele>993.0</ele><time>2026-04-25T13:55:54.52Z</time></trkpt><trkpt lat="43.381669" lon="13.0050019"><ele>993.4999999999999</ele><time>2026-04-25T13:55:55.515Z</time></trkpt><trkpt lat="43.3816561" lon="13.0048837"><ele>994.0</ele><time>2026-04-25T13:55:56.514Z</time></trkpt><trkpt lat="43.3816369" lon="13.004774"><ele>994.8333333333333</ele><time>2026-04-25T13:55:57.513Z</time></trkpt><trkpt lat="43.3816159" lon="13.0046825"><ele>995.6666666666666</ele><time>2026-04-25T13:55:58.518Z</time></trkpt><trkpt lat="43.3816012" lon="13.0045852"><ele>996.5</ele><time>2026-04-25T13:55:59.515Z</time></trkpt><trkpt lat="43.3815842" lon="13.004494"><ele>997.3333333333333</ele><time>2026-04-25T13:56:00.515Z</time></trkpt><trkpt lat="43.3815541" lon="13.0044062"><ele>998.1666666666666</ele><time>2026-04-25T13:56:01.513Z</time></trkpt><trkpt lat="43.3814948" lon="13.0042696"><ele>999.0</ele><time>2026-04-25T13:56:03.505Z</time></trkpt><trkpt lat="43.3814508" lon="13.0041966"><ele>999.5</ele><time>2026-04-25T13:56:04.504Z</time></trkpt><trkpt lat="43.3814328" lon="13.0040853"><ele>1000.0</ele><time>2026-04-25T13:56:05.509Z</time></trkpt><trkpt lat="43.3814193" lon="13.0039627"><ele>1000.5</ele><time>2026-04-25T13:56:06.51Z</time></trkpt><trkpt lat="43.3813934" lon="13.003858"><ele>1001.0</ele><time>2026-04-25T13:56:07.52Z</time></trkpt><trkpt lat="43.3813859" lon="13.0037528"><ele>1001.5</ele><time>2026-04-25T13:56:08.513Z</time></trkpt><trkpt lat="43.3813701" lon="13.0036639"><ele>1002.0</ele><time>2026-04-25T13:56:09.507Z</time></trkpt><trkpt lat="43.3813531" lon="13.0035739"><ele>997.3333333333334</ele><time>2026-04-25T13:56:10.508Z</time></trkpt><trkpt lat="43.3813248" lon="13.0034708"><ele>992.6666666666667</ele><time>2026-04-25T13:56:11.514Z</time></trkpt><trkpt lat="43.3813006" lon="13.0033629"><ele>988.0</ele><time>2026-04-25T13:56:12.515Z</time></trkpt><trkpt lat="43.381284" lon="13.0032787"><ele>983.3333333333334</ele><time>2026-04-25T13:56:13.513Z</time></trkpt><trkpt lat="43.3812685" lon="13.003168"><ele>978.6666666666667</ele><time>2026-04-25T13:56:14.515Z</time></trkpt><trkpt lat="43.3812621" lon="13.0030552"><ele>974.0</ele><time>2026-04-25T13:56:15.507Z</time></trkpt><trkpt lat="43.3812473" lon="13.0029565"><ele>974.0000000000001</ele><time>2026-04-25T13:56:16.513Z</time></trkpt><trkpt lat="43.3812399" lon="13.0028488"><ele>974.0</ele><time>2026-04-25T13:56:17.51Z</time></trkpt><trkpt lat="43.3812229" lon="13.0027411"><ele>974.0</ele><time>2026-04-25T13:56:18.504Z</time></trkpt><trkpt lat="43.381205" lon="13.0026354"><ele>974.0</ele><time>2026-04-25T13:56:19.503Z</time></trkpt><trkpt lat="43.381202" lon="13.002518"><ele>974.0000000000001</ele><time>2026-04-25T13:56:20.51Z</time></trkpt><trkpt lat="43.3811817" lon="13.0023897"><ele>974.0</ele><time>2026-04-25T13:56:21.504Z</time></trkpt><trkpt lat="43.3811573" lon="13.0022672"><ele>974.5000000000001</ele><time>2026-04-25T13:56:22.507Z</time></trkpt><trkpt lat="43.3811298" lon="13.0021401"><ele>975.0</ele><time>2026-04-25T13:56:23.514Z</time></trkpt><trkpt lat="43.3811033" lon="13.0020249"><ele>975.5</ele><time>2026-04-25T13:56:24.507Z</time></trkpt><trkpt lat="43.3810698" lon="13.0019103"><ele>976.0</ele><time>2026-04-25T13:56:25.511Z</time></trkpt><trkpt lat="43.3810497" lon="13.0018196"><ele>976.5000000000001</ele><time>2026-04-25T13:56:26.516Z</time></trkpt><trkpt lat="43.3810319" lon="13.0017198"><ele>977.0</ele><time>2026-04-25T13:56:27.514Z</time></trkpt><trkpt lat="43.3810015" lon="13.0015904"><ele>978.1666666666667</ele><time>2026-04-25T13:56:28.512Z</time></trkpt><trkpt lat="43.3809796" lon="13.0014667"><ele>979.3333333333334</ele><time>2026-04-25T13:56:29.504Z</time></trkpt><trkpt lat="43.3809744" lon="13.0013632"><ele>980.5</ele><time>2026-04-25T13:56:30.504Z</time></trkpt><trkpt lat="43.3809685" lon="13.0012734"><ele>981.6666666666667</ele><time>2026-04-25T13:56:31.501Z</time></trkpt><trkpt lat="43.380935" lon="13.0011809"><ele>982.8333333333334</ele><time>2026-04-25T13:56:32.505Z</time></trkpt><trkpt lat="43.3808905" lon="13.0010892"><ele>984.0</ele><time>2026-04-25T13:56:33.516Z</time></trkpt><trkpt lat="43.3808429" lon="13.0009834"><ele>984.0</ele><time>2026-04-25T13:56:34.508Z</time></trkpt><trkpt lat="43.3808131" lon="13.0008586"><ele>984.0000000000001</ele><time>2026-04-25T13:56:35.504Z</time></trkpt><trkpt lat="43.3807849" lon="13.0007359"><ele>984.0000000000001</ele><time>2026-04-25T13:56:36.511Z</time></trkpt><trkpt lat="43.3807585" lon="13.0006017"><ele>984.0</ele><time>2026-04-25T13:56:37.511Z</time></trkpt><trkpt lat="43.3807141" lon="13.000461"><ele>984.0</ele><time>2026-04-25T13:56:38.512Z</time></trkpt><trkpt lat="43.3806886" lon="13.0003417"><ele>984.6666666666666</ele><time>2026-04-25T13:56:39.516Z</time></trkpt><trkpt lat="43.3806481" lon="13.0002312"><ele>985.3333333333333</ele><time>2026-04-25T13:56:40.51Z</time></trkpt><trkpt lat="43.3806223" lon="13.000106"><ele>986.0</ele><time>2026-04-25T13:56:41.514Z</time></trkpt><trkpt lat="43.3806001" lon="12.9999891"><ele>986.6666666666666</ele><time>2026-04-25T13:56:42.516Z</time></trkpt><trkpt lat="43.3805861" lon="12.9998994"><ele>987.3333333333333</ele><time>2026-04-25T13:56:43.511Z</time></trkpt><trkpt lat="43.3805667" lon="12.9998026"><ele>988.0</ele><time>2026-04-25T13:56:44.506Z</time></trkpt><trkpt lat="43.3805382" lon="12.999703"><ele>984.0</ele><time>2026-04-25T13:56:45.508Z</time></trkpt><trkpt lat="43.380511" lon="12.9996084"><ele>980.0</ele><time>2026-04-25T13:56:46.514Z</time></trkpt><trkpt lat="43.3804845" lon="12.9995121"><ele>976.0</ele><time>2026-04-25T13:56:47.52Z</time></trkpt><trkpt lat="43.3804764" lon="12.9994075"><ele>972.0</ele><time>2026-04-25T13:56:48.515Z</time></trkpt><trkpt lat="43.3804661" lon="12.9993002"><ele>968.0</ele><time>2026-04-25T13:56:49.521Z</time></trkpt><trkpt lat="43.3804606" lon="12.9991974"><ele>964.0</ele><time>2026-04-25T13:56:50.522Z</time></trkpt><trkpt lat="43.3804671" lon="12.999106"><ele>960.0</ele><time>2026-04-25T13:56:51.523Z</time></trkpt><trkpt lat="43.380478" lon="12.9990206"><ele>960.0</ele><time>2026-04-25T13:56:52.526Z</time></trkpt><trkpt lat="43.3804984" lon="12.9989333"><ele>960.0</ele><time>2026-04-25T13:56:53.52Z</time></trkpt><trkpt lat="43.3805365" lon="12.9987715"><ele>960.0</ele><time>2026-04-25T13:56:55.517Z</time></trkpt><trkpt lat="43.3805762" lon="12.9986924"><ele>960.0</ele><time>2026-04-25T13:56:56.52Z</time></trkpt><trkpt lat="43.3806597" lon="12.9986031"><ele>960.0</ele><time>2026-04-25T13:56:58.523Z</time></trkpt><trkpt lat="43.3807342" lon="12.9985834"><ele>960.0</ele><time>2026-04-25T13:57:00.511Z</time></trkpt><trkpt lat="43.3808519" lon="12.9985926"><ele>964.3333333333334</ele><time>2026-04-25T13:57:02.505Z</time></trkpt><trkpt lat="43.3809228" lon="12.9985853"><ele>968.6666666666667</ele><time>2026-04-25T13:57:03.501Z</time></trkpt><trkpt lat="43.38099" lon="12.9985806"><ele>973.0</ele><time>2026-04-25T13:57:04.492Z</time></trkpt><trkpt lat="43.381072" lon="12.9985683"><ele>977.3333333333334</ele><time>2026-04-25T13:57:05.496Z</time></trkpt><trkpt lat="43.3811571" lon="12.9985425"><ele>981.6666666666667</ele><time>2026-04-25T13:57:06.493Z</time></trkpt><trkpt lat="43.3812444" lon="12.9984983"><ele>986.0</ele><time>2026-04-25T13:57:07.5Z</time></trkpt><trkpt lat="43.3813443" lon="12.9984525"><ele>987.1999999999999</ele><time>2026-04-25T13:57:08.504Z</time></trkpt><trkpt lat="43.3814485" lon="12.9984224"><ele>988.3999999999999</ele><time>2026-04-25T13:57:09.508Z</time></trkpt><trkpt lat="43.3815394" lon="12.9983854"><ele>989.6</ele><time>2026-04-25T13:57:10.506Z</time></trkpt><trkpt lat="43.3816148" lon="12.9983198"><ele>990.8</ele><time>2026-04-25T13:57:11.51Z</time></trkpt><trkpt lat="43.3816957" lon="12.998282"><ele>992.0</ele><time>2026-04-25T13:57:12.505Z</time></trkpt><trkpt lat="43.3817707" lon="12.9982738"><ele>989.1666666666667</ele><time>2026-04-25T13:57:13.511Z</time></trkpt><trkpt lat="43.3818463" lon="12.9982795"><ele>986.3333333333334</ele><time>2026-04-25T13:57:14.506Z</time></trkpt><trkpt lat="43.3819226" lon="12.9982615"><ele>983.5</ele><time>2026-04-25T13:57:15.512Z</time></trkpt><trkpt lat="43.3820034" lon="12.9982378"><ele>980.6666666666667</ele><time>2026-04-25T13:57:16.507Z</time></trkpt><trkpt lat="43.3820834" lon="12.9982247"><ele>977.8333333333334</ele><time>2026-04-25T13:57:17.507Z</time></trkpt><trkpt lat="43.3821557" lon="12.998207"><ele>975.0</ele><time>2026-04-25T13:57:18.505Z</time></trkpt><trkpt lat="43.3822259" lon="12.99819"><ele>975.0</ele><time>2026-04-25T13:57:19.511Z</time></trkpt><trkpt lat="43.3822961" lon="12.9981841"><ele>975.0</ele><time>2026-04-25T13:57:20.512Z</time></trkpt><trkpt lat="43.3823607" lon="12.9981627"><ele>975.0</ele><time>2026-04-25T13:57:21.514Z</time></trkpt><trkpt lat="43.3824837" lon="12.9981356"><ele>975.0</ele><time>2026-04-25T13:57:23.517Z</time></trkpt><trkpt lat="43.3825981" lon="12.9981609"><ele>975.0</ele><time>2026-04-25T13:57:25.52Z</time></trkpt><trkpt lat="43.3826698" lon="12.9981916"><ele>975.0</ele><time>2026-04-25T13:57:26.523Z</time></trkpt><trkpt lat="43.3827346" lon="12.9981895"><ele>975.0</ele><time>2026-04-25T13:57:27.52Z</time></trkpt><trkpt lat="43.3827977" lon="12.9982063"><ele>975.0</ele><time>2026-04-25T13:57:28.51Z</time></trkpt><trkpt lat="43.38287" lon="12.9982186"><ele>975.0</ele><time>2026-04-25T13:57:29.509Z</time></trkpt><trkpt lat="43.3829456" lon="12.9981953"><ele>975.0</ele><time>2026-04-25T13:57:30.515Z</time></trkpt><trkpt lat="43.3830706" lon="12.9981632"><ele>975.0</ele><time>2026-04-25T13:57:32.513Z</time></trkpt><trkpt lat="43.3831383" lon="12.9981479"><ele>974.8571428571428</ele><time>2026-04-25T13:57:33.508Z</time></trkpt><trkpt lat="43.3832129" lon="12.998123"><ele>974.7142857142856</ele><time>2026-04-25T13:57:34.518Z</time></trkpt><trkpt lat="43.3832843" lon="12.9981051"><ele>974.5714285714286</ele><time>2026-04-25T13:57:35.512Z</time></trkpt><trkpt lat="43.3833579" lon="12.9980724"><ele>974.4285714285713</ele><time>2026-04-25T13:57:36.515Z</time></trkpt><trkpt lat="43.3834351" lon="12.9980495"><ele>974.2857142857142</ele><time>2026-04-25T13:57:37.507Z</time></trkpt><trkpt lat="43.3835041" lon="12.9980372"><ele>974.1428571428571</ele><time>2026-04-25T13:57:38.523Z</time></trkpt><trkpt lat="43.3835767" lon="12.9980518"><ele>974.0</ele><time>2026-04-25T13:57:39.513Z</time></trkpt><trkpt lat="43.3836544" lon="12.9980647"><ele>974.0000000000001</ele><time>2026-04-25T13:57:40.515Z</time></trkpt><trkpt lat="43.3837474" lon="12.9980614"><ele>974.0</ele><time>2026-04-25T13:57:41.515Z</time></trkpt><trkpt lat="43.3838232" lon="12.9980159"><ele>974.0</ele><time>2026-04-25T13:57:42.509Z</time></trkpt><trkpt lat="43.3838838" lon="12.9979913"><ele>974.0</ele><time>2026-04-25T13:57:43.52Z</time></trkpt><trkpt lat="43.3839505" lon="12.9979647"><ele>974.0000000000001</ele><time>2026-04-25T13:57:44.517Z</time></trkpt><trkpt lat="43.384013" lon="12.9979277"><ele>974.0</ele><time>2026-04-25T13:57:45.52Z</time></trkpt><trkpt lat="43.3840951" lon="12.9979248"><ele>973.5000000000001</ele><time>2026-04-25T13:57:46.508Z</time></trkpt><trkpt lat="43.3841826" lon="12.9979577"><ele>973.0</ele><time>2026-04-25T13:57:47.507Z</time></trkpt><trkpt lat="43.3842552" lon="12.9979407"><ele>972.5</ele><time>2026-04-25T13:57:48.511Z</time></trkpt><trkpt lat="43.3843251" lon="12.9979251"><ele>972.0</ele><time>2026-04-25T13:57:49.508Z</time></trkpt><trkpt lat="43.3844023" lon="12.9979336"><ele>971.5000000000001</ele><time>2026-04-25T13:57:50.519Z</time></trkpt><trkpt lat="43.3844759" lon="12.9979184"><ele>971.0</ele><time>2026-04-25T13:57:51.51Z</time></trkpt><trkpt lat="43.3845469" lon="12.9979558"><ele>971.0</ele><time>2026-04-25T13:57:52.52Z</time></trkpt><trkpt lat="43.3846206" lon="12.9979716"><ele>970.9999999999999</ele><time>2026-04-25T13:57:53.512Z</time></trkpt><trkpt lat="43.3847339" lon="12.9979369"><ele>970.9999999999999</ele><time>2026-04-25T13:57:55.514Z</time></trkpt><trkpt lat="43.3847656" lon="12.9978593"><ele>971.0</ele><time>2026-04-25T13:57:56.515Z</time></trkpt><trkpt lat="43.3848808" lon="12.9978679"><ele>971.0</ele><time>2026-04-25T13:57:58.524Z</time></trkpt><trkpt lat="43.384963" lon="12.9979339"><ele>972.0000000000001</ele><time>2026-04-25T13:58:00.528Z</time></trkpt><trkpt lat="43.3850374" lon="12.9979741"><ele>973.0</ele><time>2026-04-25T13:58:02.514Z</time></trkpt><trkpt lat="43.385105" lon="12.9980435"><ele>974.0</ele><time>2026-04-25T13:58:04.511Z</time></trkpt><trkpt lat="43.3851575" lon="12.9980966"><ele>975.0</ele><time>2026-04-25T13:58:06.512Z</time></trkpt><trkpt lat="43.3852312" lon="12.9980778"><ele>976.0000000000001</ele><time>2026-04-25T13:58:08.506Z</time></trkpt><trkpt lat="43.3852916" lon="12.998103"><ele>977.0</ele><time>2026-04-25T13:58:09.504Z</time></trkpt><trkpt lat="43.3853944" lon="12.9981341"><ele>977.0000000000001</ele><time>2026-04-25T13:58:11.507Z</time></trkpt><trkpt lat="43.3855111" lon="12.9981525"><ele>977.0</ele><time>2026-04-25T13:58:13.509Z</time></trkpt><trkpt lat="43.3856283" lon="12.9981166"><ele>977.0</ele><time>2026-04-25T13:58:15.514Z</time></trkpt><trkpt lat="43.3857004" lon="12.9981209"><ele>977.0</ele><time>2026-04-25T13:58:16.511Z</time></trkpt><trkpt lat="43.3857719" lon="12.9981429"><ele>977.0000000000001</ele><time>2026-04-25T13:58:17.505Z</time></trkpt><trkpt lat="43.3858325" lon="12.9981106"><ele>977.0</ele><time>2026-04-25T13:58:18.513Z</time></trkpt><trkpt lat="43.3858937" lon="12.9980716"><ele>974.1666666666667</ele><time>2026-04-25T13:58:19.513Z</time></trkpt><trkpt lat="43.3859664" lon="12.9980524"><ele>971.3333333333334</ele><time>2026-04-25T13:58:20.507Z</time></trkpt><trkpt lat="43.3860433" lon="12.9980357"><ele>968.5</ele><time>2026-04-25T13:58:21.503Z</time></trkpt><trkpt lat="43.3861375" lon="12.9980373"><ele>965.6666666666667</ele><time>2026-04-25T13:58:22.513Z</time></trkpt><trkpt lat="43.3862423" lon="12.99803"><ele>962.8333333333334</ele><time>2026-04-25T13:58:23.503Z</time></trkpt><trkpt lat="43.3863335" lon="12.9980035"><ele>960.0</ele><time>2026-04-25T13:58:24.505Z</time></trkpt><trkpt lat="43.3864218" lon="12.9979646"><ele>956.8</ele><time>2026-04-25T13:58:25.507Z</time></trkpt><trkpt lat="43.3865178" lon="12.9979172"><ele>953.6</ele><time>2026-04-25T13:58:26.505Z</time></trkpt><trkpt lat="43.3866182" lon="12.9979044"><ele>950.4000000000001</ele><time>2026-04-25T13:58:27.51Z</time></trkpt><trkpt lat="43.3867143" lon="12.9978849"><ele>947.2</ele><time>2026-04-25T13:58:28.502Z</time></trkpt><trkpt lat="43.386803" lon="12.9978781"><ele>944.0</ele><time>2026-04-25T13:58:29.512Z</time></trkpt><trkpt lat="43.3869" lon="12.9978886"><ele>944.0000000000001</ele><time>2026-04-25T13:58:30.496Z</time></trkpt><trkpt lat="43.3869824" lon="12.9978807"><ele>944.0</ele><time>2026-04-25T13:58:31.503Z</time></trkpt><trkpt lat="43.3870794" lon="12.9978446"><ele>944.0</ele><time>2026-04-25T13:58:32.497Z</time></trkpt><trkpt lat="43.3871753" lon="12.9978199"><ele>944.0</ele><time>2026-04-25T13:58:33.513Z</time></trkpt><trkpt lat="43.3872558" lon="12.9977992"><ele>944.0000000000001</ele><time>2026-04-25T13:58:34.51Z</time></trkpt><trkpt lat="43.3873209" lon="12.9977722"><ele>944.0</ele><time>2026-04-25T13:58:35.509Z</time></trkpt><trkpt lat="43.387387" lon="12.9977553"><ele>942.1666666666667</ele><time>2026-04-25T13:58:36.524Z</time></trkpt><trkpt lat="43.3874742" lon="12.9977781"><ele>940.3333333333334</ele><time>2026-04-25T13:58:37.509Z</time></trkpt><trkpt lat="43.3875565" lon="12.9977976"><ele>938.5</ele><time>2026-04-25T13:58:38.515Z</time></trkpt><trkpt lat="43.3876242" lon="12.9978141"><ele>936.6666666666667</ele><time>2026-04-25T13:58:39.51Z</time></trkpt><trkpt lat="43.3876931" lon="12.9978284"><ele>934.8333333333334</ele><time>2026-04-25T13:58:40.514Z</time></trkpt><trkpt lat="43.3878122" lon="12.9979162"><ele>933.0</ele><time>2026-04-25T13:58:42.513Z</time></trkpt><trkpt lat="43.3878879" lon="12.9979669"><ele>933.0</ele><time>2026-04-25T13:58:43.51Z</time></trkpt><trkpt lat="43.3879549" lon="12.9980016"><ele>933.0</ele><time>2026-04-25T13:58:44.508Z</time></trkpt><trkpt lat="43.3880163" lon="12.9980324"><ele>933.0</ele><time>2026-04-25T13:58:45.508Z</time></trkpt><trkpt lat="43.3881028" lon="12.9981017"><ele>933.0</ele><time>2026-04-25T13:58:47.513Z</time></trkpt><trkpt lat="43.3881499" lon="12.9981599"><ele>933.0</ele><time>2026-04-25T13:58:49.512Z</time></trkpt><trkpt lat="43.3882229" lon="12.9982033"><ele>933.0</ele><time>2026-04-25T13:58:52.519Z</time></trkpt><trkpt lat="43.3882103" lon="12.9980924"><ele>933.0</ele><time>2026-04-25T13:58:58.506Z</time></trkpt><trkpt lat="43.3881765" lon="12.9979714"><ele>933.0</ele><time>2026-04-25T13:59:00.507Z</time></trkpt><trkpt lat="43.388114" lon="12.9978665"><ele>933.0</ele><time>2026-04-25T13:59:02.511Z</time></trkpt><trkpt lat="43.3880559" lon="12.9977029"><ele>933.0</ele><time>2026-04-25T13:59:04.512Z</time></trkpt><trkpt lat="43.388027" lon="12.9976071"><ele>933.0</ele><time>2026-04-25T13:59:05.508Z</time></trkpt><trkpt lat="43.3879735" lon="12.9975168"><ele>929.8333333333334</ele><time>2026-04-25T13:59:06.507Z</time></trkpt><trkpt lat="43.3879345" lon="12.9974422"><ele>926.6666666666667</ele><time>2026-04-25T13:59:07.518Z</time></trkpt><trkpt lat="43.3878635" lon="12.9973323"><ele>923.5</ele><time>2026-04-25T13:59:09.518Z</time></trkpt><trkpt lat="43.3877673" lon="12.9972353"><ele>920.3333333333334</ele><time>2026-04-25T13:59:11.508Z</time></trkpt><trkpt lat="43.3877096" lon="12.9971853"><ele>917.1666666666667</ele><time>2026-04-25T13:59:12.511Z</time></trkpt><trkpt lat="43.387649" lon="12.9971249"><ele>914.0</ele><time>2026-04-25T13:59:13.507Z</time></trkpt><trkpt lat="43.3875963" lon="12.9970612"><ele>914.0</ele><time>2026-04-25T13:59:14.509Z</time></trkpt><trkpt lat="43.3875192" lon="12.9969774"><ele>914.0000000000001</ele><time>2026-04-25T13:59:16.514Z</time></trkpt><trkpt lat="43.3874688" lon="12.9969081"><ele>914.0000000000001</ele><time>2026-04-25T13:59:18.51Z</time></trkpt><trkpt lat="43.3874522" lon="12.996798"><ele>914.0</ele><time>2026-04-25T13:59:21.514Z</time></trkpt><trkpt lat="43.387515" lon="12.9966853"><ele>914.0</ele><time>2026-04-25T13:59:23.516Z</time></trkpt><trkpt lat="43.3876213" lon="12.9966696"><ele>914.0000000000001</ele><time>2026-04-25T13:59:25.526Z</time></trkpt><trkpt lat="43.3876918" lon="12.9966933"><ele>914.0</ele><time>2026-04-25T13:59:26.515Z</time></trkpt><trkpt lat="43.3877526" lon="12.9967273"><ele>914.0</ele><time>2026-04-25T13:59:27.523Z</time></trkpt><trkpt lat="43.3878869" lon="12.9967823"><ele>914.0</ele><time>2026-04-25T13:59:29.527Z</time></trkpt><trkpt lat="43.3879514" lon="12.9968305"><ele>914.0000000000001</ele><time>2026-04-25T13:59:30.509Z</time></trkpt><trkpt lat="43.3880129" lon="12.99689"><ele>914.0</ele><time>2026-04-25T13:59:31.519Z</time></trkpt><trkpt lat="43.3880881" lon="12.9969552"><ele>911.8000000000001</ele><time>2026-04-25T13:59:32.51Z</time></trkpt><trkpt lat="43.3881713" lon="12.9970209"><ele>909.6000000000001</ele><time>2026-04-25T13:59:33.512Z</time></trkpt><trkpt lat="43.3882564" lon="12.9970848"><ele>907.4</ele><time>2026-04-25T13:59:34.505Z</time></trkpt><trkpt lat="43.3883372" lon="12.9971516"><ele>905.2</ele><time>2026-04-25T13:59:35.512Z</time></trkpt><trkpt lat="43.3884141" lon="12.9972022"><ele>903.0</ele><time>2026-04-25T13:59:36.51Z</time></trkpt><trkpt lat="43.3884946" lon="12.9972734"><ele>903.0</ele><time>2026-04-25T13:59:37.52Z</time></trkpt><trkpt lat="43.388576" lon="12.9973619"><ele>903.0</ele><time>2026-04-25T13:59:38.522Z</time></trkpt><trkpt lat="43.3886599" lon="12.9974621"><ele>903.0</ele><time>2026-04-25T13:59:39.512Z</time></trkpt><trkpt lat="43.3887385" lon="12.9975799"><ele>903.0</ele><time>2026-04-25T13:59:40.52Z</time></trkpt><trkpt lat="43.3887939" lon="12.9976982"><ele>903.0</ele><time>2026-04-25T13:59:41.511Z</time></trkpt><trkpt lat="43.3888491" lon="12.9978192"><ele>903.4</ele><time>2026-04-25T13:59:42.522Z</time></trkpt><trkpt lat="43.3889131" lon="12.9979446"><ele>903.8</ele><time>2026-04-25T13:59:43.524Z</time></trkpt><trkpt lat="43.3889797" lon="12.9980663"><ele>904.2</ele><time>2026-04-25T13:59:44.516Z</time></trkpt><trkpt lat="43.3890458" lon="12.9981719"><ele>904.6</ele><time>2026-04-25T13:59:45.511Z</time></trkpt><trkpt lat="43.3891138" lon="12.9982681"><ele>905.0</ele><time>2026-04-25T13:59:46.509Z</time></trkpt><trkpt lat="43.3891885" lon="12.9983515"><ele>905.0000000000001</ele><time>2026-04-25T13:59:47.516Z</time></trkpt><trkpt lat="43.3892576" lon="12.9984197"><ele>905.0</ele><time>2026-04-25T13:59:48.511Z</time></trkpt><trkpt lat="43.3893194" lon="12.9984952"><ele>905.0</ele><time>2026-04-25T13:59:49.512Z</time></trkpt><trkpt lat="43.3893678" lon="12.9985711"><ele>905.0</ele><time>2026-04-25T13:59:50.52Z</time></trkpt><trkpt lat="43.3894148" lon="12.9986514"><ele>905.0000000000001</ele><time>2026-04-25T13:59:51.516Z</time></trkpt><trkpt lat="43.3894618" lon="12.9987493"><ele>905.0</ele><time>2026-04-25T13:59:52.521Z</time></trkpt><trkpt lat="43.3895041" lon="12.9988449"><ele>905.0</ele><time>2026-04-25T13:59:53.503Z</time></trkpt><trkpt lat="43.3895736" lon="12.9989247"><ele>905.0</ele><time>2026-04-25T13:59:54.507Z</time></trkpt><trkpt lat="43.389632" lon="12.9990258"><ele>905.0</ele><time>2026-04-25T13:59:55.511Z</time></trkpt><trkpt lat="43.3896943" lon="12.999142"><ele>905.0</ele><time>2026-04-25T13:59:56.511Z</time></trkpt><trkpt lat="43.3897411" lon="12.9992356"><ele>905.0</ele><time>2026-04-25T13:59:57.503Z</time></trkpt><trkpt lat="43.3897858" lon="12.9993331"><ele>899.5000000000001</ele><time>2026-04-25T13:59:58.508Z</time></trkpt><trkpt lat="43.3898229" lon="12.9994256"><ele>894.0</ele><time>2026-04-25T13:59:59.502Z</time></trkpt><trkpt lat="43.3898568" lon="12.9995131"><ele>888.5</ele><time>2026-04-25T14:00:00.505Z</time></trkpt><trkpt lat="43.3898958" lon="12.999621"><ele>883.0</ele><time>2026-04-25T14:00:01.504Z</time></trkpt><trkpt lat="43.3899375" lon="12.9997459"><ele>877.5000000000001</ele><time>2026-04-25T14:00:02.506Z</time></trkpt><trkpt lat="43.3899674" lon="12.9998734"><ele>872.0</ele><time>2026-04-25T14:00:03.505Z</time></trkpt><trkpt lat="43.3900056" lon="12.9999964"><ele>872.0</ele><time>2026-04-25T14:00:04.51Z</time></trkpt><trkpt lat="43.3900397" lon="13.0001296"><ele>872.0</ele><time>2026-04-25T14:00:05.51Z</time></trkpt><trkpt lat="43.3900755" lon="13.0002536"><ele>872.0</ele><time>2026-04-25T14:00:06.513Z</time></trkpt><trkpt lat="43.3901118" lon="13.0003729"><ele>872.0</ele><time>2026-04-25T14:00:07.513Z</time></trkpt><trkpt lat="43.3901552" lon="13.0004969"><ele>872.0</ele><time>2026-04-25T14:00:08.503Z</time></trkpt><trkpt lat="43.3901975" lon="13.000617"><ele>872.0</ele><time>2026-04-25T14:00:09.513Z</time></trkpt><trkpt lat="43.3902462" lon="13.0007488"><ele>872.0</ele><time>2026-04-25T14:00:10.502Z</time></trkpt><trkpt lat="43.3902901" lon="13.0008812"><ele>872.0</ele><time>2026-04-25T14:00:11.497Z</time></trkpt><trkpt lat="43.3903293" lon="13.0010037"><ele>872.0</ele><time>2026-04-25T14:00:12.501Z</time></trkpt><trkpt lat="43.3903716" lon="13.0011224"><ele>872.0</ele><time>2026-04-25T14:00:13.501Z</time></trkpt><trkpt lat="43.3904247" lon="13.0012542"><ele>873.0</ele><time>2026-04-25T14:00:14.502Z</time></trkpt><trkpt lat="43.3904904" lon="13.0014031"><ele>874.0</ele><time>2026-04-25T14:00:15.505Z</time></trkpt><trkpt lat="43.3905565" lon="13.0015366"><ele>875.0</ele><time>2026-04-25T14:00:16.51Z</time></trkpt><trkpt lat="43.3906074" lon="13.0016563"><ele>876.0</ele><time>2026-04-25T14:00:17.52Z</time></trkpt><trkpt lat="43.3906623" lon="13.0017682"><ele>877.0</ele><time>2026-04-25T14:00:18.52Z</time></trkpt><trkpt lat="43.3907171" lon="13.0018853"><ele>870.2</ele><time>2026-04-25T14:00:19.521Z</time></trkpt><trkpt lat="43.3907614" lon="13.002008"><ele>863.4000000000001</ele><time>2026-04-25T14:00:20.518Z</time></trkpt><trkpt lat="43.3908045" lon="13.0021207"><ele>856.5999999999999</ele><time>2026-04-25T14:00:21.516Z</time></trkpt><trkpt lat="43.3908372" lon="13.0022342"><ele>849.8</ele><time>2026-04-25T14:00:22.506Z</time></trkpt><trkpt lat="43.3908696" lon="13.002352"><ele>843.0</ele><time>2026-04-25T14:00:23.512Z</time></trkpt><trkpt lat="43.3908943" lon="13.0024728"><ele>844.8</ele><time>2026-04-25T14:00:24.51Z</time></trkpt><trkpt lat="43.3909244" lon="13.002602"><ele>846.5999999999999</ele><time>2026-04-25T14:00:25.518Z</time></trkpt><trkpt lat="43.3909603" lon="13.0027326"><ele>848.4000000000001</ele><time>2026-04-25T14:00:26.516Z</time></trkpt><trkpt lat="43.3910082" lon="13.0028617"><ele>850.2</ele><time>2026-04-25T14:00:27.52Z</time></trkpt><trkpt lat="43.391056" lon="13.0029902"><ele>852.0</ele><time>2026-04-25T14:00:28.518Z</time></trkpt><trkpt lat="43.3910922" lon="13.0031275"><ele>852.0</ele><time>2026-04-25T14:00:29.518Z</time></trkpt><trkpt lat="43.3911392" lon="13.0032498"><ele>852.0</ele><time>2026-04-25T14:00:30.521Z</time></trkpt><trkpt lat="43.3911873" lon="13.0033747"><ele>852.0</ele><time>2026-04-25T14:00:31.519Z</time></trkpt><trkpt lat="43.3912328" lon="13.0035091"><ele>852.0</ele><time>2026-04-25T14:00:32.52Z</time></trkpt><trkpt lat="43.391267" lon="13.0036504"><ele>852.0</ele><time>2026-04-25T14:00:33.519Z</time></trkpt><trkpt lat="43.3912981" lon="13.0037827"><ele>854.4000000000001</ele><time>2026-04-25T14:00:34.528Z</time></trkpt><trkpt lat="43.3913184" lon="13.0039189"><ele>856.8000000000001</ele><time>2026-04-25T14:00:35.523Z</time></trkpt><trkpt lat="43.3913533" lon="13.0040487"><ele>859.2</ele><time>2026-04-25T14:00:36.526Z</time></trkpt><trkpt lat="43.3913905" lon="13.0041772"><ele>861.6</ele><time>2026-04-25T14:00:37.52Z</time></trkpt><trkpt lat="43.3914295" lon="13.004288"><ele>864.0</ele><time>2026-04-25T14:00:38.519Z</time></trkpt><trkpt lat="43.3914712" lon="13.0044001"><ele>856.6</ele><time>2026-04-25T14:00:39.522Z</time></trkpt><trkpt lat="43.391515" lon="13.0045096"><ele>849.2</ele><time>2026-04-25T14:00:40.53Z</time></trkpt><trkpt lat="43.3915518" lon="13.0046235"><ele>841.8000000000001</ele><time>2026-04-25T14:00:41.522Z</time></trkpt><trkpt lat="43.391589" lon="13.0047365"><ele>834.4000000000001</ele><time>2026-04-25T14:00:42.518Z</time></trkpt><trkpt lat="43.3916257" lon="13.0048559"><ele>827.0</ele><time>2026-04-25T14:00:43.52Z</time></trkpt><trkpt lat="43.3916567" lon="13.004972"><ele>828.3333333333334</ele><time>2026-04-25T14:00:44.518Z</time></trkpt><trkpt lat="43.3916864" lon="13.0050774"><ele>829.6666666666667</ele><time>2026-04-25T14:00:45.522Z</time></trkpt><trkpt lat="43.3917194" lon="13.0051927"><ele>831.0</ele><time>2026-04-25T14:00:46.52Z</time></trkpt><trkpt lat="43.3917516" lon="13.0053125"><ele>832.3333333333333</ele><time>2026-04-25T14:00:47.521Z</time></trkpt><trkpt lat="43.3917837" lon="13.005413"><ele>833.6666666666666</ele><time>2026-04-25T14:00:48.528Z</time></trkpt><trkpt lat="43.3918183" lon="13.0055207"><ele>835.0</ele><time>2026-04-25T14:00:49.528Z</time></trkpt><trkpt lat="43.3918457" lon="13.0056269"><ele>834.9999999999999</ele><time>2026-04-25T14:00:50.524Z</time></trkpt><trkpt lat="43.3918797" lon="13.0057316"><ele>835.0</ele><time>2026-04-25T14:00:51.523Z</time></trkpt><trkpt lat="43.3919048" lon="13.0058323"><ele>835.0</ele><time>2026-04-25T14:00:52.523Z</time></trkpt><trkpt lat="43.3919286" lon="13.0059221"><ele>835.0</ele><time>2026-04-25T14:00:53.528Z</time></trkpt><trkpt lat="43.3919466" lon="13.0060675"><ele>834.9999999999999</ele><time>2026-04-25T14:00:55.527Z</time></trkpt><trkpt lat="43.3919419" lon="13.0061956"><ele>835.0</ele><time>2026-04-25T14:00:57.527Z</time></trkpt><trkpt lat="43.391932" lon="13.0062928"><ele>834.6</ele><time>2026-04-25T14:00:59.527Z</time></trkpt><trkpt lat="43.391945" lon="13.0063905"><ele>834.2</ele><time>2026-04-25T14:01:02.527Z</time></trkpt><trkpt lat="43.3920072" lon="13.0063707"><ele>833.8</ele><time>2026-04-25T14:01:05.53Z</time></trkpt><trkpt lat="43.3920232" lon="13.0062561"><ele>833.4</ele><time>2026-04-25T14:01:08.518Z</time></trkpt><trkpt lat="43.3920266" lon="13.0060674"><ele>833.0</ele><time>2026-04-25T14:01:10.509Z</time></trkpt><trkpt lat="43.3920167" lon="13.0059386"><ele>833.3333333333334</ele><time>2026-04-25T14:01:11.54Z</time></trkpt><trkpt lat="43.3920124" lon="13.0058034"><ele>833.6666666666667</ele><time>2026-04-25T14:01:12.522Z</time></trkpt><trkpt lat="43.3920072" lon="13.0056732"><ele>834.0</ele><time>2026-04-25T14:01:13.521Z</time></trkpt><trkpt lat="43.3920095" lon="13.005553"><ele>834.3333333333333</ele><time>2026-04-25T14:01:14.518Z</time></trkpt><trkpt lat="43.3920128" lon="13.0054372"><ele>834.6666666666666</ele><time>2026-04-25T14:01:15.52Z</time></trkpt><trkpt lat="43.3920023" lon="13.0053265"><ele>835.0</ele><time>2026-04-25T14:01:16.516Z</time></trkpt><trkpt lat="43.3919983" lon="13.0052277"><ele>834.9999999999999</ele><time>2026-04-25T14:01:17.52Z</time></trkpt><trkpt lat="43.3919984" lon="13.0051264"><ele>835.0</ele><time>2026-04-25T14:01:18.523Z</time></trkpt><trkpt lat="43.3920011" lon="13.0050232"><ele>835.0</ele><time>2026-04-25T14:01:19.52Z</time></trkpt><trkpt lat="43.3920036" lon="13.0049112"><ele>835.0</ele><time>2026-04-25T14:01:20.521Z</time></trkpt><trkpt lat="43.3920006" lon="13.0047946"><ele>834.9999999999999</ele><time>2026-04-25T14:01:21.514Z</time></trkpt><trkpt lat="43.391996" lon="13.0046774"><ele>835.0</ele><time>2026-04-25T14:01:22.523Z</time></trkpt><trkpt lat="43.3919884" lon="13.0045481"><ele>833.4</ele><time>2026-04-25T14:01:23.526Z</time></trkpt><trkpt lat="43.391978" lon="13.0044233"><ele>831.8</ele><time>2026-04-25T14:01:24.512Z</time></trkpt><trkpt lat="43.3919695" lon="13.0042907"><ele>830.2</ele><time>2026-04-25T14:01:25.523Z</time></trkpt><trkpt lat="43.3919566" lon="13.0041514"><ele>828.6</ele><time>2026-04-25T14:01:26.52Z</time></trkpt><trkpt lat="43.3919513" lon="13.0040123"><ele>827.0</ele><time>2026-04-25T14:01:27.525Z</time></trkpt><trkpt lat="43.391945" lon="13.0038827"><ele>824.6</ele><time>2026-04-25T14:01:28.528Z</time></trkpt><trkpt lat="43.3919362" lon="13.0037518"><ele>822.2</ele><time>2026-04-25T14:01:29.533Z</time></trkpt><trkpt lat="43.3919291" lon="13.0036338"><ele>819.8</ele><time>2026-04-25T14:01:30.52Z</time></trkpt><trkpt lat="43.3919176" lon="13.0034936"><ele>817.4</ele><time>2026-04-25T14:01:31.529Z</time></trkpt><trkpt lat="43.3919001" lon="13.0033412"><ele>815.0</ele><time>2026-04-25T14:01:32.515Z</time></trkpt><trkpt lat="43.3918794" lon="13.0032009"><ele>813.0</ele><time>2026-04-25T14:01:33.515Z</time></trkpt><trkpt lat="43.3918711" lon="13.0030677"><ele>811.0</ele><time>2026-04-25T14:01:34.517Z</time></trkpt><trkpt lat="43.3918602" lon="13.0029272"><ele>809.0</ele><time>2026-04-25T14:01:35.51Z</time></trkpt><trkpt lat="43.3918475" lon="13.0027893"><ele>807.0</ele><time>2026-04-25T14:01:36.521Z</time></trkpt><trkpt lat="43.3918348" lon="13.0026574"><ele>805.0</ele><time>2026-04-25T14:01:37.515Z</time></trkpt><trkpt lat="43.3918246" lon="13.0025243"><ele>803.8</ele><time>2026-04-25T14:01:38.52Z</time></trkpt><trkpt lat="43.3918138" lon="13.0023917"><ele>802.6</ele><time>2026-04-25T14:01:39.514Z</time></trkpt><trkpt lat="43.3918084" lon="13.0022647"><ele>801.4000000000001</ele><time>2026-04-25T14:01:40.514Z</time></trkpt><trkpt lat="43.3918024" lon="13.0021415"><ele>800.2</ele><time>2026-04-25T14:01:41.521Z</time></trkpt><trkpt lat="43.3917799" lon="13.0020226"><ele>799.0</ele><time>2026-04-25T14:01:42.516Z</time></trkpt><trkpt lat="43.3917723" lon="13.001896"><ele>799.0</ele><time>2026-04-25T14:01:43.518Z</time></trkpt><trkpt lat="43.391772" lon="13.0017637"><ele>799.0</ele><time>2026-04-25T14:01:44.514Z</time></trkpt><trkpt lat="43.3917607" lon="13.0016178"><ele>799.0</ele><time>2026-04-25T14:01:45.519Z</time></trkpt><trkpt lat="43.391754" lon="13.001475"><ele>799.0</ele><time>2026-04-25T14:01:46.517Z</time></trkpt><trkpt lat="43.3917584" lon="13.0013335"><ele>799.0</ele><time>2026-04-25T14:01:47.521Z</time></trkpt><trkpt lat="43.3917532" lon="13.0011917"><ele>797.4000000000001</ele><time>2026-04-25T14:01:48.513Z</time></trkpt><trkpt lat="43.3917455" lon="13.0010481"><ele>795.8</ele><time>2026-04-25T14:01:49.508Z</time></trkpt><trkpt lat="43.3917378" lon="13.0009274"><ele>794.2</ele><time>2026-04-25T14:01:50.518Z</time></trkpt><trkpt lat="43.3917368" lon="13.0008028"><ele>792.5999999999999</ele><time>2026-04-25T14:01:51.521Z</time></trkpt><trkpt lat="43.3917371" lon="13.0006646"><ele>791.0</ele><time>2026-04-25T14:01:52.522Z</time></trkpt><trkpt lat="43.3917464" lon="13.000528"><ele>790.4</ele><time>2026-04-25T14:01:53.519Z</time></trkpt><trkpt lat="43.3917595" lon="13.0003882"><ele>789.8</ele><time>2026-04-25T14:01:54.523Z</time></trkpt><trkpt lat="43.3917544" lon="13.0002504"><ele>789.1999999999999</ele><time>2026-04-25T14:01:55.519Z</time></trkpt><trkpt lat="43.3917454" lon="13.0001081"><ele>788.5999999999999</ele><time>2026-04-25T14:01:56.524Z</time></trkpt><trkpt lat="43.3917513" lon="12.9999799"><ele>788.0</ele><time>2026-04-25T14:01:57.524Z</time></trkpt><trkpt lat="43.3917508" lon="12.9998488"><ele>788.0000000000001</ele><time>2026-04-25T14:01:58.532Z</time></trkpt><trkpt lat="43.3917555" lon="12.9997281"><ele>788.0</ele><time>2026-04-25T14:01:59.518Z</time></trkpt><trkpt lat="43.3917581" lon="12.999607"><ele>788.0</ele><time>2026-04-25T14:02:00.537Z</time></trkpt><trkpt lat="43.3917607" lon="12.9994817"><ele>788.0</ele><time>2026-04-25T14:02:01.519Z</time></trkpt><trkpt lat="43.3917579" lon="12.9993639"><ele>788.0000000000001</ele><time>2026-04-25T14:02:02.521Z</time></trkpt><trkpt lat="43.3917581" lon="12.9992566"><ele>788.0</ele><time>2026-04-25T14:02:03.525Z</time></trkpt><trkpt lat="43.3917852" lon="12.999131"><ele>787.0</ele><time>2026-04-25T14:02:04.521Z</time></trkpt><trkpt lat="43.3918309" lon="12.9989938"><ele>786.0</ele><time>2026-04-25T14:02:05.524Z</time></trkpt><trkpt lat="43.3918772" lon="12.9988569"><ele>785.0</ele><time>2026-04-25T14:02:06.532Z</time></trkpt><trkpt lat="43.3919249" lon="12.9987297"><ele>784.0</ele><time>2026-04-25T14:02:07.526Z</time></trkpt><trkpt lat="43.3919689" lon="12.9986121"><ele>783.0</ele><time>2026-04-25T14:02:08.535Z</time></trkpt><trkpt lat="43.3920049" lon="12.9985167"><ele>783.0</ele><time>2026-04-25T14:02:09.527Z</time></trkpt><trkpt lat="43.3920401" lon="12.9984368"><ele>783.0</ele><time>2026-04-25T14:02:10.524Z</time></trkpt><trkpt lat="43.392119" lon="12.9983258"><ele>783.0</ele><time>2026-04-25T14:02:12.541Z</time></trkpt><trkpt lat="43.3922447" lon="12.9982789"><ele>783.0</ele><time>2026-04-25T14:02:14.518Z</time></trkpt><trkpt lat="43.3923103" lon="12.9982812"><ele>783.0</ele><time>2026-04-25T14:02:15.53Z</time></trkpt><trkpt lat="43.392407" lon="12.9983027"><ele>779.4</ele><time>2026-04-25T14:02:17.523Z</time></trkpt><trkpt lat="43.392491" lon="12.9982408"><ele>775.8</ele><time>2026-04-25T14:02:19.52Z</time></trkpt><trkpt lat="43.392567" lon="12.9980982"><ele>772.2</ele><time>2026-04-25T14:02:21.527Z</time></trkpt><trkpt lat="43.3926015" lon="12.9979908"><ele>768.6</ele><time>2026-04-25T14:02:22.523Z</time></trkpt><trkpt lat="43.3926218" lon="12.9978684"><ele>765.0</ele><time>2026-04-25T14:02:23.517Z</time></trkpt><trkpt lat="43.3926344" lon="12.9977262"><ele>765.0</ele><time>2026-04-25T14:02:24.536Z</time></trkpt><trkpt lat="43.3926483" lon="12.997582"><ele>765.0</ele><time>2026-04-25T14:02:25.522Z</time></trkpt><trkpt lat="43.3926619" lon="12.9974504"><ele>765.0</ele><time>2026-04-25T14:02:26.528Z</time></trkpt><trkpt lat="43.3926757" lon="12.9973261"><ele>765.0</ele><time>2026-04-25T14:02:27.526Z</time></trkpt><trkpt lat="43.3926847" lon="12.997205"><ele>765.0</ele><time>2026-04-25T14:02:28.531Z</time></trkpt><trkpt lat="43.392694" lon="12.9970852"><ele>765.1666666666666</ele><time>2026-04-25T14:02:29.537Z</time></trkpt><trkpt lat="43.3926912" lon="12.9969675"><ele>765.3333333333334</ele><time>2026-04-25T14:02:30.538Z</time></trkpt><trkpt lat="43.3926928" lon="12.9968621"><ele>765.5</ele><time>2026-04-25T14:02:31.53Z</time></trkpt><trkpt lat="43.3926964" lon="12.9967519"><ele>765.6666666666667</ele><time>2026-04-25T14:02:32.522Z</time></trkpt><trkpt lat="43.3926952" lon="12.9966453"><ele>765.8333333333334</ele><time>2026-04-25T14:02:33.527Z</time></trkpt><trkpt lat="43.392689" lon="12.9965481"><ele>766.0</ele><time>2026-04-25T14:02:34.524Z</time></trkpt><trkpt lat="43.392683" lon="12.9964514"><ele>766.0</ele><time>2026-04-25T14:02:35.53Z</time></trkpt><trkpt lat="43.3926717" lon="12.99636"><ele>766.0</ele><time>2026-04-25T14:02:36.527Z</time></trkpt><trkpt lat="43.3926473" lon="12.9962222"><ele>766.0</ele><time>2026-04-25T14:02:38.531Z</time></trkpt><trkpt lat="43.3925985" lon="12.9961306"><ele>766.0</ele><time>2026-04-25T14:02:40.527Z</time></trkpt><trkpt lat="43.3925387" lon="12.9960472"><ele>766.0</ele><time>2026-04-25T14:02:42.528Z</time></trkpt><trkpt lat="43.3925067" lon="12.9959721"><ele>766.0</ele><time>2026-04-25T14:02:44.526Z</time></trkpt><trkpt lat="43.3925877" lon="12.9959532"><ele>766.0</ele><time>2026-04-25T14:02:48.525Z</time></trkpt><trkpt lat="43.3926721" lon="12.9960481"><ele>766.0</ele><time>2026-04-25T14:02:50.53Z</time></trkpt><trkpt lat="43.3927342" lon="12.9961241"><ele>766.0</ele><time>2026-04-25T14:02:51.53Z</time></trkpt><trkpt lat="43.3928051" lon="12.9962106"><ele>766.0</ele><time>2026-04-25T14:02:52.532Z</time></trkpt><trkpt lat="43.3928867" lon="12.9963077"><ele>766.0</ele><time>2026-04-25T14:02:53.53Z</time></trkpt><trkpt lat="43.3929618" lon="12.9963876"><ele>763.2857142857142</ele><time>2026-04-25T14:02:54.535Z</time></trkpt><trkpt lat="43.3930139" lon="12.9964511"><ele>760.5714285714286</ele><time>2026-04-25T14:02:55.527Z</time></trkpt><trkpt lat="43.3930646" lon="12.9965078"><ele>757.8571428571429</ele><time>2026-04-25T14:02:56.533Z</time></trkpt><trkpt lat="43.3931146" lon="12.9965814"><ele>755.1428571428571</ele><time>2026-04-25T14:02:57.532Z</time></trkpt><trkpt lat="43.3931788" lon="12.9966478"><ele>752.4285714285714</ele><time>2026-04-25T14:02:58.539Z</time></trkpt><trkpt lat="43.3932435" lon="12.9967111"><ele>749.7142857142857</ele><time>2026-04-25T14:02:59.546Z</time></trkpt><trkpt lat="43.3933061" lon="12.9967678"><ele>747.0</ele><time>2026-04-25T14:03:00.547Z</time></trkpt><trkpt lat="43.3933746" lon="12.9968212"><ele>747.0</ele><time>2026-04-25T14:03:01.542Z</time></trkpt><trkpt lat="43.3934509" lon="12.9968703"><ele>747.0</ele><time>2026-04-25T14:03:02.535Z</time></trkpt><trkpt lat="43.3935338" lon="12.9969087"><ele>747.0</ele><time>2026-04-25T14:03:03.544Z</time></trkpt><trkpt lat="43.3936054" lon="12.9969511"><ele>747.0</ele><time>2026-04-25T14:03:04.538Z</time></trkpt><trkpt lat="43.393683" lon="12.9969802"><ele>747.0</ele><time>2026-04-25T14:03:05.537Z</time></trkpt><trkpt lat="43.3937556" lon="12.9970048"><ele>747.0</ele><time>2026-04-25T14:03:06.531Z</time></trkpt><trkpt lat="43.3938242" lon="12.9970345"><ele>745.6666666666666</ele><time>2026-04-25T14:03:07.538Z</time></trkpt><trkpt lat="43.3938972" lon="12.9970591"><ele>744.3333333333334</ele><time>2026-04-25T14:03:08.534Z</time></trkpt><trkpt lat="43.3939692" lon="12.9970764"><ele>743.0</ele><time>2026-04-25T14:03:09.539Z</time></trkpt><trkpt lat="43.3940441" lon="12.9970958"><ele>741.6666666666667</ele><time>2026-04-25T14:03:10.536Z</time></trkpt><trkpt lat="43.3941218" lon="12.9971202"><ele>740.3333333333334</ele><time>2026-04-25T14:03:11.536Z</time></trkpt><trkpt lat="43.3942026" lon="12.9971565"><ele>739.0</ele><time>2026-04-25T14:03:12.535Z</time></trkpt><trkpt lat="43.394277" lon="12.9972021"><ele>739.0</ele><time>2026-04-25T14:03:13.544Z</time></trkpt><trkpt lat="43.3943587" lon="12.9972275"><ele>739.0</ele><time>2026-04-25T14:03:14.546Z</time></trkpt><trkpt lat="43.3944343" lon="12.9972518"><ele>739.0</ele><time>2026-04-25T14:03:15.536Z</time></trkpt><trkpt lat="43.3945091" lon="12.9972842"><ele>739.0</ele><time>2026-04-25T14:03:16.529Z</time></trkpt><trkpt lat="43.3945785" lon="12.9973211"><ele>739.0</ele><time>2026-04-25T14:03:17.526Z</time></trkpt><trkpt lat="43.3946377" lon="12.9973752"><ele>739.0</ele><time>2026-04-25T14:03:18.546Z</time></trkpt><trkpt lat="43.3946948" lon="12.9974469"><ele>737.3333333333334</ele><time>2026-04-25T14:03:19.525Z</time></trkpt><trkpt lat="43.3947595" lon="12.9975178"><ele>735.6666666666667</ele><time>2026-04-25T14:03:20.544Z</time></trkpt><trkpt lat="43.3948265" lon="12.9975806"><ele>734.0</ele><time>2026-04-25T14:03:21.536Z</time></trkpt><trkpt lat="43.3949005" lon="12.997652"><ele>732.3333333333334</ele><time>2026-04-25T14:03:22.542Z</time></trkpt><trkpt lat="43.3949804" lon="12.9977165"><ele>730.6666666666666</ele><time>2026-04-25T14:03:23.531Z</time></trkpt><trkpt lat="43.395063" lon="12.9977911"><ele>729.0</ele><time>2026-04-25T14:03:24.542Z</time></trkpt><trkpt lat="43.3951418" lon="12.9978565"><ele>729.0</ele><time>2026-04-25T14:03:25.536Z</time></trkpt><trkpt lat="43.395219" lon="12.9979269"><ele>729.0</ele><time>2026-04-25T14:03:26.535Z</time></trkpt><trkpt lat="43.3952994" lon="12.9979962"><ele>729.0</ele><time>2026-04-25T14:03:27.532Z</time></trkpt><trkpt lat="43.39538" lon="12.9980526"><ele>729.0</ele><time>2026-04-25T14:03:28.541Z</time></trkpt><trkpt lat="43.395452" lon="12.9981108"><ele>729.0</ele><time>2026-04-25T14:03:29.539Z</time></trkpt><trkpt lat="43.3955173" lon="12.9981693"><ele>729.0</ele><time>2026-04-25T14:03:30.546Z</time></trkpt><trkpt lat="43.395572" lon="12.9982242"><ele>727.0</ele><time>2026-04-25T14:03:31.544Z</time></trkpt><trkpt lat="43.3956242" lon="12.9982741"><ele>725.0</ele><time>2026-04-25T14:03:32.546Z</time></trkpt><trkpt lat="43.39568" lon="12.9983159"><ele>723.0</ele><time>2026-04-25T14:03:33.527Z</time></trkpt><trkpt lat="43.395748" lon="12.9983377"><ele>721.0</ele><time>2026-04-25T14:03:34.536Z</time></trkpt><trkpt lat="43.3958237" lon="12.9983338"><ele>719.0</ele><time>2026-04-25T14:03:35.536Z</time></trkpt><trkpt lat="43.3959032" lon="12.9983217"><ele>717.0</ele><time>2026-04-25T14:03:36.537Z</time></trkpt><trkpt lat="43.3959756" lon="12.9983007"><ele>715.0</ele><time>2026-04-25T14:03:37.542Z</time></trkpt><trkpt lat="43.3960445" lon="12.9982856"><ele>714.4</ele><time>2026-04-25T14:03:38.535Z</time></trkpt><trkpt lat="43.3961141" lon="12.9982717"><ele>713.8</ele><time>2026-04-25T14:03:39.534Z</time></trkpt><trkpt lat="43.3962326" lon="12.9982563"><ele>713.2</ele><time>2026-04-25T14:03:41.538Z</time></trkpt><trkpt lat="43.3963413" lon="12.9982403"><ele>712.6</ele><time>2026-04-25T14:03:43.538Z</time></trkpt><trkpt lat="43.3964404" lon="12.9982161"><ele>712.0</ele><time>2026-04-25T14:03:45.547Z</time></trkpt><trkpt lat="43.3965268" lon="12.998197"><ele>711.3333333333334</ele><time>2026-04-25T14:03:47.538Z</time></trkpt><trkpt lat="43.3966041" lon="12.9981736"><ele>710.6666666666667</ele><time>2026-04-25T14:03:49.538Z</time></trkpt><trkpt lat="43.3966888" lon="12.9981469"><ele>710.0</ele><time>2026-04-25T14:03:51.537Z</time></trkpt><trkpt lat="43.3967662" lon="12.9981238"><ele>709.3333333333334</ele><time>2026-04-25T14:03:53.531Z</time></trkpt><trkpt lat="43.3968519" lon="12.9981121"><ele>708.6666666666666</ele><time>2026-04-25T14:03:55.536Z</time></trkpt><trkpt lat="43.3969689" lon="12.9981184"><ele>708.0</ele><time>2026-04-25T14:03:57.538Z</time></trkpt><trkpt lat="43.3970396" lon="12.9981245"><ele>708.0</ele><time>2026-04-25T14:03:58.533Z</time></trkpt><trkpt lat="43.3971085" lon="12.998124"><ele>708.0</ele><time>2026-04-25T14:03:59.54Z</time></trkpt><trkpt lat="43.3971746" lon="12.9981228"><ele>708.0</ele><time>2026-04-25T14:04:00.534Z</time></trkpt><trkpt lat="43.3972446" lon="12.9981202"><ele>708.0</ele><time>2026-04-25T14:04:01.533Z</time></trkpt><trkpt lat="43.3973232" lon="12.9981272"><ele>708.0</ele><time>2026-04-25T14:04:02.535Z</time></trkpt><trkpt lat="43.3973994" lon="12.9981369"><ele>708.0</ele><time>2026-04-25T14:04:03.529Z</time></trkpt><trkpt lat="43.3974795" lon="12.9981626"><ele>708.0</ele><time>2026-04-25T14:04:04.53Z</time></trkpt><trkpt lat="43.3975604" lon="12.9981977"><ele>708.5</ele><time>2026-04-25T14:04:05.53Z</time></trkpt><trkpt lat="43.3976385" lon="12.9982311"><ele>709.0</ele><time>2026-04-25T14:04:06.538Z</time></trkpt><trkpt lat="43.397716" lon="12.9982719"><ele>709.5</ele><time>2026-04-25T14:04:07.525Z</time></trkpt><trkpt lat="43.3978076" lon="12.9983083"><ele>710.0</ele><time>2026-04-25T14:04:08.524Z</time></trkpt><trkpt lat="43.3979018" lon="12.9983423"><ele>710.5</ele><time>2026-04-25T14:04:09.526Z</time></trkpt><trkpt lat="43.3979863" lon="12.9983841"><ele>711.0</ele><time>2026-04-25T14:04:10.525Z</time></trkpt><trkpt lat="43.3980692" lon="12.998451"><ele>712.4</ele><time>2026-04-25T14:04:11.531Z</time></trkpt><trkpt lat="43.3981423" lon="12.9985157"><ele>713.8</ele><time>2026-04-25T14:04:12.531Z</time></trkpt><trkpt lat="43.3982329" lon="12.9985743"><ele>715.1999999999999</ele><time>2026-04-25T14:04:13.527Z</time></trkpt><trkpt lat="43.3983219" lon="12.9986414"><ele>716.5999999999999</ele><time>2026-04-25T14:04:14.532Z</time></trkpt><trkpt lat="43.3984184" lon="12.9987218"><ele>718.0</ele><time>2026-04-25T14:04:15.537Z</time></trkpt><trkpt lat="43.3985173" lon="12.9987958"><ele>718.0</ele><time>2026-04-25T14:04:16.542Z</time></trkpt><trkpt lat="43.3986185" lon="12.9988688"><ele>718.0</ele><time>2026-04-25T14:04:17.536Z</time></trkpt><trkpt lat="43.3987235" lon="12.9989352"><ele>718.0</ele><time>2026-04-25T14:04:18.537Z</time></trkpt><trkpt lat="43.3988161" lon="12.9990161"><ele>718.0</ele><time>2026-04-25T14:04:19.531Z</time></trkpt><trkpt lat="43.3989053" lon="12.9990954"><ele>718.0</ele><time>2026-04-25T14:04:20.533Z</time></trkpt><trkpt lat="43.3990032" lon="12.9991494"><ele>718.25</ele><time>2026-04-25T14:04:21.534Z</time></trkpt><trkpt lat="43.3991055" lon="12.9991956"><ele>718.5</ele><time>2026-04-25T14:04:22.54Z</time></trkpt><trkpt lat="43.3992224" lon="12.9992089"><ele>718.75</ele><time>2026-04-25T14:04:23.533Z</time></trkpt><trkpt lat="43.3993465" lon="12.9992251"><ele>719.0</ele><time>2026-04-25T14:04:24.54Z</time></trkpt><trkpt lat="43.3994665" lon="12.9992569"><ele>719.0</ele><time>2026-04-25T14:04:25.535Z</time></trkpt><trkpt lat="43.3995851" lon="12.9992897"><ele>719.0</ele><time>2026-04-25T14:04:26.536Z</time></trkpt><trkpt lat="43.3997104" lon="12.999328"><ele>719.0</ele><time>2026-04-25T14:04:27.532Z</time></trkpt><trkpt lat="43.399832" lon="12.999375"><ele>719.0</ele><time>2026-04-25T14:04:28.537Z</time></trkpt><trkpt lat="43.3999467" lon="12.9994124"><ele>719.2</ele><time>2026-04-25T14:04:29.535Z</time></trkpt><trkpt lat="43.40006" lon="12.9994504"><ele>719.4000000000001</ele><time>2026-04-25T14:04:30.538Z</time></trkpt><trkpt lat="43.4001582" lon="12.9994825"><ele>719.6</ele><time>2026-04-25T14:04:31.535Z</time></trkpt><trkpt lat="43.4002535" lon="12.9995124"><ele>719.8</ele><time>2026-04-25T14:04:32.535Z</time></trkpt><trkpt lat="43.4003484" lon="12.9995488"><ele>720.0</ele><time>2026-04-25T14:04:33.532Z</time></trkpt><trkpt lat="43.4004482" lon="12.999585"><ele>717.75</ele><time>2026-04-25T14:04:34.537Z</time></trkpt><trkpt lat="43.400556" lon="12.9996245"><ele>715.5</ele><time>2026-04-25T14:04:35.533Z</time></trkpt><trkpt lat="43.4006636" lon="12.9996756"><ele>713.25</ele><time>2026-04-25T14:04:36.533Z</time></trkpt><trkpt lat="43.4007768" lon="12.999724"><ele>711.0</ele><time>2026-04-25T14:04:37.534Z</time></trkpt><trkpt lat="43.4008844" lon="12.9997746"><ele>711.0</ele><time>2026-04-25T14:04:38.538Z</time></trkpt><trkpt lat="43.4009791" lon="12.9998264"><ele>711.0</ele><time>2026-04-25T14:04:39.527Z</time></trkpt><trkpt lat="43.4010746" lon="12.9998792"><ele>711.0</ele><time>2026-04-25T14:04:40.541Z</time></trkpt><trkpt lat="43.4011639" lon="12.9999273"><ele>711.0</ele><time>2026-04-25T14:04:41.543Z</time></trkpt><trkpt lat="43.40125" lon="12.9999731"><ele>711.0</ele><time>2026-04-25T14:04:42.531Z</time></trkpt><trkpt lat="43.4013425" lon="13.0000095"><ele>709.0</ele><time>2026-04-25T14:04:43.534Z</time></trkpt><trkpt lat="43.401441" lon="13.0000237"><ele>707.0</ele><time>2026-04-25T14:04:44.536Z</time></trkpt><trkpt lat="43.4015406" lon="13.0000292"><ele>705.0</ele><time>2026-04-25T14:04:45.541Z</time></trkpt><trkpt lat="43.4016374" lon="13.0000311"><ele>703.0</ele><time>2026-04-25T14:04:46.539Z</time></trkpt><trkpt lat="43.4017311" lon="13.0000364"><ele>701.0</ele><time>2026-04-25T14:04:47.548Z</time></trkpt><trkpt lat="43.4018305" lon="13.0000318"><ele>701.0</ele><time>2026-04-25T14:04:48.539Z</time></trkpt><trkpt lat="43.4019261" lon="13.0000221"><ele>701.0</ele><time>2026-04-25T14:04:49.541Z</time></trkpt><trkpt lat="43.4020342" lon="13.0000191"><ele>701.0</ele><time>2026-04-25T14:04:50.542Z</time></trkpt><trkpt lat="43.4021384" lon="13.000017"><ele>701.0</ele><time>2026-04-25T14:04:51.543Z</time></trkpt><trkpt lat="43.4022431" lon="13.0000055"><ele>701.0</ele><time>2026-04-25T14:04:52.539Z</time></trkpt><trkpt lat="43.4023442" lon="12.9999942"><ele>699.1999999999999</ele><time>2026-04-25T14:04:53.553Z</time></trkpt><trkpt lat="43.4024426" lon="12.999992"><ele>697.4</ele><time>2026-04-25T14:04:54.546Z</time></trkpt><trkpt lat="43.4025428" lon="12.9999929"><ele>695.6</ele><time>2026-04-25T14:04:55.557Z</time></trkpt><trkpt lat="43.4026415" lon="12.9999877"><ele>693.8</ele><time>2026-04-25T14:04:56.547Z</time></trkpt><trkpt lat="43.4027335" lon="12.9999876"><ele>692.0</ele><time>2026-04-25T14:04:57.544Z</time></trkpt><trkpt lat="43.40282" lon="12.9999895"><ele>692.0</ele><time>2026-04-25T14:04:58.541Z</time></trkpt><trkpt lat="43.4029072" lon="12.9999938"><ele>692.0</ele><time>2026-04-25T14:04:59.543Z</time></trkpt><trkpt lat="43.4029936" lon="12.9999831"><ele>692.0</ele><time>2026-04-25T14:05:00.541Z</time></trkpt><trkpt lat="43.4030742" lon="12.9999777"><ele>692.0</ele><time>2026-04-25T14:05:01.546Z</time></trkpt><trkpt lat="43.4031575" lon="12.9999656"><ele>692.0</ele><time>2026-04-25T14:05:02.542Z</time></trkpt><trkpt lat="43.4032373" lon="12.999956"><ele>692.0</ele><time>2026-04-25T14:05:03.544Z</time></trkpt><trkpt lat="43.4033046" lon="12.9999457"><ele>691.0</ele><time>2026-04-25T14:05:04.545Z</time></trkpt><trkpt lat="43.4033768" lon="12.9999243"><ele>690.0</ele><time>2026-04-25T14:05:05.545Z</time></trkpt><trkpt lat="43.4034421" lon="12.9999103"><ele>689.0</ele><time>2026-04-25T14:05:06.533Z</time></trkpt><trkpt lat="43.4035046" lon="12.9998937"><ele>688.0</ele><time>2026-04-25T14:05:07.546Z</time></trkpt><trkpt lat="43.4036196" lon="12.9998391"><ele>687.0</ele><time>2026-04-25T14:05:09.548Z</time></trkpt><trkpt lat="43.4036881" lon="12.9997351"><ele>686.0</ele><time>2026-04-25T14:05:11.54Z</time></trkpt><trkpt lat="43.403724" lon="12.9995953"><ele>686.0</ele><time>2026-04-25T14:05:13.536Z</time></trkpt><trkpt lat="43.4037243" lon="12.9995049"><ele>686.0</ele><time>2026-04-25T14:05:14.544Z</time></trkpt><trkpt lat="43.4037133" lon="12.9994137"><ele>686.0</ele><time>2026-04-25T14:05:15.541Z</time></trkpt><trkpt lat="43.4036893" lon="12.9993037"><ele>686.0</ele><time>2026-04-25T14:05:16.55Z</time></trkpt><trkpt lat="43.4036591" lon="12.9991969"><ele>686.0</ele><time>2026-04-25T14:05:17.548Z</time></trkpt><trkpt lat="43.4036342" lon="12.9990929"><ele>686.0</ele><time>2026-04-25T14:05:18.562Z</time></trkpt><trkpt lat="43.4035984" lon="12.9989855"><ele>685.6666666666666</ele><time>2026-04-25T14:05:19.544Z</time></trkpt><trkpt lat="43.4035637" lon="12.9988839"><ele>685.3333333333333</ele><time>2026-04-25T14:05:20.557Z</time></trkpt><trkpt lat="43.4035379" lon="12.9987904"><ele>685.0</ele><time>2026-04-25T14:05:21.549Z</time></trkpt><trkpt lat="43.4035093" lon="12.9986981"><ele>684.6666666666666</ele><time>2026-04-25T14:05:22.549Z</time></trkpt><trkpt lat="43.4034691" lon="12.9985517"><ele>684.3333333333334</ele><time>2026-04-25T14:05:24.548Z</time></trkpt><trkpt lat="43.4034894" lon="12.9984364"><ele>684.0</ele><time>2026-04-25T14:05:26.55Z</time></trkpt><trkpt lat="43.4035447" lon="12.9983533"><ele>683.4000000000001</ele><time>2026-04-25T14:05:28.55Z</time></trkpt><trkpt lat="43.403642" lon="12.9982315"><ele>682.8</ele><time>2026-04-25T14:05:30.55Z</time></trkpt><trkpt lat="43.4037003" lon="12.9981667"><ele>682.2</ele><time>2026-04-25T14:05:31.55Z</time></trkpt><trkpt lat="43.403755" lon="12.9980995"><ele>681.5999999999999</ele><time>2026-04-25T14:05:32.55Z</time></trkpt><trkpt lat="43.4038502" lon="12.9980179"><ele>681.0</ele><time>2026-04-25T14:05:34.54Z</time></trkpt><trkpt lat="43.4039578" lon="12.9979815"><ele>681.0</ele><time>2026-04-25T14:05:36.55Z</time></trkpt><trkpt lat="43.4040698" lon="12.9979696"><ele>681.0</ele><time>2026-04-25T14:05:38.554Z</time></trkpt><trkpt lat="43.4041708" lon="12.9979444"><ele>681.0</ele><time>2026-04-25T14:05:40.551Z</time></trkpt><trkpt lat="43.4042642" lon="12.9979178"><ele>681.0</ele><time>2026-04-25T14:05:42.554Z</time></trkpt><trkpt lat="43.4043709" lon="12.9978997"><ele>681.0</ele><time>2026-04-25T14:05:44.55Z</time></trkpt><trkpt lat="43.404479" lon="12.9978853"><ele>681.0000000000001</ele><time>2026-04-25T14:05:46.551Z</time></trkpt><trkpt lat="43.4045572" lon="12.997862"><ele>681.0</ele><time>2026-04-25T14:05:48.548Z</time></trkpt><trkpt lat="43.4046292" lon="12.9978581"><ele>681.0</ele><time>2026-04-25T14:05:50.546Z</time></trkpt><trkpt lat="43.4046934" lon="12.9978814"><ele>681.0</ele><time>2026-04-25T14:05:53.554Z</time></trkpt><trkpt lat="43.4047647" lon="12.9979297"><ele>681.0</ele><time>2026-04-25T14:05:56.551Z</time></trkpt><trkpt lat="43.404817" lon="12.9980162"><ele>681.0000000000001</ele><time>2026-04-25T14:06:52.554Z</time></trkpt><trkpt lat="43.4048419" lon="12.9980969"><ele>681.0</ele><time>2026-04-25T14:06:53.54Z</time></trkpt><trkpt lat="43.4048692" lon="12.9982039"><ele>680.5999999999999</ele><time>2026-04-25T14:06:54.556Z</time></trkpt><trkpt lat="43.4049092" lon="12.9983523"><ele>680.2</ele><time>2026-04-25T14:06:55.554Z</time></trkpt><trkpt lat="43.404951" lon="12.9984955"><ele>679.8</ele><time>2026-04-25T14:06:56.561Z</time></trkpt><trkpt lat="43.4049962" lon="12.9986225"><ele>679.4000000000001</ele><time>2026-04-25T14:06:57.556Z</time></trkpt><trkpt lat="43.4050326" lon="12.9987282"><ele>679.0</ele><time>2026-04-25T14:06:58.552Z</time></trkpt><trkpt lat="43.4050686" lon="12.9988459"><ele>679.0</ele><time>2026-04-25T14:06:59.556Z</time></trkpt><trkpt lat="43.4051023" lon="12.9989702"><ele>679.0</ele><time>2026-04-25T14:07:00.554Z</time></trkpt><trkpt lat="43.4051421" lon="12.9990892"><ele>679.0</ele><time>2026-04-25T14:07:01.556Z</time></trkpt><trkpt lat="43.4051797" lon="12.9992049"><ele>679.0</ele><time>2026-04-25T14:07:02.554Z</time></trkpt><trkpt lat="43.4052182" lon="12.9993036"><ele>679.0</ele><time>2026-04-25T14:07:03.555Z</time></trkpt><trkpt lat="43.4052552" lon="12.9993989"><ele>679.0</ele><time>2026-04-25T14:07:04.55Z</time></trkpt><trkpt lat="43.4053001" lon="12.9994905"><ele>678.5</ele><time>2026-04-25T14:07:05.55Z</time></trkpt><trkpt lat="43.4053529" lon="12.9995712"><ele>678.0</ele><time>2026-04-25T14:07:06.55Z</time></trkpt><trkpt lat="43.4054106" lon="12.9996373"><ele>677.5</ele><time>2026-04-25T14:07:07.549Z</time></trkpt><trkpt lat="43.4054701" lon="12.9996994"><ele>677.0</ele><time>2026-04-25T14:07:08.556Z</time></trkpt><trkpt lat="43.4055382" lon="12.9997599"><ele>676.5</ele><time>2026-04-25T14:07:09.552Z</time></trkpt><trkpt lat="43.4056103" lon="12.9998279"><ele>676.0</ele><time>2026-04-25T14:07:10.558Z</time></trkpt><trkpt lat="43.4056978" lon="12.9998971"><ele>675.5</ele><time>2026-04-25T14:07:11.556Z</time></trkpt><trkpt lat="43.4057783" lon="12.9999612"><ele>675.0</ele><time>2026-04-25T14:07:12.558Z</time></trkpt><trkpt lat="43.4058567" lon="13.0000275"><ele>674.5</ele><time>2026-04-25T14:07:13.562Z</time></trkpt><trkpt lat="43.4059264" lon="13.0000893"><ele>674.0</ele><time>2026-04-25T14:07:14.557Z</time></trkpt><trkpt lat="43.4060038" lon="13.0001493"><ele>673.5</ele><time>2026-04-25T14:07:15.56Z</time></trkpt><trkpt lat="43.4060713" lon="13.0002053"><ele>673.0</ele><time>2026-04-25T14:07:16.558Z</time></trkpt><trkpt lat="43.4061442" lon="13.0002596"><ele>673.0</ele><time>2026-04-25T14:07:17.556Z</time></trkpt><trkpt lat="43.4062127" lon="13.0003121"><ele>673.0</ele><time>2026-04-25T14:07:18.566Z</time></trkpt><trkpt lat="43.4062938" lon="13.0003669"><ele>673.0</ele><time>2026-04-25T14:07:19.555Z</time></trkpt><trkpt lat="43.406388" lon="13.0004269"><ele>673.0</ele><time>2026-04-25T14:07:20.563Z</time></trkpt><trkpt lat="43.4064799" lon="13.0004863"><ele>673.0</ele><time>2026-04-25T14:07:21.562Z</time></trkpt><trkpt lat="43.4065786" lon="13.0005546"><ele>673.2</ele><time>2026-04-25T14:07:22.557Z</time></trkpt><trkpt lat="43.4066789" lon="13.0006291"><ele>673.4</ele><time>2026-04-25T14:07:23.549Z</time></trkpt><trkpt lat="43.4067791" lon="13.0006982"><ele>673.6</ele><time>2026-04-25T14:07:24.557Z</time></trkpt><trkpt lat="43.4068742" lon="13.0007703"><ele>673.8000000000001</ele><time>2026-04-25T14:07:25.543Z</time></trkpt><trkpt lat="43.406971" lon="13.0008515"><ele>674.0</ele><time>2026-04-25T14:07:26.544Z</time></trkpt><trkpt lat="43.4070662" lon="13.0009108"><ele>673.8000000000001</ele><time>2026-04-25T14:07:27.55Z</time></trkpt><trkpt lat="43.407146" lon="13.0009616"><ele>673.6</ele><time>2026-04-25T14:07:28.541Z</time></trkpt><trkpt lat="43.4072191" lon="13.0010064"><ele>673.4</ele><time>2026-04-25T14:07:29.544Z</time></trkpt><trkpt lat="43.4072933" lon="13.0011082"><ele>673.2</ele><time>2026-04-25T14:07:31.548Z</time></trkpt><trkpt lat="43.4072444" lon="13.0012229"><ele>673.0</ele><time>2026-04-25T14:07:33.537Z</time></trkpt><trkpt lat="43.4071086" lon="13.0012396"><ele>671.2</ele><time>2026-04-25T14:07:35.532Z</time></trkpt><trkpt lat="43.4070074" lon="13.0012063"><ele>669.4</ele><time>2026-04-25T14:07:36.527Z</time></trkpt><trkpt lat="43.4069062" lon="13.0011699"><ele>667.6</ele><time>2026-04-25T14:07:37.532Z</time></trkpt><trkpt lat="43.4067834" lon="13.0011472"><ele>665.8000000000001</ele><time>2026-04-25T14:07:38.538Z</time></trkpt><trkpt lat="43.4066701" lon="13.0011369"><ele>664.0</ele><time>2026-04-25T14:07:39.524Z</time></trkpt><trkpt lat="43.4065651" lon="13.0011494"><ele>664.0</ele><time>2026-04-25T14:07:40.531Z</time></trkpt><trkpt lat="43.4064493" lon="13.0011861"><ele>664.0</ele><time>2026-04-25T14:07:41.528Z</time></trkpt><trkpt lat="43.4063319" lon="13.001248"><ele>664.0</ele><time>2026-04-25T14:07:42.531Z</time></trkpt><trkpt lat="43.4062194" lon="13.001329"><ele>664.0</ele><time>2026-04-25T14:07:43.529Z</time></trkpt><trkpt lat="43.4061239" lon="13.0014351"><ele>664.4000000000001</ele><time>2026-04-25T14:07:44.533Z</time></trkpt><trkpt lat="43.4060335" lon="13.0015392"><ele>664.8</ele><time>2026-04-25T14:07:45.538Z</time></trkpt><trkpt lat="43.4059619" lon="13.0016379"><ele>665.2</ele><time>2026-04-25T14:07:46.544Z</time></trkpt><trkpt lat="43.4058985" lon="13.001743"><ele>665.5999999999999</ele><time>2026-04-25T14:07:47.543Z</time></trkpt><trkpt lat="43.4058363" lon="13.0018639"><ele>666.0</ele><time>2026-04-25T14:07:48.544Z</time></trkpt><trkpt lat="43.4057841" lon="13.0020035"><ele>662.75</ele><time>2026-04-25T14:07:49.536Z</time></trkpt><trkpt lat="43.4057369" lon="13.0021701"><ele>659.5</ele><time>2026-04-25T14:07:50.549Z</time></trkpt><trkpt lat="43.4056894" lon="13.0023495"><ele>656.25</ele><time>2026-04-25T14:07:51.542Z</time></trkpt><trkpt lat="43.4056612" lon="13.0025347"><ele>653.0</ele><time>2026-04-25T14:07:52.551Z</time></trkpt><trkpt lat="43.4056386" lon="13.0027174"><ele>649.75</ele><time>2026-04-25T14:07:53.548Z</time></trkpt><trkpt lat="43.4056129" lon="13.0028964"><ele>646.5</ele><time>2026-04-25T14:07:54.549Z</time></trkpt><trkpt lat="43.4055729" lon="13.0030754"><ele>643.25</ele><time>2026-04-25T14:07:55.554Z</time></trkpt><trkpt lat="43.4055394" lon="13.00324"><ele>640.0</ele><time>2026-04-25T14:07:56.549Z</time></trkpt><trkpt lat="43.405499" lon="13.0034004"><ele>642.25</ele><time>2026-04-25T14:07:57.556Z</time></trkpt><trkpt lat="43.4054511" lon="13.0035586"><ele>644.5</ele><time>2026-04-25T14:07:58.55Z</time></trkpt><trkpt lat="43.4054067" lon="13.0037117"><ele>646.75</ele><time>2026-04-25T14:07:59.556Z</time></trkpt><trkpt lat="43.4053567" lon="13.0038651"><ele>649.0</ele><time>2026-04-25T14:08:00.55Z</time></trkpt><trkpt lat="43.4053083" lon="13.0040108"><ele>649.0</ele><time>2026-04-25T14:08:01.56Z</time></trkpt><trkpt lat="43.4052579" lon="13.0041547"><ele>649.0</ele><time>2026-04-25T14:08:02.552Z</time></trkpt><trkpt lat="43.4052008" lon="13.0043066"><ele>649.0</ele><time>2026-04-25T14:08:03.552Z</time></trkpt><trkpt lat="43.4051389" lon="13.0044432"><ele>649.0</ele><time>2026-04-25T14:08:04.546Z</time></trkpt><trkpt lat="43.405064" lon="13.0045921"><ele>646.5</ele><time>2026-04-25T14:08:05.549Z</time></trkpt><trkpt lat="43.4049846" lon="13.004738"><ele>644.0</ele><time>2026-04-25T14:08:06.549Z</time></trkpt><trkpt lat="43.4049083" lon="13.0048834"><ele>641.5</ele><time>2026-04-25T14:08:07.547Z</time></trkpt><trkpt lat="43.4048386" lon="13.0050185"><ele>639.0</ele><time>2026-04-25T14:08:08.55Z</time></trkpt><trkpt lat="43.40477" lon="13.0051321"><ele>638.8</ele><time>2026-04-25T14:08:09.546Z</time></trkpt><trkpt lat="43.404703" lon="13.0052258"><ele>638.5999999999999</ele><time>2026-04-25T14:08:10.555Z</time></trkpt><trkpt lat="43.4046333" lon="13.0053158"><ele>638.4</ele><time>2026-04-25T14:08:11.546Z</time></trkpt><trkpt lat="43.4045682" lon="13.0053921"><ele>638.1999999999999</ele><time>2026-04-25T14:08:12.55Z</time></trkpt><trkpt lat="43.4045019" lon="13.0054673"><ele>638.0</ele><time>2026-04-25T14:08:13.552Z</time></trkpt><trkpt lat="43.4044206" lon="13.0055397"><ele>638.0</ele><time>2026-04-25T14:08:14.552Z</time></trkpt><trkpt lat="43.404326" lon="13.0056108"><ele>638.0</ele><time>2026-04-25T14:08:15.547Z</time></trkpt><trkpt lat="43.4042312" lon="13.0056883"><ele>638.0</ele><time>2026-04-25T14:08:16.563Z</time></trkpt><trkpt lat="43.4041354" lon="13.0057664"><ele>638.0</ele><time>2026-04-25T14:08:17.549Z</time></trkpt><trkpt lat="43.4040405" lon="13.0058459"><ele>638.0</ele><time>2026-04-25T14:08:18.558Z</time></trkpt><trkpt lat="43.4039446" lon="13.0059202"><ele>634.6</ele><time>2026-04-25T14:08:19.544Z</time></trkpt><trkpt lat="43.4038504" lon="13.0059922"><ele>631.1999999999999</ele><time>2026-04-25T14:08:20.558Z</time></trkpt><trkpt lat="43.4037491" lon="13.0060519"><ele>627.8</ele><time>2026-04-25T14:08:21.55Z</time></trkpt><trkpt lat="43.4036562" lon="13.0061057"><ele>624.4</ele><time>2026-04-25T14:08:22.543Z</time></trkpt><trkpt lat="43.4035655" lon="13.0061487"><ele>621.0</ele><time>2026-04-25T14:08:23.538Z</time></trkpt><trkpt lat="43.4034586" lon="13.0061822"><ele>621.0</ele><time>2026-04-25T14:08:24.533Z</time></trkpt><trkpt lat="43.403357" lon="13.0062061"><ele>621.0</ele><time>2026-04-25T14:08:25.546Z</time></trkpt><trkpt lat="43.4032425" lon="13.0062389"><ele>621.0</ele><time>2026-04-25T14:08:26.545Z</time></trkpt><trkpt lat="43.4031612" lon="13.0062438"><ele>621.0</ele><time>2026-04-25T14:08:27.545Z</time></trkpt><trkpt lat="43.4030777" lon="13.0062501"><ele>621.0</ele><time>2026-04-25T14:08:28.548Z</time></trkpt><trkpt lat="43.4029869" lon="13.0062631"><ele>619.6</ele><time>2026-04-25T14:08:29.549Z</time></trkpt><trkpt lat="43.4028955" lon="13.0062667"><ele>618.2</ele><time>2026-04-25T14:08:30.538Z</time></trkpt><trkpt lat="43.4028019" lon="13.0062487"><ele>616.8</ele><time>2026-04-25T14:08:31.544Z</time></trkpt><trkpt lat="43.4027153" lon="13.0062169"><ele>615.4</ele><time>2026-04-25T14:08:32.538Z</time></trkpt><trkpt lat="43.4025919" lon="13.0062124"><ele>614.0</ele><time>2026-04-25T14:08:34.534Z</time></trkpt><trkpt lat="43.4025291" lon="13.0062295"><ele>614.0</ele><time>2026-04-25T14:08:35.527Z</time></trkpt><trkpt lat="43.4024405" lon="13.0063265"><ele>614.0</ele><time>2026-04-25T14:08:37.534Z</time></trkpt><trkpt lat="43.4024455" lon="13.0065039"><ele>614.0</ele><time>2026-04-25T14:08:39.526Z</time></trkpt><trkpt lat="43.402468" lon="13.0065939"><ele>614.0</ele><time>2026-04-25T14:08:40.526Z</time></trkpt><trkpt lat="43.4024867" lon="13.0066833"><ele>614.0</ele><time>2026-04-25T14:08:41.536Z</time></trkpt><trkpt lat="43.4025136" lon="13.0068251"><ele>612.0</ele><time>2026-04-25T14:08:43.535Z</time></trkpt><trkpt lat="43.4025408" lon="13.0069219"><ele>610.0</ele><time>2026-04-25T14:08:46.536Z</time></trkpt><trkpt lat="43.4026428" lon="13.0069743"><ele>608.0</ele><time>2026-04-25T14:08:55.531Z</time></trkpt><trkpt lat="43.402725" lon="13.0069951"><ele>606.0</ele><time>2026-04-25T14:08:56.532Z</time></trkpt><trkpt lat="43.4028059" lon="13.0070259"><ele>604.0</ele><time>2026-04-25T14:08:57.531Z</time></trkpt><trkpt lat="43.4029039" lon="13.0070774"><ele>604.0</ele><time>2026-04-25T14:08:58.534Z</time></trkpt><trkpt lat="43.4029862" lon="13.0071222"><ele>604.0</ele><time>2026-04-25T14:08:59.537Z</time></trkpt><trkpt lat="43.4030514" lon="13.0071552"><ele>604.0</ele><time>2026-04-25T14:09:00.538Z</time></trkpt><trkpt lat="43.4031823" lon="13.0071545"><ele>604.0</ele><time>2026-04-25T14:09:02.536Z</time></trkpt><trkpt lat="43.4032471" lon="13.0071236"><ele>604.0</ele><time>2026-04-25T14:09:03.544Z</time></trkpt><trkpt lat="43.4033126" lon="13.0070936"><ele>604.0</ele><time>2026-04-25T14:09:04.54Z</time></trkpt><trkpt lat="43.4033702" lon="13.0070514"><ele>603.5</ele><time>2026-04-25T14:09:05.543Z</time></trkpt><trkpt lat="43.4034392" lon="13.0070169"><ele>603.0</ele><time>2026-04-25T14:09:06.534Z</time></trkpt><trkpt lat="43.4035087" lon="13.0069999"><ele>602.5</ele><time>2026-04-25T14:09:07.538Z</time></trkpt><trkpt lat="43.4036292" lon="13.006998"><ele>602.0</ele><time>2026-04-25T14:09:09.541Z</time></trkpt><trkpt lat="43.4037125" lon="13.0069845"><ele>601.5</ele><time>2026-04-25T14:09:10.531Z</time></trkpt><trkpt lat="43.4038103" lon="13.0069615"><ele>601.0</ele><time>2026-04-25T14:09:11.535Z</time></trkpt><trkpt lat="43.4039241" lon="13.0069221"><ele>598.5</ele><time>2026-04-25T14:09:12.537Z</time></trkpt><trkpt lat="43.4040383" lon="13.0068694"><ele>596.0</ele><time>2026-04-25T14:09:13.535Z</time></trkpt><trkpt lat="43.4041658" lon="13.006812"><ele>593.5</ele><time>2026-04-25T14:09:14.537Z</time></trkpt><trkpt lat="43.4042962" lon="13.0067473"><ele>591.0</ele><time>2026-04-25T14:09:15.546Z</time></trkpt><trkpt lat="43.4044199" lon="13.0067025"><ele>591.0</ele><time>2026-04-25T14:09:16.542Z</time></trkpt><trkpt lat="43.4045294" lon="13.0066682"><ele>591.0</ele><time>2026-04-25T14:09:17.541Z</time></trkpt><trkpt lat="43.4046383" lon="13.0066461"><ele>591.0</ele><time>2026-04-25T14:09:18.538Z</time></trkpt><trkpt lat="43.4047509" lon="13.0066476"><ele>591.0</ele><time>2026-04-25T14:09:19.536Z</time></trkpt><trkpt lat="43.4048586" lon="13.006674"><ele>591.0</ele><time>2026-04-25T14:09:20.536Z</time></trkpt><trkpt lat="43.4049531" lon="13.0066929"><ele>592.8333333333334</ele><time>2026-04-25T14:09:21.545Z</time></trkpt><trkpt lat="43.405057" lon="13.0067002"><ele>594.6666666666666</ele><time>2026-04-25T14:09:22.542Z</time></trkpt><trkpt lat="43.4051456" lon="13.0067012"><ele>596.5</ele><time>2026-04-25T14:09:23.543Z</time></trkpt><trkpt lat="43.4052225" lon="13.0066853"><ele>598.3333333333333</ele><time>2026-04-25T14:09:24.538Z</time></trkpt><trkpt lat="43.4052946" lon="13.0066442"><ele>600.1666666666666</ele><time>2026-04-25T14:09:25.543Z</time></trkpt><trkpt lat="43.405353" lon="13.0065844"><ele>602.0</ele><time>2026-04-25T14:09:26.537Z</time></trkpt><trkpt lat="43.4053974" lon="13.0064831"><ele>602.0</ele><time>2026-04-25T14:09:27.543Z</time></trkpt><trkpt lat="43.4054299" lon="13.0063605"><ele>602.0</ele><time>2026-04-25T14:09:28.531Z</time></trkpt><trkpt lat="43.4054679" lon="13.0062105"><ele>602.0</ele><time>2026-04-25T14:09:29.533Z</time></trkpt><trkpt lat="43.4055055" lon="13.0060504"><ele>602.0</ele><time>2026-04-25T14:09:30.532Z</time></trkpt><trkpt lat="43.4055616" lon="13.005899"><ele>601.2</ele><time>2026-04-25T14:09:31.528Z</time></trkpt><trkpt lat="43.4056309" lon="13.0057666"><ele>600.4000000000001</ele><time>2026-04-25T14:09:32.526Z</time></trkpt><trkpt lat="43.4057043" lon="13.005666"><ele>599.5999999999999</ele><time>2026-04-25T14:09:33.525Z</time></trkpt><trkpt lat="43.4057829" lon="13.0055775"><ele>598.8</ele><time>2026-04-25T14:09:34.525Z</time></trkpt><trkpt lat="43.4058712" lon="13.0054935"><ele>598.0</ele><time>2026-04-25T14:09:35.514Z</time></trkpt><trkpt lat="43.4059528" lon="13.0054286"><ele>598.0</ele><time>2026-04-25T14:09:36.514Z</time></trkpt><trkpt lat="43.4060387" lon="13.005363"><ele>598.0</ele><time>2026-04-25T14:09:37.518Z</time></trkpt><trkpt lat="43.4061301" lon="13.005281"><ele>598.0</ele><time>2026-04-25T14:09:38.513Z</time></trkpt><trkpt lat="43.4062112" lon="13.0051852"><ele>598.0</ele><time>2026-04-25T14:09:39.519Z</time></trkpt><trkpt lat="43.4062829" lon="13.0050887"><ele>598.0</ele><time>2026-04-25T14:09:40.512Z</time></trkpt><trkpt lat="43.4063553" lon="13.0049876"><ele>594.6</ele><time>2026-04-25T14:09:41.516Z</time></trkpt><trkpt lat="43.406418" lon="13.004873"><ele>591.1999999999999</ele><time>2026-04-25T14:09:42.514Z</time></trkpt><trkpt lat="43.4064861" lon="13.0047589"><ele>587.8</ele><time>2026-04-25T14:09:43.528Z</time></trkpt><trkpt lat="43.4065551" lon="13.0046268"><ele>584.4</ele><time>2026-04-25T14:09:44.52Z</time></trkpt><trkpt lat="43.4066149" lon="13.0044873"><ele>581.0</ele><time>2026-04-25T14:09:45.521Z</time></trkpt><trkpt lat="43.4066546" lon="13.004344"><ele>581.0</ele><time>2026-04-25T14:09:46.519Z</time></trkpt><trkpt lat="43.4067011" lon="13.0042164"><ele>581.0</ele><time>2026-04-25T14:09:47.52Z</time></trkpt><trkpt lat="43.4067425" lon="13.0040938"><ele>581.0</ele><time>2026-04-25T14:09:48.518Z</time></trkpt><trkpt lat="43.4067835" lon="13.0039876"><ele>581.0</ele><time>2026-04-25T14:09:49.514Z</time></trkpt><trkpt lat="43.4068258" lon="13.0038954"><ele>581.0</ele><time>2026-04-25T14:09:50.511Z</time></trkpt><trkpt lat="43.4068815" lon="13.0038246"><ele>581.0</ele><time>2026-04-25T14:09:51.514Z</time></trkpt><trkpt lat="43.406952" lon="13.0037664"><ele>582.6666666666666</ele><time>2026-04-25T14:09:52.511Z</time></trkpt><trkpt lat="43.4070372" lon="13.0037091"><ele>584.3333333333333</ele><time>2026-04-25T14:09:53.516Z</time></trkpt><trkpt lat="43.40713" lon="13.0036569"><ele>586.0</ele><time>2026-04-25T14:09:54.521Z</time></trkpt><trkpt lat="43.4072117" lon="13.0036199"><ele>587.6666666666666</ele><time>2026-04-25T14:09:55.519Z</time></trkpt><trkpt lat="43.4072935" lon="13.0035919"><ele>589.3333333333334</ele><time>2026-04-25T14:09:56.526Z</time></trkpt><trkpt lat="43.4073743" lon="13.0035981"><ele>591.0</ele><time>2026-04-25T14:09:57.516Z</time></trkpt><trkpt lat="43.4074553" lon="13.0036342"><ele>591.0</ele><time>2026-04-25T14:09:58.521Z</time></trkpt><trkpt lat="43.4075198" lon="13.0036875"><ele>591.0</ele><time>2026-04-25T14:09:59.522Z</time></trkpt><trkpt lat="43.4075682" lon="13.0037643"><ele>591.0</ele><time>2026-04-25T14:10:00.529Z</time></trkpt><trkpt lat="43.4076071" lon="13.0038649"><ele>591.0</ele><time>2026-04-25T14:10:01.53Z</time></trkpt><trkpt lat="43.4076437" lon="13.0039749"><ele>591.0</ele><time>2026-04-25T14:10:02.519Z</time></trkpt><trkpt lat="43.407679" lon="13.0041001"><ele>591.0</ele><time>2026-04-25T14:10:03.528Z</time></trkpt><trkpt lat="43.4076885" lon="13.0042224"><ele>586.6</ele><time>2026-04-25T14:10:04.527Z</time></trkpt><trkpt lat="43.4077029" lon="13.00436"><ele>582.2</ele><time>2026-04-25T14:10:05.529Z</time></trkpt><trkpt lat="43.4077159" lon="13.0045043"><ele>577.8</ele><time>2026-04-25T14:10:06.524Z</time></trkpt><trkpt lat="43.4077244" lon="13.0046544"><ele>573.4</ele><time>2026-04-25T14:10:07.529Z</time></trkpt><trkpt lat="43.4077351" lon="13.0048146"><ele>569.0</ele><time>2026-04-25T14:10:08.521Z</time></trkpt><trkpt lat="43.407747" lon="13.0049654"><ele>566.6</ele><time>2026-04-25T14:10:09.515Z</time></trkpt><trkpt lat="43.4077567" lon="13.0051095"><ele>564.2</ele><time>2026-04-25T14:10:10.518Z</time></trkpt><trkpt lat="43.4077672" lon="13.0052568"><ele>561.8000000000001</ele><time>2026-04-25T14:10:11.519Z</time></trkpt><trkpt lat="43.4077744" lon="13.0054024"><ele>559.4</ele><time>2026-04-25T14:10:12.53Z</time></trkpt><trkpt lat="43.407771" lon="13.0055486"><ele>557.0</ele><time>2026-04-25T14:10:13.528Z</time></trkpt><trkpt lat="43.4077793" lon="13.0056821"><ele>557.0</ele><time>2026-04-25T14:10:14.531Z</time></trkpt><trkpt lat="43.4078097" lon="13.0058057"><ele>557.0</ele><time>2026-04-25T14:10:15.529Z</time></trkpt><trkpt lat="43.4078463" lon="13.0059151"><ele>557.0</ele><time>2026-04-25T14:10:16.533Z</time></trkpt><trkpt lat="43.4078954" lon="13.0060263"><ele>557.0</ele><time>2026-04-25T14:10:17.527Z</time></trkpt><trkpt lat="43.4079551" lon="13.0061169"><ele>557.0</ele><time>2026-04-25T14:10:18.531Z</time></trkpt><trkpt lat="43.4080345" lon="13.0062012"><ele>560.75</ele><time>2026-04-25T14:10:19.527Z</time></trkpt><trkpt lat="43.4081436" lon="13.0062829"><ele>564.5</ele><time>2026-04-25T14:10:20.536Z</time></trkpt><trkpt lat="43.4082445" lon="13.0063714"><ele>568.25</ele><time>2026-04-25T14:10:21.531Z</time></trkpt><trkpt lat="43.4083339" lon="13.0064668"><ele>572.0</ele><time>2026-04-25T14:10:22.537Z</time></trkpt><trkpt lat="43.4084111" lon="13.0065674"><ele>567.0</ele><time>2026-04-25T14:10:23.534Z</time></trkpt><trkpt lat="43.4084838" lon="13.0066798"><ele>562.0</ele><time>2026-04-25T14:10:24.527Z</time></trkpt><trkpt lat="43.4085382" lon="13.0068039"><ele>557.0</ele><time>2026-04-25T14:10:25.53Z</time></trkpt><trkpt lat="43.4085868" lon="13.0069366"><ele>552.0</ele><time>2026-04-25T14:10:26.535Z</time></trkpt><trkpt lat="43.4086507" lon="13.0070557"><ele>547.0</ele><time>2026-04-25T14:10:27.552Z</time></trkpt><trkpt lat="43.4087297" lon="13.0071584"><ele>547.0</ele><time>2026-04-25T14:10:28.529Z</time></trkpt><trkpt lat="43.4088212" lon="13.0072614"><ele>547.0</ele><time>2026-04-25T14:10:29.535Z</time></trkpt><trkpt lat="43.4089112" lon="13.0073609"><ele>547.0</ele><time>2026-04-25T14:10:30.531Z</time></trkpt><trkpt lat="43.4089944" lon="13.0074563"><ele>547.0</ele><time>2026-04-25T14:10:31.532Z</time></trkpt><trkpt lat="43.4090826" lon="13.007534"><ele>547.0</ele><time>2026-04-25T14:10:32.532Z</time></trkpt><trkpt lat="43.4091656" lon="13.0076219"><ele>547.0</ele><time>2026-04-25T14:10:33.532Z</time></trkpt><trkpt lat="43.4092489" lon="13.007716"><ele>547.0</ele><time>2026-04-25T14:10:34.531Z</time></trkpt><trkpt lat="43.4093343" lon="13.0078142"><ele>547.0</ele><time>2026-04-25T14:10:35.528Z</time></trkpt><trkpt lat="43.4094241" lon="13.0079112"><ele>547.0</ele><time>2026-04-25T14:10:36.532Z</time></trkpt><trkpt lat="43.4095191" lon="13.008005"><ele>547.0</ele><time>2026-04-25T14:10:37.526Z</time></trkpt><trkpt lat="43.4096246" lon="13.0080849"><ele>547.0</ele><time>2026-04-25T14:10:38.529Z</time></trkpt><trkpt lat="43.4097425" lon="13.0081516"><ele>547.0</ele><time>2026-04-25T14:10:39.525Z</time></trkpt><trkpt lat="43.409859" lon="13.0082128"><ele>547.0</ele><time>2026-04-25T14:10:40.53Z</time></trkpt><trkpt lat="43.4099696" lon="13.0082811"><ele>543.5</ele><time>2026-04-25T14:10:41.526Z</time></trkpt><trkpt lat="43.4100764" lon="13.0083743"><ele>540.0</ele><time>2026-04-25T14:10:42.522Z</time></trkpt><trkpt lat="43.4101692" lon="13.0084875"><ele>536.5</ele><time>2026-04-25T14:10:43.528Z</time></trkpt><trkpt lat="43.4102469" lon="13.0086092"><ele>533.0</ele><time>2026-04-25T14:10:44.528Z</time></trkpt><trkpt lat="43.4103213" lon="13.0087454"><ele>533.0</ele><time>2026-04-25T14:10:45.532Z</time></trkpt><trkpt lat="43.4103921" lon="13.0088856"><ele>533.0</ele><time>2026-04-25T14:10:46.529Z</time></trkpt><trkpt lat="43.4104768" lon="13.0090004"><ele>533.0</ele><time>2026-04-25T14:10:47.525Z</time></trkpt><trkpt lat="43.4105597" lon="13.0091004"><ele>533.0</ele><time>2026-04-25T14:10:48.524Z</time></trkpt><trkpt lat="43.4106554" lon="13.0091845"><ele>530.8</ele><time>2026-04-25T14:10:49.521Z</time></trkpt><trkpt lat="43.4107578" lon="13.0092696"><ele>528.5999999999999</ele><time>2026-04-25T14:10:50.528Z</time></trkpt><trkpt lat="43.4108589" lon="13.0093504"><ele>526.4000000000001</ele><time>2026-04-25T14:10:51.527Z</time></trkpt><trkpt lat="43.4109616" lon="13.0093844"><ele>524.2</ele><time>2026-04-25T14:10:52.523Z</time></trkpt><trkpt lat="43.4110576" lon="13.0094214"><ele>522.0</ele><time>2026-04-25T14:10:53.522Z</time></trkpt><trkpt lat="43.4111647" lon="13.0094578"><ele>522.0</ele><time>2026-04-25T14:10:54.52Z</time></trkpt><trkpt lat="43.4112802" lon="13.0094801"><ele>522.0</ele><time>2026-04-25T14:10:55.519Z</time></trkpt><trkpt lat="43.4113964" lon="13.0094592"><ele>522.0</ele><time>2026-04-25T14:10:56.516Z</time></trkpt><trkpt lat="43.4115153" lon="13.0094649"><ele>522.0</ele><time>2026-04-25T14:10:57.527Z</time></trkpt><trkpt lat="43.4116398" lon="13.0094841"><ele>522.75</ele><time>2026-04-25T14:10:58.516Z</time></trkpt><trkpt lat="43.4117546" lon="13.0095365"><ele>523.5</ele><time>2026-04-25T14:10:59.516Z</time></trkpt><trkpt lat="43.4118797" lon="13.0096031"><ele>524.25</ele><time>2026-04-25T14:11:00.517Z</time></trkpt><trkpt lat="43.4120012" lon="13.0097051"><ele>525.0</ele><time>2026-04-25T14:11:01.516Z</time></trkpt><trkpt lat="43.4121252" lon="13.0098188"><ele>527.25</ele><time>2026-04-25T14:11:02.526Z</time></trkpt><trkpt lat="43.4122425" lon="13.0099005"><ele>529.5</ele><time>2026-04-25T14:11:03.519Z</time></trkpt><trkpt lat="43.4123609" lon="13.0099982"><ele>531.75</ele><time>2026-04-25T14:11:04.523Z</time></trkpt><trkpt lat="43.4124755" lon="13.0100854"><ele>534.0</ele><time>2026-04-25T14:11:05.523Z</time></trkpt><trkpt lat="43.4125769" lon="13.0101611"><ele>528.8</ele><time>2026-04-25T14:11:06.521Z</time></trkpt><trkpt lat="43.4126508" lon="13.0102266"><ele>523.5999999999999</ele><time>2026-04-25T14:11:07.53Z</time></trkpt><trkpt lat="43.4127367" lon="13.0102743"><ele>518.4</ele><time>2026-04-25T14:11:08.524Z</time></trkpt><trkpt lat="43.4128277" lon="13.0103002"><ele>513.1999999999999</ele><time>2026-04-25T14:11:09.54Z</time></trkpt><trkpt lat="43.4129171" lon="13.0102795"><ele>508.0</ele><time>2026-04-25T14:11:10.534Z</time></trkpt><trkpt lat="43.4130136" lon="13.0102329"><ele>506.79999999999995</ele><time>2026-04-25T14:11:11.534Z</time></trkpt><trkpt lat="43.4131169" lon="13.0101645"><ele>505.59999999999997</ele><time>2026-04-25T14:11:12.525Z</time></trkpt><trkpt lat="43.4132205" lon="13.0100931"><ele>504.40000000000003</ele><time>2026-04-25T14:11:13.527Z</time></trkpt><trkpt lat="43.4133274" lon="13.0100522"><ele>503.20000000000005</ele><time>2026-04-25T14:11:14.523Z</time></trkpt><trkpt lat="43.4134276" lon="13.0100177"><ele>502.0</ele><time>2026-04-25T14:11:15.527Z</time></trkpt><trkpt lat="43.4135321" lon="13.0099433"><ele>505.75</ele><time>2026-04-25T14:11:16.525Z</time></trkpt><trkpt lat="43.4136344" lon="13.0098442"><ele>509.5</ele><time>2026-04-25T14:11:17.524Z</time></trkpt><trkpt lat="43.4137213" lon="13.0097239"><ele>513.25</ele><time>2026-04-25T14:11:18.513Z</time></trkpt><trkpt lat="43.413816" lon="13.0096215"><ele>517.0</ele><time>2026-04-25T14:11:19.519Z</time></trkpt><trkpt lat="43.4138917" lon="13.0095514"><ele>517.0</ele><time>2026-04-25T14:11:20.522Z</time></trkpt><trkpt lat="43.413991" lon="13.0094919"><ele>517.0</ele><time>2026-04-25T14:11:21.523Z</time></trkpt><trkpt lat="43.4141035" lon="13.00946"><ele>517.0</ele><time>2026-04-25T14:11:22.523Z</time></trkpt><trkpt lat="43.4142141" lon="13.0094421"><ele>517.0</ele><time>2026-04-25T14:11:23.515Z</time></trkpt><trkpt lat="43.4143217" lon="13.0094278"><ele>517.0</ele><time>2026-04-25T14:11:24.513Z</time></trkpt><trkpt lat="43.4144326" lon="13.0094174"><ele>517.0</ele><time>2026-04-25T14:11:25.519Z</time></trkpt><trkpt lat="43.4145458" lon="13.0094258"><ele>517.0</ele><time>2026-04-25T14:11:26.508Z</time></trkpt><trkpt lat="43.4146554" lon="13.0094106"><ele>517.0</ele><time>2026-04-25T14:11:27.525Z</time></trkpt><trkpt lat="43.414754" lon="13.009373"><ele>517.0</ele><time>2026-04-25T14:11:28.531Z</time></trkpt><trkpt lat="43.4148495" lon="13.0093023"><ele>517.0</ele><time>2026-04-25T14:11:29.513Z</time></trkpt><trkpt lat="43.4149238" lon="13.0092382"><ele>520.2</ele><time>2026-04-25T14:11:30.518Z</time></trkpt><trkpt lat="43.4150292" lon="13.0092236"><ele>523.4000000000001</ele><time>2026-04-25T14:11:32.516Z</time></trkpt><trkpt lat="43.4150899" lon="13.0091502"><ele>526.5999999999999</ele><time>2026-04-25T14:11:34.52Z</time></trkpt><trkpt lat="43.4151381" lon="13.0092408"><ele>529.8</ele><time>2026-04-25T14:11:37.511Z</time></trkpt><trkpt lat="43.4151552" lon="13.009363"><ele>533.0</ele><time>2026-04-25T14:11:39.523Z</time></trkpt><trkpt lat="43.4150357" lon="13.009454"><ele>529.0</ele><time>2026-04-25T14:11:41.517Z</time></trkpt><trkpt lat="43.4149179" lon="13.0094598"><ele>525.0</ele><time>2026-04-25T14:11:42.507Z</time></trkpt><trkpt lat="43.4147965" lon="13.0094577"><ele>521.0</ele><time>2026-04-25T14:11:43.516Z</time></trkpt><trkpt lat="43.4146836" lon="13.0094838"><ele>517.0</ele><time>2026-04-25T14:11:44.517Z</time></trkpt><trkpt lat="43.414568" lon="13.0095358"><ele>517.0</ele><time>2026-04-25T14:11:45.519Z</time></trkpt><trkpt lat="43.4144462" lon="13.0095955"><ele>517.0</ele><time>2026-04-25T14:11:46.51Z</time></trkpt><trkpt lat="43.4143338" lon="13.0096546"><ele>517.0</ele><time>2026-04-25T14:11:47.513Z</time></trkpt><trkpt lat="43.4142236" lon="13.0097082"><ele>517.0</ele><time>2026-04-25T14:11:48.517Z</time></trkpt><trkpt lat="43.4141136" lon="13.0097764"><ele>517.0</ele><time>2026-04-25T14:11:49.516Z</time></trkpt><trkpt lat="43.4140176" lon="13.0098459"><ele>517.0</ele><time>2026-04-25T14:11:50.519Z</time></trkpt><trkpt lat="43.4139217" lon="13.0099433"><ele>517.0</ele><time>2026-04-25T14:11:51.517Z</time></trkpt><trkpt lat="43.413857" lon="13.0100533"><ele>517.0</ele><time>2026-04-25T14:11:52.518Z</time></trkpt><trkpt lat="43.4138002" lon="13.0101461"><ele>517.0</ele><time>2026-04-25T14:11:53.512Z</time></trkpt><trkpt lat="43.4137479" lon="13.0102458"><ele>514.5</ele><time>2026-04-25T14:11:54.519Z</time></trkpt><trkpt lat="43.413688" lon="13.0103505"><ele>512.0</ele><time>2026-04-25T14:11:55.519Z</time></trkpt><trkpt lat="43.4136282" lon="13.0104533"><ele>509.5</ele><time>2026-04-25T14:11:56.52Z</time></trkpt><trkpt lat="43.4135641" lon="13.0105221"><ele>507.0</ele><time>2026-04-25T14:11:57.515Z</time></trkpt><trkpt lat="43.4135165" lon="13.0105925"><ele>504.50000000000006</ele><time>2026-04-25T14:11:58.518Z</time></trkpt><trkpt lat="43.4134614" lon="13.0106456"><ele>502.0</ele><time>2026-04-25T14:11:59.526Z</time></trkpt><trkpt lat="43.4134109" lon="13.0107225"><ele>502.00000000000006</ele><time>2026-04-25T14:12:00.521Z</time></trkpt><trkpt lat="43.4133654" lon="13.010818"><ele>502.0</ele><time>2026-04-25T14:12:01.517Z</time></trkpt><trkpt lat="43.4133514" lon="13.0109127"><ele>502.0</ele><time>2026-04-25T14:12:02.518Z</time></trkpt><trkpt lat="43.4133454" lon="13.0110235"><ele>502.0</ele><time>2026-04-25T14:12:03.519Z</time></trkpt><trkpt lat="43.4133602" lon="13.0111389"><ele>502.00000000000006</ele><time>2026-04-25T14:12:04.517Z</time></trkpt><trkpt lat="43.4133869" lon="13.0112837"><ele>502.0</ele><time>2026-04-25T14:12:05.526Z</time></trkpt><trkpt lat="43.4134005" lon="13.0114342"><ele>497.75</ele><time>2026-04-25T14:12:06.518Z</time></trkpt><trkpt lat="43.4134161" lon="13.0115804"><ele>493.5</ele><time>2026-04-25T14:12:07.523Z</time></trkpt><trkpt lat="43.4134158" lon="13.0117338"><ele>489.25</ele><time>2026-04-25T14:12:08.53Z</time></trkpt><trkpt lat="43.4134038" lon="13.011893"><ele>485.0</ele><time>2026-04-25T14:12:09.534Z</time></trkpt><trkpt lat="43.4134001" lon="13.0120547"><ele>482.8</ele><time>2026-04-25T14:12:10.531Z</time></trkpt><trkpt lat="43.4134071" lon="13.0122117"><ele>480.6</ele><time>2026-04-25T14:12:11.533Z</time></trkpt><trkpt lat="43.4134204" lon="13.0123694"><ele>478.4</ele><time>2026-04-25T14:12:12.533Z</time></trkpt><trkpt lat="43.4134461" lon="13.0125146"><ele>476.2</ele><time>2026-04-25T14:12:13.54Z</time></trkpt><trkpt lat="43.413462" lon="13.0126571"><ele>474.0</ele><time>2026-04-25T14:12:14.533Z</time></trkpt><trkpt lat="43.4134601" lon="13.0127917"><ele>472.2</ele><time>2026-04-25T14:12:15.537Z</time></trkpt><trkpt lat="43.4134494" lon="13.012931"><ele>470.4</ele><time>2026-04-25T14:12:16.53Z</time></trkpt><trkpt lat="43.4134442" lon="13.0130698"><ele>468.6</ele><time>2026-04-25T14:12:17.537Z</time></trkpt><trkpt lat="43.4134541" lon="13.0131943"><ele>466.8</ele><time>2026-04-25T14:12:18.532Z</time></trkpt><trkpt lat="43.4134769" lon="13.0133159"><ele>465.0</ele><time>2026-04-25T14:12:19.531Z</time></trkpt><trkpt lat="43.4134978" lon="13.013441"><ele>463.4</ele><time>2026-04-25T14:12:20.526Z</time></trkpt><trkpt lat="43.4135267" lon="13.0135544"><ele>461.8</ele><time>2026-04-25T14:12:21.538Z</time></trkpt><trkpt lat="43.4135577" lon="13.0136713"><ele>460.20000000000005</ele><time>2026-04-25T14:12:22.533Z</time></trkpt><trkpt lat="43.4135924" lon="13.0138022"><ele>458.6</ele><time>2026-04-25T14:12:23.536Z</time></trkpt><trkpt lat="43.4136207" lon="13.0139276"><ele>457.0</ele><time>2026-04-25T14:12:24.529Z</time></trkpt><trkpt lat="43.4136439" lon="13.0140571"><ele>455.8</ele><time>2026-04-25T14:12:25.534Z</time></trkpt><trkpt lat="43.413679" lon="13.0141677"><ele>454.6</ele><time>2026-04-25T14:12:26.533Z</time></trkpt><trkpt lat="43.4137123" lon="13.0142822"><ele>453.40000000000003</ele><time>2026-04-25T14:12:27.54Z</time></trkpt><trkpt lat="43.4137592" lon="13.01442"><ele>452.20000000000005</ele><time>2026-04-25T14:12:28.528Z</time></trkpt><trkpt lat="43.4138173" lon="13.0145538"><ele>451.0</ele><time>2026-04-25T14:12:29.533Z</time></trkpt><trkpt lat="43.4138756" lon="13.0146842"><ele>449.75</ele><time>2026-04-25T14:12:30.533Z</time></trkpt><trkpt lat="43.4139358" lon="13.0148073"><ele>448.5</ele><time>2026-04-25T14:12:31.531Z</time></trkpt><trkpt lat="43.4139972" lon="13.0149448"><ele>447.25</ele><time>2026-04-25T14:12:32.529Z</time></trkpt><trkpt lat="43.4140583" lon="13.0150837"><ele>446.0</ele><time>2026-04-25T14:12:33.527Z</time></trkpt><trkpt lat="43.4141248" lon="13.0152272"><ele>446.0</ele><time>2026-04-25T14:12:34.535Z</time></trkpt><trkpt lat="43.4142017" lon="13.0153526"><ele>446.0</ele><time>2026-04-25T14:12:35.527Z</time></trkpt><trkpt lat="43.4142871" lon="13.0154793"><ele>446.0</ele><time>2026-04-25T14:12:36.529Z</time></trkpt><trkpt lat="43.4143743" lon="13.0156121"><ele>446.0</ele><time>2026-04-25T14:12:37.534Z</time></trkpt><trkpt lat="43.4144568" lon="13.0157462"><ele>444.0</ele><time>2026-04-25T14:12:38.532Z</time></trkpt><trkpt lat="43.4145521" lon="13.0158717"><ele>442.0</ele><time>2026-04-25T14:12:39.531Z</time></trkpt><trkpt lat="43.4146495" lon="13.0159791"><ele>440.0</ele><time>2026-04-25T14:12:40.53Z</time></trkpt><trkpt lat="43.4147418" lon="13.0160863"><ele>438.0</ele><time>2026-04-25T14:12:41.534Z</time></trkpt><trkpt lat="43.4148294" lon="13.0161965"><ele>438.0</ele><time>2026-04-25T14:12:42.537Z</time></trkpt><trkpt lat="43.4149296" lon="13.0162962"><ele>437.99999999999994</ele><time>2026-04-25T14:12:43.537Z</time></trkpt><trkpt lat="43.4150267" lon="13.0163966"><ele>437.99999999999994</ele><time>2026-04-25T14:12:44.544Z</time></trkpt><trkpt lat="43.4151103" lon="13.016481"><ele>438.0</ele><time>2026-04-25T14:12:45.539Z</time></trkpt><trkpt lat="43.415194" lon="13.0165474"><ele>438.0</ele><time>2026-04-25T14:12:46.543Z</time></trkpt><trkpt lat="43.415273" lon="13.0166076"><ele>438.0</ele><time>2026-04-25T14:12:47.54Z</time></trkpt><trkpt lat="43.4153501" lon="13.0166429"><ele>438.0</ele><time>2026-04-25T14:12:48.542Z</time></trkpt><trkpt lat="43.4154307" lon="13.0166588"><ele>438.0</ele><time>2026-04-25T14:12:49.526Z</time></trkpt><trkpt lat="43.4155031" lon="13.0166495"><ele>438.0</ele><time>2026-04-25T14:12:50.534Z</time></trkpt><trkpt lat="43.4155951" lon="13.0165496"><ele>438.0</ele><time>2026-04-25T14:12:52.54Z</time></trkpt><trkpt lat="43.4156149" lon="13.0164232"><ele>438.0</ele><time>2026-04-25T14:12:53.528Z</time></trkpt><trkpt lat="43.4156077" lon="13.0162884"><ele>436.0</ele><time>2026-04-25T14:12:54.531Z</time></trkpt><trkpt lat="43.4155778" lon="13.0161311"><ele>434.0</ele><time>2026-04-25T14:12:55.527Z</time></trkpt><trkpt lat="43.4155517" lon="13.0159752"><ele>432.0</ele><time>2026-04-25T14:12:56.531Z</time></trkpt><trkpt lat="43.4155188" lon="13.0158164"><ele>430.0</ele><time>2026-04-25T14:12:57.526Z</time></trkpt><trkpt lat="43.4154728" lon="13.0156546"><ele>430.0</ele><time>2026-04-25T14:12:58.532Z</time></trkpt><trkpt lat="43.4154158" lon="13.0154631"><ele>430.0</ele><time>2026-04-25T14:12:59.526Z</time></trkpt><trkpt lat="43.4153516" lon="13.0152443"><ele>430.0</ele><time>2026-04-25T14:13:00.535Z</time></trkpt><trkpt lat="43.4152791" lon="13.0150565"><ele>424.6666666666667</ele><time>2026-04-25T14:13:01.529Z</time></trkpt><trkpt lat="43.4152133" lon="13.0148569"><ele>419.33333333333337</ele><time>2026-04-25T14:13:02.532Z</time></trkpt><trkpt lat="43.4151293" lon="13.014662"><ele>414.0</ele><time>2026-04-25T14:13:03.527Z</time></trkpt><trkpt lat="43.4150608" lon="13.0144752"><ele>414.0</ele><time>2026-04-25T14:13:04.531Z</time></trkpt><trkpt lat="43.4149959" lon="13.0142923"><ele>414.0</ele><time>2026-04-25T14:13:05.527Z</time></trkpt><trkpt lat="43.4149621" lon="13.0141052"><ele>414.0</ele><time>2026-04-25T14:13:06.53Z</time></trkpt><trkpt lat="43.4149273" lon="13.0139405"><ele>414.0</ele><time>2026-04-25T14:13:07.527Z</time></trkpt><trkpt lat="43.4148858" lon="13.0137554"><ele>411.75</ele><time>2026-04-25T14:13:08.538Z</time></trkpt><trkpt lat="43.4148688" lon="13.0135661"><ele>409.5</ele><time>2026-04-25T14:13:09.531Z</time></trkpt><trkpt lat="43.4148383" lon="13.0133972"><ele>407.25</ele><time>2026-04-25T14:13:10.541Z</time></trkpt><trkpt lat="43.414803" lon="13.0132292"><ele>405.0</ele><time>2026-04-25T14:13:11.533Z</time></trkpt><trkpt lat="43.4147782" lon="13.0130605"><ele>403.5</ele><time>2026-04-25T14:13:12.541Z</time></trkpt><trkpt lat="43.4147431" lon="13.0128999"><ele>402.0</ele><time>2026-04-25T14:13:13.536Z</time></trkpt><trkpt lat="43.4147018" lon="13.012755"><ele>400.5</ele><time>2026-04-25T14:13:14.533Z</time></trkpt><trkpt lat="43.4146576" lon="13.0126069"><ele>399.0</ele><time>2026-04-25T14:13:15.53Z</time></trkpt><trkpt lat="43.4146326" lon="13.0124542"><ele>409.25</ele><time>2026-04-25T14:13:16.53Z</time></trkpt><trkpt lat="43.4146077" lon="13.0122969"><ele>419.5</ele><time>2026-04-25T14:13:17.533Z</time></trkpt><trkpt lat="43.41459" lon="13.0121462"><ele>429.75</ele><time>2026-04-25T14:13:18.524Z</time></trkpt><trkpt lat="43.4145871" lon="13.0119853"><ele>440.0</ele><time>2026-04-25T14:13:19.526Z</time></trkpt><trkpt lat="43.414585" lon="13.0118406"><ele>439.99999999999994</ele><time>2026-04-25T14:13:20.524Z</time></trkpt><trkpt lat="43.4145911" lon="13.0117204"><ele>440.0</ele><time>2026-04-25T14:13:21.526Z</time></trkpt><trkpt lat="43.4145923" lon="13.0115988"><ele>440.0</ele><time>2026-04-25T14:13:22.519Z</time></trkpt><trkpt lat="43.4145964" lon="13.0115088"><ele>440.0</ele><time>2026-04-25T14:13:23.521Z</time></trkpt><trkpt lat="43.4146631" lon="13.0113761"><ele>439.99999999999994</ele><time>2026-04-25T14:13:25.534Z</time></trkpt><trkpt lat="43.4147336" lon="13.0113438"><ele>440.0</ele><time>2026-04-25T14:13:26.521Z</time></trkpt><trkpt lat="43.4148168" lon="13.0113169"><ele>437.99999999999994</ele><time>2026-04-25T14:13:27.526Z</time></trkpt><trkpt lat="43.4148899" lon="13.0112911"><ele>436.0</ele><time>2026-04-25T14:13:28.52Z</time></trkpt><trkpt lat="43.4149723" lon="13.0112753"><ele>434.0</ele><time>2026-04-25T14:13:29.532Z</time></trkpt><trkpt lat="43.4150589" lon="13.0112437"><ele>432.0</ele><time>2026-04-25T14:13:30.531Z</time></trkpt><trkpt lat="43.4151409" lon="13.0112261"><ele>429.99999999999994</ele><time>2026-04-25T14:13:31.53Z</time></trkpt><trkpt lat="43.4152242" lon="13.0112045"><ele>428.0</ele><time>2026-04-25T14:13:32.533Z</time></trkpt><trkpt lat="43.415303" lon="13.0111945"><ele>427.99999999999994</ele><time>2026-04-25T14:13:33.514Z</time></trkpt><trkpt lat="43.4153888" lon="13.0111411"><ele>428.0</ele><time>2026-04-25T14:13:34.524Z</time></trkpt><trkpt lat="43.4154631" lon="13.0110738"><ele>428.0</ele><time>2026-04-25T14:13:35.516Z</time></trkpt><trkpt lat="43.4155355" lon="13.0110079"><ele>428.0</ele><time>2026-04-25T14:13:36.522Z</time></trkpt><trkpt lat="43.415609" lon="13.0109402"><ele>427.99999999999994</ele><time>2026-04-25T14:13:37.515Z</time></trkpt><trkpt lat="43.4156792" lon="13.0108762"><ele>428.0</ele><time>2026-04-25T14:13:38.519Z</time></trkpt><trkpt lat="43.4157515" lon="13.0108428"><ele>424.59999999999997</ele><time>2026-04-25T14:13:39.512Z</time></trkpt><trkpt lat="43.4158355" lon="13.0108258"><ele>421.19999999999993</ele><time>2026-04-25T14:13:40.518Z</time></trkpt><trkpt lat="43.4159248" lon="13.0108461"><ele>417.8</ele><time>2026-04-25T14:13:41.52Z</time></trkpt><trkpt lat="43.4160212" lon="13.0109049"><ele>414.4</ele><time>2026-04-25T14:13:42.518Z</time></trkpt><trkpt lat="43.4161175" lon="13.010964"><ele>411.0</ele><time>2026-04-25T14:13:43.512Z</time></trkpt><trkpt lat="43.4162325" lon="13.0110066"><ele>412.0</ele><time>2026-04-25T14:13:44.52Z</time></trkpt><trkpt lat="43.4163293" lon="13.0110446"><ele>413.0</ele><time>2026-04-25T14:13:45.518Z</time></trkpt><trkpt lat="43.4164305" lon="13.0110799"><ele>414.0</ele><time>2026-04-25T14:13:46.52Z</time></trkpt><trkpt lat="43.4165325" lon="13.0111132"><ele>415.0</ele><time>2026-04-25T14:13:47.512Z</time></trkpt><trkpt lat="43.4166293" lon="13.0111519"><ele>416.0</ele><time>2026-04-25T14:13:48.52Z</time></trkpt><trkpt lat="43.4167192" lon="13.0111868"><ele>416.0</ele><time>2026-04-25T14:13:49.514Z</time></trkpt><trkpt lat="43.416817" lon="13.0112195"><ele>416.0</ele><time>2026-04-25T14:13:50.517Z</time></trkpt><trkpt lat="43.4168994" lon="13.0112573"><ele>416.0</ele><time>2026-04-25T14:13:51.512Z</time></trkpt><trkpt lat="43.4169719" lon="13.0112724"><ele>416.0</ele><time>2026-04-25T14:13:52.517Z</time></trkpt><trkpt lat="43.4170975" lon="13.0112378"><ele>416.0</ele><time>2026-04-25T14:13:54.516Z</time></trkpt><trkpt lat="43.4171904" lon="13.0111897"><ele>418.49999999999994</ele><time>2026-04-25T14:13:56.528Z</time></trkpt><trkpt lat="43.4172678" lon="13.0111932"><ele>421.0</ele><time>2026-04-25T14:13:57.52Z</time></trkpt><trkpt lat="43.4173326" lon="13.0112058"><ele>423.5</ele><time>2026-04-25T14:13:58.52Z</time></trkpt><trkpt lat="43.4174284" lon="13.0112504"><ele>426.0</ele><time>2026-04-25T14:14:00.519Z</time></trkpt><trkpt lat="43.4174668" lon="13.0113579"><ele>428.49999999999994</ele><time>2026-04-25T14:14:02.512Z</time></trkpt><trkpt lat="43.417528" lon="13.0113978"><ele>431.0</ele><time>2026-04-25T14:14:03.514Z</time></trkpt><trkpt lat="43.4175906" lon="13.0114889"><ele>431.0</ele><time>2026-04-25T14:14:04.513Z</time></trkpt><trkpt lat="43.4176591" lon="13.0116308"><ele>431.0</ele><time>2026-04-25T14:14:05.514Z</time></trkpt><trkpt lat="43.4177213" lon="13.0117598"><ele>431.0</ele><time>2026-04-25T14:14:06.527Z</time></trkpt><trkpt lat="43.4177993" lon="13.0118804"><ele>431.0</ele><time>2026-04-25T14:14:07.519Z</time></trkpt><trkpt lat="43.4178791" lon="13.0119999"><ele>426.66666666666663</ele><time>2026-04-25T14:14:08.526Z</time></trkpt><trkpt lat="43.4179685" lon="13.0120534"><ele>422.3333333333333</ele><time>2026-04-25T14:14:09.518Z</time></trkpt><trkpt lat="43.4180568" lon="13.0120637"><ele>418.0</ele><time>2026-04-25T14:14:10.515Z</time></trkpt><trkpt lat="43.4181407" lon="13.0120722"><ele>413.66666666666663</ele><time>2026-04-25T14:14:11.516Z</time></trkpt><trkpt lat="43.4182222" lon="13.0120758"><ele>409.3333333333333</ele><time>2026-04-25T14:14:12.516Z</time></trkpt><trkpt lat="43.418306" lon="13.0120698"><ele>405.0</ele><time>2026-04-25T14:14:13.518Z</time></trkpt><trkpt lat="43.4183876" lon="13.0120784"><ele>405.0</ele><time>2026-04-25T14:14:14.522Z</time></trkpt><trkpt lat="43.4184529" lon="13.0121098"><ele>405.0</ele><time>2026-04-25T14:14:15.523Z</time></trkpt><trkpt lat="43.4185471" lon="13.0122334"><ele>405.0</ele><time>2026-04-25T14:14:17.518Z</time></trkpt><trkpt lat="43.4186287" lon="13.0122917"><ele>405.0</ele><time>2026-04-25T14:14:18.525Z</time></trkpt><trkpt lat="43.4187094" lon="13.0123299"><ele>405.0</ele><time>2026-04-25T14:14:19.525Z</time></trkpt><trkpt lat="43.4187795" lon="13.0123344"><ele>405.0</ele><time>2026-04-25T14:14:20.524Z</time></trkpt><trkpt lat="43.4188539" lon="13.0123016"><ele>401.0</ele><time>2026-04-25T14:14:21.524Z</time></trkpt><trkpt lat="43.418939" lon="13.0122299"><ele>397.0</ele><time>2026-04-25T14:14:22.528Z</time></trkpt><trkpt lat="43.419038" lon="13.0121225"><ele>393.0</ele><time>2026-04-25T14:14:23.514Z</time></trkpt><trkpt lat="43.4191373" lon="13.0120289"><ele>389.0</ele><time>2026-04-25T14:14:24.514Z</time></trkpt><trkpt lat="43.4192218" lon="13.0119387"><ele>389.0</ele><time>2026-04-25T14:14:25.515Z</time></trkpt><trkpt lat="43.4193356" lon="13.0118551"><ele>389.0</ele><time>2026-04-25T14:14:26.514Z</time></trkpt><trkpt lat="43.4194437" lon="13.0117537"><ele>389.0</ele><time>2026-04-25T14:14:27.516Z</time></trkpt><trkpt lat="43.4195599" lon="13.0116663"><ele>389.0</ele><time>2026-04-25T14:14:28.522Z</time></trkpt><trkpt lat="43.4196458" lon="13.0116029"><ele>393.16666666666663</ele><time>2026-04-25T14:14:29.515Z</time></trkpt><trkpt lat="43.4197306" lon="13.0115616"><ele>397.3333333333333</ele><time>2026-04-25T14:14:30.513Z</time></trkpt><trkpt lat="43.4198028" lon="13.0115228"><ele>401.5</ele><time>2026-04-25T14:14:31.509Z</time></trkpt><trkpt lat="43.4198762" lon="13.0115154"><ele>405.66666666666663</ele><time>2026-04-25T14:14:32.508Z</time></trkpt><trkpt lat="43.4199554" lon="13.011522"><ele>409.8333333333333</ele><time>2026-04-25T14:14:34.514Z</time></trkpt><trkpt lat="43.4200215" lon="13.0115631"><ele>414.0</ele><time>2026-04-25T14:14:36.517Z</time></trkpt><trkpt lat="43.4201545" lon="13.0116012"><ele>413.0</ele><time>2026-04-25T14:14:38.519Z</time></trkpt><trkpt lat="43.420247" lon="13.0116669"><ele>412.0</ele><time>2026-04-25T14:14:39.511Z</time></trkpt><trkpt lat="43.4203491" lon="13.0117624"><ele>411.0</ele><time>2026-04-25T14:14:40.511Z</time></trkpt><trkpt lat="43.4204126" lon="13.0118455"><ele>410.0</ele><time>2026-04-25T14:14:41.508Z</time></trkpt><trkpt lat="43.4204665" lon="13.0119577"><ele>409.0</ele><time>2026-04-25T14:14:42.508Z</time></trkpt><trkpt lat="43.4205293" lon="13.0121334"><ele>409.0</ele><time>2026-04-25T14:14:43.51Z</time></trkpt><trkpt lat="43.4205847" lon="13.0122821"><ele>409.0</ele><time>2026-04-25T14:14:44.51Z</time></trkpt><trkpt lat="43.4206708" lon="13.0123583"><ele>409.0</ele><time>2026-04-25T14:14:45.502Z</time></trkpt><trkpt lat="43.4207581" lon="13.0124118"><ele>409.0</ele><time>2026-04-25T14:14:46.5Z</time></trkpt><trkpt lat="43.4208584" lon="13.0124456"><ele>409.0</ele><time>2026-04-25T14:14:47.495Z</time></trkpt><trkpt lat="43.4209962" lon="13.0124724"><ele>404.2</ele><time>2026-04-25T14:14:48.505Z</time></trkpt><trkpt lat="43.4209814" lon="13.0126256"><ele>399.4</ele><time>2026-04-25T14:14:51.498Z</time></trkpt><trkpt lat="43.4209313" lon="13.012747"><ele>394.6</ele><time>2026-04-25T14:14:52.489Z</time></trkpt><trkpt lat="43.4208853" lon="13.0128657"><ele>389.8</ele><time>2026-04-25T14:14:53.489Z</time></trkpt><trkpt lat="43.420837" lon="13.0129917"><ele>385.0</ele><time>2026-04-25T14:14:54.495Z</time></trkpt><trkpt lat="43.4207904" lon="13.0131258"><ele>385.0</ele><time>2026-04-25T14:14:55.497Z</time></trkpt><trkpt lat="43.4207485" lon="13.0132756"><ele>385.0</ele><time>2026-04-25T14:14:56.493Z</time></trkpt><trkpt lat="43.4207196" lon="13.0134178"><ele>385.0</ele><time>2026-04-25T14:14:57.494Z</time></trkpt><trkpt lat="43.4207039" lon="13.0135539"><ele>385.0</ele><time>2026-04-25T14:14:58.494Z</time></trkpt><trkpt lat="43.4206928" lon="13.0136931"><ele>385.0</ele><time>2026-04-25T14:14:59.493Z</time></trkpt><trkpt lat="43.420693" lon="13.0138334"><ele>384.75</ele><time>2026-04-25T14:15:00.501Z</time></trkpt><trkpt lat="43.4206918" lon="13.0139786"><ele>384.5</ele><time>2026-04-25T14:15:01.494Z</time></trkpt><trkpt lat="43.4206769" lon="13.0141578"><ele>384.25</ele><time>2026-04-25T14:15:02.505Z</time></trkpt><trkpt lat="43.4206625" lon="13.0142938"><ele>384.0</ele><time>2026-04-25T14:15:03.498Z</time></trkpt><trkpt lat="43.420572" lon="13.0145112"><ele>385.0</ele><time>2026-04-25T14:15:04.508Z</time></trkpt><trkpt lat="43.4205639" lon="13.0146576"><ele>386.0</ele><time>2026-04-25T14:15:05.521Z</time></trkpt><trkpt lat="43.420569" lon="13.0148177"><ele>387.0</ele><time>2026-04-25T14:15:06.492Z</time></trkpt><trkpt lat="43.4205698" lon="13.0149669"><ele>388.0</ele><time>2026-04-25T14:15:07.498Z</time></trkpt><trkpt lat="43.4205737" lon="13.0150821"><ele>389.0</ele><time>2026-04-25T14:15:08.496Z</time></trkpt><trkpt lat="43.4205794" lon="13.0152201"><ele>389.0</ele><time>2026-04-25T14:15:09.494Z</time></trkpt><trkpt lat="43.4205944" lon="13.0153702"><ele>389.0</ele><time>2026-04-25T14:15:10.497Z</time></trkpt><trkpt lat="43.420593" lon="13.0155265"><ele>389.0</ele><time>2026-04-25T14:15:11.495Z</time></trkpt><trkpt lat="43.4205915" lon="13.0156789"><ele>389.0</ele><time>2026-04-25T14:15:12.501Z</time></trkpt><trkpt lat="43.420571" lon="13.015846"><ele>387.0</ele><time>2026-04-25T14:15:13.502Z</time></trkpt><trkpt lat="43.4205536" lon="13.0160163"><ele>385.0</ele><time>2026-04-25T14:15:14.501Z</time></trkpt><trkpt lat="43.4205441" lon="13.0161784"><ele>383.0</ele><time>2026-04-25T14:15:15.494Z</time></trkpt><trkpt lat="43.4205233" lon="13.0163214"><ele>381.0</ele><time>2026-04-25T14:15:16.494Z</time></trkpt><trkpt lat="43.4205137" lon="13.016478"><ele>381.0</ele><time>2026-04-25T14:15:17.499Z</time></trkpt><trkpt lat="43.4205124" lon="13.0166169"><ele>381.0</ele><time>2026-04-25T14:15:18.496Z</time></trkpt><trkpt lat="43.4204696" lon="13.0168328"><ele>381.0</ele><time>2026-04-25T14:15:19.502Z</time></trkpt><trkpt lat="43.4204724" lon="13.0169974"><ele>381.0</ele><time>2026-04-25T14:15:20.492Z</time></trkpt><trkpt lat="43.4203987" lon="13.0173303"><ele>359.6666666666667</ele><time>2026-04-25T14:15:21.51Z</time></trkpt><trkpt lat="43.4203687" lon="13.0176182"><ele>338.33333333333337</ele><time>2026-04-25T14:15:22.5Z</time></trkpt><trkpt lat="43.4203568" lon="13.017869"><ele>317.0</ele><time>2026-04-25T14:15:23.513Z</time></trkpt><trkpt lat="43.4203491" lon="13.0181156"><ele>317.0</ele><time>2026-04-25T14:15:24.509Z</time></trkpt><trkpt lat="43.4203679" lon="13.0183134"><ele>317.0</ele><time>2026-04-25T14:15:25.514Z</time></trkpt><trkpt lat="43.4204009" lon="13.0184987"><ele>317.0</ele><time>2026-04-25T14:15:26.509Z</time></trkpt><trkpt lat="43.4204486" lon="13.0186686"><ele>317.0</ele><time>2026-04-25T14:15:27.515Z</time></trkpt><trkpt lat="43.4205151" lon="13.0188162"><ele>316.5</ele><time>2026-04-25T14:15:28.518Z</time></trkpt><trkpt lat="43.4206007" lon="13.0189462"><ele>316.0</ele><time>2026-04-25T14:15:29.521Z</time></trkpt><trkpt lat="43.4206646" lon="13.0190963"><ele>315.5</ele><time>2026-04-25T14:15:30.512Z</time></trkpt><trkpt lat="43.4207323" lon="13.0192212"><ele>315.0</ele><time>2026-04-25T14:15:31.509Z</time></trkpt><trkpt lat="43.4208106" lon="13.019313"><ele>315.0</ele><time>2026-04-25T14:15:32.511Z</time></trkpt><trkpt lat="43.4208939" lon="13.0193994"><ele>315.0</ele><time>2026-04-25T14:15:33.513Z</time></trkpt><trkpt lat="43.4209855" lon="13.0194542"><ele>315.0</ele><time>2026-04-25T14:15:34.511Z</time></trkpt><trkpt lat="43.421081" lon="13.0195009"><ele>315.0</ele><time>2026-04-25T14:15:35.516Z</time></trkpt><trkpt lat="43.4211665" lon="13.0195619"><ele>315.0</ele><time>2026-04-25T14:15:36.502Z</time></trkpt><trkpt lat="43.4212653" lon="13.0195857"><ele>314.6</ele><time>2026-04-25T14:15:37.509Z</time></trkpt><trkpt lat="43.4213623" lon="13.019581"><ele>314.2</ele><time>2026-04-25T14:15:38.507Z</time></trkpt><trkpt lat="43.4214897" lon="13.019571"><ele>313.8</ele><time>2026-04-25T14:15:39.501Z</time></trkpt><trkpt lat="43.4215998" lon="13.0195111"><ele>313.4</ele><time>2026-04-25T14:15:40.509Z</time></trkpt><trkpt lat="43.4216878" lon="13.0194514"><ele>313.0</ele><time>2026-04-25T14:15:41.504Z</time></trkpt><trkpt lat="43.4217906" lon="13.0193705"><ele>313.0</ele><time>2026-04-25T14:15:42.512Z</time></trkpt><trkpt lat="43.4218999" lon="13.0192628"><ele>313.0</ele><time>2026-04-25T14:15:43.51Z</time></trkpt><trkpt lat="43.422008" lon="13.0191463"><ele>313.0</ele><time>2026-04-25T14:15:44.503Z</time></trkpt><trkpt lat="43.422137" lon="13.0190385"><ele>313.0</ele><time>2026-04-25T14:15:45.506Z</time></trkpt><trkpt lat="43.4222904" lon="13.0189116"><ele>315.3333333333333</ele><time>2026-04-25T14:15:46.51Z</time></trkpt><trkpt lat="43.4224153" lon="13.018784"><ele>317.6666666666667</ele><time>2026-04-25T14:15:47.51Z</time></trkpt><trkpt lat="43.4225582" lon="13.0186823"><ele>320.0</ele><time>2026-04-25T14:15:48.52Z</time></trkpt><trkpt lat="43.4227051" lon="13.0185619"><ele>320.0</ele><time>2026-04-25T14:15:49.519Z</time></trkpt><trkpt lat="43.4228736" lon="13.0184533"><ele>320.0</ele><time>2026-04-25T14:15:50.521Z</time></trkpt><trkpt lat="43.4230194" lon="13.0183768"><ele>320.0</ele><time>2026-04-25T14:15:51.519Z</time></trkpt><trkpt lat="43.4231746" lon="13.0183126"><ele>319.5</ele><time>2026-04-25T14:15:52.514Z</time></trkpt><trkpt lat="43.4233098" lon="13.0182918"><ele>319.0</ele><time>2026-04-25T14:15:53.509Z</time></trkpt><trkpt lat="43.423441" lon="13.0183085"><ele>318.5</ele><time>2026-04-25T14:15:54.517Z</time></trkpt><trkpt lat="43.4236165" lon="13.0183243"><ele>318.0</ele><time>2026-04-25T14:15:55.514Z</time></trkpt><trkpt lat="43.4237376" lon="13.0183665"><ele>311.0</ele><time>2026-04-25T14:15:56.516Z</time></trkpt><trkpt lat="43.42383" lon="13.0182475"><ele>304.0</ele><time>2026-04-25T14:15:57.508Z</time></trkpt><trkpt lat="43.4239164" lon="13.0181448"><ele>297.0</ele><time>2026-04-25T14:15:58.515Z</time></trkpt><trkpt lat="43.4240325" lon="13.0181011"><ele>290.0</ele><time>2026-04-25T14:15:59.515Z</time></trkpt><trkpt lat="43.424197" lon="13.0181059"><ele>290.0</ele><time>2026-04-25T14:16:00.525Z</time></trkpt><trkpt lat="43.4242835" lon="13.0180546"><ele>290.0</ele><time>2026-04-25T14:16:01.513Z</time></trkpt><trkpt lat="43.424365" lon="13.0180245"><ele>290.0</ele><time>2026-04-25T14:16:02.521Z</time></trkpt><trkpt lat="43.4244325" lon="13.0179354"><ele>290.0</ele><time>2026-04-25T14:16:03.515Z</time></trkpt><trkpt lat="43.4245115" lon="13.0178403"><ele>290.0</ele><time>2026-04-25T14:16:04.52Z</time></trkpt><trkpt lat="43.4245258" lon="13.0177454"><ele>290.0</ele><time>2026-04-25T14:16:05.514Z</time></trkpt><trkpt lat="43.4245999" lon="13.0176668"><ele>290.0</ele><time>2026-04-25T14:16:07.522Z</time></trkpt><trkpt lat="43.4246883" lon="13.017688"><ele>290.0</ele><time>2026-04-25T14:16:09.516Z</time></trkpt><trkpt lat="43.4247638" lon="13.0178089"><ele>290.0</ele><time>2026-04-25T14:16:11.53Z</time></trkpt><trkpt lat="43.4247708" lon="13.0179136"><ele>290.0</ele><time>2026-04-25T14:16:12.54Z</time></trkpt><trkpt lat="43.4247256" lon="13.018002"><ele>290.0</ele><time>2026-04-25T14:16:13.528Z</time></trkpt><trkpt lat="43.4246683" lon="13.0180849"><ele>290.0</ele><time>2026-04-25T14:16:14.518Z</time></trkpt><trkpt lat="43.424581" lon="13.0181718"><ele>290.0</ele><time>2026-04-25T14:16:15.508Z</time></trkpt><trkpt lat="43.4244784" lon="13.0182424"><ele>290.0</ele><time>2026-04-25T14:16:16.521Z</time></trkpt><trkpt lat="43.4243607" lon="13.0183191"><ele>290.0</ele><time>2026-04-25T14:16:17.512Z</time></trkpt><trkpt lat="43.4242149" lon="13.0183692"><ele>290.0</ele><time>2026-04-25T14:16:18.518Z</time></trkpt><trkpt lat="43.424055" lon="13.0184184"><ele>291.0</ele><time>2026-04-25T14:16:19.508Z</time></trkpt><trkpt lat="43.4239055" lon="13.0184645"><ele>292.0</ele><time>2026-04-25T14:16:20.505Z</time></trkpt><trkpt lat="43.4237367" lon="13.0185266"><ele>293.0</ele><time>2026-04-25T14:16:21.512Z</time></trkpt><trkpt lat="43.4235631" lon="13.018606"><ele>293.0</ele><time>2026-04-25T14:16:22.503Z</time></trkpt><trkpt lat="43.4234249" lon="13.0186404"><ele>293.0</ele><time>2026-04-25T14:16:23.502Z</time></trkpt><trkpt lat="43.4233012" lon="13.0187346"><ele>293.0</ele><time>2026-04-25T14:16:24.503Z</time></trkpt><trkpt lat="43.423197" lon="13.0188863"><ele>293.0</ele><time>2026-04-25T14:16:25.504Z</time></trkpt><trkpt lat="43.4231201" lon="13.0190443"><ele>290.25</ele><time>2026-04-25T14:16:26.512Z</time></trkpt><trkpt lat="43.4230802" lon="13.0191696"><ele>287.5</ele><time>2026-04-25T14:16:27.513Z</time></trkpt><trkpt lat="43.422966" lon="13.0192106"><ele>284.75</ele><time>2026-04-25T14:16:28.508Z</time></trkpt><trkpt lat="43.4228804" lon="13.0193623"><ele>282.0</ele><time>2026-04-25T14:16:29.515Z</time></trkpt><trkpt lat="43.4228337" lon="13.0194952"><ele>282.0</ele><time>2026-04-25T14:16:30.513Z</time></trkpt><trkpt lat="43.4227598" lon="13.0195886"><ele>282.0</ele><time>2026-04-25T14:16:31.513Z</time></trkpt><trkpt lat="43.4227209" lon="13.0196621"><ele>282.0</ele><time>2026-04-25T14:16:32.513Z</time></trkpt><trkpt lat="43.4226475" lon="13.019789"><ele>282.0</ele><time>2026-04-25T14:16:33.503Z</time></trkpt><trkpt lat="43.4225295" lon="13.0198548"><ele>282.0</ele><time>2026-04-25T14:16:34.504Z</time></trkpt><trkpt lat="43.4223785" lon="13.0199763"><ele>280.3333333333333</ele><time>2026-04-25T14:16:35.507Z</time></trkpt><trkpt lat="43.4222497" lon="13.0201364"><ele>278.66666666666663</ele><time>2026-04-25T14:16:36.502Z</time></trkpt><trkpt lat="43.422109" lon="13.0204522"><ele>277.0</ele><time>2026-04-25T14:16:37.518Z</time></trkpt><trkpt lat="43.4219927" lon="13.0205357"><ele>277.0</ele><time>2026-04-25T14:16:38.502Z</time></trkpt><trkpt lat="43.4218553" lon="13.0205732"><ele>277.0</ele><time>2026-04-25T14:16:39.501Z</time></trkpt><trkpt lat="43.4217703" lon="13.0207172"><ele>277.0</ele><time>2026-04-25T14:16:40.505Z</time></trkpt><trkpt lat="43.4217009" lon="13.0208446"><ele>277.0</ele><time>2026-04-25T14:16:41.509Z</time></trkpt><trkpt lat="43.4216337" lon="13.0208456"><ele>277.0</ele><time>2026-04-25T14:16:42.508Z</time></trkpt><trkpt lat="43.4215683" lon="13.0208799"><ele>277.0</ele><time>2026-04-25T14:16:44.504Z</time></trkpt><trkpt lat="43.4214968" lon="13.0208902"><ele>277.0</ele><time>2026-04-25T14:16:45.511Z</time></trkpt><trkpt lat="43.4216545" lon="13.0207862"><ele>277.0</ele><time>2026-04-25T14:16:50.509Z</time></trkpt><trkpt lat="43.4218016" lon="13.0207148"><ele>277.0</ele><time>2026-04-25T14:16:51.516Z</time></trkpt><trkpt lat="43.4219629" lon="13.0206253"><ele>277.0</ele><time>2026-04-25T14:16:52.506Z</time></trkpt><trkpt lat="43.4221287" lon="13.0205166"><ele>277.0</ele><time>2026-04-25T14:16:53.507Z</time></trkpt><trkpt lat="43.4222973" lon="13.0203983"><ele>267.0</ele><time>2026-04-25T14:16:54.517Z</time></trkpt><trkpt lat="43.4224527" lon="13.0202623"><ele>257.0</ele><time>2026-04-25T14:16:55.511Z</time></trkpt><trkpt lat="43.4226065" lon="13.0201505"><ele>247.0</ele><time>2026-04-25T14:16:56.516Z</time></trkpt><trkpt lat="43.4227459" lon="13.0200279"><ele>247.33333333333331</ele><time>2026-04-25T14:16:57.508Z</time></trkpt><trkpt lat="43.4228984" lon="13.0199167"><ele>247.66666666666669</ele><time>2026-04-25T14:16:58.516Z</time></trkpt><trkpt lat="43.4230429" lon="13.0197989"><ele>248.0</ele><time>2026-04-25T14:16:59.51Z</time></trkpt><trkpt lat="43.4231588" lon="13.0197104"><ele>248.0</ele><time>2026-04-25T14:17:00.514Z</time></trkpt><trkpt lat="43.4232927" lon="13.0196069"><ele>248.0</ele><time>2026-04-25T14:17:01.505Z</time></trkpt><trkpt lat="43.4234288" lon="13.0195389"><ele>248.0</ele><time>2026-04-25T14:17:02.513Z</time></trkpt><trkpt lat="43.4235597" lon="13.0194757"><ele>248.0</ele><time>2026-04-25T14:17:03.508Z</time></trkpt><trkpt lat="43.4236416" lon="13.0193732"><ele>248.0</ele><time>2026-04-25T14:17:04.504Z</time></trkpt><trkpt lat="43.4237483" lon="13.0192993"><ele>248.0</ele><time>2026-04-25T14:17:05.506Z</time></trkpt><trkpt lat="43.4238532" lon="13.0192665"><ele>248.0</ele><time>2026-04-25T14:17:06.5Z</time></trkpt><trkpt lat="43.4239551" lon="13.0192783"><ele>248.0</ele><time>2026-04-25T14:17:07.496Z</time></trkpt><trkpt lat="43.4240424" lon="13.0192494"><ele>248.0</ele><time>2026-04-25T14:17:08.511Z</time></trkpt><trkpt lat="43.4241571" lon="13.0192154"><ele>240.75</ele><time>2026-04-25T14:17:09.506Z</time></trkpt><trkpt lat="43.4242633" lon="13.0191966"><ele>233.5</ele><time>2026-04-25T14:17:10.504Z</time></trkpt><trkpt lat="43.4243881" lon="13.0191736"><ele>226.25</ele><time>2026-04-25T14:17:11.506Z</time></trkpt><trkpt lat="43.4245015" lon="13.0191843"><ele>219.0</ele><time>2026-04-25T14:17:12.505Z</time></trkpt><trkpt lat="43.4246062" lon="13.0191899"><ele>214.75</ele><time>2026-04-25T14:17:13.511Z</time></trkpt><trkpt lat="43.4247244" lon="13.0191806"><ele>210.5</ele><time>2026-04-25T14:17:14.508Z</time></trkpt><trkpt lat="43.4248491" lon="13.0191366"><ele>206.25</ele><time>2026-04-25T14:17:15.512Z</time></trkpt><trkpt lat="43.4249739" lon="13.0190845"><ele>202.0</ele><time>2026-04-25T14:17:16.508Z</time></trkpt><trkpt lat="43.4251002" lon="13.0190536"><ele>206.0</ele><time>2026-04-25T14:17:17.513Z</time></trkpt><trkpt lat="43.4252238" lon="13.0190316"><ele>210.0</ele><time>2026-04-25T14:17:18.511Z</time></trkpt><trkpt lat="43.4253543" lon="13.019005"><ele>214.0</ele><time>2026-04-25T14:17:19.51Z</time></trkpt><trkpt lat="43.4254812" lon="13.0189757"><ele>218.0</ele><time>2026-04-25T14:17:20.508Z</time></trkpt><trkpt lat="43.4256068" lon="13.0189534"><ele>218.0</ele><time>2026-04-25T14:17:21.512Z</time></trkpt><trkpt lat="43.4257415" lon="13.0189212"><ele>218.0</ele><time>2026-04-25T14:17:22.506Z</time></trkpt><trkpt lat="43.4258797" lon="13.0188915"><ele>218.0</ele><time>2026-04-25T14:17:23.513Z</time></trkpt><trkpt lat="43.4260275" lon="13.0188422"><ele>218.0</ele><time>2026-04-25T14:17:24.506Z</time></trkpt><trkpt lat="43.4261553" lon="13.0188456"><ele>218.0</ele><time>2026-04-25T14:17:25.509Z</time></trkpt><trkpt lat="43.4262942" lon="13.0188207"><ele>218.0</ele><time>2026-04-25T14:17:26.507Z</time></trkpt><trkpt lat="43.4264082" lon="13.0188169"><ele>218.0</ele><time>2026-04-25T14:17:27.505Z</time></trkpt><trkpt lat="43.4264958" lon="13.0187846"><ele>218.0</ele><time>2026-04-25T14:17:28.506Z</time></trkpt><trkpt lat="43.4265607" lon="13.0187586"><ele>218.0</ele><time>2026-04-25T14:17:29.51Z</time></trkpt><trkpt lat="43.4266249" lon="13.0187578"><ele>214.83333333333334</ele><time>2026-04-25T14:17:30.51Z</time></trkpt><trkpt lat="43.4266933" lon="13.0187582"><ele>211.66666666666669</ele><time>2026-04-25T14:17:31.509Z</time></trkpt><trkpt lat="43.4267858" lon="13.018867"><ele>208.5</ele><time>2026-04-25T14:17:33.512Z</time></trkpt><trkpt lat="43.426842" lon="13.0189187"><ele>205.33333333333331</ele><time>2026-04-25T14:17:34.512Z</time></trkpt><trkpt lat="43.4268685" lon="13.0190353"><ele>202.16666666666666</ele><time>2026-04-25T14:17:35.509Z</time></trkpt><trkpt lat="43.4268356" lon="13.0191204"><ele>199.0</ele><time>2026-04-25T14:17:36.522Z</time></trkpt><trkpt lat="43.4267915" lon="13.0192058"><ele>199.0</ele><time>2026-04-25T14:17:37.518Z</time></trkpt><trkpt lat="43.4267408" lon="13.0192786"><ele>199.0</ele><time>2026-04-25T14:17:38.521Z</time></trkpt><trkpt lat="43.4267067" lon="13.0193949"><ele>199.0</ele><time>2026-04-25T14:17:40.523Z</time></trkpt><trkpt lat="43.4267963" lon="13.0193909"><ele>199.0</ele><time>2026-04-25T14:17:43.522Z</time></trkpt><trkpt lat="43.4268481" lon="13.0192022"><ele>199.0</ele><time>2026-04-25T14:17:45.522Z</time></trkpt><trkpt lat="43.426903" lon="13.0190755"><ele>199.0</ele><time>2026-04-25T14:17:46.509Z</time></trkpt><trkpt lat="43.4269583" lon="13.0189456"><ele>199.0</ele><time>2026-04-25T14:17:47.51Z</time></trkpt><trkpt lat="43.4270143" lon="13.0188054"><ele>199.0</ele><time>2026-04-25T14:17:48.521Z</time></trkpt><trkpt lat="43.4270738" lon="13.01869"><ele>199.0</ele><time>2026-04-25T14:17:49.512Z</time></trkpt><trkpt lat="43.4271276" lon="13.0185753"><ele>199.0</ele><time>2026-04-25T14:17:50.507Z</time></trkpt><trkpt lat="43.4271647" lon="13.0184399"><ele>196.49999999999997</ele><time>2026-04-25T14:17:51.503Z</time></trkpt><trkpt lat="43.427204" lon="13.0183376"><ele>194.0</ele><time>2026-04-25T14:17:52.514Z</time></trkpt><trkpt lat="43.4272349" lon="13.0182501"><ele>191.5</ele><time>2026-04-25T14:17:53.512Z</time></trkpt><trkpt lat="43.4272886" lon="13.0181354"><ele>189.0</ele><time>2026-04-25T14:17:55.512Z</time></trkpt><trkpt lat="43.4273944" lon="13.0181095"><ele>186.5</ele><time>2026-04-25T14:17:57.515Z</time></trkpt><trkpt lat="43.4274703" lon="13.0181273"><ele>184.0</ele><time>2026-04-25T14:17:58.508Z</time></trkpt><trkpt lat="43.4275427" lon="13.0180899"><ele>184.0</ele><time>2026-04-25T14:17:59.514Z</time></trkpt><trkpt lat="43.4276343" lon="13.0180493"><ele>184.0</ele><time>2026-04-25T14:18:00.511Z</time></trkpt><trkpt lat="43.4277295" lon="13.0179855"><ele>184.0</ele><time>2026-04-25T14:18:01.51Z</time></trkpt><trkpt lat="43.4278326" lon="13.0179141"><ele>184.0</ele><time>2026-04-25T14:18:02.512Z</time></trkpt><trkpt lat="43.4279381" lon="13.0178332"><ele>184.0</ele><time>2026-04-25T14:18:03.516Z</time></trkpt><trkpt lat="43.4280515" lon="13.0177671"><ele>181.0</ele><time>2026-04-25T14:18:04.517Z</time></trkpt><trkpt lat="43.4281626" lon="13.0177078"><ele>178.0</ele><time>2026-04-25T14:18:05.518Z</time></trkpt><trkpt lat="43.4282554" lon="13.0177007"><ele>175.0</ele><time>2026-04-25T14:18:06.517Z</time></trkpt><trkpt lat="43.4283423" lon="13.0177242"><ele>172.0</ele><time>2026-04-25T14:18:07.521Z</time></trkpt><trkpt lat="43.4284155" lon="13.0177816"><ele>169.0</ele><time>2026-04-25T14:18:08.52Z</time></trkpt><trkpt lat="43.428484" lon="13.0178689"><ele>169.0</ele><time>2026-04-25T14:18:09.516Z</time></trkpt><trkpt lat="43.4285577" lon="13.0179353"><ele>169.0</ele><time>2026-04-25T14:18:10.526Z</time></trkpt><trkpt lat="43.4286398" lon="13.0179752"><ele>169.0</ele><time>2026-04-25T14:18:11.516Z</time></trkpt><trkpt lat="43.4287429" lon="13.0179918"><ele>169.0</ele><time>2026-04-25T14:18:12.521Z</time></trkpt><trkpt lat="43.4288325" lon="13.017976"><ele>169.0</ele><time>2026-04-25T14:18:13.515Z</time></trkpt><trkpt lat="43.4289243" lon="13.017945"><ele>167.6</ele><time>2026-04-25T14:18:14.51Z</time></trkpt><trkpt lat="43.4290209" lon="13.0179239"><ele>166.2</ele><time>2026-04-25T14:18:15.499Z</time></trkpt><trkpt lat="43.4291102" lon="13.01792"><ele>164.79999999999998</ele><time>2026-04-25T14:18:16.502Z</time></trkpt><trkpt lat="43.4292048" lon="13.0179473"><ele>163.39999999999998</ele><time>2026-04-25T14:18:17.501Z</time></trkpt><trkpt lat="43.4293096" lon="13.0179926"><ele>162.0</ele><time>2026-04-25T14:18:18.52Z</time></trkpt><trkpt lat="43.4294177" lon="13.0180194"><ele>162.0</ele><time>2026-04-25T14:18:19.511Z</time></trkpt><trkpt lat="43.4295268" lon="13.0180143"><ele>162.0</ele><time>2026-04-25T14:18:20.515Z</time></trkpt><trkpt lat="43.42962" lon="13.0179825"><ele>162.0</ele><time>2026-04-25T14:18:21.518Z</time></trkpt><trkpt lat="43.4297044" lon="13.0179531"><ele>162.0</ele><time>2026-04-25T14:18:22.518Z</time></trkpt><trkpt lat="43.4297913" lon="13.0179333"><ele>162.0</ele><time>2026-04-25T14:18:23.517Z</time></trkpt><trkpt lat="43.4298841" lon="13.0179275"><ele>161.4</ele><time>2026-04-25T14:18:24.513Z</time></trkpt><trkpt lat="43.4299704" lon="13.017937"><ele>160.79999999999998</ele><time>2026-04-25T14:18:25.518Z</time></trkpt><trkpt lat="43.4300704" lon="13.0179717"><ele>160.2</ele><time>2026-04-25T14:18:26.515Z</time></trkpt><trkpt lat="43.4301709" lon="13.0180071"><ele>159.6</ele><time>2026-04-25T14:18:27.511Z</time></trkpt><trkpt lat="43.43027" lon="13.0180547"><ele>159.0</ele><time>2026-04-25T14:18:28.515Z</time></trkpt><trkpt lat="43.4303596" lon="13.018105"><ele>159.0</ele><time>2026-04-25T14:18:29.513Z</time></trkpt><trkpt lat="43.4304697" lon="13.0181566"><ele>159.0</ele><time>2026-04-25T14:18:30.515Z</time></trkpt><trkpt lat="43.4305757" lon="13.0182068"><ele>159.0</ele><time>2026-04-25T14:18:31.518Z</time></trkpt><trkpt lat="43.4306862" lon="13.0182444"><ele>159.0</ele><time>2026-04-25T14:18:32.515Z</time></trkpt><trkpt lat="43.4307836" lon="13.0182809"><ele>159.0</ele><time>2026-04-25T14:18:33.524Z</time></trkpt><trkpt lat="43.4308608" lon="13.0183087"><ele>158.85714285714286</ele><time>2026-04-25T14:18:34.514Z</time></trkpt><trkpt lat="43.4309458" lon="13.0183045"><ele>158.71428571428572</ele><time>2026-04-25T14:18:35.52Z</time></trkpt><trkpt lat="43.4310205" lon="13.0183154"><ele>158.57142857142858</ele><time>2026-04-25T14:18:36.519Z</time></trkpt><trkpt lat="43.4310836" lon="13.018332"><ele>158.42857142857144</ele><time>2026-04-25T14:18:37.516Z</time></trkpt><trkpt lat="43.4311479" lon="13.0183599"><ele>158.28571428571428</ele><time>2026-04-25T14:18:38.518Z</time></trkpt><trkpt lat="43.4312041" lon="13.0184051"><ele>158.14285714285717</ele><time>2026-04-25T14:18:39.519Z</time></trkpt><trkpt lat="43.4312525" lon="13.0185001"><ele>158.0</ele><time>2026-04-25T14:18:40.525Z</time></trkpt><trkpt lat="43.4312879" lon="13.0186309"><ele>159.4</ele><time>2026-04-25T14:18:41.533Z</time></trkpt><trkpt lat="43.4313029" lon="13.0187841"><ele>160.8</ele><time>2026-04-25T14:18:42.519Z</time></trkpt><trkpt lat="43.4313228" lon="13.0189128"><ele>162.2</ele><time>2026-04-25T14:18:43.513Z</time></trkpt><trkpt lat="43.431372" lon="13.0190233"><ele>163.6</ele><time>2026-04-25T14:18:44.515Z</time></trkpt><trkpt lat="43.4314328" lon="13.019121"><ele>165.0</ele><time>2026-04-25T14:18:45.52Z</time></trkpt><trkpt lat="43.4315294" lon="13.0191876"><ele>166.8</ele><time>2026-04-25T14:18:46.516Z</time></trkpt><trkpt lat="43.4316277" lon="13.0192398"><ele>168.6</ele><time>2026-04-25T14:18:47.519Z</time></trkpt><trkpt lat="43.4317278" lon="13.0192992"><ele>170.39999999999998</ele><time>2026-04-25T14:18:48.521Z</time></trkpt><trkpt lat="43.4318383" lon="13.0193574"><ele>172.2</ele><time>2026-04-25T14:18:49.515Z</time></trkpt><trkpt lat="43.4319376" lon="13.0194168"><ele>174.0</ele><time>2026-04-25T14:18:50.517Z</time></trkpt><trkpt lat="43.4320388" lon="13.0194831"><ele>172.39999999999998</ele><time>2026-04-25T14:18:51.517Z</time></trkpt><trkpt lat="43.4321452" lon="13.0195327"><ele>170.8</ele><time>2026-04-25T14:18:52.516Z</time></trkpt><trkpt lat="43.4322415" lon="13.0196086"><ele>169.2</ele><time>2026-04-25T14:18:53.516Z</time></trkpt><trkpt lat="43.4323314" lon="13.0196716"><ele>167.60000000000002</ele><time>2026-04-25T14:18:54.52Z</time></trkpt><trkpt lat="43.4324299" lon="13.019747"><ele>166.0</ele><time>2026-04-25T14:18:55.52Z</time></trkpt><trkpt lat="43.4325152" lon="13.0198197"><ele>166.0</ele><time>2026-04-25T14:18:56.521Z</time></trkpt><trkpt lat="43.43259" lon="13.0198979"><ele>166.0</ele><time>2026-04-25T14:18:57.522Z</time></trkpt><trkpt lat="43.4326724" lon="13.0199766"><ele>166.0</ele><time>2026-04-25T14:18:58.517Z</time></trkpt><trkpt lat="43.4327712" lon="13.0200513"><ele>166.0</ele><time>2026-04-25T14:18:59.522Z</time></trkpt><trkpt lat="43.4328376" lon="13.0201333"><ele>166.0</ele><time>2026-04-25T14:19:00.524Z</time></trkpt><trkpt lat="43.4329054" lon="13.020199"><ele>165.20000000000002</ele><time>2026-04-25T14:19:01.517Z</time></trkpt><trkpt lat="43.4329586" lon="13.0202796"><ele>164.4</ele><time>2026-04-25T14:19:03.515Z</time></trkpt><trkpt lat="43.4330399" lon="13.0203803"><ele>163.6</ele><time>2026-04-25T14:19:05.518Z</time></trkpt><trkpt lat="43.433097" lon="13.0204601"><ele>162.8</ele><time>2026-04-25T14:19:06.516Z</time></trkpt><trkpt lat="43.4331751" lon="13.0205585"><ele>162.0</ele><time>2026-04-25T14:19:07.516Z</time></trkpt><trkpt lat="43.4332585" lon="13.0206773"><ele>162.0</ele><time>2026-04-25T14:19:08.532Z</time></trkpt><trkpt lat="43.4333663" lon="13.0208133"><ele>162.0</ele><time>2026-04-25T14:19:09.527Z</time></trkpt><trkpt lat="43.4334925" lon="13.0209413"><ele>162.0</ele><time>2026-04-25T14:19:10.532Z</time></trkpt><trkpt lat="43.433581" lon="13.0210519"><ele>162.0</ele><time>2026-04-25T14:19:11.537Z</time></trkpt><trkpt lat="43.4336771" lon="13.0211467"><ele>161.8</ele><time>2026-04-25T14:19:12.539Z</time></trkpt><trkpt lat="43.4337696" lon="13.0212296"><ele>161.6</ele><time>2026-04-25T14:19:13.524Z</time></trkpt><trkpt lat="43.4338609" lon="13.021299"><ele>161.4</ele><time>2026-04-25T14:19:14.529Z</time></trkpt><trkpt lat="43.4339529" lon="13.0213539"><ele>161.20000000000002</ele><time>2026-04-25T14:19:15.532Z</time></trkpt><trkpt lat="43.4340485" lon="13.0214173"><ele>161.0</ele><time>2026-04-25T14:19:16.534Z</time></trkpt><trkpt lat="43.4341555" lon="13.0214459"><ele>161.0</ele><time>2026-04-25T14:19:17.535Z</time></trkpt><trkpt lat="43.4342692" lon="13.0214432"><ele>161.0</ele><time>2026-04-25T14:19:18.535Z</time></trkpt><trkpt lat="43.4343896" lon="13.0214257"><ele>161.0</ele><time>2026-04-25T14:19:19.533Z</time></trkpt><trkpt lat="43.4345096" lon="13.0213925"><ele>161.0</ele><time>2026-04-25T14:19:20.536Z</time></trkpt><trkpt lat="43.4346319" lon="13.0213758"><ele>159.75</ele><time>2026-04-25T14:19:21.539Z</time></trkpt><trkpt lat="43.4347498" lon="13.0213648"><ele>158.5</ele><time>2026-04-25T14:19:22.536Z</time></trkpt><trkpt lat="43.4348627" lon="13.0213768"><ele>157.25</ele><time>2026-04-25T14:19:23.526Z</time></trkpt><trkpt lat="43.4349672" lon="13.0214177"><ele>156.0</ele><time>2026-04-25T14:19:24.528Z</time></trkpt><trkpt lat="43.4350686" lon="13.0214865"><ele>156.0</ele><time>2026-04-25T14:19:25.537Z</time></trkpt><trkpt lat="43.4351679" lon="13.0215783"><ele>156.0</ele><time>2026-04-25T14:19:26.541Z</time></trkpt><trkpt lat="43.4352689" lon="13.0216648"><ele>156.0</ele><time>2026-04-25T14:19:27.54Z</time></trkpt><trkpt lat="43.435365" lon="13.0217382"><ele>156.0</ele><time>2026-04-25T14:19:28.538Z</time></trkpt><trkpt lat="43.4354565" lon="13.0217959"><ele>156.0</ele><time>2026-04-25T14:19:29.539Z</time></trkpt><trkpt lat="43.4355364" lon="13.021857"><ele>156.83333333333334</ele><time>2026-04-25T14:19:30.542Z</time></trkpt><trkpt lat="43.4355996" lon="13.0219133"><ele>157.66666666666666</ele><time>2026-04-25T14:19:31.536Z</time></trkpt><trkpt lat="43.4356849" lon="13.021999"><ele>158.5</ele><time>2026-04-25T14:19:33.531Z</time></trkpt><trkpt lat="43.4357207" lon="13.0220727"><ele>159.33333333333331</ele><time>2026-04-25T14:19:35.538Z</time></trkpt><trkpt lat="43.4357454" lon="13.022167"><ele>160.16666666666666</ele><time>2026-04-25T14:19:38.539Z</time></trkpt><trkpt lat="43.4357233" lon="13.0222593"><ele>161.0</ele><time>2026-04-25T14:19:40.538Z</time></trkpt><trkpt lat="43.4356581" lon="13.0224278"><ele>161.75</ele><time>2026-04-25T14:19:42.534Z</time></trkpt><trkpt lat="43.435638" lon="13.0225566"><ele>162.5</ele><time>2026-04-25T14:19:43.541Z</time></trkpt><trkpt lat="43.4356165" lon="13.0227071"><ele>163.25</ele><time>2026-04-25T14:19:44.537Z</time></trkpt><trkpt lat="43.4356001" lon="13.0228804"><ele>164.0</ele><time>2026-04-25T14:19:45.537Z</time></trkpt><trkpt lat="43.4355686" lon="13.0230627"><ele>164.0</ele><time>2026-04-25T14:19:46.539Z</time></trkpt><trkpt lat="43.4355436" lon="13.0232361"><ele>164.0</ele><time>2026-04-25T14:19:47.537Z</time></trkpt><trkpt lat="43.4355171" lon="13.0234039"><ele>164.0</ele><time>2026-04-25T14:19:48.544Z</time></trkpt><trkpt lat="43.4354939" lon="13.0235723"><ele>164.0</ele><time>2026-04-25T14:19:49.537Z</time></trkpt><trkpt lat="43.4354719" lon="13.0237177"><ele>164.33333333333331</ele><time>2026-04-25T14:19:50.539Z</time></trkpt><trkpt lat="43.4354603" lon="13.0238396"><ele>164.66666666666666</ele><time>2026-04-25T14:19:51.54Z</time></trkpt><trkpt lat="43.4354552" lon="13.0239349"><ele>165.0</ele><time>2026-04-25T14:19:52.535Z</time></trkpt><trkpt lat="43.4354979" lon="13.0241048"><ele>165.33333333333334</ele><time>2026-04-25T14:19:54.541Z</time></trkpt><trkpt lat="43.4355509" lon="13.0241618"><ele>165.66666666666669</ele><time>2026-04-25T14:19:55.54Z</time></trkpt><trkpt lat="43.4356296" lon="13.0242017"><ele>166.0</ele><time>2026-04-25T14:19:56.537Z</time></trkpt><trkpt lat="43.4357266" lon="13.0242255"><ele>167.5</ele><time>2026-04-25T14:19:57.532Z</time></trkpt><trkpt lat="43.435827" lon="13.0242605"><ele>169.0</ele><time>2026-04-25T14:19:58.541Z</time></trkpt><trkpt lat="43.4359364" lon="13.0243204"><ele>170.5</ele><time>2026-04-25T14:19:59.544Z</time></trkpt><trkpt lat="43.436053" lon="13.0243865"><ele>172.0</ele><time>2026-04-25T14:20:00.546Z</time></trkpt><trkpt lat="43.4361721" lon="13.0244606"><ele>172.0</ele><time>2026-04-25T14:20:01.549Z</time></trkpt><trkpt lat="43.4362892" lon="13.0245519"><ele>172.0</ele><time>2026-04-25T14:20:02.544Z</time></trkpt><trkpt lat="43.4364029" lon="13.0246574"><ele>172.0</ele><time>2026-04-25T14:20:03.545Z</time></trkpt><trkpt lat="43.4365061" lon="13.0247923"><ele>172.0</ele><time>2026-04-25T14:20:04.536Z</time></trkpt><trkpt lat="43.4366036" lon="13.0249504"><ele>171.0</ele><time>2026-04-25T14:20:05.542Z</time></trkpt><trkpt lat="43.4366875" lon="13.025117"><ele>170.0</ele><time>2026-04-25T14:20:06.538Z</time></trkpt><trkpt lat="43.4367707" lon="13.0252916"><ele>169.0</ele><time>2026-04-25T14:20:07.544Z</time></trkpt><trkpt lat="43.4368634" lon="13.0254683"><ele>169.0</ele><time>2026-04-25T14:20:08.538Z</time></trkpt><trkpt lat="43.4369529" lon="13.0256582"><ele>169.0</ele><time>2026-04-25T14:20:09.543Z</time></trkpt><trkpt lat="43.4370517" lon="13.0258568"><ele>169.0</ele><time>2026-04-25T14:20:10.541Z</time></trkpt><trkpt lat="43.4371536" lon="13.0260424"><ele>168.0</ele><time>2026-04-25T14:20:11.545Z</time></trkpt><trkpt lat="43.4372454" lon="13.0262293"><ele>167.0</ele><time>2026-04-25T14:20:12.538Z</time></trkpt><trkpt lat="43.4373329" lon="13.0264195"><ele>166.0</ele><time>2026-04-25T14:20:13.542Z</time></trkpt><trkpt lat="43.4374256" lon="13.0266021"><ele>166.66666666666669</ele><time>2026-04-25T14:20:14.545Z</time></trkpt><trkpt lat="43.4375128" lon="13.0267984"><ele>167.33333333333334</ele><time>2026-04-25T14:20:15.542Z</time></trkpt><trkpt lat="43.4375996" lon="13.0270011"><ele>168.0</ele><time>2026-04-25T14:20:16.544Z</time></trkpt><trkpt lat="43.4376704" lon="13.02721"><ele>168.0</ele><time>2026-04-25T14:20:17.547Z</time></trkpt><trkpt lat="43.4377392" lon="13.0273986"><ele>168.0</ele><time>2026-04-25T14:20:18.551Z</time></trkpt><trkpt lat="43.4378068" lon="13.0275661"><ele>168.0</ele><time>2026-04-25T14:20:19.552Z</time></trkpt><trkpt lat="43.437879" lon="13.0277296"><ele>168.0</ele><time>2026-04-25T14:20:20.544Z</time></trkpt><trkpt lat="43.4379368" lon="13.0278666"><ele>166.5</ele><time>2026-04-25T14:20:21.534Z</time></trkpt><trkpt lat="43.4380149" lon="13.0279916"><ele>165.0</ele><time>2026-04-25T14:20:22.542Z</time></trkpt><trkpt lat="43.4380921" lon="13.0281253"><ele>163.5</ele><time>2026-04-25T14:20:23.544Z</time></trkpt><trkpt lat="43.4381748" lon="13.028258"><ele>162.0</ele><time>2026-04-25T14:20:24.548Z</time></trkpt><trkpt lat="43.4382639" lon="13.0283611"><ele>162.0</ele><time>2026-04-25T14:20:25.546Z</time></trkpt><trkpt lat="43.4383255" lon="13.0284437"><ele>162.0</ele><time>2026-04-25T14:20:26.546Z</time></trkpt><trkpt lat="43.438366" lon="13.0285144"><ele>162.0</ele><time>2026-04-25T14:20:27.534Z</time></trkpt><trkpt lat="43.4384257" lon="13.0285904"><ele>162.0</ele><time>2026-04-25T14:20:29.536Z</time></trkpt><trkpt lat="43.4384672" lon="13.0286653"><ele>162.0</ele><time>2026-04-25T14:20:31.542Z</time></trkpt><trkpt lat="43.4385504" lon="13.0287812"><ele>162.0</ele><time>2026-04-25T14:20:33.544Z</time></trkpt><trkpt lat="43.4386192" lon="13.0288256"><ele>162.0</ele><time>2026-04-25T14:20:35.544Z</time></trkpt><trkpt lat="43.4386936" lon="13.0287968"><ele>162.0</ele><time>2026-04-25T14:20:38.537Z</time></trkpt><trkpt lat="43.4387343" lon="13.0287268"><ele>162.0</ele><time>2026-04-25T14:20:40.537Z</time></trkpt><trkpt lat="43.4387508" lon="13.0286235"><ele>162.0</ele><time>2026-04-25T14:20:42.54Z</time></trkpt><trkpt lat="43.4387857" lon="13.0284656"><ele>162.0</ele><time>2026-04-25T14:20:44.537Z</time></trkpt><trkpt lat="43.4388232" lon="13.0283764"><ele>162.0</ele><time>2026-04-25T14:20:45.54Z</time></trkpt><trkpt lat="43.4388746" lon="13.0283148"><ele>161.83333333333334</ele><time>2026-04-25T14:20:46.534Z</time></trkpt><trkpt lat="43.4389576" lon="13.0282431"><ele>161.66666666666666</ele><time>2026-04-25T14:20:48.539Z</time></trkpt><trkpt lat="43.4390223" lon="13.0282272"><ele>161.5</ele><time>2026-04-25T14:20:50.535Z</time></trkpt><trkpt lat="43.4391035" lon="13.0281908"><ele>161.33333333333331</ele><time>2026-04-25T14:20:52.54Z</time></trkpt><trkpt lat="43.4392076" lon="13.0281469"><ele>161.16666666666666</ele><time>2026-04-25T14:20:54.544Z</time></trkpt><trkpt lat="43.4392705" lon="13.0281307"><ele>161.0</ele><time>2026-04-25T14:20:55.545Z</time></trkpt><trkpt lat="43.4393402" lon="13.0281159"><ele>161.0</ele><time>2026-04-25T14:20:56.539Z</time></trkpt><trkpt lat="43.4394204" lon="13.0281093"><ele>161.0</ele><time>2026-04-25T14:20:57.55Z</time></trkpt><trkpt lat="43.4395046" lon="13.028115"><ele>161.0</ele><time>2026-04-25T14:20:58.544Z</time></trkpt><trkpt lat="43.4395861" lon="13.0281193"><ele>161.0</ele><time>2026-04-25T14:20:59.54Z</time></trkpt><trkpt lat="43.439673" lon="13.0281406"><ele>161.0</ele><time>2026-04-25T14:21:00.538Z</time></trkpt><trkpt lat="43.4397732" lon="13.0281591"><ele>161.0</ele><time>2026-04-25T14:21:01.54Z</time></trkpt><trkpt lat="43.4398782" lon="13.0281781"><ele>159.75</ele><time>2026-04-25T14:21:02.536Z</time></trkpt><trkpt lat="43.4399903" lon="13.0281943"><ele>158.5</ele><time>2026-04-25T14:21:03.543Z</time></trkpt><trkpt lat="43.4401148" lon="13.0282035"><ele>157.25</ele><time>2026-04-25T14:21:04.539Z</time></trkpt><trkpt lat="43.4402442" lon="13.0282181"><ele>156.0</ele><time>2026-04-25T14:21:05.536Z</time></trkpt><trkpt lat="43.4403895" lon="13.0282502"><ele>154.5</ele><time>2026-04-25T14:21:06.542Z</time></trkpt><trkpt lat="43.4405258" lon="13.0282812"><ele>153.0</ele><time>2026-04-25T14:21:07.536Z</time></trkpt><trkpt lat="43.4406502" lon="13.0283293"><ele>151.5</ele><time>2026-04-25T14:21:08.541Z</time></trkpt><trkpt lat="43.4407544" lon="13.0283793"><ele>150.0</ele><time>2026-04-25T14:21:09.529Z</time></trkpt><trkpt lat="43.440845" lon="13.0284348"><ele>150.0</ele><time>2026-04-25T14:21:10.532Z</time></trkpt><trkpt lat="43.4409225" lon="13.0285124"><ele>150.0</ele><time>2026-04-25T14:21:11.529Z</time></trkpt><trkpt lat="43.4409888" lon="13.0286166"><ele>150.0</ele><time>2026-04-25T14:21:12.542Z</time></trkpt><trkpt lat="43.4410643" lon="13.0287295"><ele>150.0</ele><time>2026-04-25T14:21:13.535Z</time></trkpt><trkpt lat="43.4411399" lon="13.0288409"><ele>150.0</ele><time>2026-04-25T14:21:14.542Z</time></trkpt><trkpt lat="43.4412167" lon="13.0289644"><ele>150.0</ele><time>2026-04-25T14:21:15.539Z</time></trkpt><trkpt lat="43.4413057" lon="13.0291005"><ele>150.0</ele><time>2026-04-25T14:21:16.547Z</time></trkpt><trkpt lat="43.4414051" lon="13.0292481"><ele>150.0</ele><time>2026-04-25T14:21:17.536Z</time></trkpt><trkpt lat="43.441524" lon="13.0294025"><ele>150.0</ele><time>2026-04-25T14:21:18.546Z</time></trkpt><trkpt lat="43.4416374" lon="13.0295614"><ele>150.0</ele><time>2026-04-25T14:21:19.533Z</time></trkpt><trkpt lat="43.4417584" lon="13.0297085"><ele>150.0</ele><time>2026-04-25T14:21:20.543Z</time></trkpt><trkpt lat="43.4418818" lon="13.029865"><ele>150.0</ele><time>2026-04-25T14:21:21.541Z</time></trkpt><trkpt lat="43.4420103" lon="13.0300319"><ele>149.66666666666666</ele><time>2026-04-25T14:21:22.542Z</time></trkpt><trkpt lat="43.4421468" lon="13.0301924"><ele>149.33333333333331</ele><time>2026-04-25T14:21:23.544Z</time></trkpt><trkpt lat="43.4422857" lon="13.0303692"><ele>149.0</ele><time>2026-04-25T14:21:24.549Z</time></trkpt><trkpt lat="43.4424316" lon="13.0305363"><ele>149.0</ele><time>2026-04-25T14:21:25.541Z</time></trkpt><trkpt lat="43.4425878" lon="13.0307006"><ele>149.0</ele><time>2026-04-25T14:21:26.549Z</time></trkpt><trkpt lat="43.4427441" lon="13.0308712"><ele>149.0</ele><time>2026-04-25T14:21:27.545Z</time></trkpt><trkpt lat="43.4429043" lon="13.0310318"><ele>148.0</ele><time>2026-04-25T14:21:28.548Z</time></trkpt><trkpt lat="43.4430726" lon="13.0311931"><ele>147.0</ele><time>2026-04-25T14:21:29.548Z</time></trkpt><trkpt lat="43.4432483" lon="13.0313502"><ele>146.0</ele><time>2026-04-25T14:21:30.551Z</time></trkpt><trkpt lat="43.4434158" lon="13.0314981"><ele>146.66666666666666</ele><time>2026-04-25T14:21:31.548Z</time></trkpt><trkpt lat="43.4435881" lon="13.0316426"><ele>147.33333333333334</ele><time>2026-04-25T14:21:32.552Z</time></trkpt><trkpt lat="43.4437687" lon="13.0317924"><ele>148.0</ele><time>2026-04-25T14:21:33.549Z</time></trkpt><trkpt lat="43.4439585" lon="13.0319402"><ele>148.0</ele><time>2026-04-25T14:21:34.55Z</time></trkpt><trkpt lat="43.4441428" lon="13.032071"><ele>148.0</ele><time>2026-04-25T14:21:35.547Z</time></trkpt><trkpt lat="43.4443271" lon="13.032209"><ele>148.0</ele><time>2026-04-25T14:21:36.555Z</time></trkpt><trkpt lat="43.4445116" lon="13.032347"><ele>148.0</ele><time>2026-04-25T14:21:37.542Z</time></trkpt><trkpt lat="43.4447041" lon="13.0324682"><ele>148.0</ele><time>2026-04-25T14:21:38.55Z</time></trkpt><trkpt lat="43.4449022" lon="13.0325944"><ele>148.0</ele><time>2026-04-25T14:21:39.537Z</time></trkpt><trkpt lat="43.4450888" lon="13.0327076"><ele>148.0</ele><time>2026-04-25T14:21:40.542Z</time></trkpt><trkpt lat="43.4452916" lon="13.0328408"><ele>148.0</ele><time>2026-04-25T14:21:41.535Z</time></trkpt><trkpt lat="43.4454751" lon="13.0329796"><ele>148.0</ele><time>2026-04-25T14:21:42.545Z</time></trkpt><trkpt lat="43.4456709" lon="13.0331217"><ele>148.0</ele><time>2026-04-25T14:21:43.54Z</time></trkpt><trkpt lat="43.4458539" lon="13.0332744"><ele>148.0</ele><time>2026-04-25T14:21:44.544Z</time></trkpt><trkpt lat="43.4460431" lon="13.0334229"><ele>148.0</ele><time>2026-04-25T14:21:45.535Z</time></trkpt><trkpt lat="43.4462209" lon="13.0335729"><ele>147.33333333333334</ele><time>2026-04-25T14:21:46.539Z</time></trkpt><trkpt lat="43.4463946" lon="13.0337195"><ele>146.66666666666666</ele><time>2026-04-25T14:21:47.542Z</time></trkpt><trkpt lat="43.4465752" lon="13.0338815"><ele>146.0</ele><time>2026-04-25T14:21:48.537Z</time></trkpt><trkpt lat="43.4467487" lon="13.0340591"><ele>146.33333333333331</ele><time>2026-04-25T14:21:49.54Z</time></trkpt><trkpt lat="43.4469162" lon="13.0342186"><ele>146.66666666666666</ele><time>2026-04-25T14:21:50.533Z</time></trkpt><trkpt lat="43.4470855" lon="13.0343804"><ele>147.0</ele><time>2026-04-25T14:21:51.54Z</time></trkpt><trkpt lat="43.4472497" lon="13.034559"><ele>147.0</ele><time>2026-04-25T14:21:52.534Z</time></trkpt><trkpt lat="43.4474313" lon="13.0347481"><ele>147.0</ele><time>2026-04-25T14:21:53.539Z</time></trkpt><trkpt lat="43.4475933" lon="13.0349542"><ele>147.0</ele><time>2026-04-25T14:21:54.539Z</time></trkpt><trkpt lat="43.4477681" lon="13.0351495"><ele>147.0</ele><time>2026-04-25T14:21:55.546Z</time></trkpt><trkpt lat="43.4479334" lon="13.035368"><ele>147.0</ele><time>2026-04-25T14:21:56.538Z</time></trkpt><trkpt lat="43.4481017" lon="13.0355786"><ele>147.0</ele><time>2026-04-25T14:21:57.541Z</time></trkpt><trkpt lat="43.4482608" lon="13.035793"><ele>147.0</ele><time>2026-04-25T14:21:58.534Z</time></trkpt><trkpt lat="43.4484315" lon="13.0360087"><ele>147.0</ele><time>2026-04-25T14:21:59.541Z</time></trkpt><trkpt lat="43.4485929" lon="13.0362258"><ele>147.0</ele><time>2026-04-25T14:22:00.532Z</time></trkpt><trkpt lat="43.4487276" lon="13.0364564"><ele>147.0</ele><time>2026-04-25T14:22:01.54Z</time></trkpt><trkpt lat="43.4488646" lon="13.0366736"><ele>146.66666666666666</ele><time>2026-04-25T14:22:02.533Z</time></trkpt><trkpt lat="43.4490009" lon="13.0369005"><ele>146.33333333333331</ele><time>2026-04-25T14:22:03.538Z</time></trkpt><trkpt lat="43.4491365" lon="13.0371304"><ele>146.0</ele><time>2026-04-25T14:22:04.538Z</time></trkpt><trkpt lat="43.4492726" lon="13.0373687"><ele>146.0</ele><time>2026-04-25T14:22:05.536Z</time></trkpt><trkpt lat="43.449407" lon="13.0376006"><ele>146.0</ele><time>2026-04-25T14:22:06.541Z</time></trkpt><trkpt lat="43.4495444" lon="13.0378373"><ele>146.0</ele><time>2026-04-25T14:22:07.539Z</time></trkpt><trkpt lat="43.449668" lon="13.0380774"><ele>145.66666666666666</ele><time>2026-04-25T14:22:08.538Z</time></trkpt><trkpt lat="43.4497835" lon="13.0383339"><ele>145.33333333333334</ele><time>2026-04-25T14:22:09.535Z</time></trkpt><trkpt lat="43.4499031" lon="13.0385874"><ele>145.0</ele><time>2026-04-25T14:22:10.539Z</time></trkpt><trkpt lat="43.450024" lon="13.0388397"><ele>145.0</ele><time>2026-04-25T14:22:11.541Z</time></trkpt><trkpt lat="43.4501295" lon="13.0390965"><ele>145.0</ele><time>2026-04-25T14:22:12.535Z</time></trkpt><trkpt lat="43.4502511" lon="13.0393469"><ele>145.0</ele><time>2026-04-25T14:22:13.537Z</time></trkpt><trkpt lat="43.4503761" lon="13.0396151"><ele>145.0</ele><time>2026-04-25T14:22:14.531Z</time></trkpt><trkpt lat="43.4504883" lon="13.0398734"><ele>145.0</ele><time>2026-04-25T14:22:15.537Z</time></trkpt><trkpt lat="43.450598" lon="13.0401301"><ele>145.0</ele><time>2026-04-25T14:22:16.533Z</time></trkpt><trkpt lat="43.4507094" lon="13.0403777"><ele>145.33333333333334</ele><time>2026-04-25T14:22:17.535Z</time></trkpt><trkpt lat="43.4508314" lon="13.0406464"><ele>145.66666666666666</ele><time>2026-04-25T14:22:18.539Z</time></trkpt><trkpt lat="43.4509492" lon="13.0408891"><ele>146.0</ele><time>2026-04-25T14:22:19.534Z</time></trkpt><trkpt lat="43.4510641" lon="13.0411321"><ele>146.0</ele><time>2026-04-25T14:22:20.535Z</time></trkpt><trkpt lat="43.4511803" lon="13.0413654"><ele>146.0</ele><time>2026-04-25T14:22:21.539Z</time></trkpt><trkpt lat="43.4513033" lon="13.0416112"><ele>146.0</ele><time>2026-04-25T14:22:22.533Z</time></trkpt><trkpt lat="43.4514199" lon="13.0418535"><ele>146.0</ele><time>2026-04-25T14:22:23.536Z</time></trkpt><trkpt lat="43.4515448" lon="13.0420981"><ele>146.0</ele><time>2026-04-25T14:22:24.533Z</time></trkpt><trkpt lat="43.4516582" lon="13.0423274"><ele>146.0</ele><time>2026-04-25T14:22:25.535Z</time></trkpt><trkpt lat="43.4517929" lon="13.0425428"><ele>146.0</ele><time>2026-04-25T14:22:26.536Z</time></trkpt><trkpt lat="43.4519281" lon="13.0427721"><ele>146.0</ele><time>2026-04-25T14:22:27.531Z</time></trkpt><trkpt lat="43.4520534" lon="13.0430057"><ele>146.0</ele><time>2026-04-25T14:22:28.534Z</time></trkpt><trkpt lat="43.4521823" lon="13.0432286"><ele>146.33333333333331</ele><time>2026-04-25T14:22:29.536Z</time></trkpt><trkpt lat="43.4523239" lon="13.0434517"><ele>146.66666666666666</ele><time>2026-04-25T14:22:30.541Z</time></trkpt><trkpt lat="43.4524731" lon="13.0436691"><ele>147.0</ele><time>2026-04-25T14:22:31.537Z</time></trkpt><trkpt lat="43.4526229" lon="13.0438802"><ele>147.0</ele><time>2026-04-25T14:22:32.542Z</time></trkpt><trkpt lat="43.452763" lon="13.0440857"><ele>147.0</ele><time>2026-04-25T14:22:33.539Z</time></trkpt><trkpt lat="43.4529027" lon="13.0442809"><ele>147.0</ele><time>2026-04-25T14:22:34.544Z</time></trkpt><trkpt lat="43.4530418" lon="13.0444664"><ele>147.33333333333334</ele><time>2026-04-25T14:22:35.539Z</time></trkpt><trkpt lat="43.4531896" lon="13.0446513"><ele>147.66666666666669</ele><time>2026-04-25T14:22:36.544Z</time></trkpt><trkpt lat="43.4533378" lon="13.0448439"><ele>148.0</ele><time>2026-04-25T14:22:37.537Z</time></trkpt><trkpt lat="43.4534839" lon="13.0450186"><ele>148.0</ele><time>2026-04-25T14:22:38.537Z</time></trkpt><trkpt lat="43.4536414" lon="13.0451902"><ele>148.0</ele><time>2026-04-25T14:22:39.528Z</time></trkpt><trkpt lat="43.4537968" lon="13.0453767"><ele>148.0</ele><time>2026-04-25T14:22:40.538Z</time></trkpt><trkpt lat="43.4539489" lon="13.0455584"><ele>147.66666666666669</ele><time>2026-04-25T14:22:41.533Z</time></trkpt><trkpt lat="43.4541132" lon="13.0457325"><ele>147.33333333333334</ele><time>2026-04-25T14:22:42.541Z</time></trkpt><trkpt lat="43.4542791" lon="13.0459094"><ele>147.0</ele><time>2026-04-25T14:22:43.535Z</time></trkpt><trkpt lat="43.454451" lon="13.0460763"><ele>146.66666666666666</ele><time>2026-04-25T14:22:44.544Z</time></trkpt><trkpt lat="43.4546304" lon="13.0462369"><ele>146.33333333333331</ele><time>2026-04-25T14:22:45.533Z</time></trkpt><trkpt lat="43.4548103" lon="13.0463957"><ele>146.0</ele><time>2026-04-25T14:22:46.539Z</time></trkpt><trkpt lat="43.4549863" lon="13.0465607"><ele>145.33333333333331</ele><time>2026-04-25T14:22:47.533Z</time></trkpt><trkpt lat="43.4551641" lon="13.0467116"><ele>144.66666666666666</ele><time>2026-04-25T14:22:48.542Z</time></trkpt><trkpt lat="43.4553393" lon="13.0468642"><ele>144.0</ele><time>2026-04-25T14:22:49.539Z</time></trkpt><trkpt lat="43.4555258" lon="13.0470035"><ele>143.66666666666666</ele><time>2026-04-25T14:22:50.537Z</time></trkpt><trkpt lat="43.4557043" lon="13.0471554"><ele>143.33333333333331</ele><time>2026-04-25T14:22:51.542Z</time></trkpt><trkpt lat="43.4558911" lon="13.0472967"><ele>143.0</ele><time>2026-04-25T14:22:52.532Z</time></trkpt><trkpt lat="43.4560856" lon="13.0474328"><ele>142.66666666666666</ele><time>2026-04-25T14:22:53.537Z</time></trkpt><trkpt lat="43.4562647" lon="13.0475725"><ele>142.33333333333334</ele><time>2026-04-25T14:22:54.533Z</time></trkpt><trkpt lat="43.4564515" lon="13.0477114"><ele>142.0</ele><time>2026-04-25T14:22:55.547Z</time></trkpt><trkpt lat="43.4566361" lon="13.0478535"><ele>142.0</ele><time>2026-04-25T14:22:56.541Z</time></trkpt><trkpt lat="43.4568208" lon="13.0479783"><ele>142.0</ele><time>2026-04-25T14:22:57.543Z</time></trkpt><trkpt lat="43.4570049" lon="13.0481162"><ele>142.0</ele><time>2026-04-25T14:22:58.541Z</time></trkpt><trkpt lat="43.4571821" lon="13.0482612"><ele>142.0</ele><time>2026-04-25T14:22:59.549Z</time></trkpt><trkpt lat="43.4573589" lon="13.0484015"><ele>142.0</ele><time>2026-04-25T14:23:00.544Z</time></trkpt><trkpt lat="43.4575311" lon="13.0485464"><ele>142.0</ele><time>2026-04-25T14:23:01.543Z</time></trkpt><trkpt lat="43.4577042" lon="13.0486924"><ele>142.0</ele><time>2026-04-25T14:23:02.537Z</time></trkpt><trkpt lat="43.4578692" lon="13.0488583"><ele>142.0</ele><time>2026-04-25T14:23:03.542Z</time></trkpt><trkpt lat="43.4580364" lon="13.0490226"><ele>142.0</ele><time>2026-04-25T14:23:04.54Z</time></trkpt><trkpt lat="43.4582053" lon="13.0491944"><ele>141.66666666666669</ele><time>2026-04-25T14:23:05.536Z</time></trkpt><trkpt lat="43.4583677" lon="13.0493776"><ele>141.33333333333334</ele><time>2026-04-25T14:23:06.536Z</time></trkpt><trkpt lat="43.4585307" lon="13.0495601"><ele>141.0</ele><time>2026-04-25T14:23:07.542Z</time></trkpt><trkpt lat="43.4586993" lon="13.0497454"><ele>141.0</ele><time>2026-04-25T14:23:08.533Z</time></trkpt><trkpt lat="43.4588648" lon="13.049938"><ele>141.0</ele><time>2026-04-25T14:23:09.539Z</time></trkpt><trkpt lat="43.4590126" lon="13.0501396"><ele>141.0</ele><time>2026-04-25T14:23:10.536Z</time></trkpt><trkpt lat="43.4591622" lon="13.0503441"><ele>141.0</ele><time>2026-04-25T14:23:11.541Z</time></trkpt><trkpt lat="43.4593254" lon="13.0505446"><ele>141.0</ele><time>2026-04-25T14:23:12.536Z</time></trkpt><trkpt lat="43.4594739" lon="13.0507649"><ele>141.0</ele><time>2026-04-25T14:23:13.544Z</time></trkpt><trkpt lat="43.4596167" lon="13.0509836"><ele>141.0</ele><time>2026-04-25T14:23:14.534Z</time></trkpt><trkpt lat="43.4597503" lon="13.051211"><ele>141.0</ele><time>2026-04-25T14:23:15.539Z</time></trkpt><trkpt lat="43.4598781" lon="13.0514423"><ele>141.0</ele><time>2026-04-25T14:23:16.536Z</time></trkpt><trkpt lat="43.4600029" lon="13.0516762"><ele>140.0</ele><time>2026-04-25T14:23:17.544Z</time></trkpt><trkpt lat="43.4601289" lon="13.0519171"><ele>139.0</ele><time>2026-04-25T14:23:18.543Z</time></trkpt><trkpt lat="43.4602501" lon="13.0521629"><ele>138.0</ele><time>2026-04-25T14:23:19.539Z</time></trkpt><trkpt lat="43.4603666" lon="13.0524231"><ele>138.33333333333334</ele><time>2026-04-25T14:23:20.549Z</time></trkpt><trkpt lat="43.4604857" lon="13.0526705"><ele>138.66666666666669</ele><time>2026-04-25T14:23:21.536Z</time></trkpt><trkpt lat="43.4606084" lon="13.0529298"><ele>139.0</ele><time>2026-04-25T14:23:22.538Z</time></trkpt><trkpt lat="43.4607158" lon="13.0531957"><ele>138.66666666666669</ele><time>2026-04-25T14:23:23.535Z</time></trkpt><trkpt lat="43.4608141" lon="13.0534677"><ele>138.33333333333334</ele><time>2026-04-25T14:23:24.538Z</time></trkpt><trkpt lat="43.4609116" lon="13.0537329"><ele>138.0</ele><time>2026-04-25T14:23:25.535Z</time></trkpt><trkpt lat="43.4610115" lon="13.0540118"><ele>137.66666666666666</ele><time>2026-04-25T14:23:26.543Z</time></trkpt><trkpt lat="43.4610939" lon="13.0542767"><ele>137.33333333333331</ele><time>2026-04-25T14:23:27.538Z</time></trkpt><trkpt lat="43.4611755" lon="13.0545506"><ele>137.0</ele><time>2026-04-25T14:23:28.54Z</time></trkpt><trkpt lat="43.4612596" lon="13.054828"><ele>136.66666666666666</ele><time>2026-04-25T14:23:29.538Z</time></trkpt><trkpt lat="43.4613368" lon="13.0551024"><ele>136.33333333333334</ele><time>2026-04-25T14:23:30.539Z</time></trkpt><trkpt lat="43.461414" lon="13.055383"><ele>136.0</ele><time>2026-04-25T14:23:31.533Z</time></trkpt><trkpt lat="43.4615034" lon="13.0556603"><ele>135.66666666666669</ele><time>2026-04-25T14:23:32.543Z</time></trkpt><trkpt lat="43.461596" lon="13.055939"><ele>135.33333333333334</ele><time>2026-04-25T14:23:33.535Z</time></trkpt><trkpt lat="43.4616844" lon="13.0562104"><ele>135.0</ele><time>2026-04-25T14:23:34.544Z</time></trkpt><trkpt lat="43.4617659" lon="13.056492"><ele>135.66666666666666</ele><time>2026-04-25T14:23:35.537Z</time></trkpt><trkpt lat="43.4618592" lon="13.0567724"><ele>136.33333333333331</ele><time>2026-04-25T14:23:36.54Z</time></trkpt><trkpt lat="43.4619481" lon="13.0570549"><ele>137.0</ele><time>2026-04-25T14:23:37.538Z</time></trkpt><trkpt lat="43.4620294" lon="13.0573436"><ele>136.0</ele><time>2026-04-25T14:23:38.542Z</time></trkpt><trkpt lat="43.4621133" lon="13.0576249"><ele>135.0</ele><time>2026-04-25T14:23:39.542Z</time></trkpt><trkpt lat="43.4622079" lon="13.0579134"><ele>135.0</ele><time>2026-04-25T14:23:40.548Z</time></trkpt><trkpt lat="43.4622997" lon="13.0582003"><ele>135.0</ele><time>2026-04-25T14:23:41.544Z</time></trkpt><trkpt lat="43.4623888" lon="13.0584803"><ele>135.0</ele><time>2026-04-25T14:23:42.55Z</time></trkpt><trkpt lat="43.4624776" lon="13.0587568"><ele>135.0</ele><time>2026-04-25T14:23:43.546Z</time></trkpt><trkpt lat="43.4625612" lon="13.0590398"><ele>135.0</ele><time>2026-04-25T14:23:44.55Z</time></trkpt><trkpt lat="43.4626536" lon="13.0593189"><ele>135.0</ele><time>2026-04-25T14:23:45.543Z</time></trkpt><trkpt lat="43.4627505" lon="13.059606"><ele>135.5</ele><time>2026-04-25T14:23:46.545Z</time></trkpt><trkpt lat="43.4628513" lon="13.0598925"><ele>136.0</ele><time>2026-04-25T14:23:47.545Z</time></trkpt><trkpt lat="43.4629682" lon="13.0601828"><ele>136.0</ele><time>2026-04-25T14:23:48.558Z</time></trkpt><trkpt lat="43.4630597" lon="13.0604651"><ele>136.0</ele><time>2026-04-25T14:23:49.544Z</time></trkpt><trkpt lat="43.463149" lon="13.0607342"><ele>136.0</ele><time>2026-04-25T14:23:50.548Z</time></trkpt><trkpt lat="43.4632444" lon="13.0610159"><ele>136.66666666666669</ele><time>2026-04-25T14:23:51.553Z</time></trkpt><trkpt lat="43.4633416" lon="13.0613016"><ele>137.33333333333334</ele><time>2026-04-25T14:23:52.555Z</time></trkpt><trkpt lat="43.4634332" lon="13.0615701"><ele>138.0</ele><time>2026-04-25T14:23:53.556Z</time></trkpt><trkpt lat="43.4635293" lon="13.0618359"><ele>138.66666666666666</ele><time>2026-04-25T14:23:54.556Z</time></trkpt><trkpt lat="43.4636325" lon="13.0621042"><ele>139.33333333333331</ele><time>2026-04-25T14:23:55.554Z</time></trkpt><trkpt lat="43.4637359" lon="13.0623592"><ele>140.0</ele><time>2026-04-25T14:23:56.553Z</time></trkpt><trkpt lat="43.4638351" lon="13.0626145"><ele>138.66666666666666</ele><time>2026-04-25T14:23:57.549Z</time></trkpt><trkpt lat="43.4639368" lon="13.0628489"><ele>137.33333333333334</ele><time>2026-04-25T14:23:58.555Z</time></trkpt><trkpt lat="43.4640334" lon="13.0630771"><ele>136.0</ele><time>2026-04-25T14:23:59.543Z</time></trkpt><trkpt lat="43.4641137" lon="13.0632894"><ele>136.0</ele><time>2026-04-25T14:24:00.554Z</time></trkpt><trkpt lat="43.4642009" lon="13.0634946"><ele>136.0</ele><time>2026-04-25T14:24:01.549Z</time></trkpt><trkpt lat="43.4642852" lon="13.0636916"><ele>136.0</ele><time>2026-04-25T14:24:02.554Z</time></trkpt><trkpt lat="43.464368" lon="13.0638863"><ele>136.0</ele><time>2026-04-25T14:24:03.547Z</time></trkpt><trkpt lat="43.4644513" lon="13.0640747"><ele>136.0</ele><time>2026-04-25T14:24:04.545Z</time></trkpt><trkpt lat="43.4645281" lon="13.064262"><ele>136.0</ele><time>2026-04-25T14:24:05.54Z</time></trkpt><trkpt lat="43.4646099" lon="13.0644439"><ele>136.0</ele><time>2026-04-25T14:24:06.552Z</time></trkpt><trkpt lat="43.464687" lon="13.0645977"><ele>136.0</ele><time>2026-04-25T14:24:07.546Z</time></trkpt><trkpt lat="43.4647737" lon="13.0647705"><ele>136.0</ele><time>2026-04-25T14:24:08.551Z</time></trkpt><trkpt lat="43.4648627" lon="13.0649484"><ele>136.0</ele><time>2026-04-25T14:24:09.549Z</time></trkpt><trkpt lat="43.4649433" lon="13.0651245"><ele>136.5</ele><time>2026-04-25T14:24:10.552Z</time></trkpt><trkpt lat="43.4650248" lon="13.0652753"><ele>137.0</ele><time>2026-04-25T14:24:11.552Z</time></trkpt><trkpt lat="43.4650874" lon="13.0654177"><ele>137.5</ele><time>2026-04-25T14:24:12.556Z</time></trkpt><trkpt lat="43.4651544" lon="13.0655489"><ele>138.0</ele><time>2026-04-25T14:24:13.546Z</time></trkpt><trkpt lat="43.4651946" lon="13.0656625"><ele>138.0</ele><time>2026-04-25T14:24:14.548Z</time></trkpt><trkpt lat="43.4652249" lon="13.0657726"><ele>138.0</ele><time>2026-04-25T14:24:15.548Z</time></trkpt><trkpt lat="43.4652203" lon="13.0658783"><ele>138.0</ele><time>2026-04-25T14:24:16.534Z</time></trkpt><trkpt lat="43.4652054" lon="13.0659824"><ele>138.0</ele><time>2026-04-25T14:24:17.539Z</time></trkpt><trkpt lat="43.4651619" lon="13.0660891"><ele>138.0</ele><time>2026-04-25T14:24:18.541Z</time></trkpt><trkpt lat="43.4650976" lon="13.0661836"><ele>138.0</ele><time>2026-04-25T14:24:19.534Z</time></trkpt><trkpt lat="43.4650203" lon="13.0662579"><ele>138.0</ele><time>2026-04-25T14:24:20.54Z</time></trkpt><trkpt lat="43.4649203" lon="13.0663061"><ele>138.0</ele><time>2026-04-25T14:24:21.547Z</time></trkpt><trkpt lat="43.4648162" lon="13.0663558"><ele>138.0</ele><time>2026-04-25T14:24:22.55Z</time></trkpt><trkpt lat="43.4647005" lon="13.0664154"><ele>138.0</ele><time>2026-04-25T14:24:23.547Z</time></trkpt><trkpt lat="43.4645743" lon="13.0664809"><ele>138.25</ele><time>2026-04-25T14:24:24.555Z</time></trkpt><trkpt lat="43.4644485" lon="13.0665495"><ele>138.5</ele><time>2026-04-25T14:24:25.549Z</time></trkpt><trkpt lat="43.464339" lon="13.0666079"><ele>138.75</ele><time>2026-04-25T14:24:26.547Z</time></trkpt><trkpt lat="43.464232" lon="13.0666465"><ele>139.0</ele><time>2026-04-25T14:24:27.537Z</time></trkpt><trkpt lat="43.4641265" lon="13.0666713"><ele>139.0</ele><time>2026-04-25T14:24:28.529Z</time></trkpt><trkpt lat="43.4640366" lon="13.0666541"><ele>139.0</ele><time>2026-04-25T14:24:29.535Z</time></trkpt><trkpt lat="43.4639558" lon="13.0666122"><ele>139.0</ele><time>2026-04-25T14:24:30.533Z</time></trkpt><trkpt lat="43.4638849" lon="13.0665571"><ele>139.0</ele><time>2026-04-25T14:24:31.53Z</time></trkpt><trkpt lat="43.4638246" lon="13.0664777"><ele>139.0</ele><time>2026-04-25T14:24:32.542Z</time></trkpt><trkpt lat="43.4637839" lon="13.0663728"><ele>139.0</ele><time>2026-04-25T14:24:33.534Z</time></trkpt><trkpt lat="43.4637628" lon="13.0662635"><ele>139.0</ele><time>2026-04-25T14:24:34.546Z</time></trkpt><trkpt lat="43.4637527" lon="13.0661402"><ele>139.0</ele><time>2026-04-25T14:24:35.535Z</time></trkpt><trkpt lat="43.4637668" lon="13.0660044"><ele>139.0</ele><time>2026-04-25T14:24:36.548Z</time></trkpt><trkpt lat="43.4637863" lon="13.0658401"><ele>139.0</ele><time>2026-04-25T14:24:37.535Z</time></trkpt><trkpt lat="43.463815" lon="13.0656431"><ele>138.66666666666669</ele><time>2026-04-25T14:24:38.538Z</time></trkpt><trkpt lat="43.4638458" lon="13.0654337"><ele>138.33333333333334</ele><time>2026-04-25T14:24:39.529Z</time></trkpt><trkpt lat="43.463868" lon="13.0652172"><ele>138.0</ele><time>2026-04-25T14:24:40.547Z</time></trkpt><trkpt lat="43.4639193" lon="13.0650024"><ele>137.8</ele><time>2026-04-25T14:24:41.538Z</time></trkpt><trkpt lat="43.4639558" lon="13.0648212"><ele>137.60000000000002</ele><time>2026-04-25T14:24:42.54Z</time></trkpt><trkpt lat="43.4640038" lon="13.0646872"><ele>137.39999999999998</ele><time>2026-04-25T14:24:43.538Z</time></trkpt><trkpt lat="43.4640497" lon="13.0645753"><ele>137.2</ele><time>2026-04-25T14:24:44.537Z</time></trkpt><trkpt lat="43.4641203" lon="13.0644602"><ele>137.0</ele><time>2026-04-25T14:24:45.535Z</time></trkpt><trkpt lat="43.4642212" lon="13.0643644"><ele>137.0</ele><time>2026-04-25T14:24:46.538Z</time></trkpt><trkpt lat="43.4643302" lon="13.0642634"><ele>137.0</ele><time>2026-04-25T14:24:47.537Z</time></trkpt><trkpt lat="43.4644494" lon="13.064184"><ele>137.0</ele><time>2026-04-25T14:24:48.543Z</time></trkpt><trkpt lat="43.464577" lon="13.0641064"><ele>137.0</ele><time>2026-04-25T14:24:49.524Z</time></trkpt><trkpt lat="43.4647156" lon="13.0640286"><ele>136.4</ele><time>2026-04-25T14:24:50.531Z</time></trkpt><trkpt lat="43.46484" lon="13.0639465"><ele>135.79999999999998</ele><time>2026-04-25T14:24:51.526Z</time></trkpt><trkpt lat="43.4649559" lon="13.063885"><ele>135.2</ele><time>2026-04-25T14:24:52.537Z</time></trkpt><trkpt lat="43.4650251" lon="13.0638421"><ele>134.6</ele><time>2026-04-25T14:24:53.547Z</time></trkpt><trkpt lat="43.4651265" lon="13.0638068"><ele>134.0</ele><time>2026-04-25T14:24:54.545Z</time></trkpt><trkpt lat="43.4652062" lon="13.063769"><ele>134.0</ele><time>2026-04-25T14:24:55.543Z</time></trkpt><trkpt lat="43.4652847" lon="13.0637484"><ele>134.0</ele><time>2026-04-25T14:24:56.544Z</time></trkpt><trkpt lat="43.4653834" lon="13.0636792"><ele>134.0</ele><time>2026-04-25T14:24:57.538Z</time></trkpt><trkpt lat="43.4654961" lon="13.0636098"><ele>134.0</ele><time>2026-04-25T14:24:58.536Z</time></trkpt><trkpt lat="43.4656238" lon="13.0635367"><ele>133.66666666666666</ele><time>2026-04-25T14:24:59.533Z</time></trkpt><trkpt lat="43.4657569" lon="13.0634492"><ele>133.33333333333334</ele><time>2026-04-25T14:25:00.538Z</time></trkpt><trkpt lat="43.4659047" lon="13.0633679"><ele>133.0</ele><time>2026-04-25T14:25:01.527Z</time></trkpt><trkpt lat="43.4660573" lon="13.0632959"><ele>133.0</ele><time>2026-04-25T14:25:02.522Z</time></trkpt><trkpt lat="43.4662172" lon="13.0632234"><ele>133.0</ele><time>2026-04-25T14:25:03.532Z</time></trkpt><trkpt lat="43.4663616" lon="13.0631347"><ele>133.0</ele><time>2026-04-25T14:25:04.537Z</time></trkpt><trkpt lat="43.4664883" lon="13.0630359"><ele>133.0</ele><time>2026-04-25T14:25:05.527Z</time></trkpt><trkpt lat="43.4666358" lon="13.0629388"><ele>133.0</ele><time>2026-04-25T14:25:06.531Z</time></trkpt><trkpt lat="43.466771" lon="13.0628619"><ele>133.0</ele><time>2026-04-25T14:25:07.53Z</time></trkpt><trkpt lat="43.4668929" lon="13.0627699"><ele>133.0</ele><time>2026-04-25T14:25:08.529Z</time></trkpt><trkpt lat="43.4669987" lon="13.0626976"><ele>133.0</ele><time>2026-04-25T14:25:09.536Z</time></trkpt><trkpt lat="43.4670918" lon="13.062622"><ele>133.0</ele><time>2026-04-25T14:25:10.537Z</time></trkpt><trkpt lat="43.4671784" lon="13.0625734"><ele>133.0</ele><time>2026-04-25T14:25:11.534Z</time></trkpt><trkpt lat="43.4672469" lon="13.0625204"><ele>133.0</ele><time>2026-04-25T14:25:12.534Z</time></trkpt><trkpt lat="43.4673077" lon="13.0624745"><ele>133.0</ele><time>2026-04-25T14:25:13.533Z</time></trkpt><trkpt lat="43.4673832" lon="13.06242"><ele>133.0</ele><time>2026-04-25T14:25:15.537Z</time></trkpt><trkpt lat="43.4674697" lon="13.0623698"><ele>134.6</ele><time>2026-04-25T14:25:51.54Z</time></trkpt><trkpt lat="43.4675989" lon="13.0622792"><ele>136.20000000000002</ele><time>2026-04-25T14:25:53.535Z</time></trkpt><trkpt lat="43.4676735" lon="13.0622218"><ele>137.8</ele><time>2026-04-25T14:25:54.544Z</time></trkpt><trkpt lat="43.4677311" lon="13.0621816"><ele>139.4</ele><time>2026-04-25T14:25:55.529Z</time></trkpt><trkpt lat="43.4678376" lon="13.0621717"><ele>141.0</ele><time>2026-04-25T14:25:57.53Z</time></trkpt><trkpt lat="43.4678926" lon="13.0622368"><ele>140.75</ele><time>2026-04-25T14:25:58.547Z</time></trkpt><trkpt lat="43.4679553" lon="13.0623469"><ele>140.5</ele><time>2026-04-25T14:25:59.535Z</time></trkpt><trkpt lat="43.4680233" lon="13.062467"><ele>140.25</ele><time>2026-04-25T14:26:00.538Z</time></trkpt><trkpt lat="43.4681091" lon="13.0626035"><ele>140.0</ele><time>2026-04-25T14:26:01.539Z</time></trkpt><trkpt lat="43.4681985" lon="13.0627464"><ele>140.0</ele><time>2026-04-25T14:26:02.535Z</time></trkpt><trkpt lat="43.4682967" lon="13.0628774"><ele>140.0</ele><time>2026-04-25T14:26:03.537Z</time></trkpt><trkpt lat="43.4683889" lon="13.063004"><ele>140.0</ele><time>2026-04-25T14:26:04.531Z</time></trkpt><trkpt lat="43.4684688" lon="13.0631202"><ele>140.0</ele><time>2026-04-25T14:26:05.53Z</time></trkpt><trkpt lat="43.4685529" lon="13.0632193"><ele>140.4</ele><time>2026-04-25T14:26:06.52Z</time></trkpt><trkpt lat="43.4686311" lon="13.0633146"><ele>140.8</ele><time>2026-04-25T14:26:07.524Z</time></trkpt><trkpt lat="43.4686979" lon="13.0634202"><ele>141.2</ele><time>2026-04-25T14:26:08.527Z</time></trkpt><trkpt lat="43.4687654" lon="13.0635204"><ele>141.6</ele><time>2026-04-25T14:26:09.521Z</time></trkpt><trkpt lat="43.4688366" lon="13.0636212"><ele>142.0</ele><time>2026-04-25T14:26:10.526Z</time></trkpt><trkpt lat="43.4689114" lon="13.0637293"><ele>142.0</ele><time>2026-04-25T14:26:11.527Z</time></trkpt><trkpt lat="43.4689858" lon="13.063846"><ele>142.0</ele><time>2026-04-25T14:26:12.532Z</time></trkpt><trkpt lat="43.4690756" lon="13.0639543"><ele>142.0</ele><time>2026-04-25T14:26:13.53Z</time></trkpt><trkpt lat="43.4691673" lon="13.0640727"><ele>142.0</ele><time>2026-04-25T14:26:14.532Z</time></trkpt><trkpt lat="43.4692583" lon="13.0641938"><ele>141.25</ele><time>2026-04-25T14:26:15.525Z</time></trkpt><trkpt lat="43.4693597" lon="13.0643254"><ele>140.5</ele><time>2026-04-25T14:26:16.526Z</time></trkpt><trkpt lat="43.4694577" lon="13.0644776"><ele>139.75</ele><time>2026-04-25T14:26:17.53Z</time></trkpt><trkpt lat="43.46956" lon="13.0646437"><ele>139.0</ele><time>2026-04-25T14:26:18.538Z</time></trkpt><trkpt lat="43.4696436" lon="13.0647961"><ele>139.0</ele><time>2026-04-25T14:26:19.529Z</time></trkpt><trkpt lat="43.4697343" lon="13.0649334"><ele>139.0</ele><time>2026-04-25T14:26:20.533Z</time></trkpt><trkpt lat="43.4698293" lon="13.0650647"><ele>139.0</ele><time>2026-04-25T14:26:21.53Z</time></trkpt><trkpt lat="43.4699216" lon="13.0651974"><ele>139.0</ele><time>2026-04-25T14:26:22.534Z</time></trkpt><trkpt lat="43.4700183" lon="13.0653385"><ele>137.5</ele><time>2026-04-25T14:26:23.528Z</time></trkpt><trkpt lat="43.4701114" lon="13.0654651"><ele>136.0</ele><time>2026-04-25T14:26:24.532Z</time></trkpt><trkpt lat="43.4702042" lon="13.0656012"><ele>134.5</ele><time>2026-04-25T14:26:25.534Z</time></trkpt><trkpt lat="43.4703042" lon="13.0657009"><ele>133.0</ele><time>2026-04-25T14:26:26.53Z</time></trkpt><trkpt lat="43.4703998" lon="13.065808"><ele>132.83333333333334</ele><time>2026-04-25T14:26:27.536Z</time></trkpt><trkpt lat="43.4704609" lon="13.0659242"><ele>132.66666666666669</ele><time>2026-04-25T14:26:28.53Z</time></trkpt><trkpt lat="43.4705338" lon="13.0660083"><ele>132.5</ele><time>2026-04-25T14:26:29.527Z</time></trkpt><trkpt lat="43.4706103" lon="13.0660902"><ele>132.33333333333334</ele><time>2026-04-25T14:26:30.532Z</time></trkpt><trkpt lat="43.4706726" lon="13.0661651"><ele>132.16666666666666</ele><time>2026-04-25T14:26:31.53Z</time></trkpt><trkpt lat="43.4707348" lon="13.0662073"><ele>132.0</ele><time>2026-04-25T14:26:32.537Z</time></trkpt><trkpt lat="43.4708302" lon="13.0662871"><ele>132.0</ele><time>2026-04-25T14:26:34.527Z</time></trkpt><trkpt lat="43.4708688" lon="13.0664045"><ele>132.0</ele><time>2026-04-25T14:26:36.525Z</time></trkpt></trkseg></trk></gpx>